<?xml version="1.0" encoding="UTF-8" standalone="no" ?>
<gpx xmlns="http://www.topografix.com/GPX/1/1" xmlns:xsi="http://www.w3.org/2001/XMLSchema-instance" xsi:schemaLocation="http://www.topografix.com/GPX/1/1 http://www.topografix.com/GPX/1/1/gpx.xsd" version="1.1" creator="VisuGPX - https://www.visugpx.com">
  <metadata>
    <name>ROAD SERIES #200 - Into the wild corbières</name>
    <desc><![CDATA[🟢 - La deuxième manche des ROAD SERIES #2021 va se dérouler au c?ur du massif des Corbières. Un itinéraire intégral tracé dans les Corbières présente toujours un sacré défi. Les routes y sont étroites et rugueuses , mais la tranquillité et la beauté des paysages vous feront vite oublier que vous êtes sur un parcours des plus âpres !

une road series encore sous un vent incroyable. journée compliqué a gérer mais incroyable pour faire de belles petites photos. un tracer magnifique dans les corbières sauvage avec un dénivelé incroyable sur un 200 kms. j'ai assez bien gérer mon aventure dans l'ensemble. une des plus dure que j'ai faite, superbe journée ]]></desc>
  </metadata>
  <trk>
    <name><![CDATA[ROAD SERIES #200 - Into the wild corbières_1]]></name>
    <trkseg>
      <trkpt lat="43.2111" lon="2.35244">
        <ele>108.5</ele>
        <time>2021-03-21T05:01:21Z</time>
      </trkpt>
      <trkpt lat="43.21092" lon="2.35236">
        <ele>108.5</ele>
        <time>2021-03-21T05:01:26Z</time>
      </trkpt>
      <trkpt lat="43.21098" lon="2.35235">
        <ele>108.5</ele>
        <time>2021-03-21T05:01:28Z</time>
      </trkpt>
      <trkpt lat="43.2111" lon="2.35234">
        <ele>108.5</ele>
        <time>2021-03-21T05:01:29Z</time>
      </trkpt>
      <trkpt lat="43.21109" lon="2.35233">
        <ele>108.5</ele>
        <time>2021-03-21T05:01:31Z</time>
      </trkpt>
      <trkpt lat="43.21109" lon="2.35233">
        <ele>108.5</ele>
        <time>2021-03-21T05:01:32Z</time>
      </trkpt>
      <trkpt lat="43.21109" lon="2.35233">
        <ele>108.5</ele>
        <time>2021-03-21T05:01:33Z</time>
      </trkpt>
      <trkpt lat="43.21109" lon="2.35233">
        <ele>108.5</ele>
        <time>2021-03-21T05:01:34Z</time>
      </trkpt>
      <trkpt lat="43.21109" lon="2.35233">
        <ele>108.5</ele>
        <time>2021-03-21T05:01:36Z</time>
      </trkpt>
      <trkpt lat="43.21109" lon="2.35233">
        <ele>108.5</ele>
        <time>2021-03-21T05:01:38Z</time>
      </trkpt>
      <trkpt lat="43.21109" lon="2.35233">
        <ele>108.5</ele>
        <time>2021-03-21T05:01:40Z</time>
      </trkpt>
      <trkpt lat="43.21113" lon="2.35233">
        <ele>108.6</ele>
        <time>2021-03-21T05:01:53Z</time>
      </trkpt>
      <trkpt lat="43.21117" lon="2.35232">
        <ele>108.6</ele>
        <time>2021-03-21T05:01:55Z</time>
      </trkpt>
      <trkpt lat="43.21119" lon="2.35232">
        <ele>108.6</ele>
        <time>2021-03-21T05:01:57Z</time>
      </trkpt>
      <trkpt lat="43.21119" lon="2.35232">
        <ele>108.6</ele>
        <time>2021-03-21T05:01:59Z</time>
      </trkpt>
      <trkpt lat="43.21119" lon="2.35233">
        <ele>108.6</ele>
        <time>2021-03-21T05:02:01Z</time>
      </trkpt>
      <trkpt lat="43.21119" lon="2.35232">
        <ele>108.6</ele>
        <time>2021-03-21T05:02:02Z</time>
      </trkpt>
      <trkpt lat="43.21119" lon="2.35232">
        <ele>108.6</ele>
        <time>2021-03-21T05:02:04Z</time>
      </trkpt>
      <trkpt lat="43.21119" lon="2.35233">
        <ele>108.6</ele>
        <time>2021-03-21T05:02:06Z</time>
      </trkpt>
      <trkpt lat="43.21118" lon="2.35228">
        <ele>108.6</ele>
        <time>2021-03-21T05:03:21Z</time>
      </trkpt>
      <trkpt lat="43.21116" lon="2.35208">
        <ele>108.8</ele>
        <time>2021-03-21T05:03:23Z</time>
      </trkpt>
      <trkpt lat="43.21116" lon="2.35204">
        <ele>108.8</ele>
        <time>2021-03-21T05:03:24Z</time>
      </trkpt>
      <trkpt lat="43.21116" lon="2.35203">
        <ele>108.8</ele>
        <time>2021-03-21T05:03:25Z</time>
      </trkpt>
      <trkpt lat="43.21115" lon="2.35199">
        <ele>108.8</ele>
        <time>2021-03-21T05:03:26Z</time>
      </trkpt>
      <trkpt lat="43.21117" lon="2.35192">
        <ele>108.9</ele>
        <time>2021-03-21T05:03:28Z</time>
      </trkpt>
      <trkpt lat="43.21118" lon="2.35188">
        <ele>108.9</ele>
        <time>2021-03-21T05:03:29Z</time>
      </trkpt>
      <trkpt lat="43.2112" lon="2.3518">
        <ele>109</ele>
        <time>2021-03-21T05:03:31Z</time>
      </trkpt>
      <trkpt lat="43.21121" lon="2.35173">
        <ele>109</ele>
        <time>2021-03-21T05:03:33Z</time>
      </trkpt>
      <trkpt lat="43.2112" lon="2.35166">
        <ele>109.1</ele>
        <time>2021-03-21T05:03:35Z</time>
      </trkpt>
      <trkpt lat="43.21119" lon="2.35158">
        <ele>109.2</ele>
        <time>2021-03-21T05:03:37Z</time>
      </trkpt>
      <trkpt lat="43.21119" lon="2.35155">
        <ele>109.2</ele>
        <time>2021-03-21T05:03:38Z</time>
      </trkpt>
      <trkpt lat="43.21119" lon="2.3515">
        <ele>109.2</ele>
        <time>2021-03-21T05:03:40Z</time>
      </trkpt>
      <trkpt lat="43.21119" lon="2.35147">
        <ele>109.3</ele>
        <time>2021-03-21T05:03:41Z</time>
      </trkpt>
      <trkpt lat="43.21122" lon="2.35144">
        <ele>109.3</ele>
        <time>2021-03-21T05:03:43Z</time>
      </trkpt>
      <trkpt lat="43.21131" lon="2.35144">
        <ele>109.6</ele>
        <time>2021-03-21T05:03:45Z</time>
      </trkpt>
      <trkpt lat="43.21136" lon="2.35145">
        <ele>109.7</ele>
        <time>2021-03-21T05:03:46Z</time>
      </trkpt>
      <trkpt lat="43.21147" lon="2.35146">
        <ele>109.9</ele>
        <time>2021-03-21T05:03:48Z</time>
      </trkpt>
      <trkpt lat="43.21159" lon="2.35149">
        <ele>109.8</ele>
        <time>2021-03-21T05:03:50Z</time>
      </trkpt>
      <trkpt lat="43.21166" lon="2.3515">
        <ele>109.8</ele>
        <time>2021-03-21T05:03:51Z</time>
      </trkpt>
      <trkpt lat="43.21172" lon="2.35151">
        <ele>109.7</ele>
        <time>2021-03-21T05:03:52Z</time>
      </trkpt>
      <trkpt lat="43.21183" lon="2.35151">
        <ele>109.5</ele>
        <time>2021-03-21T05:03:54Z</time>
      </trkpt>
      <trkpt lat="43.21192" lon="2.35151">
        <ele>109.4</ele>
        <time>2021-03-21T05:03:56Z</time>
      </trkpt>
      <trkpt lat="43.21195" lon="2.3515">
        <ele>109.2</ele>
        <time>2021-03-21T05:03:57Z</time>
      </trkpt>
      <trkpt lat="43.21197" lon="2.35151">
        <ele>109.1</ele>
        <time>2021-03-21T05:03:59Z</time>
      </trkpt>
      <trkpt lat="43.21195" lon="2.35156">
        <ele>109</ele>
        <time>2021-03-21T05:04:01Z</time>
      </trkpt>
      <trkpt lat="43.21193" lon="2.35167">
        <ele>108.8</ele>
        <time>2021-03-21T05:04:03Z</time>
      </trkpt>
      <trkpt lat="43.21191" lon="2.35182">
        <ele>108.7</ele>
        <time>2021-03-21T05:04:05Z</time>
      </trkpt>
      <trkpt lat="43.21191" lon="2.35189">
        <ele>108.6</ele>
        <time>2021-03-21T05:04:06Z</time>
      </trkpt>
      <trkpt lat="43.21192" lon="2.35195">
        <ele>108.5</ele>
        <time>2021-03-21T05:04:07Z</time>
      </trkpt>
      <trkpt lat="43.21195" lon="2.35209">
        <ele>108.4</ele>
        <time>2021-03-21T05:04:09Z</time>
      </trkpt>
      <trkpt lat="43.21196" lon="2.3522">
        <ele>108.3</ele>
        <time>2021-03-21T05:04:11Z</time>
      </trkpt>
      <trkpt lat="43.21194" lon="2.3523">
        <ele>108.2</ele>
        <time>2021-03-21T05:04:13Z</time>
      </trkpt>
      <trkpt lat="43.2119" lon="2.35234">
        <ele>108.1</ele>
        <time>2021-03-21T05:04:14Z</time>
      </trkpt>
      <trkpt lat="43.21194" lon="2.35239">
        <ele>108.1</ele>
        <time>2021-03-21T05:04:15Z</time>
      </trkpt>
      <trkpt lat="43.21202" lon="2.35245">
        <ele>108</ele>
        <time>2021-03-21T05:04:17Z</time>
      </trkpt>
      <trkpt lat="43.21203" lon="2.35247">
        <ele>108</ele>
        <time>2021-03-21T05:04:18Z</time>
      </trkpt>
      <trkpt lat="43.21205" lon="2.35259">
        <ele>107.9</ele>
        <time>2021-03-21T05:04:20Z</time>
      </trkpt>
      <trkpt lat="43.21205" lon="2.35267">
        <ele>107.9</ele>
        <time>2021-03-21T05:04:21Z</time>
      </trkpt>
      <trkpt lat="43.21206" lon="2.35277">
        <ele>107.8</ele>
        <time>2021-03-21T05:04:22Z</time>
      </trkpt>
      <trkpt lat="43.21206" lon="2.35287">
        <ele>107.8</ele>
        <time>2021-03-21T05:04:23Z</time>
      </trkpt>
      <trkpt lat="43.21206" lon="2.35297">
        <ele>107.8</ele>
        <time>2021-03-21T05:04:24Z</time>
      </trkpt>
      <trkpt lat="43.21207" lon="2.35315">
        <ele>107.7</ele>
        <time>2021-03-21T05:04:26Z</time>
      </trkpt>
      <trkpt lat="43.21207" lon="2.35334">
        <ele>107.6</ele>
        <time>2021-03-21T05:04:28Z</time>
      </trkpt>
      <trkpt lat="43.21205" lon="2.35353">
        <ele>107.4</ele>
        <time>2021-03-21T05:04:30Z</time>
      </trkpt>
      <trkpt lat="43.21203" lon="2.3537">
        <ele>107.2</ele>
        <time>2021-03-21T05:04:32Z</time>
      </trkpt>
      <trkpt lat="43.212" lon="2.35385">
        <ele>107</ele>
        <time>2021-03-21T05:04:34Z</time>
      </trkpt>
      <trkpt lat="43.21198" lon="2.35401">
        <ele>106.8</ele>
        <time>2021-03-21T05:04:36Z</time>
      </trkpt>
      <trkpt lat="43.21197" lon="2.3541">
        <ele>106.7</ele>
        <time>2021-03-21T05:04:37Z</time>
      </trkpt>
      <trkpt lat="43.21198" lon="2.35427">
        <ele>106.5</ele>
        <time>2021-03-21T05:04:39Z</time>
      </trkpt>
      <trkpt lat="43.21199" lon="2.35435">
        <ele>106.4</ele>
        <time>2021-03-21T05:04:40Z</time>
      </trkpt>
      <trkpt lat="43.212" lon="2.3545">
        <ele>106.3</ele>
        <time>2021-03-21T05:04:42Z</time>
      </trkpt>
      <trkpt lat="43.212" lon="2.35458">
        <ele>106.3</ele>
        <time>2021-03-21T05:04:43Z</time>
      </trkpt>
      <trkpt lat="43.212" lon="2.35473">
        <ele>106.3</ele>
        <time>2021-03-21T05:04:45Z</time>
      </trkpt>
      <trkpt lat="43.212" lon="2.35489">
        <ele>106.3</ele>
        <time>2021-03-21T05:04:47Z</time>
      </trkpt>
      <trkpt lat="43.21201" lon="2.35498">
        <ele>106.3</ele>
        <time>2021-03-21T05:04:48Z</time>
      </trkpt>
      <trkpt lat="43.21201" lon="2.35504">
        <ele>106.3</ele>
        <time>2021-03-21T05:04:50Z</time>
      </trkpt>
      <trkpt lat="43.21201" lon="2.35504">
        <ele>106.3</ele>
        <time>2021-03-21T05:04:51Z</time>
      </trkpt>
      <trkpt lat="43.21203" lon="2.35503">
        <ele>106.3</ele>
        <time>2021-03-21T05:04:53Z</time>
      </trkpt>
      <trkpt lat="43.21197" lon="2.35495">
        <ele>106.4</ele>
        <time>2021-03-21T05:04:55Z</time>
      </trkpt>
      <trkpt lat="43.21197" lon="2.35496">
        <ele>106.4</ele>
        <time>2021-03-21T05:04:57Z</time>
      </trkpt>
      <trkpt lat="43.21197" lon="2.35504">
        <ele>106.5</ele>
        <time>2021-03-21T05:05:00Z</time>
      </trkpt>
      <trkpt lat="43.21196" lon="2.35504">
        <ele>106.5</ele>
        <time>2021-03-21T05:05:01Z</time>
      </trkpt>
      <trkpt lat="43.21197" lon="2.35504">
        <ele>106.5</ele>
        <time>2021-03-21T05:05:03Z</time>
      </trkpt>
      <trkpt lat="43.21197" lon="2.35505">
        <ele>106.5</ele>
        <time>2021-03-21T05:05:04Z</time>
      </trkpt>
      <trkpt lat="43.21198" lon="2.35507">
        <ele>106.5</ele>
        <time>2021-03-21T05:05:06Z</time>
      </trkpt>
      <trkpt lat="43.212" lon="2.35509">
        <ele>106.6</ele>
        <time>2021-03-21T05:05:08Z</time>
      </trkpt>
      <trkpt lat="43.212" lon="2.35514">
        <ele>106.6</ele>
        <time>2021-03-21T05:05:10Z</time>
      </trkpt>
      <trkpt lat="43.212" lon="2.35519">
        <ele>106.7</ele>
        <time>2021-03-21T05:05:11Z</time>
      </trkpt>
      <trkpt lat="43.21201" lon="2.35527">
        <ele>106.8</ele>
        <time>2021-03-21T05:05:13Z</time>
      </trkpt>
      <trkpt lat="43.21202" lon="2.35536">
        <ele>107</ele>
        <time>2021-03-21T05:05:14Z</time>
      </trkpt>
      <trkpt lat="43.21202" lon="2.35548">
        <ele>107.2</ele>
        <time>2021-03-21T05:05:16Z</time>
      </trkpt>
      <trkpt lat="43.212" lon="2.35555">
        <ele>107.2</ele>
        <time>2021-03-21T05:05:17Z</time>
      </trkpt>
      <trkpt lat="43.212" lon="2.35561">
        <ele>107.2</ele>
        <time>2021-03-21T05:05:18Z</time>
      </trkpt>
      <trkpt lat="43.212" lon="2.35566">
        <ele>107.2</ele>
        <time>2021-03-21T05:05:19Z</time>
      </trkpt>
      <trkpt lat="43.21197" lon="2.35583">
        <ele>107.2</ele>
        <time>2021-03-21T05:05:21Z</time>
      </trkpt>
      <trkpt lat="43.21195" lon="2.35593">
        <ele>107.2</ele>
        <time>2021-03-21T05:05:22Z</time>
      </trkpt>
      <trkpt lat="43.21193" lon="2.35601">
        <ele>107.2</ele>
        <time>2021-03-21T05:05:23Z</time>
      </trkpt>
      <trkpt lat="43.2119" lon="2.35617">
        <ele>107.3</ele>
        <time>2021-03-21T05:05:25Z</time>
      </trkpt>
      <trkpt lat="43.21188" lon="2.35631">
        <ele>107.4</ele>
        <time>2021-03-21T05:05:27Z</time>
      </trkpt>
      <trkpt lat="43.21185" lon="2.35645">
        <ele>107.4</ele>
        <time>2021-03-21T05:05:29Z</time>
      </trkpt>
      <trkpt lat="43.21183" lon="2.35659">
        <ele>107.5</ele>
        <time>2021-03-21T05:05:31Z</time>
      </trkpt>
      <trkpt lat="43.21183" lon="2.35667">
        <ele>107.6</ele>
        <time>2021-03-21T05:05:32Z</time>
      </trkpt>
      <trkpt lat="43.21182" lon="2.35674">
        <ele>107.6</ele>
        <time>2021-03-21T05:05:33Z</time>
      </trkpt>
      <trkpt lat="43.21182" lon="2.35682">
        <ele>107.6</ele>
        <time>2021-03-21T05:05:34Z</time>
      </trkpt>
      <trkpt lat="43.21182" lon="2.35698">
        <ele>107.7</ele>
        <time>2021-03-21T05:05:36Z</time>
      </trkpt>
      <trkpt lat="43.21181" lon="2.35704">
        <ele>107.7</ele>
        <time>2021-03-21T05:05:37Z</time>
      </trkpt>
      <trkpt lat="43.21181" lon="2.35711">
        <ele>107.8</ele>
        <time>2021-03-21T05:05:38Z</time>
      </trkpt>
      <trkpt lat="43.2118" lon="2.35718">
        <ele>107.8</ele>
        <time>2021-03-21T05:05:39Z</time>
      </trkpt>
      <trkpt lat="43.21179" lon="2.35726">
        <ele>107.8</ele>
        <time>2021-03-21T05:05:40Z</time>
      </trkpt>
      <trkpt lat="43.21177" lon="2.35733">
        <ele>107.8</ele>
        <time>2021-03-21T05:05:41Z</time>
      </trkpt>
      <trkpt lat="43.21177" lon="2.35742">
        <ele>107.8</ele>
        <time>2021-03-21T05:05:42Z</time>
      </trkpt>
      <trkpt lat="43.21183" lon="2.35756">
        <ele>107.8</ele>
        <time>2021-03-21T05:05:44Z</time>
      </trkpt>
      <trkpt lat="43.21188" lon="2.35762">
        <ele>108</ele>
        <time>2021-03-21T05:05:45Z</time>
      </trkpt>
      <trkpt lat="43.21198" lon="2.35772">
        <ele>108.1</ele>
        <time>2021-03-21T05:05:47Z</time>
      </trkpt>
      <trkpt lat="43.21204" lon="2.35785">
        <ele>108.2</ele>
        <time>2021-03-21T05:05:49Z</time>
      </trkpt>
      <trkpt lat="43.21205" lon="2.35792">
        <ele>108.3</ele>
        <time>2021-03-21T05:05:50Z</time>
      </trkpt>
      <trkpt lat="43.21203" lon="2.358">
        <ele>108.3</ele>
        <time>2021-03-21T05:05:51Z</time>
      </trkpt>
      <trkpt lat="43.21197" lon="2.35816">
        <ele>108.4</ele>
        <time>2021-03-21T05:05:53Z</time>
      </trkpt>
      <trkpt lat="43.21191" lon="2.35833">
        <ele>108.6</ele>
        <time>2021-03-21T05:05:55Z</time>
      </trkpt>
      <trkpt lat="43.21185" lon="2.35849">
        <ele>108.7</ele>
        <time>2021-03-21T05:05:57Z</time>
      </trkpt>
      <trkpt lat="43.21179" lon="2.35865">
        <ele>108.8</ele>
        <time>2021-03-21T05:05:59Z</time>
      </trkpt>
      <trkpt lat="43.21174" lon="2.35881">
        <ele>108.9</ele>
        <time>2021-03-21T05:06:01Z</time>
      </trkpt>
      <trkpt lat="43.21169" lon="2.35898">
        <ele>108.9</ele>
        <time>2021-03-21T05:06:03Z</time>
      </trkpt>
      <trkpt lat="43.21165" lon="2.35914">
        <ele>108.9</ele>
        <time>2021-03-21T05:06:05Z</time>
      </trkpt>
      <trkpt lat="43.21161" lon="2.35928">
        <ele>108.9</ele>
        <time>2021-03-21T05:06:07Z</time>
      </trkpt>
      <trkpt lat="43.21158" lon="2.35934">
        <ele>108.9</ele>
        <time>2021-03-21T05:06:08Z</time>
      </trkpt>
      <trkpt lat="43.21153" lon="2.35947">
        <ele>108.9</ele>
        <time>2021-03-21T05:06:10Z</time>
      </trkpt>
      <trkpt lat="43.21149" lon="2.35961">
        <ele>108.9</ele>
        <time>2021-03-21T05:06:12Z</time>
      </trkpt>
      <trkpt lat="43.21146" lon="2.35975">
        <ele>108.9</ele>
        <time>2021-03-21T05:06:14Z</time>
      </trkpt>
      <trkpt lat="43.21142" lon="2.3599">
        <ele>108.9</ele>
        <time>2021-03-21T05:06:16Z</time>
      </trkpt>
      <trkpt lat="43.21138" lon="2.36007">
        <ele>108.9</ele>
        <time>2021-03-21T05:06:18Z</time>
      </trkpt>
      <trkpt lat="43.21134" lon="2.36023">
        <ele>109</ele>
        <time>2021-03-21T05:06:20Z</time>
      </trkpt>
      <trkpt lat="43.21132" lon="2.36031">
        <ele>109</ele>
        <time>2021-03-21T05:06:21Z</time>
      </trkpt>
      <trkpt lat="43.2113" lon="2.36039">
        <ele>108.9</ele>
        <time>2021-03-21T05:06:22Z</time>
      </trkpt>
      <trkpt lat="43.21127" lon="2.36053">
        <ele>108.9</ele>
        <time>2021-03-21T05:06:24Z</time>
      </trkpt>
      <trkpt lat="43.21125" lon="2.36059">
        <ele>108.8</ele>
        <time>2021-03-21T05:06:25Z</time>
      </trkpt>
      <trkpt lat="43.21121" lon="2.36065">
        <ele>108.8</ele>
        <time>2021-03-21T05:06:26Z</time>
      </trkpt>
      <trkpt lat="43.21111" lon="2.36069">
        <ele>108.6</ele>
        <time>2021-03-21T05:06:28Z</time>
      </trkpt>
      <trkpt lat="43.211" lon="2.36063">
        <ele>108.4</ele>
        <time>2021-03-21T05:06:30Z</time>
      </trkpt>
      <trkpt lat="43.21096" lon="2.36059">
        <ele>108.1</ele>
        <time>2021-03-21T05:06:31Z</time>
      </trkpt>
      <trkpt lat="43.21086" lon="2.36053">
        <ele>107.4</ele>
        <time>2021-03-21T05:06:33Z</time>
      </trkpt>
      <trkpt lat="43.21074" lon="2.36047">
        <ele>106.7</ele>
        <time>2021-03-21T05:06:35Z</time>
      </trkpt>
      <trkpt lat="43.21061" lon="2.3604">
        <ele>105.9</ele>
        <time>2021-03-21T05:06:37Z</time>
      </trkpt>
      <trkpt lat="43.21046" lon="2.36034">
        <ele>105.4</ele>
        <time>2021-03-21T05:06:39Z</time>
      </trkpt>
      <trkpt lat="43.21033" lon="2.3603">
        <ele>105.2</ele>
        <time>2021-03-21T05:06:41Z</time>
      </trkpt>
      <trkpt lat="43.21022" lon="2.36027">
        <ele>105.3</ele>
        <time>2021-03-21T05:06:43Z</time>
      </trkpt>
      <trkpt lat="43.21016" lon="2.36027">
        <ele>105.3</ele>
        <time>2021-03-21T05:06:44Z</time>
      </trkpt>
      <trkpt lat="43.21006" lon="2.36029">
        <ele>105.3</ele>
        <time>2021-03-21T05:06:46Z</time>
      </trkpt>
      <trkpt lat="43.20996" lon="2.36032">
        <ele>105.2</ele>
        <time>2021-03-21T05:06:48Z</time>
      </trkpt>
      <trkpt lat="43.20991" lon="2.36036">
        <ele>105.2</ele>
        <time>2021-03-21T05:06:49Z</time>
      </trkpt>
      <trkpt lat="43.20986" lon="2.36039">
        <ele>105.2</ele>
        <time>2021-03-21T05:06:50Z</time>
      </trkpt>
      <trkpt lat="43.20981" lon="2.36041">
        <ele>105.2</ele>
        <time>2021-03-21T05:06:51Z</time>
      </trkpt>
      <trkpt lat="43.20975" lon="2.3604">
        <ele>105.2</ele>
        <time>2021-03-21T05:06:52Z</time>
      </trkpt>
      <trkpt lat="43.2097" lon="2.36038">
        <ele>105.2</ele>
        <time>2021-03-21T05:06:53Z</time>
      </trkpt>
      <trkpt lat="43.20957" lon="2.36032">
        <ele>105.2</ele>
        <time>2021-03-21T05:06:55Z</time>
      </trkpt>
      <trkpt lat="43.20945" lon="2.36027">
        <ele>105.2</ele>
        <time>2021-03-21T05:06:57Z</time>
      </trkpt>
      <trkpt lat="43.20937" lon="2.36017">
        <ele>105.2</ele>
        <time>2021-03-21T05:06:59Z</time>
      </trkpt>
      <trkpt lat="43.20933" lon="2.36011">
        <ele>105.2</ele>
        <time>2021-03-21T05:07:00Z</time>
      </trkpt>
      <trkpt lat="43.20927" lon="2.36">
        <ele>105.3</ele>
        <time>2021-03-21T05:07:02Z</time>
      </trkpt>
      <trkpt lat="43.20924" lon="2.35994">
        <ele>105.3</ele>
        <time>2021-03-21T05:07:03Z</time>
      </trkpt>
      <trkpt lat="43.20915" lon="2.35982">
        <ele>105.4</ele>
        <time>2021-03-21T05:07:05Z</time>
      </trkpt>
      <trkpt lat="43.20911" lon="2.35977">
        <ele>105.5</ele>
        <time>2021-03-21T05:07:06Z</time>
      </trkpt>
      <trkpt lat="43.20901" lon="2.35969">
        <ele>105.5</ele>
        <time>2021-03-21T05:07:08Z</time>
      </trkpt>
      <trkpt lat="43.20889" lon="2.35962">
        <ele>105.4</ele>
        <time>2021-03-21T05:07:10Z</time>
      </trkpt>
      <trkpt lat="43.20878" lon="2.35957">
        <ele>105.3</ele>
        <time>2021-03-21T05:07:12Z</time>
      </trkpt>
      <trkpt lat="43.20871" lon="2.35954">
        <ele>105.3</ele>
        <time>2021-03-21T05:07:13Z</time>
      </trkpt>
      <trkpt lat="43.20858" lon="2.3595">
        <ele>105.3</ele>
        <time>2021-03-21T05:07:15Z</time>
      </trkpt>
      <trkpt lat="43.20851" lon="2.35947">
        <ele>105.2</ele>
        <time>2021-03-21T05:07:16Z</time>
      </trkpt>
      <trkpt lat="43.20837" lon="2.35942">
        <ele>105.2</ele>
        <time>2021-03-21T05:07:18Z</time>
      </trkpt>
      <trkpt lat="43.20825" lon="2.35937">
        <ele>105.2</ele>
        <time>2021-03-21T05:07:20Z</time>
      </trkpt>
      <trkpt lat="43.20813" lon="2.35934">
        <ele>105.2</ele>
        <time>2021-03-21T05:07:22Z</time>
      </trkpt>
      <trkpt lat="43.20807" lon="2.35932">
        <ele>105.2</ele>
        <time>2021-03-21T05:07:23Z</time>
      </trkpt>
      <trkpt lat="43.20794" lon="2.3593">
        <ele>105.2</ele>
        <time>2021-03-21T05:07:25Z</time>
      </trkpt>
      <trkpt lat="43.20788" lon="2.35929">
        <ele>105.2</ele>
        <time>2021-03-21T05:07:26Z</time>
      </trkpt>
      <trkpt lat="43.20782" lon="2.35931">
        <ele>105.3</ele>
        <time>2021-03-21T05:07:27Z</time>
      </trkpt>
      <trkpt lat="43.20771" lon="2.35933">
        <ele>105.3</ele>
        <time>2021-03-21T05:07:29Z</time>
      </trkpt>
      <trkpt lat="43.20766" lon="2.35935">
        <ele>105.3</ele>
        <time>2021-03-21T05:07:30Z</time>
      </trkpt>
      <trkpt lat="43.2076" lon="2.35935">
        <ele>105.3</ele>
        <time>2021-03-21T05:07:31Z</time>
      </trkpt>
      <trkpt lat="43.2075" lon="2.35934">
        <ele>105.4</ele>
        <time>2021-03-21T05:07:33Z</time>
      </trkpt>
      <trkpt lat="43.20745" lon="2.35933">
        <ele>105.5</ele>
        <time>2021-03-21T05:07:34Z</time>
      </trkpt>
      <trkpt lat="43.20736" lon="2.35929">
        <ele>105.6</ele>
        <time>2021-03-21T05:07:36Z</time>
      </trkpt>
      <trkpt lat="43.20726" lon="2.35926">
        <ele>105.7</ele>
        <time>2021-03-21T05:07:38Z</time>
      </trkpt>
      <trkpt lat="43.20721" lon="2.35925">
        <ele>105.8</ele>
        <time>2021-03-21T05:07:39Z</time>
      </trkpt>
      <trkpt lat="43.2071" lon="2.35927">
        <ele>105.9</ele>
        <time>2021-03-21T05:07:41Z</time>
      </trkpt>
      <trkpt lat="43.20704" lon="2.35929">
        <ele>105.9</ele>
        <time>2021-03-21T05:07:42Z</time>
      </trkpt>
      <trkpt lat="43.20692" lon="2.35934">
        <ele>105.9</ele>
        <time>2021-03-21T05:07:44Z</time>
      </trkpt>
      <trkpt lat="43.20686" lon="2.35936">
        <ele>105.9</ele>
        <time>2021-03-21T05:07:45Z</time>
      </trkpt>
      <trkpt lat="43.20675" lon="2.35941">
        <ele>105.8</ele>
        <time>2021-03-21T05:07:47Z</time>
      </trkpt>
      <trkpt lat="43.20664" lon="2.35942">
        <ele>105.8</ele>
        <time>2021-03-21T05:07:49Z</time>
      </trkpt>
      <trkpt lat="43.20658" lon="2.35942">
        <ele>105.8</ele>
        <time>2021-03-21T05:07:50Z</time>
      </trkpt>
      <trkpt lat="43.20647" lon="2.35943">
        <ele>105.9</ele>
        <time>2021-03-21T05:07:52Z</time>
      </trkpt>
      <trkpt lat="43.20641" lon="2.35943">
        <ele>105.9</ele>
        <time>2021-03-21T05:07:53Z</time>
      </trkpt>
      <trkpt lat="43.20631" lon="2.35944">
        <ele>105.9</ele>
        <time>2021-03-21T05:07:55Z</time>
      </trkpt>
      <trkpt lat="43.20621" lon="2.35946">
        <ele>106</ele>
        <time>2021-03-21T05:07:57Z</time>
      </trkpt>
      <trkpt lat="43.20611" lon="2.35947">
        <ele>106</ele>
        <time>2021-03-21T05:07:59Z</time>
      </trkpt>
      <trkpt lat="43.20601" lon="2.35949">
        <ele>106</ele>
        <time>2021-03-21T05:08:01Z</time>
      </trkpt>
      <trkpt lat="43.20591" lon="2.3595">
        <ele>106</ele>
        <time>2021-03-21T05:08:03Z</time>
      </trkpt>
      <trkpt lat="43.20584" lon="2.35951">
        <ele>106</ele>
        <time>2021-03-21T05:08:04Z</time>
      </trkpt>
      <trkpt lat="43.2057" lon="2.35951">
        <ele>106</ele>
        <time>2021-03-21T05:08:06Z</time>
      </trkpt>
      <trkpt lat="43.20555" lon="2.35952">
        <ele>106.1</ele>
        <time>2021-03-21T05:08:08Z</time>
      </trkpt>
      <trkpt lat="43.20547" lon="2.35952">
        <ele>106.1</ele>
        <time>2021-03-21T05:08:09Z</time>
      </trkpt>
      <trkpt lat="43.2054" lon="2.35952">
        <ele>106.1</ele>
        <time>2021-03-21T05:08:10Z</time>
      </trkpt>
      <trkpt lat="43.20524" lon="2.35951">
        <ele>106.1</ele>
        <time>2021-03-21T05:08:12Z</time>
      </trkpt>
      <trkpt lat="43.20509" lon="2.3595">
        <ele>106.2</ele>
        <time>2021-03-21T05:08:14Z</time>
      </trkpt>
      <trkpt lat="43.20496" lon="2.3595">
        <ele>106.3</ele>
        <time>2021-03-21T05:08:16Z</time>
      </trkpt>
      <trkpt lat="43.20482" lon="2.35951">
        <ele>106.5</ele>
        <time>2021-03-21T05:08:18Z</time>
      </trkpt>
      <trkpt lat="43.20476" lon="2.35951">
        <ele>106.6</ele>
        <time>2021-03-21T05:08:19Z</time>
      </trkpt>
      <trkpt lat="43.2047" lon="2.35952">
        <ele>106.6</ele>
        <time>2021-03-21T05:08:20Z</time>
      </trkpt>
      <trkpt lat="43.20467" lon="2.35953">
        <ele>106.7</ele>
        <time>2021-03-21T05:08:21Z</time>
      </trkpt>
      <trkpt lat="43.20457" lon="2.35956">
        <ele>106.9</ele>
        <time>2021-03-21T05:08:23Z</time>
      </trkpt>
      <trkpt lat="43.20447" lon="2.35963">
        <ele>107</ele>
        <time>2021-03-21T05:08:25Z</time>
      </trkpt>
      <trkpt lat="43.20442" lon="2.35968">
        <ele>107.1</ele>
        <time>2021-03-21T05:08:26Z</time>
      </trkpt>
      <trkpt lat="43.20433" lon="2.3598">
        <ele>107.3</ele>
        <time>2021-03-21T05:08:28Z</time>
      </trkpt>
      <trkpt lat="43.20424" lon="2.35991">
        <ele>107.5</ele>
        <time>2021-03-21T05:08:30Z</time>
      </trkpt>
      <trkpt lat="43.2042" lon="2.35996">
        <ele>107.6</ele>
        <time>2021-03-21T05:08:31Z</time>
      </trkpt>
      <trkpt lat="43.2041" lon="2.36004">
        <ele>107.8</ele>
        <time>2021-03-21T05:08:33Z</time>
      </trkpt>
      <trkpt lat="43.20404" lon="2.36007">
        <ele>107.9</ele>
        <time>2021-03-21T05:08:34Z</time>
      </trkpt>
      <trkpt lat="43.20398" lon="2.36009">
        <ele>108</ele>
        <time>2021-03-21T05:08:35Z</time>
      </trkpt>
      <trkpt lat="43.20387" lon="2.36013">
        <ele>108.2</ele>
        <time>2021-03-21T05:08:37Z</time>
      </trkpt>
      <trkpt lat="43.20376" lon="2.36014">
        <ele>108.3</ele>
        <time>2021-03-21T05:08:39Z</time>
      </trkpt>
      <trkpt lat="43.2037" lon="2.36014">
        <ele>108.4</ele>
        <time>2021-03-21T05:08:40Z</time>
      </trkpt>
      <trkpt lat="43.20364" lon="2.36013">
        <ele>108.5</ele>
        <time>2021-03-21T05:08:41Z</time>
      </trkpt>
      <trkpt lat="43.20353" lon="2.36009">
        <ele>108.7</ele>
        <time>2021-03-21T05:08:43Z</time>
      </trkpt>
      <trkpt lat="43.20343" lon="2.36004">
        <ele>108.7</ele>
        <time>2021-03-21T05:08:45Z</time>
      </trkpt>
      <trkpt lat="43.20338" lon="2.36">
        <ele>108.7</ele>
        <time>2021-03-21T05:08:46Z</time>
      </trkpt>
      <trkpt lat="43.20327" lon="2.35992">
        <ele>108.8</ele>
        <time>2021-03-21T05:08:48Z</time>
      </trkpt>
      <trkpt lat="43.20317" lon="2.35984">
        <ele>108.8</ele>
        <time>2021-03-21T05:08:50Z</time>
      </trkpt>
      <trkpt lat="43.20311" lon="2.3598">
        <ele>108.9</ele>
        <time>2021-03-21T05:08:51Z</time>
      </trkpt>
      <trkpt lat="43.20306" lon="2.35977">
        <ele>108.9</ele>
        <time>2021-03-21T05:08:52Z</time>
      </trkpt>
      <trkpt lat="43.20294" lon="2.35972">
        <ele>109</ele>
        <time>2021-03-21T05:08:54Z</time>
      </trkpt>
      <trkpt lat="43.20288" lon="2.3597">
        <ele>109.1</ele>
        <time>2021-03-21T05:08:55Z</time>
      </trkpt>
      <trkpt lat="43.20277" lon="2.35967">
        <ele>109.2</ele>
        <time>2021-03-21T05:08:57Z</time>
      </trkpt>
      <trkpt lat="43.20272" lon="2.35966">
        <ele>109.2</ele>
        <time>2021-03-21T05:08:58Z</time>
      </trkpt>
      <trkpt lat="43.20266" lon="2.35966">
        <ele>109.3</ele>
        <time>2021-03-21T05:08:59Z</time>
      </trkpt>
      <trkpt lat="43.2026" lon="2.35966">
        <ele>109.3</ele>
        <time>2021-03-21T05:09:00Z</time>
      </trkpt>
      <trkpt lat="43.20249" lon="2.35968">
        <ele>109.4</ele>
        <time>2021-03-21T05:09:02Z</time>
      </trkpt>
      <trkpt lat="43.20243" lon="2.3597">
        <ele>109.4</ele>
        <time>2021-03-21T05:09:03Z</time>
      </trkpt>
      <trkpt lat="43.20237" lon="2.35972">
        <ele>109.5</ele>
        <time>2021-03-21T05:09:04Z</time>
      </trkpt>
      <trkpt lat="43.20225" lon="2.35975">
        <ele>109.6</ele>
        <time>2021-03-21T05:09:06Z</time>
      </trkpt>
      <trkpt lat="43.20214" lon="2.35979">
        <ele>109.8</ele>
        <time>2021-03-21T05:09:08Z</time>
      </trkpt>
      <trkpt lat="43.20208" lon="2.35981">
        <ele>109.9</ele>
        <time>2021-03-21T05:09:09Z</time>
      </trkpt>
      <trkpt lat="43.20197" lon="2.35985">
        <ele>110.2</ele>
        <time>2021-03-21T05:09:11Z</time>
      </trkpt>
      <trkpt lat="43.20192" lon="2.35988">
        <ele>110.3</ele>
        <time>2021-03-21T05:09:12Z</time>
      </trkpt>
      <trkpt lat="43.20187" lon="2.3599">
        <ele>110.5</ele>
        <time>2021-03-21T05:09:13Z</time>
      </trkpt>
      <trkpt lat="43.20181" lon="2.35991">
        <ele>110.7</ele>
        <time>2021-03-21T05:09:14Z</time>
      </trkpt>
      <trkpt lat="43.20176" lon="2.35992">
        <ele>110.9</ele>
        <time>2021-03-21T05:09:15Z</time>
      </trkpt>
      <trkpt lat="43.20166" lon="2.35991">
        <ele>111.3</ele>
        <time>2021-03-21T05:09:17Z</time>
      </trkpt>
      <trkpt lat="43.2016" lon="2.35989">
        <ele>111.5</ele>
        <time>2021-03-21T05:09:18Z</time>
      </trkpt>
      <trkpt lat="43.20155" lon="2.35986">
        <ele>111.6</ele>
        <time>2021-03-21T05:09:19Z</time>
      </trkpt>
      <trkpt lat="43.20146" lon="2.35977">
        <ele>111.7</ele>
        <time>2021-03-21T05:09:21Z</time>
      </trkpt>
      <trkpt lat="43.20142" lon="2.35973">
        <ele>111.8</ele>
        <time>2021-03-21T05:09:22Z</time>
      </trkpt>
      <trkpt lat="43.20134" lon="2.35962">
        <ele>112</ele>
        <time>2021-03-21T05:09:24Z</time>
      </trkpt>
      <trkpt lat="43.20127" lon="2.3595">
        <ele>112.1</ele>
        <time>2021-03-21T05:09:26Z</time>
      </trkpt>
      <trkpt lat="43.20122" lon="2.35936">
        <ele>112.2</ele>
        <time>2021-03-21T05:09:28Z</time>
      </trkpt>
      <trkpt lat="43.20116" lon="2.35923">
        <ele>112.3</ele>
        <time>2021-03-21T05:09:30Z</time>
      </trkpt>
      <trkpt lat="43.2011" lon="2.35912">
        <ele>112.5</ele>
        <time>2021-03-21T05:09:32Z</time>
      </trkpt>
      <trkpt lat="43.20107" lon="2.35907">
        <ele>112.6</ele>
        <time>2021-03-21T05:09:33Z</time>
      </trkpt>
      <trkpt lat="43.201" lon="2.35896">
        <ele>112.9</ele>
        <time>2021-03-21T05:09:35Z</time>
      </trkpt>
      <trkpt lat="43.20094" lon="2.35886">
        <ele>113.3</ele>
        <time>2021-03-21T05:09:37Z</time>
      </trkpt>
      <trkpt lat="43.2009" lon="2.35882">
        <ele>113.4</ele>
        <time>2021-03-21T05:09:38Z</time>
      </trkpt>
      <trkpt lat="43.20082" lon="2.35873">
        <ele>113.8</ele>
        <time>2021-03-21T05:09:40Z</time>
      </trkpt>
      <trkpt lat="43.20074" lon="2.35867">
        <ele>114.2</ele>
        <time>2021-03-21T05:09:42Z</time>
      </trkpt>
      <trkpt lat="43.20065" lon="2.35861">
        <ele>114.6</ele>
        <time>2021-03-21T05:09:44Z</time>
      </trkpt>
      <trkpt lat="43.2006" lon="2.35859">
        <ele>114.8</ele>
        <time>2021-03-21T05:09:45Z</time>
      </trkpt>
      <trkpt lat="43.20055" lon="2.35856">
        <ele>115.1</ele>
        <time>2021-03-21T05:09:46Z</time>
      </trkpt>
      <trkpt lat="43.20046" lon="2.35852">
        <ele>115.5</ele>
        <time>2021-03-21T05:09:48Z</time>
      </trkpt>
      <trkpt lat="43.20041" lon="2.3585">
        <ele>115.8</ele>
        <time>2021-03-21T05:09:49Z</time>
      </trkpt>
      <trkpt lat="43.20031" lon="2.35848">
        <ele>116.3</ele>
        <time>2021-03-21T05:09:51Z</time>
      </trkpt>
      <trkpt lat="43.20026" lon="2.35847">
        <ele>116.5</ele>
        <time>2021-03-21T05:09:52Z</time>
      </trkpt>
      <trkpt lat="43.20017" lon="2.35844">
        <ele>117</ele>
        <time>2021-03-21T05:09:54Z</time>
      </trkpt>
      <trkpt lat="43.20012" lon="2.35843">
        <ele>117.3</ele>
        <time>2021-03-21T05:09:55Z</time>
      </trkpt>
      <trkpt lat="43.20008" lon="2.35842">
        <ele>117.6</ele>
        <time>2021-03-21T05:09:56Z</time>
      </trkpt>
      <trkpt lat="43.20003" lon="2.3584">
        <ele>117.8</ele>
        <time>2021-03-21T05:09:57Z</time>
      </trkpt>
      <trkpt lat="43.19998" lon="2.35838">
        <ele>118.1</ele>
        <time>2021-03-21T05:09:58Z</time>
      </trkpt>
      <trkpt lat="43.19994" lon="2.35837">
        <ele>118.4</ele>
        <time>2021-03-21T05:09:59Z</time>
      </trkpt>
      <trkpt lat="43.19984" lon="2.35834">
        <ele>118.8</ele>
        <time>2021-03-21T05:10:01Z</time>
      </trkpt>
      <trkpt lat="43.1998" lon="2.35833">
        <ele>119.1</ele>
        <time>2021-03-21T05:10:02Z</time>
      </trkpt>
      <trkpt lat="43.19971" lon="2.3583">
        <ele>119.5</ele>
        <time>2021-03-21T05:10:04Z</time>
      </trkpt>
      <trkpt lat="43.19961" lon="2.35827">
        <ele>120.1</ele>
        <time>2021-03-21T05:10:06Z</time>
      </trkpt>
      <trkpt lat="43.19957" lon="2.35826">
        <ele>120.3</ele>
        <time>2021-03-21T05:10:07Z</time>
      </trkpt>
      <trkpt lat="43.19947" lon="2.35823">
        <ele>120.8</ele>
        <time>2021-03-21T05:10:09Z</time>
      </trkpt>
      <trkpt lat="43.19943" lon="2.35822">
        <ele>121</ele>
        <time>2021-03-21T05:10:10Z</time>
      </trkpt>
      <trkpt lat="43.19934" lon="2.35819">
        <ele>121.5</ele>
        <time>2021-03-21T05:10:12Z</time>
      </trkpt>
      <trkpt lat="43.1993" lon="2.35819">
        <ele>121.6</ele>
        <time>2021-03-21T05:10:13Z</time>
      </trkpt>
      <trkpt lat="43.19921" lon="2.35815">
        <ele>122.1</ele>
        <time>2021-03-21T05:10:15Z</time>
      </trkpt>
      <trkpt lat="43.19916" lon="2.35814">
        <ele>122.3</ele>
        <time>2021-03-21T05:10:16Z</time>
      </trkpt>
      <trkpt lat="43.19909" lon="2.35811">
        <ele>122.7</ele>
        <time>2021-03-21T05:10:18Z</time>
      </trkpt>
      <trkpt lat="43.19904" lon="2.3581">
        <ele>123</ele>
        <time>2021-03-21T05:10:19Z</time>
      </trkpt>
      <trkpt lat="43.19899" lon="2.35808">
        <ele>123.2</ele>
        <time>2021-03-21T05:10:20Z</time>
      </trkpt>
      <trkpt lat="43.19894" lon="2.35807">
        <ele>123.5</ele>
        <time>2021-03-21T05:10:21Z</time>
      </trkpt>
      <trkpt lat="43.19884" lon="2.35804">
        <ele>123.9</ele>
        <time>2021-03-21T05:10:23Z</time>
      </trkpt>
      <trkpt lat="43.19881" lon="2.35802">
        <ele>124</ele>
        <time>2021-03-21T05:10:24Z</time>
      </trkpt>
      <trkpt lat="43.19876" lon="2.358">
        <ele>124.2</ele>
        <time>2021-03-21T05:10:26Z</time>
      </trkpt>
      <trkpt lat="43.19869" lon="2.35798">
        <ele>124.5</ele>
        <time>2021-03-21T05:10:27Z</time>
      </trkpt>
      <trkpt lat="43.19862" lon="2.35797">
        <ele>124.9</ele>
        <time>2021-03-21T05:10:28Z</time>
      </trkpt>
      <trkpt lat="43.19853" lon="2.35794">
        <ele>125.2</ele>
        <time>2021-03-21T05:10:30Z</time>
      </trkpt>
      <trkpt lat="43.19843" lon="2.35793">
        <ele>125.6</ele>
        <time>2021-03-21T05:10:32Z</time>
      </trkpt>
      <trkpt lat="43.19838" lon="2.35791">
        <ele>125.7</ele>
        <time>2021-03-21T05:10:33Z</time>
      </trkpt>
      <trkpt lat="43.19828" lon="2.35787">
        <ele>126</ele>
        <time>2021-03-21T05:10:35Z</time>
      </trkpt>
      <trkpt lat="43.19818" lon="2.35783">
        <ele>126.2</ele>
        <time>2021-03-21T05:10:37Z</time>
      </trkpt>
      <trkpt lat="43.19807" lon="2.35777">
        <ele>126.4</ele>
        <time>2021-03-21T05:10:39Z</time>
      </trkpt>
      <trkpt lat="43.19802" lon="2.35774">
        <ele>126.5</ele>
        <time>2021-03-21T05:10:40Z</time>
      </trkpt>
      <trkpt lat="43.19792" lon="2.3577">
        <ele>126.6</ele>
        <time>2021-03-21T05:10:42Z</time>
      </trkpt>
      <trkpt lat="43.19787" lon="2.35768">
        <ele>126.6</ele>
        <time>2021-03-21T05:10:43Z</time>
      </trkpt>
      <trkpt lat="43.19782" lon="2.35768">
        <ele>126.7</ele>
        <time>2021-03-21T05:10:44Z</time>
      </trkpt>
      <trkpt lat="43.19772" lon="2.3577">
        <ele>126.7</ele>
        <time>2021-03-21T05:10:46Z</time>
      </trkpt>
      <trkpt lat="43.19767" lon="2.35771">
        <ele>126.8</ele>
        <time>2021-03-21T05:10:47Z</time>
      </trkpt>
      <trkpt lat="43.19756" lon="2.35772">
        <ele>126.8</ele>
        <time>2021-03-21T05:10:49Z</time>
      </trkpt>
      <trkpt lat="43.19746" lon="2.35768">
        <ele>126.9</ele>
        <time>2021-03-21T05:10:51Z</time>
      </trkpt>
      <trkpt lat="43.19741" lon="2.35766">
        <ele>126.9</ele>
        <time>2021-03-21T05:10:52Z</time>
      </trkpt>
      <trkpt lat="43.19736" lon="2.35765">
        <ele>127</ele>
        <time>2021-03-21T05:10:53Z</time>
      </trkpt>
      <trkpt lat="43.19731" lon="2.35764">
        <ele>127</ele>
        <time>2021-03-21T05:10:54Z</time>
      </trkpt>
      <trkpt lat="43.19721" lon="2.35768">
        <ele>127.1</ele>
        <time>2021-03-21T05:10:56Z</time>
      </trkpt>
      <trkpt lat="43.19717" lon="2.35771">
        <ele>127.1</ele>
        <time>2021-03-21T05:10:57Z</time>
      </trkpt>
      <trkpt lat="43.19713" lon="2.35776">
        <ele>127.1</ele>
        <time>2021-03-21T05:10:58Z</time>
      </trkpt>
      <trkpt lat="43.1971" lon="2.35782">
        <ele>127.1</ele>
        <time>2021-03-21T05:10:59Z</time>
      </trkpt>
      <trkpt lat="43.19707" lon="2.35797">
        <ele>127.1</ele>
        <time>2021-03-21T05:11:01Z</time>
      </trkpt>
      <trkpt lat="43.19707" lon="2.35814">
        <ele>127.1</ele>
        <time>2021-03-21T05:11:03Z</time>
      </trkpt>
      <trkpt lat="43.19707" lon="2.35822">
        <ele>127.1</ele>
        <time>2021-03-21T05:11:04Z</time>
      </trkpt>
      <trkpt lat="43.19707" lon="2.35829">
        <ele>127.1</ele>
        <time>2021-03-21T05:11:05Z</time>
      </trkpt>
      <trkpt lat="43.19704" lon="2.35845">
        <ele>127.1</ele>
        <time>2021-03-21T05:11:07Z</time>
      </trkpt>
      <trkpt lat="43.197" lon="2.3586">
        <ele>127</ele>
        <time>2021-03-21T05:11:09Z</time>
      </trkpt>
      <trkpt lat="43.19698" lon="2.35868">
        <ele>127</ele>
        <time>2021-03-21T05:11:10Z</time>
      </trkpt>
      <trkpt lat="43.19695" lon="2.35876">
        <ele>127</ele>
        <time>2021-03-21T05:11:11Z</time>
      </trkpt>
      <trkpt lat="43.19691" lon="2.35893">
        <ele>126.9</ele>
        <time>2021-03-21T05:11:13Z</time>
      </trkpt>
      <trkpt lat="43.19688" lon="2.35901">
        <ele>127</ele>
        <time>2021-03-21T05:11:14Z</time>
      </trkpt>
      <trkpt lat="43.19686" lon="2.35909">
        <ele>127</ele>
        <time>2021-03-21T05:11:15Z</time>
      </trkpt>
      <trkpt lat="43.1968" lon="2.35925">
        <ele>127.1</ele>
        <time>2021-03-21T05:11:17Z</time>
      </trkpt>
      <trkpt lat="43.19677" lon="2.35932">
        <ele>127.2</ele>
        <time>2021-03-21T05:11:18Z</time>
      </trkpt>
      <trkpt lat="43.1967" lon="2.35946">
        <ele>127.4</ele>
        <time>2021-03-21T05:11:20Z</time>
      </trkpt>
      <trkpt lat="43.19662" lon="2.35959">
        <ele>127.7</ele>
        <time>2021-03-21T05:11:22Z</time>
      </trkpt>
      <trkpt lat="43.19658" lon="2.35964">
        <ele>127.8</ele>
        <time>2021-03-21T05:11:23Z</time>
      </trkpt>
      <trkpt lat="43.19649" lon="2.35973">
        <ele>128</ele>
        <time>2021-03-21T05:11:25Z</time>
      </trkpt>
      <trkpt lat="43.19644" lon="2.35977">
        <ele>128.2</ele>
        <time>2021-03-21T05:11:26Z</time>
      </trkpt>
      <trkpt lat="43.19639" lon="2.35981">
        <ele>128.3</ele>
        <time>2021-03-21T05:11:27Z</time>
      </trkpt>
      <trkpt lat="43.1963" lon="2.3599">
        <ele>128.6</ele>
        <time>2021-03-21T05:11:29Z</time>
      </trkpt>
      <trkpt lat="43.19625" lon="2.35994">
        <ele>128.8</ele>
        <time>2021-03-21T05:11:30Z</time>
      </trkpt>
      <trkpt lat="43.19617" lon="2.36003">
        <ele>129.1</ele>
        <time>2021-03-21T05:11:32Z</time>
      </trkpt>
      <trkpt lat="43.19613" lon="2.36008">
        <ele>129.3</ele>
        <time>2021-03-21T05:11:33Z</time>
      </trkpt>
      <trkpt lat="43.19609" lon="2.36013">
        <ele>129.5</ele>
        <time>2021-03-21T05:11:34Z</time>
      </trkpt>
      <trkpt lat="43.19606" lon="2.36018">
        <ele>129.7</ele>
        <time>2021-03-21T05:11:35Z</time>
      </trkpt>
      <trkpt lat="43.19599" lon="2.36029">
        <ele>130.2</ele>
        <time>2021-03-21T05:11:37Z</time>
      </trkpt>
      <trkpt lat="43.19596" lon="2.36034">
        <ele>130.4</ele>
        <time>2021-03-21T05:11:38Z</time>
      </trkpt>
      <trkpt lat="43.19593" lon="2.36039">
        <ele>130.6</ele>
        <time>2021-03-21T05:11:39Z</time>
      </trkpt>
      <trkpt lat="43.19586" lon="2.36049">
        <ele>131</ele>
        <time>2021-03-21T05:11:41Z</time>
      </trkpt>
      <trkpt lat="43.1958" lon="2.36059">
        <ele>131.5</ele>
        <time>2021-03-21T05:11:43Z</time>
      </trkpt>
      <trkpt lat="43.19573" lon="2.36069">
        <ele>131.9</ele>
        <time>2021-03-21T05:11:45Z</time>
      </trkpt>
      <trkpt lat="43.19569" lon="2.36074">
        <ele>132.1</ele>
        <time>2021-03-21T05:11:46Z</time>
      </trkpt>
      <trkpt lat="43.19562" lon="2.36085">
        <ele>132.6</ele>
        <time>2021-03-21T05:11:48Z</time>
      </trkpt>
      <trkpt lat="43.19555" lon="2.36095">
        <ele>133.1</ele>
        <time>2021-03-21T05:11:50Z</time>
      </trkpt>
      <trkpt lat="43.19552" lon="2.361">
        <ele>133.3</ele>
        <time>2021-03-21T05:11:51Z</time>
      </trkpt>
      <trkpt lat="43.19549" lon="2.36106">
        <ele>133.5</ele>
        <time>2021-03-21T05:11:52Z</time>
      </trkpt>
      <trkpt lat="43.19542" lon="2.36116">
        <ele>134</ele>
        <time>2021-03-21T05:11:54Z</time>
      </trkpt>
      <trkpt lat="43.19538" lon="2.36122">
        <ele>134.2</ele>
        <time>2021-03-21T05:11:55Z</time>
      </trkpt>
      <trkpt lat="43.19531" lon="2.36132">
        <ele>134.7</ele>
        <time>2021-03-21T05:11:57Z</time>
      </trkpt>
      <trkpt lat="43.19528" lon="2.36137">
        <ele>134.9</ele>
        <time>2021-03-21T05:11:58Z</time>
      </trkpt>
      <trkpt lat="43.19525" lon="2.36142">
        <ele>135.1</ele>
        <time>2021-03-21T05:11:59Z</time>
      </trkpt>
      <trkpt lat="43.19518" lon="2.36152">
        <ele>135.5</ele>
        <time>2021-03-21T05:12:01Z</time>
      </trkpt>
      <trkpt lat="43.19514" lon="2.36157">
        <ele>135.7</ele>
        <time>2021-03-21T05:12:02Z</time>
      </trkpt>
      <trkpt lat="43.19507" lon="2.36166">
        <ele>136.1</ele>
        <time>2021-03-21T05:12:04Z</time>
      </trkpt>
      <trkpt lat="43.19503" lon="2.36171">
        <ele>136.3</ele>
        <time>2021-03-21T05:12:05Z</time>
      </trkpt>
      <trkpt lat="43.19495" lon="2.36178">
        <ele>136.7</ele>
        <time>2021-03-21T05:12:07Z</time>
      </trkpt>
      <trkpt lat="43.19487" lon="2.36185">
        <ele>137.1</ele>
        <time>2021-03-21T05:12:09Z</time>
      </trkpt>
      <trkpt lat="43.19482" lon="2.36188">
        <ele>137.3</ele>
        <time>2021-03-21T05:12:10Z</time>
      </trkpt>
      <trkpt lat="43.19473" lon="2.36192">
        <ele>137.7</ele>
        <time>2021-03-21T05:12:12Z</time>
      </trkpt>
      <trkpt lat="43.19463" lon="2.36196">
        <ele>138</ele>
        <time>2021-03-21T05:12:14Z</time>
      </trkpt>
      <trkpt lat="43.19459" lon="2.36198">
        <ele>138.2</ele>
        <time>2021-03-21T05:12:15Z</time>
      </trkpt>
      <trkpt lat="43.19449" lon="2.362">
        <ele>138.4</ele>
        <time>2021-03-21T05:12:17Z</time>
      </trkpt>
      <trkpt lat="43.19445" lon="2.36201">
        <ele>138.5</ele>
        <time>2021-03-21T05:12:18Z</time>
      </trkpt>
      <trkpt lat="43.19435" lon="2.36202">
        <ele>138.7</ele>
        <time>2021-03-21T05:12:20Z</time>
      </trkpt>
      <trkpt lat="43.19424" lon="2.36203">
        <ele>138.9</ele>
        <time>2021-03-21T05:12:22Z</time>
      </trkpt>
      <trkpt lat="43.19419" lon="2.36204">
        <ele>138.9</ele>
        <time>2021-03-21T05:12:23Z</time>
      </trkpt>
      <trkpt lat="43.19408" lon="2.36204">
        <ele>139</ele>
        <time>2021-03-21T05:12:25Z</time>
      </trkpt>
      <trkpt lat="43.19402" lon="2.36204">
        <ele>139.1</ele>
        <time>2021-03-21T05:12:26Z</time>
      </trkpt>
      <trkpt lat="43.19391" lon="2.36205">
        <ele>139.2</ele>
        <time>2021-03-21T05:12:28Z</time>
      </trkpt>
      <trkpt lat="43.19379" lon="2.36204">
        <ele>139.4</ele>
        <time>2021-03-21T05:12:30Z</time>
      </trkpt>
      <trkpt lat="43.19373" lon="2.36204">
        <ele>139.5</ele>
        <time>2021-03-21T05:12:31Z</time>
      </trkpt>
      <trkpt lat="43.19367" lon="2.36205">
        <ele>139.6</ele>
        <time>2021-03-21T05:12:32Z</time>
      </trkpt>
      <trkpt lat="43.19362" lon="2.36205">
        <ele>139.7</ele>
        <time>2021-03-21T05:12:33Z</time>
      </trkpt>
      <trkpt lat="43.19351" lon="2.36205">
        <ele>139.8</ele>
        <time>2021-03-21T05:12:35Z</time>
      </trkpt>
      <trkpt lat="43.1934" lon="2.36206">
        <ele>139.9</ele>
        <time>2021-03-21T05:12:37Z</time>
      </trkpt>
      <trkpt lat="43.1933" lon="2.36206">
        <ele>140</ele>
        <time>2021-03-21T05:12:39Z</time>
      </trkpt>
      <trkpt lat="43.19319" lon="2.36206">
        <ele>140.1</ele>
        <time>2021-03-21T05:12:41Z</time>
      </trkpt>
      <trkpt lat="43.19314" lon="2.36206">
        <ele>140.1</ele>
        <time>2021-03-21T05:12:42Z</time>
      </trkpt>
      <trkpt lat="43.19308" lon="2.36206">
        <ele>140.2</ele>
        <time>2021-03-21T05:12:43Z</time>
      </trkpt>
      <trkpt lat="43.19302" lon="2.36207">
        <ele>140.3</ele>
        <time>2021-03-21T05:12:44Z</time>
      </trkpt>
      <trkpt lat="43.19297" lon="2.36207">
        <ele>140.3</ele>
        <time>2021-03-21T05:12:45Z</time>
      </trkpt>
      <trkpt lat="43.19291" lon="2.36208">
        <ele>140.4</ele>
        <time>2021-03-21T05:12:46Z</time>
      </trkpt>
      <trkpt lat="43.1928" lon="2.36208">
        <ele>140.6</ele>
        <time>2021-03-21T05:12:48Z</time>
      </trkpt>
      <trkpt lat="43.19275" lon="2.36207">
        <ele>140.7</ele>
        <time>2021-03-21T05:12:49Z</time>
      </trkpt>
      <trkpt lat="43.19264" lon="2.36207">
        <ele>141</ele>
        <time>2021-03-21T05:12:51Z</time>
      </trkpt>
      <trkpt lat="43.19259" lon="2.36207">
        <ele>141.1</ele>
        <time>2021-03-21T05:12:52Z</time>
      </trkpt>
      <trkpt lat="43.19253" lon="2.36207">
        <ele>141.3</ele>
        <time>2021-03-21T05:12:53Z</time>
      </trkpt>
      <trkpt lat="43.19242" lon="2.36206">
        <ele>141.5</ele>
        <time>2021-03-21T05:12:55Z</time>
      </trkpt>
      <trkpt lat="43.19232" lon="2.36206">
        <ele>141.8</ele>
        <time>2021-03-21T05:12:57Z</time>
      </trkpt>
      <trkpt lat="43.19221" lon="2.36206">
        <ele>142.1</ele>
        <time>2021-03-21T05:12:59Z</time>
      </trkpt>
      <trkpt lat="43.19216" lon="2.36205">
        <ele>142.3</ele>
        <time>2021-03-21T05:13:00Z</time>
      </trkpt>
      <trkpt lat="43.19211" lon="2.36205">
        <ele>142.5</ele>
        <time>2021-03-21T05:13:01Z</time>
      </trkpt>
      <trkpt lat="43.19203" lon="2.36205">
        <ele>142.9</ele>
        <time>2021-03-21T05:13:03Z</time>
      </trkpt>
      <trkpt lat="43.19195" lon="2.36205">
        <ele>143.3</ele>
        <time>2021-03-21T05:13:05Z</time>
      </trkpt>
      <trkpt lat="43.1919" lon="2.36203">
        <ele>143.5</ele>
        <time>2021-03-21T05:13:06Z</time>
      </trkpt>
      <trkpt lat="43.1918" lon="2.362">
        <ele>144</ele>
        <time>2021-03-21T05:13:08Z</time>
      </trkpt>
      <trkpt lat="43.19175" lon="2.36199">
        <ele>144.3</ele>
        <time>2021-03-21T05:13:09Z</time>
      </trkpt>
      <trkpt lat="43.1917" lon="2.36197">
        <ele>144.6</ele>
        <time>2021-03-21T05:13:10Z</time>
      </trkpt>
      <trkpt lat="43.19158" lon="2.36196">
        <ele>145.2</ele>
        <time>2021-03-21T05:13:12Z</time>
      </trkpt>
      <trkpt lat="43.19151" lon="2.36196">
        <ele>145.5</ele>
        <time>2021-03-21T05:13:13Z</time>
      </trkpt>
      <trkpt lat="43.1914" lon="2.36198">
        <ele>146.1</ele>
        <time>2021-03-21T05:13:15Z</time>
      </trkpt>
      <trkpt lat="43.1913" lon="2.362">
        <ele>146.6</ele>
        <time>2021-03-21T05:13:17Z</time>
      </trkpt>
      <trkpt lat="43.19121" lon="2.36202">
        <ele>147.1</ele>
        <time>2021-03-21T05:13:19Z</time>
      </trkpt>
      <trkpt lat="43.19113" lon="2.36204">
        <ele>147.5</ele>
        <time>2021-03-21T05:13:21Z</time>
      </trkpt>
      <trkpt lat="43.19106" lon="2.36206">
        <ele>147.9</ele>
        <time>2021-03-21T05:13:23Z</time>
      </trkpt>
      <trkpt lat="43.19102" lon="2.36208">
        <ele>148.1</ele>
        <time>2021-03-21T05:13:24Z</time>
      </trkpt>
      <trkpt lat="43.19093" lon="2.36215">
        <ele>148.7</ele>
        <time>2021-03-21T05:13:26Z</time>
      </trkpt>
      <trkpt lat="43.19089" lon="2.36216">
        <ele>148.9</ele>
        <time>2021-03-21T05:13:27Z</time>
      </trkpt>
      <trkpt lat="43.19084" lon="2.36216">
        <ele>149.1</ele>
        <time>2021-03-21T05:13:28Z</time>
      </trkpt>
      <trkpt lat="43.19076" lon="2.36218">
        <ele>149.5</ele>
        <time>2021-03-21T05:13:30Z</time>
      </trkpt>
      <trkpt lat="43.19067" lon="2.36222">
        <ele>150</ele>
        <time>2021-03-21T05:13:32Z</time>
      </trkpt>
      <trkpt lat="43.19058" lon="2.36224">
        <ele>150.4</ele>
        <time>2021-03-21T05:13:34Z</time>
      </trkpt>
      <trkpt lat="43.19053" lon="2.36224">
        <ele>150.4</ele>
        <time>2021-03-21T05:13:35Z</time>
      </trkpt>
      <trkpt lat="43.19044" lon="2.36225">
        <ele>150.6</ele>
        <time>2021-03-21T05:13:37Z</time>
      </trkpt>
      <trkpt lat="43.19039" lon="2.36225">
        <ele>150.7</ele>
        <time>2021-03-21T05:13:38Z</time>
      </trkpt>
      <trkpt lat="43.19034" lon="2.36225">
        <ele>150.7</ele>
        <time>2021-03-21T05:13:39Z</time>
      </trkpt>
      <trkpt lat="43.19025" lon="2.36223">
        <ele>151.1</ele>
        <time>2021-03-21T05:13:41Z</time>
      </trkpt>
      <trkpt lat="43.19016" lon="2.36227">
        <ele>151.6</ele>
        <time>2021-03-21T05:13:43Z</time>
      </trkpt>
      <trkpt lat="43.19009" lon="2.36237">
        <ele>152.7</ele>
        <time>2021-03-21T05:13:45Z</time>
      </trkpt>
      <trkpt lat="43.19006" lon="2.3625">
        <ele>152.9</ele>
        <time>2021-03-21T05:13:47Z</time>
      </trkpt>
      <trkpt lat="43.19" lon="2.3626">
        <ele>153.1</ele>
        <time>2021-03-21T05:13:49Z</time>
      </trkpt>
      <trkpt lat="43.18992" lon="2.36269">
        <ele>153.3</ele>
        <time>2021-03-21T05:13:51Z</time>
      </trkpt>
      <trkpt lat="43.18984" lon="2.36279">
        <ele>153.5</ele>
        <time>2021-03-21T05:13:53Z</time>
      </trkpt>
      <trkpt lat="43.1898" lon="2.36284">
        <ele>153.6</ele>
        <time>2021-03-21T05:13:54Z</time>
      </trkpt>
      <trkpt lat="43.18975" lon="2.36288">
        <ele>153.8</ele>
        <time>2021-03-21T05:13:55Z</time>
      </trkpt>
      <trkpt lat="43.18966" lon="2.36297">
        <ele>154</ele>
        <time>2021-03-21T05:13:57Z</time>
      </trkpt>
      <trkpt lat="43.18962" lon="2.36301">
        <ele>154.1</ele>
        <time>2021-03-21T05:13:58Z</time>
      </trkpt>
      <trkpt lat="43.18953" lon="2.36309">
        <ele>154.3</ele>
        <time>2021-03-21T05:14:00Z</time>
      </trkpt>
      <trkpt lat="43.18948" lon="2.36314">
        <ele>154.4</ele>
        <time>2021-03-21T05:14:01Z</time>
      </trkpt>
      <trkpt lat="43.18944" lon="2.36318">
        <ele>154.5</ele>
        <time>2021-03-21T05:14:02Z</time>
      </trkpt>
      <trkpt lat="43.18935" lon="2.36327">
        <ele>154.6</ele>
        <time>2021-03-21T05:14:04Z</time>
      </trkpt>
      <trkpt lat="43.18931" lon="2.36332">
        <ele>154.7</ele>
        <time>2021-03-21T05:14:05Z</time>
      </trkpt>
      <trkpt lat="43.18927" lon="2.36337">
        <ele>154.7</ele>
        <time>2021-03-21T05:14:06Z</time>
      </trkpt>
      <trkpt lat="43.18919" lon="2.36347">
        <ele>154.7</ele>
        <time>2021-03-21T05:14:08Z</time>
      </trkpt>
      <trkpt lat="43.18911" lon="2.36358">
        <ele>154.7</ele>
        <time>2021-03-21T05:14:10Z</time>
      </trkpt>
      <trkpt lat="43.18907" lon="2.36364">
        <ele>154.7</ele>
        <time>2021-03-21T05:14:11Z</time>
      </trkpt>
      <trkpt lat="43.18898" lon="2.36375">
        <ele>154.6</ele>
        <time>2021-03-21T05:14:13Z</time>
      </trkpt>
      <trkpt lat="43.18894" lon="2.36381">
        <ele>154.6</ele>
        <time>2021-03-21T05:14:14Z</time>
      </trkpt>
      <trkpt lat="43.18884" lon="2.36393">
        <ele>154.5</ele>
        <time>2021-03-21T05:14:16Z</time>
      </trkpt>
      <trkpt lat="43.18875" lon="2.36405">
        <ele>154.3</ele>
        <time>2021-03-21T05:14:18Z</time>
      </trkpt>
      <trkpt lat="43.18865" lon="2.36418">
        <ele>154.1</ele>
        <time>2021-03-21T05:14:20Z</time>
      </trkpt>
      <trkpt lat="43.18855" lon="2.36431">
        <ele>153.9</ele>
        <time>2021-03-21T05:14:22Z</time>
      </trkpt>
      <trkpt lat="43.1885" lon="2.36437">
        <ele>153.8</ele>
        <time>2021-03-21T05:14:23Z</time>
      </trkpt>
      <trkpt lat="43.18845" lon="2.36443">
        <ele>153.7</ele>
        <time>2021-03-21T05:14:24Z</time>
      </trkpt>
      <trkpt lat="43.18834" lon="2.36455">
        <ele>153.5</ele>
        <time>2021-03-21T05:14:26Z</time>
      </trkpt>
      <trkpt lat="43.18829" lon="2.36461">
        <ele>153.4</ele>
        <time>2021-03-21T05:14:27Z</time>
      </trkpt>
      <trkpt lat="43.18825" lon="2.36466">
        <ele>153.4</ele>
        <time>2021-03-21T05:14:28Z</time>
      </trkpt>
      <trkpt lat="43.18816" lon="2.36477">
        <ele>153.2</ele>
        <time>2021-03-21T05:14:30Z</time>
      </trkpt>
      <trkpt lat="43.18811" lon="2.36483">
        <ele>153.2</ele>
        <time>2021-03-21T05:14:31Z</time>
      </trkpt>
      <trkpt lat="43.18801" lon="2.36494">
        <ele>153</ele>
        <time>2021-03-21T05:14:33Z</time>
      </trkpt>
      <trkpt lat="43.18792" lon="2.36506">
        <ele>152.8</ele>
        <time>2021-03-21T05:14:35Z</time>
      </trkpt>
      <trkpt lat="43.18782" lon="2.36518">
        <ele>152.6</ele>
        <time>2021-03-21T05:14:37Z</time>
      </trkpt>
      <trkpt lat="43.18776" lon="2.36524">
        <ele>152.5</ele>
        <time>2021-03-21T05:14:38Z</time>
      </trkpt>
      <trkpt lat="43.18762" lon="2.36534">
        <ele>152.4</ele>
        <time>2021-03-21T05:14:40Z</time>
      </trkpt>
      <trkpt lat="43.1875" lon="2.36545">
        <ele>152.2</ele>
        <time>2021-03-21T05:14:42Z</time>
      </trkpt>
      <trkpt lat="43.18744" lon="2.36551">
        <ele>152.2</ele>
        <time>2021-03-21T05:14:43Z</time>
      </trkpt>
      <trkpt lat="43.18732" lon="2.36562">
        <ele>152</ele>
        <time>2021-03-21T05:14:45Z</time>
      </trkpt>
      <trkpt lat="43.18726" lon="2.36568">
        <ele>152</ele>
        <time>2021-03-21T05:14:46Z</time>
      </trkpt>
      <trkpt lat="43.18714" lon="2.36577">
        <ele>151.8</ele>
        <time>2021-03-21T05:14:48Z</time>
      </trkpt>
      <trkpt lat="43.18702" lon="2.36587">
        <ele>151.7</ele>
        <time>2021-03-21T05:14:50Z</time>
      </trkpt>
      <trkpt lat="43.1869" lon="2.36597">
        <ele>151.5</ele>
        <time>2021-03-21T05:14:52Z</time>
      </trkpt>
      <trkpt lat="43.18678" lon="2.36607">
        <ele>151.3</ele>
        <time>2021-03-21T05:14:54Z</time>
      </trkpt>
      <trkpt lat="43.18665" lon="2.36616">
        <ele>151.1</ele>
        <time>2021-03-21T05:14:56Z</time>
      </trkpt>
      <trkpt lat="43.18658" lon="2.36621">
        <ele>151</ele>
        <time>2021-03-21T05:14:57Z</time>
      </trkpt>
      <trkpt lat="43.18652" lon="2.36626">
        <ele>150.9</ele>
        <time>2021-03-21T05:14:58Z</time>
      </trkpt>
      <trkpt lat="43.18638" lon="2.36636">
        <ele>150.6</ele>
        <time>2021-03-21T05:15:00Z</time>
      </trkpt>
      <trkpt lat="43.18632" lon="2.36641">
        <ele>150.5</ele>
        <time>2021-03-21T05:15:01Z</time>
      </trkpt>
      <trkpt lat="43.18619" lon="2.36652">
        <ele>150.3</ele>
        <time>2021-03-21T05:15:03Z</time>
      </trkpt>
      <trkpt lat="43.18607" lon="2.36663">
        <ele>150.1</ele>
        <time>2021-03-21T05:15:05Z</time>
      </trkpt>
      <trkpt lat="43.18601" lon="2.36669">
        <ele>150</ele>
        <time>2021-03-21T05:15:06Z</time>
      </trkpt>
      <trkpt lat="43.1859" lon="2.36683">
        <ele>149.8</ele>
        <time>2021-03-21T05:15:08Z</time>
      </trkpt>
      <trkpt lat="43.18579" lon="2.36697">
        <ele>149.6</ele>
        <time>2021-03-21T05:15:10Z</time>
      </trkpt>
      <trkpt lat="43.18568" lon="2.36711">
        <ele>149.3</ele>
        <time>2021-03-21T05:15:12Z</time>
      </trkpt>
      <trkpt lat="43.18556" lon="2.36724">
        <ele>148.9</ele>
        <time>2021-03-21T05:15:14Z</time>
      </trkpt>
      <trkpt lat="43.1855" lon="2.36731">
        <ele>148.7</ele>
        <time>2021-03-21T05:15:15Z</time>
      </trkpt>
      <trkpt lat="43.18537" lon="2.36744">
        <ele>148.3</ele>
        <time>2021-03-21T05:15:17Z</time>
      </trkpt>
      <trkpt lat="43.18525" lon="2.36758">
        <ele>147.9</ele>
        <time>2021-03-21T05:15:19Z</time>
      </trkpt>
      <trkpt lat="43.18519" lon="2.36765">
        <ele>147.7</ele>
        <time>2021-03-21T05:15:20Z</time>
      </trkpt>
      <trkpt lat="43.18513" lon="2.36773">
        <ele>147.5</ele>
        <time>2021-03-21T05:15:21Z</time>
      </trkpt>
      <trkpt lat="43.18502" lon="2.36788">
        <ele>147.1</ele>
        <time>2021-03-21T05:15:23Z</time>
      </trkpt>
      <trkpt lat="43.18497" lon="2.36797">
        <ele>146.9</ele>
        <time>2021-03-21T05:15:24Z</time>
      </trkpt>
      <trkpt lat="43.18491" lon="2.36805">
        <ele>146.6</ele>
        <time>2021-03-21T05:15:25Z</time>
      </trkpt>
      <trkpt lat="43.18486" lon="2.36814">
        <ele>146.4</ele>
        <time>2021-03-21T05:15:26Z</time>
      </trkpt>
      <trkpt lat="43.18475" lon="2.36831">
        <ele>145.9</ele>
        <time>2021-03-21T05:15:28Z</time>
      </trkpt>
      <trkpt lat="43.18469" lon="2.36839">
        <ele>145.7</ele>
        <time>2021-03-21T05:15:29Z</time>
      </trkpt>
      <trkpt lat="43.18463" lon="2.36847">
        <ele>145.6</ele>
        <time>2021-03-21T05:15:30Z</time>
      </trkpt>
      <trkpt lat="43.18457" lon="2.36855">
        <ele>145.4</ele>
        <time>2021-03-21T05:15:31Z</time>
      </trkpt>
      <trkpt lat="43.18444" lon="2.36868">
        <ele>145.2</ele>
        <time>2021-03-21T05:15:33Z</time>
      </trkpt>
      <trkpt lat="43.18431" lon="2.3688">
        <ele>144.9</ele>
        <time>2021-03-21T05:15:35Z</time>
      </trkpt>
      <trkpt lat="43.18424" lon="2.36886">
        <ele>144.8</ele>
        <time>2021-03-21T05:15:36Z</time>
      </trkpt>
      <trkpt lat="43.18417" lon="2.36891">
        <ele>144.7</ele>
        <time>2021-03-21T05:15:37Z</time>
      </trkpt>
      <trkpt lat="43.18411" lon="2.36896">
        <ele>144.6</ele>
        <time>2021-03-21T05:15:38Z</time>
      </trkpt>
      <trkpt lat="43.18404" lon="2.36901">
        <ele>144.5</ele>
        <time>2021-03-21T05:15:39Z</time>
      </trkpt>
      <trkpt lat="43.18397" lon="2.36907">
        <ele>144.5</ele>
        <time>2021-03-21T05:15:40Z</time>
      </trkpt>
      <trkpt lat="43.18385" lon="2.36918">
        <ele>144.4</ele>
        <time>2021-03-21T05:15:42Z</time>
      </trkpt>
      <trkpt lat="43.18372" lon="2.36929">
        <ele>144.3</ele>
        <time>2021-03-21T05:15:44Z</time>
      </trkpt>
      <trkpt lat="43.18366" lon="2.36935">
        <ele>144.3</ele>
        <time>2021-03-21T05:15:45Z</time>
      </trkpt>
      <trkpt lat="43.18359" lon="2.36941">
        <ele>144.3</ele>
        <time>2021-03-21T05:15:46Z</time>
      </trkpt>
      <trkpt lat="43.18348" lon="2.36953">
        <ele>144.2</ele>
        <time>2021-03-21T05:15:48Z</time>
      </trkpt>
      <trkpt lat="43.18337" lon="2.36968">
        <ele>144.3</ele>
        <time>2021-03-21T05:15:50Z</time>
      </trkpt>
      <trkpt lat="43.18332" lon="2.36974">
        <ele>144.3</ele>
        <time>2021-03-21T05:15:51Z</time>
      </trkpt>
      <trkpt lat="43.18327" lon="2.36981">
        <ele>144.3</ele>
        <time>2021-03-21T05:15:52Z</time>
      </trkpt>
      <trkpt lat="43.18317" lon="2.36996">
        <ele>144.4</ele>
        <time>2021-03-21T05:15:54Z</time>
      </trkpt>
      <trkpt lat="43.18312" lon="2.37003">
        <ele>144.4</ele>
        <time>2021-03-21T05:15:55Z</time>
      </trkpt>
      <trkpt lat="43.18307" lon="2.37011">
        <ele>144.4</ele>
        <time>2021-03-21T05:15:56Z</time>
      </trkpt>
      <trkpt lat="43.18297" lon="2.37027">
        <ele>144.4</ele>
        <time>2021-03-21T05:15:58Z</time>
      </trkpt>
      <trkpt lat="43.18287" lon="2.37042">
        <ele>144.5</ele>
        <time>2021-03-21T05:16:00Z</time>
      </trkpt>
      <trkpt lat="43.18282" lon="2.37049">
        <ele>144.5</ele>
        <time>2021-03-21T05:16:01Z</time>
      </trkpt>
      <trkpt lat="43.18271" lon="2.37064">
        <ele>144.5</ele>
        <time>2021-03-21T05:16:03Z</time>
      </trkpt>
      <trkpt lat="43.18265" lon="2.37071">
        <ele>144.5</ele>
        <time>2021-03-21T05:16:04Z</time>
      </trkpt>
      <trkpt lat="43.18254" lon="2.37086">
        <ele>144.5</ele>
        <time>2021-03-21T05:16:06Z</time>
      </trkpt>
      <trkpt lat="43.18249" lon="2.37094">
        <ele>144.5</ele>
        <time>2021-03-21T05:16:07Z</time>
      </trkpt>
      <trkpt lat="43.18237" lon="2.37108">
        <ele>144.5</ele>
        <time>2021-03-21T05:16:09Z</time>
      </trkpt>
      <trkpt lat="43.18226" lon="2.37123">
        <ele>144.5</ele>
        <time>2021-03-21T05:16:11Z</time>
      </trkpt>
      <trkpt lat="43.18216" lon="2.37137">
        <ele>144.5</ele>
        <time>2021-03-21T05:16:13Z</time>
      </trkpt>
      <trkpt lat="43.1821" lon="2.37144">
        <ele>144.4</ele>
        <time>2021-03-21T05:16:14Z</time>
      </trkpt>
      <trkpt lat="43.18199" lon="2.37159">
        <ele>144.4</ele>
        <time>2021-03-21T05:16:16Z</time>
      </trkpt>
      <trkpt lat="43.18189" lon="2.37174">
        <ele>144.3</ele>
        <time>2021-03-21T05:16:18Z</time>
      </trkpt>
      <trkpt lat="43.18184" lon="2.37181">
        <ele>144.3</ele>
        <time>2021-03-21T05:16:19Z</time>
      </trkpt>
      <trkpt lat="43.18179" lon="2.37189">
        <ele>144.3</ele>
        <time>2021-03-21T05:16:20Z</time>
      </trkpt>
      <trkpt lat="43.18169" lon="2.37203">
        <ele>144.4</ele>
        <time>2021-03-21T05:16:22Z</time>
      </trkpt>
      <trkpt lat="43.18158" lon="2.3722">
        <ele>144.4</ele>
        <time>2021-03-21T05:16:24Z</time>
      </trkpt>
      <trkpt lat="43.18148" lon="2.37236">
        <ele>144.4</ele>
        <time>2021-03-21T05:16:26Z</time>
      </trkpt>
      <trkpt lat="43.18143" lon="2.37244">
        <ele>144.4</ele>
        <time>2021-03-21T05:16:27Z</time>
      </trkpt>
      <trkpt lat="43.18139" lon="2.37251">
        <ele>144.4</ele>
        <time>2021-03-21T05:16:28Z</time>
      </trkpt>
      <trkpt lat="43.18129" lon="2.37267">
        <ele>144.4</ele>
        <time>2021-03-21T05:16:30Z</time>
      </trkpt>
      <trkpt lat="43.18119" lon="2.37284">
        <ele>144.4</ele>
        <time>2021-03-21T05:16:32Z</time>
      </trkpt>
      <trkpt lat="43.18114" lon="2.37292">
        <ele>144.4</ele>
        <time>2021-03-21T05:16:33Z</time>
      </trkpt>
      <trkpt lat="43.18109" lon="2.373">
        <ele>144.5</ele>
        <time>2021-03-21T05:16:34Z</time>
      </trkpt>
      <trkpt lat="43.181" lon="2.37316">
        <ele>144.7</ele>
        <time>2021-03-21T05:16:36Z</time>
      </trkpt>
      <trkpt lat="43.18095" lon="2.37324">
        <ele>144.8</ele>
        <time>2021-03-21T05:16:37Z</time>
      </trkpt>
      <trkpt lat="43.1809" lon="2.37332">
        <ele>144.9</ele>
        <time>2021-03-21T05:16:38Z</time>
      </trkpt>
      <trkpt lat="43.1808" lon="2.37347">
        <ele>145.1</ele>
        <time>2021-03-21T05:16:40Z</time>
      </trkpt>
      <trkpt lat="43.18075" lon="2.37355">
        <ele>145.1</ele>
        <time>2021-03-21T05:16:41Z</time>
      </trkpt>
      <trkpt lat="43.18066" lon="2.3737">
        <ele>145.3</ele>
        <time>2021-03-21T05:16:43Z</time>
      </trkpt>
      <trkpt lat="43.18057" lon="2.37385">
        <ele>145.6</ele>
        <time>2021-03-21T05:16:45Z</time>
      </trkpt>
      <trkpt lat="43.18053" lon="2.37393">
        <ele>145.8</ele>
        <time>2021-03-21T05:16:46Z</time>
      </trkpt>
      <trkpt lat="43.18048" lon="2.374">
        <ele>146</ele>
        <time>2021-03-21T05:16:47Z</time>
      </trkpt>
      <trkpt lat="43.1804" lon="2.37415">
        <ele>146.3</ele>
        <time>2021-03-21T05:16:49Z</time>
      </trkpt>
      <trkpt lat="43.18031" lon="2.3743">
        <ele>146.7</ele>
        <time>2021-03-21T05:16:51Z</time>
      </trkpt>
      <trkpt lat="43.18026" lon="2.37438">
        <ele>146.9</ele>
        <time>2021-03-21T05:16:52Z</time>
      </trkpt>
      <trkpt lat="43.18017" lon="2.37453">
        <ele>147.2</ele>
        <time>2021-03-21T05:16:54Z</time>
      </trkpt>
      <trkpt lat="43.18013" lon="2.3746">
        <ele>147.4</ele>
        <time>2021-03-21T05:16:55Z</time>
      </trkpt>
      <trkpt lat="43.18004" lon="2.37475">
        <ele>147.7</ele>
        <time>2021-03-21T05:16:57Z</time>
      </trkpt>
      <trkpt lat="43.17995" lon="2.3749">
        <ele>148</ele>
        <time>2021-03-21T05:16:59Z</time>
      </trkpt>
      <trkpt lat="43.17991" lon="2.37497">
        <ele>148.2</ele>
        <time>2021-03-21T05:17:00Z</time>
      </trkpt>
      <trkpt lat="43.17986" lon="2.37504">
        <ele>148.3</ele>
        <time>2021-03-21T05:17:01Z</time>
      </trkpt>
      <trkpt lat="43.17978" lon="2.37519">
        <ele>148.6</ele>
        <time>2021-03-21T05:17:03Z</time>
      </trkpt>
      <trkpt lat="43.17973" lon="2.37526">
        <ele>148.8</ele>
        <time>2021-03-21T05:17:04Z</time>
      </trkpt>
      <trkpt lat="43.17965" lon="2.37541">
        <ele>149.1</ele>
        <time>2021-03-21T05:17:06Z</time>
      </trkpt>
      <trkpt lat="43.1796" lon="2.37548">
        <ele>149.3</ele>
        <time>2021-03-21T05:17:07Z</time>
      </trkpt>
      <trkpt lat="43.17952" lon="2.37562">
        <ele>149.7</ele>
        <time>2021-03-21T05:17:09Z</time>
      </trkpt>
      <trkpt lat="43.17947" lon="2.3757">
        <ele>149.8</ele>
        <time>2021-03-21T05:17:10Z</time>
      </trkpt>
      <trkpt lat="43.17943" lon="2.37577">
        <ele>150</ele>
        <time>2021-03-21T05:17:11Z</time>
      </trkpt>
      <trkpt lat="43.17934" lon="2.37591">
        <ele>150.4</ele>
        <time>2021-03-21T05:17:13Z</time>
      </trkpt>
      <trkpt lat="43.1793" lon="2.37598">
        <ele>150.6</ele>
        <time>2021-03-21T05:17:14Z</time>
      </trkpt>
      <trkpt lat="43.17922" lon="2.37612">
        <ele>151</ele>
        <time>2021-03-21T05:17:16Z</time>
      </trkpt>
      <trkpt lat="43.17913" lon="2.37627">
        <ele>151.5</ele>
        <time>2021-03-21T05:17:18Z</time>
      </trkpt>
      <trkpt lat="43.17909" lon="2.37634">
        <ele>151.7</ele>
        <time>2021-03-21T05:17:19Z</time>
      </trkpt>
      <trkpt lat="43.17901" lon="2.37648">
        <ele>152.2</ele>
        <time>2021-03-21T05:17:21Z</time>
      </trkpt>
      <trkpt lat="43.17897" lon="2.37655">
        <ele>152.5</ele>
        <time>2021-03-21T05:17:22Z</time>
      </trkpt>
      <trkpt lat="43.17888" lon="2.37669">
        <ele>153</ele>
        <time>2021-03-21T05:17:24Z</time>
      </trkpt>
      <trkpt lat="43.17884" lon="2.37676">
        <ele>153.2</ele>
        <time>2021-03-21T05:17:25Z</time>
      </trkpt>
      <trkpt lat="43.17876" lon="2.37689">
        <ele>153.7</ele>
        <time>2021-03-21T05:17:27Z</time>
      </trkpt>
      <trkpt lat="43.17872" lon="2.37696">
        <ele>153.9</ele>
        <time>2021-03-21T05:17:28Z</time>
      </trkpt>
      <trkpt lat="43.17864" lon="2.37709">
        <ele>154.4</ele>
        <time>2021-03-21T05:17:30Z</time>
      </trkpt>
      <trkpt lat="43.1786" lon="2.37716">
        <ele>154.6</ele>
        <time>2021-03-21T05:17:31Z</time>
      </trkpt>
      <trkpt lat="43.17852" lon="2.37729">
        <ele>155.1</ele>
        <time>2021-03-21T05:17:33Z</time>
      </trkpt>
      <trkpt lat="43.17849" lon="2.37736">
        <ele>155.3</ele>
        <time>2021-03-21T05:17:34Z</time>
      </trkpt>
      <trkpt lat="43.17841" lon="2.37749">
        <ele>155.6</ele>
        <time>2021-03-21T05:17:36Z</time>
      </trkpt>
      <trkpt lat="43.17838" lon="2.37756">
        <ele>155.8</ele>
        <time>2021-03-21T05:17:37Z</time>
      </trkpt>
      <trkpt lat="43.17831" lon="2.37769">
        <ele>156</ele>
        <time>2021-03-21T05:17:39Z</time>
      </trkpt>
      <trkpt lat="43.17825" lon="2.37784">
        <ele>156.3</ele>
        <time>2021-03-21T05:17:41Z</time>
      </trkpt>
      <trkpt lat="43.17819" lon="2.378">
        <ele>156.5</ele>
        <time>2021-03-21T05:17:43Z</time>
      </trkpt>
      <trkpt lat="43.17816" lon="2.37808">
        <ele>156.6</ele>
        <time>2021-03-21T05:17:44Z</time>
      </trkpt>
      <trkpt lat="43.17811" lon="2.37823">
        <ele>156.9</ele>
        <time>2021-03-21T05:17:46Z</time>
      </trkpt>
      <trkpt lat="43.17807" lon="2.3783">
        <ele>157</ele>
        <time>2021-03-21T05:17:47Z</time>
      </trkpt>
      <trkpt lat="43.17804" lon="2.37837">
        <ele>157.1</ele>
        <time>2021-03-21T05:17:48Z</time>
      </trkpt>
      <trkpt lat="43.17798" lon="2.37853">
        <ele>157.4</ele>
        <time>2021-03-21T05:17:50Z</time>
      </trkpt>
      <trkpt lat="43.17792" lon="2.37869">
        <ele>157.6</ele>
        <time>2021-03-21T05:17:52Z</time>
      </trkpt>
      <trkpt lat="43.17789" lon="2.37877">
        <ele>157.7</ele>
        <time>2021-03-21T05:17:53Z</time>
      </trkpt>
      <trkpt lat="43.17783" lon="2.37892">
        <ele>158</ele>
        <time>2021-03-21T05:17:55Z</time>
      </trkpt>
      <trkpt lat="43.17777" lon="2.37907">
        <ele>158.3</ele>
        <time>2021-03-21T05:17:57Z</time>
      </trkpt>
      <trkpt lat="43.17773" lon="2.37915">
        <ele>158.4</ele>
        <time>2021-03-21T05:17:58Z</time>
      </trkpt>
      <trkpt lat="43.17767" lon="2.3793">
        <ele>158.7</ele>
        <time>2021-03-21T05:18:00Z</time>
      </trkpt>
      <trkpt lat="43.17764" lon="2.37937">
        <ele>158.8</ele>
        <time>2021-03-21T05:18:01Z</time>
      </trkpt>
      <trkpt lat="43.17762" lon="2.37945">
        <ele>158.9</ele>
        <time>2021-03-21T05:18:02Z</time>
      </trkpt>
      <trkpt lat="43.17755" lon="2.37961">
        <ele>159.1</ele>
        <time>2021-03-21T05:18:04Z</time>
      </trkpt>
      <trkpt lat="43.17752" lon="2.37969">
        <ele>159.2</ele>
        <time>2021-03-21T05:18:05Z</time>
      </trkpt>
      <trkpt lat="43.17746" lon="2.37984">
        <ele>159.4</ele>
        <time>2021-03-21T05:18:07Z</time>
      </trkpt>
      <trkpt lat="43.17739" lon="2.38">
        <ele>159.6</ele>
        <time>2021-03-21T05:18:09Z</time>
      </trkpt>
      <trkpt lat="43.17736" lon="2.38007">
        <ele>159.8</ele>
        <time>2021-03-21T05:18:10Z</time>
      </trkpt>
      <trkpt lat="43.17733" lon="2.38015">
        <ele>159.9</ele>
        <time>2021-03-21T05:18:11Z</time>
      </trkpt>
      <trkpt lat="43.1773" lon="2.38022">
        <ele>160</ele>
        <time>2021-03-21T05:18:12Z</time>
      </trkpt>
      <trkpt lat="43.17727" lon="2.38029">
        <ele>160.1</ele>
        <time>2021-03-21T05:18:13Z</time>
      </trkpt>
      <trkpt lat="43.17721" lon="2.38045">
        <ele>160.4</ele>
        <time>2021-03-21T05:18:15Z</time>
      </trkpt>
      <trkpt lat="43.17718" lon="2.38052">
        <ele>160.5</ele>
        <time>2021-03-21T05:18:16Z</time>
      </trkpt>
      <trkpt lat="43.17712" lon="2.38067">
        <ele>160.8</ele>
        <time>2021-03-21T05:18:18Z</time>
      </trkpt>
      <trkpt lat="43.17709" lon="2.38075">
        <ele>160.9</ele>
        <time>2021-03-21T05:18:19Z</time>
      </trkpt>
      <trkpt lat="43.17706" lon="2.38083">
        <ele>161</ele>
        <time>2021-03-21T05:18:20Z</time>
      </trkpt>
      <trkpt lat="43.17699" lon="2.38098">
        <ele>161.3</ele>
        <time>2021-03-21T05:18:22Z</time>
      </trkpt>
      <trkpt lat="43.17693" lon="2.38113">
        <ele>161.5</ele>
        <time>2021-03-21T05:18:24Z</time>
      </trkpt>
      <trkpt lat="43.1769" lon="2.38121">
        <ele>161.6</ele>
        <time>2021-03-21T05:18:25Z</time>
      </trkpt>
      <trkpt lat="43.17682" lon="2.38135">
        <ele>161.8</ele>
        <time>2021-03-21T05:18:27Z</time>
      </trkpt>
      <trkpt lat="43.17678" lon="2.38141">
        <ele>161.8</ele>
        <time>2021-03-21T05:18:28Z</time>
      </trkpt>
      <trkpt lat="43.17674" lon="2.38149">
        <ele>161.8</ele>
        <time>2021-03-21T05:18:29Z</time>
      </trkpt>
      <trkpt lat="43.17666" lon="2.38163">
        <ele>161.9</ele>
        <time>2021-03-21T05:18:31Z</time>
      </trkpt>
      <trkpt lat="43.17661" lon="2.3817">
        <ele>161.9</ele>
        <time>2021-03-21T05:18:32Z</time>
      </trkpt>
      <trkpt lat="43.17656" lon="2.38178">
        <ele>161.9</ele>
        <time>2021-03-21T05:18:33Z</time>
      </trkpt>
      <trkpt lat="43.17647" lon="2.38192">
        <ele>162</ele>
        <time>2021-03-21T05:18:35Z</time>
      </trkpt>
      <trkpt lat="43.17638" lon="2.38206">
        <ele>162</ele>
        <time>2021-03-21T05:18:37Z</time>
      </trkpt>
      <trkpt lat="43.17634" lon="2.38213">
        <ele>162</ele>
        <time>2021-03-21T05:18:38Z</time>
      </trkpt>
      <trkpt lat="43.17629" lon="2.3822">
        <ele>162</ele>
        <time>2021-03-21T05:18:39Z</time>
      </trkpt>
      <trkpt lat="43.17621" lon="2.38234">
        <ele>161.9</ele>
        <time>2021-03-21T05:18:41Z</time>
      </trkpt>
      <trkpt lat="43.17614" lon="2.38249">
        <ele>161.9</ele>
        <time>2021-03-21T05:18:43Z</time>
      </trkpt>
      <trkpt lat="43.17606" lon="2.38262">
        <ele>161.9</ele>
        <time>2021-03-21T05:18:45Z</time>
      </trkpt>
      <trkpt lat="43.17596" lon="2.38277">
        <ele>162</ele>
        <time>2021-03-21T05:18:47Z</time>
      </trkpt>
      <trkpt lat="43.17587" lon="2.38292">
        <ele>162</ele>
        <time>2021-03-21T05:18:49Z</time>
      </trkpt>
      <trkpt lat="43.17578" lon="2.38305">
        <ele>161.9</ele>
        <time>2021-03-21T05:18:51Z</time>
      </trkpt>
      <trkpt lat="43.17566" lon="2.38313">
        <ele>161.9</ele>
        <time>2021-03-21T05:18:53Z</time>
      </trkpt>
      <trkpt lat="43.1756" lon="2.38315">
        <ele>161.8</ele>
        <time>2021-03-21T05:18:54Z</time>
      </trkpt>
      <trkpt lat="43.17551" lon="2.38325">
        <ele>161.9</ele>
        <time>2021-03-21T05:18:56Z</time>
      </trkpt>
      <trkpt lat="43.17547" lon="2.38333">
        <ele>161.9</ele>
        <time>2021-03-21T05:18:57Z</time>
      </trkpt>
      <trkpt lat="43.17541" lon="2.38349">
        <ele>162</ele>
        <time>2021-03-21T05:18:59Z</time>
      </trkpt>
      <trkpt lat="43.17538" lon="2.38357">
        <ele>162</ele>
        <time>2021-03-21T05:19:00Z</time>
      </trkpt>
      <trkpt lat="43.17531" lon="2.38373">
        <ele>162.1</ele>
        <time>2021-03-21T05:19:02Z</time>
      </trkpt>
      <trkpt lat="43.17527" lon="2.3838">
        <ele>162.2</ele>
        <time>2021-03-21T05:19:03Z</time>
      </trkpt>
      <trkpt lat="43.17524" lon="2.38388">
        <ele>162.2</ele>
        <time>2021-03-21T05:19:04Z</time>
      </trkpt>
      <trkpt lat="43.17517" lon="2.38402">
        <ele>162.3</ele>
        <time>2021-03-21T05:19:06Z</time>
      </trkpt>
      <trkpt lat="43.17513" lon="2.3841">
        <ele>162.4</ele>
        <time>2021-03-21T05:19:07Z</time>
      </trkpt>
      <trkpt lat="43.17506" lon="2.38425">
        <ele>162.5</ele>
        <time>2021-03-21T05:19:09Z</time>
      </trkpt>
      <trkpt lat="43.17499" lon="2.3844">
        <ele>162.6</ele>
        <time>2021-03-21T05:19:11Z</time>
      </trkpt>
      <trkpt lat="43.17495" lon="2.38447">
        <ele>162.7</ele>
        <time>2021-03-21T05:19:12Z</time>
      </trkpt>
      <trkpt lat="43.17487" lon="2.38461">
        <ele>162.9</ele>
        <time>2021-03-21T05:19:14Z</time>
      </trkpt>
      <trkpt lat="43.17478" lon="2.38475">
        <ele>163.1</ele>
        <time>2021-03-21T05:19:16Z</time>
      </trkpt>
      <trkpt lat="43.17469" lon="2.38488">
        <ele>163.2</ele>
        <time>2021-03-21T05:19:18Z</time>
      </trkpt>
      <trkpt lat="43.1746" lon="2.38501">
        <ele>163.4</ele>
        <time>2021-03-21T05:19:20Z</time>
      </trkpt>
      <trkpt lat="43.17456" lon="2.38507">
        <ele>163.5</ele>
        <time>2021-03-21T05:19:21Z</time>
      </trkpt>
      <trkpt lat="43.17447" lon="2.3852">
        <ele>163.7</ele>
        <time>2021-03-21T05:19:23Z</time>
      </trkpt>
      <trkpt lat="43.17443" lon="2.38527">
        <ele>163.9</ele>
        <time>2021-03-21T05:19:24Z</time>
      </trkpt>
      <trkpt lat="43.17436" lon="2.38541">
        <ele>164.1</ele>
        <time>2021-03-21T05:19:26Z</time>
      </trkpt>
      <trkpt lat="43.17432" lon="2.38549">
        <ele>164.2</ele>
        <time>2021-03-21T05:19:27Z</time>
      </trkpt>
      <trkpt lat="43.17426" lon="2.38564">
        <ele>164.4</ele>
        <time>2021-03-21T05:19:29Z</time>
      </trkpt>
      <trkpt lat="43.1742" lon="2.38579">
        <ele>164.6</ele>
        <time>2021-03-21T05:19:31Z</time>
      </trkpt>
      <trkpt lat="43.17417" lon="2.38587">
        <ele>164.7</ele>
        <time>2021-03-21T05:19:32Z</time>
      </trkpt>
      <trkpt lat="43.17414" lon="2.38595">
        <ele>164.8</ele>
        <time>2021-03-21T05:19:33Z</time>
      </trkpt>
      <trkpt lat="43.17408" lon="2.3861">
        <ele>165</ele>
        <time>2021-03-21T05:19:35Z</time>
      </trkpt>
      <trkpt lat="43.17405" lon="2.38618">
        <ele>165.1</ele>
        <time>2021-03-21T05:19:36Z</time>
      </trkpt>
      <trkpt lat="43.17403" lon="2.38626">
        <ele>165.3</ele>
        <time>2021-03-21T05:19:37Z</time>
      </trkpt>
      <trkpt lat="43.17397" lon="2.38642">
        <ele>165.5</ele>
        <time>2021-03-21T05:19:39Z</time>
      </trkpt>
      <trkpt lat="43.17393" lon="2.38649">
        <ele>165.7</ele>
        <time>2021-03-21T05:19:40Z</time>
      </trkpt>
      <trkpt lat="43.17388" lon="2.38665">
        <ele>166</ele>
        <time>2021-03-21T05:19:42Z</time>
      </trkpt>
      <trkpt lat="43.17385" lon="2.38673">
        <ele>166.1</ele>
        <time>2021-03-21T05:19:43Z</time>
      </trkpt>
      <trkpt lat="43.17382" lon="2.38681">
        <ele>166.3</ele>
        <time>2021-03-21T05:19:44Z</time>
      </trkpt>
      <trkpt lat="43.17379" lon="2.38689">
        <ele>166.4</ele>
        <time>2021-03-21T05:19:45Z</time>
      </trkpt>
      <trkpt lat="43.17374" lon="2.38705">
        <ele>166.8</ele>
        <time>2021-03-21T05:19:47Z</time>
      </trkpt>
      <trkpt lat="43.17369" lon="2.38721">
        <ele>167.1</ele>
        <time>2021-03-21T05:19:49Z</time>
      </trkpt>
      <trkpt lat="43.17365" lon="2.38737">
        <ele>167.5</ele>
        <time>2021-03-21T05:19:51Z</time>
      </trkpt>
      <trkpt lat="43.17363" lon="2.38744">
        <ele>167.6</ele>
        <time>2021-03-21T05:19:52Z</time>
      </trkpt>
      <trkpt lat="43.1736" lon="2.38752">
        <ele>167.7</ele>
        <time>2021-03-21T05:19:53Z</time>
      </trkpt>
      <trkpt lat="43.17353" lon="2.38765">
        <ele>167.7</ele>
        <time>2021-03-21T05:19:55Z</time>
      </trkpt>
      <trkpt lat="43.17341" lon="2.38774">
        <ele>167.8</ele>
        <time>2021-03-21T05:19:57Z</time>
      </trkpt>
      <trkpt lat="43.17335" lon="2.38778">
        <ele>168</ele>
        <time>2021-03-21T05:19:58Z</time>
      </trkpt>
      <trkpt lat="43.17322" lon="2.38787">
        <ele>168.1</ele>
        <time>2021-03-21T05:20:00Z</time>
      </trkpt>
      <trkpt lat="43.1731" lon="2.38794">
        <ele>168.3</ele>
        <time>2021-03-21T05:20:02Z</time>
      </trkpt>
      <trkpt lat="43.17297" lon="2.38795">
        <ele>168.5</ele>
        <time>2021-03-21T05:20:04Z</time>
      </trkpt>
      <trkpt lat="43.1729" lon="2.38794">
        <ele>168.6</ele>
        <time>2021-03-21T05:20:05Z</time>
      </trkpt>
      <trkpt lat="43.17284" lon="2.38794">
        <ele>168.7</ele>
        <time>2021-03-21T05:20:06Z</time>
      </trkpt>
      <trkpt lat="43.17272" lon="2.3879">
        <ele>169</ele>
        <time>2021-03-21T05:20:08Z</time>
      </trkpt>
      <trkpt lat="43.17259" lon="2.38787">
        <ele>169.6</ele>
        <time>2021-03-21T05:20:10Z</time>
      </trkpt>
      <trkpt lat="43.17248" lon="2.38784">
        <ele>170.2</ele>
        <time>2021-03-21T05:20:12Z</time>
      </trkpt>
      <trkpt lat="43.17243" lon="2.38784">
        <ele>170.5</ele>
        <time>2021-03-21T05:20:13Z</time>
      </trkpt>
      <trkpt lat="43.17233" lon="2.38785">
        <ele>171</ele>
        <time>2021-03-21T05:20:15Z</time>
      </trkpt>
      <trkpt lat="43.17229" lon="2.38788">
        <ele>171.3</ele>
        <time>2021-03-21T05:20:16Z</time>
      </trkpt>
      <trkpt lat="43.1722" lon="2.38798">
        <ele>171.8</ele>
        <time>2021-03-21T05:20:18Z</time>
      </trkpt>
      <trkpt lat="43.17216" lon="2.38804">
        <ele>172</ele>
        <time>2021-03-21T05:20:19Z</time>
      </trkpt>
      <trkpt lat="43.17213" lon="2.38809">
        <ele>172.2</ele>
        <time>2021-03-21T05:20:20Z</time>
      </trkpt>
      <trkpt lat="43.17206" lon="2.3882">
        <ele>172.7</ele>
        <time>2021-03-21T05:20:22Z</time>
      </trkpt>
      <trkpt lat="43.17203" lon="2.38825">
        <ele>172.9</ele>
        <time>2021-03-21T05:20:23Z</time>
      </trkpt>
      <trkpt lat="43.17196" lon="2.38836">
        <ele>173.4</ele>
        <time>2021-03-21T05:20:25Z</time>
      </trkpt>
      <trkpt lat="43.17192" lon="2.38841">
        <ele>173.6</ele>
        <time>2021-03-21T05:20:26Z</time>
      </trkpt>
      <trkpt lat="43.17189" lon="2.38847">
        <ele>173.8</ele>
        <time>2021-03-21T05:20:27Z</time>
      </trkpt>
      <trkpt lat="43.17182" lon="2.38857">
        <ele>174.3</ele>
        <time>2021-03-21T05:20:29Z</time>
      </trkpt>
      <trkpt lat="43.17175" lon="2.38868">
        <ele>174.7</ele>
        <time>2021-03-21T05:20:31Z</time>
      </trkpt>
      <trkpt lat="43.17168" lon="2.38878">
        <ele>175.2</ele>
        <time>2021-03-21T05:20:33Z</time>
      </trkpt>
      <trkpt lat="43.17164" lon="2.38882">
        <ele>175.4</ele>
        <time>2021-03-21T05:20:34Z</time>
      </trkpt>
      <trkpt lat="43.17159" lon="2.38885">
        <ele>175.6</ele>
        <time>2021-03-21T05:20:35Z</time>
      </trkpt>
      <trkpt lat="43.1715" lon="2.38889">
        <ele>175.9</ele>
        <time>2021-03-21T05:20:37Z</time>
      </trkpt>
      <trkpt lat="43.17144" lon="2.38889">
        <ele>175.9</ele>
        <time>2021-03-21T05:20:38Z</time>
      </trkpt>
      <trkpt lat="43.17139" lon="2.38889">
        <ele>176.1</ele>
        <time>2021-03-21T05:20:39Z</time>
      </trkpt>
      <trkpt lat="43.17134" lon="2.38888">
        <ele>176.4</ele>
        <time>2021-03-21T05:20:40Z</time>
      </trkpt>
      <trkpt lat="43.17129" lon="2.38887">
        <ele>176.7</ele>
        <time>2021-03-21T05:20:41Z</time>
      </trkpt>
      <trkpt lat="43.17119" lon="2.38886">
        <ele>177.3</ele>
        <time>2021-03-21T05:20:43Z</time>
      </trkpt>
      <trkpt lat="43.17114" lon="2.38886">
        <ele>177.6</ele>
        <time>2021-03-21T05:20:44Z</time>
      </trkpt>
      <trkpt lat="43.17109" lon="2.38886">
        <ele>177.9</ele>
        <time>2021-03-21T05:20:45Z</time>
      </trkpt>
      <trkpt lat="43.17104" lon="2.38885">
        <ele>178.2</ele>
        <time>2021-03-21T05:20:46Z</time>
      </trkpt>
      <trkpt lat="43.17095" lon="2.38884">
        <ele>178.9</ele>
        <time>2021-03-21T05:20:48Z</time>
      </trkpt>
      <trkpt lat="43.17091" lon="2.38884">
        <ele>179.3</ele>
        <time>2021-03-21T05:20:49Z</time>
      </trkpt>
      <trkpt lat="43.17086" lon="2.38884">
        <ele>179.7</ele>
        <time>2021-03-21T05:20:50Z</time>
      </trkpt>
      <trkpt lat="43.17078" lon="2.38884">
        <ele>180.3</ele>
        <time>2021-03-21T05:20:52Z</time>
      </trkpt>
      <trkpt lat="43.1707" lon="2.38883">
        <ele>180.9</ele>
        <time>2021-03-21T05:20:54Z</time>
      </trkpt>
      <trkpt lat="43.17066" lon="2.38883">
        <ele>181.2</ele>
        <time>2021-03-21T05:20:55Z</time>
      </trkpt>
      <trkpt lat="43.17057" lon="2.38886">
        <ele>181.8</ele>
        <time>2021-03-21T05:20:57Z</time>
      </trkpt>
      <trkpt lat="43.17052" lon="2.38885">
        <ele>182.2</ele>
        <time>2021-03-21T05:20:59Z</time>
      </trkpt>
      <trkpt lat="43.17048" lon="2.38884">
        <ele>182.5</ele>
        <time>2021-03-21T05:21:00Z</time>
      </trkpt>
      <trkpt lat="43.17043" lon="2.38883">
        <ele>182.8</ele>
        <time>2021-03-21T05:21:01Z</time>
      </trkpt>
      <trkpt lat="43.17037" lon="2.38882">
        <ele>183.1</ele>
        <time>2021-03-21T05:21:02Z</time>
      </trkpt>
      <trkpt lat="43.17029" lon="2.38881">
        <ele>183.6</ele>
        <time>2021-03-21T05:21:04Z</time>
      </trkpt>
      <trkpt lat="43.17024" lon="2.38881">
        <ele>183.8</ele>
        <time>2021-03-21T05:21:05Z</time>
      </trkpt>
      <trkpt lat="43.17013" lon="2.38879">
        <ele>184.3</ele>
        <time>2021-03-21T05:21:07Z</time>
      </trkpt>
      <trkpt lat="43.17007" lon="2.38879">
        <ele>184.4</ele>
        <time>2021-03-21T05:21:08Z</time>
      </trkpt>
      <trkpt lat="43.17002" lon="2.38879">
        <ele>184.6</ele>
        <time>2021-03-21T05:21:09Z</time>
      </trkpt>
      <trkpt lat="43.16996" lon="2.3888">
        <ele>184.7</ele>
        <time>2021-03-21T05:21:10Z</time>
      </trkpt>
      <trkpt lat="43.16985" lon="2.38884">
        <ele>184.9</ele>
        <time>2021-03-21T05:21:12Z</time>
      </trkpt>
      <trkpt lat="43.1698" lon="2.38888">
        <ele>185</ele>
        <time>2021-03-21T05:21:13Z</time>
      </trkpt>
      <trkpt lat="43.16975" lon="2.38893">
        <ele>185</ele>
        <time>2021-03-21T05:21:14Z</time>
      </trkpt>
      <trkpt lat="43.16971" lon="2.38898">
        <ele>185.1</ele>
        <time>2021-03-21T05:21:15Z</time>
      </trkpt>
      <trkpt lat="43.16961" lon="2.38907">
        <ele>185.2</ele>
        <time>2021-03-21T05:21:17Z</time>
      </trkpt>
      <trkpt lat="43.16956" lon="2.38911">
        <ele>185.2</ele>
        <time>2021-03-21T05:21:18Z</time>
      </trkpt>
      <trkpt lat="43.16945" lon="2.38918">
        <ele>185.3</ele>
        <time>2021-03-21T05:21:20Z</time>
      </trkpt>
      <trkpt lat="43.16939" lon="2.38922">
        <ele>185.3</ele>
        <time>2021-03-21T05:21:21Z</time>
      </trkpt>
      <trkpt lat="43.16928" lon="2.38928">
        <ele>185.4</ele>
        <time>2021-03-21T05:21:23Z</time>
      </trkpt>
      <trkpt lat="43.16917" lon="2.38934">
        <ele>185.7</ele>
        <time>2021-03-21T05:21:25Z</time>
      </trkpt>
      <trkpt lat="43.16906" lon="2.3894">
        <ele>185.9</ele>
        <time>2021-03-21T05:21:27Z</time>
      </trkpt>
      <trkpt lat="43.16901" lon="2.38943">
        <ele>186</ele>
        <time>2021-03-21T05:21:28Z</time>
      </trkpt>
      <trkpt lat="43.16891" lon="2.38948">
        <ele>186.3</ele>
        <time>2021-03-21T05:21:30Z</time>
      </trkpt>
      <trkpt lat="43.16879" lon="2.38952">
        <ele>186.6</ele>
        <time>2021-03-21T05:21:32Z</time>
      </trkpt>
      <trkpt lat="43.16874" lon="2.38953">
        <ele>186.8</ele>
        <time>2021-03-21T05:21:33Z</time>
      </trkpt>
      <trkpt lat="43.16868" lon="2.38954">
        <ele>187</ele>
        <time>2021-03-21T05:21:34Z</time>
      </trkpt>
      <trkpt lat="43.16858" lon="2.38956">
        <ele>187.5</ele>
        <time>2021-03-21T05:21:36Z</time>
      </trkpt>
      <trkpt lat="43.16848" lon="2.38957">
        <ele>188</ele>
        <time>2021-03-21T05:21:38Z</time>
      </trkpt>
      <trkpt lat="43.16843" lon="2.38957">
        <ele>188.3</ele>
        <time>2021-03-21T05:21:39Z</time>
      </trkpt>
      <trkpt lat="43.16839" lon="2.38957">
        <ele>188.3</ele>
        <time>2021-03-21T05:21:40Z</time>
      </trkpt>
      <trkpt lat="43.16835" lon="2.38956">
        <ele>188.4</ele>
        <time>2021-03-21T05:21:41Z</time>
      </trkpt>
      <trkpt lat="43.16826" lon="2.38953">
        <ele>188.9</ele>
        <time>2021-03-21T05:21:43Z</time>
      </trkpt>
      <trkpt lat="43.16821" lon="2.38951">
        <ele>189.1</ele>
        <time>2021-03-21T05:21:44Z</time>
      </trkpt>
      <trkpt lat="43.16813" lon="2.38945">
        <ele>189.6</ele>
        <time>2021-03-21T05:21:46Z</time>
      </trkpt>
      <trkpt lat="43.16809" lon="2.38941">
        <ele>189.9</ele>
        <time>2021-03-21T05:21:47Z</time>
      </trkpt>
      <trkpt lat="43.16806" lon="2.38938">
        <ele>190.1</ele>
        <time>2021-03-21T05:21:48Z</time>
      </trkpt>
      <trkpt lat="43.16803" lon="2.38934">
        <ele>190.3</ele>
        <time>2021-03-21T05:21:49Z</time>
      </trkpt>
      <trkpt lat="43.16799" lon="2.38927">
        <ele>190.7</ele>
        <time>2021-03-21T05:21:51Z</time>
      </trkpt>
      <trkpt lat="43.16794" lon="2.38929">
        <ele>191</ele>
        <time>2021-03-21T05:21:52Z</time>
      </trkpt>
      <trkpt lat="43.16792" lon="2.38932">
        <ele>191.2</ele>
        <time>2021-03-21T05:21:53Z</time>
      </trkpt>
      <trkpt lat="43.16788" lon="2.38926">
        <ele>191.5</ele>
        <time>2021-03-21T05:21:55Z</time>
      </trkpt>
      <trkpt lat="43.16784" lon="2.38916">
        <ele>191.9</ele>
        <time>2021-03-21T05:21:56Z</time>
      </trkpt>
      <trkpt lat="43.16781" lon="2.38907">
        <ele>192.3</ele>
        <time>2021-03-21T05:21:57Z</time>
      </trkpt>
      <trkpt lat="43.16778" lon="2.38898">
        <ele>192.7</ele>
        <time>2021-03-21T05:21:59Z</time>
      </trkpt>
      <trkpt lat="43.16776" lon="2.38888">
        <ele>193.1</ele>
        <time>2021-03-21T05:22:00Z</time>
      </trkpt>
      <trkpt lat="43.16774" lon="2.38879">
        <ele>193.5</ele>
        <time>2021-03-21T05:22:02Z</time>
      </trkpt>
      <trkpt lat="43.1677" lon="2.3887">
        <ele>193.9</ele>
        <time>2021-03-21T05:22:03Z</time>
      </trkpt>
      <trkpt lat="43.16768" lon="2.38864">
        <ele>194.2</ele>
        <time>2021-03-21T05:22:04Z</time>
      </trkpt>
      <trkpt lat="43.16764" lon="2.38849">
        <ele>194.8</ele>
        <time>2021-03-21T05:22:06Z</time>
      </trkpt>
      <trkpt lat="43.16762" lon="2.38843">
        <ele>195.1</ele>
        <time>2021-03-21T05:22:07Z</time>
      </trkpt>
      <trkpt lat="43.1676" lon="2.38835">
        <ele>195.5</ele>
        <time>2021-03-21T05:22:08Z</time>
      </trkpt>
      <trkpt lat="43.16758" lon="2.38828">
        <ele>195.8</ele>
        <time>2021-03-21T05:22:10Z</time>
      </trkpt>
      <trkpt lat="43.16756" lon="2.38821">
        <ele>196.1</ele>
        <time>2021-03-21T05:22:11Z</time>
      </trkpt>
      <trkpt lat="43.1675" lon="2.3881">
        <ele>196.7</ele>
        <time>2021-03-21T05:22:13Z</time>
      </trkpt>
      <trkpt lat="43.16748" lon="2.38806">
        <ele>196.9</ele>
        <time>2021-03-21T05:22:14Z</time>
      </trkpt>
      <trkpt lat="43.16744" lon="2.38796">
        <ele>197.4</ele>
        <time>2021-03-21T05:22:16Z</time>
      </trkpt>
      <trkpt lat="43.1674" lon="2.38786">
        <ele>197.8</ele>
        <time>2021-03-21T05:22:18Z</time>
      </trkpt>
      <trkpt lat="43.16738" lon="2.3878">
        <ele>198.1</ele>
        <time>2021-03-21T05:22:19Z</time>
      </trkpt>
      <trkpt lat="43.16736" lon="2.38774">
        <ele>198.3</ele>
        <time>2021-03-21T05:22:20Z</time>
      </trkpt>
      <trkpt lat="43.16733" lon="2.38766">
        <ele>198.7</ele>
        <time>2021-03-21T05:22:22Z</time>
      </trkpt>
      <trkpt lat="43.16731" lon="2.38758">
        <ele>199.1</ele>
        <time>2021-03-21T05:22:23Z</time>
      </trkpt>
      <trkpt lat="43.16729" lon="2.38749">
        <ele>199.5</ele>
        <time>2021-03-21T05:22:25Z</time>
      </trkpt>
      <trkpt lat="43.16728" lon="2.38741">
        <ele>199.9</ele>
        <time>2021-03-21T05:22:26Z</time>
      </trkpt>
      <trkpt lat="43.16727" lon="2.38734">
        <ele>200.2</ele>
        <time>2021-03-21T05:22:27Z</time>
      </trkpt>
      <trkpt lat="43.16727" lon="2.38724">
        <ele>200.7</ele>
        <time>2021-03-21T05:22:29Z</time>
      </trkpt>
      <trkpt lat="43.16727" lon="2.38716">
        <ele>201.1</ele>
        <time>2021-03-21T05:22:30Z</time>
      </trkpt>
      <trkpt lat="43.16727" lon="2.3871">
        <ele>201.3</ele>
        <time>2021-03-21T05:22:31Z</time>
      </trkpt>
      <trkpt lat="43.16728" lon="2.38698">
        <ele>201.8</ele>
        <time>2021-03-21T05:22:33Z</time>
      </trkpt>
      <trkpt lat="43.16729" lon="2.38691">
        <ele>202.2</ele>
        <time>2021-03-21T05:22:34Z</time>
      </trkpt>
      <trkpt lat="43.16729" lon="2.38682">
        <ele>202.6</ele>
        <time>2021-03-21T05:22:36Z</time>
      </trkpt>
      <trkpt lat="43.16729" lon="2.38676">
        <ele>202.9</ele>
        <time>2021-03-21T05:22:37Z</time>
      </trkpt>
      <trkpt lat="43.1673" lon="2.38669">
        <ele>203.2</ele>
        <time>2021-03-21T05:22:38Z</time>
      </trkpt>
      <trkpt lat="43.16731" lon="2.38661">
        <ele>203.6</ele>
        <time>2021-03-21T05:22:40Z</time>
      </trkpt>
      <trkpt lat="43.16731" lon="2.38653">
        <ele>204</ele>
        <time>2021-03-21T05:22:41Z</time>
      </trkpt>
      <trkpt lat="43.16729" lon="2.38642">
        <ele>204.5</ele>
        <time>2021-03-21T05:22:43Z</time>
      </trkpt>
      <trkpt lat="43.16728" lon="2.38637">
        <ele>204.8</ele>
        <time>2021-03-21T05:22:44Z</time>
      </trkpt>
      <trkpt lat="43.16725" lon="2.38633">
        <ele>205</ele>
        <time>2021-03-21T05:22:45Z</time>
      </trkpt>
      <trkpt lat="43.16715" lon="2.38628">
        <ele>205.6</ele>
        <time>2021-03-21T05:22:47Z</time>
      </trkpt>
      <trkpt lat="43.16705" lon="2.38629">
        <ele>206.2</ele>
        <time>2021-03-21T05:22:49Z</time>
      </trkpt>
      <trkpt lat="43.167" lon="2.38632">
        <ele>206.4</ele>
        <time>2021-03-21T05:22:50Z</time>
      </trkpt>
      <trkpt lat="43.16695" lon="2.38635">
        <ele>206.7</ele>
        <time>2021-03-21T05:22:51Z</time>
      </trkpt>
      <trkpt lat="43.16687" lon="2.38643">
        <ele>207.1</ele>
        <time>2021-03-21T05:22:53Z</time>
      </trkpt>
      <trkpt lat="43.16683" lon="2.38648">
        <ele>207.3</ele>
        <time>2021-03-21T05:22:54Z</time>
      </trkpt>
      <trkpt lat="43.16679" lon="2.38652">
        <ele>207.5</ele>
        <time>2021-03-21T05:22:55Z</time>
      </trkpt>
      <trkpt lat="43.16676" lon="2.38656">
        <ele>207.7</ele>
        <time>2021-03-21T05:22:56Z</time>
      </trkpt>
      <trkpt lat="43.16668" lon="2.38664">
        <ele>208.2</ele>
        <time>2021-03-21T05:22:58Z</time>
      </trkpt>
      <trkpt lat="43.16666" lon="2.38667">
        <ele>208.3</ele>
        <time>2021-03-21T05:22:59Z</time>
      </trkpt>
      <trkpt lat="43.16659" lon="2.38675">
        <ele>208.7</ele>
        <time>2021-03-21T05:23:01Z</time>
      </trkpt>
      <trkpt lat="43.16656" lon="2.38679">
        <ele>208.9</ele>
        <time>2021-03-21T05:23:02Z</time>
      </trkpt>
      <trkpt lat="43.16653" lon="2.38683">
        <ele>209.2</ele>
        <time>2021-03-21T05:23:03Z</time>
      </trkpt>
      <trkpt lat="43.16646" lon="2.3869">
        <ele>209.5</ele>
        <time>2021-03-21T05:23:05Z</time>
      </trkpt>
      <trkpt lat="43.16649" lon="2.38695">
        <ele>209.8</ele>
        <time>2021-03-21T05:23:07Z</time>
      </trkpt>
      <trkpt lat="43.16645" lon="2.38699">
        <ele>210</ele>
        <time>2021-03-21T05:23:08Z</time>
      </trkpt>
      <trkpt lat="43.16632" lon="2.38705">
        <ele>210.6</ele>
        <time>2021-03-21T05:23:09Z</time>
      </trkpt>
      <trkpt lat="43.16627" lon="2.38709">
        <ele>210.9</ele>
        <time>2021-03-21T05:23:10Z</time>
      </trkpt>
      <trkpt lat="43.16619" lon="2.38718">
        <ele>211.5</ele>
        <time>2021-03-21T05:23:12Z</time>
      </trkpt>
      <trkpt lat="43.16614" lon="2.38729">
        <ele>212</ele>
        <time>2021-03-21T05:23:14Z</time>
      </trkpt>
      <trkpt lat="43.16612" lon="2.38734">
        <ele>212.2</ele>
        <time>2021-03-21T05:23:15Z</time>
      </trkpt>
      <trkpt lat="43.1661" lon="2.3874">
        <ele>212.5</ele>
        <time>2021-03-21T05:23:16Z</time>
      </trkpt>
      <trkpt lat="43.16608" lon="2.38746">
        <ele>212.7</ele>
        <time>2021-03-21T05:23:17Z</time>
      </trkpt>
      <trkpt lat="43.16606" lon="2.38758">
        <ele>213.2</ele>
        <time>2021-03-21T05:23:19Z</time>
      </trkpt>
      <trkpt lat="43.16605" lon="2.38765">
        <ele>213.4</ele>
        <time>2021-03-21T05:23:20Z</time>
      </trkpt>
      <trkpt lat="43.16604" lon="2.38775">
        <ele>213.8</ele>
        <time>2021-03-21T05:23:22Z</time>
      </trkpt>
      <trkpt lat="43.16602" lon="2.38781">
        <ele>214</ele>
        <time>2021-03-21T05:23:23Z</time>
      </trkpt>
      <trkpt lat="43.16603" lon="2.38792">
        <ele>214.4</ele>
        <time>2021-03-21T05:23:25Z</time>
      </trkpt>
      <trkpt lat="43.16603" lon="2.38799">
        <ele>214.6</ele>
        <time>2021-03-21T05:23:26Z</time>
      </trkpt>
      <trkpt lat="43.16604" lon="2.38809">
        <ele>215</ele>
        <time>2021-03-21T05:23:28Z</time>
      </trkpt>
      <trkpt lat="43.16604" lon="2.3882">
        <ele>215.4</ele>
        <time>2021-03-21T05:23:29Z</time>
      </trkpt>
      <trkpt lat="43.16606" lon="2.38825">
        <ele>215.6</ele>
        <time>2021-03-21T05:23:30Z</time>
      </trkpt>
      <trkpt lat="43.16606" lon="2.38833">
        <ele>215.9</ele>
        <time>2021-03-21T05:23:32Z</time>
      </trkpt>
      <trkpt lat="43.16605" lon="2.38841">
        <ele>216.2</ele>
        <time>2021-03-21T05:23:33Z</time>
      </trkpt>
      <trkpt lat="43.16603" lon="2.38849">
        <ele>216.6</ele>
        <time>2021-03-21T05:23:34Z</time>
      </trkpt>
      <trkpt lat="43.166" lon="2.38864">
        <ele>217.3</ele>
        <time>2021-03-21T05:23:36Z</time>
      </trkpt>
      <trkpt lat="43.166" lon="2.38875">
        <ele>217.7</ele>
        <time>2021-03-21T05:23:38Z</time>
      </trkpt>
      <trkpt lat="43.16601" lon="2.3888">
        <ele>218</ele>
        <time>2021-03-21T05:23:39Z</time>
      </trkpt>
      <trkpt lat="43.166" lon="2.38886">
        <ele>218.3</ele>
        <time>2021-03-21T05:23:40Z</time>
      </trkpt>
      <trkpt lat="43.16597" lon="2.38893">
        <ele>218.6</ele>
        <time>2021-03-21T05:23:41Z</time>
      </trkpt>
      <trkpt lat="43.16595" lon="2.389">
        <ele>218.9</ele>
        <time>2021-03-21T05:23:42Z</time>
      </trkpt>
      <trkpt lat="43.16592" lon="2.3891">
        <ele>219.4</ele>
        <time>2021-03-21T05:23:44Z</time>
      </trkpt>
      <trkpt lat="43.1659" lon="2.38916">
        <ele>219.7</ele>
        <time>2021-03-21T05:23:45Z</time>
      </trkpt>
      <trkpt lat="43.16589" lon="2.38921">
        <ele>219.9</ele>
        <time>2021-03-21T05:23:46Z</time>
      </trkpt>
      <trkpt lat="43.16586" lon="2.38932">
        <ele>220.4</ele>
        <time>2021-03-21T05:23:48Z</time>
      </trkpt>
      <trkpt lat="43.16585" lon="2.38939">
        <ele>220.7</ele>
        <time>2021-03-21T05:23:49Z</time>
      </trkpt>
      <trkpt lat="43.16583" lon="2.38946">
        <ele>221</ele>
        <time>2021-03-21T05:23:50Z</time>
      </trkpt>
      <trkpt lat="43.16581" lon="2.38953">
        <ele>221.4</ele>
        <time>2021-03-21T05:23:52Z</time>
      </trkpt>
      <trkpt lat="43.16579" lon="2.38961">
        <ele>221.7</ele>
        <time>2021-03-21T05:23:53Z</time>
      </trkpt>
      <trkpt lat="43.16576" lon="2.3897">
        <ele>222.1</ele>
        <time>2021-03-21T05:23:55Z</time>
      </trkpt>
      <trkpt lat="43.16573" lon="2.38974">
        <ele>222.2</ele>
        <time>2021-03-21T05:23:56Z</time>
      </trkpt>
      <trkpt lat="43.16569" lon="2.3898">
        <ele>222.3</ele>
        <time>2021-03-21T05:23:57Z</time>
      </trkpt>
      <trkpt lat="43.16562" lon="2.38984">
        <ele>222.4</ele>
        <time>2021-03-21T05:23:58Z</time>
      </trkpt>
      <trkpt lat="43.16552" lon="2.3899">
        <ele>222.5</ele>
        <time>2021-03-21T05:24:00Z</time>
      </trkpt>
      <trkpt lat="43.16542" lon="2.38995">
        <ele>222.6</ele>
        <time>2021-03-21T05:24:02Z</time>
      </trkpt>
      <trkpt lat="43.16537" lon="2.38998">
        <ele>222.7</ele>
        <time>2021-03-21T05:24:03Z</time>
      </trkpt>
      <trkpt lat="43.16532" lon="2.39001">
        <ele>222.7</ele>
        <time>2021-03-21T05:24:04Z</time>
      </trkpt>
      <trkpt lat="43.16522" lon="2.39007">
        <ele>222.6</ele>
        <time>2021-03-21T05:24:06Z</time>
      </trkpt>
      <trkpt lat="43.16516" lon="2.39011">
        <ele>222.4</ele>
        <time>2021-03-21T05:24:07Z</time>
      </trkpt>
      <trkpt lat="43.16505" lon="2.39019">
        <ele>221.9</ele>
        <time>2021-03-21T05:24:09Z</time>
      </trkpt>
      <trkpt lat="43.16499" lon="2.39024">
        <ele>221.6</ele>
        <time>2021-03-21T05:24:10Z</time>
      </trkpt>
      <trkpt lat="43.16492" lon="2.3903">
        <ele>221.3</ele>
        <time>2021-03-21T05:24:11Z</time>
      </trkpt>
      <trkpt lat="43.1648" lon="2.39041">
        <ele>220.6</ele>
        <time>2021-03-21T05:24:13Z</time>
      </trkpt>
      <trkpt lat="43.16473" lon="2.39046">
        <ele>220.2</ele>
        <time>2021-03-21T05:24:14Z</time>
      </trkpt>
      <trkpt lat="43.16461" lon="2.39059">
        <ele>219.5</ele>
        <time>2021-03-21T05:24:16Z</time>
      </trkpt>
      <trkpt lat="43.16449" lon="2.39071">
        <ele>218.8</ele>
        <time>2021-03-21T05:24:18Z</time>
      </trkpt>
      <trkpt lat="43.16436" lon="2.39085">
        <ele>218.2</ele>
        <time>2021-03-21T05:24:20Z</time>
      </trkpt>
      <trkpt lat="43.16429" lon="2.39091">
        <ele>218</ele>
        <time>2021-03-21T05:24:21Z</time>
      </trkpt>
      <trkpt lat="43.16416" lon="2.39102">
        <ele>217.7</ele>
        <time>2021-03-21T05:24:23Z</time>
      </trkpt>
      <trkpt lat="43.16409" lon="2.39106">
        <ele>217.6</ele>
        <time>2021-03-21T05:24:24Z</time>
      </trkpt>
      <trkpt lat="43.16401" lon="2.3911">
        <ele>217.6</ele>
        <time>2021-03-21T05:24:25Z</time>
      </trkpt>
      <trkpt lat="43.16394" lon="2.39113">
        <ele>217.6</ele>
        <time>2021-03-21T05:24:26Z</time>
      </trkpt>
      <trkpt lat="43.16379" lon="2.39117">
        <ele>217.6</ele>
        <time>2021-03-21T05:24:28Z</time>
      </trkpt>
      <trkpt lat="43.16364" lon="2.39122">
        <ele>217.7</ele>
        <time>2021-03-21T05:24:30Z</time>
      </trkpt>
      <trkpt lat="43.1635" lon="2.39127">
        <ele>217.7</ele>
        <time>2021-03-21T05:24:32Z</time>
      </trkpt>
      <trkpt lat="43.16334" lon="2.39126">
        <ele>217.7</ele>
        <time>2021-03-21T05:24:34Z</time>
      </trkpt>
      <trkpt lat="43.16326" lon="2.39124">
        <ele>217.7</ele>
        <time>2021-03-21T05:24:35Z</time>
      </trkpt>
      <trkpt lat="43.16319" lon="2.39121">
        <ele>217.8</ele>
        <time>2021-03-21T05:24:36Z</time>
      </trkpt>
      <trkpt lat="43.16306" lon="2.39114">
        <ele>218</ele>
        <time>2021-03-21T05:24:38Z</time>
      </trkpt>
      <trkpt lat="43.163" lon="2.3911">
        <ele>218.2</ele>
        <time>2021-03-21T05:24:39Z</time>
      </trkpt>
      <trkpt lat="43.16287" lon="2.39105">
        <ele>218.6</ele>
        <time>2021-03-21T05:24:41Z</time>
      </trkpt>
      <trkpt lat="43.16281" lon="2.39104">
        <ele>218.9</ele>
        <time>2021-03-21T05:24:42Z</time>
      </trkpt>
      <trkpt lat="43.16269" lon="2.39103">
        <ele>219.6</ele>
        <time>2021-03-21T05:24:44Z</time>
      </trkpt>
      <trkpt lat="43.16264" lon="2.39104">
        <ele>219.9</ele>
        <time>2021-03-21T05:24:45Z</time>
      </trkpt>
      <trkpt lat="43.16253" lon="2.39109">
        <ele>220.7</ele>
        <time>2021-03-21T05:24:47Z</time>
      </trkpt>
      <trkpt lat="43.16243" lon="2.39116">
        <ele>221.5</ele>
        <time>2021-03-21T05:24:49Z</time>
      </trkpt>
      <trkpt lat="43.16235" lon="2.39127">
        <ele>222.3</ele>
        <time>2021-03-21T05:24:51Z</time>
      </trkpt>
      <trkpt lat="43.16231" lon="2.39132">
        <ele>222.8</ele>
        <time>2021-03-21T05:24:52Z</time>
      </trkpt>
      <trkpt lat="43.16224" lon="2.39142">
        <ele>223.6</ele>
        <time>2021-03-21T05:24:54Z</time>
      </trkpt>
      <trkpt lat="43.16218" lon="2.39151">
        <ele>224.3</ele>
        <time>2021-03-21T05:24:56Z</time>
      </trkpt>
      <trkpt lat="43.16214" lon="2.39156">
        <ele>224.7</ele>
        <time>2021-03-21T05:24:57Z</time>
      </trkpt>
      <trkpt lat="43.16211" lon="2.3916">
        <ele>225</ele>
        <time>2021-03-21T05:24:58Z</time>
      </trkpt>
      <trkpt lat="43.16209" lon="2.39163">
        <ele>225.2</ele>
        <time>2021-03-21T05:24:59Z</time>
      </trkpt>
      <trkpt lat="43.16202" lon="2.39171">
        <ele>226</ele>
        <time>2021-03-21T05:25:01Z</time>
      </trkpt>
      <trkpt lat="43.16198" lon="2.39175">
        <ele>226.3</ele>
        <time>2021-03-21T05:25:02Z</time>
      </trkpt>
      <trkpt lat="43.16193" lon="2.39183">
        <ele>226.9</ele>
        <time>2021-03-21T05:25:04Z</time>
      </trkpt>
      <trkpt lat="43.16189" lon="2.39188">
        <ele>227.4</ele>
        <time>2021-03-21T05:25:05Z</time>
      </trkpt>
      <trkpt lat="43.16187" lon="2.39192">
        <ele>227.6</ele>
        <time>2021-03-21T05:25:06Z</time>
      </trkpt>
      <trkpt lat="43.16185" lon="2.39196">
        <ele>227.9</ele>
        <time>2021-03-21T05:25:07Z</time>
      </trkpt>
      <trkpt lat="43.16182" lon="2.39198">
        <ele>228.2</ele>
        <time>2021-03-21T05:25:09Z</time>
      </trkpt>
      <trkpt lat="43.16176" lon="2.392">
        <ele>228.6</ele>
        <time>2021-03-21T05:25:10Z</time>
      </trkpt>
      <trkpt lat="43.16172" lon="2.39201">
        <ele>228.9</ele>
        <time>2021-03-21T05:25:11Z</time>
      </trkpt>
      <trkpt lat="43.16167" lon="2.39202">
        <ele>229.2</ele>
        <time>2021-03-21T05:25:12Z</time>
      </trkpt>
      <trkpt lat="43.16161" lon="2.39202">
        <ele>229.6</ele>
        <time>2021-03-21T05:25:14Z</time>
      </trkpt>
      <trkpt lat="43.16154" lon="2.39201">
        <ele>230</ele>
        <time>2021-03-21T05:25:15Z</time>
      </trkpt>
      <trkpt lat="43.16149" lon="2.39201">
        <ele>230.3</ele>
        <time>2021-03-21T05:25:16Z</time>
      </trkpt>
      <trkpt lat="43.16145" lon="2.39202">
        <ele>230.6</ele>
        <time>2021-03-21T05:25:17Z</time>
      </trkpt>
      <trkpt lat="43.1614" lon="2.39204">
        <ele>231</ele>
        <time>2021-03-21T05:25:18Z</time>
      </trkpt>
      <trkpt lat="43.16135" lon="2.39207">
        <ele>231.4</ele>
        <time>2021-03-21T05:25:19Z</time>
      </trkpt>
      <trkpt lat="43.16131" lon="2.39203">
        <ele>231.7</ele>
        <time>2021-03-21T05:25:21Z</time>
      </trkpt>
      <trkpt lat="43.16127" lon="2.3921">
        <ele>232.2</ele>
        <time>2021-03-21T05:25:22Z</time>
      </trkpt>
      <trkpt lat="43.16123" lon="2.3922">
        <ele>232.8</ele>
        <time>2021-03-21T05:25:23Z</time>
      </trkpt>
      <trkpt lat="43.16121" lon="2.39228">
        <ele>233.2</ele>
        <time>2021-03-21T05:25:25Z</time>
      </trkpt>
      <trkpt lat="43.16118" lon="2.39236">
        <ele>233.7</ele>
        <time>2021-03-21T05:25:26Z</time>
      </trkpt>
      <trkpt lat="43.16116" lon="2.39241">
        <ele>234</ele>
        <time>2021-03-21T05:25:27Z</time>
      </trkpt>
      <trkpt lat="43.16114" lon="2.39246">
        <ele>234.3</ele>
        <time>2021-03-21T05:25:28Z</time>
      </trkpt>
      <trkpt lat="43.16109" lon="2.39255">
        <ele>234.7</ele>
        <time>2021-03-21T05:25:30Z</time>
      </trkpt>
      <trkpt lat="43.16106" lon="2.3926">
        <ele>235</ele>
        <time>2021-03-21T05:25:31Z</time>
      </trkpt>
      <trkpt lat="43.16101" lon="2.39267">
        <ele>235.5</ele>
        <time>2021-03-21T05:25:33Z</time>
      </trkpt>
      <trkpt lat="43.16098" lon="2.39272">
        <ele>235.8</ele>
        <time>2021-03-21T05:25:34Z</time>
      </trkpt>
      <trkpt lat="43.16094" lon="2.39276">
        <ele>236.2</ele>
        <time>2021-03-21T05:25:35Z</time>
      </trkpt>
      <trkpt lat="43.1609" lon="2.3928">
        <ele>236.5</ele>
        <time>2021-03-21T05:25:36Z</time>
      </trkpt>
      <trkpt lat="43.16086" lon="2.39283">
        <ele>236.8</ele>
        <time>2021-03-21T05:25:37Z</time>
      </trkpt>
      <trkpt lat="43.16082" lon="2.39286">
        <ele>237.1</ele>
        <time>2021-03-21T05:25:38Z</time>
      </trkpt>
      <trkpt lat="43.16077" lon="2.39289">
        <ele>237.6</ele>
        <time>2021-03-21T05:25:40Z</time>
      </trkpt>
      <trkpt lat="43.16073" lon="2.39289">
        <ele>237.9</ele>
        <time>2021-03-21T05:25:41Z</time>
      </trkpt>
      <trkpt lat="43.16069" lon="2.39289">
        <ele>238.1</ele>
        <time>2021-03-21T05:25:42Z</time>
      </trkpt>
      <trkpt lat="43.16065" lon="2.39285">
        <ele>238.6</ele>
        <time>2021-03-21T05:25:43Z</time>
      </trkpt>
      <trkpt lat="43.16061" lon="2.3928">
        <ele>239</ele>
        <time>2021-03-21T05:25:45Z</time>
      </trkpt>
      <trkpt lat="43.16058" lon="2.39274">
        <ele>239.4</ele>
        <time>2021-03-21T05:25:46Z</time>
      </trkpt>
      <trkpt lat="43.16056" lon="2.39267">
        <ele>239.7</ele>
        <time>2021-03-21T05:25:47Z</time>
      </trkpt>
      <trkpt lat="43.16055" lon="2.39259">
        <ele>240.1</ele>
        <time>2021-03-21T05:25:48Z</time>
      </trkpt>
      <trkpt lat="43.16054" lon="2.39253">
        <ele>240.4</ele>
        <time>2021-03-21T05:25:50Z</time>
      </trkpt>
      <trkpt lat="43.16052" lon="2.39245">
        <ele>240.7</ele>
        <time>2021-03-21T05:25:51Z</time>
      </trkpt>
      <trkpt lat="43.1605" lon="2.39239">
        <ele>241</ele>
        <time>2021-03-21T05:25:52Z</time>
      </trkpt>
      <trkpt lat="43.16046" lon="2.39231">
        <ele>241.4</ele>
        <time>2021-03-21T05:25:54Z</time>
      </trkpt>
      <trkpt lat="43.16042" lon="2.39225">
        <ele>241.8</ele>
        <time>2021-03-21T05:25:55Z</time>
      </trkpt>
      <trkpt lat="43.16037" lon="2.39222">
        <ele>242.1</ele>
        <time>2021-03-21T05:25:56Z</time>
      </trkpt>
      <trkpt lat="43.1603" lon="2.39217">
        <ele>242.7</ele>
        <time>2021-03-21T05:25:58Z</time>
      </trkpt>
      <trkpt lat="43.16026" lon="2.39215">
        <ele>242.9</ele>
        <time>2021-03-21T05:26:00Z</time>
      </trkpt>
      <trkpt lat="43.16018" lon="2.39215">
        <ele>243.6</ele>
        <time>2021-03-21T05:26:01Z</time>
      </trkpt>
      <trkpt lat="43.16011" lon="2.39215">
        <ele>244.1</ele>
        <time>2021-03-21T05:26:03Z</time>
      </trkpt>
      <trkpt lat="43.1601" lon="2.39216">
        <ele>244.2</ele>
        <time>2021-03-21T05:26:04Z</time>
      </trkpt>
      <trkpt lat="43.16001" lon="2.39221">
        <ele>244.9</ele>
        <time>2021-03-21T05:26:06Z</time>
      </trkpt>
      <trkpt lat="43.15995" lon="2.39226">
        <ele>245.5</ele>
        <time>2021-03-21T05:26:08Z</time>
      </trkpt>
      <trkpt lat="43.15989" lon="2.39231">
        <ele>246</ele>
        <time>2021-03-21T05:26:09Z</time>
      </trkpt>
      <trkpt lat="43.1598" lon="2.39239">
        <ele>246.7</ele>
        <time>2021-03-21T05:26:11Z</time>
      </trkpt>
      <trkpt lat="43.15976" lon="2.39244">
        <ele>247.2</ele>
        <time>2021-03-21T05:26:12Z</time>
      </trkpt>
      <trkpt lat="43.1597" lon="2.3925">
        <ele>247.7</ele>
        <time>2021-03-21T05:26:14Z</time>
      </trkpt>
      <trkpt lat="43.15966" lon="2.39253">
        <ele>248</ele>
        <time>2021-03-21T05:26:15Z</time>
      </trkpt>
      <trkpt lat="43.15962" lon="2.39257">
        <ele>248.3</ele>
        <time>2021-03-21T05:26:16Z</time>
      </trkpt>
      <trkpt lat="43.15956" lon="2.39262">
        <ele>248.9</ele>
        <time>2021-03-21T05:26:18Z</time>
      </trkpt>
      <trkpt lat="43.15951" lon="2.39264">
        <ele>249.2</ele>
        <time>2021-03-21T05:26:19Z</time>
      </trkpt>
      <trkpt lat="43.15947" lon="2.39266">
        <ele>249.6</ele>
        <time>2021-03-21T05:26:21Z</time>
      </trkpt>
      <trkpt lat="43.15942" lon="2.39268">
        <ele>250</ele>
        <time>2021-03-21T05:26:22Z</time>
      </trkpt>
      <trkpt lat="43.15937" lon="2.39269">
        <ele>250.3</ele>
        <time>2021-03-21T05:26:23Z</time>
      </trkpt>
      <trkpt lat="43.15934" lon="2.3927">
        <ele>250.6</ele>
        <time>2021-03-21T05:26:24Z</time>
      </trkpt>
      <trkpt lat="43.1593" lon="2.39272">
        <ele>250.9</ele>
        <time>2021-03-21T05:26:25Z</time>
      </trkpt>
      <trkpt lat="43.15923" lon="2.39275">
        <ele>251.4</ele>
        <time>2021-03-21T05:26:27Z</time>
      </trkpt>
      <trkpt lat="43.15918" lon="2.39279">
        <ele>251.8</ele>
        <time>2021-03-21T05:26:29Z</time>
      </trkpt>
      <trkpt lat="43.15914" lon="2.39283">
        <ele>252.2</ele>
        <time>2021-03-21T05:26:30Z</time>
      </trkpt>
      <trkpt lat="43.1591" lon="2.39288">
        <ele>252.6</ele>
        <time>2021-03-21T05:26:31Z</time>
      </trkpt>
      <trkpt lat="43.15908" lon="2.39294">
        <ele>252.9</ele>
        <time>2021-03-21T05:26:32Z</time>
      </trkpt>
      <trkpt lat="43.15906" lon="2.39302">
        <ele>253.3</ele>
        <time>2021-03-21T05:26:34Z</time>
      </trkpt>
      <trkpt lat="43.15905" lon="2.39309">
        <ele>253.6</ele>
        <time>2021-03-21T05:26:35Z</time>
      </trkpt>
      <trkpt lat="43.15905" lon="2.39316">
        <ele>253.9</ele>
        <time>2021-03-21T05:26:36Z</time>
      </trkpt>
      <trkpt lat="43.15905" lon="2.39321">
        <ele>254.2</ele>
        <time>2021-03-21T05:26:37Z</time>
      </trkpt>
      <trkpt lat="43.15907" lon="2.39328">
        <ele>254.5</ele>
        <time>2021-03-21T05:26:39Z</time>
      </trkpt>
      <trkpt lat="43.15908" lon="2.39335">
        <ele>254.7</ele>
        <time>2021-03-21T05:26:40Z</time>
      </trkpt>
      <trkpt lat="43.15909" lon="2.39341">
        <ele>255</ele>
        <time>2021-03-21T05:26:41Z</time>
      </trkpt>
      <trkpt lat="43.15909" lon="2.39348">
        <ele>255.3</ele>
        <time>2021-03-21T05:26:42Z</time>
      </trkpt>
      <trkpt lat="43.15909" lon="2.39355">
        <ele>255.6</ele>
        <time>2021-03-21T05:26:43Z</time>
      </trkpt>
      <trkpt lat="43.15907" lon="2.39363">
        <ele>255.9</ele>
        <time>2021-03-21T05:26:45Z</time>
      </trkpt>
      <trkpt lat="43.15906" lon="2.3937">
        <ele>256.3</ele>
        <time>2021-03-21T05:26:46Z</time>
      </trkpt>
      <trkpt lat="43.15903" lon="2.3938">
        <ele>256.7</ele>
        <time>2021-03-21T05:26:48Z</time>
      </trkpt>
      <trkpt lat="43.15901" lon="2.39387">
        <ele>257.1</ele>
        <time>2021-03-21T05:26:49Z</time>
      </trkpt>
      <trkpt lat="43.15898" lon="2.39397">
        <ele>257.6</ele>
        <time>2021-03-21T05:26:51Z</time>
      </trkpt>
      <trkpt lat="43.15894" lon="2.39406">
        <ele>258.1</ele>
        <time>2021-03-21T05:26:53Z</time>
      </trkpt>
      <trkpt lat="43.15892" lon="2.39412">
        <ele>258.4</ele>
        <time>2021-03-21T05:26:54Z</time>
      </trkpt>
      <trkpt lat="43.15889" lon="2.39419">
        <ele>258.8</ele>
        <time>2021-03-21T05:26:56Z</time>
      </trkpt>
      <trkpt lat="43.15886" lon="2.39424">
        <ele>259.2</ele>
        <time>2021-03-21T05:26:57Z</time>
      </trkpt>
      <trkpt lat="43.15883" lon="2.39429">
        <ele>259.5</ele>
        <time>2021-03-21T05:26:58Z</time>
      </trkpt>
      <trkpt lat="43.15878" lon="2.39434">
        <ele>259.8</ele>
        <time>2021-03-21T05:27:00Z</time>
      </trkpt>
      <trkpt lat="43.15873" lon="2.3944">
        <ele>260.2</ele>
        <time>2021-03-21T05:27:01Z</time>
      </trkpt>
      <trkpt lat="43.15868" lon="2.39445">
        <ele>260.6</ele>
        <time>2021-03-21T05:27:03Z</time>
      </trkpt>
      <trkpt lat="43.15863" lon="2.39448">
        <ele>260.9</ele>
        <time>2021-03-21T05:27:04Z</time>
      </trkpt>
      <trkpt lat="43.15859" lon="2.39452">
        <ele>261.1</ele>
        <time>2021-03-21T05:27:05Z</time>
      </trkpt>
      <trkpt lat="43.15854" lon="2.39456">
        <ele>261.4</ele>
        <time>2021-03-21T05:27:06Z</time>
      </trkpt>
      <trkpt lat="43.15848" lon="2.39462">
        <ele>261.8</ele>
        <time>2021-03-21T05:27:08Z</time>
      </trkpt>
      <trkpt lat="43.15844" lon="2.39466">
        <ele>262.1</ele>
        <time>2021-03-21T05:27:09Z</time>
      </trkpt>
      <trkpt lat="43.15839" lon="2.3947">
        <ele>262.5</ele>
        <time>2021-03-21T05:27:10Z</time>
      </trkpt>
      <trkpt lat="43.15832" lon="2.39477">
        <ele>263</ele>
        <time>2021-03-21T05:27:12Z</time>
      </trkpt>
      <trkpt lat="43.15828" lon="2.39481">
        <ele>263.3</ele>
        <time>2021-03-21T05:27:13Z</time>
      </trkpt>
      <trkpt lat="43.15823" lon="2.39485">
        <ele>263.8</ele>
        <time>2021-03-21T05:27:15Z</time>
      </trkpt>
      <trkpt lat="43.15818" lon="2.39487">
        <ele>264.1</ele>
        <time>2021-03-21T05:27:16Z</time>
      </trkpt>
      <trkpt lat="43.15814" lon="2.39489">
        <ele>264.4</ele>
        <time>2021-03-21T05:27:17Z</time>
      </trkpt>
      <trkpt lat="43.1581" lon="2.3949">
        <ele>264.7</ele>
        <time>2021-03-21T05:27:18Z</time>
      </trkpt>
      <trkpt lat="43.15806" lon="2.39491">
        <ele>265</ele>
        <time>2021-03-21T05:27:19Z</time>
      </trkpt>
      <trkpt lat="43.15802" lon="2.39491">
        <ele>265.2</ele>
        <time>2021-03-21T05:27:20Z</time>
      </trkpt>
      <trkpt lat="43.15795" lon="2.39491">
        <ele>265.7</ele>
        <time>2021-03-21T05:27:22Z</time>
      </trkpt>
      <trkpt lat="43.15791" lon="2.39491">
        <ele>266</ele>
        <time>2021-03-21T05:27:23Z</time>
      </trkpt>
      <trkpt lat="43.15786" lon="2.39491">
        <ele>266.3</ele>
        <time>2021-03-21T05:27:24Z</time>
      </trkpt>
      <trkpt lat="43.1578" lon="2.39491">
        <ele>266.7</ele>
        <time>2021-03-21T05:27:26Z</time>
      </trkpt>
      <trkpt lat="43.15775" lon="2.39491">
        <ele>267.1</ele>
        <time>2021-03-21T05:27:27Z</time>
      </trkpt>
      <trkpt lat="43.1577" lon="2.39491">
        <ele>267.4</ele>
        <time>2021-03-21T05:27:28Z</time>
      </trkpt>
      <trkpt lat="43.15767" lon="2.39492">
        <ele>267.7</ele>
        <time>2021-03-21T05:27:29Z</time>
      </trkpt>
      <trkpt lat="43.15763" lon="2.39494">
        <ele>267.9</ele>
        <time>2021-03-21T05:27:30Z</time>
      </trkpt>
      <trkpt lat="43.15755" lon="2.39503">
        <ele>268.5</ele>
        <time>2021-03-21T05:27:32Z</time>
      </trkpt>
      <trkpt lat="43.15752" lon="2.39509">
        <ele>268.8</ele>
        <time>2021-03-21T05:27:33Z</time>
      </trkpt>
      <trkpt lat="43.15749" lon="2.39515">
        <ele>269.1</ele>
        <time>2021-03-21T05:27:34Z</time>
      </trkpt>
      <trkpt lat="43.15749" lon="2.39528">
        <ele>269.6</ele>
        <time>2021-03-21T05:27:36Z</time>
      </trkpt>
      <trkpt lat="43.1575" lon="2.39534">
        <ele>269.8</ele>
        <time>2021-03-21T05:27:37Z</time>
      </trkpt>
      <trkpt lat="43.15751" lon="2.3954">
        <ele>270.1</ele>
        <time>2021-03-21T05:27:38Z</time>
      </trkpt>
      <trkpt lat="43.15756" lon="2.39551">
        <ele>270.5</ele>
        <time>2021-03-21T05:27:40Z</time>
      </trkpt>
      <trkpt lat="43.15759" lon="2.39556">
        <ele>270.8</ele>
        <time>2021-03-21T05:27:41Z</time>
      </trkpt>
      <trkpt lat="43.1576" lon="2.39561">
        <ele>271</ele>
        <time>2021-03-21T05:27:42Z</time>
      </trkpt>
      <trkpt lat="43.15762" lon="2.39568">
        <ele>271.3</ele>
        <time>2021-03-21T05:27:44Z</time>
      </trkpt>
      <trkpt lat="43.15765" lon="2.39574">
        <ele>271.6</ele>
        <time>2021-03-21T05:27:45Z</time>
      </trkpt>
      <trkpt lat="43.15768" lon="2.39581">
        <ele>272</ele>
        <time>2021-03-21T05:27:46Z</time>
      </trkpt>
      <trkpt lat="43.1577" lon="2.39588">
        <ele>272.3</ele>
        <time>2021-03-21T05:27:48Z</time>
      </trkpt>
      <trkpt lat="43.15772" lon="2.39596">
        <ele>272.7</ele>
        <time>2021-03-21T05:27:49Z</time>
      </trkpt>
      <trkpt lat="43.15773" lon="2.39604">
        <ele>273</ele>
        <time>2021-03-21T05:27:50Z</time>
      </trkpt>
      <trkpt lat="43.15774" lon="2.3961">
        <ele>273.3</ele>
        <time>2021-03-21T05:27:52Z</time>
      </trkpt>
      <trkpt lat="43.15775" lon="2.39617">
        <ele>273.6</ele>
        <time>2021-03-21T05:27:53Z</time>
      </trkpt>
      <trkpt lat="43.15777" lon="2.39623">
        <ele>273.9</ele>
        <time>2021-03-21T05:27:54Z</time>
      </trkpt>
      <trkpt lat="43.15779" lon="2.39629">
        <ele>274.2</ele>
        <time>2021-03-21T05:27:55Z</time>
      </trkpt>
      <trkpt lat="43.15782" lon="2.39635">
        <ele>274.5</ele>
        <time>2021-03-21T05:27:56Z</time>
      </trkpt>
      <trkpt lat="43.15787" lon="2.39643">
        <ele>275</ele>
        <time>2021-03-21T05:27:58Z</time>
      </trkpt>
      <trkpt lat="43.15789" lon="2.39648">
        <ele>275.3</ele>
        <time>2021-03-21T05:27:59Z</time>
      </trkpt>
      <trkpt lat="43.15792" lon="2.39655">
        <ele>275.6</ele>
        <time>2021-03-21T05:28:00Z</time>
      </trkpt>
      <trkpt lat="43.15794" lon="2.39663">
        <ele>276</ele>
        <time>2021-03-21T05:28:02Z</time>
      </trkpt>
      <trkpt lat="43.15794" lon="2.3967">
        <ele>276.3</ele>
        <time>2021-03-21T05:28:03Z</time>
      </trkpt>
      <trkpt lat="43.15795" lon="2.39676">
        <ele>276.6</ele>
        <time>2021-03-21T05:28:04Z</time>
      </trkpt>
      <trkpt lat="43.15796" lon="2.39685">
        <ele>276.9</ele>
        <time>2021-03-21T05:28:06Z</time>
      </trkpt>
      <trkpt lat="43.15799" lon="2.39693">
        <ele>277.2</ele>
        <time>2021-03-21T05:28:07Z</time>
      </trkpt>
      <trkpt lat="43.15802" lon="2.39701">
        <ele>277.6</ele>
        <time>2021-03-21T05:28:08Z</time>
      </trkpt>
      <trkpt lat="43.15806" lon="2.39702">
        <ele>277.8</ele>
        <time>2021-03-21T05:28:10Z</time>
      </trkpt>
      <trkpt lat="43.15811" lon="2.39705">
        <ele>278.1</ele>
        <time>2021-03-21T05:28:11Z</time>
      </trkpt>
      <trkpt lat="43.15816" lon="2.39709">
        <ele>278.4</ele>
        <time>2021-03-21T05:28:12Z</time>
      </trkpt>
      <trkpt lat="43.15822" lon="2.39714">
        <ele>278.8</ele>
        <time>2021-03-21T05:28:13Z</time>
      </trkpt>
      <trkpt lat="43.15826" lon="2.39718">
        <ele>279</ele>
        <time>2021-03-21T05:28:15Z</time>
      </trkpt>
      <trkpt lat="43.15829" lon="2.39724">
        <ele>279.3</ele>
        <time>2021-03-21T05:28:16Z</time>
      </trkpt>
      <trkpt lat="43.15832" lon="2.39733">
        <ele>279.7</ele>
        <time>2021-03-21T05:28:17Z</time>
      </trkpt>
      <trkpt lat="43.15832" lon="2.39743">
        <ele>280.1</ele>
        <time>2021-03-21T05:28:19Z</time>
      </trkpt>
      <trkpt lat="43.15831" lon="2.39749">
        <ele>280.4</ele>
        <time>2021-03-21T05:28:20Z</time>
      </trkpt>
      <trkpt lat="43.1583" lon="2.39755">
        <ele>280.6</ele>
        <time>2021-03-21T05:28:21Z</time>
      </trkpt>
      <trkpt lat="43.15828" lon="2.3976">
        <ele>280.9</ele>
        <time>2021-03-21T05:28:22Z</time>
      </trkpt>
      <trkpt lat="43.15824" lon="2.39766">
        <ele>281.2</ele>
        <time>2021-03-21T05:28:24Z</time>
      </trkpt>
      <trkpt lat="43.15821" lon="2.39771">
        <ele>281.6</ele>
        <time>2021-03-21T05:28:25Z</time>
      </trkpt>
      <trkpt lat="43.15819" lon="2.39775">
        <ele>281.8</ele>
        <time>2021-03-21T05:28:26Z</time>
      </trkpt>
      <trkpt lat="43.15817" lon="2.3978">
        <ele>282.1</ele>
        <time>2021-03-21T05:28:28Z</time>
      </trkpt>
      <trkpt lat="43.15815" lon="2.39784">
        <ele>282.4</ele>
        <time>2021-03-21T05:28:29Z</time>
      </trkpt>
      <trkpt lat="43.15812" lon="2.39787">
        <ele>282.7</ele>
        <time>2021-03-21T05:28:30Z</time>
      </trkpt>
      <trkpt lat="43.15809" lon="2.3979">
        <ele>282.9</ele>
        <time>2021-03-21T05:28:31Z</time>
      </trkpt>
      <trkpt lat="43.15809" lon="2.39799">
        <ele>283.4</ele>
        <time>2021-03-21T05:28:33Z</time>
      </trkpt>
      <trkpt lat="43.15809" lon="2.39807">
        <ele>283.8</ele>
        <time>2021-03-21T05:28:34Z</time>
      </trkpt>
      <trkpt lat="43.15808" lon="2.39814">
        <ele>284.2</ele>
        <time>2021-03-21T05:28:35Z</time>
      </trkpt>
      <trkpt lat="43.15808" lon="2.39818">
        <ele>284.4</ele>
        <time>2021-03-21T05:28:36Z</time>
      </trkpt>
      <trkpt lat="43.15806" lon="2.39827">
        <ele>284.9</ele>
        <time>2021-03-21T05:28:38Z</time>
      </trkpt>
      <trkpt lat="43.15804" lon="2.39831">
        <ele>285.2</ele>
        <time>2021-03-21T05:28:39Z</time>
      </trkpt>
      <trkpt lat="43.15801" lon="2.39836">
        <ele>285.5</ele>
        <time>2021-03-21T05:28:40Z</time>
      </trkpt>
      <trkpt lat="43.15796" lon="2.3984">
        <ele>285.9</ele>
        <time>2021-03-21T05:28:41Z</time>
      </trkpt>
      <trkpt lat="43.15789" lon="2.39842">
        <ele>286.4</ele>
        <time>2021-03-21T05:28:43Z</time>
      </trkpt>
      <trkpt lat="43.15782" lon="2.39843">
        <ele>286.8</ele>
        <time>2021-03-21T05:28:45Z</time>
      </trkpt>
      <trkpt lat="43.15778" lon="2.39841">
        <ele>287.1</ele>
        <time>2021-03-21T05:28:46Z</time>
      </trkpt>
      <trkpt lat="43.15773" lon="2.3984">
        <ele>287.5</ele>
        <time>2021-03-21T05:28:47Z</time>
      </trkpt>
      <trkpt lat="43.15768" lon="2.39838">
        <ele>287.8</ele>
        <time>2021-03-21T05:28:48Z</time>
      </trkpt>
      <trkpt lat="43.15764" lon="2.39835">
        <ele>288.1</ele>
        <time>2021-03-21T05:28:49Z</time>
      </trkpt>
      <trkpt lat="43.15758" lon="2.39832">
        <ele>288.5</ele>
        <time>2021-03-21T05:28:51Z</time>
      </trkpt>
      <trkpt lat="43.15754" lon="2.3983">
        <ele>288.8</ele>
        <time>2021-03-21T05:28:52Z</time>
      </trkpt>
      <trkpt lat="43.15748" lon="2.39827">
        <ele>289.2</ele>
        <time>2021-03-21T05:28:54Z</time>
      </trkpt>
      <trkpt lat="43.15743" lon="2.39824">
        <ele>289.5</ele>
        <time>2021-03-21T05:28:55Z</time>
      </trkpt>
      <trkpt lat="43.15736" lon="2.3982">
        <ele>290</ele>
        <time>2021-03-21T05:28:57Z</time>
      </trkpt>
      <trkpt lat="43.15731" lon="2.39817">
        <ele>290.3</ele>
        <time>2021-03-21T05:28:58Z</time>
      </trkpt>
      <trkpt lat="43.15727" lon="2.39816">
        <ele>290.5</ele>
        <time>2021-03-21T05:28:59Z</time>
      </trkpt>
      <trkpt lat="43.15724" lon="2.39816">
        <ele>290.7</ele>
        <time>2021-03-21T05:29:00Z</time>
      </trkpt>
      <trkpt lat="43.15719" lon="2.39816">
        <ele>291.1</ele>
        <time>2021-03-21T05:29:01Z</time>
      </trkpt>
      <trkpt lat="43.15714" lon="2.39817">
        <ele>291.3</ele>
        <time>2021-03-21T05:29:02Z</time>
      </trkpt>
      <trkpt lat="43.1571" lon="2.39818">
        <ele>291.6</ele>
        <time>2021-03-21T05:29:04Z</time>
      </trkpt>
      <trkpt lat="43.15705" lon="2.39821">
        <ele>291.9</ele>
        <time>2021-03-21T05:29:05Z</time>
      </trkpt>
      <trkpt lat="43.15701" lon="2.39825">
        <ele>292.2</ele>
        <time>2021-03-21T05:29:06Z</time>
      </trkpt>
      <trkpt lat="43.15696" lon="2.39831">
        <ele>292.6</ele>
        <time>2021-03-21T05:29:07Z</time>
      </trkpt>
      <trkpt lat="43.1569" lon="2.39834">
        <ele>293</ele>
        <time>2021-03-21T05:29:09Z</time>
      </trkpt>
      <trkpt lat="43.15685" lon="2.39838">
        <ele>293.3</ele>
        <time>2021-03-21T05:29:10Z</time>
      </trkpt>
      <trkpt lat="43.15681" lon="2.39839">
        <ele>293.6</ele>
        <time>2021-03-21T05:29:11Z</time>
      </trkpt>
      <trkpt lat="43.15678" lon="2.39842">
        <ele>293.8</ele>
        <time>2021-03-21T05:29:12Z</time>
      </trkpt>
      <trkpt lat="43.15673" lon="2.39847">
        <ele>294.1</ele>
        <time>2021-03-21T05:29:13Z</time>
      </trkpt>
      <trkpt lat="43.15667" lon="2.3985">
        <ele>294.3</ele>
        <time>2021-03-21T05:29:15Z</time>
      </trkpt>
      <trkpt lat="43.15663" lon="2.39852">
        <ele>294.5</ele>
        <time>2021-03-21T05:29:16Z</time>
      </trkpt>
      <trkpt lat="43.15655" lon="2.39854">
        <ele>294.7</ele>
        <time>2021-03-21T05:29:18Z</time>
      </trkpt>
      <trkpt lat="43.15645" lon="2.39852">
        <ele>295</ele>
        <time>2021-03-21T05:29:20Z</time>
      </trkpt>
      <trkpt lat="43.1564" lon="2.39851">
        <ele>295.1</ele>
        <time>2021-03-21T05:29:21Z</time>
      </trkpt>
      <trkpt lat="43.1563" lon="2.39851">
        <ele>295.3</ele>
        <time>2021-03-21T05:29:23Z</time>
      </trkpt>
      <trkpt lat="43.15624" lon="2.39851">
        <ele>295.4</ele>
        <time>2021-03-21T05:29:24Z</time>
      </trkpt>
      <trkpt lat="43.15614" lon="2.39854">
        <ele>295.4</ele>
        <time>2021-03-21T05:29:26Z</time>
      </trkpt>
      <trkpt lat="43.15605" lon="2.39861">
        <ele>295.5</ele>
        <time>2021-03-21T05:29:28Z</time>
      </trkpt>
      <trkpt lat="43.156" lon="2.39866">
        <ele>295.6</ele>
        <time>2021-03-21T05:29:29Z</time>
      </trkpt>
      <trkpt lat="43.15595" lon="2.39871">
        <ele>295.6</ele>
        <time>2021-03-21T05:29:30Z</time>
      </trkpt>
      <trkpt lat="43.15587" lon="2.39883">
        <ele>295.7</ele>
        <time>2021-03-21T05:29:32Z</time>
      </trkpt>
      <trkpt lat="43.15583" lon="2.39889">
        <ele>295.7</ele>
        <time>2021-03-21T05:29:33Z</time>
      </trkpt>
      <trkpt lat="43.15579" lon="2.39896">
        <ele>295.8</ele>
        <time>2021-03-21T05:29:34Z</time>
      </trkpt>
      <trkpt lat="43.15572" lon="2.39908">
        <ele>295.8</ele>
        <time>2021-03-21T05:29:36Z</time>
      </trkpt>
      <trkpt lat="43.15566" lon="2.39921">
        <ele>295.9</ele>
        <time>2021-03-21T05:29:38Z</time>
      </trkpt>
      <trkpt lat="43.15559" lon="2.39933">
        <ele>295.9</ele>
        <time>2021-03-21T05:29:40Z</time>
      </trkpt>
      <trkpt lat="43.15552" lon="2.39946">
        <ele>296</ele>
        <time>2021-03-21T05:29:42Z</time>
      </trkpt>
      <trkpt lat="43.15549" lon="2.39952">
        <ele>296.1</ele>
        <time>2021-03-21T05:29:43Z</time>
      </trkpt>
      <trkpt lat="43.15544" lon="2.39965">
        <ele>296.2</ele>
        <time>2021-03-21T05:29:45Z</time>
      </trkpt>
      <trkpt lat="43.15542" lon="2.39972">
        <ele>296.3</ele>
        <time>2021-03-21T05:29:46Z</time>
      </trkpt>
      <trkpt lat="43.15539" lon="2.39987">
        <ele>296.5</ele>
        <time>2021-03-21T05:29:48Z</time>
      </trkpt>
      <trkpt lat="43.15538" lon="2.40001">
        <ele>296.8</ele>
        <time>2021-03-21T05:29:50Z</time>
      </trkpt>
      <trkpt lat="43.15537" lon="2.40015">
        <ele>297.2</ele>
        <time>2021-03-21T05:29:52Z</time>
      </trkpt>
      <trkpt lat="43.15537" lon="2.40028">
        <ele>297.6</ele>
        <time>2021-03-21T05:29:54Z</time>
      </trkpt>
      <trkpt lat="43.15537" lon="2.40041">
        <ele>298</ele>
        <time>2021-03-21T05:29:56Z</time>
      </trkpt>
      <trkpt lat="43.15537" lon="2.40047">
        <ele>298.3</ele>
        <time>2021-03-21T05:29:57Z</time>
      </trkpt>
      <trkpt lat="43.15537" lon="2.4006">
        <ele>298.8</ele>
        <time>2021-03-21T05:29:59Z</time>
      </trkpt>
      <trkpt lat="43.15536" lon="2.40067">
        <ele>299</ele>
        <time>2021-03-21T05:30:00Z</time>
      </trkpt>
      <trkpt lat="43.15536" lon="2.40074">
        <ele>299.3</ele>
        <time>2021-03-21T05:30:01Z</time>
      </trkpt>
      <trkpt lat="43.15535" lon="2.40087">
        <ele>299.9</ele>
        <time>2021-03-21T05:30:03Z</time>
      </trkpt>
      <trkpt lat="43.15535" lon="2.40094">
        <ele>300.2</ele>
        <time>2021-03-21T05:30:04Z</time>
      </trkpt>
      <trkpt lat="43.15535" lon="2.401">
        <ele>300.5</ele>
        <time>2021-03-21T05:30:05Z</time>
      </trkpt>
      <trkpt lat="43.15534" lon="2.40114">
        <ele>301.1</ele>
        <time>2021-03-21T05:30:07Z</time>
      </trkpt>
      <trkpt lat="43.15534" lon="2.4012">
        <ele>301.4</ele>
        <time>2021-03-21T05:30:08Z</time>
      </trkpt>
      <trkpt lat="43.15534" lon="2.40127">
        <ele>301.7</ele>
        <time>2021-03-21T05:30:09Z</time>
      </trkpt>
      <trkpt lat="43.15534" lon="2.40141">
        <ele>302.2</ele>
        <time>2021-03-21T05:30:11Z</time>
      </trkpt>
      <trkpt lat="43.15535" lon="2.40148">
        <ele>302.5</ele>
        <time>2021-03-21T05:30:12Z</time>
      </trkpt>
      <trkpt lat="43.15536" lon="2.40154">
        <ele>302.7</ele>
        <time>2021-03-21T05:30:13Z</time>
      </trkpt>
      <trkpt lat="43.1554" lon="2.40167">
        <ele>303.2</ele>
        <time>2021-03-21T05:30:15Z</time>
      </trkpt>
      <trkpt lat="43.15545" lon="2.40178">
        <ele>303.7</ele>
        <time>2021-03-21T05:30:17Z</time>
      </trkpt>
      <trkpt lat="43.15547" lon="2.40183">
        <ele>303.9</ele>
        <time>2021-03-21T05:30:18Z</time>
      </trkpt>
      <trkpt lat="43.15552" lon="2.40192">
        <ele>304.2</ele>
        <time>2021-03-21T05:30:20Z</time>
      </trkpt>
      <trkpt lat="43.15555" lon="2.40197">
        <ele>304.3</ele>
        <time>2021-03-21T05:30:21Z</time>
      </trkpt>
      <trkpt lat="43.1556" lon="2.40204">
        <ele>304.6</ele>
        <time>2021-03-21T05:30:23Z</time>
      </trkpt>
      <trkpt lat="43.15562" lon="2.40208">
        <ele>304.8</ele>
        <time>2021-03-21T05:30:24Z</time>
      </trkpt>
      <trkpt lat="43.15569" lon="2.4022">
        <ele>305.2</ele>
        <time>2021-03-21T05:30:26Z</time>
      </trkpt>
      <trkpt lat="43.1557" lon="2.40226">
        <ele>305.4</ele>
        <time>2021-03-21T05:30:27Z</time>
      </trkpt>
      <trkpt lat="43.15567" lon="2.4024">
        <ele>305.6</ele>
        <time>2021-03-21T05:30:29Z</time>
      </trkpt>
      <trkpt lat="43.15564" lon="2.40246">
        <ele>305.6</ele>
        <time>2021-03-21T05:30:30Z</time>
      </trkpt>
      <trkpt lat="43.15555" lon="2.40254">
        <ele>305.7</ele>
        <time>2021-03-21T05:30:32Z</time>
      </trkpt>
      <trkpt lat="43.15544" lon="2.40254">
        <ele>305.8</ele>
        <time>2021-03-21T05:30:34Z</time>
      </trkpt>
      <trkpt lat="43.15534" lon="2.4025">
        <ele>305.9</ele>
        <time>2021-03-21T05:30:36Z</time>
      </trkpt>
      <trkpt lat="43.15525" lon="2.40245">
        <ele>306</ele>
        <time>2021-03-21T05:30:38Z</time>
      </trkpt>
      <trkpt lat="43.15515" lon="2.4024">
        <ele>306</ele>
        <time>2021-03-21T05:30:40Z</time>
      </trkpt>
      <trkpt lat="43.15505" lon="2.40237">
        <ele>306.1</ele>
        <time>2021-03-21T05:30:42Z</time>
      </trkpt>
      <trkpt lat="43.15495" lon="2.40233">
        <ele>306.1</ele>
        <time>2021-03-21T05:30:44Z</time>
      </trkpt>
      <trkpt lat="43.1549" lon="2.40232">
        <ele>306.2</ele>
        <time>2021-03-21T05:30:45Z</time>
      </trkpt>
      <trkpt lat="43.1548" lon="2.40229">
        <ele>306.3</ele>
        <time>2021-03-21T05:30:47Z</time>
      </trkpt>
      <trkpt lat="43.1547" lon="2.40226">
        <ele>306.4</ele>
        <time>2021-03-21T05:30:49Z</time>
      </trkpt>
      <trkpt lat="43.1546" lon="2.40222">
        <ele>306.5</ele>
        <time>2021-03-21T05:30:51Z</time>
      </trkpt>
      <trkpt lat="43.15456" lon="2.40221">
        <ele>306.6</ele>
        <time>2021-03-21T05:30:52Z</time>
      </trkpt>
      <trkpt lat="43.15446" lon="2.40218">
        <ele>306.7</ele>
        <time>2021-03-21T05:30:54Z</time>
      </trkpt>
      <trkpt lat="43.15435" lon="2.40214">
        <ele>306.8</ele>
        <time>2021-03-21T05:30:56Z</time>
      </trkpt>
      <trkpt lat="43.1543" lon="2.40212">
        <ele>306.8</ele>
        <time>2021-03-21T05:30:57Z</time>
      </trkpt>
      <trkpt lat="43.15425" lon="2.40211">
        <ele>306.9</ele>
        <time>2021-03-21T05:30:58Z</time>
      </trkpt>
      <trkpt lat="43.15415" lon="2.40208">
        <ele>307.1</ele>
        <time>2021-03-21T05:31:00Z</time>
      </trkpt>
      <trkpt lat="43.15405" lon="2.40205">
        <ele>307.2</ele>
        <time>2021-03-21T05:31:02Z</time>
      </trkpt>
      <trkpt lat="43.154" lon="2.40203">
        <ele>307.3</ele>
        <time>2021-03-21T05:31:03Z</time>
      </trkpt>
      <trkpt lat="43.15395" lon="2.40201">
        <ele>307.3</ele>
        <time>2021-03-21T05:31:04Z</time>
      </trkpt>
      <trkpt lat="43.15391" lon="2.40198">
        <ele>307.4</ele>
        <time>2021-03-21T05:31:05Z</time>
      </trkpt>
      <trkpt lat="43.15382" lon="2.40192">
        <ele>307.4</ele>
        <time>2021-03-21T05:31:07Z</time>
      </trkpt>
      <trkpt lat="43.15377" lon="2.40189">
        <ele>307.5</ele>
        <time>2021-03-21T05:31:08Z</time>
      </trkpt>
      <trkpt lat="43.15372" lon="2.40185">
        <ele>307.5</ele>
        <time>2021-03-21T05:31:09Z</time>
      </trkpt>
      <trkpt lat="43.15362" lon="2.4018">
        <ele>307.6</ele>
        <time>2021-03-21T05:31:11Z</time>
      </trkpt>
      <trkpt lat="43.15357" lon="2.40179">
        <ele>307.7</ele>
        <time>2021-03-21T05:31:12Z</time>
      </trkpt>
      <trkpt lat="43.15351" lon="2.40179">
        <ele>307.7</ele>
        <time>2021-03-21T05:31:13Z</time>
      </trkpt>
      <trkpt lat="43.1534" lon="2.40182">
        <ele>307.8</ele>
        <time>2021-03-21T05:31:15Z</time>
      </trkpt>
      <trkpt lat="43.15329" lon="2.40189">
        <ele>307.9</ele>
        <time>2021-03-21T05:31:17Z</time>
      </trkpt>
      <trkpt lat="43.15319" lon="2.40196">
        <ele>308.1</ele>
        <time>2021-03-21T05:31:19Z</time>
      </trkpt>
      <trkpt lat="43.15309" lon="2.402">
        <ele>308.2</ele>
        <time>2021-03-21T05:31:21Z</time>
      </trkpt>
      <trkpt lat="43.15298" lon="2.40199">
        <ele>308.4</ele>
        <time>2021-03-21T05:31:23Z</time>
      </trkpt>
      <trkpt lat="43.15286" lon="2.40194">
        <ele>308.5</ele>
        <time>2021-03-21T05:31:25Z</time>
      </trkpt>
      <trkpt lat="43.15276" lon="2.40186">
        <ele>308.7</ele>
        <time>2021-03-21T05:31:27Z</time>
      </trkpt>
      <trkpt lat="43.15272" lon="2.40181">
        <ele>308.8</ele>
        <time>2021-03-21T05:31:28Z</time>
      </trkpt>
      <trkpt lat="43.15267" lon="2.40167">
        <ele>309.1</ele>
        <time>2021-03-21T05:31:30Z</time>
      </trkpt>
      <trkpt lat="43.15264" lon="2.40161">
        <ele>309.2</ele>
        <time>2021-03-21T05:31:31Z</time>
      </trkpt>
      <trkpt lat="43.15262" lon="2.40153">
        <ele>309.3</ele>
        <time>2021-03-21T05:31:32Z</time>
      </trkpt>
      <trkpt lat="43.15259" lon="2.40138">
        <ele>309.5</ele>
        <time>2021-03-21T05:31:34Z</time>
      </trkpt>
      <trkpt lat="43.15256" lon="2.40122">
        <ele>309.8</ele>
        <time>2021-03-21T05:31:36Z</time>
      </trkpt>
      <trkpt lat="43.15255" lon="2.40114">
        <ele>309.9</ele>
        <time>2021-03-21T05:31:37Z</time>
      </trkpt>
      <trkpt lat="43.15253" lon="2.40098">
        <ele>310.1</ele>
        <time>2021-03-21T05:31:39Z</time>
      </trkpt>
      <trkpt lat="43.15249" lon="2.40082">
        <ele>310.4</ele>
        <time>2021-03-21T05:31:41Z</time>
      </trkpt>
      <trkpt lat="43.15247" lon="2.40067">
        <ele>310.6</ele>
        <time>2021-03-21T05:31:43Z</time>
      </trkpt>
      <trkpt lat="43.15245" lon="2.40059">
        <ele>310.8</ele>
        <time>2021-03-21T05:31:44Z</time>
      </trkpt>
      <trkpt lat="43.15243" lon="2.40044">
        <ele>311</ele>
        <time>2021-03-21T05:31:46Z</time>
      </trkpt>
      <trkpt lat="43.15241" lon="2.40036">
        <ele>311.1</ele>
        <time>2021-03-21T05:31:47Z</time>
      </trkpt>
      <trkpt lat="43.15238" lon="2.4002">
        <ele>311.3</ele>
        <time>2021-03-21T05:31:49Z</time>
      </trkpt>
      <trkpt lat="43.15234" lon="2.40005">
        <ele>311.6</ele>
        <time>2021-03-21T05:31:51Z</time>
      </trkpt>
      <trkpt lat="43.1523" lon="2.39989">
        <ele>311.8</ele>
        <time>2021-03-21T05:31:53Z</time>
      </trkpt>
      <trkpt lat="43.15225" lon="2.39973">
        <ele>312.1</ele>
        <time>2021-03-21T05:31:55Z</time>
      </trkpt>
      <trkpt lat="43.15222" lon="2.39966">
        <ele>312.2</ele>
        <time>2021-03-21T05:31:56Z</time>
      </trkpt>
      <trkpt lat="43.15215" lon="2.39953">
        <ele>312.5</ele>
        <time>2021-03-21T05:31:58Z</time>
      </trkpt>
      <trkpt lat="43.15211" lon="2.39947">
        <ele>312.6</ele>
        <time>2021-03-21T05:31:59Z</time>
      </trkpt>
      <trkpt lat="43.15199" lon="2.3994">
        <ele>312.8</ele>
        <time>2021-03-21T05:32:01Z</time>
      </trkpt>
      <trkpt lat="43.15193" lon="2.39939">
        <ele>312.9</ele>
        <time>2021-03-21T05:32:02Z</time>
      </trkpt>
      <trkpt lat="43.1518" lon="2.39944">
        <ele>313.1</ele>
        <time>2021-03-21T05:32:04Z</time>
      </trkpt>
      <trkpt lat="43.15174" lon="2.39949">
        <ele>313.3</ele>
        <time>2021-03-21T05:32:05Z</time>
      </trkpt>
      <trkpt lat="43.15164" lon="2.3996">
        <ele>313.6</ele>
        <time>2021-03-21T05:32:07Z</time>
      </trkpt>
      <trkpt lat="43.1516" lon="2.39967">
        <ele>313.7</ele>
        <time>2021-03-21T05:32:08Z</time>
      </trkpt>
      <trkpt lat="43.15153" lon="2.39981">
        <ele>313.9</ele>
        <time>2021-03-21T05:32:10Z</time>
      </trkpt>
      <trkpt lat="43.15146" lon="2.39996">
        <ele>314</ele>
        <time>2021-03-21T05:32:12Z</time>
      </trkpt>
      <trkpt lat="43.15143" lon="2.40004">
        <ele>314.1</ele>
        <time>2021-03-21T05:32:13Z</time>
      </trkpt>
      <trkpt lat="43.15137" lon="2.40018">
        <ele>314.2</ele>
        <time>2021-03-21T05:32:15Z</time>
      </trkpt>
      <trkpt lat="43.15131" lon="2.40032">
        <ele>314.2</ele>
        <time>2021-03-21T05:32:17Z</time>
      </trkpt>
      <trkpt lat="43.15124" lon="2.40046">
        <ele>314.2</ele>
        <time>2021-03-21T05:32:19Z</time>
      </trkpt>
      <trkpt lat="43.1512" lon="2.40053">
        <ele>314.2</ele>
        <time>2021-03-21T05:32:20Z</time>
      </trkpt>
      <trkpt lat="43.15113" lon="2.40067">
        <ele>314.1</ele>
        <time>2021-03-21T05:32:22Z</time>
      </trkpt>
      <trkpt lat="43.15108" lon="2.40085">
        <ele>314</ele>
        <time>2021-03-21T05:32:24Z</time>
      </trkpt>
      <trkpt lat="43.15106" lon="2.40094">
        <ele>314.1</ele>
        <time>2021-03-21T05:32:25Z</time>
      </trkpt>
      <trkpt lat="43.15106" lon="2.40113">
        <ele>314.2</ele>
        <time>2021-03-21T05:32:27Z</time>
      </trkpt>
      <trkpt lat="43.15111" lon="2.4013">
        <ele>314.4</ele>
        <time>2021-03-21T05:32:29Z</time>
      </trkpt>
      <trkpt lat="43.15113" lon="2.40139">
        <ele>314.5</ele>
        <time>2021-03-21T05:32:30Z</time>
      </trkpt>
      <trkpt lat="43.15118" lon="2.40156">
        <ele>314.8</ele>
        <time>2021-03-21T05:32:32Z</time>
      </trkpt>
      <trkpt lat="43.15119" lon="2.40164">
        <ele>314.9</ele>
        <time>2021-03-21T05:32:33Z</time>
      </trkpt>
      <trkpt lat="43.15117" lon="2.40181">
        <ele>315.1</ele>
        <time>2021-03-21T05:32:35Z</time>
      </trkpt>
      <trkpt lat="43.15112" lon="2.40195">
        <ele>315.2</ele>
        <time>2021-03-21T05:32:37Z</time>
      </trkpt>
      <trkpt lat="43.15107" lon="2.40201">
        <ele>315.3</ele>
        <time>2021-03-21T05:32:38Z</time>
      </trkpt>
      <trkpt lat="43.15094" lon="2.40208">
        <ele>315.3</ele>
        <time>2021-03-21T05:32:40Z</time>
      </trkpt>
      <trkpt lat="43.15081" lon="2.40216">
        <ele>315.4</ele>
        <time>2021-03-21T05:32:42Z</time>
      </trkpt>
      <trkpt lat="43.15073" lon="2.40231">
        <ele>315.7</ele>
        <time>2021-03-21T05:32:44Z</time>
      </trkpt>
      <trkpt lat="43.15068" lon="2.40249">
        <ele>316</ele>
        <time>2021-03-21T05:32:46Z</time>
      </trkpt>
      <trkpt lat="43.15066" lon="2.40257">
        <ele>316.1</ele>
        <time>2021-03-21T05:32:47Z</time>
      </trkpt>
      <trkpt lat="43.15063" lon="2.40273">
        <ele>316.4</ele>
        <time>2021-03-21T05:32:49Z</time>
      </trkpt>
      <trkpt lat="43.15062" lon="2.40281">
        <ele>316.5</ele>
        <time>2021-03-21T05:32:50Z</time>
      </trkpt>
      <trkpt lat="43.15058" lon="2.40297">
        <ele>316.8</ele>
        <time>2021-03-21T05:32:52Z</time>
      </trkpt>
      <trkpt lat="43.15054" lon="2.40312">
        <ele>317.1</ele>
        <time>2021-03-21T05:32:54Z</time>
      </trkpt>
      <trkpt lat="43.1505" lon="2.40328">
        <ele>317.4</ele>
        <time>2021-03-21T05:32:56Z</time>
      </trkpt>
      <trkpt lat="43.15049" lon="2.40336">
        <ele>317.6</ele>
        <time>2021-03-21T05:32:57Z</time>
      </trkpt>
      <trkpt lat="43.15045" lon="2.40352">
        <ele>317.9</ele>
        <time>2021-03-21T05:32:59Z</time>
      </trkpt>
      <trkpt lat="43.15043" lon="2.40359">
        <ele>318.1</ele>
        <time>2021-03-21T05:33:00Z</time>
      </trkpt>
      <trkpt lat="43.15041" lon="2.40367">
        <ele>318.3</ele>
        <time>2021-03-21T05:33:01Z</time>
      </trkpt>
      <trkpt lat="43.15036" lon="2.40382">
        <ele>318.6</ele>
        <time>2021-03-21T05:33:03Z</time>
      </trkpt>
      <trkpt lat="43.1503" lon="2.40396">
        <ele>318.9</ele>
        <time>2021-03-21T05:33:05Z</time>
      </trkpt>
      <trkpt lat="43.15025" lon="2.40401">
        <ele>319</ele>
        <time>2021-03-21T05:33:06Z</time>
      </trkpt>
      <trkpt lat="43.15014" lon="2.40409">
        <ele>319.4</ele>
        <time>2021-03-21T05:33:08Z</time>
      </trkpt>
      <trkpt lat="43.15003" lon="2.40414">
        <ele>319.7</ele>
        <time>2021-03-21T05:33:10Z</time>
      </trkpt>
      <trkpt lat="43.14997" lon="2.40416">
        <ele>319.9</ele>
        <time>2021-03-21T05:33:11Z</time>
      </trkpt>
      <trkpt lat="43.14985" lon="2.4042">
        <ele>320.2</ele>
        <time>2021-03-21T05:33:13Z</time>
      </trkpt>
      <trkpt lat="43.14979" lon="2.40421">
        <ele>320.4</ele>
        <time>2021-03-21T05:33:14Z</time>
      </trkpt>
      <trkpt lat="43.14969" lon="2.40426">
        <ele>320.7</ele>
        <time>2021-03-21T05:33:16Z</time>
      </trkpt>
      <trkpt lat="43.14958" lon="2.40432">
        <ele>321.1</ele>
        <time>2021-03-21T05:33:18Z</time>
      </trkpt>
      <trkpt lat="43.14948" lon="2.40438">
        <ele>321.5</ele>
        <time>2021-03-21T05:33:20Z</time>
      </trkpt>
      <trkpt lat="43.14939" lon="2.40447">
        <ele>321.8</ele>
        <time>2021-03-21T05:33:22Z</time>
      </trkpt>
      <trkpt lat="43.14932" lon="2.40459">
        <ele>322.2</ele>
        <time>2021-03-21T05:33:24Z</time>
      </trkpt>
      <trkpt lat="43.14927" lon="2.40474">
        <ele>322.5</ele>
        <time>2021-03-21T05:33:26Z</time>
      </trkpt>
      <trkpt lat="43.14928" lon="2.40482">
        <ele>322.6</ele>
        <time>2021-03-21T05:33:27Z</time>
      </trkpt>
      <trkpt lat="43.14934" lon="2.40498">
        <ele>323</ele>
        <time>2021-03-21T05:33:29Z</time>
      </trkpt>
      <trkpt lat="43.14946" lon="2.40508">
        <ele>323.4</ele>
        <time>2021-03-21T05:33:31Z</time>
      </trkpt>
      <trkpt lat="43.14952" lon="2.40512">
        <ele>323.6</ele>
        <time>2021-03-21T05:33:32Z</time>
      </trkpt>
      <trkpt lat="43.14964" lon="2.40519">
        <ele>323.9</ele>
        <time>2021-03-21T05:33:34Z</time>
      </trkpt>
      <trkpt lat="43.1497" lon="2.40522">
        <ele>324</ele>
        <time>2021-03-21T05:33:35Z</time>
      </trkpt>
      <trkpt lat="43.1498" lon="2.4053">
        <ele>324.4</ele>
        <time>2021-03-21T05:33:37Z</time>
      </trkpt>
      <trkpt lat="43.1499" lon="2.40537">
        <ele>324.7</ele>
        <time>2021-03-21T05:33:39Z</time>
      </trkpt>
      <trkpt lat="43.14996" lon="2.40541">
        <ele>324.9</ele>
        <time>2021-03-21T05:33:40Z</time>
      </trkpt>
      <trkpt lat="43.15006" lon="2.40549">
        <ele>325.2</ele>
        <time>2021-03-21T05:33:42Z</time>
      </trkpt>
      <trkpt lat="43.15015" lon="2.40557">
        <ele>325.5</ele>
        <time>2021-03-21T05:33:44Z</time>
      </trkpt>
      <trkpt lat="43.15019" lon="2.40562">
        <ele>325.6</ele>
        <time>2021-03-21T05:33:45Z</time>
      </trkpt>
      <trkpt lat="43.15024" lon="2.40567">
        <ele>325.8</ele>
        <time>2021-03-21T05:33:46Z</time>
      </trkpt>
      <trkpt lat="43.15031" lon="2.40579">
        <ele>326.2</ele>
        <time>2021-03-21T05:33:48Z</time>
      </trkpt>
      <trkpt lat="43.15034" lon="2.40585">
        <ele>326.4</ele>
        <time>2021-03-21T05:33:49Z</time>
      </trkpt>
      <trkpt lat="43.1504" lon="2.40599">
        <ele>326.9</ele>
        <time>2021-03-21T05:33:51Z</time>
      </trkpt>
      <trkpt lat="43.15043" lon="2.40606">
        <ele>327.1</ele>
        <time>2021-03-21T05:33:52Z</time>
      </trkpt>
      <trkpt lat="43.15049" lon="2.40618">
        <ele>327.5</ele>
        <time>2021-03-21T05:33:54Z</time>
      </trkpt>
      <trkpt lat="43.15052" lon="2.40625">
        <ele>327.7</ele>
        <time>2021-03-21T05:33:55Z</time>
      </trkpt>
      <trkpt lat="43.15058" lon="2.40638">
        <ele>328.2</ele>
        <time>2021-03-21T05:33:57Z</time>
      </trkpt>
      <trkpt lat="43.15061" lon="2.40644">
        <ele>328.5</ele>
        <time>2021-03-21T05:33:58Z</time>
      </trkpt>
      <trkpt lat="43.15068" lon="2.40656">
        <ele>329</ele>
        <time>2021-03-21T05:34:00Z</time>
      </trkpt>
      <trkpt lat="43.15072" lon="2.40662">
        <ele>329.3</ele>
        <time>2021-03-21T05:34:01Z</time>
      </trkpt>
      <trkpt lat="43.15078" lon="2.40675">
        <ele>329.8</ele>
        <time>2021-03-21T05:34:03Z</time>
      </trkpt>
      <trkpt lat="43.15081" lon="2.40681">
        <ele>330.1</ele>
        <time>2021-03-21T05:34:04Z</time>
      </trkpt>
      <trkpt lat="43.15087" lon="2.40693">
        <ele>330.7</ele>
        <time>2021-03-21T05:34:06Z</time>
      </trkpt>
      <trkpt lat="43.15089" lon="2.40699">
        <ele>330.9</ele>
        <time>2021-03-21T05:34:07Z</time>
      </trkpt>
      <trkpt lat="43.15094" lon="2.40712">
        <ele>331.4</ele>
        <time>2021-03-21T05:34:09Z</time>
      </trkpt>
      <trkpt lat="43.15097" lon="2.40727">
        <ele>331.9</ele>
        <time>2021-03-21T05:34:11Z</time>
      </trkpt>
      <trkpt lat="43.151" lon="2.40742">
        <ele>332.4</ele>
        <time>2021-03-21T05:34:13Z</time>
      </trkpt>
      <trkpt lat="43.15101" lon="2.40749">
        <ele>332.7</ele>
        <time>2021-03-21T05:34:14Z</time>
      </trkpt>
      <trkpt lat="43.15103" lon="2.40765">
        <ele>333.2</ele>
        <time>2021-03-21T05:34:16Z</time>
      </trkpt>
      <trkpt lat="43.15104" lon="2.40772">
        <ele>333.5</ele>
        <time>2021-03-21T05:34:17Z</time>
      </trkpt>
      <trkpt lat="43.15106" lon="2.4078">
        <ele>333.7</ele>
        <time>2021-03-21T05:34:18Z</time>
      </trkpt>
      <trkpt lat="43.15107" lon="2.40795">
        <ele>334.2</ele>
        <time>2021-03-21T05:34:20Z</time>
      </trkpt>
      <trkpt lat="43.15108" lon="2.40803">
        <ele>334.4</ele>
        <time>2021-03-21T05:34:21Z</time>
      </trkpt>
      <trkpt lat="43.15107" lon="2.40819">
        <ele>334.8</ele>
        <time>2021-03-21T05:34:23Z</time>
      </trkpt>
      <trkpt lat="43.15103" lon="2.40834">
        <ele>335.3</ele>
        <time>2021-03-21T05:34:25Z</time>
      </trkpt>
      <trkpt lat="43.15095" lon="2.40847">
        <ele>335.8</ele>
        <time>2021-03-21T05:34:27Z</time>
      </trkpt>
      <trkpt lat="43.15091" lon="2.40852">
        <ele>336</ele>
        <time>2021-03-21T05:34:28Z</time>
      </trkpt>
      <trkpt lat="43.15086" lon="2.40857">
        <ele>336.3</ele>
        <time>2021-03-21T05:34:29Z</time>
      </trkpt>
      <trkpt lat="43.15077" lon="2.40866">
        <ele>336.7</ele>
        <time>2021-03-21T05:34:31Z</time>
      </trkpt>
      <trkpt lat="43.15073" lon="2.40871">
        <ele>336.9</ele>
        <time>2021-03-21T05:34:32Z</time>
      </trkpt>
      <trkpt lat="43.15065" lon="2.40882">
        <ele>337.4</ele>
        <time>2021-03-21T05:34:34Z</time>
      </trkpt>
      <trkpt lat="43.15061" lon="2.40887">
        <ele>337.6</ele>
        <time>2021-03-21T05:34:35Z</time>
      </trkpt>
      <trkpt lat="43.15055" lon="2.40899">
        <ele>338.1</ele>
        <time>2021-03-21T05:34:37Z</time>
      </trkpt>
      <trkpt lat="43.15049" lon="2.40912">
        <ele>338.5</ele>
        <time>2021-03-21T05:34:39Z</time>
      </trkpt>
      <trkpt lat="43.15046" lon="2.40918">
        <ele>338.8</ele>
        <time>2021-03-21T05:34:40Z</time>
      </trkpt>
      <trkpt lat="43.15041" lon="2.40931">
        <ele>339.1</ele>
        <time>2021-03-21T05:34:42Z</time>
      </trkpt>
      <trkpt lat="43.15039" lon="2.40937">
        <ele>339.3</ele>
        <time>2021-03-21T05:34:43Z</time>
      </trkpt>
      <trkpt lat="43.15035" lon="2.40952">
        <ele>339.8</ele>
        <time>2021-03-21T05:34:45Z</time>
      </trkpt>
      <trkpt lat="43.15033" lon="2.40967">
        <ele>340.3</ele>
        <time>2021-03-21T05:34:47Z</time>
      </trkpt>
      <trkpt lat="43.15031" lon="2.40982">
        <ele>340.8</ele>
        <time>2021-03-21T05:34:49Z</time>
      </trkpt>
      <trkpt lat="43.1503" lon="2.40989">
        <ele>341</ele>
        <time>2021-03-21T05:34:50Z</time>
      </trkpt>
      <trkpt lat="43.15028" lon="2.41003">
        <ele>341.4</ele>
        <time>2021-03-21T05:34:52Z</time>
      </trkpt>
      <trkpt lat="43.15028" lon="2.41011">
        <ele>341.4</ele>
        <time>2021-03-21T05:34:53Z</time>
      </trkpt>
      <trkpt lat="43.15027" lon="2.41018">
        <ele>341.5</ele>
        <time>2021-03-21T05:34:54Z</time>
      </trkpt>
      <trkpt lat="43.15025" lon="2.41033">
        <ele>342</ele>
        <time>2021-03-21T05:34:56Z</time>
      </trkpt>
      <trkpt lat="43.15023" lon="2.41048">
        <ele>342.5</ele>
        <time>2021-03-21T05:34:58Z</time>
      </trkpt>
      <trkpt lat="43.15021" lon="2.41056">
        <ele>342.8</ele>
        <time>2021-03-21T05:34:59Z</time>
      </trkpt>
      <trkpt lat="43.15016" lon="2.41069">
        <ele>343.3</ele>
        <time>2021-03-21T05:35:01Z</time>
      </trkpt>
      <trkpt lat="43.1501" lon="2.41081">
        <ele>344</ele>
        <time>2021-03-21T05:35:03Z</time>
      </trkpt>
      <trkpt lat="43.15003" lon="2.4109">
        <ele>344.6</ele>
        <time>2021-03-21T05:35:05Z</time>
      </trkpt>
      <trkpt lat="43.14999" lon="2.41095">
        <ele>345</ele>
        <time>2021-03-21T05:35:06Z</time>
      </trkpt>
      <trkpt lat="43.14991" lon="2.41104">
        <ele>345.6</ele>
        <time>2021-03-21T05:35:08Z</time>
      </trkpt>
      <trkpt lat="43.14987" lon="2.41109">
        <ele>345.9</ele>
        <time>2021-03-21T05:35:09Z</time>
      </trkpt>
      <trkpt lat="43.14979" lon="2.41118">
        <ele>346.5</ele>
        <time>2021-03-21T05:35:11Z</time>
      </trkpt>
      <trkpt lat="43.14975" lon="2.41122">
        <ele>346.8</ele>
        <time>2021-03-21T05:35:12Z</time>
      </trkpt>
      <trkpt lat="43.14967" lon="2.41131">
        <ele>347.4</ele>
        <time>2021-03-21T05:35:14Z</time>
      </trkpt>
      <trkpt lat="43.14959" lon="2.4114">
        <ele>347.9</ele>
        <time>2021-03-21T05:35:16Z</time>
      </trkpt>
      <trkpt lat="43.14955" lon="2.41144">
        <ele>348.2</ele>
        <time>2021-03-21T05:35:17Z</time>
      </trkpt>
      <trkpt lat="43.14952" lon="2.41149">
        <ele>348.5</ele>
        <time>2021-03-21T05:35:18Z</time>
      </trkpt>
      <trkpt lat="43.14945" lon="2.4116">
        <ele>349.1</ele>
        <time>2021-03-21T05:35:20Z</time>
      </trkpt>
      <trkpt lat="43.14938" lon="2.41171">
        <ele>349.6</ele>
        <time>2021-03-21T05:35:22Z</time>
      </trkpt>
      <trkpt lat="43.14932" lon="2.41181">
        <ele>350.2</ele>
        <time>2021-03-21T05:35:24Z</time>
      </trkpt>
      <trkpt lat="43.14927" lon="2.41185">
        <ele>350.5</ele>
        <time>2021-03-21T05:35:25Z</time>
      </trkpt>
      <trkpt lat="43.14918" lon="2.41191">
        <ele>351</ele>
        <time>2021-03-21T05:35:27Z</time>
      </trkpt>
      <trkpt lat="43.1491" lon="2.41193">
        <ele>351.4</ele>
        <time>2021-03-21T05:35:29Z</time>
      </trkpt>
      <trkpt lat="43.14905" lon="2.41195">
        <ele>351.7</ele>
        <time>2021-03-21T05:35:30Z</time>
      </trkpt>
      <trkpt lat="43.149" lon="2.41196">
        <ele>351.9</ele>
        <time>2021-03-21T05:35:31Z</time>
      </trkpt>
      <trkpt lat="43.1489" lon="2.41197">
        <ele>352.4</ele>
        <time>2021-03-21T05:35:33Z</time>
      </trkpt>
      <trkpt lat="43.14878" lon="2.41201">
        <ele>353.1</ele>
        <time>2021-03-21T05:35:35Z</time>
      </trkpt>
      <trkpt lat="43.14875" lon="2.41202">
        <ele>353.2</ele>
        <time>2021-03-21T05:35:36Z</time>
      </trkpt>
      <trkpt lat="43.14868" lon="2.41204">
        <ele>353.6</ele>
        <time>2021-03-21T05:35:38Z</time>
      </trkpt>
      <trkpt lat="43.14864" lon="2.41206">
        <ele>353.8</ele>
        <time>2021-03-21T05:35:39Z</time>
      </trkpt>
      <trkpt lat="43.14861" lon="2.41207">
        <ele>353.9</ele>
        <time>2021-03-21T05:35:40Z</time>
      </trkpt>
      <trkpt lat="43.14852" lon="2.41211">
        <ele>354.4</ele>
        <time>2021-03-21T05:35:42Z</time>
      </trkpt>
      <trkpt lat="43.14847" lon="2.41215">
        <ele>354.7</ele>
        <time>2021-03-21T05:35:43Z</time>
      </trkpt>
      <trkpt lat="43.1484" lon="2.41225">
        <ele>355.2</ele>
        <time>2021-03-21T05:35:45Z</time>
      </trkpt>
      <trkpt lat="43.14834" lon="2.41236">
        <ele>355.8</ele>
        <time>2021-03-21T05:35:47Z</time>
      </trkpt>
      <trkpt lat="43.1483" lon="2.41248">
        <ele>356.4</ele>
        <time>2021-03-21T05:35:49Z</time>
      </trkpt>
      <trkpt lat="43.14828" lon="2.41254">
        <ele>356.6</ele>
        <time>2021-03-21T05:35:50Z</time>
      </trkpt>
      <trkpt lat="43.14826" lon="2.41259">
        <ele>356.9</ele>
        <time>2021-03-21T05:35:51Z</time>
      </trkpt>
      <trkpt lat="43.14824" lon="2.41265">
        <ele>357.1</ele>
        <time>2021-03-21T05:35:52Z</time>
      </trkpt>
      <trkpt lat="43.14821" lon="2.41274">
        <ele>357.6</ele>
        <time>2021-03-21T05:35:54Z</time>
      </trkpt>
      <trkpt lat="43.14819" lon="2.41279">
        <ele>357.8</ele>
        <time>2021-03-21T05:35:55Z</time>
      </trkpt>
      <trkpt lat="43.14818" lon="2.41284">
        <ele>358.1</ele>
        <time>2021-03-21T05:35:56Z</time>
      </trkpt>
      <trkpt lat="43.14815" lon="2.41295">
        <ele>358.6</ele>
        <time>2021-03-21T05:35:58Z</time>
      </trkpt>
      <trkpt lat="43.14819" lon="2.41304">
        <ele>359.1</ele>
        <time>2021-03-21T05:35:59Z</time>
      </trkpt>
      <trkpt lat="43.14817" lon="2.41312">
        <ele>359.5</ele>
        <time>2021-03-21T05:36:01Z</time>
      </trkpt>
      <trkpt lat="43.14815" lon="2.41319">
        <ele>359.7</ele>
        <time>2021-03-21T05:36:02Z</time>
      </trkpt>
      <trkpt lat="43.14814" lon="2.41325">
        <ele>360</ele>
        <time>2021-03-21T05:36:03Z</time>
      </trkpt>
      <trkpt lat="43.14812" lon="2.41333">
        <ele>360.3</ele>
        <time>2021-03-21T05:36:05Z</time>
      </trkpt>
      <trkpt lat="43.1481" lon="2.41339">
        <ele>360.6</ele>
        <time>2021-03-21T05:36:06Z</time>
      </trkpt>
      <trkpt lat="43.14809" lon="2.41346">
        <ele>360.8</ele>
        <time>2021-03-21T05:36:07Z</time>
      </trkpt>
      <trkpt lat="43.14808" lon="2.41353">
        <ele>361.1</ele>
        <time>2021-03-21T05:36:08Z</time>
      </trkpt>
      <trkpt lat="43.14803" lon="2.4136">
        <ele>361.4</ele>
        <time>2021-03-21T05:36:09Z</time>
      </trkpt>
      <trkpt lat="43.14798" lon="2.41372">
        <ele>361.9</ele>
        <time>2021-03-21T05:36:11Z</time>
      </trkpt>
      <trkpt lat="43.14793" lon="2.41384">
        <ele>362.3</ele>
        <time>2021-03-21T05:36:13Z</time>
      </trkpt>
      <trkpt lat="43.14791" lon="2.41389">
        <ele>362.6</ele>
        <time>2021-03-21T05:36:14Z</time>
      </trkpt>
      <trkpt lat="43.14789" lon="2.41396">
        <ele>362.8</ele>
        <time>2021-03-21T05:36:15Z</time>
      </trkpt>
      <trkpt lat="43.14786" lon="2.41402">
        <ele>363.1</ele>
        <time>2021-03-21T05:36:17Z</time>
      </trkpt>
      <trkpt lat="43.14783" lon="2.41408">
        <ele>363.4</ele>
        <time>2021-03-21T05:36:18Z</time>
      </trkpt>
      <trkpt lat="43.14779" lon="2.41417">
        <ele>363.8</ele>
        <time>2021-03-21T05:36:19Z</time>
      </trkpt>
      <trkpt lat="43.14774" lon="2.41428">
        <ele>364.3</ele>
        <time>2021-03-21T05:36:21Z</time>
      </trkpt>
      <trkpt lat="43.14771" lon="2.41434">
        <ele>364.7</ele>
        <time>2021-03-21T05:36:23Z</time>
      </trkpt>
      <trkpt lat="43.14768" lon="2.41439">
        <ele>364.9</ele>
        <time>2021-03-21T05:36:24Z</time>
      </trkpt>
      <trkpt lat="43.14765" lon="2.41448">
        <ele>365.4</ele>
        <time>2021-03-21T05:36:26Z</time>
      </trkpt>
      <trkpt lat="43.14763" lon="2.41454">
        <ele>365.7</ele>
        <time>2021-03-21T05:36:27Z</time>
      </trkpt>
      <trkpt lat="43.1476" lon="2.41462">
        <ele>366.1</ele>
        <time>2021-03-21T05:36:28Z</time>
      </trkpt>
      <trkpt lat="43.14756" lon="2.41471">
        <ele>366.6</ele>
        <time>2021-03-21T05:36:30Z</time>
      </trkpt>
      <trkpt lat="43.14754" lon="2.41477">
        <ele>366.8</ele>
        <time>2021-03-21T05:36:31Z</time>
      </trkpt>
      <trkpt lat="43.14751" lon="2.41482">
        <ele>367.1</ele>
        <time>2021-03-21T05:36:32Z</time>
      </trkpt>
      <trkpt lat="43.14748" lon="2.41491">
        <ele>367.5</ele>
        <time>2021-03-21T05:36:33Z</time>
      </trkpt>
      <trkpt lat="43.14748" lon="2.41497">
        <ele>367.8</ele>
        <time>2021-03-21T05:36:35Z</time>
      </trkpt>
      <trkpt lat="43.14747" lon="2.41501">
        <ele>368</ele>
        <time>2021-03-21T05:36:36Z</time>
      </trkpt>
      <trkpt lat="43.14743" lon="2.41509">
        <ele>368.4</ele>
        <time>2021-03-21T05:36:38Z</time>
      </trkpt>
      <trkpt lat="43.14741" lon="2.41517">
        <ele>368.7</ele>
        <time>2021-03-21T05:36:39Z</time>
      </trkpt>
      <trkpt lat="43.14739" lon="2.41525">
        <ele>369.1</ele>
        <time>2021-03-21T05:36:40Z</time>
      </trkpt>
      <trkpt lat="43.14737" lon="2.41536">
        <ele>369.6</ele>
        <time>2021-03-21T05:36:42Z</time>
      </trkpt>
      <trkpt lat="43.14737" lon="2.41544">
        <ele>369.9</ele>
        <time>2021-03-21T05:36:43Z</time>
      </trkpt>
      <trkpt lat="43.14735" lon="2.41559">
        <ele>370.4</ele>
        <time>2021-03-21T05:36:45Z</time>
      </trkpt>
      <trkpt lat="43.14733" lon="2.41565">
        <ele>370.7</ele>
        <time>2021-03-21T05:36:46Z</time>
      </trkpt>
      <trkpt lat="43.14733" lon="2.41576">
        <ele>371.1</ele>
        <time>2021-03-21T05:36:48Z</time>
      </trkpt>
      <trkpt lat="43.14733" lon="2.41584">
        <ele>371.3</ele>
        <time>2021-03-21T05:36:49Z</time>
      </trkpt>
      <trkpt lat="43.14733" lon="2.41591">
        <ele>371.6</ele>
        <time>2021-03-21T05:36:50Z</time>
      </trkpt>
      <trkpt lat="43.14733" lon="2.41605">
        <ele>372.1</ele>
        <time>2021-03-21T05:36:52Z</time>
      </trkpt>
      <trkpt lat="43.14732" lon="2.41611">
        <ele>372.3</ele>
        <time>2021-03-21T05:36:53Z</time>
      </trkpt>
      <trkpt lat="43.14731" lon="2.4162">
        <ele>372.6</ele>
        <time>2021-03-21T05:36:55Z</time>
      </trkpt>
      <trkpt lat="43.14731" lon="2.41628">
        <ele>372.9</ele>
        <time>2021-03-21T05:36:56Z</time>
      </trkpt>
      <trkpt lat="43.14729" lon="2.41643">
        <ele>373.4</ele>
        <time>2021-03-21T05:36:58Z</time>
      </trkpt>
      <trkpt lat="43.14727" lon="2.41649">
        <ele>373.7</ele>
        <time>2021-03-21T05:36:59Z</time>
      </trkpt>
      <trkpt lat="43.14722" lon="2.41662">
        <ele>374.2</ele>
        <time>2021-03-21T05:37:01Z</time>
      </trkpt>
      <trkpt lat="43.14717" lon="2.41674">
        <ele>374.8</ele>
        <time>2021-03-21T05:37:03Z</time>
      </trkpt>
      <trkpt lat="43.14714" lon="2.41679">
        <ele>375.1</ele>
        <time>2021-03-21T05:37:04Z</time>
      </trkpt>
      <trkpt lat="43.14711" lon="2.41685">
        <ele>375.4</ele>
        <time>2021-03-21T05:37:05Z</time>
      </trkpt>
      <trkpt lat="43.14705" lon="2.41694">
        <ele>375.9</ele>
        <time>2021-03-21T05:37:07Z</time>
      </trkpt>
      <trkpt lat="43.14701" lon="2.41699">
        <ele>376.2</ele>
        <time>2021-03-21T05:37:08Z</time>
      </trkpt>
      <trkpt lat="43.14695" lon="2.41707">
        <ele>376.8</ele>
        <time>2021-03-21T05:37:10Z</time>
      </trkpt>
      <trkpt lat="43.14688" lon="2.41716">
        <ele>377.3</ele>
        <time>2021-03-21T05:37:12Z</time>
      </trkpt>
      <trkpt lat="43.14681" lon="2.41725">
        <ele>377.9</ele>
        <time>2021-03-21T05:37:14Z</time>
      </trkpt>
      <trkpt lat="43.14677" lon="2.41728">
        <ele>378.2</ele>
        <time>2021-03-21T05:37:15Z</time>
      </trkpt>
      <trkpt lat="43.14674" lon="2.41732">
        <ele>378.5</ele>
        <time>2021-03-21T05:37:16Z</time>
      </trkpt>
      <trkpt lat="43.14668" lon="2.4174">
        <ele>379</ele>
        <time>2021-03-21T05:37:18Z</time>
      </trkpt>
      <trkpt lat="43.14662" lon="2.41747">
        <ele>379.5</ele>
        <time>2021-03-21T05:37:20Z</time>
      </trkpt>
      <trkpt lat="43.14658" lon="2.4175">
        <ele>379.8</ele>
        <time>2021-03-21T05:37:21Z</time>
      </trkpt>
      <trkpt lat="43.14653" lon="2.41757">
        <ele>380.3</ele>
        <time>2021-03-21T05:37:23Z</time>
      </trkpt>
      <trkpt lat="43.1465" lon="2.41761">
        <ele>380.6</ele>
        <time>2021-03-21T05:37:24Z</time>
      </trkpt>
      <trkpt lat="43.14646" lon="2.41766">
        <ele>380.9</ele>
        <time>2021-03-21T05:37:25Z</time>
      </trkpt>
      <trkpt lat="43.14643" lon="2.4177">
        <ele>381.2</ele>
        <time>2021-03-21T05:37:26Z</time>
      </trkpt>
      <trkpt lat="43.14637" lon="2.41777">
        <ele>381.7</ele>
        <time>2021-03-21T05:37:28Z</time>
      </trkpt>
      <trkpt lat="43.14633" lon="2.41783">
        <ele>382</ele>
        <time>2021-03-21T05:37:30Z</time>
      </trkpt>
      <trkpt lat="43.14628" lon="2.41788">
        <ele>382.4</ele>
        <time>2021-03-21T05:37:31Z</time>
      </trkpt>
      <trkpt lat="43.14624" lon="2.41793">
        <ele>382.8</ele>
        <time>2021-03-21T05:37:32Z</time>
      </trkpt>
      <trkpt lat="43.1462" lon="2.41797">
        <ele>383</ele>
        <time>2021-03-21T05:37:33Z</time>
      </trkpt>
      <trkpt lat="43.14616" lon="2.41801">
        <ele>383.4</ele>
        <time>2021-03-21T05:37:34Z</time>
      </trkpt>
      <trkpt lat="43.1461" lon="2.41806">
        <ele>383.8</ele>
        <time>2021-03-21T05:37:36Z</time>
      </trkpt>
      <trkpt lat="43.14604" lon="2.41812">
        <ele>384.2</ele>
        <time>2021-03-21T05:37:38Z</time>
      </trkpt>
      <trkpt lat="43.14599" lon="2.41816">
        <ele>384.5</ele>
        <time>2021-03-21T05:37:39Z</time>
      </trkpt>
      <trkpt lat="43.14595" lon="2.4182">
        <ele>384.8</ele>
        <time>2021-03-21T05:37:40Z</time>
      </trkpt>
      <trkpt lat="43.1459" lon="2.41824">
        <ele>385.2</ele>
        <time>2021-03-21T05:37:42Z</time>
      </trkpt>
      <trkpt lat="43.14584" lon="2.41829">
        <ele>385.6</ele>
        <time>2021-03-21T05:37:44Z</time>
      </trkpt>
      <trkpt lat="43.14578" lon="2.41834">
        <ele>386.1</ele>
        <time>2021-03-21T05:37:45Z</time>
      </trkpt>
      <trkpt lat="43.14572" lon="2.4184">
        <ele>386.6</ele>
        <time>2021-03-21T05:37:47Z</time>
      </trkpt>
      <trkpt lat="43.14567" lon="2.41848">
        <ele>387.1</ele>
        <time>2021-03-21T05:37:49Z</time>
      </trkpt>
      <trkpt lat="43.14563" lon="2.41853">
        <ele>387.5</ele>
        <time>2021-03-21T05:37:50Z</time>
      </trkpt>
      <trkpt lat="43.14559" lon="2.41857">
        <ele>387.8</ele>
        <time>2021-03-21T05:37:51Z</time>
      </trkpt>
      <trkpt lat="43.14556" lon="2.41862">
        <ele>388.1</ele>
        <time>2021-03-21T05:37:53Z</time>
      </trkpt>
      <trkpt lat="43.14552" lon="2.41868">
        <ele>388.5</ele>
        <time>2021-03-21T05:37:54Z</time>
      </trkpt>
      <trkpt lat="43.14547" lon="2.41875">
        <ele>388.9</ele>
        <time>2021-03-21T05:37:56Z</time>
      </trkpt>
      <trkpt lat="43.14544" lon="2.41882">
        <ele>389.3</ele>
        <time>2021-03-21T05:37:57Z</time>
      </trkpt>
      <trkpt lat="43.14541" lon="2.41887">
        <ele>389.6</ele>
        <time>2021-03-21T05:37:58Z</time>
      </trkpt>
      <trkpt lat="43.14538" lon="2.41893">
        <ele>389.9</ele>
        <time>2021-03-21T05:38:00Z</time>
      </trkpt>
      <trkpt lat="43.14534" lon="2.41901">
        <ele>390.3</ele>
        <time>2021-03-21T05:38:01Z</time>
      </trkpt>
      <trkpt lat="43.14532" lon="2.41908">
        <ele>390.6</ele>
        <time>2021-03-21T05:38:02Z</time>
      </trkpt>
      <trkpt lat="43.14529" lon="2.41914">
        <ele>391</ele>
        <time>2021-03-21T05:38:03Z</time>
      </trkpt>
      <trkpt lat="43.14526" lon="2.41924">
        <ele>391.4</ele>
        <time>2021-03-21T05:38:05Z</time>
      </trkpt>
      <trkpt lat="43.14525" lon="2.4193">
        <ele>391.7</ele>
        <time>2021-03-21T05:38:06Z</time>
      </trkpt>
      <trkpt lat="43.14525" lon="2.41937">
        <ele>392</ele>
        <time>2021-03-21T05:38:07Z</time>
      </trkpt>
      <trkpt lat="43.14524" lon="2.41946">
        <ele>392.4</ele>
        <time>2021-03-21T05:38:09Z</time>
      </trkpt>
      <trkpt lat="43.14523" lon="2.41952">
        <ele>392.7</ele>
        <time>2021-03-21T05:38:10Z</time>
      </trkpt>
      <trkpt lat="43.14522" lon="2.41958">
        <ele>392.9</ele>
        <time>2021-03-21T05:38:11Z</time>
      </trkpt>
      <trkpt lat="43.1452" lon="2.41966">
        <ele>393.3</ele>
        <time>2021-03-21T05:38:13Z</time>
      </trkpt>
      <trkpt lat="43.14518" lon="2.41972">
        <ele>393.6</ele>
        <time>2021-03-21T05:38:14Z</time>
      </trkpt>
      <trkpt lat="43.14514" lon="2.4198">
        <ele>394</ele>
        <time>2021-03-21T05:38:15Z</time>
      </trkpt>
      <trkpt lat="43.14508" lon="2.41991">
        <ele>394.6</ele>
        <time>2021-03-21T05:38:17Z</time>
      </trkpt>
      <trkpt lat="43.14505" lon="2.41996">
        <ele>394.9</ele>
        <time>2021-03-21T05:38:18Z</time>
      </trkpt>
      <trkpt lat="43.14502" lon="2.42002">
        <ele>395.1</ele>
        <time>2021-03-21T05:38:19Z</time>
      </trkpt>
      <trkpt lat="43.14497" lon="2.42013">
        <ele>395.6</ele>
        <time>2021-03-21T05:38:21Z</time>
      </trkpt>
      <trkpt lat="43.14496" lon="2.42018">
        <ele>395.9</ele>
        <time>2021-03-21T05:38:23Z</time>
      </trkpt>
      <trkpt lat="43.14494" lon="2.42021">
        <ele>396</ele>
        <time>2021-03-21T05:38:24Z</time>
      </trkpt>
      <trkpt lat="43.1449" lon="2.42029">
        <ele>396.4</ele>
        <time>2021-03-21T05:38:25Z</time>
      </trkpt>
      <trkpt lat="43.14487" lon="2.42037">
        <ele>396.8</ele>
        <time>2021-03-21T05:38:26Z</time>
      </trkpt>
      <trkpt lat="43.14485" lon="2.42044">
        <ele>397.1</ele>
        <time>2021-03-21T05:38:27Z</time>
      </trkpt>
      <trkpt lat="43.14482" lon="2.42051">
        <ele>397.4</ele>
        <time>2021-03-21T05:38:29Z</time>
      </trkpt>
      <trkpt lat="43.14479" lon="2.42059">
        <ele>397.8</ele>
        <time>2021-03-21T05:38:30Z</time>
      </trkpt>
      <trkpt lat="43.14478" lon="2.42065">
        <ele>398.1</ele>
        <time>2021-03-21T05:38:31Z</time>
      </trkpt>
      <trkpt lat="43.14475" lon="2.42075">
        <ele>398.6</ele>
        <time>2021-03-21T05:38:33Z</time>
      </trkpt>
      <trkpt lat="43.14473" lon="2.42084">
        <ele>399</ele>
        <time>2021-03-21T05:38:34Z</time>
      </trkpt>
      <trkpt lat="43.14472" lon="2.42089">
        <ele>399.2</ele>
        <time>2021-03-21T05:38:35Z</time>
      </trkpt>
      <trkpt lat="43.14469" lon="2.42099">
        <ele>399.7</ele>
        <time>2021-03-21T05:38:37Z</time>
      </trkpt>
      <trkpt lat="43.14467" lon="2.42107">
        <ele>400.1</ele>
        <time>2021-03-21T05:38:38Z</time>
      </trkpt>
      <trkpt lat="43.14466" lon="2.42115">
        <ele>400.4</ele>
        <time>2021-03-21T05:38:40Z</time>
      </trkpt>
      <trkpt lat="43.14465" lon="2.4212">
        <ele>400.7</ele>
        <time>2021-03-21T05:38:41Z</time>
      </trkpt>
      <trkpt lat="43.14464" lon="2.42126">
        <ele>401</ele>
        <time>2021-03-21T05:38:42Z</time>
      </trkpt>
      <trkpt lat="43.14462" lon="2.42136">
        <ele>401.4</ele>
        <time>2021-03-21T05:38:43Z</time>
      </trkpt>
      <trkpt lat="43.14462" lon="2.42143">
        <ele>401.6</ele>
        <time>2021-03-21T05:38:44Z</time>
      </trkpt>
      <trkpt lat="43.14464" lon="2.42152">
        <ele>402.1</ele>
        <time>2021-03-21T05:38:46Z</time>
      </trkpt>
      <trkpt lat="43.14468" lon="2.42159">
        <ele>402.4</ele>
        <time>2021-03-21T05:38:47Z</time>
      </trkpt>
      <trkpt lat="43.14468" lon="2.42165">
        <ele>402.7</ele>
        <time>2021-03-21T05:38:48Z</time>
      </trkpt>
      <trkpt lat="43.14469" lon="2.42172">
        <ele>403</ele>
        <time>2021-03-21T05:38:49Z</time>
      </trkpt>
      <trkpt lat="43.1447" lon="2.42184">
        <ele>403.5</ele>
        <time>2021-03-21T05:38:51Z</time>
      </trkpt>
      <trkpt lat="43.14473" lon="2.42195">
        <ele>404</ele>
        <time>2021-03-21T05:38:53Z</time>
      </trkpt>
      <trkpt lat="43.14475" lon="2.42202">
        <ele>404.2</ele>
        <time>2021-03-21T05:38:54Z</time>
      </trkpt>
      <trkpt lat="43.14476" lon="2.42207">
        <ele>404.5</ele>
        <time>2021-03-21T05:38:55Z</time>
      </trkpt>
      <trkpt lat="43.14479" lon="2.42219">
        <ele>405</ele>
        <time>2021-03-21T05:38:57Z</time>
      </trkpt>
      <trkpt lat="43.14481" lon="2.42226">
        <ele>405.3</ele>
        <time>2021-03-21T05:38:58Z</time>
      </trkpt>
      <trkpt lat="43.14483" lon="2.42232">
        <ele>405.5</ele>
        <time>2021-03-21T05:38:59Z</time>
      </trkpt>
      <trkpt lat="43.14486" lon="2.42241">
        <ele>405.9</ele>
        <time>2021-03-21T05:39:01Z</time>
      </trkpt>
      <trkpt lat="43.14488" lon="2.4225">
        <ele>406.3</ele>
        <time>2021-03-21T05:39:02Z</time>
      </trkpt>
      <trkpt lat="43.14488" lon="2.42257">
        <ele>406.5</ele>
        <time>2021-03-21T05:39:03Z</time>
      </trkpt>
      <trkpt lat="43.14489" lon="2.42269">
        <ele>407</ele>
        <time>2021-03-21T05:39:05Z</time>
      </trkpt>
      <trkpt lat="43.14489" lon="2.42282">
        <ele>407.5</ele>
        <time>2021-03-21T05:39:07Z</time>
      </trkpt>
      <trkpt lat="43.14489" lon="2.42294">
        <ele>408.1</ele>
        <time>2021-03-21T05:39:09Z</time>
      </trkpt>
      <trkpt lat="43.14489" lon="2.42302">
        <ele>408.4</ele>
        <time>2021-03-21T05:39:11Z</time>
      </trkpt>
      <trkpt lat="43.14489" lon="2.4231">
        <ele>408.8</ele>
        <time>2021-03-21T05:39:12Z</time>
      </trkpt>
      <trkpt lat="43.14489" lon="2.42324">
        <ele>409.4</ele>
        <time>2021-03-21T05:39:14Z</time>
      </trkpt>
      <trkpt lat="43.14492" lon="2.42332">
        <ele>409.8</ele>
        <time>2021-03-21T05:39:16Z</time>
      </trkpt>
      <trkpt lat="43.14488" lon="2.42338">
        <ele>410.2</ele>
        <time>2021-03-21T05:39:17Z</time>
      </trkpt>
      <trkpt lat="43.14484" lon="2.42341">
        <ele>410.5</ele>
        <time>2021-03-21T05:39:18Z</time>
      </trkpt>
      <trkpt lat="43.14481" lon="2.42343">
        <ele>410.5</ele>
        <time>2021-03-21T05:39:19Z</time>
      </trkpt>
      <trkpt lat="43.14478" lon="2.42344">
        <ele>410.6</ele>
        <time>2021-03-21T05:39:21Z</time>
      </trkpt>
      <trkpt lat="43.14478" lon="2.42342">
        <ele>410.6</ele>
        <time>2021-03-21T05:39:22Z</time>
      </trkpt>
      <trkpt lat="43.14478" lon="2.4234">
        <ele>410.6</ele>
        <time>2021-03-21T05:39:23Z</time>
      </trkpt>
      <trkpt lat="43.14478" lon="2.4234">
        <ele>410.6</ele>
        <time>2021-03-21T05:39:25Z</time>
      </trkpt>
      <trkpt lat="43.14478" lon="2.4234">
        <ele>410.6</ele>
        <time>2021-03-21T05:39:26Z</time>
      </trkpt>
      <trkpt lat="43.14479" lon="2.42341">
        <ele>410.6</ele>
        <time>2021-03-21T05:39:28Z</time>
      </trkpt>
      <trkpt lat="43.14479" lon="2.42341">
        <ele>410.6</ele>
        <time>2021-03-21T05:39:30Z</time>
      </trkpt>
      <trkpt lat="43.14479" lon="2.42341">
        <ele>410.6</ele>
        <time>2021-03-21T05:39:31Z</time>
      </trkpt>
      <trkpt lat="43.14479" lon="2.42341">
        <ele>410.6</ele>
        <time>2021-03-21T05:39:33Z</time>
      </trkpt>
      <trkpt lat="43.14479" lon="2.42341">
        <ele>410.6</ele>
        <time>2021-03-21T05:39:35Z</time>
      </trkpt>
      <trkpt lat="43.1448" lon="2.42341">
        <ele>410.6</ele>
        <time>2021-03-21T05:39:36Z</time>
      </trkpt>
      <trkpt lat="43.1448" lon="2.42341">
        <ele>410.6</ele>
        <time>2021-03-21T05:40:04Z</time>
      </trkpt>
      <trkpt lat="43.1448" lon="2.42342">
        <ele>410.6</ele>
        <time>2021-03-21T05:40:05Z</time>
      </trkpt>
      <trkpt lat="43.1448" lon="2.42342">
        <ele>410.6</ele>
        <time>2021-03-21T05:40:07Z</time>
      </trkpt>
      <trkpt lat="43.1448" lon="2.42342">
        <ele>410.6</ele>
        <time>2021-03-21T05:40:08Z</time>
      </trkpt>
      <trkpt lat="43.1448" lon="2.42342">
        <ele>410.6</ele>
        <time>2021-03-21T05:40:09Z</time>
      </trkpt>
      <trkpt lat="43.14481" lon="2.42342">
        <ele>410.6</ele>
        <time>2021-03-21T05:40:10Z</time>
      </trkpt>
      <trkpt lat="43.14481" lon="2.42342">
        <ele>410.6</ele>
        <time>2021-03-21T05:40:11Z</time>
      </trkpt>
      <trkpt lat="43.14481" lon="2.42342">
        <ele>410.6</ele>
        <time>2021-03-21T05:40:12Z</time>
      </trkpt>
      <trkpt lat="43.14481" lon="2.42343">
        <ele>410.6</ele>
        <time>2021-03-21T05:40:14Z</time>
      </trkpt>
      <trkpt lat="43.14481" lon="2.42343">
        <ele>410.6</ele>
        <time>2021-03-21T05:40:15Z</time>
      </trkpt>
      <trkpt lat="43.14482" lon="2.42343">
        <ele>410.6</ele>
        <time>2021-03-21T05:40:17Z</time>
      </trkpt>
      <trkpt lat="43.14482" lon="2.42343">
        <ele>410.6</ele>
        <time>2021-03-21T05:40:18Z</time>
      </trkpt>
      <trkpt lat="43.14484" lon="2.42346">
        <ele>410.6</ele>
        <time>2021-03-21T05:40:19Z</time>
      </trkpt>
      <trkpt lat="43.14485" lon="2.42347">
        <ele>410.5</ele>
        <time>2021-03-21T05:40:20Z</time>
      </trkpt>
      <trkpt lat="43.14486" lon="2.42354">
        <ele>410.4</ele>
        <time>2021-03-21T05:40:22Z</time>
      </trkpt>
      <trkpt lat="43.14487" lon="2.42363">
        <ele>410.2</ele>
        <time>2021-03-21T05:40:23Z</time>
      </trkpt>
      <trkpt lat="43.14486" lon="2.42379">
        <ele>409.7</ele>
        <time>2021-03-21T05:40:25Z</time>
      </trkpt>
      <trkpt lat="43.14485" lon="2.42387">
        <ele>409.4</ele>
        <time>2021-03-21T05:40:26Z</time>
      </trkpt>
      <trkpt lat="43.14482" lon="2.42403">
        <ele>408.9</ele>
        <time>2021-03-21T05:40:28Z</time>
      </trkpt>
      <trkpt lat="43.14478" lon="2.42419">
        <ele>408.2</ele>
        <time>2021-03-21T05:40:30Z</time>
      </trkpt>
      <trkpt lat="43.14473" lon="2.42438">
        <ele>407.4</ele>
        <time>2021-03-21T05:40:32Z</time>
      </trkpt>
      <trkpt lat="43.1447" lon="2.42459">
        <ele>406.3</ele>
        <time>2021-03-21T05:40:34Z</time>
      </trkpt>
      <trkpt lat="43.14469" lon="2.4247">
        <ele>405.8</ele>
        <time>2021-03-21T05:40:35Z</time>
      </trkpt>
      <trkpt lat="43.14468" lon="2.42493">
        <ele>404.7</ele>
        <time>2021-03-21T05:40:37Z</time>
      </trkpt>
      <trkpt lat="43.14468" lon="2.42505">
        <ele>404.2</ele>
        <time>2021-03-21T05:40:38Z</time>
      </trkpt>
      <trkpt lat="43.14466" lon="2.4253">
        <ele>403.1</ele>
        <time>2021-03-21T05:40:40Z</time>
      </trkpt>
      <trkpt lat="43.14459" lon="2.42552">
        <ele>401.9</ele>
        <time>2021-03-21T05:40:42Z</time>
      </trkpt>
      <trkpt lat="43.14447" lon="2.42571">
        <ele>400.7</ele>
        <time>2021-03-21T05:40:44Z</time>
      </trkpt>
      <trkpt lat="43.14441" lon="2.42581">
        <ele>400.1</ele>
        <time>2021-03-21T05:40:45Z</time>
      </trkpt>
      <trkpt lat="43.14432" lon="2.42603">
        <ele>399</ele>
        <time>2021-03-21T05:40:47Z</time>
      </trkpt>
      <trkpt lat="43.14423" lon="2.42627">
        <ele>397.8</ele>
        <time>2021-03-21T05:40:49Z</time>
      </trkpt>
      <trkpt lat="43.14415" lon="2.4265">
        <ele>396.9</ele>
        <time>2021-03-21T05:40:51Z</time>
      </trkpt>
      <trkpt lat="43.1441" lon="2.42674">
        <ele>395.9</ele>
        <time>2021-03-21T05:40:53Z</time>
      </trkpt>
      <trkpt lat="43.14405" lon="2.42698">
        <ele>395.1</ele>
        <time>2021-03-21T05:40:55Z</time>
      </trkpt>
      <trkpt lat="43.14401" lon="2.42709">
        <ele>394.6</ele>
        <time>2021-03-21T05:40:56Z</time>
      </trkpt>
      <trkpt lat="43.14396" lon="2.42718">
        <ele>394.1</ele>
        <time>2021-03-21T05:40:57Z</time>
      </trkpt>
      <trkpt lat="43.14388" lon="2.42724">
        <ele>393.6</ele>
        <time>2021-03-21T05:40:58Z</time>
      </trkpt>
      <trkpt lat="43.1437" lon="2.42728">
        <ele>392.5</ele>
        <time>2021-03-21T05:41:00Z</time>
      </trkpt>
      <trkpt lat="43.14361" lon="2.4273">
        <ele>392</ele>
        <time>2021-03-21T05:41:01Z</time>
      </trkpt>
      <trkpt lat="43.14346" lon="2.42745">
        <ele>390.9</ele>
        <time>2021-03-21T05:41:03Z</time>
      </trkpt>
      <trkpt lat="43.1434" lon="2.42755">
        <ele>390.2</ele>
        <time>2021-03-21T05:41:04Z</time>
      </trkpt>
      <trkpt lat="43.14329" lon="2.4278">
        <ele>388.9</ele>
        <time>2021-03-21T05:41:06Z</time>
      </trkpt>
      <trkpt lat="43.14319" lon="2.42805">
        <ele>387.8</ele>
        <time>2021-03-21T05:41:08Z</time>
      </trkpt>
      <trkpt lat="43.14315" lon="2.42818">
        <ele>387.2</ele>
        <time>2021-03-21T05:41:09Z</time>
      </trkpt>
      <trkpt lat="43.14312" lon="2.42832">
        <ele>386.5</ele>
        <time>2021-03-21T05:41:10Z</time>
      </trkpt>
      <trkpt lat="43.14311" lon="2.42861">
        <ele>385.3</ele>
        <time>2021-03-21T05:41:12Z</time>
      </trkpt>
      <trkpt lat="43.1431" lon="2.42891">
        <ele>384.2</ele>
        <time>2021-03-21T05:41:14Z</time>
      </trkpt>
      <trkpt lat="43.14308" lon="2.42904">
        <ele>383.6</ele>
        <time>2021-03-21T05:41:15Z</time>
      </trkpt>
      <trkpt lat="43.14301" lon="2.42929">
        <ele>382.7</ele>
        <time>2021-03-21T05:41:17Z</time>
      </trkpt>
      <trkpt lat="43.14299" lon="2.42941">
        <ele>382.2</ele>
        <time>2021-03-21T05:41:18Z</time>
      </trkpt>
      <trkpt lat="43.14301" lon="2.42968">
        <ele>381.5</ele>
        <time>2021-03-21T05:41:20Z</time>
      </trkpt>
      <trkpt lat="43.14303" lon="2.42982">
        <ele>381.3</ele>
        <time>2021-03-21T05:41:21Z</time>
      </trkpt>
      <trkpt lat="43.14307" lon="2.43008">
        <ele>380.9</ele>
        <time>2021-03-21T05:41:23Z</time>
      </trkpt>
      <trkpt lat="43.14307" lon="2.4302">
        <ele>380.6</ele>
        <time>2021-03-21T05:41:24Z</time>
      </trkpt>
      <trkpt lat="43.14295" lon="2.43037">
        <ele>379.7</ele>
        <time>2021-03-21T05:41:26Z</time>
      </trkpt>
      <trkpt lat="43.14277" lon="2.43038">
        <ele>378.6</ele>
        <time>2021-03-21T05:41:28Z</time>
      </trkpt>
      <trkpt lat="43.1426" lon="2.43032">
        <ele>377.7</ele>
        <time>2021-03-21T05:41:30Z</time>
      </trkpt>
      <trkpt lat="43.14252" lon="2.43025">
        <ele>377.2</ele>
        <time>2021-03-21T05:41:31Z</time>
      </trkpt>
      <trkpt lat="43.14241" lon="2.43005">
        <ele>376.3</ele>
        <time>2021-03-21T05:41:33Z</time>
      </trkpt>
      <trkpt lat="43.14239" lon="2.42993">
        <ele>375.7</ele>
        <time>2021-03-21T05:41:34Z</time>
      </trkpt>
      <trkpt lat="43.14238" lon="2.42969">
        <ele>374.7</ele>
        <time>2021-03-21T05:41:36Z</time>
      </trkpt>
      <trkpt lat="43.14238" lon="2.42946">
        <ele>373.8</ele>
        <time>2021-03-21T05:41:38Z</time>
      </trkpt>
      <trkpt lat="43.14238" lon="2.42936">
        <ele>373.3</ele>
        <time>2021-03-21T05:41:39Z</time>
      </trkpt>
      <trkpt lat="43.14234" lon="2.42915">
        <ele>372.4</ele>
        <time>2021-03-21T05:41:41Z</time>
      </trkpt>
      <trkpt lat="43.1423" lon="2.42906">
        <ele>371.9</ele>
        <time>2021-03-21T05:41:42Z</time>
      </trkpt>
      <trkpt lat="43.14218" lon="2.42891">
        <ele>371</ele>
        <time>2021-03-21T05:41:44Z</time>
      </trkpt>
      <trkpt lat="43.14212" lon="2.42884">
        <ele>370.4</ele>
        <time>2021-03-21T05:41:45Z</time>
      </trkpt>
      <trkpt lat="43.14206" lon="2.42875">
        <ele>369.9</ele>
        <time>2021-03-21T05:41:46Z</time>
      </trkpt>
      <trkpt lat="43.14197" lon="2.42854">
        <ele>368.8</ele>
        <time>2021-03-21T05:41:48Z</time>
      </trkpt>
      <trkpt lat="43.14195" lon="2.42842">
        <ele>368.2</ele>
        <time>2021-03-21T05:41:49Z</time>
      </trkpt>
      <trkpt lat="43.14195" lon="2.42816">
        <ele>367.1</ele>
        <time>2021-03-21T05:41:51Z</time>
      </trkpt>
      <trkpt lat="43.14196" lon="2.4279">
        <ele>366.2</ele>
        <time>2021-03-21T05:41:53Z</time>
      </trkpt>
      <trkpt lat="43.14195" lon="2.42764">
        <ele>365.2</ele>
        <time>2021-03-21T05:41:55Z</time>
      </trkpt>
      <trkpt lat="43.14191" lon="2.4274">
        <ele>364.4</ele>
        <time>2021-03-21T05:41:57Z</time>
      </trkpt>
      <trkpt lat="43.14188" lon="2.42727">
        <ele>363.9</ele>
        <time>2021-03-21T05:41:58Z</time>
      </trkpt>
      <trkpt lat="43.14179" lon="2.42705">
        <ele>362.8</ele>
        <time>2021-03-21T05:42:00Z</time>
      </trkpt>
      <trkpt lat="43.14164" lon="2.42689">
        <ele>361.5</ele>
        <time>2021-03-21T05:42:02Z</time>
      </trkpt>
      <trkpt lat="43.14155" lon="2.42682">
        <ele>360.9</ele>
        <time>2021-03-21T05:42:03Z</time>
      </trkpt>
      <trkpt lat="43.14145" lon="2.42675">
        <ele>360.3</ele>
        <time>2021-03-21T05:42:04Z</time>
      </trkpt>
      <trkpt lat="43.14128" lon="2.42662">
        <ele>359.1</ele>
        <time>2021-03-21T05:42:06Z</time>
      </trkpt>
      <trkpt lat="43.14118" lon="2.42657">
        <ele>358.5</ele>
        <time>2021-03-21T05:42:07Z</time>
      </trkpt>
      <trkpt lat="43.14109" lon="2.42654">
        <ele>357.9</ele>
        <time>2021-03-21T05:42:08Z</time>
      </trkpt>
      <trkpt lat="43.14099" lon="2.42651">
        <ele>357.3</ele>
        <time>2021-03-21T05:42:09Z</time>
      </trkpt>
      <trkpt lat="43.14079" lon="2.42646">
        <ele>356.1</ele>
        <time>2021-03-21T05:42:11Z</time>
      </trkpt>
      <trkpt lat="43.14069" lon="2.42643">
        <ele>355.5</ele>
        <time>2021-03-21T05:42:12Z</time>
      </trkpt>
      <trkpt lat="43.1405" lon="2.42638">
        <ele>354.5</ele>
        <time>2021-03-21T05:42:14Z</time>
      </trkpt>
      <trkpt lat="43.1404" lon="2.42636">
        <ele>353.9</ele>
        <time>2021-03-21T05:42:15Z</time>
      </trkpt>
      <trkpt lat="43.14021" lon="2.42633">
        <ele>352.9</ele>
        <time>2021-03-21T05:42:17Z</time>
      </trkpt>
      <trkpt lat="43.14011" lon="2.4263">
        <ele>352.4</ele>
        <time>2021-03-21T05:42:18Z</time>
      </trkpt>
      <trkpt lat="43.14002" lon="2.42628">
        <ele>351.9</ele>
        <time>2021-03-21T05:42:19Z</time>
      </trkpt>
      <trkpt lat="43.13982" lon="2.42624">
        <ele>350.8</ele>
        <time>2021-03-21T05:42:21Z</time>
      </trkpt>
      <trkpt lat="43.13972" lon="2.42624">
        <ele>350.3</ele>
        <time>2021-03-21T05:42:22Z</time>
      </trkpt>
      <trkpt lat="43.13962" lon="2.42628">
        <ele>349.7</ele>
        <time>2021-03-21T05:42:23Z</time>
      </trkpt>
      <trkpt lat="43.13953" lon="2.42636">
        <ele>349.1</ele>
        <time>2021-03-21T05:42:24Z</time>
      </trkpt>
      <trkpt lat="43.13939" lon="2.42659">
        <ele>348</ele>
        <time>2021-03-21T05:42:26Z</time>
      </trkpt>
      <trkpt lat="43.13934" lon="2.42673">
        <ele>347.5</ele>
        <time>2021-03-21T05:42:27Z</time>
      </trkpt>
      <trkpt lat="43.13929" lon="2.42685">
        <ele>347.2</ele>
        <time>2021-03-21T05:42:28Z</time>
      </trkpt>
      <trkpt lat="43.13924" lon="2.42694">
        <ele>346.9</ele>
        <time>2021-03-21T05:42:29Z</time>
      </trkpt>
      <trkpt lat="43.13911" lon="2.42704">
        <ele>346.4</ele>
        <time>2021-03-21T05:42:31Z</time>
      </trkpt>
      <trkpt lat="43.13897" lon="2.42697">
        <ele>345.9</ele>
        <time>2021-03-21T05:42:33Z</time>
      </trkpt>
      <trkpt lat="43.13893" lon="2.42692">
        <ele>345.7</ele>
        <time>2021-03-21T05:42:34Z</time>
      </trkpt>
      <trkpt lat="43.13892" lon="2.42687">
        <ele>345.6</ele>
        <time>2021-03-21T05:42:35Z</time>
      </trkpt>
      <trkpt lat="43.13886" lon="2.42679">
        <ele>345.4</ele>
        <time>2021-03-21T05:42:37Z</time>
      </trkpt>
      <trkpt lat="43.13877" lon="2.42668">
        <ele>345.1</ele>
        <time>2021-03-21T05:42:39Z</time>
      </trkpt>
      <trkpt lat="43.13872" lon="2.42663">
        <ele>345</ele>
        <time>2021-03-21T05:42:40Z</time>
      </trkpt>
      <trkpt lat="43.13866" lon="2.42658">
        <ele>344.9</ele>
        <time>2021-03-21T05:42:41Z</time>
      </trkpt>
      <trkpt lat="43.13852" lon="2.4265">
        <ele>344.6</ele>
        <time>2021-03-21T05:42:43Z</time>
      </trkpt>
      <trkpt lat="43.13839" lon="2.42643">
        <ele>344.3</ele>
        <time>2021-03-21T05:42:45Z</time>
      </trkpt>
      <trkpt lat="43.13833" lon="2.4264">
        <ele>344.2</ele>
        <time>2021-03-21T05:42:46Z</time>
      </trkpt>
      <trkpt lat="43.13825" lon="2.42637">
        <ele>344.1</ele>
        <time>2021-03-21T05:42:47Z</time>
      </trkpt>
      <trkpt lat="43.13818" lon="2.42634">
        <ele>344</ele>
        <time>2021-03-21T05:42:48Z</time>
      </trkpt>
      <trkpt lat="43.13805" lon="2.42624">
        <ele>343.8</ele>
        <time>2021-03-21T05:42:50Z</time>
      </trkpt>
      <trkpt lat="43.13799" lon="2.42615">
        <ele>343.7</ele>
        <time>2021-03-21T05:42:51Z</time>
      </trkpt>
      <trkpt lat="43.13792" lon="2.42597">
        <ele>343.5</ele>
        <time>2021-03-21T05:42:53Z</time>
      </trkpt>
      <trkpt lat="43.13788" lon="2.42588">
        <ele>343.4</ele>
        <time>2021-03-21T05:42:54Z</time>
      </trkpt>
      <trkpt lat="43.13779" lon="2.42575">
        <ele>343.2</ele>
        <time>2021-03-21T05:42:56Z</time>
      </trkpt>
      <trkpt lat="43.13772" lon="2.4257">
        <ele>343.1</ele>
        <time>2021-03-21T05:42:57Z</time>
      </trkpt>
      <trkpt lat="43.13765" lon="2.42567">
        <ele>343</ele>
        <time>2021-03-21T05:42:58Z</time>
      </trkpt>
      <trkpt lat="43.1375" lon="2.42562">
        <ele>342.7</ele>
        <time>2021-03-21T05:43:00Z</time>
      </trkpt>
      <trkpt lat="43.13735" lon="2.42557">
        <ele>342.4</ele>
        <time>2021-03-21T05:43:02Z</time>
      </trkpt>
      <trkpt lat="43.13727" lon="2.42556">
        <ele>342.3</ele>
        <time>2021-03-21T05:43:03Z</time>
      </trkpt>
      <trkpt lat="43.13719" lon="2.42555">
        <ele>342.2</ele>
        <time>2021-03-21T05:43:04Z</time>
      </trkpt>
      <trkpt lat="43.13703" lon="2.42552">
        <ele>342</ele>
        <time>2021-03-21T05:43:06Z</time>
      </trkpt>
      <trkpt lat="43.13687" lon="2.42542">
        <ele>341.7</ele>
        <time>2021-03-21T05:43:08Z</time>
      </trkpt>
      <trkpt lat="43.13673" lon="2.42529">
        <ele>341.4</ele>
        <time>2021-03-21T05:43:10Z</time>
      </trkpt>
      <trkpt lat="43.13667" lon="2.42522">
        <ele>341.4</ele>
        <time>2021-03-21T05:43:11Z</time>
      </trkpt>
      <trkpt lat="43.1366" lon="2.42515">
        <ele>341.3</ele>
        <time>2021-03-21T05:43:12Z</time>
      </trkpt>
      <trkpt lat="43.13647" lon="2.42507">
        <ele>341.2</ele>
        <time>2021-03-21T05:43:14Z</time>
      </trkpt>
      <trkpt lat="43.13639" lon="2.42507">
        <ele>341.2</ele>
        <time>2021-03-21T05:43:15Z</time>
      </trkpt>
      <trkpt lat="43.13632" lon="2.42512">
        <ele>341.2</ele>
        <time>2021-03-21T05:43:16Z</time>
      </trkpt>
      <trkpt lat="43.1362" lon="2.4253">
        <ele>341.1</ele>
        <time>2021-03-21T05:43:18Z</time>
      </trkpt>
      <trkpt lat="43.13616" lon="2.42541">
        <ele>341.1</ele>
        <time>2021-03-21T05:43:19Z</time>
      </trkpt>
      <trkpt lat="43.13613" lon="2.42551">
        <ele>341.1</ele>
        <time>2021-03-21T05:43:20Z</time>
      </trkpt>
      <trkpt lat="43.13606" lon="2.42569">
        <ele>341</ele>
        <time>2021-03-21T05:43:22Z</time>
      </trkpt>
      <trkpt lat="43.13602" lon="2.42577">
        <ele>341</ele>
        <time>2021-03-21T05:43:23Z</time>
      </trkpt>
      <trkpt lat="43.13592" lon="2.42592">
        <ele>341</ele>
        <time>2021-03-21T05:43:25Z</time>
      </trkpt>
      <trkpt lat="43.13586" lon="2.42599">
        <ele>341</ele>
        <time>2021-03-21T05:43:26Z</time>
      </trkpt>
      <trkpt lat="43.13572" lon="2.42608">
        <ele>340.9</ele>
        <time>2021-03-21T05:43:28Z</time>
      </trkpt>
      <trkpt lat="43.13557" lon="2.42615">
        <ele>340.9</ele>
        <time>2021-03-21T05:43:30Z</time>
      </trkpt>
      <trkpt lat="43.13551" lon="2.42619">
        <ele>340.9</ele>
        <time>2021-03-21T05:43:31Z</time>
      </trkpt>
      <trkpt lat="43.1354" lon="2.42631">
        <ele>340.8</ele>
        <time>2021-03-21T05:43:33Z</time>
      </trkpt>
      <trkpt lat="43.13535" lon="2.42638">
        <ele>340.7</ele>
        <time>2021-03-21T05:43:34Z</time>
      </trkpt>
      <trkpt lat="43.13531" lon="2.42646">
        <ele>340.6</ele>
        <time>2021-03-21T05:43:35Z</time>
      </trkpt>
      <trkpt lat="43.13523" lon="2.42664">
        <ele>340</ele>
        <time>2021-03-21T05:43:37Z</time>
      </trkpt>
      <trkpt lat="43.13514" lon="2.42684">
        <ele>339.1</ele>
        <time>2021-03-21T05:43:39Z</time>
      </trkpt>
      <trkpt lat="43.13507" lon="2.42707">
        <ele>338.1</ele>
        <time>2021-03-21T05:43:41Z</time>
      </trkpt>
      <trkpt lat="43.13505" lon="2.42729">
        <ele>337.3</ele>
        <time>2021-03-21T05:43:43Z</time>
      </trkpt>
      <trkpt lat="43.13505" lon="2.42736">
        <ele>337</ele>
        <time>2021-03-21T05:43:44Z</time>
      </trkpt>
      <trkpt lat="43.13508" lon="2.42738">
        <ele>336.8</ele>
        <time>2021-03-21T05:43:45Z</time>
      </trkpt>
      <trkpt lat="43.13509" lon="2.42738">
        <ele>336.8</ele>
        <time>2021-03-21T05:43:46Z</time>
      </trkpt>
      <trkpt lat="43.13511" lon="2.42736">
        <ele>336.7</ele>
        <time>2021-03-21T05:43:47Z</time>
      </trkpt>
      <trkpt lat="43.13512" lon="2.42733">
        <ele>336.5</ele>
        <time>2021-03-21T05:43:49Z</time>
      </trkpt>
      <trkpt lat="43.13512" lon="2.42731">
        <ele>336.4</ele>
        <time>2021-03-21T05:43:51Z</time>
      </trkpt>
      <trkpt lat="43.13512" lon="2.4273">
        <ele>336.4</ele>
        <time>2021-03-21T05:43:53Z</time>
      </trkpt>
      <trkpt lat="43.13511" lon="2.42728">
        <ele>336.3</ele>
        <time>2021-03-21T05:43:54Z</time>
      </trkpt>
      <trkpt lat="43.13511" lon="2.42724">
        <ele>336.1</ele>
        <time>2021-03-21T05:43:56Z</time>
      </trkpt>
      <trkpt lat="43.13511" lon="2.42721">
        <ele>336</ele>
        <time>2021-03-21T05:43:57Z</time>
      </trkpt>
      <trkpt lat="43.13511" lon="2.4272">
        <ele>335.9</ele>
        <time>2021-03-21T05:43:58Z</time>
      </trkpt>
      <trkpt lat="43.13511" lon="2.42718">
        <ele>335.9</ele>
        <time>2021-03-21T05:43:59Z</time>
      </trkpt>
      <trkpt lat="43.13511" lon="2.42718">
        <ele>335.9</ele>
        <time>2021-03-21T05:44:00Z</time>
      </trkpt>
      <trkpt lat="43.13511" lon="2.42718">
        <ele>335.9</ele>
        <time>2021-03-21T05:44:01Z</time>
      </trkpt>
      <trkpt lat="43.13511" lon="2.42716">
        <ele>335.8</ele>
        <time>2021-03-21T05:44:03Z</time>
      </trkpt>
      <trkpt lat="43.13509" lon="2.42716">
        <ele>335.7</ele>
        <time>2021-03-21T05:44:04Z</time>
      </trkpt>
      <trkpt lat="43.13506" lon="2.42715">
        <ele>335.5</ele>
        <time>2021-03-21T05:44:06Z</time>
      </trkpt>
      <trkpt lat="43.13505" lon="2.42715">
        <ele>335.4</ele>
        <time>2021-03-21T05:44:07Z</time>
      </trkpt>
      <trkpt lat="43.13503" lon="2.42715">
        <ele>335.4</ele>
        <time>2021-03-21T05:44:08Z</time>
      </trkpt>
      <trkpt lat="43.13503" lon="2.42715">
        <ele>335.3</ele>
        <time>2021-03-21T05:44:09Z</time>
      </trkpt>
      <trkpt lat="43.13502" lon="2.42716">
        <ele>335.3</ele>
        <time>2021-03-21T05:44:11Z</time>
      </trkpt>
      <trkpt lat="43.13503" lon="2.42716">
        <ele>335.2</ele>
        <time>2021-03-21T05:44:12Z</time>
      </trkpt>
      <trkpt lat="43.13504" lon="2.42716">
        <ele>335.2</ele>
        <time>2021-03-21T05:44:13Z</time>
      </trkpt>
      <trkpt lat="43.13504" lon="2.42716">
        <ele>335.2</ele>
        <time>2021-03-21T05:44:15Z</time>
      </trkpt>
      <trkpt lat="43.13504" lon="2.42716">
        <ele>335.2</ele>
        <time>2021-03-21T05:44:16Z</time>
      </trkpt>
      <trkpt lat="43.13505" lon="2.42717">
        <ele>335.1</ele>
        <time>2021-03-21T05:44:17Z</time>
      </trkpt>
      <trkpt lat="43.13505" lon="2.4272">
        <ele>335</ele>
        <time>2021-03-21T05:44:19Z</time>
      </trkpt>
      <trkpt lat="43.13507" lon="2.42724">
        <ele>334.8</ele>
        <time>2021-03-21T05:44:20Z</time>
      </trkpt>
      <trkpt lat="43.13507" lon="2.42726">
        <ele>334.7</ele>
        <time>2021-03-21T05:44:21Z</time>
      </trkpt>
      <trkpt lat="43.13507" lon="2.42727">
        <ele>334.7</ele>
        <time>2021-03-21T05:44:23Z</time>
      </trkpt>
      <trkpt lat="43.13507" lon="2.42728">
        <ele>334.7</ele>
        <time>2021-03-21T05:44:24Z</time>
      </trkpt>
      <trkpt lat="43.13506" lon="2.42737">
        <ele>334.3</ele>
        <time>2021-03-21T05:44:26Z</time>
      </trkpt>
      <trkpt lat="43.13503" lon="2.4275">
        <ele>333.8</ele>
        <time>2021-03-21T05:44:27Z</time>
      </trkpt>
      <trkpt lat="43.13494" lon="2.42774">
        <ele>332.7</ele>
        <time>2021-03-21T05:44:29Z</time>
      </trkpt>
      <trkpt lat="43.13486" lon="2.42791">
        <ele>331.9</ele>
        <time>2021-03-21T05:44:31Z</time>
      </trkpt>
      <trkpt lat="43.13482" lon="2.42799">
        <ele>331.5</ele>
        <time>2021-03-21T05:44:32Z</time>
      </trkpt>
      <trkpt lat="43.13477" lon="2.42806">
        <ele>331.2</ele>
        <time>2021-03-21T05:44:33Z</time>
      </trkpt>
      <trkpt lat="43.13467" lon="2.42822">
        <ele>330.4</ele>
        <time>2021-03-21T05:44:35Z</time>
      </trkpt>
      <trkpt lat="43.13458" lon="2.42839">
        <ele>329.7</ele>
        <time>2021-03-21T05:44:37Z</time>
      </trkpt>
      <trkpt lat="43.13448" lon="2.42857">
        <ele>328.9</ele>
        <time>2021-03-21T05:44:39Z</time>
      </trkpt>
      <trkpt lat="43.13442" lon="2.42867">
        <ele>328.5</ele>
        <time>2021-03-21T05:44:40Z</time>
      </trkpt>
      <trkpt lat="43.13432" lon="2.42887">
        <ele>327.6</ele>
        <time>2021-03-21T05:44:42Z</time>
      </trkpt>
      <trkpt lat="43.13421" lon="2.42908">
        <ele>326.7</ele>
        <time>2021-03-21T05:44:44Z</time>
      </trkpt>
      <trkpt lat="43.1341" lon="2.4293">
        <ele>325.7</ele>
        <time>2021-03-21T05:44:46Z</time>
      </trkpt>
      <trkpt lat="43.13404" lon="2.42941">
        <ele>325.2</ele>
        <time>2021-03-21T05:44:47Z</time>
      </trkpt>
      <trkpt lat="43.13398" lon="2.42952">
        <ele>324.7</ele>
        <time>2021-03-21T05:44:48Z</time>
      </trkpt>
      <trkpt lat="43.13386" lon="2.42976">
        <ele>323.8</ele>
        <time>2021-03-21T05:44:50Z</time>
      </trkpt>
      <trkpt lat="43.1338" lon="2.42988">
        <ele>323.4</ele>
        <time>2021-03-21T05:44:51Z</time>
      </trkpt>
      <trkpt lat="43.13375" lon="2.43001">
        <ele>322.9</ele>
        <time>2021-03-21T05:44:52Z</time>
      </trkpt>
      <trkpt lat="43.13365" lon="2.43025">
        <ele>321.9</ele>
        <time>2021-03-21T05:44:54Z</time>
      </trkpt>
      <trkpt lat="43.13352" lon="2.43048">
        <ele>320.9</ele>
        <time>2021-03-21T05:44:56Z</time>
      </trkpt>
      <trkpt lat="43.13346" lon="2.43058">
        <ele>320.4</ele>
        <time>2021-03-21T05:44:57Z</time>
      </trkpt>
      <trkpt lat="43.13333" lon="2.4308">
        <ele>319.4</ele>
        <time>2021-03-21T05:44:59Z</time>
      </trkpt>
      <trkpt lat="43.1332" lon="2.43101">
        <ele>318.4</ele>
        <time>2021-03-21T05:45:01Z</time>
      </trkpt>
      <trkpt lat="43.13308" lon="2.43123">
        <ele>317.4</ele>
        <time>2021-03-21T05:45:03Z</time>
      </trkpt>
      <trkpt lat="43.13302" lon="2.43134">
        <ele>317</ele>
        <time>2021-03-21T05:45:04Z</time>
      </trkpt>
      <trkpt lat="43.13296" lon="2.43145">
        <ele>316.5</ele>
        <time>2021-03-21T05:45:05Z</time>
      </trkpt>
      <trkpt lat="43.13283" lon="2.43167">
        <ele>315.5</ele>
        <time>2021-03-21T05:45:07Z</time>
      </trkpt>
      <trkpt lat="43.13276" lon="2.43178">
        <ele>315.1</ele>
        <time>2021-03-21T05:45:08Z</time>
      </trkpt>
      <trkpt lat="43.13263" lon="2.432">
        <ele>314.1</ele>
        <time>2021-03-21T05:45:10Z</time>
      </trkpt>
      <trkpt lat="43.13249" lon="2.43221">
        <ele>313.2</ele>
        <time>2021-03-21T05:45:12Z</time>
      </trkpt>
      <trkpt lat="43.13242" lon="2.43232">
        <ele>312.8</ele>
        <time>2021-03-21T05:45:13Z</time>
      </trkpt>
      <trkpt lat="43.13235" lon="2.43243">
        <ele>312.5</ele>
        <time>2021-03-21T05:45:14Z</time>
      </trkpt>
      <trkpt lat="43.13222" lon="2.43266">
        <ele>311.8</ele>
        <time>2021-03-21T05:45:16Z</time>
      </trkpt>
      <trkpt lat="43.13219" lon="2.43278">
        <ele>311.5</ele>
        <time>2021-03-21T05:45:17Z</time>
      </trkpt>
      <trkpt lat="43.13227" lon="2.43305">
        <ele>310.4</ele>
        <time>2021-03-21T05:45:19Z</time>
      </trkpt>
      <trkpt lat="43.13244" lon="2.4333">
        <ele>308.9</ele>
        <time>2021-03-21T05:45:21Z</time>
      </trkpt>
      <trkpt lat="43.13254" lon="2.43341">
        <ele>308.1</ele>
        <time>2021-03-21T05:45:22Z</time>
      </trkpt>
      <trkpt lat="43.13276" lon="2.43357">
        <ele>306.8</ele>
        <time>2021-03-21T05:45:24Z</time>
      </trkpt>
      <trkpt lat="43.13287" lon="2.43362">
        <ele>306.1</ele>
        <time>2021-03-21T05:45:25Z</time>
      </trkpt>
      <trkpt lat="43.13309" lon="2.43368">
        <ele>305.1</ele>
        <time>2021-03-21T05:45:27Z</time>
      </trkpt>
      <trkpt lat="43.13319" lon="2.43373">
        <ele>304.6</ele>
        <time>2021-03-21T05:45:28Z</time>
      </trkpt>
      <trkpt lat="43.13328" lon="2.43379">
        <ele>304.3</ele>
        <time>2021-03-21T05:45:29Z</time>
      </trkpt>
      <trkpt lat="43.13346" lon="2.43393">
        <ele>303.5</ele>
        <time>2021-03-21T05:45:31Z</time>
      </trkpt>
      <trkpt lat="43.1336" lon="2.4341">
        <ele>303.1</ele>
        <time>2021-03-21T05:45:33Z</time>
      </trkpt>
      <trkpt lat="43.13365" lon="2.43422">
        <ele>302.8</ele>
        <time>2021-03-21T05:45:34Z</time>
      </trkpt>
      <trkpt lat="43.13367" lon="2.43435">
        <ele>302.5</ele>
        <time>2021-03-21T05:45:35Z</time>
      </trkpt>
      <trkpt lat="43.13354" lon="2.43454">
        <ele>301.9</ele>
        <time>2021-03-21T05:45:37Z</time>
      </trkpt>
      <trkpt lat="43.13336" lon="2.43463">
        <ele>301.4</ele>
        <time>2021-03-21T05:45:39Z</time>
      </trkpt>
      <trkpt lat="43.13327" lon="2.43463">
        <ele>301.3</ele>
        <time>2021-03-21T05:45:40Z</time>
      </trkpt>
      <trkpt lat="43.13307" lon="2.43452">
        <ele>301.2</ele>
        <time>2021-03-21T05:45:42Z</time>
      </trkpt>
      <trkpt lat="43.13297" lon="2.43445">
        <ele>301.1</ele>
        <time>2021-03-21T05:45:43Z</time>
      </trkpt>
      <trkpt lat="43.13278" lon="2.43435">
        <ele>301</ele>
        <time>2021-03-21T05:45:45Z</time>
      </trkpt>
      <trkpt lat="43.1327" lon="2.43431">
        <ele>300.9</ele>
        <time>2021-03-21T05:45:46Z</time>
      </trkpt>
      <trkpt lat="43.13252" lon="2.43423">
        <ele>300.9</ele>
        <time>2021-03-21T05:45:48Z</time>
      </trkpt>
      <trkpt lat="43.13243" lon="2.43419">
        <ele>300.8</ele>
        <time>2021-03-21T05:45:49Z</time>
      </trkpt>
      <trkpt lat="43.13226" lon="2.43417">
        <ele>300.7</ele>
        <time>2021-03-21T05:45:51Z</time>
      </trkpt>
      <trkpt lat="43.13218" lon="2.43422">
        <ele>300.5</ele>
        <time>2021-03-21T05:45:52Z</time>
      </trkpt>
      <trkpt lat="43.13211" lon="2.43431">
        <ele>300.3</ele>
        <time>2021-03-21T05:45:53Z</time>
      </trkpt>
      <trkpt lat="43.132" lon="2.43456">
        <ele>300</ele>
        <time>2021-03-21T05:45:55Z</time>
      </trkpt>
      <trkpt lat="43.13192" lon="2.43482">
        <ele>299.6</ele>
        <time>2021-03-21T05:45:57Z</time>
      </trkpt>
      <trkpt lat="43.13184" lon="2.43508">
        <ele>299.3</ele>
        <time>2021-03-21T05:45:59Z</time>
      </trkpt>
      <trkpt lat="43.13176" lon="2.43534">
        <ele>299.1</ele>
        <time>2021-03-21T05:46:01Z</time>
      </trkpt>
      <trkpt lat="43.13172" lon="2.43546">
        <ele>298.9</ele>
        <time>2021-03-21T05:46:02Z</time>
      </trkpt>
      <trkpt lat="43.13163" lon="2.4357">
        <ele>298.6</ele>
        <time>2021-03-21T05:46:04Z</time>
      </trkpt>
      <trkpt lat="43.13152" lon="2.43593">
        <ele>298.2</ele>
        <time>2021-03-21T05:46:06Z</time>
      </trkpt>
      <trkpt lat="43.13141" lon="2.43615">
        <ele>297.8</ele>
        <time>2021-03-21T05:46:08Z</time>
      </trkpt>
      <trkpt lat="43.13127" lon="2.43635">
        <ele>297.4</ele>
        <time>2021-03-21T05:46:10Z</time>
      </trkpt>
      <trkpt lat="43.13119" lon="2.43644">
        <ele>297.1</ele>
        <time>2021-03-21T05:46:11Z</time>
      </trkpt>
      <trkpt lat="43.131" lon="2.43656">
        <ele>296.7</ele>
        <time>2021-03-21T05:46:13Z</time>
      </trkpt>
      <trkpt lat="43.1308" lon="2.43663">
        <ele>296.4</ele>
        <time>2021-03-21T05:46:15Z</time>
      </trkpt>
      <trkpt lat="43.13061" lon="2.43669">
        <ele>296.2</ele>
        <time>2021-03-21T05:46:17Z</time>
      </trkpt>
      <trkpt lat="43.13051" lon="2.43669">
        <ele>296.2</ele>
        <time>2021-03-21T05:46:18Z</time>
      </trkpt>
      <trkpt lat="43.13041" lon="2.43667">
        <ele>296.2</ele>
        <time>2021-03-21T05:46:19Z</time>
      </trkpt>
      <trkpt lat="43.13027" lon="2.43662">
        <ele>296.2</ele>
        <time>2021-03-21T05:46:21Z</time>
      </trkpt>
      <trkpt lat="43.13016" lon="2.43667">
        <ele>296.2</ele>
        <time>2021-03-21T05:46:23Z</time>
      </trkpt>
      <trkpt lat="43.13009" lon="2.43686">
        <ele>296</ele>
        <time>2021-03-21T05:46:25Z</time>
      </trkpt>
      <trkpt lat="43.13006" lon="2.43697">
        <ele>296</ele>
        <time>2021-03-21T05:46:26Z</time>
      </trkpt>
      <trkpt lat="43.13004" lon="2.4371">
        <ele>295.9</ele>
        <time>2021-03-21T05:46:27Z</time>
      </trkpt>
      <trkpt lat="43.12998" lon="2.43733">
        <ele>296</ele>
        <time>2021-03-21T05:46:29Z</time>
      </trkpt>
      <trkpt lat="43.12995" lon="2.43744">
        <ele>296</ele>
        <time>2021-03-21T05:46:30Z</time>
      </trkpt>
      <trkpt lat="43.12989" lon="2.43765">
        <ele>296</ele>
        <time>2021-03-21T05:46:32Z</time>
      </trkpt>
      <trkpt lat="43.12987" lon="2.43775">
        <ele>296.1</ele>
        <time>2021-03-21T05:46:33Z</time>
      </trkpt>
      <trkpt lat="43.12981" lon="2.43794">
        <ele>296.1</ele>
        <time>2021-03-21T05:46:35Z</time>
      </trkpt>
      <trkpt lat="43.12975" lon="2.43812">
        <ele>296.2</ele>
        <time>2021-03-21T05:46:37Z</time>
      </trkpt>
      <trkpt lat="43.12972" lon="2.43821">
        <ele>296.2</ele>
        <time>2021-03-21T05:46:38Z</time>
      </trkpt>
      <trkpt lat="43.12966" lon="2.43838">
        <ele>296.3</ele>
        <time>2021-03-21T05:46:40Z</time>
      </trkpt>
      <trkpt lat="43.12963" lon="2.43846">
        <ele>296.3</ele>
        <time>2021-03-21T05:46:41Z</time>
      </trkpt>
      <trkpt lat="43.12956" lon="2.43863">
        <ele>296.4</ele>
        <time>2021-03-21T05:46:43Z</time>
      </trkpt>
      <trkpt lat="43.12948" lon="2.4388">
        <ele>296.6</ele>
        <time>2021-03-21T05:46:45Z</time>
      </trkpt>
      <trkpt lat="43.12945" lon="2.43889">
        <ele>296.7</ele>
        <time>2021-03-21T05:46:46Z</time>
      </trkpt>
      <trkpt lat="43.12939" lon="2.43907">
        <ele>296.8</ele>
        <time>2021-03-21T05:46:48Z</time>
      </trkpt>
      <trkpt lat="43.12936" lon="2.43917">
        <ele>297</ele>
        <time>2021-03-21T05:46:49Z</time>
      </trkpt>
      <trkpt lat="43.12931" lon="2.43936">
        <ele>297.2</ele>
        <time>2021-03-21T05:46:51Z</time>
      </trkpt>
      <trkpt lat="43.12926" lon="2.43956">
        <ele>297.4</ele>
        <time>2021-03-21T05:46:53Z</time>
      </trkpt>
      <trkpt lat="43.12926" lon="2.43967">
        <ele>297.5</ele>
        <time>2021-03-21T05:46:54Z</time>
      </trkpt>
      <trkpt lat="43.12933" lon="2.43987">
        <ele>297.7</ele>
        <time>2021-03-21T05:46:56Z</time>
      </trkpt>
      <trkpt lat="43.1295" lon="2.43999">
        <ele>297.7</ele>
        <time>2021-03-21T05:46:58Z</time>
      </trkpt>
      <trkpt lat="43.12959" lon="2.44001">
        <ele>297.8</ele>
        <time>2021-03-21T05:46:59Z</time>
      </trkpt>
      <trkpt lat="43.12976" lon="2.44006">
        <ele>297.7</ele>
        <time>2021-03-21T05:47:01Z</time>
      </trkpt>
      <trkpt lat="43.12992" lon="2.44011">
        <ele>297.7</ele>
        <time>2021-03-21T05:47:03Z</time>
      </trkpt>
      <trkpt lat="43.13007" lon="2.44018">
        <ele>297.7</ele>
        <time>2021-03-21T05:47:05Z</time>
      </trkpt>
      <trkpt lat="43.13014" lon="2.44023">
        <ele>297.7</ele>
        <time>2021-03-21T05:47:06Z</time>
      </trkpt>
      <trkpt lat="43.13026" lon="2.44037">
        <ele>297.9</ele>
        <time>2021-03-21T05:47:08Z</time>
      </trkpt>
      <trkpt lat="43.13034" lon="2.44055">
        <ele>298</ele>
        <time>2021-03-21T05:47:10Z</time>
      </trkpt>
      <trkpt lat="43.13037" lon="2.44064">
        <ele>298</ele>
        <time>2021-03-21T05:47:11Z</time>
      </trkpt>
      <trkpt lat="43.13039" lon="2.44073">
        <ele>298</ele>
        <time>2021-03-21T05:47:12Z</time>
      </trkpt>
      <trkpt lat="43.13044" lon="2.44092">
        <ele>298</ele>
        <time>2021-03-21T05:47:14Z</time>
      </trkpt>
      <trkpt lat="43.13047" lon="2.44101">
        <ele>298.1</ele>
        <time>2021-03-21T05:47:15Z</time>
      </trkpt>
      <trkpt lat="43.13052" lon="2.44119">
        <ele>298.2</ele>
        <time>2021-03-21T05:47:17Z</time>
      </trkpt>
      <trkpt lat="43.13054" lon="2.44129">
        <ele>298.2</ele>
        <time>2021-03-21T05:47:18Z</time>
      </trkpt>
      <trkpt lat="43.13057" lon="2.44149">
        <ele>298.2</ele>
        <time>2021-03-21T05:47:20Z</time>
      </trkpt>
      <trkpt lat="43.13057" lon="2.44168">
        <ele>298.3</ele>
        <time>2021-03-21T05:47:22Z</time>
      </trkpt>
      <trkpt lat="43.13055" lon="2.44188">
        <ele>298.3</ele>
        <time>2021-03-21T05:47:24Z</time>
      </trkpt>
      <trkpt lat="43.13052" lon="2.44208">
        <ele>298.4</ele>
        <time>2021-03-21T05:47:26Z</time>
      </trkpt>
      <trkpt lat="43.13047" lon="2.44228">
        <ele>298.4</ele>
        <time>2021-03-21T05:47:28Z</time>
      </trkpt>
      <trkpt lat="43.13042" lon="2.44247">
        <ele>298.4</ele>
        <time>2021-03-21T05:47:30Z</time>
      </trkpt>
      <trkpt lat="43.13039" lon="2.44258">
        <ele>298.4</ele>
        <time>2021-03-21T05:47:31Z</time>
      </trkpt>
      <trkpt lat="43.13033" lon="2.44279">
        <ele>298.5</ele>
        <time>2021-03-21T05:47:33Z</time>
      </trkpt>
      <trkpt lat="43.13031" lon="2.4429">
        <ele>298.6</ele>
        <time>2021-03-21T05:47:34Z</time>
      </trkpt>
      <trkpt lat="43.13025" lon="2.4431">
        <ele>298.7</ele>
        <time>2021-03-21T05:47:36Z</time>
      </trkpt>
      <trkpt lat="43.13022" lon="2.44321">
        <ele>298.7</ele>
        <time>2021-03-21T05:47:37Z</time>
      </trkpt>
      <trkpt lat="43.1302" lon="2.44331">
        <ele>298.8</ele>
        <time>2021-03-21T05:47:38Z</time>
      </trkpt>
      <trkpt lat="43.13011" lon="2.4435">
        <ele>299</ele>
        <time>2021-03-21T05:47:40Z</time>
      </trkpt>
      <trkpt lat="43.12999" lon="2.44365">
        <ele>299.2</ele>
        <time>2021-03-21T05:47:42Z</time>
      </trkpt>
      <trkpt lat="43.12992" lon="2.44371">
        <ele>299.4</ele>
        <time>2021-03-21T05:47:43Z</time>
      </trkpt>
      <trkpt lat="43.12977" lon="2.44382">
        <ele>299.7</ele>
        <time>2021-03-21T05:47:45Z</time>
      </trkpt>
      <trkpt lat="43.1297" lon="2.44388">
        <ele>299.8</ele>
        <time>2021-03-21T05:47:46Z</time>
      </trkpt>
      <trkpt lat="43.12958" lon="2.44402">
        <ele>300</ele>
        <time>2021-03-21T05:47:48Z</time>
      </trkpt>
      <trkpt lat="43.12953" lon="2.44411">
        <ele>300.1</ele>
        <time>2021-03-21T05:47:49Z</time>
      </trkpt>
      <trkpt lat="43.12944" lon="2.4443">
        <ele>300.3</ele>
        <time>2021-03-21T05:47:51Z</time>
      </trkpt>
      <trkpt lat="43.12941" lon="2.4444">
        <ele>300.3</ele>
        <time>2021-03-21T05:47:52Z</time>
      </trkpt>
      <trkpt lat="43.12938" lon="2.4445">
        <ele>300.4</ele>
        <time>2021-03-21T05:47:53Z</time>
      </trkpt>
      <trkpt lat="43.12931" lon="2.44469">
        <ele>300.6</ele>
        <time>2021-03-21T05:47:55Z</time>
      </trkpt>
      <trkpt lat="43.12927" lon="2.44479">
        <ele>300.7</ele>
        <time>2021-03-21T05:47:56Z</time>
      </trkpt>
      <trkpt lat="43.12918" lon="2.44498">
        <ele>300.9</ele>
        <time>2021-03-21T05:47:58Z</time>
      </trkpt>
      <trkpt lat="43.1291" lon="2.44517">
        <ele>301.1</ele>
        <time>2021-03-21T05:48:00Z</time>
      </trkpt>
      <trkpt lat="43.12906" lon="2.44527">
        <ele>301.1</ele>
        <time>2021-03-21T05:48:01Z</time>
      </trkpt>
      <trkpt lat="43.12904" lon="2.44538">
        <ele>301.2</ele>
        <time>2021-03-21T05:48:02Z</time>
      </trkpt>
      <trkpt lat="43.12901" lon="2.4456">
        <ele>301.3</ele>
        <time>2021-03-21T05:48:04Z</time>
      </trkpt>
      <trkpt lat="43.12902" lon="2.44571">
        <ele>301.3</ele>
        <time>2021-03-21T05:48:05Z</time>
      </trkpt>
      <trkpt lat="43.12907" lon="2.44594">
        <ele>301.3</ele>
        <time>2021-03-21T05:48:07Z</time>
      </trkpt>
      <trkpt lat="43.12909" lon="2.44605">
        <ele>301.3</ele>
        <time>2021-03-21T05:48:08Z</time>
      </trkpt>
      <trkpt lat="43.12912" lon="2.44627">
        <ele>301.4</ele>
        <time>2021-03-21T05:48:10Z</time>
      </trkpt>
      <trkpt lat="43.12913" lon="2.44649">
        <ele>301.5</ele>
        <time>2021-03-21T05:48:12Z</time>
      </trkpt>
      <trkpt lat="43.12912" lon="2.4466">
        <ele>301.5</ele>
        <time>2021-03-21T05:48:13Z</time>
      </trkpt>
      <trkpt lat="43.12912" lon="2.44671">
        <ele>301.6</ele>
        <time>2021-03-21T05:48:14Z</time>
      </trkpt>
      <trkpt lat="43.12911" lon="2.44693">
        <ele>301.8</ele>
        <time>2021-03-21T05:48:16Z</time>
      </trkpt>
      <trkpt lat="43.1291" lon="2.44704">
        <ele>301.9</ele>
        <time>2021-03-21T05:48:17Z</time>
      </trkpt>
      <trkpt lat="43.12909" lon="2.44725">
        <ele>302</ele>
        <time>2021-03-21T05:48:19Z</time>
      </trkpt>
      <trkpt lat="43.12908" lon="2.44735">
        <ele>302</ele>
        <time>2021-03-21T05:48:20Z</time>
      </trkpt>
      <trkpt lat="43.12903" lon="2.44755">
        <ele>302.2</ele>
        <time>2021-03-21T05:48:22Z</time>
      </trkpt>
      <trkpt lat="43.12895" lon="2.44773">
        <ele>302.5</ele>
        <time>2021-03-21T05:48:24Z</time>
      </trkpt>
      <trkpt lat="43.12891" lon="2.44782">
        <ele>302.6</ele>
        <time>2021-03-21T05:48:25Z</time>
      </trkpt>
      <trkpt lat="43.12887" lon="2.44791">
        <ele>302.8</ele>
        <time>2021-03-21T05:48:26Z</time>
      </trkpt>
      <trkpt lat="43.12879" lon="2.4481">
        <ele>303.2</ele>
        <time>2021-03-21T05:48:28Z</time>
      </trkpt>
      <trkpt lat="43.12872" lon="2.44829">
        <ele>303.6</ele>
        <time>2021-03-21T05:48:30Z</time>
      </trkpt>
      <trkpt lat="43.12867" lon="2.44848">
        <ele>304</ele>
        <time>2021-03-21T05:48:32Z</time>
      </trkpt>
      <trkpt lat="43.12864" lon="2.44857">
        <ele>304.2</ele>
        <time>2021-03-21T05:48:33Z</time>
      </trkpt>
      <trkpt lat="43.1286" lon="2.44876">
        <ele>304.6</ele>
        <time>2021-03-21T05:48:35Z</time>
      </trkpt>
      <trkpt lat="43.12858" lon="2.44885">
        <ele>304.8</ele>
        <time>2021-03-21T05:48:36Z</time>
      </trkpt>
      <trkpt lat="43.12855" lon="2.44904">
        <ele>305.2</ele>
        <time>2021-03-21T05:48:38Z</time>
      </trkpt>
      <trkpt lat="43.12852" lon="2.44923">
        <ele>305.6</ele>
        <time>2021-03-21T05:48:40Z</time>
      </trkpt>
      <trkpt lat="43.12847" lon="2.44941">
        <ele>306.1</ele>
        <time>2021-03-21T05:48:42Z</time>
      </trkpt>
      <trkpt lat="43.1284" lon="2.44958">
        <ele>306.7</ele>
        <time>2021-03-21T05:48:44Z</time>
      </trkpt>
      <trkpt lat="43.12835" lon="2.44965">
        <ele>306.9</ele>
        <time>2021-03-21T05:48:45Z</time>
      </trkpt>
      <trkpt lat="43.12829" lon="2.44971">
        <ele>307.1</ele>
        <time>2021-03-21T05:48:46Z</time>
      </trkpt>
      <trkpt lat="43.12818" lon="2.44983">
        <ele>307.6</ele>
        <time>2021-03-21T05:48:48Z</time>
      </trkpt>
      <trkpt lat="43.12813" lon="2.4499">
        <ele>307.8</ele>
        <time>2021-03-21T05:48:49Z</time>
      </trkpt>
      <trkpt lat="43.12809" lon="2.45009">
        <ele>308.4</ele>
        <time>2021-03-21T05:48:51Z</time>
      </trkpt>
      <trkpt lat="43.12811" lon="2.45029">
        <ele>309</ele>
        <time>2021-03-21T05:48:53Z</time>
      </trkpt>
      <trkpt lat="43.12814" lon="2.4505">
        <ele>309.6</ele>
        <time>2021-03-21T05:48:55Z</time>
      </trkpt>
      <trkpt lat="43.12815" lon="2.45061">
        <ele>310</ele>
        <time>2021-03-21T05:48:56Z</time>
      </trkpt>
      <trkpt lat="43.12813" lon="2.45072">
        <ele>310.4</ele>
        <time>2021-03-21T05:48:57Z</time>
      </trkpt>
      <trkpt lat="43.12803" lon="2.45086">
        <ele>311</ele>
        <time>2021-03-21T05:48:59Z</time>
      </trkpt>
      <trkpt lat="43.12793" lon="2.45097">
        <ele>311.7</ele>
        <time>2021-03-21T05:49:01Z</time>
      </trkpt>
      <trkpt lat="43.12785" lon="2.45109">
        <ele>312.3</ele>
        <time>2021-03-21T05:49:03Z</time>
      </trkpt>
      <trkpt lat="43.1278" lon="2.45124">
        <ele>313</ele>
        <time>2021-03-21T05:49:05Z</time>
      </trkpt>
      <trkpt lat="43.12779" lon="2.45131">
        <ele>313.4</ele>
        <time>2021-03-21T05:49:06Z</time>
      </trkpt>
      <trkpt lat="43.12779" lon="2.45146">
        <ele>314.2</ele>
        <time>2021-03-21T05:49:08Z</time>
      </trkpt>
      <trkpt lat="43.1278" lon="2.45154">
        <ele>314.6</ele>
        <time>2021-03-21T05:49:09Z</time>
      </trkpt>
      <trkpt lat="43.12785" lon="2.45167">
        <ele>315.4</ele>
        <time>2021-03-21T05:49:11Z</time>
      </trkpt>
      <trkpt lat="43.12792" lon="2.4518">
        <ele>316.2</ele>
        <time>2021-03-21T05:49:13Z</time>
      </trkpt>
      <trkpt lat="43.128" lon="2.45191">
        <ele>316.9</ele>
        <time>2021-03-21T05:49:15Z</time>
      </trkpt>
      <trkpt lat="43.12805" lon="2.45196">
        <ele>317.2</ele>
        <time>2021-03-21T05:49:16Z</time>
      </trkpt>
      <trkpt lat="43.12813" lon="2.45205">
        <ele>317.5</ele>
        <time>2021-03-21T05:49:18Z</time>
      </trkpt>
      <trkpt lat="43.12817" lon="2.45209">
        <ele>317.6</ele>
        <time>2021-03-21T05:49:19Z</time>
      </trkpt>
      <trkpt lat="43.12821" lon="2.45214">
        <ele>317.7</ele>
        <time>2021-03-21T05:49:20Z</time>
      </trkpt>
      <trkpt lat="43.12828" lon="2.45225">
        <ele>317.7</ele>
        <time>2021-03-21T05:49:22Z</time>
      </trkpt>
      <trkpt lat="43.12832" lon="2.45232">
        <ele>317.7</ele>
        <time>2021-03-21T05:49:23Z</time>
      </trkpt>
      <trkpt lat="43.1284" lon="2.45246">
        <ele>317.5</ele>
        <time>2021-03-21T05:49:25Z</time>
      </trkpt>
      <trkpt lat="43.12846" lon="2.45261">
        <ele>317.4</ele>
        <time>2021-03-21T05:49:27Z</time>
      </trkpt>
      <trkpt lat="43.12849" lon="2.45269">
        <ele>317.3</ele>
        <time>2021-03-21T05:49:28Z</time>
      </trkpt>
      <trkpt lat="43.12854" lon="2.45286">
        <ele>317</ele>
        <time>2021-03-21T05:49:30Z</time>
      </trkpt>
      <trkpt lat="43.12855" lon="2.45295">
        <ele>316.9</ele>
        <time>2021-03-21T05:49:31Z</time>
      </trkpt>
      <trkpt lat="43.12856" lon="2.45305">
        <ele>316.7</ele>
        <time>2021-03-21T05:49:32Z</time>
      </trkpt>
      <trkpt lat="43.12856" lon="2.45315">
        <ele>316.6</ele>
        <time>2021-03-21T05:49:33Z</time>
      </trkpt>
      <trkpt lat="43.12856" lon="2.45333">
        <ele>316.2</ele>
        <time>2021-03-21T05:49:35Z</time>
      </trkpt>
      <trkpt lat="43.12856" lon="2.45343">
        <ele>316.1</ele>
        <time>2021-03-21T05:49:36Z</time>
      </trkpt>
      <trkpt lat="43.12855" lon="2.45363">
        <ele>315.7</ele>
        <time>2021-03-21T05:49:38Z</time>
      </trkpt>
      <trkpt lat="43.12854" lon="2.45373">
        <ele>315.5</ele>
        <time>2021-03-21T05:49:39Z</time>
      </trkpt>
      <trkpt lat="43.12853" lon="2.45383">
        <ele>315.4</ele>
        <time>2021-03-21T05:49:40Z</time>
      </trkpt>
      <trkpt lat="43.12851" lon="2.45393">
        <ele>315.2</ele>
        <time>2021-03-21T05:49:41Z</time>
      </trkpt>
      <trkpt lat="43.12846" lon="2.45413">
        <ele>314.8</ele>
        <time>2021-03-21T05:49:43Z</time>
      </trkpt>
      <trkpt lat="43.1284" lon="2.45432">
        <ele>314.5</ele>
        <time>2021-03-21T05:49:45Z</time>
      </trkpt>
      <trkpt lat="43.12832" lon="2.45451">
        <ele>314.2</ele>
        <time>2021-03-21T05:49:47Z</time>
      </trkpt>
      <trkpt lat="43.12828" lon="2.4546">
        <ele>314.1</ele>
        <time>2021-03-21T05:49:48Z</time>
      </trkpt>
      <trkpt lat="43.12818" lon="2.45478">
        <ele>313.9</ele>
        <time>2021-03-21T05:49:50Z</time>
      </trkpt>
      <trkpt lat="43.12814" lon="2.45487">
        <ele>313.8</ele>
        <time>2021-03-21T05:49:51Z</time>
      </trkpt>
      <trkpt lat="43.12805" lon="2.45506">
        <ele>313.6</ele>
        <time>2021-03-21T05:49:53Z</time>
      </trkpt>
      <trkpt lat="43.12795" lon="2.45524">
        <ele>313.4</ele>
        <time>2021-03-21T05:49:55Z</time>
      </trkpt>
      <trkpt lat="43.1279" lon="2.45533">
        <ele>313.2</ele>
        <time>2021-03-21T05:49:56Z</time>
      </trkpt>
      <trkpt lat="43.12784" lon="2.45542">
        <ele>313.2</ele>
        <time>2021-03-21T05:49:57Z</time>
      </trkpt>
      <trkpt lat="43.12775" lon="2.45561">
        <ele>313.1</ele>
        <time>2021-03-21T05:49:59Z</time>
      </trkpt>
      <trkpt lat="43.12772" lon="2.45572">
        <ele>313.1</ele>
        <time>2021-03-21T05:50:00Z</time>
      </trkpt>
      <trkpt lat="43.1277" lon="2.45584">
        <ele>313.1</ele>
        <time>2021-03-21T05:50:01Z</time>
      </trkpt>
      <trkpt lat="43.12768" lon="2.45608">
        <ele>313.2</ele>
        <time>2021-03-21T05:50:03Z</time>
      </trkpt>
      <trkpt lat="43.12767" lon="2.45619">
        <ele>313.2</ele>
        <time>2021-03-21T05:50:04Z</time>
      </trkpt>
      <trkpt lat="43.12765" lon="2.45641">
        <ele>313.4</ele>
        <time>2021-03-21T05:50:06Z</time>
      </trkpt>
      <trkpt lat="43.12765" lon="2.45663">
        <ele>313.6</ele>
        <time>2021-03-21T05:50:08Z</time>
      </trkpt>
      <trkpt lat="43.12767" lon="2.45684">
        <ele>313.8</ele>
        <time>2021-03-21T05:50:10Z</time>
      </trkpt>
      <trkpt lat="43.12769" lon="2.45695">
        <ele>313.9</ele>
        <time>2021-03-21T05:50:11Z</time>
      </trkpt>
      <trkpt lat="43.12776" lon="2.45715">
        <ele>314.2</ele>
        <time>2021-03-21T05:50:13Z</time>
      </trkpt>
      <trkpt lat="43.12784" lon="2.45733">
        <ele>314.4</ele>
        <time>2021-03-21T05:50:15Z</time>
      </trkpt>
      <trkpt lat="43.12789" lon="2.45742">
        <ele>314.5</ele>
        <time>2021-03-21T05:50:16Z</time>
      </trkpt>
      <trkpt lat="43.12797" lon="2.45761">
        <ele>314.8</ele>
        <time>2021-03-21T05:50:18Z</time>
      </trkpt>
      <trkpt lat="43.12802" lon="2.45781">
        <ele>315</ele>
        <time>2021-03-21T05:50:20Z</time>
      </trkpt>
      <trkpt lat="43.12801" lon="2.45803">
        <ele>315.2</ele>
        <time>2021-03-21T05:50:22Z</time>
      </trkpt>
      <trkpt lat="43.128" lon="2.45815">
        <ele>315.3</ele>
        <time>2021-03-21T05:50:23Z</time>
      </trkpt>
      <trkpt lat="43.12799" lon="2.45826">
        <ele>315.4</ele>
        <time>2021-03-21T05:50:24Z</time>
      </trkpt>
      <trkpt lat="43.12797" lon="2.45849">
        <ele>315.6</ele>
        <time>2021-03-21T05:50:26Z</time>
      </trkpt>
      <trkpt lat="43.12795" lon="2.45861">
        <ele>315.7</ele>
        <time>2021-03-21T05:50:27Z</time>
      </trkpt>
      <trkpt lat="43.12791" lon="2.45883">
        <ele>315.9</ele>
        <time>2021-03-21T05:50:29Z</time>
      </trkpt>
      <trkpt lat="43.12785" lon="2.45906">
        <ele>316.1</ele>
        <time>2021-03-21T05:50:31Z</time>
      </trkpt>
      <trkpt lat="43.12779" lon="2.45928">
        <ele>316.3</ele>
        <time>2021-03-21T05:50:33Z</time>
      </trkpt>
      <trkpt lat="43.12774" lon="2.45951">
        <ele>316.5</ele>
        <time>2021-03-21T05:50:35Z</time>
      </trkpt>
      <trkpt lat="43.12767" lon="2.45972">
        <ele>316.6</ele>
        <time>2021-03-21T05:50:37Z</time>
      </trkpt>
      <trkpt lat="43.12762" lon="2.45981">
        <ele>316.7</ele>
        <time>2021-03-21T05:50:38Z</time>
      </trkpt>
      <trkpt lat="43.12748" lon="2.45995">
        <ele>316.9</ele>
        <time>2021-03-21T05:50:40Z</time>
      </trkpt>
      <trkpt lat="43.1274" lon="2.46001">
        <ele>317</ele>
        <time>2021-03-21T05:50:41Z</time>
      </trkpt>
      <trkpt lat="43.12733" lon="2.46007">
        <ele>317.1</ele>
        <time>2021-03-21T05:50:42Z</time>
      </trkpt>
      <trkpt lat="43.12725" lon="2.46013">
        <ele>317.2</ele>
        <time>2021-03-21T05:50:43Z</time>
      </trkpt>
      <trkpt lat="43.12711" lon="2.46026">
        <ele>317.4</ele>
        <time>2021-03-21T05:50:45Z</time>
      </trkpt>
      <trkpt lat="43.12697" lon="2.46039">
        <ele>317.6</ele>
        <time>2021-03-21T05:50:47Z</time>
      </trkpt>
      <trkpt lat="43.12691" lon="2.46047">
        <ele>317.7</ele>
        <time>2021-03-21T05:50:48Z</time>
      </trkpt>
      <trkpt lat="43.12685" lon="2.46056">
        <ele>317.8</ele>
        <time>2021-03-21T05:50:49Z</time>
      </trkpt>
      <trkpt lat="43.12676" lon="2.46075">
        <ele>318</ele>
        <time>2021-03-21T05:50:51Z</time>
      </trkpt>
      <trkpt lat="43.12668" lon="2.46094">
        <ele>318.2</ele>
        <time>2021-03-21T05:50:53Z</time>
      </trkpt>
      <trkpt lat="43.12659" lon="2.46113">
        <ele>318.5</ele>
        <time>2021-03-21T05:50:55Z</time>
      </trkpt>
      <trkpt lat="43.12654" lon="2.46133">
        <ele>318.7</ele>
        <time>2021-03-21T05:50:57Z</time>
      </trkpt>
      <trkpt lat="43.12652" lon="2.46144">
        <ele>318.8</ele>
        <time>2021-03-21T05:50:58Z</time>
      </trkpt>
      <trkpt lat="43.12652" lon="2.46166">
        <ele>319</ele>
        <time>2021-03-21T05:51:00Z</time>
      </trkpt>
      <trkpt lat="43.12653" lon="2.46189">
        <ele>319.3</ele>
        <time>2021-03-21T05:51:02Z</time>
      </trkpt>
      <trkpt lat="43.12654" lon="2.46199">
        <ele>319.5</ele>
        <time>2021-03-21T05:51:03Z</time>
      </trkpt>
      <trkpt lat="43.12654" lon="2.4621">
        <ele>319.7</ele>
        <time>2021-03-21T05:51:04Z</time>
      </trkpt>
      <trkpt lat="43.12652" lon="2.4622">
        <ele>319.9</ele>
        <time>2021-03-21T05:51:05Z</time>
      </trkpt>
      <trkpt lat="43.12646" lon="2.46239">
        <ele>320.2</ele>
        <time>2021-03-21T05:51:07Z</time>
      </trkpt>
      <trkpt lat="43.12641" lon="2.46247">
        <ele>320.4</ele>
        <time>2021-03-21T05:51:08Z</time>
      </trkpt>
      <trkpt lat="43.1263" lon="2.46262">
        <ele>320.7</ele>
        <time>2021-03-21T05:51:10Z</time>
      </trkpt>
      <trkpt lat="43.12618" lon="2.46275">
        <ele>320.9</ele>
        <time>2021-03-21T05:51:12Z</time>
      </trkpt>
      <trkpt lat="43.12607" lon="2.46287">
        <ele>321.2</ele>
        <time>2021-03-21T05:51:14Z</time>
      </trkpt>
      <trkpt lat="43.12601" lon="2.46293">
        <ele>321.3</ele>
        <time>2021-03-21T05:51:15Z</time>
      </trkpt>
      <trkpt lat="43.12595" lon="2.46299">
        <ele>321.4</ele>
        <time>2021-03-21T05:51:16Z</time>
      </trkpt>
      <trkpt lat="43.12584" lon="2.46311">
        <ele>321.7</ele>
        <time>2021-03-21T05:51:18Z</time>
      </trkpt>
      <trkpt lat="43.12573" lon="2.46323">
        <ele>321.9</ele>
        <time>2021-03-21T05:51:20Z</time>
      </trkpt>
      <trkpt lat="43.12567" lon="2.46329">
        <ele>322.1</ele>
        <time>2021-03-21T05:51:21Z</time>
      </trkpt>
      <trkpt lat="43.12556" lon="2.4634">
        <ele>322.3</ele>
        <time>2021-03-21T05:51:23Z</time>
      </trkpt>
      <trkpt lat="43.12549" lon="2.46346">
        <ele>322.4</ele>
        <time>2021-03-21T05:51:24Z</time>
      </trkpt>
      <trkpt lat="43.12543" lon="2.46351">
        <ele>322.5</ele>
        <time>2021-03-21T05:51:25Z</time>
      </trkpt>
      <trkpt lat="43.12536" lon="2.46356">
        <ele>322.6</ele>
        <time>2021-03-21T05:51:26Z</time>
      </trkpt>
      <trkpt lat="43.12525" lon="2.46367">
        <ele>322.8</ele>
        <time>2021-03-21T05:51:28Z</time>
      </trkpt>
      <trkpt lat="43.12516" lon="2.46383">
        <ele>323</ele>
        <time>2021-03-21T05:51:30Z</time>
      </trkpt>
      <trkpt lat="43.12511" lon="2.46401">
        <ele>323.2</ele>
        <time>2021-03-21T05:51:32Z</time>
      </trkpt>
      <trkpt lat="43.12507" lon="2.46411">
        <ele>323.3</ele>
        <time>2021-03-21T05:51:33Z</time>
      </trkpt>
      <trkpt lat="43.12499" lon="2.46427">
        <ele>323.5</ele>
        <time>2021-03-21T05:51:35Z</time>
      </trkpt>
      <trkpt lat="43.12494" lon="2.46434">
        <ele>323.6</ele>
        <time>2021-03-21T05:51:36Z</time>
      </trkpt>
      <trkpt lat="43.1249" lon="2.46442">
        <ele>323.7</ele>
        <time>2021-03-21T05:51:37Z</time>
      </trkpt>
      <trkpt lat="43.12482" lon="2.46459">
        <ele>323.9</ele>
        <time>2021-03-21T05:51:39Z</time>
      </trkpt>
      <trkpt lat="43.12478" lon="2.46469">
        <ele>324</ele>
        <time>2021-03-21T05:51:40Z</time>
      </trkpt>
      <trkpt lat="43.12472" lon="2.46489">
        <ele>324.3</ele>
        <time>2021-03-21T05:51:42Z</time>
      </trkpt>
      <trkpt lat="43.12469" lon="2.46499">
        <ele>324.4</ele>
        <time>2021-03-21T05:51:43Z</time>
      </trkpt>
      <trkpt lat="43.12466" lon="2.46509">
        <ele>324.6</ele>
        <time>2021-03-21T05:51:44Z</time>
      </trkpt>
      <trkpt lat="43.12464" lon="2.46519">
        <ele>324.8</ele>
        <time>2021-03-21T05:51:45Z</time>
      </trkpt>
      <trkpt lat="43.12461" lon="2.46529">
        <ele>324.9</ele>
        <time>2021-03-21T05:51:46Z</time>
      </trkpt>
      <trkpt lat="43.12456" lon="2.46549">
        <ele>325.3</ele>
        <time>2021-03-21T05:51:48Z</time>
      </trkpt>
      <trkpt lat="43.12451" lon="2.46568">
        <ele>325.7</ele>
        <time>2021-03-21T05:51:50Z</time>
      </trkpt>
      <trkpt lat="43.12445" lon="2.46587">
        <ele>326.2</ele>
        <time>2021-03-21T05:51:52Z</time>
      </trkpt>
      <trkpt lat="43.12443" lon="2.46596">
        <ele>326.4</ele>
        <time>2021-03-21T05:51:53Z</time>
      </trkpt>
      <trkpt lat="43.12441" lon="2.46606">
        <ele>326.7</ele>
        <time>2021-03-21T05:51:54Z</time>
      </trkpt>
      <trkpt lat="43.12439" lon="2.46616">
        <ele>326.9</ele>
        <time>2021-03-21T05:51:55Z</time>
      </trkpt>
      <trkpt lat="43.12435" lon="2.46635">
        <ele>327.3</ele>
        <time>2021-03-21T05:51:57Z</time>
      </trkpt>
      <trkpt lat="43.12435" lon="2.46656">
        <ele>327.7</ele>
        <time>2021-03-21T05:51:59Z</time>
      </trkpt>
      <trkpt lat="43.12435" lon="2.46677">
        <ele>328.2</ele>
        <time>2021-03-21T05:52:01Z</time>
      </trkpt>
      <trkpt lat="43.12435" lon="2.46688">
        <ele>328.5</ele>
        <time>2021-03-21T05:52:02Z</time>
      </trkpt>
      <trkpt lat="43.12434" lon="2.46707">
        <ele>329</ele>
        <time>2021-03-21T05:52:04Z</time>
      </trkpt>
      <trkpt lat="43.12433" lon="2.46717">
        <ele>329.3</ele>
        <time>2021-03-21T05:52:05Z</time>
      </trkpt>
      <trkpt lat="43.1243" lon="2.46736">
        <ele>330</ele>
        <time>2021-03-21T05:52:07Z</time>
      </trkpt>
      <trkpt lat="43.12428" lon="2.46745">
        <ele>330.3</ele>
        <time>2021-03-21T05:52:08Z</time>
      </trkpt>
      <trkpt lat="43.12424" lon="2.46764">
        <ele>331</ele>
        <time>2021-03-21T05:52:10Z</time>
      </trkpt>
      <trkpt lat="43.12422" lon="2.46773">
        <ele>331.3</ele>
        <time>2021-03-21T05:52:11Z</time>
      </trkpt>
      <trkpt lat="43.12421" lon="2.46783">
        <ele>331.6</ele>
        <time>2021-03-21T05:52:12Z</time>
      </trkpt>
      <trkpt lat="43.12418" lon="2.46802">
        <ele>332.3</ele>
        <time>2021-03-21T05:52:14Z</time>
      </trkpt>
      <trkpt lat="43.12415" lon="2.4682">
        <ele>332.9</ele>
        <time>2021-03-21T05:52:16Z</time>
      </trkpt>
      <trkpt lat="43.12413" lon="2.46829">
        <ele>333.2</ele>
        <time>2021-03-21T05:52:17Z</time>
      </trkpt>
      <trkpt lat="43.12411" lon="2.46847">
        <ele>333.8</ele>
        <time>2021-03-21T05:52:19Z</time>
      </trkpt>
      <trkpt lat="43.12409" lon="2.46855">
        <ele>334.1</ele>
        <time>2021-03-21T05:52:20Z</time>
      </trkpt>
      <trkpt lat="43.12407" lon="2.46873">
        <ele>334.7</ele>
        <time>2021-03-21T05:52:22Z</time>
      </trkpt>
      <trkpt lat="43.12405" lon="2.4689">
        <ele>335.2</ele>
        <time>2021-03-21T05:52:24Z</time>
      </trkpt>
      <trkpt lat="43.12404" lon="2.46907">
        <ele>335.6</ele>
        <time>2021-03-21T05:52:26Z</time>
      </trkpt>
      <trkpt lat="43.12403" lon="2.46916">
        <ele>335.8</ele>
        <time>2021-03-21T05:52:27Z</time>
      </trkpt>
      <trkpt lat="43.12401" lon="2.46933">
        <ele>336</ele>
        <time>2021-03-21T05:52:29Z</time>
      </trkpt>
      <trkpt lat="43.12399" lon="2.46942">
        <ele>336</ele>
        <time>2021-03-21T05:52:30Z</time>
      </trkpt>
      <trkpt lat="43.12393" lon="2.4696">
        <ele>335.9</ele>
        <time>2021-03-21T05:52:32Z</time>
      </trkpt>
      <trkpt lat="43.12388" lon="2.46979">
        <ele>335.6</ele>
        <time>2021-03-21T05:52:34Z</time>
      </trkpt>
      <trkpt lat="43.12381" lon="2.46999">
        <ele>335.3</ele>
        <time>2021-03-21T05:52:36Z</time>
      </trkpt>
      <trkpt lat="43.12377" lon="2.47008">
        <ele>335.1</ele>
        <time>2021-03-21T05:52:37Z</time>
      </trkpt>
      <trkpt lat="43.12371" lon="2.47029">
        <ele>334.7</ele>
        <time>2021-03-21T05:52:39Z</time>
      </trkpt>
      <trkpt lat="43.12368" lon="2.4704">
        <ele>334.5</ele>
        <time>2021-03-21T05:52:40Z</time>
      </trkpt>
      <trkpt lat="43.12361" lon="2.47062">
        <ele>334.3</ele>
        <time>2021-03-21T05:52:42Z</time>
      </trkpt>
      <trkpt lat="43.12358" lon="2.47072">
        <ele>334.2</ele>
        <time>2021-03-21T05:52:43Z</time>
      </trkpt>
      <trkpt lat="43.12354" lon="2.47083">
        <ele>334.3</ele>
        <time>2021-03-21T05:52:44Z</time>
      </trkpt>
      <trkpt lat="43.12351" lon="2.47093">
        <ele>334.5</ele>
        <time>2021-03-21T05:52:45Z</time>
      </trkpt>
      <trkpt lat="43.12344" lon="2.47113">
        <ele>335</ele>
        <time>2021-03-21T05:52:47Z</time>
      </trkpt>
      <trkpt lat="43.12341" lon="2.47122">
        <ele>335.3</ele>
        <time>2021-03-21T05:52:48Z</time>
      </trkpt>
      <trkpt lat="43.12336" lon="2.47139">
        <ele>335.9</ele>
        <time>2021-03-21T05:52:50Z</time>
      </trkpt>
      <trkpt lat="43.12332" lon="2.47156">
        <ele>336.5</ele>
        <time>2021-03-21T05:52:52Z</time>
      </trkpt>
      <trkpt lat="43.12332" lon="2.47164">
        <ele>336.8</ele>
        <time>2021-03-21T05:52:53Z</time>
      </trkpt>
      <trkpt lat="43.12332" lon="2.47173">
        <ele>337.1</ele>
        <time>2021-03-21T05:52:54Z</time>
      </trkpt>
      <trkpt lat="43.12332" lon="2.47181">
        <ele>337.3</ele>
        <time>2021-03-21T05:52:55Z</time>
      </trkpt>
      <trkpt lat="43.12332" lon="2.47197">
        <ele>337.9</ele>
        <time>2021-03-21T05:52:57Z</time>
      </trkpt>
      <trkpt lat="43.12332" lon="2.47212">
        <ele>338.4</ele>
        <time>2021-03-21T05:52:59Z</time>
      </trkpt>
      <trkpt lat="43.12332" lon="2.4722">
        <ele>338.7</ele>
        <time>2021-03-21T05:53:00Z</time>
      </trkpt>
      <trkpt lat="43.12333" lon="2.47235">
        <ele>339.2</ele>
        <time>2021-03-21T05:53:02Z</time>
      </trkpt>
      <trkpt lat="43.12334" lon="2.47243">
        <ele>339.4</ele>
        <time>2021-03-21T05:53:03Z</time>
      </trkpt>
      <trkpt lat="43.12337" lon="2.47258">
        <ele>339.8</ele>
        <time>2021-03-21T05:53:05Z</time>
      </trkpt>
      <trkpt lat="43.12342" lon="2.47273">
        <ele>340.2</ele>
        <time>2021-03-21T05:53:07Z</time>
      </trkpt>
      <trkpt lat="43.12344" lon="2.47281">
        <ele>340.4</ele>
        <time>2021-03-21T05:53:08Z</time>
      </trkpt>
      <trkpt lat="43.12347" lon="2.47289">
        <ele>340.6</ele>
        <time>2021-03-21T05:53:09Z</time>
      </trkpt>
      <trkpt lat="43.1235" lon="2.47296">
        <ele>340.8</ele>
        <time>2021-03-21T05:53:10Z</time>
      </trkpt>
      <trkpt lat="43.12355" lon="2.47312">
        <ele>341.1</ele>
        <time>2021-03-21T05:53:12Z</time>
      </trkpt>
      <trkpt lat="43.12358" lon="2.4732">
        <ele>341.3</ele>
        <time>2021-03-21T05:53:13Z</time>
      </trkpt>
      <trkpt lat="43.12362" lon="2.47335">
        <ele>341.4</ele>
        <time>2021-03-21T05:53:15Z</time>
      </trkpt>
      <trkpt lat="43.12365" lon="2.47344">
        <ele>341.5</ele>
        <time>2021-03-21T05:53:16Z</time>
      </trkpt>
      <trkpt lat="43.12369" lon="2.4736">
        <ele>341.6</ele>
        <time>2021-03-21T05:53:18Z</time>
      </trkpt>
      <trkpt lat="43.12371" lon="2.47376">
        <ele>341.7</ele>
        <time>2021-03-21T05:53:20Z</time>
      </trkpt>
      <trkpt lat="43.12372" lon="2.47393">
        <ele>341.9</ele>
        <time>2021-03-21T05:53:22Z</time>
      </trkpt>
      <trkpt lat="43.12374" lon="2.47409">
        <ele>342</ele>
        <time>2021-03-21T05:53:24Z</time>
      </trkpt>
      <trkpt lat="43.12374" lon="2.47418">
        <ele>342</ele>
        <time>2021-03-21T05:53:25Z</time>
      </trkpt>
      <trkpt lat="43.12373" lon="2.47426">
        <ele>342</ele>
        <time>2021-03-21T05:53:26Z</time>
      </trkpt>
      <trkpt lat="43.12372" lon="2.47445">
        <ele>342.1</ele>
        <time>2021-03-21T05:53:28Z</time>
      </trkpt>
      <trkpt lat="43.1237" lon="2.47453">
        <ele>342.2</ele>
        <time>2021-03-21T05:53:29Z</time>
      </trkpt>
      <trkpt lat="43.12369" lon="2.47471">
        <ele>342.4</ele>
        <time>2021-03-21T05:53:31Z</time>
      </trkpt>
      <trkpt lat="43.12368" lon="2.4748">
        <ele>342.5</ele>
        <time>2021-03-21T05:53:32Z</time>
      </trkpt>
      <trkpt lat="43.12367" lon="2.47498">
        <ele>342.7</ele>
        <time>2021-03-21T05:53:34Z</time>
      </trkpt>
      <trkpt lat="43.12366" lon="2.47507">
        <ele>342.9</ele>
        <time>2021-03-21T05:53:35Z</time>
      </trkpt>
      <trkpt lat="43.12366" lon="2.47524">
        <ele>343.2</ele>
        <time>2021-03-21T05:53:37Z</time>
      </trkpt>
      <trkpt lat="43.12367" lon="2.47542">
        <ele>343.6</ele>
        <time>2021-03-21T05:53:39Z</time>
      </trkpt>
      <trkpt lat="43.12367" lon="2.47551">
        <ele>343.8</ele>
        <time>2021-03-21T05:53:40Z</time>
      </trkpt>
      <trkpt lat="43.12369" lon="2.47568">
        <ele>344.2</ele>
        <time>2021-03-21T05:53:42Z</time>
      </trkpt>
      <trkpt lat="43.12372" lon="2.47584">
        <ele>344.7</ele>
        <time>2021-03-21T05:53:44Z</time>
      </trkpt>
      <trkpt lat="43.12373" lon="2.47592">
        <ele>345</ele>
        <time>2021-03-21T05:53:45Z</time>
      </trkpt>
      <trkpt lat="43.12375" lon="2.47609">
        <ele>345.4</ele>
        <time>2021-03-21T05:53:47Z</time>
      </trkpt>
      <trkpt lat="43.12377" lon="2.47617">
        <ele>345.7</ele>
        <time>2021-03-21T05:53:48Z</time>
      </trkpt>
      <trkpt lat="43.1238" lon="2.47633">
        <ele>346.1</ele>
        <time>2021-03-21T05:53:50Z</time>
      </trkpt>
      <trkpt lat="43.12382" lon="2.4765">
        <ele>346.5</ele>
        <time>2021-03-21T05:53:52Z</time>
      </trkpt>
      <trkpt lat="43.12383" lon="2.47658">
        <ele>346.7</ele>
        <time>2021-03-21T05:53:53Z</time>
      </trkpt>
      <trkpt lat="43.12384" lon="2.47674">
        <ele>347.2</ele>
        <time>2021-03-21T05:53:55Z</time>
      </trkpt>
      <trkpt lat="43.12384" lon="2.4769">
        <ele>347.8</ele>
        <time>2021-03-21T05:53:57Z</time>
      </trkpt>
      <trkpt lat="43.12383" lon="2.47697">
        <ele>348.1</ele>
        <time>2021-03-21T05:53:58Z</time>
      </trkpt>
      <trkpt lat="43.12382" lon="2.47712">
        <ele>348.8</ele>
        <time>2021-03-21T05:54:00Z</time>
      </trkpt>
      <trkpt lat="43.12381" lon="2.47727">
        <ele>349.6</ele>
        <time>2021-03-21T05:54:02Z</time>
      </trkpt>
      <trkpt lat="43.1238" lon="2.47735">
        <ele>350</ele>
        <time>2021-03-21T05:54:03Z</time>
      </trkpt>
      <trkpt lat="43.1238" lon="2.47743">
        <ele>350.4</ele>
        <time>2021-03-21T05:54:04Z</time>
      </trkpt>
      <trkpt lat="43.1238" lon="2.47751">
        <ele>350.8</ele>
        <time>2021-03-21T05:54:05Z</time>
      </trkpt>
      <trkpt lat="43.12381" lon="2.47766">
        <ele>351.7</ele>
        <time>2021-03-21T05:54:07Z</time>
      </trkpt>
      <trkpt lat="43.12381" lon="2.47774">
        <ele>352.1</ele>
        <time>2021-03-21T05:54:08Z</time>
      </trkpt>
      <trkpt lat="43.12384" lon="2.4779">
        <ele>352.9</ele>
        <time>2021-03-21T05:54:10Z</time>
      </trkpt>
      <trkpt lat="43.12385" lon="2.47798">
        <ele>353.3</ele>
        <time>2021-03-21T05:54:11Z</time>
      </trkpt>
      <trkpt lat="43.12388" lon="2.47815">
        <ele>354.2</ele>
        <time>2021-03-21T05:54:13Z</time>
      </trkpt>
      <trkpt lat="43.1239" lon="2.47831">
        <ele>355</ele>
        <time>2021-03-21T05:54:15Z</time>
      </trkpt>
      <trkpt lat="43.12392" lon="2.47846">
        <ele>355.8</ele>
        <time>2021-03-21T05:54:17Z</time>
      </trkpt>
      <trkpt lat="43.12392" lon="2.47854">
        <ele>356.1</ele>
        <time>2021-03-21T05:54:18Z</time>
      </trkpt>
      <trkpt lat="43.12394" lon="2.47869">
        <ele>356.9</ele>
        <time>2021-03-21T05:54:20Z</time>
      </trkpt>
      <trkpt lat="43.12394" lon="2.47876">
        <ele>357.3</ele>
        <time>2021-03-21T05:54:21Z</time>
      </trkpt>
      <trkpt lat="43.12394" lon="2.47884">
        <ele>357.7</ele>
        <time>2021-03-21T05:54:22Z</time>
      </trkpt>
      <trkpt lat="43.12393" lon="2.47898">
        <ele>358.4</ele>
        <time>2021-03-21T05:54:24Z</time>
      </trkpt>
      <trkpt lat="43.12392" lon="2.47905">
        <ele>358.8</ele>
        <time>2021-03-21T05:54:25Z</time>
      </trkpt>
      <trkpt lat="43.1239" lon="2.47919">
        <ele>359.6</ele>
        <time>2021-03-21T05:54:27Z</time>
      </trkpt>
      <trkpt lat="43.12386" lon="2.47932">
        <ele>360.3</ele>
        <time>2021-03-21T05:54:29Z</time>
      </trkpt>
      <trkpt lat="43.12383" lon="2.47944">
        <ele>361</ele>
        <time>2021-03-21T05:54:31Z</time>
      </trkpt>
      <trkpt lat="43.1238" lon="2.47958">
        <ele>361.7</ele>
        <time>2021-03-21T05:54:33Z</time>
      </trkpt>
      <trkpt lat="43.12376" lon="2.47972">
        <ele>362.4</ele>
        <time>2021-03-21T05:54:35Z</time>
      </trkpt>
      <trkpt lat="43.12372" lon="2.47985">
        <ele>363.1</ele>
        <time>2021-03-21T05:54:37Z</time>
      </trkpt>
      <trkpt lat="43.12368" lon="2.47998">
        <ele>363.9</ele>
        <time>2021-03-21T05:54:39Z</time>
      </trkpt>
      <trkpt lat="43.12365" lon="2.48005">
        <ele>364.3</ele>
        <time>2021-03-21T05:54:40Z</time>
      </trkpt>
      <trkpt lat="43.12359" lon="2.48016">
        <ele>365.1</ele>
        <time>2021-03-21T05:54:42Z</time>
      </trkpt>
      <trkpt lat="43.12356" lon="2.48022">
        <ele>365.5</ele>
        <time>2021-03-21T05:54:43Z</time>
      </trkpt>
      <trkpt lat="43.12348" lon="2.48032">
        <ele>366.3</ele>
        <time>2021-03-21T05:54:45Z</time>
      </trkpt>
      <trkpt lat="43.12341" lon="2.48042">
        <ele>367.1</ele>
        <time>2021-03-21T05:54:47Z</time>
      </trkpt>
      <trkpt lat="43.12337" lon="2.48047">
        <ele>367.5</ele>
        <time>2021-03-21T05:54:48Z</time>
      </trkpt>
      <trkpt lat="43.1233" lon="2.48057">
        <ele>368.3</ele>
        <time>2021-03-21T05:54:50Z</time>
      </trkpt>
      <trkpt lat="43.12327" lon="2.48063">
        <ele>368.7</ele>
        <time>2021-03-21T05:54:51Z</time>
      </trkpt>
      <trkpt lat="43.12324" lon="2.48069">
        <ele>369.1</ele>
        <time>2021-03-21T05:54:52Z</time>
      </trkpt>
      <trkpt lat="43.12322" lon="2.48076">
        <ele>369.5</ele>
        <time>2021-03-21T05:54:53Z</time>
      </trkpt>
      <trkpt lat="43.12321" lon="2.48091">
        <ele>370.2</ele>
        <time>2021-03-21T05:54:55Z</time>
      </trkpt>
      <trkpt lat="43.1232" lon="2.48105">
        <ele>370.9</ele>
        <time>2021-03-21T05:54:57Z</time>
      </trkpt>
      <trkpt lat="43.12321" lon="2.48118">
        <ele>371.5</ele>
        <time>2021-03-21T05:54:59Z</time>
      </trkpt>
      <trkpt lat="43.12321" lon="2.48132">
        <ele>372.2</ele>
        <time>2021-03-21T05:55:01Z</time>
      </trkpt>
      <trkpt lat="43.12322" lon="2.48139">
        <ele>372.5</ele>
        <time>2021-03-21T05:55:02Z</time>
      </trkpt>
      <trkpt lat="43.12323" lon="2.48152">
        <ele>373.2</ele>
        <time>2021-03-21T05:55:04Z</time>
      </trkpt>
      <trkpt lat="43.12324" lon="2.48159">
        <ele>373.5</ele>
        <time>2021-03-21T05:55:05Z</time>
      </trkpt>
      <trkpt lat="43.12328" lon="2.48172">
        <ele>374.3</ele>
        <time>2021-03-21T05:55:07Z</time>
      </trkpt>
      <trkpt lat="43.1233" lon="2.48178">
        <ele>374.6</ele>
        <time>2021-03-21T05:55:08Z</time>
      </trkpt>
      <trkpt lat="43.12336" lon="2.4819">
        <ele>375.2</ele>
        <time>2021-03-21T05:55:10Z</time>
      </trkpt>
      <trkpt lat="43.12343" lon="2.48201">
        <ele>375.8</ele>
        <time>2021-03-21T05:55:12Z</time>
      </trkpt>
      <trkpt lat="43.12349" lon="2.48212">
        <ele>376.3</ele>
        <time>2021-03-21T05:55:14Z</time>
      </trkpt>
      <trkpt lat="43.12352" lon="2.48225">
        <ele>376.8</ele>
        <time>2021-03-21T05:55:16Z</time>
      </trkpt>
      <trkpt lat="43.12352" lon="2.48238">
        <ele>377.3</ele>
        <time>2021-03-21T05:55:18Z</time>
      </trkpt>
      <trkpt lat="43.1235" lon="2.4825">
        <ele>377.8</ele>
        <time>2021-03-21T05:55:20Z</time>
      </trkpt>
      <trkpt lat="43.12349" lon="2.48256">
        <ele>378.1</ele>
        <time>2021-03-21T05:55:21Z</time>
      </trkpt>
      <trkpt lat="43.12347" lon="2.48261">
        <ele>378.3</ele>
        <time>2021-03-21T05:55:22Z</time>
      </trkpt>
      <trkpt lat="43.12346" lon="2.48271">
        <ele>378.8</ele>
        <time>2021-03-21T05:55:24Z</time>
      </trkpt>
      <trkpt lat="43.12346" lon="2.48277">
        <ele>379</ele>
        <time>2021-03-21T05:55:25Z</time>
      </trkpt>
      <trkpt lat="43.12347" lon="2.48291">
        <ele>379.6</ele>
        <time>2021-03-21T05:55:27Z</time>
      </trkpt>
      <trkpt lat="43.12348" lon="2.48298">
        <ele>379.9</ele>
        <time>2021-03-21T05:55:28Z</time>
      </trkpt>
      <trkpt lat="43.12349" lon="2.48305">
        <ele>380.2</ele>
        <time>2021-03-21T05:55:29Z</time>
      </trkpt>
      <trkpt lat="43.1235" lon="2.48319">
        <ele>380.8</ele>
        <time>2021-03-21T05:55:31Z</time>
      </trkpt>
      <trkpt lat="43.1235" lon="2.48325">
        <ele>381.1</ele>
        <time>2021-03-21T05:55:32Z</time>
      </trkpt>
      <trkpt lat="43.12353" lon="2.48338">
        <ele>381.6</ele>
        <time>2021-03-21T05:55:34Z</time>
      </trkpt>
      <trkpt lat="43.12353" lon="2.48341">
        <ele>381.8</ele>
        <time>2021-03-21T05:55:35Z</time>
      </trkpt>
      <trkpt lat="43.12355" lon="2.48355">
        <ele>382.4</ele>
        <time>2021-03-21T05:55:37Z</time>
      </trkpt>
      <trkpt lat="43.12357" lon="2.48369">
        <ele>383</ele>
        <time>2021-03-21T05:55:39Z</time>
      </trkpt>
      <trkpt lat="43.12361" lon="2.48382">
        <ele>383.7</ele>
        <time>2021-03-21T05:55:41Z</time>
      </trkpt>
      <trkpt lat="43.12367" lon="2.48394">
        <ele>384.5</ele>
        <time>2021-03-21T05:55:43Z</time>
      </trkpt>
      <trkpt lat="43.1237" lon="2.484">
        <ele>384.8</ele>
        <time>2021-03-21T05:55:44Z</time>
      </trkpt>
      <trkpt lat="43.12373" lon="2.48406">
        <ele>385.2</ele>
        <time>2021-03-21T05:55:45Z</time>
      </trkpt>
      <trkpt lat="43.12376" lon="2.48412">
        <ele>385.6</ele>
        <time>2021-03-21T05:55:46Z</time>
      </trkpt>
      <trkpt lat="43.12382" lon="2.48424">
        <ele>386.4</ele>
        <time>2021-03-21T05:55:48Z</time>
      </trkpt>
      <trkpt lat="43.12386" lon="2.4843">
        <ele>386.8</ele>
        <time>2021-03-21T05:55:49Z</time>
      </trkpt>
      <trkpt lat="43.12393" lon="2.4844">
        <ele>387.5</ele>
        <time>2021-03-21T05:55:51Z</time>
      </trkpt>
      <trkpt lat="43.12401" lon="2.4845">
        <ele>388.3</ele>
        <time>2021-03-21T05:55:53Z</time>
      </trkpt>
      <trkpt lat="43.12407" lon="2.48461">
        <ele>389</ele>
        <time>2021-03-21T05:55:55Z</time>
      </trkpt>
      <trkpt lat="43.12413" lon="2.48472">
        <ele>389.7</ele>
        <time>2021-03-21T05:55:57Z</time>
      </trkpt>
      <trkpt lat="43.12416" lon="2.48478">
        <ele>390</ele>
        <time>2021-03-21T05:55:58Z</time>
      </trkpt>
      <trkpt lat="43.1242" lon="2.4849">
        <ele>390.6</ele>
        <time>2021-03-21T05:56:00Z</time>
      </trkpt>
      <trkpt lat="43.12424" lon="2.48503">
        <ele>391.3</ele>
        <time>2021-03-21T05:56:02Z</time>
      </trkpt>
      <trkpt lat="43.12425" lon="2.48516">
        <ele>392</ele>
        <time>2021-03-21T05:56:04Z</time>
      </trkpt>
      <trkpt lat="43.12427" lon="2.4853">
        <ele>392.7</ele>
        <time>2021-03-21T05:56:06Z</time>
      </trkpt>
      <trkpt lat="43.12427" lon="2.48544">
        <ele>393.4</ele>
        <time>2021-03-21T05:56:08Z</time>
      </trkpt>
      <trkpt lat="43.12426" lon="2.48551">
        <ele>393.8</ele>
        <time>2021-03-21T05:56:09Z</time>
      </trkpt>
      <trkpt lat="43.12423" lon="2.48563">
        <ele>394.4</ele>
        <time>2021-03-21T05:56:11Z</time>
      </trkpt>
      <trkpt lat="43.12417" lon="2.48573">
        <ele>395</ele>
        <time>2021-03-21T05:56:13Z</time>
      </trkpt>
      <trkpt lat="43.12414" lon="2.48578">
        <ele>395.4</ele>
        <time>2021-03-21T05:56:14Z</time>
      </trkpt>
      <trkpt lat="43.12411" lon="2.48584">
        <ele>395.8</ele>
        <time>2021-03-21T05:56:15Z</time>
      </trkpt>
      <trkpt lat="43.12406" lon="2.48594">
        <ele>396.4</ele>
        <time>2021-03-21T05:56:17Z</time>
      </trkpt>
      <trkpt lat="43.12403" lon="2.48606">
        <ele>397</ele>
        <time>2021-03-21T05:56:19Z</time>
      </trkpt>
      <trkpt lat="43.124" lon="2.48616">
        <ele>397.6</ele>
        <time>2021-03-21T05:56:21Z</time>
      </trkpt>
      <trkpt lat="43.12399" lon="2.48621">
        <ele>397.9</ele>
        <time>2021-03-21T05:56:22Z</time>
      </trkpt>
      <trkpt lat="43.12399" lon="2.48627">
        <ele>398.2</ele>
        <time>2021-03-21T05:56:23Z</time>
      </trkpt>
      <trkpt lat="43.12398" lon="2.48631">
        <ele>398.5</ele>
        <time>2021-03-21T05:56:24Z</time>
      </trkpt>
      <trkpt lat="43.124" lon="2.48638">
        <ele>398.9</ele>
        <time>2021-03-21T05:56:26Z</time>
      </trkpt>
      <trkpt lat="43.12403" lon="2.48642">
        <ele>399.2</ele>
        <time>2021-03-21T05:56:27Z</time>
      </trkpt>
      <trkpt lat="43.12402" lon="2.48651">
        <ele>399.7</ele>
        <time>2021-03-21T05:56:29Z</time>
      </trkpt>
      <trkpt lat="43.124" lon="2.48658">
        <ele>400.1</ele>
        <time>2021-03-21T05:56:30Z</time>
      </trkpt>
      <trkpt lat="43.12396" lon="2.48667">
        <ele>400.6</ele>
        <time>2021-03-21T05:56:32Z</time>
      </trkpt>
      <trkpt lat="43.12393" lon="2.48675">
        <ele>401.1</ele>
        <time>2021-03-21T05:56:33Z</time>
      </trkpt>
      <trkpt lat="43.12388" lon="2.48683">
        <ele>401.5</ele>
        <time>2021-03-21T05:56:34Z</time>
      </trkpt>
      <trkpt lat="43.12386" lon="2.4869">
        <ele>401.8</ele>
        <time>2021-03-21T05:56:35Z</time>
      </trkpt>
      <trkpt lat="43.12383" lon="2.48696">
        <ele>402.1</ele>
        <time>2021-03-21T05:56:36Z</time>
      </trkpt>
      <trkpt lat="43.12378" lon="2.48706">
        <ele>402.6</ele>
        <time>2021-03-21T05:56:37Z</time>
      </trkpt>
      <trkpt lat="43.12374" lon="2.48719">
        <ele>403.1</ele>
        <time>2021-03-21T05:56:39Z</time>
      </trkpt>
      <trkpt lat="43.1237" lon="2.48732">
        <ele>403.5</ele>
        <time>2021-03-21T05:56:41Z</time>
      </trkpt>
      <trkpt lat="43.12369" lon="2.48738">
        <ele>403.7</ele>
        <time>2021-03-21T05:56:42Z</time>
      </trkpt>
      <trkpt lat="43.12363" lon="2.48749">
        <ele>404.2</ele>
        <time>2021-03-21T05:56:44Z</time>
      </trkpt>
      <trkpt lat="43.12359" lon="2.48757">
        <ele>404.5</ele>
        <time>2021-03-21T05:56:46Z</time>
      </trkpt>
      <trkpt lat="43.12358" lon="2.48763">
        <ele>404.7</ele>
        <time>2021-03-21T05:56:47Z</time>
      </trkpt>
      <trkpt lat="43.12357" lon="2.48769">
        <ele>404.9</ele>
        <time>2021-03-21T05:56:48Z</time>
      </trkpt>
      <trkpt lat="43.12357" lon="2.48779">
        <ele>405.1</ele>
        <time>2021-03-21T05:56:49Z</time>
      </trkpt>
      <trkpt lat="43.12355" lon="2.48793">
        <ele>405.5</ele>
        <time>2021-03-21T05:56:51Z</time>
      </trkpt>
      <trkpt lat="43.12353" lon="2.488">
        <ele>405.7</ele>
        <time>2021-03-21T05:56:52Z</time>
      </trkpt>
      <trkpt lat="43.12351" lon="2.48814">
        <ele>406.1</ele>
        <time>2021-03-21T05:56:54Z</time>
      </trkpt>
      <trkpt lat="43.12349" lon="2.48827">
        <ele>406.1</ele>
        <time>2021-03-21T05:56:56Z</time>
      </trkpt>
      <trkpt lat="43.12348" lon="2.48834">
        <ele>406.3</ele>
        <time>2021-03-21T05:56:57Z</time>
      </trkpt>
      <trkpt lat="43.12347" lon="2.4884">
        <ele>406.5</ele>
        <time>2021-03-21T05:56:58Z</time>
      </trkpt>
      <trkpt lat="43.12346" lon="2.48853">
        <ele>406.9</ele>
        <time>2021-03-21T05:57:00Z</time>
      </trkpt>
      <trkpt lat="43.12345" lon="2.48866">
        <ele>407.3</ele>
        <time>2021-03-21T05:57:02Z</time>
      </trkpt>
      <trkpt lat="43.12343" lon="2.48879">
        <ele>407.8</ele>
        <time>2021-03-21T05:57:04Z</time>
      </trkpt>
      <trkpt lat="43.1234" lon="2.48892">
        <ele>408.3</ele>
        <time>2021-03-21T05:57:06Z</time>
      </trkpt>
      <trkpt lat="43.12337" lon="2.48903">
        <ele>408.8</ele>
        <time>2021-03-21T05:57:08Z</time>
      </trkpt>
      <trkpt lat="43.12335" lon="2.48909">
        <ele>409.1</ele>
        <time>2021-03-21T05:57:09Z</time>
      </trkpt>
      <trkpt lat="43.12334" lon="2.48915">
        <ele>409.3</ele>
        <time>2021-03-21T05:57:10Z</time>
      </trkpt>
      <trkpt lat="43.12331" lon="2.48925">
        <ele>409.7</ele>
        <time>2021-03-21T05:57:12Z</time>
      </trkpt>
      <trkpt lat="43.12329" lon="2.4893">
        <ele>410</ele>
        <time>2021-03-21T05:57:13Z</time>
      </trkpt>
      <trkpt lat="43.12323" lon="2.48933">
        <ele>410.3</ele>
        <time>2021-03-21T05:57:15Z</time>
      </trkpt>
      <trkpt lat="43.12322" lon="2.4894">
        <ele>410.6</ele>
        <time>2021-03-21T05:57:16Z</time>
      </trkpt>
      <trkpt lat="43.1232" lon="2.48947">
        <ele>410.9</ele>
        <time>2021-03-21T05:57:17Z</time>
      </trkpt>
      <trkpt lat="43.12321" lon="2.48955">
        <ele>411</ele>
        <time>2021-03-21T05:57:18Z</time>
      </trkpt>
      <trkpt lat="43.12322" lon="2.48965">
        <ele>411.4</ele>
        <time>2021-03-21T05:57:20Z</time>
      </trkpt>
      <trkpt lat="43.12322" lon="2.48974">
        <ele>411.7</ele>
        <time>2021-03-21T05:57:21Z</time>
      </trkpt>
      <trkpt lat="43.12322" lon="2.48982">
        <ele>411.9</ele>
        <time>2021-03-21T05:57:22Z</time>
      </trkpt>
      <trkpt lat="43.12322" lon="2.48989">
        <ele>412.1</ele>
        <time>2021-03-21T05:57:23Z</time>
      </trkpt>
      <trkpt lat="43.12322" lon="2.48998">
        <ele>412.4</ele>
        <time>2021-03-21T05:57:24Z</time>
      </trkpt>
      <trkpt lat="43.12322" lon="2.49005">
        <ele>412.5</ele>
        <time>2021-03-21T05:57:25Z</time>
      </trkpt>
      <trkpt lat="43.12321" lon="2.49019">
        <ele>412.9</ele>
        <time>2021-03-21T05:57:27Z</time>
      </trkpt>
      <trkpt lat="43.1232" lon="2.49025">
        <ele>413</ele>
        <time>2021-03-21T05:57:28Z</time>
      </trkpt>
      <trkpt lat="43.12319" lon="2.49039">
        <ele>413.4</ele>
        <time>2021-03-21T05:57:30Z</time>
      </trkpt>
      <trkpt lat="43.12318" lon="2.49045">
        <ele>413.6</ele>
        <time>2021-03-21T05:57:31Z</time>
      </trkpt>
      <trkpt lat="43.12317" lon="2.49058">
        <ele>414</ele>
        <time>2021-03-21T05:57:33Z</time>
      </trkpt>
      <trkpt lat="43.12316" lon="2.49065">
        <ele>414.2</ele>
        <time>2021-03-21T05:57:34Z</time>
      </trkpt>
      <trkpt lat="43.12315" lon="2.49071">
        <ele>414.4</ele>
        <time>2021-03-21T05:57:35Z</time>
      </trkpt>
      <trkpt lat="43.12314" lon="2.49084">
        <ele>414.8</ele>
        <time>2021-03-21T05:57:37Z</time>
      </trkpt>
      <trkpt lat="43.12313" lon="2.49091">
        <ele>415</ele>
        <time>2021-03-21T05:57:38Z</time>
      </trkpt>
      <trkpt lat="43.12313" lon="2.49098">
        <ele>415.2</ele>
        <time>2021-03-21T05:57:39Z</time>
      </trkpt>
      <trkpt lat="43.12312" lon="2.4911">
        <ele>415.8</ele>
        <time>2021-03-21T05:57:41Z</time>
      </trkpt>
      <trkpt lat="43.12311" lon="2.49117">
        <ele>416</ele>
        <time>2021-03-21T05:57:42Z</time>
      </trkpt>
      <trkpt lat="43.1231" lon="2.4913">
        <ele>416.6</ele>
        <time>2021-03-21T05:57:44Z</time>
      </trkpt>
      <trkpt lat="43.12309" lon="2.49137">
        <ele>416.9</ele>
        <time>2021-03-21T05:57:45Z</time>
      </trkpt>
      <trkpt lat="43.12308" lon="2.49149">
        <ele>417.5</ele>
        <time>2021-03-21T05:57:47Z</time>
      </trkpt>
      <trkpt lat="43.12307" lon="2.49156">
        <ele>417.8</ele>
        <time>2021-03-21T05:57:48Z</time>
      </trkpt>
      <trkpt lat="43.12306" lon="2.49168">
        <ele>418.4</ele>
        <time>2021-03-21T05:57:50Z</time>
      </trkpt>
      <trkpt lat="43.12305" lon="2.49181">
        <ele>419</ele>
        <time>2021-03-21T05:57:52Z</time>
      </trkpt>
      <trkpt lat="43.12304" lon="2.49192">
        <ele>419.5</ele>
        <time>2021-03-21T05:57:54Z</time>
      </trkpt>
      <trkpt lat="43.12304" lon="2.49198">
        <ele>419.8</ele>
        <time>2021-03-21T05:57:55Z</time>
      </trkpt>
      <trkpt lat="43.12304" lon="2.49203">
        <ele>420</ele>
        <time>2021-03-21T05:57:56Z</time>
      </trkpt>
      <trkpt lat="43.12303" lon="2.49217">
        <ele>420.6</ele>
        <time>2021-03-21T05:57:58Z</time>
      </trkpt>
      <trkpt lat="43.12303" lon="2.49224">
        <ele>420.9</ele>
        <time>2021-03-21T05:57:59Z</time>
      </trkpt>
      <trkpt lat="43.12304" lon="2.49232">
        <ele>421.1</ele>
        <time>2021-03-21T05:58:00Z</time>
      </trkpt>
      <trkpt lat="43.12305" lon="2.49246">
        <ele>421.5</ele>
        <time>2021-03-21T05:58:02Z</time>
      </trkpt>
      <trkpt lat="43.12306" lon="2.49253">
        <ele>421.7</ele>
        <time>2021-03-21T05:58:03Z</time>
      </trkpt>
      <trkpt lat="43.12307" lon="2.49259">
        <ele>421.8</ele>
        <time>2021-03-21T05:58:04Z</time>
      </trkpt>
      <trkpt lat="43.12309" lon="2.49266">
        <ele>421.9</ele>
        <time>2021-03-21T05:58:05Z</time>
      </trkpt>
      <trkpt lat="43.12311" lon="2.49277">
        <ele>422.1</ele>
        <time>2021-03-21T05:58:07Z</time>
      </trkpt>
      <trkpt lat="43.12314" lon="2.49289">
        <ele>422.4</ele>
        <time>2021-03-21T05:58:09Z</time>
      </trkpt>
      <trkpt lat="43.12318" lon="2.49305">
        <ele>422.7</ele>
        <time>2021-03-21T05:58:11Z</time>
      </trkpt>
      <trkpt lat="43.12322" lon="2.4932">
        <ele>423</ele>
        <time>2021-03-21T05:58:13Z</time>
      </trkpt>
      <trkpt lat="43.12325" lon="2.49334">
        <ele>423.3</ele>
        <time>2021-03-21T05:58:15Z</time>
      </trkpt>
      <trkpt lat="43.12326" lon="2.49341">
        <ele>423.5</ele>
        <time>2021-03-21T05:58:16Z</time>
      </trkpt>
      <trkpt lat="43.12329" lon="2.49353">
        <ele>423.8</ele>
        <time>2021-03-21T05:58:18Z</time>
      </trkpt>
      <trkpt lat="43.1233" lon="2.49358">
        <ele>424</ele>
        <time>2021-03-21T05:58:19Z</time>
      </trkpt>
      <trkpt lat="43.12331" lon="2.49365">
        <ele>424.2</ele>
        <time>2021-03-21T05:58:21Z</time>
      </trkpt>
      <trkpt lat="43.12333" lon="2.49376">
        <ele>424.5</ele>
        <time>2021-03-21T05:58:22Z</time>
      </trkpt>
      <trkpt lat="43.12334" lon="2.49389">
        <ele>425</ele>
        <time>2021-03-21T05:58:24Z</time>
      </trkpt>
      <trkpt lat="43.12335" lon="2.49401">
        <ele>425.4</ele>
        <time>2021-03-21T05:58:26Z</time>
      </trkpt>
      <trkpt lat="43.12333" lon="2.49411">
        <ele>425.7</ele>
        <time>2021-03-21T05:58:28Z</time>
      </trkpt>
      <trkpt lat="43.12333" lon="2.49417">
        <ele>425.8</ele>
        <time>2021-03-21T05:58:29Z</time>
      </trkpt>
      <trkpt lat="43.12332" lon="2.49425">
        <ele>425.8</ele>
        <time>2021-03-21T05:58:31Z</time>
      </trkpt>
      <trkpt lat="43.12332" lon="2.49437">
        <ele>425.8</ele>
        <time>2021-03-21T05:58:32Z</time>
      </trkpt>
      <trkpt lat="43.12333" lon="2.49452">
        <ele>425.5</ele>
        <time>2021-03-21T05:58:34Z</time>
      </trkpt>
      <trkpt lat="43.12332" lon="2.49468">
        <ele>425.1</ele>
        <time>2021-03-21T05:58:36Z</time>
      </trkpt>
      <trkpt lat="43.1233" lon="2.49485">
        <ele>424.7</ele>
        <time>2021-03-21T05:58:38Z</time>
      </trkpt>
      <trkpt lat="43.12329" lon="2.49495">
        <ele>424.3</ele>
        <time>2021-03-21T05:58:39Z</time>
      </trkpt>
      <trkpt lat="43.12327" lon="2.49505">
        <ele>423.9</ele>
        <time>2021-03-21T05:58:40Z</time>
      </trkpt>
      <trkpt lat="43.12325" lon="2.49515">
        <ele>423.6</ele>
        <time>2021-03-21T05:58:41Z</time>
      </trkpt>
      <trkpt lat="43.12322" lon="2.49538">
        <ele>422.8</ele>
        <time>2021-03-21T05:58:43Z</time>
      </trkpt>
      <trkpt lat="43.1232" lon="2.49563">
        <ele>422</ele>
        <time>2021-03-21T05:58:45Z</time>
      </trkpt>
      <trkpt lat="43.12317" lon="2.4959">
        <ele>421.1</ele>
        <time>2021-03-21T05:58:47Z</time>
      </trkpt>
      <trkpt lat="43.12315" lon="2.49603">
        <ele>420.5</ele>
        <time>2021-03-21T05:58:48Z</time>
      </trkpt>
      <trkpt lat="43.12309" lon="2.4963">
        <ele>419.4</ele>
        <time>2021-03-21T05:58:50Z</time>
      </trkpt>
      <trkpt lat="43.12305" lon="2.49643">
        <ele>418.9</ele>
        <time>2021-03-21T05:58:51Z</time>
      </trkpt>
      <trkpt lat="43.12295" lon="2.49668">
        <ele>417.8</ele>
        <time>2021-03-21T05:58:53Z</time>
      </trkpt>
      <trkpt lat="43.12284" lon="2.49692">
        <ele>416.6</ele>
        <time>2021-03-21T05:58:55Z</time>
      </trkpt>
      <trkpt lat="43.12272" lon="2.49715">
        <ele>415.4</ele>
        <time>2021-03-21T05:58:57Z</time>
      </trkpt>
      <trkpt lat="43.12257" lon="2.49733">
        <ele>414.3</ele>
        <time>2021-03-21T05:58:59Z</time>
      </trkpt>
      <trkpt lat="43.12239" lon="2.49746">
        <ele>413.1</ele>
        <time>2021-03-21T05:59:01Z</time>
      </trkpt>
      <trkpt lat="43.12222" lon="2.49759">
        <ele>412.1</ele>
        <time>2021-03-21T05:59:03Z</time>
      </trkpt>
      <trkpt lat="43.12213" lon="2.49766">
        <ele>411.5</ele>
        <time>2021-03-21T05:59:04Z</time>
      </trkpt>
      <trkpt lat="43.12205" lon="2.49774">
        <ele>411</ele>
        <time>2021-03-21T05:59:05Z</time>
      </trkpt>
      <trkpt lat="43.12188" lon="2.49793">
        <ele>409.8</ele>
        <time>2021-03-21T05:59:07Z</time>
      </trkpt>
      <trkpt lat="43.12176" lon="2.49819">
        <ele>408.7</ele>
        <time>2021-03-21T05:59:09Z</time>
      </trkpt>
      <trkpt lat="43.12174" lon="2.49833">
        <ele>408.1</ele>
        <time>2021-03-21T05:59:10Z</time>
      </trkpt>
      <trkpt lat="43.12178" lon="2.49861">
        <ele>406.9</ele>
        <time>2021-03-21T05:59:12Z</time>
      </trkpt>
      <trkpt lat="43.12183" lon="2.49874">
        <ele>406.2</ele>
        <time>2021-03-21T05:59:13Z</time>
      </trkpt>
      <trkpt lat="43.12189" lon="2.49899">
        <ele>405</ele>
        <time>2021-03-21T05:59:15Z</time>
      </trkpt>
      <trkpt lat="43.1218" lon="2.49926">
        <ele>403.7</ele>
        <time>2021-03-21T05:59:17Z</time>
      </trkpt>
      <trkpt lat="43.12174" lon="2.4994">
        <ele>403.1</ele>
        <time>2021-03-21T05:59:18Z</time>
      </trkpt>
      <trkpt lat="43.12161" lon="2.49963">
        <ele>401.8</ele>
        <time>2021-03-21T05:59:20Z</time>
      </trkpt>
      <trkpt lat="43.12152" lon="2.49972">
        <ele>401.2</ele>
        <time>2021-03-21T05:59:21Z</time>
      </trkpt>
      <trkpt lat="43.12131" lon="2.49985">
        <ele>399.9</ele>
        <time>2021-03-21T05:59:23Z</time>
      </trkpt>
      <trkpt lat="43.12121" lon="2.49992">
        <ele>399.3</ele>
        <time>2021-03-21T05:59:24Z</time>
      </trkpt>
      <trkpt lat="43.1211" lon="2.50013">
        <ele>398.4</ele>
        <time>2021-03-21T05:59:26Z</time>
      </trkpt>
      <trkpt lat="43.12112" lon="2.5004">
        <ele>397.3</ele>
        <time>2021-03-21T05:59:28Z</time>
      </trkpt>
      <trkpt lat="43.12131" lon="2.5006">
        <ele>395.9</ele>
        <time>2021-03-21T05:59:30Z</time>
      </trkpt>
      <trkpt lat="43.12143" lon="2.50064">
        <ele>395.2</ele>
        <time>2021-03-21T05:59:31Z</time>
      </trkpt>
      <trkpt lat="43.12165" lon="2.50067">
        <ele>394</ele>
        <time>2021-03-21T05:59:33Z</time>
      </trkpt>
      <trkpt lat="43.12176" lon="2.50067">
        <ele>393.5</ele>
        <time>2021-03-21T05:59:34Z</time>
      </trkpt>
      <trkpt lat="43.12187" lon="2.50067">
        <ele>392.9</ele>
        <time>2021-03-21T05:59:35Z</time>
      </trkpt>
      <trkpt lat="43.12198" lon="2.50069">
        <ele>392.3</ele>
        <time>2021-03-21T05:59:36Z</time>
      </trkpt>
      <trkpt lat="43.12219" lon="2.50077">
        <ele>391.2</ele>
        <time>2021-03-21T05:59:38Z</time>
      </trkpt>
      <trkpt lat="43.12233" lon="2.50101">
        <ele>390</ele>
        <time>2021-03-21T05:59:40Z</time>
      </trkpt>
      <trkpt lat="43.12227" lon="2.5013">
        <ele>388.7</ele>
        <time>2021-03-21T05:59:42Z</time>
      </trkpt>
      <trkpt lat="43.12206" lon="2.50151">
        <ele>387.3</ele>
        <time>2021-03-21T05:59:44Z</time>
      </trkpt>
      <trkpt lat="43.12194" lon="2.50154">
        <ele>386.6</ele>
        <time>2021-03-21T05:59:45Z</time>
      </trkpt>
      <trkpt lat="43.1217" lon="2.50157">
        <ele>385.2</ele>
        <time>2021-03-21T05:59:47Z</time>
      </trkpt>
      <trkpt lat="43.12158" lon="2.50158">
        <ele>384.5</ele>
        <time>2021-03-21T05:59:48Z</time>
      </trkpt>
      <trkpt lat="43.12147" lon="2.5016">
        <ele>383.8</ele>
        <time>2021-03-21T05:59:49Z</time>
      </trkpt>
      <trkpt lat="43.12125" lon="2.50166">
        <ele>382.4</ele>
        <time>2021-03-21T05:59:51Z</time>
      </trkpt>
      <trkpt lat="43.12115" lon="2.5017">
        <ele>381.8</ele>
        <time>2021-03-21T05:59:52Z</time>
      </trkpt>
      <trkpt lat="43.12106" lon="2.50178">
        <ele>381.1</ele>
        <time>2021-03-21T05:59:53Z</time>
      </trkpt>
      <trkpt lat="43.121" lon="2.50189">
        <ele>380.5</ele>
        <time>2021-03-21T05:59:54Z</time>
      </trkpt>
      <trkpt lat="43.12096" lon="2.50219">
        <ele>379.3</ele>
        <time>2021-03-21T05:59:56Z</time>
      </trkpt>
      <trkpt lat="43.12092" lon="2.50247">
        <ele>377.7</ele>
        <time>2021-03-21T05:59:58Z</time>
      </trkpt>
      <trkpt lat="43.1208" lon="2.5027">
        <ele>376.8</ele>
        <time>2021-03-21T06:00:00Z</time>
      </trkpt>
      <trkpt lat="43.12057" lon="2.50274">
        <ele>375.6</ele>
        <time>2021-03-21T06:00:02Z</time>
      </trkpt>
      <trkpt lat="43.12045" lon="2.50268">
        <ele>374.9</ele>
        <time>2021-03-21T06:00:03Z</time>
      </trkpt>
      <trkpt lat="43.12035" lon="2.50259">
        <ele>374.3</ele>
        <time>2021-03-21T06:00:04Z</time>
      </trkpt>
      <trkpt lat="43.12026" lon="2.50246">
        <ele>373.7</ele>
        <time>2021-03-21T06:00:05Z</time>
      </trkpt>
      <trkpt lat="43.12018" lon="2.50234">
        <ele>373.2</ele>
        <time>2021-03-21T06:00:06Z</time>
      </trkpt>
      <trkpt lat="43.12004" lon="2.50213">
        <ele>372</ele>
        <time>2021-03-21T06:00:08Z</time>
      </trkpt>
      <trkpt lat="43.11989" lon="2.50193">
        <ele>371</ele>
        <time>2021-03-21T06:00:10Z</time>
      </trkpt>
      <trkpt lat="43.11973" lon="2.50174">
        <ele>369.8</ele>
        <time>2021-03-21T06:00:12Z</time>
      </trkpt>
      <trkpt lat="43.11956" lon="2.50155">
        <ele>368.5</ele>
        <time>2021-03-21T06:00:14Z</time>
      </trkpt>
      <trkpt lat="43.1194" lon="2.50135">
        <ele>367.4</ele>
        <time>2021-03-21T06:00:16Z</time>
      </trkpt>
      <trkpt lat="43.11923" lon="2.50115">
        <ele>366.1</ele>
        <time>2021-03-21T06:00:18Z</time>
      </trkpt>
      <trkpt lat="43.11913" lon="2.50107">
        <ele>365.4</ele>
        <time>2021-03-21T06:00:19Z</time>
      </trkpt>
      <trkpt lat="43.11891" lon="2.50097">
        <ele>364.2</ele>
        <time>2021-03-21T06:00:21Z</time>
      </trkpt>
      <trkpt lat="43.11879" lon="2.50096">
        <ele>363.5</ele>
        <time>2021-03-21T06:00:22Z</time>
      </trkpt>
      <trkpt lat="43.11856" lon="2.50096">
        <ele>362.2</ele>
        <time>2021-03-21T06:00:24Z</time>
      </trkpt>
      <trkpt lat="43.11844" lon="2.50095">
        <ele>361.5</ele>
        <time>2021-03-21T06:00:25Z</time>
      </trkpt>
      <trkpt lat="43.11822" lon="2.50098">
        <ele>360.3</ele>
        <time>2021-03-21T06:00:27Z</time>
      </trkpt>
      <trkpt lat="43.11811" lon="2.50103">
        <ele>359.6</ele>
        <time>2021-03-21T06:00:28Z</time>
      </trkpt>
      <trkpt lat="43.11793" lon="2.50121">
        <ele>358.2</ele>
        <time>2021-03-21T06:00:30Z</time>
      </trkpt>
      <trkpt lat="43.11785" lon="2.50134">
        <ele>357.5</ele>
        <time>2021-03-21T06:00:31Z</time>
      </trkpt>
      <trkpt lat="43.11776" lon="2.50165">
        <ele>356.2</ele>
        <time>2021-03-21T06:00:33Z</time>
      </trkpt>
      <trkpt lat="43.11773" lon="2.50181">
        <ele>355.6</ele>
        <time>2021-03-21T06:00:34Z</time>
      </trkpt>
      <trkpt lat="43.11769" lon="2.50197">
        <ele>355.1</ele>
        <time>2021-03-21T06:00:35Z</time>
      </trkpt>
      <trkpt lat="43.11764" lon="2.5021">
        <ele>354.5</ele>
        <time>2021-03-21T06:00:36Z</time>
      </trkpt>
      <trkpt lat="43.11745" lon="2.50228">
        <ele>353.1</ele>
        <time>2021-03-21T06:00:38Z</time>
      </trkpt>
      <trkpt lat="43.11734" lon="2.50232">
        <ele>352.5</ele>
        <time>2021-03-21T06:00:39Z</time>
      </trkpt>
      <trkpt lat="43.11722" lon="2.5023">
        <ele>351.7</ele>
        <time>2021-03-21T06:00:40Z</time>
      </trkpt>
      <trkpt lat="43.11699" lon="2.50227">
        <ele>350.4</ele>
        <time>2021-03-21T06:00:42Z</time>
      </trkpt>
      <trkpt lat="43.11678" lon="2.50227">
        <ele>349.2</ele>
        <time>2021-03-21T06:00:44Z</time>
      </trkpt>
      <trkpt lat="43.11668" lon="2.50231">
        <ele>348.7</ele>
        <time>2021-03-21T06:00:45Z</time>
      </trkpt>
      <trkpt lat="43.11653" lon="2.5025">
        <ele>347.6</ele>
        <time>2021-03-21T06:00:47Z</time>
      </trkpt>
      <trkpt lat="43.11649" lon="2.50265">
        <ele>346.9</ele>
        <time>2021-03-21T06:00:48Z</time>
      </trkpt>
      <trkpt lat="43.11648" lon="2.50281">
        <ele>346.2</ele>
        <time>2021-03-21T06:00:49Z</time>
      </trkpt>
      <trkpt lat="43.11656" lon="2.50311">
        <ele>345.1</ele>
        <time>2021-03-21T06:00:51Z</time>
      </trkpt>
      <trkpt lat="43.11666" lon="2.50337">
        <ele>344</ele>
        <time>2021-03-21T06:00:53Z</time>
      </trkpt>
      <trkpt lat="43.11658" lon="2.50365">
        <ele>342.6</ele>
        <time>2021-03-21T06:00:55Z</time>
      </trkpt>
      <trkpt lat="43.11641" lon="2.50389">
        <ele>341.1</ele>
        <time>2021-03-21T06:00:57Z</time>
      </trkpt>
      <trkpt lat="43.11622" lon="2.5041">
        <ele>339.8</ele>
        <time>2021-03-21T06:00:59Z</time>
      </trkpt>
      <trkpt lat="43.11611" lon="2.50418">
        <ele>339.1</ele>
        <time>2021-03-21T06:01:00Z</time>
      </trkpt>
      <trkpt lat="43.11588" lon="2.50426">
        <ele>337.8</ele>
        <time>2021-03-21T06:01:02Z</time>
      </trkpt>
      <trkpt lat="43.11566" lon="2.50432">
        <ele>336.6</ele>
        <time>2021-03-21T06:01:04Z</time>
      </trkpt>
      <trkpt lat="43.11555" lon="2.50435">
        <ele>336.1</ele>
        <time>2021-03-21T06:01:05Z</time>
      </trkpt>
      <trkpt lat="43.11544" lon="2.50438">
        <ele>335.6</ele>
        <time>2021-03-21T06:01:06Z</time>
      </trkpt>
      <trkpt lat="43.11522" lon="2.5044">
        <ele>334.5</ele>
        <time>2021-03-21T06:01:08Z</time>
      </trkpt>
      <trkpt lat="43.11503" lon="2.50424">
        <ele>333.2</ele>
        <time>2021-03-21T06:01:10Z</time>
      </trkpt>
      <trkpt lat="43.11498" lon="2.50409">
        <ele>332.4</ele>
        <time>2021-03-21T06:01:11Z</time>
      </trkpt>
      <trkpt lat="43.11496" lon="2.50393">
        <ele>331.7</ele>
        <time>2021-03-21T06:01:12Z</time>
      </trkpt>
      <trkpt lat="43.11495" lon="2.50377">
        <ele>331</ele>
        <time>2021-03-21T06:01:13Z</time>
      </trkpt>
      <trkpt lat="43.11489" lon="2.50351">
        <ele>329.8</ele>
        <time>2021-03-21T06:01:15Z</time>
      </trkpt>
      <trkpt lat="43.11474" lon="2.50331">
        <ele>328.7</ele>
        <time>2021-03-21T06:01:17Z</time>
      </trkpt>
      <trkpt lat="43.11455" lon="2.50318">
        <ele>327.5</ele>
        <time>2021-03-21T06:01:19Z</time>
      </trkpt>
      <trkpt lat="43.1144" lon="2.503">
        <ele>326.5</ele>
        <time>2021-03-21T06:01:21Z</time>
      </trkpt>
      <trkpt lat="43.11436" lon="2.50288">
        <ele>326</ele>
        <time>2021-03-21T06:01:22Z</time>
      </trkpt>
      <trkpt lat="43.11432" lon="2.50263">
        <ele>324.9</ele>
        <time>2021-03-21T06:01:24Z</time>
      </trkpt>
      <trkpt lat="43.1143" lon="2.50251">
        <ele>324.4</ele>
        <time>2021-03-21T06:01:25Z</time>
      </trkpt>
      <trkpt lat="43.11428" lon="2.5024">
        <ele>324</ele>
        <time>2021-03-21T06:01:26Z</time>
      </trkpt>
      <trkpt lat="43.11425" lon="2.50218">
        <ele>323.1</ele>
        <time>2021-03-21T06:01:28Z</time>
      </trkpt>
      <trkpt lat="43.11425" lon="2.50206">
        <ele>322.6</ele>
        <time>2021-03-21T06:01:29Z</time>
      </trkpt>
      <trkpt lat="43.11427" lon="2.50182">
        <ele>321.8</ele>
        <time>2021-03-21T06:01:31Z</time>
      </trkpt>
      <trkpt lat="43.11429" lon="2.5017">
        <ele>321.4</ele>
        <time>2021-03-21T06:01:32Z</time>
      </trkpt>
      <trkpt lat="43.11426" lon="2.50148">
        <ele>320.6</ele>
        <time>2021-03-21T06:01:34Z</time>
      </trkpt>
      <trkpt lat="43.1142" lon="2.5014">
        <ele>320.2</ele>
        <time>2021-03-21T06:01:35Z</time>
      </trkpt>
      <trkpt lat="43.11403" lon="2.50136">
        <ele>319.3</ele>
        <time>2021-03-21T06:01:37Z</time>
      </trkpt>
      <trkpt lat="43.11386" lon="2.50146">
        <ele>318.5</ele>
        <time>2021-03-21T06:01:39Z</time>
      </trkpt>
      <trkpt lat="43.1138" lon="2.50156">
        <ele>318.1</ele>
        <time>2021-03-21T06:01:40Z</time>
      </trkpt>
      <trkpt lat="43.11376" lon="2.50167">
        <ele>317.8</ele>
        <time>2021-03-21T06:01:41Z</time>
      </trkpt>
      <trkpt lat="43.11366" lon="2.50186">
        <ele>317.2</ele>
        <time>2021-03-21T06:01:43Z</time>
      </trkpt>
      <trkpt lat="43.1136" lon="2.50194">
        <ele>316.8</ele>
        <time>2021-03-21T06:01:44Z</time>
      </trkpt>
      <trkpt lat="43.11343" lon="2.50203">
        <ele>316.2</ele>
        <time>2021-03-21T06:01:46Z</time>
      </trkpt>
      <trkpt lat="43.11324" lon="2.502">
        <ele>315.6</ele>
        <time>2021-03-21T06:01:48Z</time>
      </trkpt>
      <trkpt lat="43.11316" lon="2.50192">
        <ele>315.2</ele>
        <time>2021-03-21T06:01:49Z</time>
      </trkpt>
      <trkpt lat="43.11306" lon="2.50173">
        <ele>314.4</ele>
        <time>2021-03-21T06:01:51Z</time>
      </trkpt>
      <trkpt lat="43.113" lon="2.50154">
        <ele>313.6</ele>
        <time>2021-03-21T06:01:53Z</time>
      </trkpt>
      <trkpt lat="43.11296" lon="2.50145">
        <ele>313.2</ele>
        <time>2021-03-21T06:01:54Z</time>
      </trkpt>
      <trkpt lat="43.1129" lon="2.50136">
        <ele>312.7</ele>
        <time>2021-03-21T06:01:55Z</time>
      </trkpt>
      <trkpt lat="43.11274" lon="2.50128">
        <ele>311.6</ele>
        <time>2021-03-21T06:01:57Z</time>
      </trkpt>
      <trkpt lat="43.11265" lon="2.50129">
        <ele>311.1</ele>
        <time>2021-03-21T06:01:58Z</time>
      </trkpt>
      <trkpt lat="43.11247" lon="2.50139">
        <ele>310</ele>
        <time>2021-03-21T06:02:00Z</time>
      </trkpt>
      <trkpt lat="43.1123" lon="2.5015">
        <ele>308.9</ele>
        <time>2021-03-21T06:02:02Z</time>
      </trkpt>
      <trkpt lat="43.1122" lon="2.50155">
        <ele>308.4</ele>
        <time>2021-03-21T06:02:03Z</time>
      </trkpt>
      <trkpt lat="43.11211" lon="2.50159">
        <ele>307.8</ele>
        <time>2021-03-21T06:02:04Z</time>
      </trkpt>
      <trkpt lat="43.11193" lon="2.50166">
        <ele>306.8</ele>
        <time>2021-03-21T06:02:06Z</time>
      </trkpt>
      <trkpt lat="43.11184" lon="2.5017">
        <ele>306.3</ele>
        <time>2021-03-21T06:02:07Z</time>
      </trkpt>
      <trkpt lat="43.11175" lon="2.50174">
        <ele>305.8</ele>
        <time>2021-03-21T06:02:08Z</time>
      </trkpt>
      <trkpt lat="43.11161" lon="2.5019">
        <ele>304.9</ele>
        <time>2021-03-21T06:02:10Z</time>
      </trkpt>
      <trkpt lat="43.11157" lon="2.50201">
        <ele>304.4</ele>
        <time>2021-03-21T06:02:11Z</time>
      </trkpt>
      <trkpt lat="43.11153" lon="2.50227">
        <ele>303.3</ele>
        <time>2021-03-21T06:02:13Z</time>
      </trkpt>
      <trkpt lat="43.11154" lon="2.50256">
        <ele>302</ele>
        <time>2021-03-21T06:02:15Z</time>
      </trkpt>
      <trkpt lat="43.11164" lon="2.50284">
        <ele>300.8</ele>
        <time>2021-03-21T06:02:17Z</time>
      </trkpt>
      <trkpt lat="43.11171" lon="2.50298">
        <ele>300.1</ele>
        <time>2021-03-21T06:02:18Z</time>
      </trkpt>
      <trkpt lat="43.11176" lon="2.50312">
        <ele>299.5</ele>
        <time>2021-03-21T06:02:19Z</time>
      </trkpt>
      <trkpt lat="43.11178" lon="2.50341">
        <ele>298.5</ele>
        <time>2021-03-21T06:02:21Z</time>
      </trkpt>
      <trkpt lat="43.11174" lon="2.50355">
        <ele>298</ele>
        <time>2021-03-21T06:02:22Z</time>
      </trkpt>
      <trkpt lat="43.11157" lon="2.50376">
        <ele>296.9</ele>
        <time>2021-03-21T06:02:24Z</time>
      </trkpt>
      <trkpt lat="43.11145" lon="2.5038">
        <ele>296.2</ele>
        <time>2021-03-21T06:02:25Z</time>
      </trkpt>
      <trkpt lat="43.11132" lon="2.5038">
        <ele>295.6</ele>
        <time>2021-03-21T06:02:26Z</time>
      </trkpt>
      <trkpt lat="43.11108" lon="2.50373">
        <ele>294.4</ele>
        <time>2021-03-21T06:02:28Z</time>
      </trkpt>
      <trkpt lat="43.11086" lon="2.5036">
        <ele>293.1</ele>
        <time>2021-03-21T06:02:30Z</time>
      </trkpt>
      <trkpt lat="43.11077" lon="2.50353">
        <ele>292.5</ele>
        <time>2021-03-21T06:02:31Z</time>
      </trkpt>
      <trkpt lat="43.1106" lon="2.50336">
        <ele>291.5</ele>
        <time>2021-03-21T06:02:33Z</time>
      </trkpt>
      <trkpt lat="43.11045" lon="2.5032">
        <ele>290.6</ele>
        <time>2021-03-21T06:02:35Z</time>
      </trkpt>
      <trkpt lat="43.11032" lon="2.50304">
        <ele>289.5</ele>
        <time>2021-03-21T06:02:37Z</time>
      </trkpt>
      <trkpt lat="43.11026" lon="2.50295">
        <ele>289</ele>
        <time>2021-03-21T06:02:38Z</time>
      </trkpt>
      <trkpt lat="43.1102" lon="2.50271">
        <ele>287.9</ele>
        <time>2021-03-21T06:02:40Z</time>
      </trkpt>
      <trkpt lat="43.1102" lon="2.50259">
        <ele>287.5</ele>
        <time>2021-03-21T06:02:41Z</time>
      </trkpt>
      <trkpt lat="43.11021" lon="2.50246">
        <ele>287</ele>
        <time>2021-03-21T06:02:42Z</time>
      </trkpt>
      <trkpt lat="43.11022" lon="2.50234">
        <ele>286.5</ele>
        <time>2021-03-21T06:02:43Z</time>
      </trkpt>
      <trkpt lat="43.11025" lon="2.5021">
        <ele>285.4</ele>
        <time>2021-03-21T06:02:45Z</time>
      </trkpt>
      <trkpt lat="43.11025" lon="2.50197">
        <ele>284.8</ele>
        <time>2021-03-21T06:02:46Z</time>
      </trkpt>
      <trkpt lat="43.11026" lon="2.50185">
        <ele>284.3</ele>
        <time>2021-03-21T06:02:47Z</time>
      </trkpt>
      <trkpt lat="43.11027" lon="2.50161">
        <ele>283.2</ele>
        <time>2021-03-21T06:02:49Z</time>
      </trkpt>
      <trkpt lat="43.11027" lon="2.50149">
        <ele>282.7</ele>
        <time>2021-03-21T06:02:50Z</time>
      </trkpt>
      <trkpt lat="43.11028" lon="2.50136">
        <ele>282.1</ele>
        <time>2021-03-21T06:02:51Z</time>
      </trkpt>
      <trkpt lat="43.11029" lon="2.50111">
        <ele>281</ele>
        <time>2021-03-21T06:02:53Z</time>
      </trkpt>
      <trkpt lat="43.11033" lon="2.50087">
        <ele>280</ele>
        <time>2021-03-21T06:02:55Z</time>
      </trkpt>
      <trkpt lat="43.11042" lon="2.50065">
        <ele>278.9</ele>
        <time>2021-03-21T06:02:57Z</time>
      </trkpt>
      <trkpt lat="43.11048" lon="2.50054">
        <ele>278.3</ele>
        <time>2021-03-21T06:02:58Z</time>
      </trkpt>
      <trkpt lat="43.11055" lon="2.50044">
        <ele>277.8</ele>
        <time>2021-03-21T06:02:59Z</time>
      </trkpt>
      <trkpt lat="43.11067" lon="2.50023">
        <ele>276.8</ele>
        <time>2021-03-21T06:03:01Z</time>
      </trkpt>
      <trkpt lat="43.11073" lon="2.50013">
        <ele>276.3</ele>
        <time>2021-03-21T06:03:02Z</time>
      </trkpt>
      <trkpt lat="43.11078" lon="2.50002">
        <ele>275.8</ele>
        <time>2021-03-21T06:03:03Z</time>
      </trkpt>
      <trkpt lat="43.11089" lon="2.49981">
        <ele>274.8</ele>
        <time>2021-03-21T06:03:05Z</time>
      </trkpt>
      <trkpt lat="43.111" lon="2.4996">
        <ele>273.9</ele>
        <time>2021-03-21T06:03:07Z</time>
      </trkpt>
      <trkpt lat="43.1111" lon="2.49938">
        <ele>273.1</ele>
        <time>2021-03-21T06:03:09Z</time>
      </trkpt>
      <trkpt lat="43.11115" lon="2.49927">
        <ele>272.7</ele>
        <time>2021-03-21T06:03:10Z</time>
      </trkpt>
      <trkpt lat="43.11117" lon="2.49915">
        <ele>272.3</ele>
        <time>2021-03-21T06:03:11Z</time>
      </trkpt>
      <trkpt lat="43.11116" lon="2.49902">
        <ele>271.8</ele>
        <time>2021-03-21T06:03:12Z</time>
      </trkpt>
      <trkpt lat="43.11104" lon="2.49884">
        <ele>270.7</ele>
        <time>2021-03-21T06:03:14Z</time>
      </trkpt>
      <trkpt lat="43.11083" lon="2.49882">
        <ele>269.5</ele>
        <time>2021-03-21T06:03:16Z</time>
      </trkpt>
      <trkpt lat="43.11062" lon="2.49885">
        <ele>268.4</ele>
        <time>2021-03-21T06:03:18Z</time>
      </trkpt>
      <trkpt lat="43.11043" lon="2.4988">
        <ele>267.2</ele>
        <time>2021-03-21T06:03:20Z</time>
      </trkpt>
      <trkpt lat="43.11033" lon="2.49876">
        <ele>266.6</ele>
        <time>2021-03-21T06:03:21Z</time>
      </trkpt>
      <trkpt lat="43.11022" lon="2.49874">
        <ele>265.9</ele>
        <time>2021-03-21T06:03:22Z</time>
      </trkpt>
      <trkpt lat="43.11011" lon="2.49876">
        <ele>265.2</ele>
        <time>2021-03-21T06:03:23Z</time>
      </trkpt>
      <trkpt lat="43.11001" lon="2.49884">
        <ele>264.4</ele>
        <time>2021-03-21T06:03:24Z</time>
      </trkpt>
      <trkpt lat="43.10992" lon="2.49896">
        <ele>263.7</ele>
        <time>2021-03-21T06:03:25Z</time>
      </trkpt>
      <trkpt lat="43.10977" lon="2.49924">
        <ele>262.2</ele>
        <time>2021-03-21T06:03:27Z</time>
      </trkpt>
      <trkpt lat="43.10962" lon="2.49951">
        <ele>260.9</ele>
        <time>2021-03-21T06:03:29Z</time>
      </trkpt>
      <trkpt lat="43.10954" lon="2.49963">
        <ele>260.2</ele>
        <time>2021-03-21T06:03:30Z</time>
      </trkpt>
      <trkpt lat="43.10937" lon="2.49988">
        <ele>259</ele>
        <time>2021-03-21T06:03:32Z</time>
      </trkpt>
      <trkpt lat="43.10924" lon="2.50018">
        <ele>257.7</ele>
        <time>2021-03-21T06:03:34Z</time>
      </trkpt>
      <trkpt lat="43.10919" lon="2.50035">
        <ele>257.1</ele>
        <time>2021-03-21T06:03:35Z</time>
      </trkpt>
      <trkpt lat="43.10913" lon="2.50069">
        <ele>255.7</ele>
        <time>2021-03-21T06:03:37Z</time>
      </trkpt>
      <trkpt lat="43.10901" lon="2.50098">
        <ele>254.4</ele>
        <time>2021-03-21T06:03:39Z</time>
      </trkpt>
      <trkpt lat="43.10891" lon="2.50108">
        <ele>253.7</ele>
        <time>2021-03-21T06:03:40Z</time>
      </trkpt>
      <trkpt lat="43.10879" lon="2.50114">
        <ele>253.1</ele>
        <time>2021-03-21T06:03:41Z</time>
      </trkpt>
      <trkpt lat="43.10867" lon="2.50117">
        <ele>252.4</ele>
        <time>2021-03-21T06:03:42Z</time>
      </trkpt>
      <trkpt lat="43.10844" lon="2.50121">
        <ele>251.5</ele>
        <time>2021-03-21T06:03:44Z</time>
      </trkpt>
      <trkpt lat="43.10832" lon="2.50124">
        <ele>251</ele>
        <time>2021-03-21T06:03:45Z</time>
      </trkpt>
      <trkpt lat="43.1081" lon="2.50131">
        <ele>250.2</ele>
        <time>2021-03-21T06:03:47Z</time>
      </trkpt>
      <trkpt lat="43.10798" lon="2.50134">
        <ele>249.9</ele>
        <time>2021-03-21T06:03:48Z</time>
      </trkpt>
      <trkpt lat="43.10776" lon="2.5014">
        <ele>249.5</ele>
        <time>2021-03-21T06:03:50Z</time>
      </trkpt>
      <trkpt lat="43.10757" lon="2.50151">
        <ele>249.1</ele>
        <time>2021-03-21T06:03:52Z</time>
      </trkpt>
      <trkpt lat="43.10748" lon="2.50158">
        <ele>248.9</ele>
        <time>2021-03-21T06:03:53Z</time>
      </trkpt>
      <trkpt lat="43.10739" lon="2.50164">
        <ele>248.8</ele>
        <time>2021-03-21T06:03:54Z</time>
      </trkpt>
      <trkpt lat="43.10729" lon="2.5017">
        <ele>248.7</ele>
        <time>2021-03-21T06:03:55Z</time>
      </trkpt>
      <trkpt lat="43.1071" lon="2.50179">
        <ele>248.5</ele>
        <time>2021-03-21T06:03:57Z</time>
      </trkpt>
      <trkpt lat="43.10692" lon="2.50188">
        <ele>248.4</ele>
        <time>2021-03-21T06:03:59Z</time>
      </trkpt>
      <trkpt lat="43.10683" lon="2.50192">
        <ele>248.3</ele>
        <time>2021-03-21T06:04:00Z</time>
      </trkpt>
      <trkpt lat="43.10665" lon="2.50202">
        <ele>248.2</ele>
        <time>2021-03-21T06:04:02Z</time>
      </trkpt>
      <trkpt lat="43.10656" lon="2.50206">
        <ele>248.1</ele>
        <time>2021-03-21T06:04:03Z</time>
      </trkpt>
      <trkpt lat="43.10638" lon="2.50211">
        <ele>247.9</ele>
        <time>2021-03-21T06:04:05Z</time>
      </trkpt>
      <trkpt lat="43.10619" lon="2.50215">
        <ele>247.7</ele>
        <time>2021-03-21T06:04:07Z</time>
      </trkpt>
      <trkpt lat="43.10603" lon="2.50228">
        <ele>247.3</ele>
        <time>2021-03-21T06:04:09Z</time>
      </trkpt>
      <trkpt lat="43.10589" lon="2.50244">
        <ele>247</ele>
        <time>2021-03-21T06:04:11Z</time>
      </trkpt>
      <trkpt lat="43.10583" lon="2.50253">
        <ele>246.8</ele>
        <time>2021-03-21T06:04:12Z</time>
      </trkpt>
      <trkpt lat="43.10577" lon="2.50261">
        <ele>246.6</ele>
        <time>2021-03-21T06:04:13Z</time>
      </trkpt>
      <trkpt lat="43.1057" lon="2.50269">
        <ele>246.4</ele>
        <time>2021-03-21T06:04:14Z</time>
      </trkpt>
      <trkpt lat="43.10557" lon="2.50282">
        <ele>246</ele>
        <time>2021-03-21T06:04:16Z</time>
      </trkpt>
      <trkpt lat="43.1055" lon="2.50287">
        <ele>245.7</ele>
        <time>2021-03-21T06:04:17Z</time>
      </trkpt>
      <trkpt lat="43.10542" lon="2.50291">
        <ele>245.4</ele>
        <time>2021-03-21T06:04:18Z</time>
      </trkpt>
      <trkpt lat="43.10534" lon="2.50293">
        <ele>245.1</ele>
        <time>2021-03-21T06:04:19Z</time>
      </trkpt>
      <trkpt lat="43.10527" lon="2.50295">
        <ele>244.8</ele>
        <time>2021-03-21T06:04:20Z</time>
      </trkpt>
      <trkpt lat="43.10512" lon="2.50297">
        <ele>244.1</ele>
        <time>2021-03-21T06:04:22Z</time>
      </trkpt>
      <trkpt lat="43.10496" lon="2.503">
        <ele>243.4</ele>
        <time>2021-03-21T06:04:24Z</time>
      </trkpt>
      <trkpt lat="43.10488" lon="2.50303">
        <ele>242.9</ele>
        <time>2021-03-21T06:04:25Z</time>
      </trkpt>
      <trkpt lat="43.10479" lon="2.50305">
        <ele>242.5</ele>
        <time>2021-03-21T06:04:26Z</time>
      </trkpt>
      <trkpt lat="43.10463" lon="2.5031">
        <ele>241.7</ele>
        <time>2021-03-21T06:04:28Z</time>
      </trkpt>
      <trkpt lat="43.10455" lon="2.50313">
        <ele>241.2</ele>
        <time>2021-03-21T06:04:29Z</time>
      </trkpt>
      <trkpt lat="43.10446" lon="2.50315">
        <ele>240.8</ele>
        <time>2021-03-21T06:04:30Z</time>
      </trkpt>
      <trkpt lat="43.10428" lon="2.50322">
        <ele>240</ele>
        <time>2021-03-21T06:04:32Z</time>
      </trkpt>
      <trkpt lat="43.10411" lon="2.50328">
        <ele>239.2</ele>
        <time>2021-03-21T06:04:34Z</time>
      </trkpt>
      <trkpt lat="43.10402" lon="2.50331">
        <ele>238.8</ele>
        <time>2021-03-21T06:04:35Z</time>
      </trkpt>
      <trkpt lat="43.10386" lon="2.50335">
        <ele>237.7</ele>
        <time>2021-03-21T06:04:37Z</time>
      </trkpt>
      <trkpt lat="43.10377" lon="2.50336">
        <ele>237.3</ele>
        <time>2021-03-21T06:04:38Z</time>
      </trkpt>
      <trkpt lat="43.10361" lon="2.50333">
        <ele>236.5</ele>
        <time>2021-03-21T06:04:40Z</time>
      </trkpt>
      <trkpt lat="43.10353" lon="2.50329">
        <ele>236.1</ele>
        <time>2021-03-21T06:04:41Z</time>
      </trkpt>
      <trkpt lat="43.10338" lon="2.50319">
        <ele>235.3</ele>
        <time>2021-03-21T06:04:43Z</time>
      </trkpt>
      <trkpt lat="43.10321" lon="2.50309">
        <ele>234.6</ele>
        <time>2021-03-21T06:04:45Z</time>
      </trkpt>
      <trkpt lat="43.10313" lon="2.50304">
        <ele>234.3</ele>
        <time>2021-03-21T06:04:46Z</time>
      </trkpt>
      <trkpt lat="43.10304" lon="2.50299">
        <ele>234</ele>
        <time>2021-03-21T06:04:47Z</time>
      </trkpt>
      <trkpt lat="43.10296" lon="2.50295">
        <ele>233.8</ele>
        <time>2021-03-21T06:04:48Z</time>
      </trkpt>
      <trkpt lat="43.10279" lon="2.50286">
        <ele>233.3</ele>
        <time>2021-03-21T06:04:50Z</time>
      </trkpt>
      <trkpt lat="43.10271" lon="2.50281">
        <ele>233.1</ele>
        <time>2021-03-21T06:04:51Z</time>
      </trkpt>
      <trkpt lat="43.10263" lon="2.50276">
        <ele>232.9</ele>
        <time>2021-03-21T06:04:52Z</time>
      </trkpt>
      <trkpt lat="43.10247" lon="2.50268">
        <ele>232.6</ele>
        <time>2021-03-21T06:04:54Z</time>
      </trkpt>
      <trkpt lat="43.10239" lon="2.50264">
        <ele>232.4</ele>
        <time>2021-03-21T06:04:55Z</time>
      </trkpt>
      <trkpt lat="43.10231" lon="2.5026">
        <ele>232.3</ele>
        <time>2021-03-21T06:04:56Z</time>
      </trkpt>
      <trkpt lat="43.10215" lon="2.50252">
        <ele>232</ele>
        <time>2021-03-21T06:04:58Z</time>
      </trkpt>
      <trkpt lat="43.10206" lon="2.50248">
        <ele>231.9</ele>
        <time>2021-03-21T06:04:59Z</time>
      </trkpt>
      <trkpt lat="43.1019" lon="2.50239">
        <ele>231.8</ele>
        <time>2021-03-21T06:05:01Z</time>
      </trkpt>
      <trkpt lat="43.10173" lon="2.5023">
        <ele>231.4</ele>
        <time>2021-03-21T06:05:03Z</time>
      </trkpt>
      <trkpt lat="43.10156" lon="2.50219">
        <ele>230.9</ele>
        <time>2021-03-21T06:05:05Z</time>
      </trkpt>
      <trkpt lat="43.10139" lon="2.50207">
        <ele>230.7</ele>
        <time>2021-03-21T06:05:07Z</time>
      </trkpt>
      <trkpt lat="43.10123" lon="2.50193">
        <ele>230.4</ele>
        <time>2021-03-21T06:05:09Z</time>
      </trkpt>
      <trkpt lat="43.1011" lon="2.50176">
        <ele>229.9</ele>
        <time>2021-03-21T06:05:11Z</time>
      </trkpt>
      <trkpt lat="43.101" lon="2.50159">
        <ele>229.4</ele>
        <time>2021-03-21T06:05:13Z</time>
      </trkpt>
      <trkpt lat="43.10091" lon="2.50143">
        <ele>228.8</ele>
        <time>2021-03-21T06:05:15Z</time>
      </trkpt>
      <trkpt lat="43.10086" lon="2.50135">
        <ele>228.5</ele>
        <time>2021-03-21T06:05:16Z</time>
      </trkpt>
      <trkpt lat="43.10081" lon="2.50127">
        <ele>228.2</ele>
        <time>2021-03-21T06:05:17Z</time>
      </trkpt>
      <trkpt lat="43.1007" lon="2.50112">
        <ele>227.7</ele>
        <time>2021-03-21T06:05:19Z</time>
      </trkpt>
      <trkpt lat="43.10064" lon="2.50104">
        <ele>227.4</ele>
        <time>2021-03-21T06:05:20Z</time>
      </trkpt>
      <trkpt lat="43.10053" lon="2.50088">
        <ele>226.8</ele>
        <time>2021-03-21T06:05:22Z</time>
      </trkpt>
      <trkpt lat="43.10048" lon="2.5008">
        <ele>226.5</ele>
        <time>2021-03-21T06:05:23Z</time>
      </trkpt>
      <trkpt lat="43.10042" lon="2.50073">
        <ele>226.3</ele>
        <time>2021-03-21T06:05:24Z</time>
      </trkpt>
      <trkpt lat="43.1003" lon="2.50059">
        <ele>225.8</ele>
        <time>2021-03-21T06:05:26Z</time>
      </trkpt>
      <trkpt lat="43.10017" lon="2.50046">
        <ele>225.2</ele>
        <time>2021-03-21T06:05:28Z</time>
      </trkpt>
      <trkpt lat="43.10003" lon="2.50034">
        <ele>224.6</ele>
        <time>2021-03-21T06:05:30Z</time>
      </trkpt>
      <trkpt lat="43.09988" lon="2.50022">
        <ele>224</ele>
        <time>2021-03-21T06:05:32Z</time>
      </trkpt>
      <trkpt lat="43.09974" lon="2.50009">
        <ele>223.4</ele>
        <time>2021-03-21T06:05:34Z</time>
      </trkpt>
      <trkpt lat="43.09958" lon="2.49996">
        <ele>222.9</ele>
        <time>2021-03-21T06:05:36Z</time>
      </trkpt>
      <trkpt lat="43.09943" lon="2.49984">
        <ele>222.5</ele>
        <time>2021-03-21T06:05:38Z</time>
      </trkpt>
      <trkpt lat="43.09927" lon="2.49971">
        <ele>222.2</ele>
        <time>2021-03-21T06:05:40Z</time>
      </trkpt>
      <trkpt lat="43.09912" lon="2.49959">
        <ele>221.9</ele>
        <time>2021-03-21T06:05:42Z</time>
      </trkpt>
      <trkpt lat="43.09904" lon="2.49953">
        <ele>221.8</ele>
        <time>2021-03-21T06:05:43Z</time>
      </trkpt>
      <trkpt lat="43.0989" lon="2.49942">
        <ele>221.6</ele>
        <time>2021-03-21T06:05:45Z</time>
      </trkpt>
      <trkpt lat="43.09883" lon="2.49936">
        <ele>221.6</ele>
        <time>2021-03-21T06:05:46Z</time>
      </trkpt>
      <trkpt lat="43.09876" lon="2.49931">
        <ele>221.5</ele>
        <time>2021-03-21T06:05:47Z</time>
      </trkpt>
      <trkpt lat="43.09869" lon="2.49925">
        <ele>221.5</ele>
        <time>2021-03-21T06:05:48Z</time>
      </trkpt>
      <trkpt lat="43.09862" lon="2.49918">
        <ele>221.5</ele>
        <time>2021-03-21T06:05:49Z</time>
      </trkpt>
      <trkpt lat="43.09851" lon="2.49902">
        <ele>221.6</ele>
        <time>2021-03-21T06:05:51Z</time>
      </trkpt>
      <trkpt lat="43.09846" lon="2.49893">
        <ele>221.7</ele>
        <time>2021-03-21T06:05:52Z</time>
      </trkpt>
      <trkpt lat="43.09841" lon="2.49885">
        <ele>221.9</ele>
        <time>2021-03-21T06:05:53Z</time>
      </trkpt>
      <trkpt lat="43.09836" lon="2.49876">
        <ele>222</ele>
        <time>2021-03-21T06:05:54Z</time>
      </trkpt>
      <trkpt lat="43.09826" lon="2.49861">
        <ele>222.3</ele>
        <time>2021-03-21T06:05:56Z</time>
      </trkpt>
      <trkpt lat="43.0982" lon="2.49854">
        <ele>222.5</ele>
        <time>2021-03-21T06:05:57Z</time>
      </trkpt>
      <trkpt lat="43.09809" lon="2.49842">
        <ele>223</ele>
        <time>2021-03-21T06:05:59Z</time>
      </trkpt>
      <trkpt lat="43.09796" lon="2.49831">
        <ele>223.6</ele>
        <time>2021-03-21T06:06:01Z</time>
      </trkpt>
      <trkpt lat="43.09784" lon="2.49821">
        <ele>224.3</ele>
        <time>2021-03-21T06:06:03Z</time>
      </trkpt>
      <trkpt lat="43.09772" lon="2.4981">
        <ele>225</ele>
        <time>2021-03-21T06:06:05Z</time>
      </trkpt>
      <trkpt lat="43.09761" lon="2.498">
        <ele>225.5</ele>
        <time>2021-03-21T06:06:07Z</time>
      </trkpt>
      <trkpt lat="43.09756" lon="2.49795">
        <ele>225.7</ele>
        <time>2021-03-21T06:06:08Z</time>
      </trkpt>
      <trkpt lat="43.09745" lon="2.49784">
        <ele>226.1</ele>
        <time>2021-03-21T06:06:10Z</time>
      </trkpt>
      <trkpt lat="43.09736" lon="2.49772">
        <ele>226.3</ele>
        <time>2021-03-21T06:06:12Z</time>
      </trkpt>
      <trkpt lat="43.09727" lon="2.49757">
        <ele>226.3</ele>
        <time>2021-03-21T06:06:14Z</time>
      </trkpt>
      <trkpt lat="43.09722" lon="2.4975">
        <ele>226.3</ele>
        <time>2021-03-21T06:06:15Z</time>
      </trkpt>
      <trkpt lat="43.09713" lon="2.49734">
        <ele>226.3</ele>
        <time>2021-03-21T06:06:17Z</time>
      </trkpt>
      <trkpt lat="43.09708" lon="2.49727">
        <ele>226.3</ele>
        <time>2021-03-21T06:06:18Z</time>
      </trkpt>
      <trkpt lat="43.09704" lon="2.4972">
        <ele>226.3</ele>
        <time>2021-03-21T06:06:19Z</time>
      </trkpt>
      <trkpt lat="43.097" lon="2.49713">
        <ele>226.3</ele>
        <time>2021-03-21T06:06:20Z</time>
      </trkpt>
      <trkpt lat="43.09691" lon="2.49699">
        <ele>226.4</ele>
        <time>2021-03-21T06:06:22Z</time>
      </trkpt>
      <trkpt lat="43.09686" lon="2.49692">
        <ele>226.4</ele>
        <time>2021-03-21T06:06:23Z</time>
      </trkpt>
      <trkpt lat="43.09682" lon="2.49685">
        <ele>226.5</ele>
        <time>2021-03-21T06:06:24Z</time>
      </trkpt>
      <trkpt lat="43.09678" lon="2.49678">
        <ele>226.6</ele>
        <time>2021-03-21T06:06:25Z</time>
      </trkpt>
      <trkpt lat="43.09674" lon="2.49671">
        <ele>226.7</ele>
        <time>2021-03-21T06:06:26Z</time>
      </trkpt>
      <trkpt lat="43.0967" lon="2.49664">
        <ele>226.7</ele>
        <time>2021-03-21T06:06:27Z</time>
      </trkpt>
      <trkpt lat="43.09666" lon="2.49657">
        <ele>226.8</ele>
        <time>2021-03-21T06:06:28Z</time>
      </trkpt>
      <trkpt lat="43.09662" lon="2.4965">
        <ele>226.8</ele>
        <time>2021-03-21T06:06:29Z</time>
      </trkpt>
      <trkpt lat="43.09658" lon="2.49643">
        <ele>226.9</ele>
        <time>2021-03-21T06:06:30Z</time>
      </trkpt>
      <trkpt lat="43.09654" lon="2.49636">
        <ele>226.9</ele>
        <time>2021-03-21T06:06:31Z</time>
      </trkpt>
      <trkpt lat="43.09647" lon="2.49622">
        <ele>227.1</ele>
        <time>2021-03-21T06:06:33Z</time>
      </trkpt>
      <trkpt lat="43.09643" lon="2.49615">
        <ele>227.1</ele>
        <time>2021-03-21T06:06:34Z</time>
      </trkpt>
      <trkpt lat="43.0964" lon="2.49607">
        <ele>227.2</ele>
        <time>2021-03-21T06:06:35Z</time>
      </trkpt>
      <trkpt lat="43.09633" lon="2.49594">
        <ele>227.3</ele>
        <time>2021-03-21T06:06:37Z</time>
      </trkpt>
      <trkpt lat="43.09629" lon="2.49587">
        <ele>227.3</ele>
        <time>2021-03-21T06:06:38Z</time>
      </trkpt>
      <trkpt lat="43.09625" lon="2.49581">
        <ele>227.3</ele>
        <time>2021-03-21T06:06:39Z</time>
      </trkpt>
      <trkpt lat="43.09622" lon="2.49574">
        <ele>227.4</ele>
        <time>2021-03-21T06:06:40Z</time>
      </trkpt>
      <trkpt lat="43.09618" lon="2.49567">
        <ele>227.4</ele>
        <time>2021-03-21T06:06:41Z</time>
      </trkpt>
      <trkpt lat="43.09612" lon="2.49553">
        <ele>227.4</ele>
        <time>2021-03-21T06:06:43Z</time>
      </trkpt>
      <trkpt lat="43.09609" lon="2.49545">
        <ele>227.5</ele>
        <time>2021-03-21T06:06:44Z</time>
      </trkpt>
      <trkpt lat="43.09605" lon="2.49538">
        <ele>227.5</ele>
        <time>2021-03-21T06:06:45Z</time>
      </trkpt>
      <trkpt lat="43.096" lon="2.49523">
        <ele>227.4</ele>
        <time>2021-03-21T06:06:47Z</time>
      </trkpt>
      <trkpt lat="43.09597" lon="2.49516">
        <ele>227.3</ele>
        <time>2021-03-21T06:06:48Z</time>
      </trkpt>
      <trkpt lat="43.09593" lon="2.49509">
        <ele>227.3</ele>
        <time>2021-03-21T06:06:49Z</time>
      </trkpt>
      <trkpt lat="43.09586" lon="2.49495">
        <ele>227.2</ele>
        <time>2021-03-21T06:06:51Z</time>
      </trkpt>
      <trkpt lat="43.09582" lon="2.49488">
        <ele>227.2</ele>
        <time>2021-03-21T06:06:52Z</time>
      </trkpt>
      <trkpt lat="43.09578" lon="2.49481">
        <ele>227.2</ele>
        <time>2021-03-21T06:06:53Z</time>
      </trkpt>
      <trkpt lat="43.09574" lon="2.49474">
        <ele>227.2</ele>
        <time>2021-03-21T06:06:54Z</time>
      </trkpt>
      <trkpt lat="43.0957" lon="2.49467">
        <ele>227.1</ele>
        <time>2021-03-21T06:06:55Z</time>
      </trkpt>
      <trkpt lat="43.0956" lon="2.49453">
        <ele>227</ele>
        <time>2021-03-21T06:06:57Z</time>
      </trkpt>
      <trkpt lat="43.09555" lon="2.49446">
        <ele>227</ele>
        <time>2021-03-21T06:06:58Z</time>
      </trkpt>
      <trkpt lat="43.09546" lon="2.49432">
        <ele>226.9</ele>
        <time>2021-03-21T06:07:00Z</time>
      </trkpt>
      <trkpt lat="43.09537" lon="2.49419">
        <ele>226.9</ele>
        <time>2021-03-21T06:07:02Z</time>
      </trkpt>
      <trkpt lat="43.09532" lon="2.49412">
        <ele>226.9</ele>
        <time>2021-03-21T06:07:03Z</time>
      </trkpt>
      <trkpt lat="43.09527" lon="2.49405">
        <ele>226.9</ele>
        <time>2021-03-21T06:07:04Z</time>
      </trkpt>
      <trkpt lat="43.09518" lon="2.49391">
        <ele>227</ele>
        <time>2021-03-21T06:07:06Z</time>
      </trkpt>
      <trkpt lat="43.09514" lon="2.49383">
        <ele>227.1</ele>
        <time>2021-03-21T06:07:07Z</time>
      </trkpt>
      <trkpt lat="43.0951" lon="2.49376">
        <ele>227.1</ele>
        <time>2021-03-21T06:07:08Z</time>
      </trkpt>
      <trkpt lat="43.09506" lon="2.49369">
        <ele>227.2</ele>
        <time>2021-03-21T06:07:09Z</time>
      </trkpt>
      <trkpt lat="43.09497" lon="2.49355">
        <ele>227.3</ele>
        <time>2021-03-21T06:07:11Z</time>
      </trkpt>
      <trkpt lat="43.09493" lon="2.49349">
        <ele>227.3</ele>
        <time>2021-03-21T06:07:12Z</time>
      </trkpt>
      <trkpt lat="43.09489" lon="2.49343">
        <ele>227.3</ele>
        <time>2021-03-21T06:07:13Z</time>
      </trkpt>
      <trkpt lat="43.09481" lon="2.49329">
        <ele>227.2</ele>
        <time>2021-03-21T06:07:15Z</time>
      </trkpt>
      <trkpt lat="43.09477" lon="2.49321">
        <ele>227.1</ele>
        <time>2021-03-21T06:07:16Z</time>
      </trkpt>
      <trkpt lat="43.09468" lon="2.49305">
        <ele>227</ele>
        <time>2021-03-21T06:07:18Z</time>
      </trkpt>
      <trkpt lat="43.09463" lon="2.49297">
        <ele>226.8</ele>
        <time>2021-03-21T06:07:19Z</time>
      </trkpt>
      <trkpt lat="43.09452" lon="2.49284">
        <ele>226.7</ele>
        <time>2021-03-21T06:07:21Z</time>
      </trkpt>
      <trkpt lat="43.09445" lon="2.49279">
        <ele>226.6</ele>
        <time>2021-03-21T06:07:22Z</time>
      </trkpt>
      <trkpt lat="43.0943" lon="2.4927">
        <ele>226.5</ele>
        <time>2021-03-21T06:07:24Z</time>
      </trkpt>
      <trkpt lat="43.09423" lon="2.49266">
        <ele>226.4</ele>
        <time>2021-03-21T06:07:25Z</time>
      </trkpt>
      <trkpt lat="43.09408" lon="2.49258">
        <ele>226.2</ele>
        <time>2021-03-21T06:07:27Z</time>
      </trkpt>
      <trkpt lat="43.09394" lon="2.4925">
        <ele>225.9</ele>
        <time>2021-03-21T06:07:29Z</time>
      </trkpt>
      <trkpt lat="43.0938" lon="2.49241">
        <ele>225.5</ele>
        <time>2021-03-21T06:07:31Z</time>
      </trkpt>
      <trkpt lat="43.09365" lon="2.49231">
        <ele>225.1</ele>
        <time>2021-03-21T06:07:33Z</time>
      </trkpt>
      <trkpt lat="43.09358" lon="2.49227">
        <ele>224.9</ele>
        <time>2021-03-21T06:07:34Z</time>
      </trkpt>
      <trkpt lat="43.09343" lon="2.49219">
        <ele>224.5</ele>
        <time>2021-03-21T06:07:36Z</time>
      </trkpt>
      <trkpt lat="43.09327" lon="2.4921">
        <ele>224.1</ele>
        <time>2021-03-21T06:07:38Z</time>
      </trkpt>
      <trkpt lat="43.0932" lon="2.49206">
        <ele>224</ele>
        <time>2021-03-21T06:07:39Z</time>
      </trkpt>
      <trkpt lat="43.09305" lon="2.49198">
        <ele>223.6</ele>
        <time>2021-03-21T06:07:41Z</time>
      </trkpt>
      <trkpt lat="43.09297" lon="2.49193">
        <ele>223.3</ele>
        <time>2021-03-21T06:07:42Z</time>
      </trkpt>
      <trkpt lat="43.09282" lon="2.49185">
        <ele>222.8</ele>
        <time>2021-03-21T06:07:44Z</time>
      </trkpt>
      <trkpt lat="43.09266" lon="2.49176">
        <ele>222.4</ele>
        <time>2021-03-21T06:07:46Z</time>
      </trkpt>
      <trkpt lat="43.09251" lon="2.49167">
        <ele>222.2</ele>
        <time>2021-03-21T06:07:48Z</time>
      </trkpt>
      <trkpt lat="43.09236" lon="2.49158">
        <ele>222</ele>
        <time>2021-03-21T06:07:50Z</time>
      </trkpt>
      <trkpt lat="43.09221" lon="2.49149">
        <ele>221.8</ele>
        <time>2021-03-21T06:07:52Z</time>
      </trkpt>
      <trkpt lat="43.09207" lon="2.4914">
        <ele>221.6</ele>
        <time>2021-03-21T06:07:54Z</time>
      </trkpt>
      <trkpt lat="43.092" lon="2.49135">
        <ele>221.5</ele>
        <time>2021-03-21T06:07:55Z</time>
      </trkpt>
      <trkpt lat="43.09187" lon="2.49123">
        <ele>221.3</ele>
        <time>2021-03-21T06:07:57Z</time>
      </trkpt>
      <trkpt lat="43.09181" lon="2.49117">
        <ele>221.2</ele>
        <time>2021-03-21T06:07:58Z</time>
      </trkpt>
      <trkpt lat="43.09175" lon="2.49111">
        <ele>221.1</ele>
        <time>2021-03-21T06:07:59Z</time>
      </trkpt>
      <trkpt lat="43.09163" lon="2.491">
        <ele>220.9</ele>
        <time>2021-03-21T06:08:01Z</time>
      </trkpt>
      <trkpt lat="43.09151" lon="2.4909">
        <ele>220.8</ele>
        <time>2021-03-21T06:08:03Z</time>
      </trkpt>
      <trkpt lat="43.09137" lon="2.49082">
        <ele>220.8</ele>
        <time>2021-03-21T06:08:05Z</time>
      </trkpt>
      <trkpt lat="43.09123" lon="2.49076">
        <ele>220.7</ele>
        <time>2021-03-21T06:08:07Z</time>
      </trkpt>
      <trkpt lat="43.09116" lon="2.49073">
        <ele>220.6</ele>
        <time>2021-03-21T06:08:08Z</time>
      </trkpt>
      <trkpt lat="43.09109" lon="2.4907">
        <ele>220.6</ele>
        <time>2021-03-21T06:08:09Z</time>
      </trkpt>
      <trkpt lat="43.09095" lon="2.49063">
        <ele>220.6</ele>
        <time>2021-03-21T06:08:11Z</time>
      </trkpt>
      <trkpt lat="43.09081" lon="2.49055">
        <ele>220.5</ele>
        <time>2021-03-21T06:08:13Z</time>
      </trkpt>
      <trkpt lat="43.09068" lon="2.49045">
        <ele>220.5</ele>
        <time>2021-03-21T06:08:15Z</time>
      </trkpt>
      <trkpt lat="43.09055" lon="2.49034">
        <ele>220.5</ele>
        <time>2021-03-21T06:08:17Z</time>
      </trkpt>
      <trkpt lat="43.09044" lon="2.49023">
        <ele>220.5</ele>
        <time>2021-03-21T06:08:19Z</time>
      </trkpt>
      <trkpt lat="43.09033" lon="2.49011">
        <ele>220.6</ele>
        <time>2021-03-21T06:08:21Z</time>
      </trkpt>
      <trkpt lat="43.09027" lon="2.49004">
        <ele>220.6</ele>
        <time>2021-03-21T06:08:22Z</time>
      </trkpt>
      <trkpt lat="43.09022" lon="2.48998">
        <ele>220.7</ele>
        <time>2021-03-21T06:08:23Z</time>
      </trkpt>
      <trkpt lat="43.09011" lon="2.48986">
        <ele>220.9</ele>
        <time>2021-03-21T06:08:25Z</time>
      </trkpt>
      <trkpt lat="43.09" lon="2.48974">
        <ele>221</ele>
        <time>2021-03-21T06:08:27Z</time>
      </trkpt>
      <trkpt lat="43.0899" lon="2.48962">
        <ele>221.2</ele>
        <time>2021-03-21T06:08:29Z</time>
      </trkpt>
      <trkpt lat="43.0898" lon="2.4895">
        <ele>221.4</ele>
        <time>2021-03-21T06:08:31Z</time>
      </trkpt>
      <trkpt lat="43.08969" lon="2.4894">
        <ele>221.6</ele>
        <time>2021-03-21T06:08:33Z</time>
      </trkpt>
      <trkpt lat="43.08964" lon="2.48935">
        <ele>221.7</ele>
        <time>2021-03-21T06:08:34Z</time>
      </trkpt>
      <trkpt lat="43.08958" lon="2.48931">
        <ele>221.8</ele>
        <time>2021-03-21T06:08:35Z</time>
      </trkpt>
      <trkpt lat="43.08945" lon="2.48924">
        <ele>222.2</ele>
        <time>2021-03-21T06:08:37Z</time>
      </trkpt>
      <trkpt lat="43.08939" lon="2.48921">
        <ele>222.4</ele>
        <time>2021-03-21T06:08:38Z</time>
      </trkpt>
      <trkpt lat="43.08925" lon="2.48917">
        <ele>222.8</ele>
        <time>2021-03-21T06:08:40Z</time>
      </trkpt>
      <trkpt lat="43.08919" lon="2.48915">
        <ele>223</ele>
        <time>2021-03-21T06:08:41Z</time>
      </trkpt>
      <trkpt lat="43.08907" lon="2.48912">
        <ele>223.4</ele>
        <time>2021-03-21T06:08:43Z</time>
      </trkpt>
      <trkpt lat="43.08895" lon="2.48908">
        <ele>223.9</ele>
        <time>2021-03-21T06:08:45Z</time>
      </trkpt>
      <trkpt lat="43.08883" lon="2.48904">
        <ele>224.3</ele>
        <time>2021-03-21T06:08:47Z</time>
      </trkpt>
      <trkpt lat="43.08877" lon="2.48902">
        <ele>224.5</ele>
        <time>2021-03-21T06:08:48Z</time>
      </trkpt>
      <trkpt lat="43.08866" lon="2.48899">
        <ele>224.8</ele>
        <time>2021-03-21T06:08:50Z</time>
      </trkpt>
      <trkpt lat="43.0886" lon="2.48898">
        <ele>225</ele>
        <time>2021-03-21T06:08:51Z</time>
      </trkpt>
      <trkpt lat="43.08848" lon="2.48895">
        <ele>225.3</ele>
        <time>2021-03-21T06:08:53Z</time>
      </trkpt>
      <trkpt lat="43.08842" lon="2.48894">
        <ele>225.5</ele>
        <time>2021-03-21T06:08:54Z</time>
      </trkpt>
      <trkpt lat="43.08836" lon="2.48894">
        <ele>225.7</ele>
        <time>2021-03-21T06:08:55Z</time>
      </trkpt>
      <trkpt lat="43.08823" lon="2.48894">
        <ele>225.8</ele>
        <time>2021-03-21T06:08:57Z</time>
      </trkpt>
      <trkpt lat="43.08816" lon="2.48894">
        <ele>225.8</ele>
        <time>2021-03-21T06:08:58Z</time>
      </trkpt>
      <trkpt lat="43.08802" lon="2.48895">
        <ele>225.8</ele>
        <time>2021-03-21T06:09:00Z</time>
      </trkpt>
      <trkpt lat="43.08789" lon="2.48897">
        <ele>225.6</ele>
        <time>2021-03-21T06:09:02Z</time>
      </trkpt>
      <trkpt lat="43.08774" lon="2.48901">
        <ele>225.2</ele>
        <time>2021-03-21T06:09:04Z</time>
      </trkpt>
      <trkpt lat="43.08767" lon="2.48903">
        <ele>224.9</ele>
        <time>2021-03-21T06:09:05Z</time>
      </trkpt>
      <trkpt lat="43.08752" lon="2.48907">
        <ele>224.2</ele>
        <time>2021-03-21T06:09:07Z</time>
      </trkpt>
      <trkpt lat="43.08735" lon="2.4891">
        <ele>223.3</ele>
        <time>2021-03-21T06:09:09Z</time>
      </trkpt>
      <trkpt lat="43.08726" lon="2.48911">
        <ele>222.8</ele>
        <time>2021-03-21T06:09:10Z</time>
      </trkpt>
      <trkpt lat="43.08717" lon="2.48913">
        <ele>222.5</ele>
        <time>2021-03-21T06:09:11Z</time>
      </trkpt>
      <trkpt lat="43.08708" lon="2.48915">
        <ele>222.2</ele>
        <time>2021-03-21T06:09:12Z</time>
      </trkpt>
      <trkpt lat="43.0869" lon="2.48919">
        <ele>221.7</ele>
        <time>2021-03-21T06:09:14Z</time>
      </trkpt>
      <trkpt lat="43.08673" lon="2.48922">
        <ele>221.2</ele>
        <time>2021-03-21T06:09:16Z</time>
      </trkpt>
      <trkpt lat="43.08665" lon="2.48924">
        <ele>221</ele>
        <time>2021-03-21T06:09:17Z</time>
      </trkpt>
      <trkpt lat="43.08649" lon="2.48926">
        <ele>220.7</ele>
        <time>2021-03-21T06:09:19Z</time>
      </trkpt>
      <trkpt lat="43.08641" lon="2.48928">
        <ele>220.5</ele>
        <time>2021-03-21T06:09:20Z</time>
      </trkpt>
      <trkpt lat="43.08624" lon="2.48931">
        <ele>220.2</ele>
        <time>2021-03-21T06:09:22Z</time>
      </trkpt>
      <trkpt lat="43.08616" lon="2.48933">
        <ele>220.1</ele>
        <time>2021-03-21T06:09:23Z</time>
      </trkpt>
      <trkpt lat="43.08608" lon="2.48935">
        <ele>219.8</ele>
        <time>2021-03-21T06:09:24Z</time>
      </trkpt>
      <trkpt lat="43.08601" lon="2.48937">
        <ele>219.6</ele>
        <time>2021-03-21T06:09:25Z</time>
      </trkpt>
      <trkpt lat="43.08585" lon="2.48941">
        <ele>218.9</ele>
        <time>2021-03-21T06:09:27Z</time>
      </trkpt>
      <trkpt lat="43.08567" lon="2.48944">
        <ele>218.1</ele>
        <time>2021-03-21T06:09:29Z</time>
      </trkpt>
      <trkpt lat="43.08549" lon="2.48946">
        <ele>217.5</ele>
        <time>2021-03-21T06:09:31Z</time>
      </trkpt>
      <trkpt lat="43.0854" lon="2.48948">
        <ele>217.2</ele>
        <time>2021-03-21T06:09:32Z</time>
      </trkpt>
      <trkpt lat="43.08522" lon="2.48952">
        <ele>216.8</ele>
        <time>2021-03-21T06:09:34Z</time>
      </trkpt>
      <trkpt lat="43.08505" lon="2.48957">
        <ele>216.7</ele>
        <time>2021-03-21T06:09:36Z</time>
      </trkpt>
      <trkpt lat="43.0849" lon="2.48957">
        <ele>216.5</ele>
        <time>2021-03-21T06:09:38Z</time>
      </trkpt>
      <trkpt lat="43.0848" lon="2.48944">
        <ele>216.4</ele>
        <time>2021-03-21T06:09:40Z</time>
      </trkpt>
      <trkpt lat="43.08479" lon="2.48923">
        <ele>216.5</ele>
        <time>2021-03-21T06:09:42Z</time>
      </trkpt>
      <trkpt lat="43.08481" lon="2.48913">
        <ele>216.6</ele>
        <time>2021-03-21T06:09:43Z</time>
      </trkpt>
      <trkpt lat="43.08484" lon="2.48893">
        <ele>216.7</ele>
        <time>2021-03-21T06:09:45Z</time>
      </trkpt>
      <trkpt lat="43.08485" lon="2.48883">
        <ele>216.8</ele>
        <time>2021-03-21T06:09:46Z</time>
      </trkpt>
      <trkpt lat="43.08486" lon="2.48865">
        <ele>216.9</ele>
        <time>2021-03-21T06:09:48Z</time>
      </trkpt>
      <trkpt lat="43.08486" lon="2.48855">
        <ele>217.1</ele>
        <time>2021-03-21T06:09:49Z</time>
      </trkpt>
      <trkpt lat="43.08487" lon="2.48838">
        <ele>217.3</ele>
        <time>2021-03-21T06:09:51Z</time>
      </trkpt>
      <trkpt lat="43.08488" lon="2.4883">
        <ele>217.4</ele>
        <time>2021-03-21T06:09:52Z</time>
      </trkpt>
      <trkpt lat="43.08488" lon="2.48813">
        <ele>217.7</ele>
        <time>2021-03-21T06:09:54Z</time>
      </trkpt>
      <trkpt lat="43.08488" lon="2.48805">
        <ele>217.8</ele>
        <time>2021-03-21T06:09:55Z</time>
      </trkpt>
      <trkpt lat="43.08489" lon="2.48789">
        <ele>218</ele>
        <time>2021-03-21T06:09:57Z</time>
      </trkpt>
      <trkpt lat="43.08489" lon="2.48781">
        <ele>218.2</ele>
        <time>2021-03-21T06:09:58Z</time>
      </trkpt>
      <trkpt lat="43.08489" lon="2.48764">
        <ele>218.4</ele>
        <time>2021-03-21T06:10:00Z</time>
      </trkpt>
      <trkpt lat="43.08489" lon="2.48756">
        <ele>218.5</ele>
        <time>2021-03-21T06:10:01Z</time>
      </trkpt>
      <trkpt lat="43.08488" lon="2.4874">
        <ele>218.8</ele>
        <time>2021-03-21T06:10:03Z</time>
      </trkpt>
      <trkpt lat="43.08487" lon="2.48732">
        <ele>218.9</ele>
        <time>2021-03-21T06:10:04Z</time>
      </trkpt>
      <trkpt lat="43.08486" lon="2.48725">
        <ele>219</ele>
        <time>2021-03-21T06:10:05Z</time>
      </trkpt>
      <trkpt lat="43.08486" lon="2.48717">
        <ele>219.1</ele>
        <time>2021-03-21T06:10:06Z</time>
      </trkpt>
      <trkpt lat="43.08485" lon="2.48702">
        <ele>219.3</ele>
        <time>2021-03-21T06:10:08Z</time>
      </trkpt>
      <trkpt lat="43.08485" lon="2.48688">
        <ele>219.5</ele>
        <time>2021-03-21T06:10:10Z</time>
      </trkpt>
      <trkpt lat="43.08486" lon="2.48672">
        <ele>219.7</ele>
        <time>2021-03-21T06:10:12Z</time>
      </trkpt>
      <trkpt lat="43.08486" lon="2.48657">
        <ele>219.8</ele>
        <time>2021-03-21T06:10:14Z</time>
      </trkpt>
      <trkpt lat="43.08486" lon="2.48651">
        <ele>219.9</ele>
        <time>2021-03-21T06:10:15Z</time>
      </trkpt>
      <trkpt lat="43.08487" lon="2.48638">
        <ele>220.1</ele>
        <time>2021-03-21T06:10:17Z</time>
      </trkpt>
      <trkpt lat="43.08487" lon="2.48632">
        <ele>220.2</ele>
        <time>2021-03-21T06:10:18Z</time>
      </trkpt>
      <trkpt lat="43.08488" lon="2.48619">
        <ele>220.4</ele>
        <time>2021-03-21T06:10:20Z</time>
      </trkpt>
      <trkpt lat="43.08489" lon="2.48605">
        <ele>220.6</ele>
        <time>2021-03-21T06:10:22Z</time>
      </trkpt>
      <trkpt lat="43.08488" lon="2.48598">
        <ele>220.8</ele>
        <time>2021-03-21T06:10:23Z</time>
      </trkpt>
      <trkpt lat="43.08488" lon="2.48583">
        <ele>220.9</ele>
        <time>2021-03-21T06:10:25Z</time>
      </trkpt>
      <trkpt lat="43.08487" lon="2.48576">
        <ele>221</ele>
        <time>2021-03-21T06:10:26Z</time>
      </trkpt>
      <trkpt lat="43.08486" lon="2.48562">
        <ele>221.2</ele>
        <time>2021-03-21T06:10:28Z</time>
      </trkpt>
      <trkpt lat="43.08484" lon="2.48548">
        <ele>221.4</ele>
        <time>2021-03-21T06:10:30Z</time>
      </trkpt>
      <trkpt lat="43.08483" lon="2.48542">
        <ele>221.5</ele>
        <time>2021-03-21T06:10:31Z</time>
      </trkpt>
      <trkpt lat="43.08482" lon="2.4853">
        <ele>221.8</ele>
        <time>2021-03-21T06:10:33Z</time>
      </trkpt>
      <trkpt lat="43.08482" lon="2.48523">
        <ele>222</ele>
        <time>2021-03-21T06:10:34Z</time>
      </trkpt>
      <trkpt lat="43.08481" lon="2.48512">
        <ele>222.2</ele>
        <time>2021-03-21T06:10:36Z</time>
      </trkpt>
      <trkpt lat="43.08479" lon="2.48501">
        <ele>222.4</ele>
        <time>2021-03-21T06:10:38Z</time>
      </trkpt>
      <trkpt lat="43.08478" lon="2.48487">
        <ele>222.7</ele>
        <time>2021-03-21T06:10:40Z</time>
      </trkpt>
      <trkpt lat="43.08477" lon="2.48475">
        <ele>222.9</ele>
        <time>2021-03-21T06:10:42Z</time>
      </trkpt>
      <trkpt lat="43.08475" lon="2.4847">
        <ele>223.1</ele>
        <time>2021-03-21T06:10:44Z</time>
      </trkpt>
      <trkpt lat="43.08476" lon="2.48455">
        <ele>223.3</ele>
        <time>2021-03-21T06:10:46Z</time>
      </trkpt>
      <trkpt lat="43.08475" lon="2.48448">
        <ele>223.4</ele>
        <time>2021-03-21T06:10:47Z</time>
      </trkpt>
      <trkpt lat="43.08474" lon="2.48442">
        <ele>223.5</ele>
        <time>2021-03-21T06:10:48Z</time>
      </trkpt>
      <trkpt lat="43.08473" lon="2.48437">
        <ele>223.6</ele>
        <time>2021-03-21T06:10:49Z</time>
      </trkpt>
      <trkpt lat="43.08472" lon="2.4843">
        <ele>223.7</ele>
        <time>2021-03-21T06:10:50Z</time>
      </trkpt>
      <trkpt lat="43.0847" lon="2.48423">
        <ele>223.8</ele>
        <time>2021-03-21T06:10:52Z</time>
      </trkpt>
      <trkpt lat="43.08468" lon="2.48417">
        <ele>223.9</ele>
        <time>2021-03-21T06:10:53Z</time>
      </trkpt>
      <trkpt lat="43.08467" lon="2.48411">
        <ele>224</ele>
        <time>2021-03-21T06:10:54Z</time>
      </trkpt>
      <trkpt lat="43.08464" lon="2.48401">
        <ele>224.1</ele>
        <time>2021-03-21T06:10:56Z</time>
      </trkpt>
      <trkpt lat="43.08462" lon="2.48395">
        <ele>224.1</ele>
        <time>2021-03-21T06:10:57Z</time>
      </trkpt>
      <trkpt lat="43.0846" lon="2.48389">
        <ele>224.2</ele>
        <time>2021-03-21T06:10:58Z</time>
      </trkpt>
      <trkpt lat="43.08455" lon="2.48379">
        <ele>224.2</ele>
        <time>2021-03-21T06:11:00Z</time>
      </trkpt>
      <trkpt lat="43.08453" lon="2.48373">
        <ele>224.3</ele>
        <time>2021-03-21T06:11:01Z</time>
      </trkpt>
      <trkpt lat="43.08449" lon="2.48363">
        <ele>224.3</ele>
        <time>2021-03-21T06:11:03Z</time>
      </trkpt>
      <trkpt lat="43.08446" lon="2.48357">
        <ele>224.3</ele>
        <time>2021-03-21T06:11:04Z</time>
      </trkpt>
      <trkpt lat="43.08443" lon="2.48351">
        <ele>224.3</ele>
        <time>2021-03-21T06:11:05Z</time>
      </trkpt>
      <trkpt lat="43.08438" lon="2.4834">
        <ele>224.4</ele>
        <time>2021-03-21T06:11:07Z</time>
      </trkpt>
      <trkpt lat="43.08433" lon="2.48329">
        <ele>224.5</ele>
        <time>2021-03-21T06:11:09Z</time>
      </trkpt>
      <trkpt lat="43.08428" lon="2.48317">
        <ele>224.5</ele>
        <time>2021-03-21T06:11:11Z</time>
      </trkpt>
      <trkpt lat="43.08425" lon="2.48312">
        <ele>224.5</ele>
        <time>2021-03-21T06:11:12Z</time>
      </trkpt>
      <trkpt lat="43.08422" lon="2.48307">
        <ele>224.5</ele>
        <time>2021-03-21T06:11:13Z</time>
      </trkpt>
      <trkpt lat="43.0842" lon="2.48301">
        <ele>224.6</ele>
        <time>2021-03-21T06:11:14Z</time>
      </trkpt>
      <trkpt lat="43.08417" lon="2.48296">
        <ele>224.6</ele>
        <time>2021-03-21T06:11:15Z</time>
      </trkpt>
      <trkpt lat="43.08411" lon="2.48286">
        <ele>224.7</ele>
        <time>2021-03-21T06:11:17Z</time>
      </trkpt>
      <trkpt lat="43.08408" lon="2.4828">
        <ele>224.7</ele>
        <time>2021-03-21T06:11:18Z</time>
      </trkpt>
      <trkpt lat="43.08403" lon="2.48269">
        <ele>224.8</ele>
        <time>2021-03-21T06:11:20Z</time>
      </trkpt>
      <trkpt lat="43.08397" lon="2.48257">
        <ele>224.8</ele>
        <time>2021-03-21T06:11:22Z</time>
      </trkpt>
      <trkpt lat="43.08392" lon="2.48246">
        <ele>224.9</ele>
        <time>2021-03-21T06:11:24Z</time>
      </trkpt>
      <trkpt lat="43.08389" lon="2.4824">
        <ele>224.9</ele>
        <time>2021-03-21T06:11:25Z</time>
      </trkpt>
      <trkpt lat="43.08386" lon="2.48235">
        <ele>225</ele>
        <time>2021-03-21T06:11:26Z</time>
      </trkpt>
      <trkpt lat="43.08382" lon="2.48223">
        <ele>225.1</ele>
        <time>2021-03-21T06:11:28Z</time>
      </trkpt>
      <trkpt lat="43.08378" lon="2.48211">
        <ele>225.2</ele>
        <time>2021-03-21T06:11:30Z</time>
      </trkpt>
      <trkpt lat="43.08376" lon="2.48201">
        <ele>225.3</ele>
        <time>2021-03-21T06:11:32Z</time>
      </trkpt>
      <trkpt lat="43.08374" lon="2.48194">
        <ele>225.3</ele>
        <time>2021-03-21T06:11:33Z</time>
      </trkpt>
      <trkpt lat="43.08373" lon="2.48179">
        <ele>225.3</ele>
        <time>2021-03-21T06:11:35Z</time>
      </trkpt>
      <trkpt lat="43.08372" lon="2.48164">
        <ele>225.4</ele>
        <time>2021-03-21T06:11:37Z</time>
      </trkpt>
      <trkpt lat="43.08372" lon="2.48157">
        <ele>225.4</ele>
        <time>2021-03-21T06:11:38Z</time>
      </trkpt>
      <trkpt lat="43.08372" lon="2.4815">
        <ele>225.4</ele>
        <time>2021-03-21T06:11:39Z</time>
      </trkpt>
      <trkpt lat="43.08372" lon="2.48143">
        <ele>225.5</ele>
        <time>2021-03-21T06:11:40Z</time>
      </trkpt>
      <trkpt lat="43.08373" lon="2.48129">
        <ele>225.6</ele>
        <time>2021-03-21T06:11:42Z</time>
      </trkpt>
      <trkpt lat="43.08373" lon="2.48123">
        <ele>225.6</ele>
        <time>2021-03-21T06:11:43Z</time>
      </trkpt>
      <trkpt lat="43.08374" lon="2.48116">
        <ele>225.6</ele>
        <time>2021-03-21T06:11:44Z</time>
      </trkpt>
      <trkpt lat="43.08374" lon="2.48109">
        <ele>225.7</ele>
        <time>2021-03-21T06:11:45Z</time>
      </trkpt>
      <trkpt lat="43.08374" lon="2.48095">
        <ele>225.8</ele>
        <time>2021-03-21T06:11:47Z</time>
      </trkpt>
      <trkpt lat="43.08374" lon="2.48088">
        <ele>225.8</ele>
        <time>2021-03-21T06:11:48Z</time>
      </trkpt>
      <trkpt lat="43.08374" lon="2.48073">
        <ele>225.9</ele>
        <time>2021-03-21T06:11:50Z</time>
      </trkpt>
      <trkpt lat="43.08374" lon="2.48057">
        <ele>226</ele>
        <time>2021-03-21T06:11:52Z</time>
      </trkpt>
      <trkpt lat="43.08372" lon="2.4804">
        <ele>226.1</ele>
        <time>2021-03-21T06:11:54Z</time>
      </trkpt>
      <trkpt lat="43.08366" lon="2.48024">
        <ele>226.2</ele>
        <time>2021-03-21T06:11:56Z</time>
      </trkpt>
      <trkpt lat="43.08361" lon="2.48018">
        <ele>226.3</ele>
        <time>2021-03-21T06:11:57Z</time>
      </trkpt>
      <trkpt lat="43.08356" lon="2.48012">
        <ele>226.3</ele>
        <time>2021-03-21T06:11:58Z</time>
      </trkpt>
      <trkpt lat="43.08351" lon="2.48006">
        <ele>226.3</ele>
        <time>2021-03-21T06:11:59Z</time>
      </trkpt>
      <trkpt lat="43.0834" lon="2.47996">
        <ele>226.3</ele>
        <time>2021-03-21T06:12:01Z</time>
      </trkpt>
      <trkpt lat="43.08335" lon="2.47991">
        <ele>226.4</ele>
        <time>2021-03-21T06:12:02Z</time>
      </trkpt>
      <trkpt lat="43.0833" lon="2.47986">
        <ele>226.4</ele>
        <time>2021-03-21T06:12:03Z</time>
      </trkpt>
      <trkpt lat="43.0832" lon="2.47976">
        <ele>226.5</ele>
        <time>2021-03-21T06:12:05Z</time>
      </trkpt>
      <trkpt lat="43.08311" lon="2.47965">
        <ele>226.6</ele>
        <time>2021-03-21T06:12:07Z</time>
      </trkpt>
      <trkpt lat="43.08302" lon="2.47955">
        <ele>226.7</ele>
        <time>2021-03-21T06:12:09Z</time>
      </trkpt>
      <trkpt lat="43.08298" lon="2.47949">
        <ele>226.8</ele>
        <time>2021-03-21T06:12:10Z</time>
      </trkpt>
      <trkpt lat="43.08293" lon="2.47935">
        <ele>226.8</ele>
        <time>2021-03-21T06:12:12Z</time>
      </trkpt>
      <trkpt lat="43.08292" lon="2.47926">
        <ele>226.8</ele>
        <time>2021-03-21T06:12:13Z</time>
      </trkpt>
      <trkpt lat="43.08292" lon="2.47911">
        <ele>226.9</ele>
        <time>2021-03-21T06:12:15Z</time>
      </trkpt>
      <trkpt lat="43.08296" lon="2.47896">
        <ele>227</ele>
        <time>2021-03-21T06:12:17Z</time>
      </trkpt>
      <trkpt lat="43.08297" lon="2.47888">
        <ele>227.1</ele>
        <time>2021-03-21T06:12:18Z</time>
      </trkpt>
      <trkpt lat="43.08297" lon="2.4788">
        <ele>227.1</ele>
        <time>2021-03-21T06:12:19Z</time>
      </trkpt>
      <trkpt lat="43.08297" lon="2.47873">
        <ele>227.3</ele>
        <time>2021-03-21T06:12:20Z</time>
      </trkpt>
      <trkpt lat="43.08292" lon="2.47859">
        <ele>227.5</ele>
        <time>2021-03-21T06:12:22Z</time>
      </trkpt>
      <trkpt lat="43.08283" lon="2.47848">
        <ele>227.8</ele>
        <time>2021-03-21T06:12:24Z</time>
      </trkpt>
      <trkpt lat="43.08278" lon="2.47843">
        <ele>227.9</ele>
        <time>2021-03-21T06:12:25Z</time>
      </trkpt>
      <trkpt lat="43.08272" lon="2.47839">
        <ele>228.1</ele>
        <time>2021-03-21T06:12:26Z</time>
      </trkpt>
      <trkpt lat="43.08262" lon="2.47832">
        <ele>228.5</ele>
        <time>2021-03-21T06:12:28Z</time>
      </trkpt>
      <trkpt lat="43.08251" lon="2.47824">
        <ele>228.9</ele>
        <time>2021-03-21T06:12:30Z</time>
      </trkpt>
      <trkpt lat="43.08246" lon="2.4782">
        <ele>229.1</ele>
        <time>2021-03-21T06:12:31Z</time>
      </trkpt>
      <trkpt lat="43.08237" lon="2.47813">
        <ele>229.5</ele>
        <time>2021-03-21T06:12:33Z</time>
      </trkpt>
      <trkpt lat="43.08232" lon="2.47809">
        <ele>229.8</ele>
        <time>2021-03-21T06:12:34Z</time>
      </trkpt>
      <trkpt lat="43.08222" lon="2.47803">
        <ele>230</ele>
        <time>2021-03-21T06:12:36Z</time>
      </trkpt>
      <trkpt lat="43.08211" lon="2.47798">
        <ele>230</ele>
        <time>2021-03-21T06:12:38Z</time>
      </trkpt>
      <trkpt lat="43.08201" lon="2.47792">
        <ele>229.9</ele>
        <time>2021-03-21T06:12:40Z</time>
      </trkpt>
      <trkpt lat="43.08196" lon="2.47789">
        <ele>229.8</ele>
        <time>2021-03-21T06:12:41Z</time>
      </trkpt>
      <trkpt lat="43.08186" lon="2.47782">
        <ele>229.6</ele>
        <time>2021-03-21T06:12:43Z</time>
      </trkpt>
      <trkpt lat="43.08175" lon="2.47776">
        <ele>229.4</ele>
        <time>2021-03-21T06:12:45Z</time>
      </trkpt>
      <trkpt lat="43.08169" lon="2.47772">
        <ele>229.3</ele>
        <time>2021-03-21T06:12:46Z</time>
      </trkpt>
      <trkpt lat="43.08157" lon="2.47766">
        <ele>229.2</ele>
        <time>2021-03-21T06:12:48Z</time>
      </trkpt>
      <trkpt lat="43.08145" lon="2.47763">
        <ele>229</ele>
        <time>2021-03-21T06:12:50Z</time>
      </trkpt>
      <trkpt lat="43.08133" lon="2.4776">
        <ele>228.8</ele>
        <time>2021-03-21T06:12:52Z</time>
      </trkpt>
      <trkpt lat="43.08127" lon="2.47759">
        <ele>228.7</ele>
        <time>2021-03-21T06:12:53Z</time>
      </trkpt>
      <trkpt lat="43.08115" lon="2.47755">
        <ele>228.5</ele>
        <time>2021-03-21T06:12:55Z</time>
      </trkpt>
      <trkpt lat="43.08109" lon="2.47752">
        <ele>228.4</ele>
        <time>2021-03-21T06:12:56Z</time>
      </trkpt>
      <trkpt lat="43.08097" lon="2.47744">
        <ele>228.2</ele>
        <time>2021-03-21T06:12:58Z</time>
      </trkpt>
      <trkpt lat="43.08087" lon="2.47735">
        <ele>228.1</ele>
        <time>2021-03-21T06:13:00Z</time>
      </trkpt>
      <trkpt lat="43.08083" lon="2.4773">
        <ele>228.1</ele>
        <time>2021-03-21T06:13:01Z</time>
      </trkpt>
      <trkpt lat="43.08078" lon="2.47725">
        <ele>228</ele>
        <time>2021-03-21T06:13:02Z</time>
      </trkpt>
      <trkpt lat="43.08073" lon="2.4772">
        <ele>228</ele>
        <time>2021-03-21T06:13:03Z</time>
      </trkpt>
      <trkpt lat="43.08069" lon="2.47715">
        <ele>227.9</ele>
        <time>2021-03-21T06:13:04Z</time>
      </trkpt>
      <trkpt lat="43.08059" lon="2.47705">
        <ele>227.8</ele>
        <time>2021-03-21T06:13:06Z</time>
      </trkpt>
      <trkpt lat="43.08053" lon="2.477">
        <ele>227.8</ele>
        <time>2021-03-21T06:13:07Z</time>
      </trkpt>
      <trkpt lat="43.08043" lon="2.4769">
        <ele>227.8</ele>
        <time>2021-03-21T06:13:09Z</time>
      </trkpt>
      <trkpt lat="43.08039" lon="2.47685">
        <ele>227.8</ele>
        <time>2021-03-21T06:13:10Z</time>
      </trkpt>
      <trkpt lat="43.08029" lon="2.47675">
        <ele>227.8</ele>
        <time>2021-03-21T06:13:12Z</time>
      </trkpt>
      <trkpt lat="43.08021" lon="2.47665">
        <ele>227.8</ele>
        <time>2021-03-21T06:13:14Z</time>
      </trkpt>
      <trkpt lat="43.08017" lon="2.4766">
        <ele>227.8</ele>
        <time>2021-03-21T06:13:15Z</time>
      </trkpt>
      <trkpt lat="43.08009" lon="2.4765">
        <ele>227.9</ele>
        <time>2021-03-21T06:13:17Z</time>
      </trkpt>
      <trkpt lat="43.08002" lon="2.47639">
        <ele>228.1</ele>
        <time>2021-03-21T06:13:19Z</time>
      </trkpt>
      <trkpt lat="43.07998" lon="2.47634">
        <ele>228.1</ele>
        <time>2021-03-21T06:13:20Z</time>
      </trkpt>
      <trkpt lat="43.07995" lon="2.47628">
        <ele>228.2</ele>
        <time>2021-03-21T06:13:21Z</time>
      </trkpt>
      <trkpt lat="43.07987" lon="2.47618">
        <ele>228.4</ele>
        <time>2021-03-21T06:13:23Z</time>
      </trkpt>
      <trkpt lat="43.07983" lon="2.47613">
        <ele>228.5</ele>
        <time>2021-03-21T06:13:24Z</time>
      </trkpt>
      <trkpt lat="43.07975" lon="2.47602">
        <ele>228.7</ele>
        <time>2021-03-21T06:13:26Z</time>
      </trkpt>
      <trkpt lat="43.07971" lon="2.47597">
        <ele>228.8</ele>
        <time>2021-03-21T06:13:27Z</time>
      </trkpt>
      <trkpt lat="43.07967" lon="2.47591">
        <ele>228.9</ele>
        <time>2021-03-21T06:13:28Z</time>
      </trkpt>
      <trkpt lat="43.07959" lon="2.47579">
        <ele>229.3</ele>
        <time>2021-03-21T06:13:30Z</time>
      </trkpt>
      <trkpt lat="43.0795" lon="2.47568">
        <ele>229.8</ele>
        <time>2021-03-21T06:13:32Z</time>
      </trkpt>
      <trkpt lat="43.07942" lon="2.47557">
        <ele>230.3</ele>
        <time>2021-03-21T06:13:34Z</time>
      </trkpt>
      <trkpt lat="43.07933" lon="2.4755">
        <ele>230.9</ele>
        <time>2021-03-21T06:13:36Z</time>
      </trkpt>
      <trkpt lat="43.07928" lon="2.47548">
        <ele>231.2</ele>
        <time>2021-03-21T06:13:37Z</time>
      </trkpt>
      <trkpt lat="43.07922" lon="2.47546">
        <ele>231.4</ele>
        <time>2021-03-21T06:13:38Z</time>
      </trkpt>
      <trkpt lat="43.07917" lon="2.47546">
        <ele>231.4</ele>
        <time>2021-03-21T06:13:39Z</time>
      </trkpt>
      <trkpt lat="43.07906" lon="2.47547">
        <ele>231.6</ele>
        <time>2021-03-21T06:13:41Z</time>
      </trkpt>
      <trkpt lat="43.07901" lon="2.47547">
        <ele>231.8</ele>
        <time>2021-03-21T06:13:42Z</time>
      </trkpt>
      <trkpt lat="43.0789" lon="2.47547">
        <ele>232.3</ele>
        <time>2021-03-21T06:13:44Z</time>
      </trkpt>
      <trkpt lat="43.07884" lon="2.47547">
        <ele>232.6</ele>
        <time>2021-03-21T06:13:45Z</time>
      </trkpt>
      <trkpt lat="43.07878" lon="2.47546">
        <ele>232.9</ele>
        <time>2021-03-21T06:13:46Z</time>
      </trkpt>
      <trkpt lat="43.07867" lon="2.47545">
        <ele>233.5</ele>
        <time>2021-03-21T06:13:48Z</time>
      </trkpt>
      <trkpt lat="43.07861" lon="2.47544">
        <ele>233.8</ele>
        <time>2021-03-21T06:13:49Z</time>
      </trkpt>
      <trkpt lat="43.07856" lon="2.47543">
        <ele>234</ele>
        <time>2021-03-21T06:13:50Z</time>
      </trkpt>
      <trkpt lat="43.07846" lon="2.47539">
        <ele>234.5</ele>
        <time>2021-03-21T06:13:52Z</time>
      </trkpt>
      <trkpt lat="43.07841" lon="2.47535">
        <ele>234.8</ele>
        <time>2021-03-21T06:13:53Z</time>
      </trkpt>
      <trkpt lat="43.07832" lon="2.47526">
        <ele>235.3</ele>
        <time>2021-03-21T06:13:55Z</time>
      </trkpt>
      <trkpt lat="43.07828" lon="2.47521">
        <ele>235.5</ele>
        <time>2021-03-21T06:13:56Z</time>
      </trkpt>
      <trkpt lat="43.07824" lon="2.47516">
        <ele>235.7</ele>
        <time>2021-03-21T06:13:57Z</time>
      </trkpt>
      <trkpt lat="43.07817" lon="2.47506">
        <ele>236.1</ele>
        <time>2021-03-21T06:13:59Z</time>
      </trkpt>
      <trkpt lat="43.07812" lon="2.47501">
        <ele>236.3</ele>
        <time>2021-03-21T06:14:00Z</time>
      </trkpt>
      <trkpt lat="43.07808" lon="2.47496">
        <ele>236.5</ele>
        <time>2021-03-21T06:14:01Z</time>
      </trkpt>
      <trkpt lat="43.07799" lon="2.47487">
        <ele>236.8</ele>
        <time>2021-03-21T06:14:03Z</time>
      </trkpt>
      <trkpt lat="43.07795" lon="2.47483">
        <ele>236.9</ele>
        <time>2021-03-21T06:14:04Z</time>
      </trkpt>
      <trkpt lat="43.07791" lon="2.47478">
        <ele>237.1</ele>
        <time>2021-03-21T06:14:05Z</time>
      </trkpt>
      <trkpt lat="43.07783" lon="2.47467">
        <ele>237.4</ele>
        <time>2021-03-21T06:14:07Z</time>
      </trkpt>
      <trkpt lat="43.0778" lon="2.47461">
        <ele>237.6</ele>
        <time>2021-03-21T06:14:08Z</time>
      </trkpt>
      <trkpt lat="43.07774" lon="2.4745">
        <ele>238</ele>
        <time>2021-03-21T06:14:10Z</time>
      </trkpt>
      <trkpt lat="43.07769" lon="2.47438">
        <ele>238.4</ele>
        <time>2021-03-21T06:14:12Z</time>
      </trkpt>
      <trkpt lat="43.07766" lon="2.47426">
        <ele>238.8</ele>
        <time>2021-03-21T06:14:14Z</time>
      </trkpt>
      <trkpt lat="43.07766" lon="2.4742">
        <ele>238.9</ele>
        <time>2021-03-21T06:14:15Z</time>
      </trkpt>
      <trkpt lat="43.07765" lon="2.4741">
        <ele>239.3</ele>
        <time>2021-03-21T06:14:17Z</time>
      </trkpt>
      <trkpt lat="43.07765" lon="2.47404">
        <ele>239.4</ele>
        <time>2021-03-21T06:14:18Z</time>
      </trkpt>
      <trkpt lat="43.07763" lon="2.47393">
        <ele>239.8</ele>
        <time>2021-03-21T06:14:20Z</time>
      </trkpt>
      <trkpt lat="43.07762" lon="2.47387">
        <ele>240</ele>
        <time>2021-03-21T06:14:21Z</time>
      </trkpt>
      <trkpt lat="43.07758" lon="2.47375">
        <ele>240.4</ele>
        <time>2021-03-21T06:14:23Z</time>
      </trkpt>
      <trkpt lat="43.07755" lon="2.4737">
        <ele>240.6</ele>
        <time>2021-03-21T06:14:24Z</time>
      </trkpt>
      <trkpt lat="43.07749" lon="2.47359">
        <ele>241.1</ele>
        <time>2021-03-21T06:14:26Z</time>
      </trkpt>
      <trkpt lat="43.07745" lon="2.47361">
        <ele>241.2</ele>
        <time>2021-03-21T06:14:28Z</time>
      </trkpt>
      <trkpt lat="43.07741" lon="2.47352">
        <ele>241.6</ele>
        <time>2021-03-21T06:14:29Z</time>
      </trkpt>
      <trkpt lat="43.07734" lon="2.47345">
        <ele>242.1</ele>
        <time>2021-03-21T06:14:31Z</time>
      </trkpt>
      <trkpt lat="43.07728" lon="2.47341">
        <ele>242.3</ele>
        <time>2021-03-21T06:14:32Z</time>
      </trkpt>
      <trkpt lat="43.07723" lon="2.47339">
        <ele>242.5</ele>
        <time>2021-03-21T06:14:33Z</time>
      </trkpt>
      <trkpt lat="43.07713" lon="2.47337">
        <ele>242.6</ele>
        <time>2021-03-21T06:14:35Z</time>
      </trkpt>
      <trkpt lat="43.07708" lon="2.47337">
        <ele>242.6</ele>
        <time>2021-03-21T06:14:36Z</time>
      </trkpt>
      <trkpt lat="43.07703" lon="2.47336">
        <ele>242.6</ele>
        <time>2021-03-21T06:14:37Z</time>
      </trkpt>
      <trkpt lat="43.07692" lon="2.47335">
        <ele>242.4</ele>
        <time>2021-03-21T06:14:39Z</time>
      </trkpt>
      <trkpt lat="43.07681" lon="2.47334">
        <ele>242.1</ele>
        <time>2021-03-21T06:14:41Z</time>
      </trkpt>
      <trkpt lat="43.07675" lon="2.47333">
        <ele>241.9</ele>
        <time>2021-03-21T06:14:42Z</time>
      </trkpt>
      <trkpt lat="43.07669" lon="2.47333">
        <ele>241.8</ele>
        <time>2021-03-21T06:14:43Z</time>
      </trkpt>
      <trkpt lat="43.07663" lon="2.47332">
        <ele>241.6</ele>
        <time>2021-03-21T06:14:44Z</time>
      </trkpt>
      <trkpt lat="43.07652" lon="2.47332">
        <ele>241.3</ele>
        <time>2021-03-21T06:14:46Z</time>
      </trkpt>
      <trkpt lat="43.07647" lon="2.47331">
        <ele>241.1</ele>
        <time>2021-03-21T06:14:47Z</time>
      </trkpt>
      <trkpt lat="43.07633" lon="2.47332">
        <ele>240.7</ele>
        <time>2021-03-21T06:14:49Z</time>
      </trkpt>
      <trkpt lat="43.0762" lon="2.47333">
        <ele>240.6</ele>
        <time>2021-03-21T06:14:51Z</time>
      </trkpt>
      <trkpt lat="43.07613" lon="2.47333">
        <ele>240.5</ele>
        <time>2021-03-21T06:14:52Z</time>
      </trkpt>
      <trkpt lat="43.07602" lon="2.47329">
        <ele>240.5</ele>
        <time>2021-03-21T06:14:54Z</time>
      </trkpt>
      <trkpt lat="43.07592" lon="2.47323">
        <ele>240.6</ele>
        <time>2021-03-21T06:14:56Z</time>
      </trkpt>
      <trkpt lat="43.07582" lon="2.47317">
        <ele>240.8</ele>
        <time>2021-03-21T06:14:58Z</time>
      </trkpt>
      <trkpt lat="43.07577" lon="2.47314">
        <ele>240.9</ele>
        <time>2021-03-21T06:14:59Z</time>
      </trkpt>
      <trkpt lat="43.07572" lon="2.47311">
        <ele>241</ele>
        <time>2021-03-21T06:15:00Z</time>
      </trkpt>
      <trkpt lat="43.07562" lon="2.47302">
        <ele>241.3</ele>
        <time>2021-03-21T06:15:02Z</time>
      </trkpt>
      <trkpt lat="43.07556" lon="2.4729">
        <ele>241.6</ele>
        <time>2021-03-21T06:15:04Z</time>
      </trkpt>
      <trkpt lat="43.07551" lon="2.47279">
        <ele>242</ele>
        <time>2021-03-21T06:15:06Z</time>
      </trkpt>
      <trkpt lat="43.07544" lon="2.47272">
        <ele>242.3</ele>
        <time>2021-03-21T06:15:08Z</time>
      </trkpt>
      <trkpt lat="43.0754" lon="2.47269">
        <ele>242.5</ele>
        <time>2021-03-21T06:15:09Z</time>
      </trkpt>
      <trkpt lat="43.07533" lon="2.47264">
        <ele>242.8</ele>
        <time>2021-03-21T06:15:11Z</time>
      </trkpt>
      <trkpt lat="43.07529" lon="2.47262">
        <ele>243</ele>
        <time>2021-03-21T06:15:12Z</time>
      </trkpt>
      <trkpt lat="43.07519" lon="2.47256">
        <ele>243.3</ele>
        <time>2021-03-21T06:15:14Z</time>
      </trkpt>
      <trkpt lat="43.07515" lon="2.47252">
        <ele>243.5</ele>
        <time>2021-03-21T06:15:15Z</time>
      </trkpt>
      <trkpt lat="43.07511" lon="2.47248">
        <ele>243.6</ele>
        <time>2021-03-21T06:15:16Z</time>
      </trkpt>
      <trkpt lat="43.07507" lon="2.47244">
        <ele>243.8</ele>
        <time>2021-03-21T06:15:17Z</time>
      </trkpt>
      <trkpt lat="43.07499" lon="2.47237">
        <ele>244.1</ele>
        <time>2021-03-21T06:15:19Z</time>
      </trkpt>
      <trkpt lat="43.07495" lon="2.47233">
        <ele>244.3</ele>
        <time>2021-03-21T06:15:20Z</time>
      </trkpt>
      <trkpt lat="43.07491" lon="2.47231">
        <ele>244.5</ele>
        <time>2021-03-21T06:15:21Z</time>
      </trkpt>
      <trkpt lat="43.07488" lon="2.47227">
        <ele>244.6</ele>
        <time>2021-03-21T06:15:23Z</time>
      </trkpt>
      <trkpt lat="43.07483" lon="2.47223">
        <ele>244.8</ele>
        <time>2021-03-21T06:15:24Z</time>
      </trkpt>
      <trkpt lat="43.07478" lon="2.47219">
        <ele>245</ele>
        <time>2021-03-21T06:15:25Z</time>
      </trkpt>
      <trkpt lat="43.07471" lon="2.47214">
        <ele>245.3</ele>
        <time>2021-03-21T06:15:27Z</time>
      </trkpt>
      <trkpt lat="43.07464" lon="2.47212">
        <ele>245.4</ele>
        <time>2021-03-21T06:15:28Z</time>
      </trkpt>
      <trkpt lat="43.07459" lon="2.47212">
        <ele>245.6</ele>
        <time>2021-03-21T06:15:29Z</time>
      </trkpt>
      <trkpt lat="43.07448" lon="2.47211">
        <ele>245.8</ele>
        <time>2021-03-21T06:15:31Z</time>
      </trkpt>
      <trkpt lat="43.07443" lon="2.47211">
        <ele>245.9</ele>
        <time>2021-03-21T06:15:32Z</time>
      </trkpt>
      <trkpt lat="43.07433" lon="2.47209">
        <ele>246.1</ele>
        <time>2021-03-21T06:15:34Z</time>
      </trkpt>
      <trkpt lat="43.07429" lon="2.47207">
        <ele>246.1</ele>
        <time>2021-03-21T06:15:35Z</time>
      </trkpt>
      <trkpt lat="43.0742" lon="2.47202">
        <ele>246.3</ele>
        <time>2021-03-21T06:15:37Z</time>
      </trkpt>
      <trkpt lat="43.07412" lon="2.47193">
        <ele>246.4</ele>
        <time>2021-03-21T06:15:39Z</time>
      </trkpt>
      <trkpt lat="43.07408" lon="2.47189">
        <ele>246.5</ele>
        <time>2021-03-21T06:15:40Z</time>
      </trkpt>
      <trkpt lat="43.07401" lon="2.4718">
        <ele>246.6</ele>
        <time>2021-03-21T06:15:42Z</time>
      </trkpt>
      <trkpt lat="43.07393" lon="2.47171">
        <ele>246.7</ele>
        <time>2021-03-21T06:15:44Z</time>
      </trkpt>
      <trkpt lat="43.07389" lon="2.47167">
        <ele>246.8</ele>
        <time>2021-03-21T06:15:45Z</time>
      </trkpt>
      <trkpt lat="43.07385" lon="2.47163">
        <ele>246.9</ele>
        <time>2021-03-21T06:15:46Z</time>
      </trkpt>
      <trkpt lat="43.07378" lon="2.47154">
        <ele>247</ele>
        <time>2021-03-21T06:15:48Z</time>
      </trkpt>
      <trkpt lat="43.07375" lon="2.47149">
        <ele>247.1</ele>
        <time>2021-03-21T06:15:49Z</time>
      </trkpt>
      <trkpt lat="43.07372" lon="2.47144">
        <ele>247.2</ele>
        <time>2021-03-21T06:15:50Z</time>
      </trkpt>
      <trkpt lat="43.07367" lon="2.47135">
        <ele>247.3</ele>
        <time>2021-03-21T06:15:52Z</time>
      </trkpt>
      <trkpt lat="43.07363" lon="2.47123">
        <ele>247.5</ele>
        <time>2021-03-21T06:15:54Z</time>
      </trkpt>
      <trkpt lat="43.0736" lon="2.47111">
        <ele>247.7</ele>
        <time>2021-03-21T06:15:56Z</time>
      </trkpt>
      <trkpt lat="43.07359" lon="2.47105">
        <ele>247.8</ele>
        <time>2021-03-21T06:15:57Z</time>
      </trkpt>
      <trkpt lat="43.07357" lon="2.47099">
        <ele>247.9</ele>
        <time>2021-03-21T06:15:58Z</time>
      </trkpt>
      <trkpt lat="43.07355" lon="2.47088">
        <ele>248.1</ele>
        <time>2021-03-21T06:16:00Z</time>
      </trkpt>
      <trkpt lat="43.07354" lon="2.47081">
        <ele>248.2</ele>
        <time>2021-03-21T06:16:01Z</time>
      </trkpt>
      <trkpt lat="43.07353" lon="2.47075">
        <ele>248.3</ele>
        <time>2021-03-21T06:16:02Z</time>
      </trkpt>
      <trkpt lat="43.07353" lon="2.47068">
        <ele>248.4</ele>
        <time>2021-03-21T06:16:03Z</time>
      </trkpt>
      <trkpt lat="43.07352" lon="2.47054">
        <ele>248.6</ele>
        <time>2021-03-21T06:16:05Z</time>
      </trkpt>
      <trkpt lat="43.0735" lon="2.47041">
        <ele>248.9</ele>
        <time>2021-03-21T06:16:07Z</time>
      </trkpt>
      <trkpt lat="43.07348" lon="2.47029">
        <ele>249.2</ele>
        <time>2021-03-21T06:16:09Z</time>
      </trkpt>
      <trkpt lat="43.07346" lon="2.47017">
        <ele>249.6</ele>
        <time>2021-03-21T06:16:11Z</time>
      </trkpt>
      <trkpt lat="43.07344" lon="2.47011">
        <ele>249.8</ele>
        <time>2021-03-21T06:16:12Z</time>
      </trkpt>
      <trkpt lat="43.07343" lon="2.47004">
        <ele>250.1</ele>
        <time>2021-03-21T06:16:13Z</time>
      </trkpt>
      <trkpt lat="43.0734" lon="2.46997">
        <ele>250.3</ele>
        <time>2021-03-21T06:16:15Z</time>
      </trkpt>
      <trkpt lat="43.07339" lon="2.46991">
        <ele>250.4</ele>
        <time>2021-03-21T06:16:16Z</time>
      </trkpt>
      <trkpt lat="43.07336" lon="2.46983">
        <ele>250.7</ele>
        <time>2021-03-21T06:16:18Z</time>
      </trkpt>
      <trkpt lat="43.07333" lon="2.46973">
        <ele>251</ele>
        <time>2021-03-21T06:16:19Z</time>
      </trkpt>
      <trkpt lat="43.07329" lon="2.46962">
        <ele>251.4</ele>
        <time>2021-03-21T06:16:21Z</time>
      </trkpt>
      <trkpt lat="43.07325" lon="2.46952">
        <ele>251.8</ele>
        <time>2021-03-21T06:16:23Z</time>
      </trkpt>
      <trkpt lat="43.07323" lon="2.46946">
        <ele>252</ele>
        <time>2021-03-21T06:16:24Z</time>
      </trkpt>
      <trkpt lat="43.07317" lon="2.46936">
        <ele>252.3</ele>
        <time>2021-03-21T06:16:26Z</time>
      </trkpt>
      <trkpt lat="43.07314" lon="2.46931">
        <ele>252.5</ele>
        <time>2021-03-21T06:16:27Z</time>
      </trkpt>
      <trkpt lat="43.07306" lon="2.46921">
        <ele>252.9</ele>
        <time>2021-03-21T06:16:29Z</time>
      </trkpt>
      <trkpt lat="43.07302" lon="2.46917">
        <ele>253.1</ele>
        <time>2021-03-21T06:16:30Z</time>
      </trkpt>
      <trkpt lat="43.07294" lon="2.46911">
        <ele>253.4</ele>
        <time>2021-03-21T06:16:32Z</time>
      </trkpt>
      <trkpt lat="43.07289" lon="2.46908">
        <ele>253.6</ele>
        <time>2021-03-21T06:16:33Z</time>
      </trkpt>
      <trkpt lat="43.0728" lon="2.46905">
        <ele>254</ele>
        <time>2021-03-21T06:16:35Z</time>
      </trkpt>
      <trkpt lat="43.07275" lon="2.46905">
        <ele>254.1</ele>
        <time>2021-03-21T06:16:36Z</time>
      </trkpt>
      <trkpt lat="43.0727" lon="2.46904">
        <ele>254.3</ele>
        <time>2021-03-21T06:16:37Z</time>
      </trkpt>
      <trkpt lat="43.07261" lon="2.46904">
        <ele>254.7</ele>
        <time>2021-03-21T06:16:39Z</time>
      </trkpt>
      <trkpt lat="43.07252" lon="2.46903">
        <ele>255.1</ele>
        <time>2021-03-21T06:16:41Z</time>
      </trkpt>
      <trkpt lat="43.07248" lon="2.46902">
        <ele>255.3</ele>
        <time>2021-03-21T06:16:42Z</time>
      </trkpt>
      <trkpt lat="43.07244" lon="2.46902">
        <ele>255.5</ele>
        <time>2021-03-21T06:16:43Z</time>
      </trkpt>
      <trkpt lat="43.07239" lon="2.46901">
        <ele>255.7</ele>
        <time>2021-03-21T06:16:44Z</time>
      </trkpt>
      <trkpt lat="43.0723" lon="2.46898">
        <ele>256.3</ele>
        <time>2021-03-21T06:16:46Z</time>
      </trkpt>
      <trkpt lat="43.07226" lon="2.46895">
        <ele>256.5</ele>
        <time>2021-03-21T06:16:47Z</time>
      </trkpt>
      <trkpt lat="43.07221" lon="2.46894">
        <ele>256.8</ele>
        <time>2021-03-21T06:16:48Z</time>
      </trkpt>
      <trkpt lat="43.07216" lon="2.46895">
        <ele>257.1</ele>
        <time>2021-03-21T06:16:50Z</time>
      </trkpt>
      <trkpt lat="43.0721" lon="2.46895">
        <ele>257.5</ele>
        <time>2021-03-21T06:16:51Z</time>
      </trkpt>
      <trkpt lat="43.07204" lon="2.46896">
        <ele>257.9</ele>
        <time>2021-03-21T06:16:53Z</time>
      </trkpt>
      <trkpt lat="43.07199" lon="2.46895">
        <ele>258.3</ele>
        <time>2021-03-21T06:16:54Z</time>
      </trkpt>
      <trkpt lat="43.07195" lon="2.46895">
        <ele>258.6</ele>
        <time>2021-03-21T06:16:55Z</time>
      </trkpt>
      <trkpt lat="43.07189" lon="2.46895">
        <ele>259</ele>
        <time>2021-03-21T06:16:57Z</time>
      </trkpt>
      <trkpt lat="43.07185" lon="2.46895">
        <ele>259.3</ele>
        <time>2021-03-21T06:16:58Z</time>
      </trkpt>
      <trkpt lat="43.07181" lon="2.46896">
        <ele>259.5</ele>
        <time>2021-03-21T06:16:59Z</time>
      </trkpt>
      <trkpt lat="43.07177" lon="2.46897">
        <ele>259.8</ele>
        <time>2021-03-21T06:17:01Z</time>
      </trkpt>
      <trkpt lat="43.07172" lon="2.46898">
        <ele>260</ele>
        <time>2021-03-21T06:17:02Z</time>
      </trkpt>
      <trkpt lat="43.07169" lon="2.46899">
        <ele>260.3</ele>
        <time>2021-03-21T06:17:03Z</time>
      </trkpt>
      <trkpt lat="43.07165" lon="2.469">
        <ele>260.5</ele>
        <time>2021-03-21T06:17:04Z</time>
      </trkpt>
      <trkpt lat="43.07159" lon="2.469">
        <ele>260.9</ele>
        <time>2021-03-21T06:17:06Z</time>
      </trkpt>
      <trkpt lat="43.07155" lon="2.46898">
        <ele>261.2</ele>
        <time>2021-03-21T06:17:07Z</time>
      </trkpt>
      <trkpt lat="43.07149" lon="2.46896">
        <ele>261.5</ele>
        <time>2021-03-21T06:17:08Z</time>
      </trkpt>
      <trkpt lat="43.07144" lon="2.46894">
        <ele>261.8</ele>
        <time>2021-03-21T06:17:10Z</time>
      </trkpt>
      <trkpt lat="43.0714" lon="2.4689">
        <ele>262.1</ele>
        <time>2021-03-21T06:17:11Z</time>
      </trkpt>
      <trkpt lat="43.07135" lon="2.46885">
        <ele>262.4</ele>
        <time>2021-03-21T06:17:12Z</time>
      </trkpt>
      <trkpt lat="43.07129" lon="2.4688">
        <ele>262.8</ele>
        <time>2021-03-21T06:17:14Z</time>
      </trkpt>
      <trkpt lat="43.07125" lon="2.46874">
        <ele>263.2</ele>
        <time>2021-03-21T06:17:15Z</time>
      </trkpt>
      <trkpt lat="43.0712" lon="2.46869">
        <ele>263.5</ele>
        <time>2021-03-21T06:17:17Z</time>
      </trkpt>
      <trkpt lat="43.07116" lon="2.46865">
        <ele>263.8</ele>
        <time>2021-03-21T06:17:18Z</time>
      </trkpt>
      <trkpt lat="43.07112" lon="2.46861">
        <ele>264.1</ele>
        <time>2021-03-21T06:17:19Z</time>
      </trkpt>
      <trkpt lat="43.07107" lon="2.46856">
        <ele>264.5</ele>
        <time>2021-03-21T06:17:21Z</time>
      </trkpt>
      <trkpt lat="43.07103" lon="2.46852">
        <ele>264.7</ele>
        <time>2021-03-21T06:17:22Z</time>
      </trkpt>
      <trkpt lat="43.07098" lon="2.46847">
        <ele>265.1</ele>
        <time>2021-03-21T06:17:24Z</time>
      </trkpt>
      <trkpt lat="43.07095" lon="2.46842">
        <ele>265.4</ele>
        <time>2021-03-21T06:17:25Z</time>
      </trkpt>
      <trkpt lat="43.07092" lon="2.46839">
        <ele>265.6</ele>
        <time>2021-03-21T06:17:26Z</time>
      </trkpt>
      <trkpt lat="43.07087" lon="2.46834">
        <ele>265.9</ele>
        <time>2021-03-21T06:17:28Z</time>
      </trkpt>
      <trkpt lat="43.07083" lon="2.4683">
        <ele>266.2</ele>
        <time>2021-03-21T06:17:29Z</time>
      </trkpt>
      <trkpt lat="43.07079" lon="2.46827">
        <ele>266.5</ele>
        <time>2021-03-21T06:17:30Z</time>
      </trkpt>
      <trkpt lat="43.07074" lon="2.46822">
        <ele>266.9</ele>
        <time>2021-03-21T06:17:32Z</time>
      </trkpt>
      <trkpt lat="43.07069" lon="2.46817">
        <ele>267.2</ele>
        <time>2021-03-21T06:17:33Z</time>
      </trkpt>
      <trkpt lat="43.07064" lon="2.46813">
        <ele>267.6</ele>
        <time>2021-03-21T06:17:35Z</time>
      </trkpt>
      <trkpt lat="43.0706" lon="2.4681">
        <ele>267.8</ele>
        <time>2021-03-21T06:17:36Z</time>
      </trkpt>
      <trkpt lat="43.07056" lon="2.46806">
        <ele>268.1</ele>
        <time>2021-03-21T06:17:37Z</time>
      </trkpt>
      <trkpt lat="43.07051" lon="2.46802">
        <ele>268.5</ele>
        <time>2021-03-21T06:17:39Z</time>
      </trkpt>
      <trkpt lat="43.07048" lon="2.46799">
        <ele>268.8</ele>
        <time>2021-03-21T06:17:40Z</time>
      </trkpt>
      <trkpt lat="43.07043" lon="2.46796">
        <ele>269.1</ele>
        <time>2021-03-21T06:17:41Z</time>
      </trkpt>
      <trkpt lat="43.0704" lon="2.46792">
        <ele>269.4</ele>
        <time>2021-03-21T06:17:42Z</time>
      </trkpt>
      <trkpt lat="43.07036" lon="2.46788">
        <ele>269.8</ele>
        <time>2021-03-21T06:17:44Z</time>
      </trkpt>
      <trkpt lat="43.07032" lon="2.46784">
        <ele>270</ele>
        <time>2021-03-21T06:17:45Z</time>
      </trkpt>
      <trkpt lat="43.07029" lon="2.46781">
        <ele>270.3</ele>
        <time>2021-03-21T06:17:46Z</time>
      </trkpt>
      <trkpt lat="43.07024" lon="2.46776">
        <ele>270.8</ele>
        <time>2021-03-21T06:17:48Z</time>
      </trkpt>
      <trkpt lat="43.07019" lon="2.46772">
        <ele>271.1</ele>
        <time>2021-03-21T06:17:49Z</time>
      </trkpt>
      <trkpt lat="43.07015" lon="2.46769">
        <ele>271.4</ele>
        <time>2021-03-21T06:17:50Z</time>
      </trkpt>
      <trkpt lat="43.0701" lon="2.46765">
        <ele>271.8</ele>
        <time>2021-03-21T06:17:52Z</time>
      </trkpt>
      <trkpt lat="43.07006" lon="2.46762">
        <ele>272.1</ele>
        <time>2021-03-21T06:17:53Z</time>
      </trkpt>
      <trkpt lat="43.07002" lon="2.46759">
        <ele>272.4</ele>
        <time>2021-03-21T06:17:54Z</time>
      </trkpt>
      <trkpt lat="43.06997" lon="2.46755">
        <ele>272.8</ele>
        <time>2021-03-21T06:17:56Z</time>
      </trkpt>
      <trkpt lat="43.06993" lon="2.46752">
        <ele>273.1</ele>
        <time>2021-03-21T06:17:57Z</time>
      </trkpt>
      <trkpt lat="43.06989" lon="2.46748">
        <ele>273.4</ele>
        <time>2021-03-21T06:17:58Z</time>
      </trkpt>
      <trkpt lat="43.06984" lon="2.46744">
        <ele>273.8</ele>
        <time>2021-03-21T06:18:00Z</time>
      </trkpt>
      <trkpt lat="43.06979" lon="2.46741">
        <ele>274.1</ele>
        <time>2021-03-21T06:18:01Z</time>
      </trkpt>
      <trkpt lat="43.06976" lon="2.46739">
        <ele>274.4</ele>
        <time>2021-03-21T06:18:02Z</time>
      </trkpt>
      <trkpt lat="43.0697" lon="2.46738">
        <ele>274.7</ele>
        <time>2021-03-21T06:18:04Z</time>
      </trkpt>
      <trkpt lat="43.06964" lon="2.46736">
        <ele>275.1</ele>
        <time>2021-03-21T06:18:05Z</time>
      </trkpt>
      <trkpt lat="43.06958" lon="2.46735">
        <ele>275.5</ele>
        <time>2021-03-21T06:18:07Z</time>
      </trkpt>
      <trkpt lat="43.06952" lon="2.46734">
        <ele>275.9</ele>
        <time>2021-03-21T06:18:08Z</time>
      </trkpt>
      <trkpt lat="43.06947" lon="2.46733">
        <ele>276.2</ele>
        <time>2021-03-21T06:18:09Z</time>
      </trkpt>
      <trkpt lat="43.06941" lon="2.46733">
        <ele>276.6</ele>
        <time>2021-03-21T06:18:11Z</time>
      </trkpt>
      <trkpt lat="43.06936" lon="2.46732">
        <ele>276.9</ele>
        <time>2021-03-21T06:18:12Z</time>
      </trkpt>
      <trkpt lat="43.06933" lon="2.46732">
        <ele>277.1</ele>
        <time>2021-03-21T06:18:13Z</time>
      </trkpt>
      <trkpt lat="43.06927" lon="2.46731">
        <ele>277.5</ele>
        <time>2021-03-21T06:18:15Z</time>
      </trkpt>
      <trkpt lat="43.06922" lon="2.46729">
        <ele>277.8</ele>
        <time>2021-03-21T06:18:16Z</time>
      </trkpt>
      <trkpt lat="43.06917" lon="2.46728">
        <ele>278.1</ele>
        <time>2021-03-21T06:18:17Z</time>
      </trkpt>
      <trkpt lat="43.06912" lon="2.46726">
        <ele>278.5</ele>
        <time>2021-03-21T06:18:19Z</time>
      </trkpt>
      <trkpt lat="43.06908" lon="2.46725">
        <ele>278.7</ele>
        <time>2021-03-21T06:18:20Z</time>
      </trkpt>
      <trkpt lat="43.06902" lon="2.46723">
        <ele>279.1</ele>
        <time>2021-03-21T06:18:22Z</time>
      </trkpt>
      <trkpt lat="43.06898" lon="2.46722">
        <ele>279.4</ele>
        <time>2021-03-21T06:18:24Z</time>
      </trkpt>
      <trkpt lat="43.06894" lon="2.4672">
        <ele>279.7</ele>
        <time>2021-03-21T06:18:25Z</time>
      </trkpt>
      <trkpt lat="43.06889" lon="2.46717">
        <ele>280</ele>
        <time>2021-03-21T06:18:27Z</time>
      </trkpt>
      <trkpt lat="43.06883" lon="2.46714">
        <ele>280.4</ele>
        <time>2021-03-21T06:18:28Z</time>
      </trkpt>
      <trkpt lat="43.06878" lon="2.4671">
        <ele>280.9</ele>
        <time>2021-03-21T06:18:30Z</time>
      </trkpt>
      <trkpt lat="43.06874" lon="2.46707">
        <ele>281.2</ele>
        <time>2021-03-21T06:18:31Z</time>
      </trkpt>
      <trkpt lat="43.06869" lon="2.46704">
        <ele>281.6</ele>
        <time>2021-03-21T06:18:33Z</time>
      </trkpt>
      <trkpt lat="43.06866" lon="2.46701">
        <ele>281.9</ele>
        <time>2021-03-21T06:18:34Z</time>
      </trkpt>
      <trkpt lat="43.06862" lon="2.46699">
        <ele>282.2</ele>
        <time>2021-03-21T06:18:35Z</time>
      </trkpt>
      <trkpt lat="43.06859" lon="2.46696">
        <ele>282.4</ele>
        <time>2021-03-21T06:18:36Z</time>
      </trkpt>
      <trkpt lat="43.06855" lon="2.46692">
        <ele>282.8</ele>
        <time>2021-03-21T06:18:38Z</time>
      </trkpt>
      <trkpt lat="43.06852" lon="2.4669">
        <ele>283.1</ele>
        <time>2021-03-21T06:18:39Z</time>
      </trkpt>
      <trkpt lat="43.06847" lon="2.46687">
        <ele>283.5</ele>
        <time>2021-03-21T06:18:41Z</time>
      </trkpt>
      <trkpt lat="43.06843" lon="2.46683">
        <ele>283.8</ele>
        <time>2021-03-21T06:18:43Z</time>
      </trkpt>
      <trkpt lat="43.06839" lon="2.46679">
        <ele>284.1</ele>
        <time>2021-03-21T06:18:44Z</time>
      </trkpt>
      <trkpt lat="43.06835" lon="2.46675">
        <ele>284.5</ele>
        <time>2021-03-21T06:18:46Z</time>
      </trkpt>
      <trkpt lat="43.06832" lon="2.4667">
        <ele>284.7</ele>
        <time>2021-03-21T06:18:47Z</time>
      </trkpt>
      <trkpt lat="43.06829" lon="2.46668">
        <ele>285</ele>
        <time>2021-03-21T06:18:48Z</time>
      </trkpt>
      <trkpt lat="43.06825" lon="2.46664">
        <ele>285.3</ele>
        <time>2021-03-21T06:18:50Z</time>
      </trkpt>
      <trkpt lat="43.06822" lon="2.46661">
        <ele>285.6</ele>
        <time>2021-03-21T06:18:51Z</time>
      </trkpt>
      <trkpt lat="43.06819" lon="2.46658">
        <ele>285.8</ele>
        <time>2021-03-21T06:18:52Z</time>
      </trkpt>
      <trkpt lat="43.06817" lon="2.46655">
        <ele>286</ele>
        <time>2021-03-21T06:18:53Z</time>
      </trkpt>
      <trkpt lat="43.06813" lon="2.46651">
        <ele>286.3</ele>
        <time>2021-03-21T06:18:55Z</time>
      </trkpt>
      <trkpt lat="43.0681" lon="2.46647">
        <ele>286.5</ele>
        <time>2021-03-21T06:18:56Z</time>
      </trkpt>
      <trkpt lat="43.06806" lon="2.46642">
        <ele>286.8</ele>
        <time>2021-03-21T06:18:58Z</time>
      </trkpt>
      <trkpt lat="43.06802" lon="2.46639">
        <ele>287.1</ele>
        <time>2021-03-21T06:19:00Z</time>
      </trkpt>
      <trkpt lat="43.06799" lon="2.46635">
        <ele>287.4</ele>
        <time>2021-03-21T06:19:02Z</time>
      </trkpt>
      <trkpt lat="43.06797" lon="2.46631">
        <ele>287.6</ele>
        <time>2021-03-21T06:19:03Z</time>
      </trkpt>
      <trkpt lat="43.06796" lon="2.4663">
        <ele>287.6</ele>
        <time>2021-03-21T06:19:04Z</time>
      </trkpt>
      <trkpt lat="43.06793" lon="2.46627">
        <ele>287.9</ele>
        <time>2021-03-21T06:19:06Z</time>
      </trkpt>
      <trkpt lat="43.06789" lon="2.46623">
        <ele>288.1</ele>
        <time>2021-03-21T06:19:07Z</time>
      </trkpt>
      <trkpt lat="43.06787" lon="2.4662">
        <ele>288.3</ele>
        <time>2021-03-21T06:19:08Z</time>
      </trkpt>
      <trkpt lat="43.06782" lon="2.46615">
        <ele>288.7</ele>
        <time>2021-03-21T06:19:10Z</time>
      </trkpt>
      <trkpt lat="43.06779" lon="2.4661">
        <ele>289</ele>
        <time>2021-03-21T06:19:11Z</time>
      </trkpt>
      <trkpt lat="43.06775" lon="2.46606">
        <ele>289.2</ele>
        <time>2021-03-21T06:19:12Z</time>
      </trkpt>
      <trkpt lat="43.06772" lon="2.46602">
        <ele>289.5</ele>
        <time>2021-03-21T06:19:14Z</time>
      </trkpt>
      <trkpt lat="43.06767" lon="2.46597">
        <ele>289.8</ele>
        <time>2021-03-21T06:19:15Z</time>
      </trkpt>
      <trkpt lat="43.06762" lon="2.46593">
        <ele>290</ele>
        <time>2021-03-21T06:19:17Z</time>
      </trkpt>
      <trkpt lat="43.06759" lon="2.46589">
        <ele>290.2</ele>
        <time>2021-03-21T06:19:18Z</time>
      </trkpt>
      <trkpt lat="43.06755" lon="2.46583">
        <ele>290.5</ele>
        <time>2021-03-21T06:19:20Z</time>
      </trkpt>
      <trkpt lat="43.06753" lon="2.46579">
        <ele>290.7</ele>
        <time>2021-03-21T06:19:21Z</time>
      </trkpt>
      <trkpt lat="43.0675" lon="2.46574">
        <ele>290.9</ele>
        <time>2021-03-21T06:19:22Z</time>
      </trkpt>
      <trkpt lat="43.06746" lon="2.46568">
        <ele>291.2</ele>
        <time>2021-03-21T06:19:24Z</time>
      </trkpt>
      <trkpt lat="43.06744" lon="2.46564">
        <ele>291.4</ele>
        <time>2021-03-21T06:19:25Z</time>
      </trkpt>
      <trkpt lat="43.0674" lon="2.46557">
        <ele>291.7</ele>
        <time>2021-03-21T06:19:27Z</time>
      </trkpt>
      <trkpt lat="43.06738" lon="2.46552">
        <ele>291.9</ele>
        <time>2021-03-21T06:19:28Z</time>
      </trkpt>
      <trkpt lat="43.06736" lon="2.46548">
        <ele>292.2</ele>
        <time>2021-03-21T06:19:29Z</time>
      </trkpt>
      <trkpt lat="43.06734" lon="2.46544">
        <ele>292.3</ele>
        <time>2021-03-21T06:19:30Z</time>
      </trkpt>
      <trkpt lat="43.06733" lon="2.46539">
        <ele>292.5</ele>
        <time>2021-03-21T06:19:32Z</time>
      </trkpt>
      <trkpt lat="43.0673" lon="2.46533">
        <ele>292.8</ele>
        <time>2021-03-21T06:19:33Z</time>
      </trkpt>
      <trkpt lat="43.06727" lon="2.46526">
        <ele>293.1</ele>
        <time>2021-03-21T06:19:35Z</time>
      </trkpt>
      <trkpt lat="43.06724" lon="2.46519">
        <ele>293.5</ele>
        <time>2021-03-21T06:19:37Z</time>
      </trkpt>
      <trkpt lat="43.06722" lon="2.46515">
        <ele>293.7</ele>
        <time>2021-03-21T06:19:38Z</time>
      </trkpt>
      <trkpt lat="43.06718" lon="2.46509">
        <ele>294.1</ele>
        <time>2021-03-21T06:19:39Z</time>
      </trkpt>
      <trkpt lat="43.06716" lon="2.46504">
        <ele>294.4</ele>
        <time>2021-03-21T06:19:41Z</time>
      </trkpt>
      <trkpt lat="43.06712" lon="2.465">
        <ele>294.7</ele>
        <time>2021-03-21T06:19:42Z</time>
      </trkpt>
      <trkpt lat="43.06709" lon="2.46496">
        <ele>295</ele>
        <time>2021-03-21T06:19:43Z</time>
      </trkpt>
      <trkpt lat="43.06705" lon="2.46493">
        <ele>295.3</ele>
        <time>2021-03-21T06:19:45Z</time>
      </trkpt>
      <trkpt lat="43.06702" lon="2.4649">
        <ele>295.6</ele>
        <time>2021-03-21T06:19:46Z</time>
      </trkpt>
      <trkpt lat="43.06699" lon="2.46487">
        <ele>295.9</ele>
        <time>2021-03-21T06:19:47Z</time>
      </trkpt>
      <trkpt lat="43.06696" lon="2.46485">
        <ele>296.1</ele>
        <time>2021-03-21T06:19:48Z</time>
      </trkpt>
      <trkpt lat="43.06694" lon="2.46482">
        <ele>296.3</ele>
        <time>2021-03-21T06:19:49Z</time>
      </trkpt>
      <trkpt lat="43.06689" lon="2.46477">
        <ele>296.8</ele>
        <time>2021-03-21T06:19:51Z</time>
      </trkpt>
      <trkpt lat="43.06686" lon="2.46471">
        <ele>297.2</ele>
        <time>2021-03-21T06:19:53Z</time>
      </trkpt>
      <trkpt lat="43.06684" lon="2.46467">
        <ele>297.5</ele>
        <time>2021-03-21T06:19:54Z</time>
      </trkpt>
      <trkpt lat="43.06682" lon="2.46462">
        <ele>297.8</ele>
        <time>2021-03-21T06:19:55Z</time>
      </trkpt>
      <trkpt lat="43.0668" lon="2.46458">
        <ele>298</ele>
        <time>2021-03-21T06:19:56Z</time>
      </trkpt>
      <trkpt lat="43.06678" lon="2.46451">
        <ele>298.4</ele>
        <time>2021-03-21T06:19:58Z</time>
      </trkpt>
      <trkpt lat="43.06676" lon="2.46447">
        <ele>298.7</ele>
        <time>2021-03-21T06:19:59Z</time>
      </trkpt>
      <trkpt lat="43.06673" lon="2.46442">
        <ele>298.9</ele>
        <time>2021-03-21T06:20:01Z</time>
      </trkpt>
      <trkpt lat="43.06671" lon="2.46439">
        <ele>299.1</ele>
        <time>2021-03-21T06:20:02Z</time>
      </trkpt>
      <trkpt lat="43.06669" lon="2.46436">
        <ele>299.3</ele>
        <time>2021-03-21T06:20:03Z</time>
      </trkpt>
      <trkpt lat="43.06667" lon="2.46432">
        <ele>299.6</ele>
        <time>2021-03-21T06:20:04Z</time>
      </trkpt>
      <trkpt lat="43.06664" lon="2.4643">
        <ele>299.7</ele>
        <time>2021-03-21T06:20:05Z</time>
      </trkpt>
      <trkpt lat="43.06662" lon="2.46427">
        <ele>299.9</ele>
        <time>2021-03-21T06:20:06Z</time>
      </trkpt>
      <trkpt lat="43.06658" lon="2.46424">
        <ele>300.2</ele>
        <time>2021-03-21T06:20:08Z</time>
      </trkpt>
      <trkpt lat="43.06654" lon="2.4642">
        <ele>300.5</ele>
        <time>2021-03-21T06:20:09Z</time>
      </trkpt>
      <trkpt lat="43.0665" lon="2.46417">
        <ele>300.7</ele>
        <time>2021-03-21T06:20:10Z</time>
      </trkpt>
      <trkpt lat="43.06646" lon="2.46413">
        <ele>301</ele>
        <time>2021-03-21T06:20:12Z</time>
      </trkpt>
      <trkpt lat="43.06643" lon="2.4641">
        <ele>301.2</ele>
        <time>2021-03-21T06:20:13Z</time>
      </trkpt>
      <trkpt lat="43.06639" lon="2.46407">
        <ele>301.5</ele>
        <time>2021-03-21T06:20:14Z</time>
      </trkpt>
      <trkpt lat="43.06636" lon="2.46405">
        <ele>301.7</ele>
        <time>2021-03-21T06:20:15Z</time>
      </trkpt>
      <trkpt lat="43.06633" lon="2.46403">
        <ele>301.9</ele>
        <time>2021-03-21T06:20:17Z</time>
      </trkpt>
      <trkpt lat="43.0663" lon="2.46399">
        <ele>302.1</ele>
        <time>2021-03-21T06:20:18Z</time>
      </trkpt>
      <trkpt lat="43.06627" lon="2.46396">
        <ele>302.4</ele>
        <time>2021-03-21T06:20:19Z</time>
      </trkpt>
      <trkpt lat="43.06624" lon="2.46392">
        <ele>302.6</ele>
        <time>2021-03-21T06:20:20Z</time>
      </trkpt>
      <trkpt lat="43.0662" lon="2.46386">
        <ele>303</ele>
        <time>2021-03-21T06:20:22Z</time>
      </trkpt>
      <trkpt lat="43.06617" lon="2.46381">
        <ele>303.3</ele>
        <time>2021-03-21T06:20:23Z</time>
      </trkpt>
      <trkpt lat="43.06614" lon="2.46377">
        <ele>303.6</ele>
        <time>2021-03-21T06:20:24Z</time>
      </trkpt>
      <trkpt lat="43.0661" lon="2.46372">
        <ele>303.9</ele>
        <time>2021-03-21T06:20:26Z</time>
      </trkpt>
      <trkpt lat="43.06606" lon="2.46368">
        <ele>304.2</ele>
        <time>2021-03-21T06:20:27Z</time>
      </trkpt>
      <trkpt lat="43.06603" lon="2.46363">
        <ele>304.5</ele>
        <time>2021-03-21T06:20:28Z</time>
      </trkpt>
      <trkpt lat="43.06599" lon="2.46357">
        <ele>304.8</ele>
        <time>2021-03-21T06:20:30Z</time>
      </trkpt>
      <trkpt lat="43.06596" lon="2.46353">
        <ele>305</ele>
        <time>2021-03-21T06:20:31Z</time>
      </trkpt>
      <trkpt lat="43.06592" lon="2.46347">
        <ele>305.3</ele>
        <time>2021-03-21T06:20:33Z</time>
      </trkpt>
      <trkpt lat="43.0659" lon="2.46342">
        <ele>305.5</ele>
        <time>2021-03-21T06:20:34Z</time>
      </trkpt>
      <trkpt lat="43.06586" lon="2.46335">
        <ele>305.9</ele>
        <time>2021-03-21T06:20:36Z</time>
      </trkpt>
      <trkpt lat="43.06584" lon="2.4633">
        <ele>306.1</ele>
        <time>2021-03-21T06:20:37Z</time>
      </trkpt>
      <trkpt lat="43.06581" lon="2.46324">
        <ele>306.5</ele>
        <time>2021-03-21T06:20:38Z</time>
      </trkpt>
      <trkpt lat="43.06576" lon="2.46317">
        <ele>306.9</ele>
        <time>2021-03-21T06:20:40Z</time>
      </trkpt>
      <trkpt lat="43.06575" lon="2.46313">
        <ele>307.1</ele>
        <time>2021-03-21T06:20:41Z</time>
      </trkpt>
      <trkpt lat="43.06573" lon="2.46309">
        <ele>307.3</ele>
        <time>2021-03-21T06:20:42Z</time>
      </trkpt>
      <trkpt lat="43.06571" lon="2.46305">
        <ele>307.6</ele>
        <time>2021-03-21T06:20:43Z</time>
      </trkpt>
      <trkpt lat="43.06568" lon="2.46301">
        <ele>307.9</ele>
        <time>2021-03-21T06:20:44Z</time>
      </trkpt>
      <trkpt lat="43.06563" lon="2.46294">
        <ele>308.4</ele>
        <time>2021-03-21T06:20:46Z</time>
      </trkpt>
      <trkpt lat="43.0656" lon="2.4629">
        <ele>308.8</ele>
        <time>2021-03-21T06:20:47Z</time>
      </trkpt>
      <trkpt lat="43.06557" lon="2.46287">
        <ele>309</ele>
        <time>2021-03-21T06:20:48Z</time>
      </trkpt>
      <trkpt lat="43.06551" lon="2.46281">
        <ele>309.6</ele>
        <time>2021-03-21T06:20:50Z</time>
      </trkpt>
      <trkpt lat="43.06549" lon="2.46278">
        <ele>309.8</ele>
        <time>2021-03-21T06:20:51Z</time>
      </trkpt>
      <trkpt lat="43.06546" lon="2.46276">
        <ele>310</ele>
        <time>2021-03-21T06:20:52Z</time>
      </trkpt>
      <trkpt lat="43.06543" lon="2.46273">
        <ele>310.2</ele>
        <time>2021-03-21T06:20:53Z</time>
      </trkpt>
      <trkpt lat="43.06536" lon="2.46266">
        <ele>310.8</ele>
        <time>2021-03-21T06:20:55Z</time>
      </trkpt>
      <trkpt lat="43.06533" lon="2.46264">
        <ele>311</ele>
        <time>2021-03-21T06:20:56Z</time>
      </trkpt>
      <trkpt lat="43.06527" lon="2.4626">
        <ele>311.3</ele>
        <time>2021-03-21T06:20:58Z</time>
      </trkpt>
      <trkpt lat="43.06521" lon="2.46257">
        <ele>311.6</ele>
        <time>2021-03-21T06:20:59Z</time>
      </trkpt>
      <trkpt lat="43.06514" lon="2.46254">
        <ele>311.9</ele>
        <time>2021-03-21T06:21:01Z</time>
      </trkpt>
      <trkpt lat="43.0651" lon="2.46252">
        <ele>312.1</ele>
        <time>2021-03-21T06:21:02Z</time>
      </trkpt>
      <trkpt lat="43.06506" lon="2.4625">
        <ele>312.3</ele>
        <time>2021-03-21T06:21:03Z</time>
      </trkpt>
      <trkpt lat="43.06501" lon="2.46247">
        <ele>312.5</ele>
        <time>2021-03-21T06:21:04Z</time>
      </trkpt>
      <trkpt lat="43.06494" lon="2.46238">
        <ele>313</ele>
        <time>2021-03-21T06:21:06Z</time>
      </trkpt>
      <trkpt lat="43.06493" lon="2.46231">
        <ele>313.3</ele>
        <time>2021-03-21T06:21:07Z</time>
      </trkpt>
      <trkpt lat="43.06494" lon="2.46225">
        <ele>313.5</ele>
        <time>2021-03-21T06:21:08Z</time>
      </trkpt>
      <trkpt lat="43.06499" lon="2.46219">
        <ele>313.9</ele>
        <time>2021-03-21T06:21:10Z</time>
      </trkpt>
      <trkpt lat="43.06505" lon="2.46218">
        <ele>314.2</ele>
        <time>2021-03-21T06:21:11Z</time>
      </trkpt>
      <trkpt lat="43.06514" lon="2.46225">
        <ele>314.9</ele>
        <time>2021-03-21T06:21:13Z</time>
      </trkpt>
      <trkpt lat="43.06518" lon="2.46229">
        <ele>315.2</ele>
        <time>2021-03-21T06:21:14Z</time>
      </trkpt>
      <trkpt lat="43.0652" lon="2.46232">
        <ele>315.5</ele>
        <time>2021-03-21T06:21:16Z</time>
      </trkpt>
      <trkpt lat="43.06522" lon="2.46233">
        <ele>315.6</ele>
        <time>2021-03-21T06:21:17Z</time>
      </trkpt>
      <trkpt lat="43.06526" lon="2.46237">
        <ele>315.9</ele>
        <time>2021-03-21T06:21:18Z</time>
      </trkpt>
      <trkpt lat="43.0653" lon="2.4624">
        <ele>316.2</ele>
        <time>2021-03-21T06:21:19Z</time>
      </trkpt>
      <trkpt lat="43.06533" lon="2.46244">
        <ele>316.5</ele>
        <time>2021-03-21T06:21:20Z</time>
      </trkpt>
      <trkpt lat="43.06537" lon="2.46247">
        <ele>316.9</ele>
        <time>2021-03-21T06:21:21Z</time>
      </trkpt>
      <trkpt lat="43.0654" lon="2.4625">
        <ele>317.1</ele>
        <time>2021-03-21T06:21:22Z</time>
      </trkpt>
      <trkpt lat="43.06544" lon="2.46253">
        <ele>317.5</ele>
        <time>2021-03-21T06:21:23Z</time>
      </trkpt>
      <trkpt lat="43.06548" lon="2.46255">
        <ele>317.9</ele>
        <time>2021-03-21T06:21:24Z</time>
      </trkpt>
      <trkpt lat="43.06552" lon="2.46258">
        <ele>318.2</ele>
        <time>2021-03-21T06:21:25Z</time>
      </trkpt>
      <trkpt lat="43.06556" lon="2.4626">
        <ele>318.6</ele>
        <time>2021-03-21T06:21:27Z</time>
      </trkpt>
      <trkpt lat="43.0656" lon="2.46263">
        <ele>318.9</ele>
        <time>2021-03-21T06:21:28Z</time>
      </trkpt>
      <trkpt lat="43.06564" lon="2.46265">
        <ele>319.2</ele>
        <time>2021-03-21T06:21:29Z</time>
      </trkpt>
      <trkpt lat="43.06568" lon="2.46268">
        <ele>319.6</ele>
        <time>2021-03-21T06:21:30Z</time>
      </trkpt>
      <trkpt lat="43.06573" lon="2.46272">
        <ele>320.1</ele>
        <time>2021-03-21T06:21:31Z</time>
      </trkpt>
      <trkpt lat="43.06577" lon="2.46274">
        <ele>320.5</ele>
        <time>2021-03-21T06:21:32Z</time>
      </trkpt>
      <trkpt lat="43.06579" lon="2.46274">
        <ele>320.6</ele>
        <time>2021-03-21T06:21:33Z</time>
      </trkpt>
      <trkpt lat="43.06581" lon="2.46275">
        <ele>320.8</ele>
        <time>2021-03-21T06:21:34Z</time>
      </trkpt>
      <trkpt lat="43.06585" lon="2.46277">
        <ele>321.1</ele>
        <time>2021-03-21T06:21:35Z</time>
      </trkpt>
      <trkpt lat="43.06592" lon="2.46279">
        <ele>321.6</ele>
        <time>2021-03-21T06:21:37Z</time>
      </trkpt>
      <trkpt lat="43.06595" lon="2.4628">
        <ele>321.8</ele>
        <time>2021-03-21T06:21:38Z</time>
      </trkpt>
      <trkpt lat="43.06599" lon="2.46282">
        <ele>322.1</ele>
        <time>2021-03-21T06:21:39Z</time>
      </trkpt>
      <trkpt lat="43.06603" lon="2.46284">
        <ele>322.4</ele>
        <time>2021-03-21T06:21:41Z</time>
      </trkpt>
      <trkpt lat="43.06609" lon="2.46288">
        <ele>322.8</ele>
        <time>2021-03-21T06:21:42Z</time>
      </trkpt>
      <trkpt lat="43.06609" lon="2.46288">
        <ele>322.8</ele>
        <time>2021-03-21T06:21:43Z</time>
      </trkpt>
      <trkpt lat="43.0661" lon="2.46289">
        <ele>322.9</ele>
        <time>2021-03-21T06:21:44Z</time>
      </trkpt>
      <trkpt lat="43.06611" lon="2.46291">
        <ele>323</ele>
        <time>2021-03-21T06:21:45Z</time>
      </trkpt>
      <trkpt lat="43.06615" lon="2.46298">
        <ele>323.4</ele>
        <time>2021-03-21T06:21:47Z</time>
      </trkpt>
      <trkpt lat="43.06618" lon="2.46302">
        <ele>323.6</ele>
        <time>2021-03-21T06:21:48Z</time>
      </trkpt>
      <trkpt lat="43.06622" lon="2.46309">
        <ele>324.1</ele>
        <time>2021-03-21T06:21:49Z</time>
      </trkpt>
      <trkpt lat="43.06628" lon="2.46317">
        <ele>324.6</ele>
        <time>2021-03-21T06:21:51Z</time>
      </trkpt>
      <trkpt lat="43.06635" lon="2.46325">
        <ele>325.3</ele>
        <time>2021-03-21T06:21:52Z</time>
      </trkpt>
      <trkpt lat="43.0664" lon="2.46329">
        <ele>325.7</ele>
        <time>2021-03-21T06:21:53Z</time>
      </trkpt>
      <trkpt lat="43.06645" lon="2.46331">
        <ele>326</ele>
        <time>2021-03-21T06:21:55Z</time>
      </trkpt>
      <trkpt lat="43.06651" lon="2.46334">
        <ele>326.5</ele>
        <time>2021-03-21T06:21:56Z</time>
      </trkpt>
      <trkpt lat="43.06656" lon="2.46337">
        <ele>326.9</ele>
        <time>2021-03-21T06:21:57Z</time>
      </trkpt>
      <trkpt lat="43.0666" lon="2.46339">
        <ele>327.2</ele>
        <time>2021-03-21T06:21:59Z</time>
      </trkpt>
      <trkpt lat="43.06666" lon="2.46343">
        <ele>327.6</ele>
        <time>2021-03-21T06:22:00Z</time>
      </trkpt>
      <trkpt lat="43.06673" lon="2.46347">
        <ele>328.1</ele>
        <time>2021-03-21T06:22:02Z</time>
      </trkpt>
      <trkpt lat="43.06679" lon="2.46354">
        <ele>328.7</ele>
        <time>2021-03-21T06:22:04Z</time>
      </trkpt>
      <trkpt lat="43.06683" lon="2.46358">
        <ele>329</ele>
        <time>2021-03-21T06:22:05Z</time>
      </trkpt>
      <trkpt lat="43.06688" lon="2.46363">
        <ele>329.4</ele>
        <time>2021-03-21T06:22:07Z</time>
      </trkpt>
      <trkpt lat="43.06692" lon="2.46368">
        <ele>329.8</ele>
        <time>2021-03-21T06:22:08Z</time>
      </trkpt>
      <trkpt lat="43.06695" lon="2.46373">
        <ele>330.1</ele>
        <time>2021-03-21T06:22:09Z</time>
      </trkpt>
      <trkpt lat="43.067" lon="2.46377">
        <ele>330.5</ele>
        <time>2021-03-21T06:22:11Z</time>
      </trkpt>
      <trkpt lat="43.06704" lon="2.46381">
        <ele>330.9</ele>
        <time>2021-03-21T06:22:12Z</time>
      </trkpt>
      <trkpt lat="43.0671" lon="2.46386">
        <ele>331.4</ele>
        <time>2021-03-21T06:22:14Z</time>
      </trkpt>
      <trkpt lat="43.06714" lon="2.46389">
        <ele>331.7</ele>
        <time>2021-03-21T06:22:15Z</time>
      </trkpt>
      <trkpt lat="43.06718" lon="2.46391">
        <ele>332</ele>
        <time>2021-03-21T06:22:16Z</time>
      </trkpt>
      <trkpt lat="43.06722" lon="2.46393">
        <ele>332.3</ele>
        <time>2021-03-21T06:22:17Z</time>
      </trkpt>
      <trkpt lat="43.06726" lon="2.46396">
        <ele>332.7</ele>
        <time>2021-03-21T06:22:18Z</time>
      </trkpt>
      <trkpt lat="43.06729" lon="2.46398">
        <ele>332.9</ele>
        <time>2021-03-21T06:22:19Z</time>
      </trkpt>
      <trkpt lat="43.06734" lon="2.46399">
        <ele>333.3</ele>
        <time>2021-03-21T06:22:20Z</time>
      </trkpt>
      <trkpt lat="43.0674" lon="2.46401">
        <ele>333.7</ele>
        <time>2021-03-21T06:22:22Z</time>
      </trkpt>
      <trkpt lat="43.06744" lon="2.46402">
        <ele>334</ele>
        <time>2021-03-21T06:22:23Z</time>
      </trkpt>
      <trkpt lat="43.0675" lon="2.46404">
        <ele>334.5</ele>
        <time>2021-03-21T06:22:25Z</time>
      </trkpt>
      <trkpt lat="43.06754" lon="2.46406">
        <ele>334.9</ele>
        <time>2021-03-21T06:22:26Z</time>
      </trkpt>
      <trkpt lat="43.06758" lon="2.46407">
        <ele>335.2</ele>
        <time>2021-03-21T06:22:27Z</time>
      </trkpt>
      <trkpt lat="43.06764" lon="2.46408">
        <ele>335.6</ele>
        <time>2021-03-21T06:22:29Z</time>
      </trkpt>
      <trkpt lat="43.06767" lon="2.46409">
        <ele>335.8</ele>
        <time>2021-03-21T06:22:30Z</time>
      </trkpt>
      <trkpt lat="43.06772" lon="2.46411">
        <ele>336.2</ele>
        <time>2021-03-21T06:22:31Z</time>
      </trkpt>
      <trkpt lat="43.06778" lon="2.46412">
        <ele>336.6</ele>
        <time>2021-03-21T06:22:33Z</time>
      </trkpt>
      <trkpt lat="43.06782" lon="2.46413">
        <ele>336.9</ele>
        <time>2021-03-21T06:22:34Z</time>
      </trkpt>
      <trkpt lat="43.06785" lon="2.46414">
        <ele>337.2</ele>
        <time>2021-03-21T06:22:35Z</time>
      </trkpt>
      <trkpt lat="43.06791" lon="2.46417">
        <ele>337.6</ele>
        <time>2021-03-21T06:22:37Z</time>
      </trkpt>
      <trkpt lat="43.06794" lon="2.46419">
        <ele>337.9</ele>
        <time>2021-03-21T06:22:38Z</time>
      </trkpt>
      <trkpt lat="43.06798" lon="2.46422">
        <ele>338.2</ele>
        <time>2021-03-21T06:22:39Z</time>
      </trkpt>
      <trkpt lat="43.06802" lon="2.46425">
        <ele>338.6</ele>
        <time>2021-03-21T06:22:40Z</time>
      </trkpt>
      <trkpt lat="43.06807" lon="2.46429">
        <ele>339</ele>
        <time>2021-03-21T06:22:41Z</time>
      </trkpt>
      <trkpt lat="43.0681" lon="2.46431">
        <ele>339.3</ele>
        <time>2021-03-21T06:22:43Z</time>
      </trkpt>
      <trkpt lat="43.06815" lon="2.46435">
        <ele>339.7</ele>
        <time>2021-03-21T06:22:44Z</time>
      </trkpt>
      <trkpt lat="43.0682" lon="2.46438">
        <ele>340.1</ele>
        <time>2021-03-21T06:22:46Z</time>
      </trkpt>
      <trkpt lat="43.06823" lon="2.46441">
        <ele>340.4</ele>
        <time>2021-03-21T06:22:47Z</time>
      </trkpt>
      <trkpt lat="43.06828" lon="2.46444">
        <ele>340.9</ele>
        <time>2021-03-21T06:22:48Z</time>
      </trkpt>
      <trkpt lat="43.06833" lon="2.46447">
        <ele>341.3</ele>
        <time>2021-03-21T06:22:50Z</time>
      </trkpt>
      <trkpt lat="43.06838" lon="2.4645">
        <ele>341.7</ele>
        <time>2021-03-21T06:22:51Z</time>
      </trkpt>
      <trkpt lat="43.06841" lon="2.46452">
        <ele>341.9</ele>
        <time>2021-03-21T06:22:52Z</time>
      </trkpt>
      <trkpt lat="43.06846" lon="2.46458">
        <ele>342.4</ele>
        <time>2021-03-21T06:22:54Z</time>
      </trkpt>
      <trkpt lat="43.06849" lon="2.46461">
        <ele>342.8</ele>
        <time>2021-03-21T06:22:55Z</time>
      </trkpt>
      <trkpt lat="43.06853" lon="2.46465">
        <ele>343.2</ele>
        <time>2021-03-21T06:22:57Z</time>
      </trkpt>
      <trkpt lat="43.06857" lon="2.4647">
        <ele>343.5</ele>
        <time>2021-03-21T06:22:58Z</time>
      </trkpt>
      <trkpt lat="43.0686" lon="2.46473">
        <ele>343.8</ele>
        <time>2021-03-21T06:22:59Z</time>
      </trkpt>
      <trkpt lat="43.06863" lon="2.46476">
        <ele>344.1</ele>
        <time>2021-03-21T06:23:00Z</time>
      </trkpt>
      <trkpt lat="43.06866" lon="2.46481">
        <ele>344.4</ele>
        <time>2021-03-21T06:23:02Z</time>
      </trkpt>
      <trkpt lat="43.06871" lon="2.46485">
        <ele>344.8</ele>
        <time>2021-03-21T06:23:03Z</time>
      </trkpt>
      <trkpt lat="43.06874" lon="2.46488">
        <ele>345.2</ele>
        <time>2021-03-21T06:23:04Z</time>
      </trkpt>
      <trkpt lat="43.06878" lon="2.46491">
        <ele>345.5</ele>
        <time>2021-03-21T06:23:06Z</time>
      </trkpt>
      <trkpt lat="43.06883" lon="2.46495">
        <ele>345.9</ele>
        <time>2021-03-21T06:23:07Z</time>
      </trkpt>
      <trkpt lat="43.06888" lon="2.46499">
        <ele>346.3</ele>
        <time>2021-03-21T06:23:09Z</time>
      </trkpt>
      <trkpt lat="43.06891" lon="2.46501">
        <ele>346.6</ele>
        <time>2021-03-21T06:23:10Z</time>
      </trkpt>
      <trkpt lat="43.06894" lon="2.46503">
        <ele>346.9</ele>
        <time>2021-03-21T06:23:11Z</time>
      </trkpt>
      <trkpt lat="43.06899" lon="2.46506">
        <ele>347.2</ele>
        <time>2021-03-21T06:23:13Z</time>
      </trkpt>
      <trkpt lat="43.06904" lon="2.46508">
        <ele>347.6</ele>
        <time>2021-03-21T06:23:14Z</time>
      </trkpt>
      <trkpt lat="43.0691" lon="2.46511">
        <ele>348.1</ele>
        <time>2021-03-21T06:23:16Z</time>
      </trkpt>
      <trkpt lat="43.06914" lon="2.46513">
        <ele>348.4</ele>
        <time>2021-03-21T06:23:17Z</time>
      </trkpt>
      <trkpt lat="43.06917" lon="2.46516">
        <ele>348.7</ele>
        <time>2021-03-21T06:23:18Z</time>
      </trkpt>
      <trkpt lat="43.0692" lon="2.46519">
        <ele>348.9</ele>
        <time>2021-03-21T06:23:19Z</time>
      </trkpt>
      <trkpt lat="43.06923" lon="2.46521">
        <ele>349.2</ele>
        <time>2021-03-21T06:23:20Z</time>
      </trkpt>
      <trkpt lat="43.06928" lon="2.46525">
        <ele>349.6</ele>
        <time>2021-03-21T06:23:22Z</time>
      </trkpt>
      <trkpt lat="43.06932" lon="2.46528">
        <ele>349.9</ele>
        <time>2021-03-21T06:23:23Z</time>
      </trkpt>
      <trkpt lat="43.06935" lon="2.46532">
        <ele>350.1</ele>
        <time>2021-03-21T06:23:24Z</time>
      </trkpt>
      <trkpt lat="43.06939" lon="2.46536">
        <ele>350.5</ele>
        <time>2021-03-21T06:23:26Z</time>
      </trkpt>
      <trkpt lat="43.06943" lon="2.4654">
        <ele>350.8</ele>
        <time>2021-03-21T06:23:27Z</time>
      </trkpt>
      <trkpt lat="43.06946" lon="2.46543">
        <ele>351.1</ele>
        <time>2021-03-21T06:23:28Z</time>
      </trkpt>
      <trkpt lat="43.06951" lon="2.46548">
        <ele>351.5</ele>
        <time>2021-03-21T06:23:30Z</time>
      </trkpt>
      <trkpt lat="43.06955" lon="2.46551">
        <ele>351.8</ele>
        <time>2021-03-21T06:23:31Z</time>
      </trkpt>
      <trkpt lat="43.06958" lon="2.46554">
        <ele>352.1</ele>
        <time>2021-03-21T06:23:32Z</time>
      </trkpt>
      <trkpt lat="43.06962" lon="2.46556">
        <ele>352.4</ele>
        <time>2021-03-21T06:23:33Z</time>
      </trkpt>
      <trkpt lat="43.06966" lon="2.46558">
        <ele>352.7</ele>
        <time>2021-03-21T06:23:34Z</time>
      </trkpt>
      <trkpt lat="43.06971" lon="2.4656">
        <ele>353</ele>
        <time>2021-03-21T06:23:36Z</time>
      </trkpt>
      <trkpt lat="43.06976" lon="2.46559">
        <ele>353.3</ele>
        <time>2021-03-21T06:23:37Z</time>
      </trkpt>
      <trkpt lat="43.0698" lon="2.46555">
        <ele>353.7</ele>
        <time>2021-03-21T06:23:38Z</time>
      </trkpt>
      <trkpt lat="43.06981" lon="2.4655">
        <ele>353.9</ele>
        <time>2021-03-21T06:23:39Z</time>
      </trkpt>
      <trkpt lat="43.06981" lon="2.46542">
        <ele>354.3</ele>
        <time>2021-03-21T06:23:40Z</time>
      </trkpt>
      <trkpt lat="43.06978" lon="2.46537">
        <ele>354.5</ele>
        <time>2021-03-21T06:23:42Z</time>
      </trkpt>
      <trkpt lat="43.06974" lon="2.46532">
        <ele>354.9</ele>
        <time>2021-03-21T06:23:43Z</time>
      </trkpt>
      <trkpt lat="43.0697" lon="2.46529">
        <ele>355.1</ele>
        <time>2021-03-21T06:23:44Z</time>
      </trkpt>
      <trkpt lat="43.06967" lon="2.46526">
        <ele>355.4</ele>
        <time>2021-03-21T06:23:45Z</time>
      </trkpt>
      <trkpt lat="43.06962" lon="2.46522">
        <ele>355.8</ele>
        <time>2021-03-21T06:23:47Z</time>
      </trkpt>
      <trkpt lat="43.06959" lon="2.46519">
        <ele>356</ele>
        <time>2021-03-21T06:23:48Z</time>
      </trkpt>
      <trkpt lat="43.06956" lon="2.46517">
        <ele>356.2</ele>
        <time>2021-03-21T06:23:49Z</time>
      </trkpt>
      <trkpt lat="43.06952" lon="2.46515">
        <ele>356.5</ele>
        <time>2021-03-21T06:23:50Z</time>
      </trkpt>
      <trkpt lat="43.06949" lon="2.46511">
        <ele>356.8</ele>
        <time>2021-03-21T06:23:51Z</time>
      </trkpt>
      <trkpt lat="43.06944" lon="2.46506">
        <ele>357.2</ele>
        <time>2021-03-21T06:23:53Z</time>
      </trkpt>
      <trkpt lat="43.06942" lon="2.46503">
        <ele>357.5</ele>
        <time>2021-03-21T06:23:54Z</time>
      </trkpt>
      <trkpt lat="43.06938" lon="2.46499">
        <ele>357.8</ele>
        <time>2021-03-21T06:23:55Z</time>
      </trkpt>
      <trkpt lat="43.06935" lon="2.46496">
        <ele>358.1</ele>
        <time>2021-03-21T06:23:57Z</time>
      </trkpt>
      <trkpt lat="43.06932" lon="2.46491">
        <ele>358.5</ele>
        <time>2021-03-21T06:23:58Z</time>
      </trkpt>
      <trkpt lat="43.06929" lon="2.46488">
        <ele>358.8</ele>
        <time>2021-03-21T06:23:59Z</time>
      </trkpt>
      <trkpt lat="43.06925" lon="2.46484">
        <ele>359.2</ele>
        <time>2021-03-21T06:24:00Z</time>
      </trkpt>
      <trkpt lat="43.06923" lon="2.46481">
        <ele>359.5</ele>
        <time>2021-03-21T06:24:01Z</time>
      </trkpt>
      <trkpt lat="43.06919" lon="2.46477">
        <ele>359.8</ele>
        <time>2021-03-21T06:24:02Z</time>
      </trkpt>
      <trkpt lat="43.06915" lon="2.46473">
        <ele>360.2</ele>
        <time>2021-03-21T06:24:04Z</time>
      </trkpt>
      <trkpt lat="43.06911" lon="2.46469">
        <ele>360.6</ele>
        <time>2021-03-21T06:24:05Z</time>
      </trkpt>
      <trkpt lat="43.06909" lon="2.46465">
        <ele>360.9</ele>
        <time>2021-03-21T06:24:06Z</time>
      </trkpt>
      <trkpt lat="43.06905" lon="2.4646">
        <ele>361.3</ele>
        <time>2021-03-21T06:24:08Z</time>
      </trkpt>
      <trkpt lat="43.06901" lon="2.46454">
        <ele>361.7</ele>
        <time>2021-03-21T06:24:09Z</time>
      </trkpt>
      <trkpt lat="43.06897" lon="2.46449">
        <ele>362.1</ele>
        <time>2021-03-21T06:24:11Z</time>
      </trkpt>
      <trkpt lat="43.06893" lon="2.46444">
        <ele>362.5</ele>
        <time>2021-03-21T06:24:12Z</time>
      </trkpt>
      <trkpt lat="43.0689" lon="2.46439">
        <ele>362.9</ele>
        <time>2021-03-21T06:24:13Z</time>
      </trkpt>
      <trkpt lat="43.06885" lon="2.46432">
        <ele>363.4</ele>
        <time>2021-03-21T06:24:15Z</time>
      </trkpt>
      <trkpt lat="43.06881" lon="2.46425">
        <ele>363.9</ele>
        <time>2021-03-21T06:24:17Z</time>
      </trkpt>
      <trkpt lat="43.06878" lon="2.46421">
        <ele>364.2</ele>
        <time>2021-03-21T06:24:18Z</time>
      </trkpt>
      <trkpt lat="43.06876" lon="2.46418">
        <ele>364.5</ele>
        <time>2021-03-21T06:24:19Z</time>
      </trkpt>
      <trkpt lat="43.06871" lon="2.46412">
        <ele>365</ele>
        <time>2021-03-21T06:24:21Z</time>
      </trkpt>
      <trkpt lat="43.06869" lon="2.46408">
        <ele>365.3</ele>
        <time>2021-03-21T06:24:22Z</time>
      </trkpt>
      <trkpt lat="43.06864" lon="2.46402">
        <ele>365.8</ele>
        <time>2021-03-21T06:24:24Z</time>
      </trkpt>
      <trkpt lat="43.06862" lon="2.46399">
        <ele>366</ele>
        <time>2021-03-21T06:24:25Z</time>
      </trkpt>
      <trkpt lat="43.06859" lon="2.46396">
        <ele>366.3</ele>
        <time>2021-03-21T06:24:26Z</time>
      </trkpt>
      <trkpt lat="43.06857" lon="2.46393">
        <ele>366.6</ele>
        <time>2021-03-21T06:24:27Z</time>
      </trkpt>
      <trkpt lat="43.06853" lon="2.46386">
        <ele>367</ele>
        <time>2021-03-21T06:24:29Z</time>
      </trkpt>
      <trkpt lat="43.06851" lon="2.46382">
        <ele>367.3</ele>
        <time>2021-03-21T06:24:30Z</time>
      </trkpt>
      <trkpt lat="43.06847" lon="2.46376">
        <ele>367.7</ele>
        <time>2021-03-21T06:24:32Z</time>
      </trkpt>
      <trkpt lat="43.06844" lon="2.46372">
        <ele>368.1</ele>
        <time>2021-03-21T06:24:33Z</time>
      </trkpt>
      <trkpt lat="43.06841" lon="2.46366">
        <ele>368.4</ele>
        <time>2021-03-21T06:24:34Z</time>
      </trkpt>
      <trkpt lat="43.06838" lon="2.46362">
        <ele>368.8</ele>
        <time>2021-03-21T06:24:35Z</time>
      </trkpt>
      <trkpt lat="43.06835" lon="2.46358">
        <ele>369</ele>
        <time>2021-03-21T06:24:36Z</time>
      </trkpt>
      <trkpt lat="43.06832" lon="2.46354">
        <ele>369.4</ele>
        <time>2021-03-21T06:24:38Z</time>
      </trkpt>
      <trkpt lat="43.06828" lon="2.46349">
        <ele>369.8</ele>
        <time>2021-03-21T06:24:39Z</time>
      </trkpt>
      <trkpt lat="43.06823" lon="2.46344">
        <ele>370.3</ele>
        <time>2021-03-21T06:24:41Z</time>
      </trkpt>
      <trkpt lat="43.06819" lon="2.46341">
        <ele>370.6</ele>
        <time>2021-03-21T06:24:42Z</time>
      </trkpt>
      <trkpt lat="43.06815" lon="2.46338">
        <ele>371</ele>
        <time>2021-03-21T06:24:43Z</time>
      </trkpt>
      <trkpt lat="43.06811" lon="2.46335">
        <ele>371.4</ele>
        <time>2021-03-21T06:24:45Z</time>
      </trkpt>
      <trkpt lat="43.06807" lon="2.4633">
        <ele>371.8</ele>
        <time>2021-03-21T06:24:46Z</time>
      </trkpt>
      <trkpt lat="43.06804" lon="2.46327">
        <ele>372.1</ele>
        <time>2021-03-21T06:24:47Z</time>
      </trkpt>
      <trkpt lat="43.068" lon="2.46323">
        <ele>372.6</ele>
        <time>2021-03-21T06:24:49Z</time>
      </trkpt>
      <trkpt lat="43.06794" lon="2.46318">
        <ele>373.1</ele>
        <time>2021-03-21T06:24:51Z</time>
      </trkpt>
      <trkpt lat="43.0679" lon="2.46314">
        <ele>373.5</ele>
        <time>2021-03-21T06:24:52Z</time>
      </trkpt>
      <trkpt lat="43.06785" lon="2.4631">
        <ele>373.9</ele>
        <time>2021-03-21T06:24:54Z</time>
      </trkpt>
      <trkpt lat="43.06781" lon="2.46307">
        <ele>374.3</ele>
        <time>2021-03-21T06:24:55Z</time>
      </trkpt>
      <trkpt lat="43.06778" lon="2.46304">
        <ele>374.6</ele>
        <time>2021-03-21T06:24:56Z</time>
      </trkpt>
      <trkpt lat="43.06775" lon="2.463">
        <ele>374.9</ele>
        <time>2021-03-21T06:24:58Z</time>
      </trkpt>
      <trkpt lat="43.06771" lon="2.46296">
        <ele>375.3</ele>
        <time>2021-03-21T06:24:59Z</time>
      </trkpt>
      <trkpt lat="43.06768" lon="2.46293">
        <ele>375.6</ele>
        <time>2021-03-21T06:25:00Z</time>
      </trkpt>
      <trkpt lat="43.06765" lon="2.46289">
        <ele>375.9</ele>
        <time>2021-03-21T06:25:01Z</time>
      </trkpt>
      <trkpt lat="43.0676" lon="2.46284">
        <ele>376.4</ele>
        <time>2021-03-21T06:25:03Z</time>
      </trkpt>
      <trkpt lat="43.06756" lon="2.4628">
        <ele>376.7</ele>
        <time>2021-03-21T06:25:04Z</time>
      </trkpt>
      <trkpt lat="43.06753" lon="2.46276">
        <ele>377.1</ele>
        <time>2021-03-21T06:25:06Z</time>
      </trkpt>
      <trkpt lat="43.0675" lon="2.46273">
        <ele>377.4</ele>
        <time>2021-03-21T06:25:07Z</time>
      </trkpt>
      <trkpt lat="43.06747" lon="2.46269">
        <ele>377.8</ele>
        <time>2021-03-21T06:25:08Z</time>
      </trkpt>
      <trkpt lat="43.06743" lon="2.46265">
        <ele>378.1</ele>
        <time>2021-03-21T06:25:09Z</time>
      </trkpt>
      <trkpt lat="43.06738" lon="2.4626">
        <ele>378.6</ele>
        <time>2021-03-21T06:25:11Z</time>
      </trkpt>
      <trkpt lat="43.06732" lon="2.46254">
        <ele>379.2</ele>
        <time>2021-03-21T06:25:13Z</time>
      </trkpt>
      <trkpt lat="43.06728" lon="2.46251">
        <ele>379.6</ele>
        <time>2021-03-21T06:25:14Z</time>
      </trkpt>
      <trkpt lat="43.06725" lon="2.46246">
        <ele>380</ele>
        <time>2021-03-21T06:25:16Z</time>
      </trkpt>
      <trkpt lat="43.06722" lon="2.46241">
        <ele>380.3</ele>
        <time>2021-03-21T06:25:17Z</time>
      </trkpt>
      <trkpt lat="43.06719" lon="2.46236">
        <ele>380.7</ele>
        <time>2021-03-21T06:25:18Z</time>
      </trkpt>
      <trkpt lat="43.06717" lon="2.46232">
        <ele>381</ele>
        <time>2021-03-21T06:25:19Z</time>
      </trkpt>
      <trkpt lat="43.06715" lon="2.46226">
        <ele>381.4</ele>
        <time>2021-03-21T06:25:20Z</time>
      </trkpt>
      <trkpt lat="43.06713" lon="2.46221">
        <ele>381.7</ele>
        <time>2021-03-21T06:25:21Z</time>
      </trkpt>
      <trkpt lat="43.06711" lon="2.46216">
        <ele>382</ele>
        <time>2021-03-21T06:25:23Z</time>
      </trkpt>
      <trkpt lat="43.06709" lon="2.4621">
        <ele>382.4</ele>
        <time>2021-03-21T06:25:24Z</time>
      </trkpt>
      <trkpt lat="43.06705" lon="2.46206">
        <ele>382.8</ele>
        <time>2021-03-21T06:25:26Z</time>
      </trkpt>
      <trkpt lat="43.06701" lon="2.46202">
        <ele>383.2</ele>
        <time>2021-03-21T06:25:27Z</time>
      </trkpt>
      <trkpt lat="43.06697" lon="2.46197">
        <ele>383.6</ele>
        <time>2021-03-21T06:25:29Z</time>
      </trkpt>
      <trkpt lat="43.06693" lon="2.46193">
        <ele>384</ele>
        <time>2021-03-21T06:25:30Z</time>
      </trkpt>
      <trkpt lat="43.06689" lon="2.46189">
        <ele>384.4</ele>
        <time>2021-03-21T06:25:31Z</time>
      </trkpt>
      <trkpt lat="43.06684" lon="2.46186">
        <ele>384.8</ele>
        <time>2021-03-21T06:25:33Z</time>
      </trkpt>
      <trkpt lat="43.0668" lon="2.46183">
        <ele>385.2</ele>
        <time>2021-03-21T06:25:34Z</time>
      </trkpt>
      <trkpt lat="43.06676" lon="2.4618">
        <ele>385.6</ele>
        <time>2021-03-21T06:25:35Z</time>
      </trkpt>
      <trkpt lat="43.06672" lon="2.46177">
        <ele>386</ele>
        <time>2021-03-21T06:25:37Z</time>
      </trkpt>
      <trkpt lat="43.06669" lon="2.46174">
        <ele>386.3</ele>
        <time>2021-03-21T06:25:38Z</time>
      </trkpt>
      <trkpt lat="43.06666" lon="2.46171">
        <ele>386.6</ele>
        <time>2021-03-21T06:25:39Z</time>
      </trkpt>
      <trkpt lat="43.06663" lon="2.46168">
        <ele>386.8</ele>
        <time>2021-03-21T06:25:40Z</time>
      </trkpt>
      <trkpt lat="43.06659" lon="2.46164">
        <ele>387.2</ele>
        <time>2021-03-21T06:25:42Z</time>
      </trkpt>
      <trkpt lat="43.06656" lon="2.4616">
        <ele>387.5</ele>
        <time>2021-03-21T06:25:43Z</time>
      </trkpt>
      <trkpt lat="43.06653" lon="2.46156">
        <ele>387.9</ele>
        <time>2021-03-21T06:25:44Z</time>
      </trkpt>
      <trkpt lat="43.0665" lon="2.46152">
        <ele>388.2</ele>
        <time>2021-03-21T06:25:45Z</time>
      </trkpt>
      <trkpt lat="43.06647" lon="2.46149">
        <ele>388.5</ele>
        <time>2021-03-21T06:25:47Z</time>
      </trkpt>
      <trkpt lat="43.06643" lon="2.46144">
        <ele>388.9</ele>
        <time>2021-03-21T06:25:48Z</time>
      </trkpt>
      <trkpt lat="43.0664" lon="2.46142">
        <ele>389.2</ele>
        <time>2021-03-21T06:25:49Z</time>
      </trkpt>
      <trkpt lat="43.06636" lon="2.46137">
        <ele>389.6</ele>
        <time>2021-03-21T06:25:51Z</time>
      </trkpt>
      <trkpt lat="43.06632" lon="2.46134">
        <ele>389.9</ele>
        <time>2021-03-21T06:25:52Z</time>
      </trkpt>
      <trkpt lat="43.06627" lon="2.46129">
        <ele>390.4</ele>
        <time>2021-03-21T06:25:54Z</time>
      </trkpt>
      <trkpt lat="43.06624" lon="2.46127">
        <ele>390.6</ele>
        <time>2021-03-21T06:25:55Z</time>
      </trkpt>
      <trkpt lat="43.0662" lon="2.46123">
        <ele>391</ele>
        <time>2021-03-21T06:25:56Z</time>
      </trkpt>
      <trkpt lat="43.06617" lon="2.46121">
        <ele>391.2</ele>
        <time>2021-03-21T06:25:57Z</time>
      </trkpt>
      <trkpt lat="43.06613" lon="2.46117">
        <ele>391.6</ele>
        <time>2021-03-21T06:25:59Z</time>
      </trkpt>
      <trkpt lat="43.06609" lon="2.46112">
        <ele>392</ele>
        <time>2021-03-21T06:26:00Z</time>
      </trkpt>
      <trkpt lat="43.06605" lon="2.46107">
        <ele>392.4</ele>
        <time>2021-03-21T06:26:02Z</time>
      </trkpt>
      <trkpt lat="43.06601" lon="2.46102">
        <ele>392.8</ele>
        <time>2021-03-21T06:26:03Z</time>
      </trkpt>
      <trkpt lat="43.06598" lon="2.46099">
        <ele>393.1</ele>
        <time>2021-03-21T06:26:04Z</time>
      </trkpt>
      <trkpt lat="43.06594" lon="2.46095">
        <ele>393.5</ele>
        <time>2021-03-21T06:26:06Z</time>
      </trkpt>
      <trkpt lat="43.06591" lon="2.46091">
        <ele>393.8</ele>
        <time>2021-03-21T06:26:07Z</time>
      </trkpt>
      <trkpt lat="43.06587" lon="2.46084">
        <ele>394.2</ele>
        <time>2021-03-21T06:26:09Z</time>
      </trkpt>
      <trkpt lat="43.06584" lon="2.4608">
        <ele>394.6</ele>
        <time>2021-03-21T06:26:10Z</time>
      </trkpt>
      <trkpt lat="43.06581" lon="2.46076">
        <ele>394.9</ele>
        <time>2021-03-21T06:26:11Z</time>
      </trkpt>
      <trkpt lat="43.06578" lon="2.46072">
        <ele>395.3</ele>
        <time>2021-03-21T06:26:13Z</time>
      </trkpt>
      <trkpt lat="43.06575" lon="2.46069">
        <ele>395.5</ele>
        <time>2021-03-21T06:26:14Z</time>
      </trkpt>
      <trkpt lat="43.06571" lon="2.46064">
        <ele>396</ele>
        <time>2021-03-21T06:26:15Z</time>
      </trkpt>
      <trkpt lat="43.06568" lon="2.4606">
        <ele>396.3</ele>
        <time>2021-03-21T06:26:16Z</time>
      </trkpt>
      <trkpt lat="43.06564" lon="2.46054">
        <ele>396.7</ele>
        <time>2021-03-21T06:26:18Z</time>
      </trkpt>
      <trkpt lat="43.06561" lon="2.46051">
        <ele>397</ele>
        <time>2021-03-21T06:26:19Z</time>
      </trkpt>
      <trkpt lat="43.06556" lon="2.46045">
        <ele>397.4</ele>
        <time>2021-03-21T06:26:21Z</time>
      </trkpt>
      <trkpt lat="43.06553" lon="2.46042">
        <ele>397.7</ele>
        <time>2021-03-21T06:26:22Z</time>
      </trkpt>
      <trkpt lat="43.06548" lon="2.46037">
        <ele>398.2</ele>
        <time>2021-03-21T06:26:24Z</time>
      </trkpt>
      <trkpt lat="43.06543" lon="2.46033">
        <ele>398.5</ele>
        <time>2021-03-21T06:26:25Z</time>
      </trkpt>
      <trkpt lat="43.06538" lon="2.4603">
        <ele>398.9</ele>
        <time>2021-03-21T06:26:27Z</time>
      </trkpt>
      <trkpt lat="43.06533" lon="2.46026">
        <ele>399.4</ele>
        <time>2021-03-21T06:26:29Z</time>
      </trkpt>
      <trkpt lat="43.0653" lon="2.46023">
        <ele>399.6</ele>
        <time>2021-03-21T06:26:30Z</time>
      </trkpt>
      <trkpt lat="43.06526" lon="2.46021">
        <ele>400</ele>
        <time>2021-03-21T06:26:31Z</time>
      </trkpt>
      <trkpt lat="43.06521" lon="2.46018">
        <ele>400.4</ele>
        <time>2021-03-21T06:26:33Z</time>
      </trkpt>
      <trkpt lat="43.06518" lon="2.46015">
        <ele>400.7</ele>
        <time>2021-03-21T06:26:34Z</time>
      </trkpt>
      <trkpt lat="43.06513" lon="2.46013">
        <ele>401</ele>
        <time>2021-03-21T06:26:35Z</time>
      </trkpt>
      <trkpt lat="43.0651" lon="2.4601">
        <ele>401.3</ele>
        <time>2021-03-21T06:26:36Z</time>
      </trkpt>
      <trkpt lat="43.06505" lon="2.46006">
        <ele>401.7</ele>
        <time>2021-03-21T06:26:38Z</time>
      </trkpt>
      <trkpt lat="43.06502" lon="2.46003">
        <ele>402.1</ele>
        <time>2021-03-21T06:26:39Z</time>
      </trkpt>
      <trkpt lat="43.06497" lon="2.45998">
        <ele>402.5</ele>
        <time>2021-03-21T06:26:41Z</time>
      </trkpt>
      <trkpt lat="43.06494" lon="2.45993">
        <ele>402.9</ele>
        <time>2021-03-21T06:26:42Z</time>
      </trkpt>
      <trkpt lat="43.06492" lon="2.4599">
        <ele>403.1</ele>
        <time>2021-03-21T06:26:43Z</time>
      </trkpt>
      <trkpt lat="43.06489" lon="2.45985">
        <ele>403.5</ele>
        <time>2021-03-21T06:26:45Z</time>
      </trkpt>
      <trkpt lat="43.06486" lon="2.4598">
        <ele>403.9</ele>
        <time>2021-03-21T06:26:46Z</time>
      </trkpt>
      <trkpt lat="43.06483" lon="2.45976">
        <ele>404.2</ele>
        <time>2021-03-21T06:26:47Z</time>
      </trkpt>
      <trkpt lat="43.06481" lon="2.45971">
        <ele>404.6</ele>
        <time>2021-03-21T06:26:49Z</time>
      </trkpt>
      <trkpt lat="43.06479" lon="2.45966">
        <ele>404.8</ele>
        <time>2021-03-21T06:26:50Z</time>
      </trkpt>
      <trkpt lat="43.06477" lon="2.45963">
        <ele>405.1</ele>
        <time>2021-03-21T06:26:51Z</time>
      </trkpt>
      <trkpt lat="43.06475" lon="2.45958">
        <ele>405.4</ele>
        <time>2021-03-21T06:26:52Z</time>
      </trkpt>
      <trkpt lat="43.06473" lon="2.45954">
        <ele>405.7</ele>
        <time>2021-03-21T06:26:54Z</time>
      </trkpt>
      <trkpt lat="43.06471" lon="2.45949">
        <ele>406</ele>
        <time>2021-03-21T06:26:55Z</time>
      </trkpt>
      <trkpt lat="43.06468" lon="2.45944">
        <ele>406.3</ele>
        <time>2021-03-21T06:26:56Z</time>
      </trkpt>
      <trkpt lat="43.06465" lon="2.45938">
        <ele>406.8</ele>
        <time>2021-03-21T06:26:58Z</time>
      </trkpt>
      <trkpt lat="43.06462" lon="2.45935">
        <ele>407.1</ele>
        <time>2021-03-21T06:26:59Z</time>
      </trkpt>
      <trkpt lat="43.06459" lon="2.4593">
        <ele>407.4</ele>
        <time>2021-03-21T06:27:00Z</time>
      </trkpt>
      <trkpt lat="43.06456" lon="2.45925">
        <ele>407.8</ele>
        <time>2021-03-21T06:27:02Z</time>
      </trkpt>
      <trkpt lat="43.06454" lon="2.4592">
        <ele>408.1</ele>
        <time>2021-03-21T06:27:03Z</time>
      </trkpt>
      <trkpt lat="43.06451" lon="2.45916">
        <ele>408.4</ele>
        <time>2021-03-21T06:27:05Z</time>
      </trkpt>
      <trkpt lat="43.06448" lon="2.45912">
        <ele>408.7</ele>
        <time>2021-03-21T06:27:06Z</time>
      </trkpt>
      <trkpt lat="43.06445" lon="2.45907">
        <ele>409</ele>
        <time>2021-03-21T06:27:07Z</time>
      </trkpt>
      <trkpt lat="43.06442" lon="2.45903">
        <ele>409.3</ele>
        <time>2021-03-21T06:27:09Z</time>
      </trkpt>
      <trkpt lat="43.06438" lon="2.45899">
        <ele>409.6</ele>
        <time>2021-03-21T06:27:10Z</time>
      </trkpt>
      <trkpt lat="43.06435" lon="2.45897">
        <ele>409.9</ele>
        <time>2021-03-21T06:27:11Z</time>
      </trkpt>
      <trkpt lat="43.06434" lon="2.45895">
        <ele>410</ele>
        <time>2021-03-21T06:27:12Z</time>
      </trkpt>
      <trkpt lat="43.06431" lon="2.45893">
        <ele>410.3</ele>
        <time>2021-03-21T06:27:14Z</time>
      </trkpt>
      <trkpt lat="43.06428" lon="2.45891">
        <ele>410.5</ele>
        <time>2021-03-21T06:27:15Z</time>
      </trkpt>
      <trkpt lat="43.06423" lon="2.45888">
        <ele>410.9</ele>
        <time>2021-03-21T06:27:17Z</time>
      </trkpt>
      <trkpt lat="43.06419" lon="2.45885">
        <ele>411.2</ele>
        <time>2021-03-21T06:27:18Z</time>
      </trkpt>
      <trkpt lat="43.06418" lon="2.45884">
        <ele>411.3</ele>
        <time>2021-03-21T06:27:19Z</time>
      </trkpt>
      <trkpt lat="43.06414" lon="2.4588">
        <ele>411.7</ele>
        <time>2021-03-21T06:27:21Z</time>
      </trkpt>
      <trkpt lat="43.06413" lon="2.45879">
        <ele>411.8</ele>
        <time>2021-03-21T06:27:22Z</time>
      </trkpt>
      <trkpt lat="43.06408" lon="2.45873">
        <ele>412.3</ele>
        <time>2021-03-21T06:27:24Z</time>
      </trkpt>
      <trkpt lat="43.06401" lon="2.45864">
        <ele>413.1</ele>
        <time>2021-03-21T06:27:26Z</time>
      </trkpt>
      <trkpt lat="43.06397" lon="2.45859">
        <ele>413.5</ele>
        <time>2021-03-21T06:27:27Z</time>
      </trkpt>
      <trkpt lat="43.06393" lon="2.45854">
        <ele>413.9</ele>
        <time>2021-03-21T06:27:28Z</time>
      </trkpt>
      <trkpt lat="43.06389" lon="2.45848">
        <ele>414.4</ele>
        <time>2021-03-21T06:27:30Z</time>
      </trkpt>
      <trkpt lat="43.06384" lon="2.45843">
        <ele>414.9</ele>
        <time>2021-03-21T06:27:31Z</time>
      </trkpt>
      <trkpt lat="43.06381" lon="2.4584">
        <ele>415.2</ele>
        <time>2021-03-21T06:27:32Z</time>
      </trkpt>
      <trkpt lat="43.06376" lon="2.45837">
        <ele>415.6</ele>
        <time>2021-03-21T06:27:33Z</time>
      </trkpt>
      <trkpt lat="43.0637" lon="2.45833">
        <ele>416.1</ele>
        <time>2021-03-21T06:27:35Z</time>
      </trkpt>
      <trkpt lat="43.06364" lon="2.4583">
        <ele>416.6</ele>
        <time>2021-03-21T06:27:36Z</time>
      </trkpt>
      <trkpt lat="43.06361" lon="2.45829">
        <ele>416.9</ele>
        <time>2021-03-21T06:27:37Z</time>
      </trkpt>
      <trkpt lat="43.06356" lon="2.45827">
        <ele>417.3</ele>
        <time>2021-03-21T06:27:39Z</time>
      </trkpt>
      <trkpt lat="43.06352" lon="2.45825">
        <ele>417.6</ele>
        <time>2021-03-21T06:27:40Z</time>
      </trkpt>
      <trkpt lat="43.06345" lon="2.45822">
        <ele>418.2</ele>
        <time>2021-03-21T06:27:41Z</time>
      </trkpt>
      <trkpt lat="43.0634" lon="2.4582">
        <ele>418.6</ele>
        <time>2021-03-21T06:27:43Z</time>
      </trkpt>
      <trkpt lat="43.06337" lon="2.45817">
        <ele>418.9</ele>
        <time>2021-03-21T06:27:44Z</time>
      </trkpt>
      <trkpt lat="43.06334" lon="2.45814">
        <ele>419.1</ele>
        <time>2021-03-21T06:27:45Z</time>
      </trkpt>
      <trkpt lat="43.06329" lon="2.45809">
        <ele>419.6</ele>
        <time>2021-03-21T06:27:47Z</time>
      </trkpt>
      <trkpt lat="43.06325" lon="2.45806">
        <ele>419.9</ele>
        <time>2021-03-21T06:27:48Z</time>
      </trkpt>
      <trkpt lat="43.06323" lon="2.45804">
        <ele>420.2</ele>
        <time>2021-03-21T06:27:49Z</time>
      </trkpt>
      <trkpt lat="43.06319" lon="2.45801">
        <ele>420.5</ele>
        <time>2021-03-21T06:27:51Z</time>
      </trkpt>
      <trkpt lat="43.06314" lon="2.45797">
        <ele>421</ele>
        <time>2021-03-21T06:27:52Z</time>
      </trkpt>
      <trkpt lat="43.06311" lon="2.45795">
        <ele>421.3</ele>
        <time>2021-03-21T06:27:53Z</time>
      </trkpt>
      <trkpt lat="43.06308" lon="2.45794">
        <ele>421.5</ele>
        <time>2021-03-21T06:27:54Z</time>
      </trkpt>
      <trkpt lat="43.06305" lon="2.45793">
        <ele>421.8</ele>
        <time>2021-03-21T06:27:55Z</time>
      </trkpt>
      <trkpt lat="43.06299" lon="2.45793">
        <ele>422.2</ele>
        <time>2021-03-21T06:27:57Z</time>
      </trkpt>
      <trkpt lat="43.06295" lon="2.45793">
        <ele>422.5</ele>
        <time>2021-03-21T06:27:58Z</time>
      </trkpt>
      <trkpt lat="43.06293" lon="2.45793">
        <ele>422.7</ele>
        <time>2021-03-21T06:27:59Z</time>
      </trkpt>
      <trkpt lat="43.06287" lon="2.45793">
        <ele>423.2</ele>
        <time>2021-03-21T06:28:01Z</time>
      </trkpt>
      <trkpt lat="43.06283" lon="2.45793">
        <ele>423.5</ele>
        <time>2021-03-21T06:28:02Z</time>
      </trkpt>
      <trkpt lat="43.06282" lon="2.45792">
        <ele>423.6</ele>
        <time>2021-03-21T06:28:03Z</time>
      </trkpt>
      <trkpt lat="43.06278" lon="2.45792">
        <ele>423.9</ele>
        <time>2021-03-21T06:28:04Z</time>
      </trkpt>
      <trkpt lat="43.06272" lon="2.45791">
        <ele>424.4</ele>
        <time>2021-03-21T06:28:06Z</time>
      </trkpt>
      <trkpt lat="43.06269" lon="2.4579">
        <ele>424.7</ele>
        <time>2021-03-21T06:28:07Z</time>
      </trkpt>
      <trkpt lat="43.06266" lon="2.45789">
        <ele>424.9</ele>
        <time>2021-03-21T06:28:08Z</time>
      </trkpt>
      <trkpt lat="43.0626" lon="2.45787">
        <ele>425.3</ele>
        <time>2021-03-21T06:28:10Z</time>
      </trkpt>
      <trkpt lat="43.06255" lon="2.45785">
        <ele>425.7</ele>
        <time>2021-03-21T06:28:11Z</time>
      </trkpt>
      <trkpt lat="43.06252" lon="2.45785">
        <ele>425.9</ele>
        <time>2021-03-21T06:28:13Z</time>
      </trkpt>
      <trkpt lat="43.06249" lon="2.45784">
        <ele>426.2</ele>
        <time>2021-03-21T06:28:14Z</time>
      </trkpt>
      <trkpt lat="43.06245" lon="2.45783">
        <ele>426.4</ele>
        <time>2021-03-21T06:28:15Z</time>
      </trkpt>
      <trkpt lat="43.06241" lon="2.45782">
        <ele>426.7</ele>
        <time>2021-03-21T06:28:16Z</time>
      </trkpt>
      <trkpt lat="43.06238" lon="2.4578">
        <ele>427</ele>
        <time>2021-03-21T06:28:17Z</time>
      </trkpt>
      <trkpt lat="43.06235" lon="2.45779">
        <ele>427.3</ele>
        <time>2021-03-21T06:28:18Z</time>
      </trkpt>
      <trkpt lat="43.06229" lon="2.45776">
        <ele>427.7</ele>
        <time>2021-03-21T06:28:20Z</time>
      </trkpt>
      <trkpt lat="43.06225" lon="2.45774">
        <ele>428</ele>
        <time>2021-03-21T06:28:21Z</time>
      </trkpt>
      <trkpt lat="43.06222" lon="2.45773">
        <ele>428.2</ele>
        <time>2021-03-21T06:28:22Z</time>
      </trkpt>
      <trkpt lat="43.06218" lon="2.45771">
        <ele>428.5</ele>
        <time>2021-03-21T06:28:23Z</time>
      </trkpt>
      <trkpt lat="43.06215" lon="2.4577">
        <ele>428.8</ele>
        <time>2021-03-21T06:28:25Z</time>
      </trkpt>
      <trkpt lat="43.0621" lon="2.45768">
        <ele>429.1</ele>
        <time>2021-03-21T06:28:26Z</time>
      </trkpt>
      <trkpt lat="43.06205" lon="2.45765">
        <ele>429.5</ele>
        <time>2021-03-21T06:28:27Z</time>
      </trkpt>
      <trkpt lat="43.06202" lon="2.45763">
        <ele>429.8</ele>
        <time>2021-03-21T06:28:28Z</time>
      </trkpt>
      <trkpt lat="43.06198" lon="2.45761">
        <ele>430.1</ele>
        <time>2021-03-21T06:28:29Z</time>
      </trkpt>
      <trkpt lat="43.0619" lon="2.45757">
        <ele>430.8</ele>
        <time>2021-03-21T06:28:31Z</time>
      </trkpt>
      <trkpt lat="43.06186" lon="2.45754">
        <ele>431.2</ele>
        <time>2021-03-21T06:28:32Z</time>
      </trkpt>
      <trkpt lat="43.0618" lon="2.45751">
        <ele>431.7</ele>
        <time>2021-03-21T06:28:34Z</time>
      </trkpt>
      <trkpt lat="43.06176" lon="2.45748">
        <ele>432</ele>
        <time>2021-03-21T06:28:35Z</time>
      </trkpt>
      <trkpt lat="43.06172" lon="2.45746">
        <ele>432.4</ele>
        <time>2021-03-21T06:28:36Z</time>
      </trkpt>
      <trkpt lat="43.06167" lon="2.45744">
        <ele>432.8</ele>
        <time>2021-03-21T06:28:38Z</time>
      </trkpt>
      <trkpt lat="43.06162" lon="2.45742">
        <ele>433.2</ele>
        <time>2021-03-21T06:28:39Z</time>
      </trkpt>
      <trkpt lat="43.06158" lon="2.4574">
        <ele>433.5</ele>
        <time>2021-03-21T06:28:40Z</time>
      </trkpt>
      <trkpt lat="43.06154" lon="2.45739">
        <ele>433.8</ele>
        <time>2021-03-21T06:28:41Z</time>
      </trkpt>
      <trkpt lat="43.0615" lon="2.45738">
        <ele>434.1</ele>
        <time>2021-03-21T06:28:42Z</time>
      </trkpt>
      <trkpt lat="43.06145" lon="2.45737">
        <ele>434.5</ele>
        <time>2021-03-21T06:28:44Z</time>
      </trkpt>
      <trkpt lat="43.06141" lon="2.45736">
        <ele>434.8</ele>
        <time>2021-03-21T06:28:45Z</time>
      </trkpt>
      <trkpt lat="43.06136" lon="2.45735">
        <ele>435.2</ele>
        <time>2021-03-21T06:28:46Z</time>
      </trkpt>
      <trkpt lat="43.06132" lon="2.45735">
        <ele>435.5</ele>
        <time>2021-03-21T06:28:48Z</time>
      </trkpt>
      <trkpt lat="43.06128" lon="2.45734">
        <ele>435.8</ele>
        <time>2021-03-21T06:28:49Z</time>
      </trkpt>
      <trkpt lat="43.06124" lon="2.45733">
        <ele>436.1</ele>
        <time>2021-03-21T06:28:50Z</time>
      </trkpt>
      <trkpt lat="43.06118" lon="2.45733">
        <ele>436.5</ele>
        <time>2021-03-21T06:28:52Z</time>
      </trkpt>
      <trkpt lat="43.06115" lon="2.45733">
        <ele>436.7</ele>
        <time>2021-03-21T06:28:53Z</time>
      </trkpt>
      <trkpt lat="43.06111" lon="2.45732">
        <ele>437.1</ele>
        <time>2021-03-21T06:28:54Z</time>
      </trkpt>
      <trkpt lat="43.06105" lon="2.4573">
        <ele>437.5</ele>
        <time>2021-03-21T06:28:56Z</time>
      </trkpt>
      <trkpt lat="43.06098" lon="2.45727">
        <ele>438</ele>
        <time>2021-03-21T06:28:57Z</time>
      </trkpt>
      <trkpt lat="43.06095" lon="2.45725">
        <ele>438.3</ele>
        <time>2021-03-21T06:28:58Z</time>
      </trkpt>
      <trkpt lat="43.06093" lon="2.45722">
        <ele>438.5</ele>
        <time>2021-03-21T06:28:59Z</time>
      </trkpt>
      <trkpt lat="43.06089" lon="2.45718">
        <ele>439</ele>
        <time>2021-03-21T06:29:01Z</time>
      </trkpt>
      <trkpt lat="43.06086" lon="2.45713">
        <ele>439.3</ele>
        <time>2021-03-21T06:29:02Z</time>
      </trkpt>
      <trkpt lat="43.06083" lon="2.45707">
        <ele>439.7</ele>
        <time>2021-03-21T06:29:04Z</time>
      </trkpt>
      <trkpt lat="43.06081" lon="2.45701">
        <ele>440.1</ele>
        <time>2021-03-21T06:29:05Z</time>
      </trkpt>
      <trkpt lat="43.06079" lon="2.45695">
        <ele>440.6</ele>
        <time>2021-03-21T06:29:07Z</time>
      </trkpt>
      <trkpt lat="43.06077" lon="2.45691">
        <ele>440.8</ele>
        <time>2021-03-21T06:29:08Z</time>
      </trkpt>
      <trkpt lat="43.06076" lon="2.45686">
        <ele>441.1</ele>
        <time>2021-03-21T06:29:09Z</time>
      </trkpt>
      <trkpt lat="43.06074" lon="2.45682">
        <ele>441.4</ele>
        <time>2021-03-21T06:29:10Z</time>
      </trkpt>
      <trkpt lat="43.06071" lon="2.45677">
        <ele>441.8</ele>
        <time>2021-03-21T06:29:11Z</time>
      </trkpt>
      <trkpt lat="43.06069" lon="2.45671">
        <ele>442.2</ele>
        <time>2021-03-21T06:29:13Z</time>
      </trkpt>
      <trkpt lat="43.06067" lon="2.45667">
        <ele>442.5</ele>
        <time>2021-03-21T06:29:14Z</time>
      </trkpt>
      <trkpt lat="43.06064" lon="2.45663">
        <ele>442.7</ele>
        <time>2021-03-21T06:29:15Z</time>
      </trkpt>
      <trkpt lat="43.0606" lon="2.45654">
        <ele>443.3</ele>
        <time>2021-03-21T06:29:17Z</time>
      </trkpt>
      <trkpt lat="43.06058" lon="2.45651">
        <ele>443.3</ele>
        <time>2021-03-21T06:29:18Z</time>
      </trkpt>
      <trkpt lat="43.06056" lon="2.45647">
        <ele>443.3</ele>
        <time>2021-03-21T06:29:19Z</time>
      </trkpt>
      <trkpt lat="43.06053" lon="2.45644">
        <ele>443.3</ele>
        <time>2021-03-21T06:29:20Z</time>
      </trkpt>
      <trkpt lat="43.0605" lon="2.4564">
        <ele>443.4</ele>
        <time>2021-03-21T06:29:21Z</time>
      </trkpt>
      <trkpt lat="43.06047" lon="2.45639">
        <ele>443.6</ele>
        <time>2021-03-21T06:29:22Z</time>
      </trkpt>
      <trkpt lat="43.06042" lon="2.45636">
        <ele>444</ele>
        <time>2021-03-21T06:29:24Z</time>
      </trkpt>
      <trkpt lat="43.06039" lon="2.45634">
        <ele>444.3</ele>
        <time>2021-03-21T06:29:25Z</time>
      </trkpt>
      <trkpt lat="43.06036" lon="2.45632">
        <ele>444.5</ele>
        <time>2021-03-21T06:29:26Z</time>
      </trkpt>
      <trkpt lat="43.06032" lon="2.45628">
        <ele>444.8</ele>
        <time>2021-03-21T06:29:28Z</time>
      </trkpt>
      <trkpt lat="43.06029" lon="2.45625">
        <ele>445</ele>
        <time>2021-03-21T06:29:29Z</time>
      </trkpt>
      <trkpt lat="43.06027" lon="2.45621">
        <ele>445.3</ele>
        <time>2021-03-21T06:29:30Z</time>
      </trkpt>
      <trkpt lat="43.06025" lon="2.45615">
        <ele>445.6</ele>
        <time>2021-03-21T06:29:31Z</time>
      </trkpt>
      <trkpt lat="43.06023" lon="2.45611">
        <ele>445.9</ele>
        <time>2021-03-21T06:29:32Z</time>
      </trkpt>
      <trkpt lat="43.06021" lon="2.45605">
        <ele>446.2</ele>
        <time>2021-03-21T06:29:34Z</time>
      </trkpt>
      <trkpt lat="43.0602" lon="2.45601">
        <ele>446.5</ele>
        <time>2021-03-21T06:29:35Z</time>
      </trkpt>
      <trkpt lat="43.06018" lon="2.45596">
        <ele>446.8</ele>
        <time>2021-03-21T06:29:36Z</time>
      </trkpt>
      <trkpt lat="43.06017" lon="2.45591">
        <ele>447.1</ele>
        <time>2021-03-21T06:29:37Z</time>
      </trkpt>
      <trkpt lat="43.06015" lon="2.45585">
        <ele>447.5</ele>
        <time>2021-03-21T06:29:39Z</time>
      </trkpt>
      <trkpt lat="43.06015" lon="2.4558">
        <ele>447.8</ele>
        <time>2021-03-21T06:29:40Z</time>
      </trkpt>
      <trkpt lat="43.06015" lon="2.45575">
        <ele>448</ele>
        <time>2021-03-21T06:29:41Z</time>
      </trkpt>
      <trkpt lat="43.06015" lon="2.45571">
        <ele>448.2</ele>
        <time>2021-03-21T06:29:42Z</time>
      </trkpt>
      <trkpt lat="43.06014" lon="2.45568">
        <ele>448.4</ele>
        <time>2021-03-21T06:29:43Z</time>
      </trkpt>
      <trkpt lat="43.06014" lon="2.45561">
        <ele>448.8</ele>
        <time>2021-03-21T06:29:45Z</time>
      </trkpt>
      <trkpt lat="43.06013" lon="2.45556">
        <ele>449.1</ele>
        <time>2021-03-21T06:29:46Z</time>
      </trkpt>
      <trkpt lat="43.06013" lon="2.45551">
        <ele>449.4</ele>
        <time>2021-03-21T06:29:47Z</time>
      </trkpt>
      <trkpt lat="43.06012" lon="2.45546">
        <ele>449.7</ele>
        <time>2021-03-21T06:29:48Z</time>
      </trkpt>
      <trkpt lat="43.06012" lon="2.45538">
        <ele>450.2</ele>
        <time>2021-03-21T06:29:50Z</time>
      </trkpt>
      <trkpt lat="43.06012" lon="2.45534">
        <ele>450.5</ele>
        <time>2021-03-21T06:29:51Z</time>
      </trkpt>
      <trkpt lat="43.06012" lon="2.45529">
        <ele>450.7</ele>
        <time>2021-03-21T06:29:52Z</time>
      </trkpt>
      <trkpt lat="43.06011" lon="2.45523">
        <ele>451.1</ele>
        <time>2021-03-21T06:29:53Z</time>
      </trkpt>
      <trkpt lat="43.06011" lon="2.45518">
        <ele>451.5</ele>
        <time>2021-03-21T06:29:55Z</time>
      </trkpt>
      <trkpt lat="43.0601" lon="2.45512">
        <ele>451.8</ele>
        <time>2021-03-21T06:29:56Z</time>
      </trkpt>
      <trkpt lat="43.06009" lon="2.45505">
        <ele>452.3</ele>
        <time>2021-03-21T06:29:58Z</time>
      </trkpt>
      <trkpt lat="43.06007" lon="2.45501">
        <ele>452.6</ele>
        <time>2021-03-21T06:29:59Z</time>
      </trkpt>
      <trkpt lat="43.06004" lon="2.45497">
        <ele>453</ele>
        <time>2021-03-21T06:30:00Z</time>
      </trkpt>
      <trkpt lat="43.06001" lon="2.45495">
        <ele>453.3</ele>
        <time>2021-03-21T06:30:01Z</time>
      </trkpt>
      <trkpt lat="43.05996" lon="2.45495">
        <ele>453.7</ele>
        <time>2021-03-21T06:30:03Z</time>
      </trkpt>
      <trkpt lat="43.05992" lon="2.45498">
        <ele>454.1</ele>
        <time>2021-03-21T06:30:04Z</time>
      </trkpt>
      <trkpt lat="43.05989" lon="2.45503">
        <ele>454.4</ele>
        <time>2021-03-21T06:30:05Z</time>
      </trkpt>
      <trkpt lat="43.05987" lon="2.4551">
        <ele>454.9</ele>
        <time>2021-03-21T06:30:07Z</time>
      </trkpt>
      <trkpt lat="43.05986" lon="2.45516">
        <ele>455.2</ele>
        <time>2021-03-21T06:30:08Z</time>
      </trkpt>
      <trkpt lat="43.05985" lon="2.4552">
        <ele>455.4</ele>
        <time>2021-03-21T06:30:09Z</time>
      </trkpt>
      <trkpt lat="43.05984" lon="2.45526">
        <ele>455.7</ele>
        <time>2021-03-21T06:30:11Z</time>
      </trkpt>
      <trkpt lat="43.05983" lon="2.4553">
        <ele>455.9</ele>
        <time>2021-03-21T06:30:12Z</time>
      </trkpt>
      <trkpt lat="43.05982" lon="2.45536">
        <ele>456.2</ele>
        <time>2021-03-21T06:30:13Z</time>
      </trkpt>
      <trkpt lat="43.05981" lon="2.4554">
        <ele>456.5</ele>
        <time>2021-03-21T06:30:14Z</time>
      </trkpt>
      <trkpt lat="43.05979" lon="2.45547">
        <ele>456.8</ele>
        <time>2021-03-21T06:30:16Z</time>
      </trkpt>
      <trkpt lat="43.05977" lon="2.45552">
        <ele>457.1</ele>
        <time>2021-03-21T06:30:17Z</time>
      </trkpt>
      <trkpt lat="43.05976" lon="2.45557">
        <ele>457.4</ele>
        <time>2021-03-21T06:30:18Z</time>
      </trkpt>
      <trkpt lat="43.05973" lon="2.45563">
        <ele>457.8</ele>
        <time>2021-03-21T06:30:20Z</time>
      </trkpt>
      <trkpt lat="43.05971" lon="2.45568">
        <ele>458.1</ele>
        <time>2021-03-21T06:30:21Z</time>
      </trkpt>
      <trkpt lat="43.0597" lon="2.45573">
        <ele>458.4</ele>
        <time>2021-03-21T06:30:22Z</time>
      </trkpt>
      <trkpt lat="43.05969" lon="2.45578">
        <ele>458.7</ele>
        <time>2021-03-21T06:30:23Z</time>
      </trkpt>
      <trkpt lat="43.05968" lon="2.45583">
        <ele>458.9</ele>
        <time>2021-03-21T06:30:24Z</time>
      </trkpt>
      <trkpt lat="43.05967" lon="2.45593">
        <ele>459.6</ele>
        <time>2021-03-21T06:30:26Z</time>
      </trkpt>
      <trkpt lat="43.05965" lon="2.45602">
        <ele>460.1</ele>
        <time>2021-03-21T06:30:28Z</time>
      </trkpt>
      <trkpt lat="43.05964" lon="2.45609">
        <ele>460.5</ele>
        <time>2021-03-21T06:30:30Z</time>
      </trkpt>
      <trkpt lat="43.05962" lon="2.45615">
        <ele>460.9</ele>
        <time>2021-03-21T06:30:31Z</time>
      </trkpt>
      <trkpt lat="43.05961" lon="2.45619">
        <ele>461.1</ele>
        <time>2021-03-21T06:30:32Z</time>
      </trkpt>
      <trkpt lat="43.05958" lon="2.45622">
        <ele>461.5</ele>
        <time>2021-03-21T06:30:33Z</time>
      </trkpt>
      <trkpt lat="43.05955" lon="2.45626">
        <ele>461.8</ele>
        <time>2021-03-21T06:30:35Z</time>
      </trkpt>
      <trkpt lat="43.05951" lon="2.45628">
        <ele>462.1</ele>
        <time>2021-03-21T06:30:36Z</time>
      </trkpt>
      <trkpt lat="43.05947" lon="2.45629">
        <ele>462.4</ele>
        <time>2021-03-21T06:30:37Z</time>
      </trkpt>
      <trkpt lat="43.05942" lon="2.45629">
        <ele>462.9</ele>
        <time>2021-03-21T06:30:38Z</time>
      </trkpt>
      <trkpt lat="43.05938" lon="2.45629">
        <ele>463.2</ele>
        <time>2021-03-21T06:30:40Z</time>
      </trkpt>
      <trkpt lat="43.05934" lon="2.45629">
        <ele>463.5</ele>
        <time>2021-03-21T06:30:41Z</time>
      </trkpt>
      <trkpt lat="43.0593" lon="2.45631">
        <ele>463.8</ele>
        <time>2021-03-21T06:30:42Z</time>
      </trkpt>
      <trkpt lat="43.05926" lon="2.45632">
        <ele>464.1</ele>
        <time>2021-03-21T06:30:44Z</time>
      </trkpt>
      <trkpt lat="43.05922" lon="2.45633">
        <ele>464.5</ele>
        <time>2021-03-21T06:30:45Z</time>
      </trkpt>
      <trkpt lat="43.05917" lon="2.45634">
        <ele>464.8</ele>
        <time>2021-03-21T06:30:47Z</time>
      </trkpt>
      <trkpt lat="43.05913" lon="2.45635">
        <ele>465.2</ele>
        <time>2021-03-21T06:30:48Z</time>
      </trkpt>
      <trkpt lat="43.05909" lon="2.45635">
        <ele>465.5</ele>
        <time>2021-03-21T06:30:49Z</time>
      </trkpt>
      <trkpt lat="43.05905" lon="2.45634">
        <ele>465.9</ele>
        <time>2021-03-21T06:30:51Z</time>
      </trkpt>
      <trkpt lat="43.05901" lon="2.4563">
        <ele>466.3</ele>
        <time>2021-03-21T06:30:52Z</time>
      </trkpt>
      <trkpt lat="43.05899" lon="2.45626">
        <ele>466.6</ele>
        <time>2021-03-21T06:30:53Z</time>
      </trkpt>
      <trkpt lat="43.05899" lon="2.45619">
        <ele>467</ele>
        <time>2021-03-21T06:30:55Z</time>
      </trkpt>
      <trkpt lat="43.05901" lon="2.45614">
        <ele>467.3</ele>
        <time>2021-03-21T06:30:56Z</time>
      </trkpt>
      <trkpt lat="43.05903" lon="2.4561">
        <ele>467.5</ele>
        <time>2021-03-21T06:30:57Z</time>
      </trkpt>
      <trkpt lat="43.0591" lon="2.45608">
        <ele>468</ele>
        <time>2021-03-21T06:30:59Z</time>
      </trkpt>
      <trkpt lat="43.05914" lon="2.45608">
        <ele>468.3</ele>
        <time>2021-03-21T06:31:00Z</time>
      </trkpt>
      <trkpt lat="43.05919" lon="2.45609">
        <ele>468.6</ele>
        <time>2021-03-21T06:31:01Z</time>
      </trkpt>
      <trkpt lat="43.05923" lon="2.4561">
        <ele>468.8</ele>
        <time>2021-03-21T06:31:02Z</time>
      </trkpt>
      <trkpt lat="43.05929" lon="2.45613">
        <ele>469.2</ele>
        <time>2021-03-21T06:31:03Z</time>
      </trkpt>
      <trkpt lat="43.05932" lon="2.45615">
        <ele>469.3</ele>
        <time>2021-03-21T06:31:04Z</time>
      </trkpt>
      <trkpt lat="43.05936" lon="2.45616">
        <ele>469.5</ele>
        <time>2021-03-21T06:31:05Z</time>
      </trkpt>
      <trkpt lat="43.05939" lon="2.45617">
        <ele>469.6</ele>
        <time>2021-03-21T06:31:07Z</time>
      </trkpt>
      <trkpt lat="43.05944" lon="2.45615">
        <ele>469.8</ele>
        <time>2021-03-21T06:31:08Z</time>
      </trkpt>
      <trkpt lat="43.05949" lon="2.45611">
        <ele>469.9</ele>
        <time>2021-03-21T06:31:09Z</time>
      </trkpt>
      <trkpt lat="43.05955" lon="2.45599">
        <ele>470.2</ele>
        <time>2021-03-21T06:31:11Z</time>
      </trkpt>
      <trkpt lat="43.05956" lon="2.45592">
        <ele>470.3</ele>
        <time>2021-03-21T06:31:12Z</time>
      </trkpt>
      <trkpt lat="43.05957" lon="2.45585">
        <ele>470.3</ele>
        <time>2021-03-21T06:31:13Z</time>
      </trkpt>
      <trkpt lat="43.05957" lon="2.45578">
        <ele>470.4</ele>
        <time>2021-03-21T06:31:14Z</time>
      </trkpt>
      <trkpt lat="43.05957" lon="2.45571">
        <ele>470.5</ele>
        <time>2021-03-21T06:31:15Z</time>
      </trkpt>
      <trkpt lat="43.05957" lon="2.45565">
        <ele>470.6</ele>
        <time>2021-03-21T06:31:16Z</time>
      </trkpt>
      <trkpt lat="43.05955" lon="2.4556">
        <ele>470.7</ele>
        <time>2021-03-21T06:31:17Z</time>
      </trkpt>
      <trkpt lat="43.05953" lon="2.45553">
        <ele>470.8</ele>
        <time>2021-03-21T06:31:19Z</time>
      </trkpt>
      <trkpt lat="43.05954" lon="2.45547">
        <ele>470.9</ele>
        <time>2021-03-21T06:31:20Z</time>
      </trkpt>
      <trkpt lat="43.05954" lon="2.45539">
        <ele>471.1</ele>
        <time>2021-03-21T06:31:21Z</time>
      </trkpt>
      <trkpt lat="43.05955" lon="2.45533">
        <ele>471.2</ele>
        <time>2021-03-21T06:31:22Z</time>
      </trkpt>
      <trkpt lat="43.05956" lon="2.45524">
        <ele>471.4</ele>
        <time>2021-03-21T06:31:24Z</time>
      </trkpt>
      <trkpt lat="43.05958" lon="2.45517">
        <ele>471.7</ele>
        <time>2021-03-21T06:31:25Z</time>
      </trkpt>
      <trkpt lat="43.0596" lon="2.45511">
        <ele>471.9</ele>
        <time>2021-03-21T06:31:26Z</time>
      </trkpt>
      <trkpt lat="43.05962" lon="2.45505">
        <ele>472.1</ele>
        <time>2021-03-21T06:31:27Z</time>
      </trkpt>
      <trkpt lat="43.05964" lon="2.45499">
        <ele>472.4</ele>
        <time>2021-03-21T06:31:29Z</time>
      </trkpt>
      <trkpt lat="43.05965" lon="2.45491">
        <ele>472.7</ele>
        <time>2021-03-21T06:31:30Z</time>
      </trkpt>
      <trkpt lat="43.05965" lon="2.45484">
        <ele>473.1</ele>
        <time>2021-03-21T06:31:32Z</time>
      </trkpt>
      <trkpt lat="43.05966" lon="2.45477">
        <ele>473.4</ele>
        <time>2021-03-21T06:31:33Z</time>
      </trkpt>
      <trkpt lat="43.05967" lon="2.45471">
        <ele>473.8</ele>
        <time>2021-03-21T06:31:35Z</time>
      </trkpt>
      <trkpt lat="43.05968" lon="2.45466">
        <ele>474</ele>
        <time>2021-03-21T06:31:36Z</time>
      </trkpt>
      <trkpt lat="43.05969" lon="2.4546">
        <ele>474.4</ele>
        <time>2021-03-21T06:31:37Z</time>
      </trkpt>
      <trkpt lat="43.0597" lon="2.45452">
        <ele>474.9</ele>
        <time>2021-03-21T06:31:38Z</time>
      </trkpt>
      <trkpt lat="43.05971" lon="2.45446">
        <ele>475.2</ele>
        <time>2021-03-21T06:31:40Z</time>
      </trkpt>
      <trkpt lat="43.05972" lon="2.45441">
        <ele>475.5</ele>
        <time>2021-03-21T06:31:41Z</time>
      </trkpt>
      <trkpt lat="43.05973" lon="2.45434">
        <ele>475.9</ele>
        <time>2021-03-21T06:31:42Z</time>
      </trkpt>
      <trkpt lat="43.05973" lon="2.45429">
        <ele>476.2</ele>
        <time>2021-03-21T06:31:43Z</time>
      </trkpt>
      <trkpt lat="43.05974" lon="2.45421">
        <ele>476.7</ele>
        <time>2021-03-21T06:31:45Z</time>
      </trkpt>
      <trkpt lat="43.05975" lon="2.45415">
        <ele>477.1</ele>
        <time>2021-03-21T06:31:47Z</time>
      </trkpt>
      <trkpt lat="43.05975" lon="2.4541">
        <ele>477.4</ele>
        <time>2021-03-21T06:31:48Z</time>
      </trkpt>
      <trkpt lat="43.05974" lon="2.45404">
        <ele>477.7</ele>
        <time>2021-03-21T06:31:49Z</time>
      </trkpt>
      <trkpt lat="43.05974" lon="2.454">
        <ele>478</ele>
        <time>2021-03-21T06:31:50Z</time>
      </trkpt>
      <trkpt lat="43.05973" lon="2.45394">
        <ele>478.3</ele>
        <time>2021-03-21T06:31:51Z</time>
      </trkpt>
      <trkpt lat="43.05972" lon="2.45388">
        <ele>478.6</ele>
        <time>2021-03-21T06:31:52Z</time>
      </trkpt>
      <trkpt lat="43.05971" lon="2.45382">
        <ele>479</ele>
        <time>2021-03-21T06:31:53Z</time>
      </trkpt>
      <trkpt lat="43.0597" lon="2.45374">
        <ele>479.5</ele>
        <time>2021-03-21T06:31:55Z</time>
      </trkpt>
      <trkpt lat="43.05969" lon="2.45369">
        <ele>479.8</ele>
        <time>2021-03-21T06:31:56Z</time>
      </trkpt>
      <trkpt lat="43.05968" lon="2.45362">
        <ele>480.2</ele>
        <time>2021-03-21T06:31:58Z</time>
      </trkpt>
      <trkpt lat="43.05968" lon="2.45355">
        <ele>480.6</ele>
        <time>2021-03-21T06:31:59Z</time>
      </trkpt>
      <trkpt lat="43.05968" lon="2.4535">
        <ele>480.9</ele>
        <time>2021-03-21T06:32:00Z</time>
      </trkpt>
      <trkpt lat="43.05969" lon="2.45343">
        <ele>481.4</ele>
        <time>2021-03-21T06:32:02Z</time>
      </trkpt>
      <trkpt lat="43.05969" lon="2.45338">
        <ele>481.6</ele>
        <time>2021-03-21T06:32:03Z</time>
      </trkpt>
      <trkpt lat="43.0597" lon="2.45332">
        <ele>481.9</ele>
        <time>2021-03-21T06:32:05Z</time>
      </trkpt>
      <trkpt lat="43.0597" lon="2.45327">
        <ele>482.2</ele>
        <time>2021-03-21T06:32:06Z</time>
      </trkpt>
      <trkpt lat="43.0597" lon="2.45322">
        <ele>482.5</ele>
        <time>2021-03-21T06:32:07Z</time>
      </trkpt>
      <trkpt lat="43.0597" lon="2.45315">
        <ele>482.8</ele>
        <time>2021-03-21T06:32:09Z</time>
      </trkpt>
      <trkpt lat="43.05969" lon="2.4531">
        <ele>483.1</ele>
        <time>2021-03-21T06:32:10Z</time>
      </trkpt>
      <trkpt lat="43.05969" lon="2.45305">
        <ele>483.3</ele>
        <time>2021-03-21T06:32:11Z</time>
      </trkpt>
      <trkpt lat="43.05969" lon="2.45297">
        <ele>483.7</ele>
        <time>2021-03-21T06:32:13Z</time>
      </trkpt>
      <trkpt lat="43.05969" lon="2.4529">
        <ele>484</ele>
        <time>2021-03-21T06:32:15Z</time>
      </trkpt>
      <trkpt lat="43.05969" lon="2.45285">
        <ele>484.3</ele>
        <time>2021-03-21T06:32:16Z</time>
      </trkpt>
      <trkpt lat="43.05968" lon="2.4528">
        <ele>484.5</ele>
        <time>2021-03-21T06:32:17Z</time>
      </trkpt>
      <trkpt lat="43.05966" lon="2.45273">
        <ele>484.8</ele>
        <time>2021-03-21T06:32:19Z</time>
      </trkpt>
      <trkpt lat="43.05965" lon="2.45267">
        <ele>485.1</ele>
        <time>2021-03-21T06:32:20Z</time>
      </trkpt>
      <trkpt lat="43.05962" lon="2.45259">
        <ele>485.6</ele>
        <time>2021-03-21T06:32:22Z</time>
      </trkpt>
      <trkpt lat="43.05961" lon="2.45252">
        <ele>485.9</ele>
        <time>2021-03-21T06:32:24Z</time>
      </trkpt>
      <trkpt lat="43.0596" lon="2.45246">
        <ele>486.3</ele>
        <time>2021-03-21T06:32:25Z</time>
      </trkpt>
      <trkpt lat="43.05959" lon="2.45242">
        <ele>486.5</ele>
        <time>2021-03-21T06:32:26Z</time>
      </trkpt>
      <trkpt lat="43.05958" lon="2.45236">
        <ele>486.8</ele>
        <time>2021-03-21T06:32:27Z</time>
      </trkpt>
      <trkpt lat="43.05957" lon="2.45231">
        <ele>487.1</ele>
        <time>2021-03-21T06:32:29Z</time>
      </trkpt>
      <trkpt lat="43.05956" lon="2.45225">
        <ele>487.4</ele>
        <time>2021-03-21T06:32:30Z</time>
      </trkpt>
      <trkpt lat="43.05956" lon="2.45218">
        <ele>487.8</ele>
        <time>2021-03-21T06:32:31Z</time>
      </trkpt>
      <trkpt lat="43.05956" lon="2.45211">
        <ele>488.2</ele>
        <time>2021-03-21T06:32:33Z</time>
      </trkpt>
      <trkpt lat="43.05956" lon="2.45204">
        <ele>488.6</ele>
        <time>2021-03-21T06:32:34Z</time>
      </trkpt>
      <trkpt lat="43.05956" lon="2.45193">
        <ele>489.2</ele>
        <time>2021-03-21T06:32:36Z</time>
      </trkpt>
      <trkpt lat="43.05955" lon="2.45184">
        <ele>489.8</ele>
        <time>2021-03-21T06:32:38Z</time>
      </trkpt>
      <trkpt lat="43.05956" lon="2.45178">
        <ele>490.2</ele>
        <time>2021-03-21T06:32:39Z</time>
      </trkpt>
      <trkpt lat="43.05956" lon="2.4517">
        <ele>490.6</ele>
        <time>2021-03-21T06:32:41Z</time>
      </trkpt>
      <trkpt lat="43.05955" lon="2.45164">
        <ele>491</ele>
        <time>2021-03-21T06:32:42Z</time>
      </trkpt>
      <trkpt lat="43.05955" lon="2.45158">
        <ele>491.4</ele>
        <time>2021-03-21T06:32:43Z</time>
      </trkpt>
      <trkpt lat="43.05954" lon="2.45152">
        <ele>491.8</ele>
        <time>2021-03-21T06:32:45Z</time>
      </trkpt>
      <trkpt lat="43.05952" lon="2.45146">
        <ele>492.2</ele>
        <time>2021-03-21T06:32:46Z</time>
      </trkpt>
      <trkpt lat="43.05951" lon="2.45141">
        <ele>492.5</ele>
        <time>2021-03-21T06:32:47Z</time>
      </trkpt>
      <trkpt lat="43.05951" lon="2.45134">
        <ele>492.9</ele>
        <time>2021-03-21T06:32:49Z</time>
      </trkpt>
      <trkpt lat="43.05952" lon="2.45128">
        <ele>493.2</ele>
        <time>2021-03-21T06:32:50Z</time>
      </trkpt>
      <trkpt lat="43.05955" lon="2.45123">
        <ele>493.6</ele>
        <time>2021-03-21T06:32:51Z</time>
      </trkpt>
      <trkpt lat="43.05958" lon="2.45117">
        <ele>493.9</ele>
        <time>2021-03-21T06:32:53Z</time>
      </trkpt>
      <trkpt lat="43.05961" lon="2.45114">
        <ele>494.2</ele>
        <time>2021-03-21T06:32:54Z</time>
      </trkpt>
      <trkpt lat="43.05965" lon="2.45111">
        <ele>494.6</ele>
        <time>2021-03-21T06:32:55Z</time>
      </trkpt>
      <trkpt lat="43.0597" lon="2.45109">
        <ele>495</ele>
        <time>2021-03-21T06:32:56Z</time>
      </trkpt>
      <trkpt lat="43.05975" lon="2.45108">
        <ele>495.3</ele>
        <time>2021-03-21T06:32:57Z</time>
      </trkpt>
      <trkpt lat="43.05979" lon="2.45108">
        <ele>495.6</ele>
        <time>2021-03-21T06:32:59Z</time>
      </trkpt>
      <trkpt lat="43.05983" lon="2.45108">
        <ele>495.8</ele>
        <time>2021-03-21T06:33:00Z</time>
      </trkpt>
      <trkpt lat="43.05987" lon="2.45108">
        <ele>496.1</ele>
        <time>2021-03-21T06:33:01Z</time>
      </trkpt>
      <trkpt lat="43.05993" lon="2.45107">
        <ele>496.4</ele>
        <time>2021-03-21T06:33:03Z</time>
      </trkpt>
      <trkpt lat="43.05996" lon="2.45106">
        <ele>496.6</ele>
        <time>2021-03-21T06:33:04Z</time>
      </trkpt>
      <trkpt lat="43.05999" lon="2.45106">
        <ele>496.8</ele>
        <time>2021-03-21T06:33:05Z</time>
      </trkpt>
      <trkpt lat="43.06003" lon="2.45106">
        <ele>497</ele>
        <time>2021-03-21T06:33:07Z</time>
      </trkpt>
      <trkpt lat="43.06007" lon="2.45108">
        <ele>497.3</ele>
        <time>2021-03-21T06:33:08Z</time>
      </trkpt>
      <trkpt lat="43.06011" lon="2.45112">
        <ele>497.6</ele>
        <time>2021-03-21T06:33:10Z</time>
      </trkpt>
      <trkpt lat="43.06014" lon="2.45115">
        <ele>497.9</ele>
        <time>2021-03-21T06:33:11Z</time>
      </trkpt>
      <trkpt lat="43.06017" lon="2.45121">
        <ele>498.2</ele>
        <time>2021-03-21T06:33:12Z</time>
      </trkpt>
      <trkpt lat="43.0602" lon="2.45126">
        <ele>498.5</ele>
        <time>2021-03-21T06:33:14Z</time>
      </trkpt>
      <trkpt lat="43.06024" lon="2.45131">
        <ele>498.9</ele>
        <time>2021-03-21T06:33:15Z</time>
      </trkpt>
      <trkpt lat="43.06027" lon="2.45136">
        <ele>499.3</ele>
        <time>2021-03-21T06:33:17Z</time>
      </trkpt>
      <trkpt lat="43.06031" lon="2.45141">
        <ele>499.7</ele>
        <time>2021-03-21T06:33:18Z</time>
      </trkpt>
      <trkpt lat="43.06036" lon="2.45147">
        <ele>500.2</ele>
        <time>2021-03-21T06:33:20Z</time>
      </trkpt>
      <trkpt lat="43.06038" lon="2.45152">
        <ele>500.5</ele>
        <time>2021-03-21T06:33:21Z</time>
      </trkpt>
      <trkpt lat="43.06041" lon="2.45157">
        <ele>500.9</ele>
        <time>2021-03-21T06:33:23Z</time>
      </trkpt>
      <trkpt lat="43.06044" lon="2.45163">
        <ele>501.3</ele>
        <time>2021-03-21T06:33:24Z</time>
      </trkpt>
      <trkpt lat="43.06046" lon="2.45167">
        <ele>501.6</ele>
        <time>2021-03-21T06:33:25Z</time>
      </trkpt>
      <trkpt lat="43.06049" lon="2.45173">
        <ele>502</ele>
        <time>2021-03-21T06:33:27Z</time>
      </trkpt>
      <trkpt lat="43.06051" lon="2.45177">
        <ele>502.3</ele>
        <time>2021-03-21T06:33:28Z</time>
      </trkpt>
      <trkpt lat="43.06054" lon="2.45183">
        <ele>502.7</ele>
        <time>2021-03-21T06:33:30Z</time>
      </trkpt>
      <trkpt lat="43.06056" lon="2.45188">
        <ele>503</ele>
        <time>2021-03-21T06:33:31Z</time>
      </trkpt>
      <trkpt lat="43.06058" lon="2.45194">
        <ele>503.3</ele>
        <time>2021-03-21T06:33:32Z</time>
      </trkpt>
      <trkpt lat="43.06062" lon="2.45202">
        <ele>503.8</ele>
        <time>2021-03-21T06:33:34Z</time>
      </trkpt>
      <trkpt lat="43.06063" lon="2.45207">
        <ele>504.1</ele>
        <time>2021-03-21T06:33:35Z</time>
      </trkpt>
      <trkpt lat="43.06064" lon="2.45211">
        <ele>504.3</ele>
        <time>2021-03-21T06:33:36Z</time>
      </trkpt>
      <trkpt lat="43.06067" lon="2.45217">
        <ele>504.6</ele>
        <time>2021-03-21T06:33:38Z</time>
      </trkpt>
      <trkpt lat="43.06069" lon="2.45225">
        <ele>504.9</ele>
        <time>2021-03-21T06:33:39Z</time>
      </trkpt>
      <trkpt lat="43.06071" lon="2.45229">
        <ele>505.1</ele>
        <time>2021-03-21T06:33:40Z</time>
      </trkpt>
      <trkpt lat="43.06073" lon="2.45239">
        <ele>505.5</ele>
        <time>2021-03-21T06:33:42Z</time>
      </trkpt>
      <trkpt lat="43.06075" lon="2.45244">
        <ele>505.7</ele>
        <time>2021-03-21T06:33:43Z</time>
      </trkpt>
      <trkpt lat="43.06076" lon="2.45249">
        <ele>505.9</ele>
        <time>2021-03-21T06:33:44Z</time>
      </trkpt>
      <trkpt lat="43.06079" lon="2.45257">
        <ele>506.2</ele>
        <time>2021-03-21T06:33:46Z</time>
      </trkpt>
      <trkpt lat="43.06081" lon="2.45263">
        <ele>506.5</ele>
        <time>2021-03-21T06:33:47Z</time>
      </trkpt>
      <trkpt lat="43.06084" lon="2.45269">
        <ele>506.8</ele>
        <time>2021-03-21T06:33:49Z</time>
      </trkpt>
      <trkpt lat="43.06087" lon="2.45273">
        <ele>507</ele>
        <time>2021-03-21T06:33:50Z</time>
      </trkpt>
      <trkpt lat="43.0609" lon="2.45276">
        <ele>507.2</ele>
        <time>2021-03-21T06:33:51Z</time>
      </trkpt>
      <trkpt lat="43.06094" lon="2.45277">
        <ele>507.5</ele>
        <time>2021-03-21T06:33:52Z</time>
      </trkpt>
      <trkpt lat="43.06098" lon="2.45279">
        <ele>507.7</ele>
        <time>2021-03-21T06:33:53Z</time>
      </trkpt>
      <trkpt lat="43.06103" lon="2.45277">
        <ele>508</ele>
        <time>2021-03-21T06:33:55Z</time>
      </trkpt>
      <trkpt lat="43.06108" lon="2.45273">
        <ele>508.3</ele>
        <time>2021-03-21T06:33:56Z</time>
      </trkpt>
      <trkpt lat="43.06112" lon="2.45268">
        <ele>508.6</ele>
        <time>2021-03-21T06:33:57Z</time>
      </trkpt>
      <trkpt lat="43.06116" lon="2.4526">
        <ele>509</ele>
        <time>2021-03-21T06:33:59Z</time>
      </trkpt>
      <trkpt lat="43.06117" lon="2.45252">
        <ele>509.4</ele>
        <time>2021-03-21T06:34:00Z</time>
      </trkpt>
      <trkpt lat="43.06117" lon="2.45246">
        <ele>509.6</ele>
        <time>2021-03-21T06:34:01Z</time>
      </trkpt>
      <trkpt lat="43.06115" lon="2.45238">
        <ele>510</ele>
        <time>2021-03-21T06:34:03Z</time>
      </trkpt>
      <trkpt lat="43.06112" lon="2.45231">
        <ele>510.3</ele>
        <time>2021-03-21T06:34:04Z</time>
      </trkpt>
      <trkpt lat="43.0611" lon="2.45226">
        <ele>510.6</ele>
        <time>2021-03-21T06:34:05Z</time>
      </trkpt>
      <trkpt lat="43.06105" lon="2.45216">
        <ele>511.1</ele>
        <time>2021-03-21T06:34:07Z</time>
      </trkpt>
      <trkpt lat="43.06101" lon="2.45209">
        <ele>511.5</ele>
        <time>2021-03-21T06:34:09Z</time>
      </trkpt>
      <trkpt lat="43.06098" lon="2.45202">
        <ele>511.9</ele>
        <time>2021-03-21T06:34:10Z</time>
      </trkpt>
      <trkpt lat="43.06097" lon="2.45197">
        <ele>512.1</ele>
        <time>2021-03-21T06:34:11Z</time>
      </trkpt>
      <trkpt lat="43.06094" lon="2.45191">
        <ele>512.5</ele>
        <time>2021-03-21T06:34:13Z</time>
      </trkpt>
      <trkpt lat="43.06093" lon="2.45186">
        <ele>512.7</ele>
        <time>2021-03-21T06:34:14Z</time>
      </trkpt>
      <trkpt lat="43.06091" lon="2.4518">
        <ele>513</ele>
        <time>2021-03-21T06:34:15Z</time>
      </trkpt>
      <trkpt lat="43.0609" lon="2.45176">
        <ele>513.2</ele>
        <time>2021-03-21T06:34:16Z</time>
      </trkpt>
      <trkpt lat="43.06088" lon="2.45171">
        <ele>513.4</ele>
        <time>2021-03-21T06:34:17Z</time>
      </trkpt>
      <trkpt lat="43.06086" lon="2.45166">
        <ele>513.6</ele>
        <time>2021-03-21T06:34:18Z</time>
      </trkpt>
      <trkpt lat="43.06082" lon="2.45159">
        <ele>513.9</ele>
        <time>2021-03-21T06:34:20Z</time>
      </trkpt>
      <trkpt lat="43.0608" lon="2.45154">
        <ele>514.1</ele>
        <time>2021-03-21T06:34:21Z</time>
      </trkpt>
      <trkpt lat="43.06076" lon="2.45148">
        <ele>514.3</ele>
        <time>2021-03-21T06:34:22Z</time>
      </trkpt>
      <trkpt lat="43.06073" lon="2.4514">
        <ele>514.5</ele>
        <time>2021-03-21T06:34:24Z</time>
      </trkpt>
      <trkpt lat="43.0607" lon="2.45134">
        <ele>514.7</ele>
        <time>2021-03-21T06:34:25Z</time>
      </trkpt>
      <trkpt lat="43.06067" lon="2.45128">
        <ele>514.9</ele>
        <time>2021-03-21T06:34:26Z</time>
      </trkpt>
      <trkpt lat="43.06063" lon="2.45121">
        <ele>515.1</ele>
        <time>2021-03-21T06:34:28Z</time>
      </trkpt>
      <trkpt lat="43.06058" lon="2.45115">
        <ele>515.3</ele>
        <time>2021-03-21T06:34:29Z</time>
      </trkpt>
      <trkpt lat="43.06055" lon="2.45111">
        <ele>515.5</ele>
        <time>2021-03-21T06:34:30Z</time>
      </trkpt>
      <trkpt lat="43.06051" lon="2.45107">
        <ele>515.7</ele>
        <time>2021-03-21T06:34:31Z</time>
      </trkpt>
      <trkpt lat="43.06047" lon="2.451">
        <ele>515.9</ele>
        <time>2021-03-21T06:34:33Z</time>
      </trkpt>
      <trkpt lat="43.06044" lon="2.45094">
        <ele>516.1</ele>
        <time>2021-03-21T06:34:34Z</time>
      </trkpt>
      <trkpt lat="43.06042" lon="2.45088">
        <ele>516.2</ele>
        <time>2021-03-21T06:34:35Z</time>
      </trkpt>
      <trkpt lat="43.06041" lon="2.45082">
        <ele>516.4</ele>
        <time>2021-03-21T06:34:36Z</time>
      </trkpt>
      <trkpt lat="43.0604" lon="2.45075">
        <ele>516.5</ele>
        <time>2021-03-21T06:34:38Z</time>
      </trkpt>
      <trkpt lat="43.06039" lon="2.45067">
        <ele>516.7</ele>
        <time>2021-03-21T06:34:39Z</time>
      </trkpt>
      <trkpt lat="43.06038" lon="2.45059">
        <ele>516.8</ele>
        <time>2021-03-21T06:34:41Z</time>
      </trkpt>
      <trkpt lat="43.06037" lon="2.45053">
        <ele>516.9</ele>
        <time>2021-03-21T06:34:42Z</time>
      </trkpt>
      <trkpt lat="43.06038" lon="2.45045">
        <ele>517.1</ele>
        <time>2021-03-21T06:34:43Z</time>
      </trkpt>
      <trkpt lat="43.06039" lon="2.45038">
        <ele>517.2</ele>
        <time>2021-03-21T06:34:45Z</time>
      </trkpt>
      <trkpt lat="43.0604" lon="2.45031">
        <ele>517.3</ele>
        <time>2021-03-21T06:34:46Z</time>
      </trkpt>
      <trkpt lat="43.06043" lon="2.45024">
        <ele>517.4</ele>
        <time>2021-03-21T06:34:48Z</time>
      </trkpt>
      <trkpt lat="43.06045" lon="2.45016">
        <ele>517.5</ele>
        <time>2021-03-21T06:34:49Z</time>
      </trkpt>
      <trkpt lat="43.06047" lon="2.45008">
        <ele>517.6</ele>
        <time>2021-03-21T06:34:50Z</time>
      </trkpt>
      <trkpt lat="43.0605" lon="2.45">
        <ele>517.8</ele>
        <time>2021-03-21T06:34:52Z</time>
      </trkpt>
      <trkpt lat="43.06051" lon="2.44991">
        <ele>517.9</ele>
        <time>2021-03-21T06:34:53Z</time>
      </trkpt>
      <trkpt lat="43.06052" lon="2.44987">
        <ele>517.9</ele>
        <time>2021-03-21T06:34:54Z</time>
      </trkpt>
      <trkpt lat="43.06052" lon="2.44974">
        <ele>518.1</ele>
        <time>2021-03-21T06:34:56Z</time>
      </trkpt>
      <trkpt lat="43.06051" lon="2.4497">
        <ele>518.1</ele>
        <time>2021-03-21T06:34:57Z</time>
      </trkpt>
      <trkpt lat="43.0605" lon="2.44964">
        <ele>518.2</ele>
        <time>2021-03-21T06:34:59Z</time>
      </trkpt>
      <trkpt lat="43.0605" lon="2.44958">
        <ele>518.3</ele>
        <time>2021-03-21T06:35:00Z</time>
      </trkpt>
      <trkpt lat="43.0605" lon="2.44951">
        <ele>518.4</ele>
        <time>2021-03-21T06:35:01Z</time>
      </trkpt>
      <trkpt lat="43.06049" lon="2.44942">
        <ele>518.5</ele>
        <time>2021-03-21T06:35:02Z</time>
      </trkpt>
      <trkpt lat="43.06048" lon="2.44937">
        <ele>518.6</ele>
        <time>2021-03-21T06:35:03Z</time>
      </trkpt>
      <trkpt lat="43.06047" lon="2.44931">
        <ele>518.7</ele>
        <time>2021-03-21T06:35:04Z</time>
      </trkpt>
      <trkpt lat="43.06047" lon="2.44924">
        <ele>518.7</ele>
        <time>2021-03-21T06:35:05Z</time>
      </trkpt>
      <trkpt lat="43.06046" lon="2.44916">
        <ele>518.8</ele>
        <time>2021-03-21T06:35:07Z</time>
      </trkpt>
      <trkpt lat="43.06046" lon="2.44909">
        <ele>518.9</ele>
        <time>2021-03-21T06:35:08Z</time>
      </trkpt>
      <trkpt lat="43.06045" lon="2.44902">
        <ele>518.9</ele>
        <time>2021-03-21T06:35:09Z</time>
      </trkpt>
      <trkpt lat="43.06044" lon="2.44893">
        <ele>519</ele>
        <time>2021-03-21T06:35:10Z</time>
      </trkpt>
      <trkpt lat="43.06043" lon="2.44879">
        <ele>519.1</ele>
        <time>2021-03-21T06:35:12Z</time>
      </trkpt>
      <trkpt lat="43.06043" lon="2.44873">
        <ele>519.1</ele>
        <time>2021-03-21T06:35:13Z</time>
      </trkpt>
      <trkpt lat="43.06042" lon="2.4486">
        <ele>519.2</ele>
        <time>2021-03-21T06:35:15Z</time>
      </trkpt>
      <trkpt lat="43.0604" lon="2.44847">
        <ele>519.3</ele>
        <time>2021-03-21T06:35:17Z</time>
      </trkpt>
      <trkpt lat="43.06039" lon="2.44841">
        <ele>519.3</ele>
        <time>2021-03-21T06:35:18Z</time>
      </trkpt>
      <trkpt lat="43.06038" lon="2.44835">
        <ele>519.4</ele>
        <time>2021-03-21T06:35:19Z</time>
      </trkpt>
      <trkpt lat="43.06036" lon="2.44823">
        <ele>519.5</ele>
        <time>2021-03-21T06:35:21Z</time>
      </trkpt>
      <trkpt lat="43.06035" lon="2.44817">
        <ele>519.6</ele>
        <time>2021-03-21T06:35:22Z</time>
      </trkpt>
      <trkpt lat="43.06033" lon="2.44811">
        <ele>519.7</ele>
        <time>2021-03-21T06:35:23Z</time>
      </trkpt>
      <trkpt lat="43.06032" lon="2.44805">
        <ele>519.8</ele>
        <time>2021-03-21T06:35:24Z</time>
      </trkpt>
      <trkpt lat="43.0603" lon="2.44792">
        <ele>520.1</ele>
        <time>2021-03-21T06:35:26Z</time>
      </trkpt>
      <trkpt lat="43.0603" lon="2.4478">
        <ele>520.5</ele>
        <time>2021-03-21T06:35:28Z</time>
      </trkpt>
      <trkpt lat="43.06032" lon="2.4477">
        <ele>520.9</ele>
        <time>2021-03-21T06:35:30Z</time>
      </trkpt>
      <trkpt lat="43.06034" lon="2.44758">
        <ele>521.3</ele>
        <time>2021-03-21T06:35:32Z</time>
      </trkpt>
      <trkpt lat="43.06036" lon="2.44746">
        <ele>521.9</ele>
        <time>2021-03-21T06:35:34Z</time>
      </trkpt>
      <trkpt lat="43.06039" lon="2.44733">
        <ele>522.5</ele>
        <time>2021-03-21T06:35:36Z</time>
      </trkpt>
      <trkpt lat="43.0604" lon="2.44727">
        <ele>522.9</ele>
        <time>2021-03-21T06:35:37Z</time>
      </trkpt>
      <trkpt lat="43.06041" lon="2.44714">
        <ele>523.6</ele>
        <time>2021-03-21T06:35:39Z</time>
      </trkpt>
      <trkpt lat="43.06044" lon="2.44707">
        <ele>524</ele>
        <time>2021-03-21T06:35:41Z</time>
      </trkpt>
      <trkpt lat="43.06045" lon="2.44701">
        <ele>524.3</ele>
        <time>2021-03-21T06:35:42Z</time>
      </trkpt>
      <trkpt lat="43.06045" lon="2.44694">
        <ele>524.6</ele>
        <time>2021-03-21T06:35:43Z</time>
      </trkpt>
      <trkpt lat="43.06046" lon="2.44687">
        <ele>524.9</ele>
        <time>2021-03-21T06:35:45Z</time>
      </trkpt>
      <trkpt lat="43.06046" lon="2.44679">
        <ele>525.3</ele>
        <time>2021-03-21T06:35:46Z</time>
      </trkpt>
      <trkpt lat="43.06047" lon="2.44673">
        <ele>525.6</ele>
        <time>2021-03-21T06:35:47Z</time>
      </trkpt>
      <trkpt lat="43.06047" lon="2.44667">
        <ele>525.8</ele>
        <time>2021-03-21T06:35:48Z</time>
      </trkpt>
      <trkpt lat="43.06049" lon="2.44658">
        <ele>526.2</ele>
        <time>2021-03-21T06:35:50Z</time>
      </trkpt>
      <trkpt lat="43.06051" lon="2.44653">
        <ele>526.4</ele>
        <time>2021-03-21T06:35:51Z</time>
      </trkpt>
      <trkpt lat="43.06053" lon="2.44647">
        <ele>526.7</ele>
        <time>2021-03-21T06:35:52Z</time>
      </trkpt>
      <trkpt lat="43.06055" lon="2.44642">
        <ele>527</ele>
        <time>2021-03-21T06:35:53Z</time>
      </trkpt>
      <trkpt lat="43.0606" lon="2.44635">
        <ele>527.4</ele>
        <time>2021-03-21T06:35:55Z</time>
      </trkpt>
      <trkpt lat="43.06063" lon="2.4463">
        <ele>527.6</ele>
        <time>2021-03-21T06:35:56Z</time>
      </trkpt>
      <trkpt lat="43.06066" lon="2.44626">
        <ele>527.9</ele>
        <time>2021-03-21T06:35:57Z</time>
      </trkpt>
      <trkpt lat="43.06069" lon="2.44623">
        <ele>528.1</ele>
        <time>2021-03-21T06:35:58Z</time>
      </trkpt>
      <trkpt lat="43.06071" lon="2.44618">
        <ele>528.3</ele>
        <time>2021-03-21T06:35:59Z</time>
      </trkpt>
      <trkpt lat="43.06074" lon="2.44613">
        <ele>528.5</ele>
        <time>2021-03-21T06:36:00Z</time>
      </trkpt>
      <trkpt lat="43.06077" lon="2.44607">
        <ele>528.8</ele>
        <time>2021-03-21T06:36:02Z</time>
      </trkpt>
      <trkpt lat="43.06079" lon="2.446">
        <ele>529.1</ele>
        <time>2021-03-21T06:36:03Z</time>
      </trkpt>
      <trkpt lat="43.06081" lon="2.44594">
        <ele>529.4</ele>
        <time>2021-03-21T06:36:04Z</time>
      </trkpt>
      <trkpt lat="43.06083" lon="2.44589">
        <ele>529.6</ele>
        <time>2021-03-21T06:36:05Z</time>
      </trkpt>
      <trkpt lat="43.06084" lon="2.44583">
        <ele>529.9</ele>
        <time>2021-03-21T06:36:06Z</time>
      </trkpt>
      <trkpt lat="43.06085" lon="2.44576">
        <ele>530.2</ele>
        <time>2021-03-21T06:36:08Z</time>
      </trkpt>
      <trkpt lat="43.06085" lon="2.44569">
        <ele>530.5</ele>
        <time>2021-03-21T06:36:09Z</time>
      </trkpt>
      <trkpt lat="43.06084" lon="2.44563">
        <ele>530.8</ele>
        <time>2021-03-21T06:36:10Z</time>
      </trkpt>
      <trkpt lat="43.06083" lon="2.44556">
        <ele>531.1</ele>
        <time>2021-03-21T06:36:12Z</time>
      </trkpt>
      <trkpt lat="43.06083" lon="2.4455">
        <ele>531.3</ele>
        <time>2021-03-21T06:36:13Z</time>
      </trkpt>
      <trkpt lat="43.06082" lon="2.44543">
        <ele>531.6</ele>
        <time>2021-03-21T06:36:14Z</time>
      </trkpt>
      <trkpt lat="43.06081" lon="2.44536">
        <ele>531.9</ele>
        <time>2021-03-21T06:36:16Z</time>
      </trkpt>
      <trkpt lat="43.06081" lon="2.44531">
        <ele>532.1</ele>
        <time>2021-03-21T06:36:17Z</time>
      </trkpt>
      <trkpt lat="43.0608" lon="2.44525">
        <ele>532.3</ele>
        <time>2021-03-21T06:36:18Z</time>
      </trkpt>
      <trkpt lat="43.0608" lon="2.4452">
        <ele>532.5</ele>
        <time>2021-03-21T06:36:19Z</time>
      </trkpt>
      <trkpt lat="43.06079" lon="2.44514">
        <ele>532.8</ele>
        <time>2021-03-21T06:36:20Z</time>
      </trkpt>
      <trkpt lat="43.06079" lon="2.44508">
        <ele>533</ele>
        <time>2021-03-21T06:36:21Z</time>
      </trkpt>
      <trkpt lat="43.06079" lon="2.44502">
        <ele>533.3</ele>
        <time>2021-03-21T06:36:22Z</time>
      </trkpt>
      <trkpt lat="43.0608" lon="2.44494">
        <ele>533.6</ele>
        <time>2021-03-21T06:36:24Z</time>
      </trkpt>
      <trkpt lat="43.0608" lon="2.44487">
        <ele>533.9</ele>
        <time>2021-03-21T06:36:25Z</time>
      </trkpt>
      <trkpt lat="43.06081" lon="2.44479">
        <ele>534.2</ele>
        <time>2021-03-21T06:36:26Z</time>
      </trkpt>
      <trkpt lat="43.06082" lon="2.44472">
        <ele>534.5</ele>
        <time>2021-03-21T06:36:28Z</time>
      </trkpt>
      <trkpt lat="43.06083" lon="2.44465">
        <ele>534.8</ele>
        <time>2021-03-21T06:36:29Z</time>
      </trkpt>
      <trkpt lat="43.06085" lon="2.44457">
        <ele>535.1</ele>
        <time>2021-03-21T06:36:30Z</time>
      </trkpt>
      <trkpt lat="43.06086" lon="2.44451">
        <ele>535.4</ele>
        <time>2021-03-21T06:36:31Z</time>
      </trkpt>
      <trkpt lat="43.06088" lon="2.44442">
        <ele>535.8</ele>
        <time>2021-03-21T06:36:33Z</time>
      </trkpt>
      <trkpt lat="43.06089" lon="2.44435">
        <ele>536</ele>
        <time>2021-03-21T06:36:34Z</time>
      </trkpt>
      <trkpt lat="43.0609" lon="2.4443">
        <ele>536.2</ele>
        <time>2021-03-21T06:36:35Z</time>
      </trkpt>
      <trkpt lat="43.06092" lon="2.4442">
        <ele>536.6</ele>
        <time>2021-03-21T06:36:37Z</time>
      </trkpt>
      <trkpt lat="43.06095" lon="2.44411">
        <ele>537</ele>
        <time>2021-03-21T06:36:39Z</time>
      </trkpt>
      <trkpt lat="43.06098" lon="2.44403">
        <ele>537.4</ele>
        <time>2021-03-21T06:36:41Z</time>
      </trkpt>
      <trkpt lat="43.06099" lon="2.44398">
        <ele>537.6</ele>
        <time>2021-03-21T06:36:42Z</time>
      </trkpt>
      <trkpt lat="43.061" lon="2.4439">
        <ele>537.9</ele>
        <time>2021-03-21T06:36:43Z</time>
      </trkpt>
      <trkpt lat="43.06102" lon="2.44384">
        <ele>538.2</ele>
        <time>2021-03-21T06:36:44Z</time>
      </trkpt>
      <trkpt lat="43.06104" lon="2.44379">
        <ele>538.4</ele>
        <time>2021-03-21T06:36:45Z</time>
      </trkpt>
      <trkpt lat="43.06106" lon="2.44375">
        <ele>538.7</ele>
        <time>2021-03-21T06:36:46Z</time>
      </trkpt>
      <trkpt lat="43.06109" lon="2.44369">
        <ele>539</ele>
        <time>2021-03-21T06:36:48Z</time>
      </trkpt>
      <trkpt lat="43.06112" lon="2.44363">
        <ele>539.3</ele>
        <time>2021-03-21T06:36:49Z</time>
      </trkpt>
      <trkpt lat="43.06115" lon="2.44358">
        <ele>539.5</ele>
        <time>2021-03-21T06:36:50Z</time>
      </trkpt>
      <trkpt lat="43.06117" lon="2.44353">
        <ele>539.8</ele>
        <time>2021-03-21T06:36:51Z</time>
      </trkpt>
      <trkpt lat="43.06121" lon="2.44345">
        <ele>540.2</ele>
        <time>2021-03-21T06:36:53Z</time>
      </trkpt>
      <trkpt lat="43.06125" lon="2.44338">
        <ele>540.6</ele>
        <time>2021-03-21T06:36:55Z</time>
      </trkpt>
      <trkpt lat="43.06127" lon="2.44333">
        <ele>540.9</ele>
        <time>2021-03-21T06:36:56Z</time>
      </trkpt>
      <trkpt lat="43.0613" lon="2.44328">
        <ele>541.1</ele>
        <time>2021-03-21T06:36:57Z</time>
      </trkpt>
      <trkpt lat="43.06133" lon="2.44323">
        <ele>541.5</ele>
        <time>2021-03-21T06:36:58Z</time>
      </trkpt>
      <trkpt lat="43.06135" lon="2.44319">
        <ele>541.7</ele>
        <time>2021-03-21T06:36:59Z</time>
      </trkpt>
      <trkpt lat="43.06139" lon="2.44313">
        <ele>542</ele>
        <time>2021-03-21T06:37:01Z</time>
      </trkpt>
      <trkpt lat="43.06142" lon="2.44308">
        <ele>542.3</ele>
        <time>2021-03-21T06:37:02Z</time>
      </trkpt>
      <trkpt lat="43.06144" lon="2.44304">
        <ele>542.5</ele>
        <time>2021-03-21T06:37:03Z</time>
      </trkpt>
      <trkpt lat="43.06146" lon="2.44298">
        <ele>542.7</ele>
        <time>2021-03-21T06:37:04Z</time>
      </trkpt>
      <trkpt lat="43.06148" lon="2.44294">
        <ele>542.9</ele>
        <time>2021-03-21T06:37:05Z</time>
      </trkpt>
      <trkpt lat="43.06151" lon="2.44288">
        <ele>543.2</ele>
        <time>2021-03-21T06:37:07Z</time>
      </trkpt>
      <trkpt lat="43.06153" lon="2.44282">
        <ele>543.4</ele>
        <time>2021-03-21T06:37:08Z</time>
      </trkpt>
      <trkpt lat="43.06155" lon="2.44278">
        <ele>543.6</ele>
        <time>2021-03-21T06:37:09Z</time>
      </trkpt>
      <trkpt lat="43.06157" lon="2.44272">
        <ele>543.9</ele>
        <time>2021-03-21T06:37:10Z</time>
      </trkpt>
      <trkpt lat="43.0616" lon="2.44264">
        <ele>544.2</ele>
        <time>2021-03-21T06:37:12Z</time>
      </trkpt>
      <trkpt lat="43.06162" lon="2.44258">
        <ele>544.5</ele>
        <time>2021-03-21T06:37:14Z</time>
      </trkpt>
      <trkpt lat="43.06165" lon="2.44252">
        <ele>544.7</ele>
        <time>2021-03-21T06:37:15Z</time>
      </trkpt>
      <trkpt lat="43.06167" lon="2.44246">
        <ele>545</ele>
        <time>2021-03-21T06:37:16Z</time>
      </trkpt>
      <trkpt lat="43.0617" lon="2.4424">
        <ele>545.2</ele>
        <time>2021-03-21T06:37:18Z</time>
      </trkpt>
      <trkpt lat="43.06172" lon="2.44234">
        <ele>545.5</ele>
        <time>2021-03-21T06:37:19Z</time>
      </trkpt>
      <trkpt lat="43.06174" lon="2.44228">
        <ele>545.7</ele>
        <time>2021-03-21T06:37:20Z</time>
      </trkpt>
      <trkpt lat="43.06176" lon="2.44219">
        <ele>546.1</ele>
        <time>2021-03-21T06:37:22Z</time>
      </trkpt>
      <trkpt lat="43.06178" lon="2.44212">
        <ele>546.4</ele>
        <time>2021-03-21T06:37:23Z</time>
      </trkpt>
      <trkpt lat="43.06178" lon="2.44206">
        <ele>546.6</ele>
        <time>2021-03-21T06:37:24Z</time>
      </trkpt>
      <trkpt lat="43.06179" lon="2.44197">
        <ele>547</ele>
        <time>2021-03-21T06:37:26Z</time>
      </trkpt>
      <trkpt lat="43.0618" lon="2.4419">
        <ele>547.2</ele>
        <time>2021-03-21T06:37:27Z</time>
      </trkpt>
      <trkpt lat="43.06181" lon="2.44184">
        <ele>547.5</ele>
        <time>2021-03-21T06:37:28Z</time>
      </trkpt>
      <trkpt lat="43.06181" lon="2.44178">
        <ele>547.7</ele>
        <time>2021-03-21T06:37:29Z</time>
      </trkpt>
      <trkpt lat="43.06183" lon="2.4417">
        <ele>548</ele>
        <time>2021-03-21T06:37:31Z</time>
      </trkpt>
      <trkpt lat="43.06184" lon="2.44162">
        <ele>548.4</ele>
        <time>2021-03-21T06:37:32Z</time>
      </trkpt>
      <trkpt lat="43.06185" lon="2.44157">
        <ele>548.6</ele>
        <time>2021-03-21T06:37:33Z</time>
      </trkpt>
      <trkpt lat="43.06186" lon="2.44148">
        <ele>549</ele>
        <time>2021-03-21T06:37:35Z</time>
      </trkpt>
      <trkpt lat="43.06187" lon="2.4414">
        <ele>549.3</ele>
        <time>2021-03-21T06:37:36Z</time>
      </trkpt>
      <trkpt lat="43.06188" lon="2.44135">
        <ele>549.5</ele>
        <time>2021-03-21T06:37:37Z</time>
      </trkpt>
      <trkpt lat="43.06189" lon="2.44127">
        <ele>549.9</ele>
        <time>2021-03-21T06:37:39Z</time>
      </trkpt>
      <trkpt lat="43.06191" lon="2.4412">
        <ele>550.1</ele>
        <time>2021-03-21T06:37:40Z</time>
      </trkpt>
      <trkpt lat="43.06192" lon="2.44114">
        <ele>550.4</ele>
        <time>2021-03-21T06:37:41Z</time>
      </trkpt>
      <trkpt lat="43.06193" lon="2.44108">
        <ele>550.7</ele>
        <time>2021-03-21T06:37:42Z</time>
      </trkpt>
      <trkpt lat="43.06194" lon="2.44102">
        <ele>551</ele>
        <time>2021-03-21T06:37:43Z</time>
      </trkpt>
      <trkpt lat="43.06195" lon="2.44093">
        <ele>551.5</ele>
        <time>2021-03-21T06:37:45Z</time>
      </trkpt>
      <trkpt lat="43.06196" lon="2.44086">
        <ele>551.9</ele>
        <time>2021-03-21T06:37:46Z</time>
      </trkpt>
      <trkpt lat="43.06196" lon="2.44079">
        <ele>552.2</ele>
        <time>2021-03-21T06:37:47Z</time>
      </trkpt>
      <trkpt lat="43.06196" lon="2.44073">
        <ele>552.4</ele>
        <time>2021-03-21T06:37:48Z</time>
      </trkpt>
      <trkpt lat="43.06197" lon="2.44068">
        <ele>552.4</ele>
        <time>2021-03-21T06:37:49Z</time>
      </trkpt>
      <trkpt lat="43.06198" lon="2.44062">
        <ele>552.3</ele>
        <time>2021-03-21T06:37:50Z</time>
      </trkpt>
      <trkpt lat="43.062" lon="2.44051">
        <ele>552.1</ele>
        <time>2021-03-21T06:37:52Z</time>
      </trkpt>
      <trkpt lat="43.06202" lon="2.44042">
        <ele>552</ele>
        <time>2021-03-21T06:37:53Z</time>
      </trkpt>
      <trkpt lat="43.06203" lon="2.44036">
        <ele>551.8</ele>
        <time>2021-03-21T06:37:54Z</time>
      </trkpt>
      <trkpt lat="43.06204" lon="2.44029">
        <ele>551.6</ele>
        <time>2021-03-21T06:37:55Z</time>
      </trkpt>
      <trkpt lat="43.06205" lon="2.44023">
        <ele>551.5</ele>
        <time>2021-03-21T06:37:56Z</time>
      </trkpt>
      <trkpt lat="43.06206" lon="2.44016">
        <ele>551.3</ele>
        <time>2021-03-21T06:37:57Z</time>
      </trkpt>
      <trkpt lat="43.06208" lon="2.44001">
        <ele>550.7</ele>
        <time>2021-03-21T06:37:59Z</time>
      </trkpt>
      <trkpt lat="43.06208" lon="2.43983">
        <ele>550.2</ele>
        <time>2021-03-21T06:38:01Z</time>
      </trkpt>
      <trkpt lat="43.06206" lon="2.43965">
        <ele>549.6</ele>
        <time>2021-03-21T06:38:03Z</time>
      </trkpt>
      <trkpt lat="43.06202" lon="2.43945">
        <ele>548.9</ele>
        <time>2021-03-21T06:38:05Z</time>
      </trkpt>
      <trkpt lat="43.06198" lon="2.43927">
        <ele>548.3</ele>
        <time>2021-03-21T06:38:07Z</time>
      </trkpt>
      <trkpt lat="43.06194" lon="2.43909">
        <ele>547.8</ele>
        <time>2021-03-21T06:38:09Z</time>
      </trkpt>
      <trkpt lat="43.0619" lon="2.43892">
        <ele>547.3</ele>
        <time>2021-03-21T06:38:11Z</time>
      </trkpt>
      <trkpt lat="43.06189" lon="2.43882">
        <ele>547.1</ele>
        <time>2021-03-21T06:38:12Z</time>
      </trkpt>
      <trkpt lat="43.06187" lon="2.43862">
        <ele>546.7</ele>
        <time>2021-03-21T06:38:14Z</time>
      </trkpt>
      <trkpt lat="43.06186" lon="2.43843">
        <ele>546.4</ele>
        <time>2021-03-21T06:38:16Z</time>
      </trkpt>
      <trkpt lat="43.06186" lon="2.43834">
        <ele>546.3</ele>
        <time>2021-03-21T06:38:17Z</time>
      </trkpt>
      <trkpt lat="43.06186" lon="2.43825">
        <ele>546.1</ele>
        <time>2021-03-21T06:38:18Z</time>
      </trkpt>
      <trkpt lat="43.06186" lon="2.43805">
        <ele>545.9</ele>
        <time>2021-03-21T06:38:20Z</time>
      </trkpt>
      <trkpt lat="43.06185" lon="2.43786">
        <ele>545.7</ele>
        <time>2021-03-21T06:38:22Z</time>
      </trkpt>
      <trkpt lat="43.06184" lon="2.43777">
        <ele>545.6</ele>
        <time>2021-03-21T06:38:23Z</time>
      </trkpt>
      <trkpt lat="43.06182" lon="2.43767">
        <ele>545.5</ele>
        <time>2021-03-21T06:38:24Z</time>
      </trkpt>
      <trkpt lat="43.06177" lon="2.43748">
        <ele>545.1</ele>
        <time>2021-03-21T06:38:26Z</time>
      </trkpt>
      <trkpt lat="43.06172" lon="2.43728">
        <ele>544.8</ele>
        <time>2021-03-21T06:38:28Z</time>
      </trkpt>
      <trkpt lat="43.06168" lon="2.43709">
        <ele>544.5</ele>
        <time>2021-03-21T06:38:30Z</time>
      </trkpt>
      <trkpt lat="43.06165" lon="2.43699">
        <ele>544.3</ele>
        <time>2021-03-21T06:38:31Z</time>
      </trkpt>
      <trkpt lat="43.06158" lon="2.43682">
        <ele>544.1</ele>
        <time>2021-03-21T06:38:33Z</time>
      </trkpt>
      <trkpt lat="43.0615" lon="2.43667">
        <ele>543.9</ele>
        <time>2021-03-21T06:38:35Z</time>
      </trkpt>
      <trkpt lat="43.06143" lon="2.4365">
        <ele>543.7</ele>
        <time>2021-03-21T06:38:37Z</time>
      </trkpt>
      <trkpt lat="43.06141" lon="2.43631">
        <ele>543.6</ele>
        <time>2021-03-21T06:38:39Z</time>
      </trkpt>
      <trkpt lat="43.06142" lon="2.43621">
        <ele>543.5</ele>
        <time>2021-03-21T06:38:40Z</time>
      </trkpt>
      <trkpt lat="43.06147" lon="2.43601">
        <ele>543.4</ele>
        <time>2021-03-21T06:38:42Z</time>
      </trkpt>
      <trkpt lat="43.06154" lon="2.43582">
        <ele>543.4</ele>
        <time>2021-03-21T06:38:44Z</time>
      </trkpt>
      <trkpt lat="43.06158" lon="2.43573">
        <ele>543.4</ele>
        <time>2021-03-21T06:38:45Z</time>
      </trkpt>
      <trkpt lat="43.06162" lon="2.43555">
        <ele>543.4</ele>
        <time>2021-03-21T06:38:47Z</time>
      </trkpt>
      <trkpt lat="43.06162" lon="2.43545">
        <ele>543.4</ele>
        <time>2021-03-21T06:38:48Z</time>
      </trkpt>
      <trkpt lat="43.06158" lon="2.43536">
        <ele>543.3</ele>
        <time>2021-03-21T06:38:49Z</time>
      </trkpt>
      <trkpt lat="43.06151" lon="2.4353">
        <ele>543.1</ele>
        <time>2021-03-21T06:38:50Z</time>
      </trkpt>
      <trkpt lat="43.06143" lon="2.43528">
        <ele>542.8</ele>
        <time>2021-03-21T06:38:51Z</time>
      </trkpt>
      <trkpt lat="43.06134" lon="2.43532">
        <ele>542.5</ele>
        <time>2021-03-21T06:38:52Z</time>
      </trkpt>
      <trkpt lat="43.06127" lon="2.43537">
        <ele>542.2</ele>
        <time>2021-03-21T06:38:53Z</time>
      </trkpt>
      <trkpt lat="43.06113" lon="2.43548">
        <ele>541.5</ele>
        <time>2021-03-21T06:38:55Z</time>
      </trkpt>
      <trkpt lat="43.06106" lon="2.43552">
        <ele>541.2</ele>
        <time>2021-03-21T06:38:56Z</time>
      </trkpt>
      <trkpt lat="43.06089" lon="2.43557">
        <ele>540.5</ele>
        <time>2021-03-21T06:38:58Z</time>
      </trkpt>
      <trkpt lat="43.06081" lon="2.43558">
        <ele>540.2</ele>
        <time>2021-03-21T06:38:59Z</time>
      </trkpt>
      <trkpt lat="43.06073" lon="2.43558">
        <ele>539.9</ele>
        <time>2021-03-21T06:39:00Z</time>
      </trkpt>
      <trkpt lat="43.06065" lon="2.43558">
        <ele>539.6</ele>
        <time>2021-03-21T06:39:01Z</time>
      </trkpt>
      <trkpt lat="43.06048" lon="2.43559">
        <ele>539.1</ele>
        <time>2021-03-21T06:39:03Z</time>
      </trkpt>
      <trkpt lat="43.06033" lon="2.43551">
        <ele>538.4</ele>
        <time>2021-03-21T06:39:05Z</time>
      </trkpt>
      <trkpt lat="43.06021" lon="2.43532">
        <ele>537.8</ele>
        <time>2021-03-21T06:39:07Z</time>
      </trkpt>
      <trkpt lat="43.06014" lon="2.43524">
        <ele>537.5</ele>
        <time>2021-03-21T06:39:08Z</time>
      </trkpt>
      <trkpt lat="43.05997" lon="2.43519">
        <ele>536.9</ele>
        <time>2021-03-21T06:39:10Z</time>
      </trkpt>
      <trkpt lat="43.05979" lon="2.43522">
        <ele>536.3</ele>
        <time>2021-03-21T06:39:12Z</time>
      </trkpt>
      <trkpt lat="43.05963" lon="2.43527">
        <ele>535.9</ele>
        <time>2021-03-21T06:39:14Z</time>
      </trkpt>
      <trkpt lat="43.05954" lon="2.43528">
        <ele>535.7</ele>
        <time>2021-03-21T06:39:15Z</time>
      </trkpt>
      <trkpt lat="43.05938" lon="2.43527">
        <ele>535.3</ele>
        <time>2021-03-21T06:39:17Z</time>
      </trkpt>
      <trkpt lat="43.05932" lon="2.43522">
        <ele>535.1</ele>
        <time>2021-03-21T06:39:18Z</time>
      </trkpt>
      <trkpt lat="43.05929" lon="2.43513">
        <ele>534.8</ele>
        <time>2021-03-21T06:39:19Z</time>
      </trkpt>
      <trkpt lat="43.05929" lon="2.4349">
        <ele>533.9</ele>
        <time>2021-03-21T06:39:21Z</time>
      </trkpt>
      <trkpt lat="43.05937" lon="2.43467">
        <ele>532.9</ele>
        <time>2021-03-21T06:39:23Z</time>
      </trkpt>
      <trkpt lat="43.05942" lon="2.43457">
        <ele>532.5</ele>
        <time>2021-03-21T06:39:24Z</time>
      </trkpt>
      <trkpt lat="43.05947" lon="2.43446">
        <ele>532</ele>
        <time>2021-03-21T06:39:25Z</time>
      </trkpt>
      <trkpt lat="43.05955" lon="2.43425">
        <ele>531.2</ele>
        <time>2021-03-21T06:39:27Z</time>
      </trkpt>
      <trkpt lat="43.05958" lon="2.43414">
        <ele>530.8</ele>
        <time>2021-03-21T06:39:28Z</time>
      </trkpt>
      <trkpt lat="43.05965" lon="2.43393">
        <ele>530.1</ele>
        <time>2021-03-21T06:39:30Z</time>
      </trkpt>
      <trkpt lat="43.05967" lon="2.43382">
        <ele>529.8</ele>
        <time>2021-03-21T06:39:31Z</time>
      </trkpt>
      <trkpt lat="43.05974" lon="2.43362">
        <ele>529.1</ele>
        <time>2021-03-21T06:39:33Z</time>
      </trkpt>
      <trkpt lat="43.05978" lon="2.43352">
        <ele>528.9</ele>
        <time>2021-03-21T06:39:34Z</time>
      </trkpt>
      <trkpt lat="43.0599" lon="2.43338">
        <ele>528.5</ele>
        <time>2021-03-21T06:39:36Z</time>
      </trkpt>
      <trkpt lat="43.06001" lon="2.43322">
        <ele>528.2</ele>
        <time>2021-03-21T06:39:38Z</time>
      </trkpt>
      <trkpt lat="43.06003" lon="2.43311">
        <ele>528</ele>
        <time>2021-03-21T06:39:39Z</time>
      </trkpt>
      <trkpt lat="43.05996" lon="2.43289">
        <ele>527.6</ele>
        <time>2021-03-21T06:39:41Z</time>
      </trkpt>
      <trkpt lat="43.05987" lon="2.43283">
        <ele>527.3</ele>
        <time>2021-03-21T06:39:42Z</time>
      </trkpt>
      <trkpt lat="43.05978" lon="2.43283">
        <ele>527.1</ele>
        <time>2021-03-21T06:39:43Z</time>
      </trkpt>
      <trkpt lat="43.0597" lon="2.43285">
        <ele>526.9</ele>
        <time>2021-03-21T06:39:44Z</time>
      </trkpt>
      <trkpt lat="43.05956" lon="2.43284">
        <ele>526.5</ele>
        <time>2021-03-21T06:39:46Z</time>
      </trkpt>
      <trkpt lat="43.0595" lon="2.43277">
        <ele>526.3</ele>
        <time>2021-03-21T06:39:47Z</time>
      </trkpt>
      <trkpt lat="43.05946" lon="2.43257">
        <ele>525.9</ele>
        <time>2021-03-21T06:39:49Z</time>
      </trkpt>
      <trkpt lat="43.05946" lon="2.43236">
        <ele>525.4</ele>
        <time>2021-03-21T06:39:51Z</time>
      </trkpt>
      <trkpt lat="43.0594" lon="2.43218">
        <ele>525</ele>
        <time>2021-03-21T06:39:53Z</time>
      </trkpt>
      <trkpt lat="43.05924" lon="2.43209">
        <ele>524.5</ele>
        <time>2021-03-21T06:39:55Z</time>
      </trkpt>
      <trkpt lat="43.05916" lon="2.43209">
        <ele>524.2</ele>
        <time>2021-03-21T06:39:56Z</time>
      </trkpt>
      <trkpt lat="43.05908" lon="2.43206">
        <ele>523.9</ele>
        <time>2021-03-21T06:39:57Z</time>
      </trkpt>
      <trkpt lat="43.05894" lon="2.43195">
        <ele>523.5</ele>
        <time>2021-03-21T06:39:59Z</time>
      </trkpt>
      <trkpt lat="43.05884" lon="2.43177">
        <ele>523.1</ele>
        <time>2021-03-21T06:40:01Z</time>
      </trkpt>
      <trkpt lat="43.05881" lon="2.43167">
        <ele>522.9</ele>
        <time>2021-03-21T06:40:02Z</time>
      </trkpt>
      <trkpt lat="43.05879" lon="2.43157">
        <ele>522.7</ele>
        <time>2021-03-21T06:40:03Z</time>
      </trkpt>
      <trkpt lat="43.05878" lon="2.43146">
        <ele>522.5</ele>
        <time>2021-03-21T06:40:04Z</time>
      </trkpt>
      <trkpt lat="43.05875" lon="2.43126">
        <ele>522</ele>
        <time>2021-03-21T06:40:06Z</time>
      </trkpt>
      <trkpt lat="43.0587" lon="2.43106">
        <ele>521.5</ele>
        <time>2021-03-21T06:40:08Z</time>
      </trkpt>
      <trkpt lat="43.05865" lon="2.43096">
        <ele>521.3</ele>
        <time>2021-03-21T06:40:09Z</time>
      </trkpt>
      <trkpt lat="43.05859" lon="2.43088">
        <ele>521</ele>
        <time>2021-03-21T06:40:10Z</time>
      </trkpt>
      <trkpt lat="43.05846" lon="2.43072">
        <ele>520.6</ele>
        <time>2021-03-21T06:40:12Z</time>
      </trkpt>
      <trkpt lat="43.0584" lon="2.43064">
        <ele>520.3</ele>
        <time>2021-03-21T06:40:13Z</time>
      </trkpt>
      <trkpt lat="43.05834" lon="2.43056">
        <ele>520</ele>
        <time>2021-03-21T06:40:14Z</time>
      </trkpt>
      <trkpt lat="43.05829" lon="2.43047">
        <ele>519.8</ele>
        <time>2021-03-21T06:40:15Z</time>
      </trkpt>
      <trkpt lat="43.0582" lon="2.43028">
        <ele>519.3</ele>
        <time>2021-03-21T06:40:17Z</time>
      </trkpt>
      <trkpt lat="43.05816" lon="2.43018">
        <ele>519</ele>
        <time>2021-03-21T06:40:18Z</time>
      </trkpt>
      <trkpt lat="43.05815" lon="2.42996">
        <ele>518.5</ele>
        <time>2021-03-21T06:40:20Z</time>
      </trkpt>
      <trkpt lat="43.05817" lon="2.42984">
        <ele>518.2</ele>
        <time>2021-03-21T06:40:21Z</time>
      </trkpt>
      <trkpt lat="43.05821" lon="2.42962">
        <ele>517.7</ele>
        <time>2021-03-21T06:40:23Z</time>
      </trkpt>
      <trkpt lat="43.05821" lon="2.42952">
        <ele>517.5</ele>
        <time>2021-03-21T06:40:24Z</time>
      </trkpt>
      <trkpt lat="43.05822" lon="2.42931">
        <ele>517.1</ele>
        <time>2021-03-21T06:40:26Z</time>
      </trkpt>
      <trkpt lat="43.05822" lon="2.42921">
        <ele>516.9</ele>
        <time>2021-03-21T06:40:27Z</time>
      </trkpt>
      <trkpt lat="43.05822" lon="2.429">
        <ele>516.5</ele>
        <time>2021-03-21T06:40:29Z</time>
      </trkpt>
      <trkpt lat="43.0582" lon="2.4289">
        <ele>516.3</ele>
        <time>2021-03-21T06:40:30Z</time>
      </trkpt>
      <trkpt lat="43.05817" lon="2.4288">
        <ele>516</ele>
        <time>2021-03-21T06:40:31Z</time>
      </trkpt>
      <trkpt lat="43.05806" lon="2.42864">
        <ele>515.6</ele>
        <time>2021-03-21T06:40:33Z</time>
      </trkpt>
      <trkpt lat="43.05798" lon="2.42859">
        <ele>515.3</ele>
        <time>2021-03-21T06:40:34Z</time>
      </trkpt>
      <trkpt lat="43.0579" lon="2.42855">
        <ele>515.1</ele>
        <time>2021-03-21T06:40:35Z</time>
      </trkpt>
      <trkpt lat="43.05782" lon="2.42851">
        <ele>514.9</ele>
        <time>2021-03-21T06:40:36Z</time>
      </trkpt>
      <trkpt lat="43.05774" lon="2.42848">
        <ele>514.7</ele>
        <time>2021-03-21T06:40:37Z</time>
      </trkpt>
      <trkpt lat="43.05758" lon="2.42843">
        <ele>514.2</ele>
        <time>2021-03-21T06:40:39Z</time>
      </trkpt>
      <trkpt lat="43.05741" lon="2.42842">
        <ele>513.7</ele>
        <time>2021-03-21T06:40:41Z</time>
      </trkpt>
      <trkpt lat="43.05732" lon="2.42842">
        <ele>513.5</ele>
        <time>2021-03-21T06:40:42Z</time>
      </trkpt>
      <trkpt lat="43.05724" lon="2.42843">
        <ele>513.2</ele>
        <time>2021-03-21T06:40:43Z</time>
      </trkpt>
      <trkpt lat="43.05708" lon="2.42845">
        <ele>512.7</ele>
        <time>2021-03-21T06:40:45Z</time>
      </trkpt>
      <trkpt lat="43.05692" lon="2.42847">
        <ele>512.2</ele>
        <time>2021-03-21T06:40:47Z</time>
      </trkpt>
      <trkpt lat="43.05684" lon="2.42848">
        <ele>511.9</ele>
        <time>2021-03-21T06:40:48Z</time>
      </trkpt>
      <trkpt lat="43.05676" lon="2.42848">
        <ele>511.6</ele>
        <time>2021-03-21T06:40:49Z</time>
      </trkpt>
      <trkpt lat="43.05659" lon="2.42849">
        <ele>510.9</ele>
        <time>2021-03-21T06:40:51Z</time>
      </trkpt>
      <trkpt lat="43.05643" lon="2.4285">
        <ele>510.3</ele>
        <time>2021-03-21T06:40:53Z</time>
      </trkpt>
      <trkpt lat="43.05635" lon="2.42849">
        <ele>510.1</ele>
        <time>2021-03-21T06:40:54Z</time>
      </trkpt>
      <trkpt lat="43.05626" lon="2.42849">
        <ele>509.9</ele>
        <time>2021-03-21T06:40:55Z</time>
      </trkpt>
      <trkpt lat="43.05609" lon="2.42846">
        <ele>509.6</ele>
        <time>2021-03-21T06:40:57Z</time>
      </trkpt>
      <trkpt lat="43.056" lon="2.42844">
        <ele>509.5</ele>
        <time>2021-03-21T06:40:58Z</time>
      </trkpt>
      <trkpt lat="43.05585" lon="2.42849">
        <ele>509.1</ele>
        <time>2021-03-21T06:41:00Z</time>
      </trkpt>
      <trkpt lat="43.05572" lon="2.42865">
        <ele>508.5</ele>
        <time>2021-03-21T06:41:02Z</time>
      </trkpt>
      <trkpt lat="43.05567" lon="2.42876">
        <ele>508.2</ele>
        <time>2021-03-21T06:41:03Z</time>
      </trkpt>
      <trkpt lat="43.0556" lon="2.42901">
        <ele>507.6</ele>
        <time>2021-03-21T06:41:05Z</time>
      </trkpt>
      <trkpt lat="43.05559" lon="2.42914">
        <ele>507.2</ele>
        <time>2021-03-21T06:41:06Z</time>
      </trkpt>
      <trkpt lat="43.05565" lon="2.4294">
        <ele>506.3</ele>
        <time>2021-03-21T06:41:08Z</time>
      </trkpt>
      <trkpt lat="43.0557" lon="2.42952">
        <ele>505.8</ele>
        <time>2021-03-21T06:41:09Z</time>
      </trkpt>
      <trkpt lat="43.05579" lon="2.42977">
        <ele>505</ele>
        <time>2021-03-21T06:41:11Z</time>
      </trkpt>
      <trkpt lat="43.05583" lon="2.42989">
        <ele>504.6</ele>
        <time>2021-03-21T06:41:12Z</time>
      </trkpt>
      <trkpt lat="43.05587" lon="2.43013">
        <ele>503.8</ele>
        <time>2021-03-21T06:41:14Z</time>
      </trkpt>
      <trkpt lat="43.05584" lon="2.43037">
        <ele>502.9</ele>
        <time>2021-03-21T06:41:16Z</time>
      </trkpt>
      <trkpt lat="43.05579" lon="2.43047">
        <ele>502.3</ele>
        <time>2021-03-21T06:41:17Z</time>
      </trkpt>
      <trkpt lat="43.05566" lon="2.43067">
        <ele>500.9</ele>
        <time>2021-03-21T06:41:19Z</time>
      </trkpt>
      <trkpt lat="43.05559" lon="2.43077">
        <ele>500.3</ele>
        <time>2021-03-21T06:41:20Z</time>
      </trkpt>
      <trkpt lat="43.05549" lon="2.43099">
        <ele>499.3</ele>
        <time>2021-03-21T06:41:22Z</time>
      </trkpt>
      <trkpt lat="43.05545" lon="2.43111">
        <ele>498.8</ele>
        <time>2021-03-21T06:41:23Z</time>
      </trkpt>
      <trkpt lat="43.05537" lon="2.43135">
        <ele>497.8</ele>
        <time>2021-03-21T06:41:25Z</time>
      </trkpt>
      <trkpt lat="43.05526" lon="2.43155">
        <ele>497</ele>
        <time>2021-03-21T06:41:27Z</time>
      </trkpt>
      <trkpt lat="43.05518" lon="2.43163">
        <ele>496.6</ele>
        <time>2021-03-21T06:41:28Z</time>
      </trkpt>
      <trkpt lat="43.05501" lon="2.43173">
        <ele>496.1</ele>
        <time>2021-03-21T06:41:30Z</time>
      </trkpt>
      <trkpt lat="43.05493" lon="2.43179">
        <ele>495.8</ele>
        <time>2021-03-21T06:41:31Z</time>
      </trkpt>
      <trkpt lat="43.05489" lon="2.43199">
        <ele>495.1</ele>
        <time>2021-03-21T06:41:33Z</time>
      </trkpt>
      <trkpt lat="43.05494" lon="2.43209">
        <ele>494.5</ele>
        <time>2021-03-21T06:41:34Z</time>
      </trkpt>
      <trkpt lat="43.05501" lon="2.43217">
        <ele>493.8</ele>
        <time>2021-03-21T06:41:35Z</time>
      </trkpt>
      <trkpt lat="43.05518" lon="2.43211">
        <ele>492.3</ele>
        <time>2021-03-21T06:41:37Z</time>
      </trkpt>
      <trkpt lat="43.05535" lon="2.4319">
        <ele>490.3</ele>
        <time>2021-03-21T06:41:39Z</time>
      </trkpt>
      <trkpt lat="43.05542" lon="2.43179">
        <ele>489.5</ele>
        <time>2021-03-21T06:41:40Z</time>
      </trkpt>
      <trkpt lat="43.05558" lon="2.43159">
        <ele>488</ele>
        <time>2021-03-21T06:41:42Z</time>
      </trkpt>
      <trkpt lat="43.05566" lon="2.43149">
        <ele>487.4</ele>
        <time>2021-03-21T06:41:43Z</time>
      </trkpt>
      <trkpt lat="43.05574" lon="2.43139">
        <ele>486.9</ele>
        <time>2021-03-21T06:41:44Z</time>
      </trkpt>
      <trkpt lat="43.05587" lon="2.43117">
        <ele>486</ele>
        <time>2021-03-21T06:41:46Z</time>
      </trkpt>
      <trkpt lat="43.05592" lon="2.43106">
        <ele>485.6</ele>
        <time>2021-03-21T06:41:47Z</time>
      </trkpt>
      <trkpt lat="43.05599" lon="2.43098">
        <ele>485.2</ele>
        <time>2021-03-21T06:41:48Z</time>
      </trkpt>
      <trkpt lat="43.05615" lon="2.43091">
        <ele>484.2</ele>
        <time>2021-03-21T06:41:50Z</time>
      </trkpt>
      <trkpt lat="43.05623" lon="2.43091">
        <ele>483.7</ele>
        <time>2021-03-21T06:41:51Z</time>
      </trkpt>
      <trkpt lat="43.05636" lon="2.4308">
        <ele>482.6</ele>
        <time>2021-03-21T06:41:53Z</time>
      </trkpt>
      <trkpt lat="43.05638" lon="2.43058">
        <ele>481.6</ele>
        <time>2021-03-21T06:41:55Z</time>
      </trkpt>
      <trkpt lat="43.05637" lon="2.43046">
        <ele>481.1</ele>
        <time>2021-03-21T06:41:56Z</time>
      </trkpt>
      <trkpt lat="43.05644" lon="2.43029">
        <ele>480.4</ele>
        <time>2021-03-21T06:41:58Z</time>
      </trkpt>
      <trkpt lat="43.0565" lon="2.43029">
        <ele>480</ele>
        <time>2021-03-21T06:41:59Z</time>
      </trkpt>
      <trkpt lat="43.05661" lon="2.4305">
        <ele>478.7</ele>
        <time>2021-03-21T06:42:01Z</time>
      </trkpt>
      <trkpt lat="43.05662" lon="2.43063">
        <ele>477.9</ele>
        <time>2021-03-21T06:42:02Z</time>
      </trkpt>
      <trkpt lat="43.05655" lon="2.43087">
        <ele>476.4</ele>
        <time>2021-03-21T06:42:04Z</time>
      </trkpt>
      <trkpt lat="43.05649" lon="2.43096">
        <ele>475.8</ele>
        <time>2021-03-21T06:42:05Z</time>
      </trkpt>
      <trkpt lat="43.05633" lon="2.43111">
        <ele>474.6</ele>
        <time>2021-03-21T06:42:07Z</time>
      </trkpt>
      <trkpt lat="43.05626" lon="2.43119">
        <ele>474</ele>
        <time>2021-03-21T06:42:08Z</time>
      </trkpt>
      <trkpt lat="43.05619" lon="2.43127">
        <ele>473.5</ele>
        <time>2021-03-21T06:42:09Z</time>
      </trkpt>
      <trkpt lat="43.05606" lon="2.43145">
        <ele>472.3</ele>
        <time>2021-03-21T06:42:11Z</time>
      </trkpt>
      <trkpt lat="43.056" lon="2.43155">
        <ele>471.7</ele>
        <time>2021-03-21T06:42:12Z</time>
      </trkpt>
      <trkpt lat="43.0559" lon="2.43177">
        <ele>470.6</ele>
        <time>2021-03-21T06:42:14Z</time>
      </trkpt>
      <trkpt lat="43.05586" lon="2.43189">
        <ele>470.1</ele>
        <time>2021-03-21T06:42:15Z</time>
      </trkpt>
      <trkpt lat="43.05576" lon="2.43213">
        <ele>469.1</ele>
        <time>2021-03-21T06:42:17Z</time>
      </trkpt>
      <trkpt lat="43.05567" lon="2.43236">
        <ele>468.1</ele>
        <time>2021-03-21T06:42:19Z</time>
      </trkpt>
      <trkpt lat="43.05561" lon="2.43247">
        <ele>467.7</ele>
        <time>2021-03-21T06:42:20Z</time>
      </trkpt>
      <trkpt lat="43.05555" lon="2.43259">
        <ele>467.4</ele>
        <time>2021-03-21T06:42:21Z</time>
      </trkpt>
      <trkpt lat="43.05541" lon="2.43278">
        <ele>466.8</ele>
        <time>2021-03-21T06:42:23Z</time>
      </trkpt>
      <trkpt lat="43.05533" lon="2.43286">
        <ele>466.4</ele>
        <time>2021-03-21T06:42:24Z</time>
      </trkpt>
      <trkpt lat="43.05524" lon="2.43291">
        <ele>465.9</ele>
        <time>2021-03-21T06:42:25Z</time>
      </trkpt>
      <trkpt lat="43.05515" lon="2.43291">
        <ele>465.2</ele>
        <time>2021-03-21T06:42:26Z</time>
      </trkpt>
      <trkpt lat="43.05496" lon="2.4328">
        <ele>464.1</ele>
        <time>2021-03-21T06:42:28Z</time>
      </trkpt>
      <trkpt lat="43.05487" lon="2.43274">
        <ele>463.7</ele>
        <time>2021-03-21T06:42:29Z</time>
      </trkpt>
      <trkpt lat="43.05478" lon="2.4327">
        <ele>463.2</ele>
        <time>2021-03-21T06:42:30Z</time>
      </trkpt>
      <trkpt lat="43.05463" lon="2.43265">
        <ele>462.2</ele>
        <time>2021-03-21T06:42:32Z</time>
      </trkpt>
      <trkpt lat="43.0545" lon="2.43249">
        <ele>461.1</ele>
        <time>2021-03-21T06:42:34Z</time>
      </trkpt>
      <trkpt lat="43.05445" lon="2.43238">
        <ele>460.5</ele>
        <time>2021-03-21T06:42:35Z</time>
      </trkpt>
      <trkpt lat="43.05441" lon="2.43225">
        <ele>459.8</ele>
        <time>2021-03-21T06:42:36Z</time>
      </trkpt>
      <trkpt lat="43.05431" lon="2.43202">
        <ele>458.6</ele>
        <time>2021-03-21T06:42:38Z</time>
      </trkpt>
      <trkpt lat="43.05425" lon="2.43191">
        <ele>458</ele>
        <time>2021-03-21T06:42:39Z</time>
      </trkpt>
      <trkpt lat="43.05414" lon="2.4317">
        <ele>456.9</ele>
        <time>2021-03-21T06:42:41Z</time>
      </trkpt>
      <trkpt lat="43.05409" lon="2.4316">
        <ele>456.4</ele>
        <time>2021-03-21T06:42:42Z</time>
      </trkpt>
      <trkpt lat="43.05401" lon="2.43137">
        <ele>455.5</ele>
        <time>2021-03-21T06:42:44Z</time>
      </trkpt>
      <trkpt lat="43.05397" lon="2.43114">
        <ele>454.6</ele>
        <time>2021-03-21T06:42:46Z</time>
      </trkpt>
      <trkpt lat="43.054" lon="2.43088">
        <ele>453.8</ele>
        <time>2021-03-21T06:42:48Z</time>
      </trkpt>
      <trkpt lat="43.05405" lon="2.43075">
        <ele>453.4</ele>
        <time>2021-03-21T06:42:49Z</time>
      </trkpt>
      <trkpt lat="43.05409" lon="2.43061">
        <ele>452.9</ele>
        <time>2021-03-21T06:42:50Z</time>
      </trkpt>
      <trkpt lat="43.0541" lon="2.43048">
        <ele>452.3</ele>
        <time>2021-03-21T06:42:51Z</time>
      </trkpt>
      <trkpt lat="43.05401" lon="2.43025">
        <ele>451.1</ele>
        <time>2021-03-21T06:42:53Z</time>
      </trkpt>
      <trkpt lat="43.05392" lon="2.43001">
        <ele>449.8</ele>
        <time>2021-03-21T06:42:55Z</time>
      </trkpt>
      <trkpt lat="43.05389" lon="2.42987">
        <ele>449.2</ele>
        <time>2021-03-21T06:42:56Z</time>
      </trkpt>
      <trkpt lat="43.05387" lon="2.42973">
        <ele>448.7</ele>
        <time>2021-03-21T06:42:57Z</time>
      </trkpt>
      <trkpt lat="43.05384" lon="2.42946">
        <ele>447.9</ele>
        <time>2021-03-21T06:42:59Z</time>
      </trkpt>
      <trkpt lat="43.05382" lon="2.42933">
        <ele>447.5</ele>
        <time>2021-03-21T06:43:00Z</time>
      </trkpt>
      <trkpt lat="43.05378" lon="2.4292">
        <ele>447.3</ele>
        <time>2021-03-21T06:43:01Z</time>
      </trkpt>
      <trkpt lat="43.05371" lon="2.42908">
        <ele>447</ele>
        <time>2021-03-21T06:43:02Z</time>
      </trkpt>
      <trkpt lat="43.05352" lon="2.42897">
        <ele>446.2</ele>
        <time>2021-03-21T06:43:04Z</time>
      </trkpt>
      <trkpt lat="43.05341" lon="2.42899">
        <ele>445.5</ele>
        <time>2021-03-21T06:43:05Z</time>
      </trkpt>
      <trkpt lat="43.05324" lon="2.42918">
        <ele>443.9</ele>
        <time>2021-03-21T06:43:07Z</time>
      </trkpt>
      <trkpt lat="43.05319" lon="2.42931">
        <ele>443.2</ele>
        <time>2021-03-21T06:43:08Z</time>
      </trkpt>
      <trkpt lat="43.05312" lon="2.42958">
        <ele>441.8</ele>
        <time>2021-03-21T06:43:10Z</time>
      </trkpt>
      <trkpt lat="43.05305" lon="2.42984">
        <ele>440.6</ele>
        <time>2021-03-21T06:43:12Z</time>
      </trkpt>
      <trkpt lat="43.053" lon="2.42997">
        <ele>440</ele>
        <time>2021-03-21T06:43:13Z</time>
      </trkpt>
      <trkpt lat="43.05291" lon="2.43022">
        <ele>439</ele>
        <time>2021-03-21T06:43:15Z</time>
      </trkpt>
      <trkpt lat="43.05283" lon="2.43046">
        <ele>438</ele>
        <time>2021-03-21T06:43:17Z</time>
      </trkpt>
      <trkpt lat="43.05278" lon="2.43059">
        <ele>437.5</ele>
        <time>2021-03-21T06:43:18Z</time>
      </trkpt>
      <trkpt lat="43.05273" lon="2.43071">
        <ele>437.1</ele>
        <time>2021-03-21T06:43:19Z</time>
      </trkpt>
      <trkpt lat="43.05268" lon="2.43084">
        <ele>436.7</ele>
        <time>2021-03-21T06:43:20Z</time>
      </trkpt>
      <trkpt lat="43.05263" lon="2.43095">
        <ele>436.2</ele>
        <time>2021-03-21T06:43:21Z</time>
      </trkpt>
      <trkpt lat="43.0525" lon="2.43112">
        <ele>435.1</ele>
        <time>2021-03-21T06:43:23Z</time>
      </trkpt>
      <trkpt lat="43.0524" lon="2.43115">
        <ele>434.5</ele>
        <time>2021-03-21T06:43:24Z</time>
      </trkpt>
      <trkpt lat="43.0523" lon="2.43114">
        <ele>433.8</ele>
        <time>2021-03-21T06:43:25Z</time>
      </trkpt>
      <trkpt lat="43.0521" lon="2.43102">
        <ele>432.3</ele>
        <time>2021-03-21T06:43:27Z</time>
      </trkpt>
      <trkpt lat="43.05202" lon="2.43093">
        <ele>431.6</ele>
        <time>2021-03-21T06:43:28Z</time>
      </trkpt>
      <trkpt lat="43.05187" lon="2.43071">
        <ele>430.5</ele>
        <time>2021-03-21T06:43:30Z</time>
      </trkpt>
      <trkpt lat="43.0518" lon="2.4306">
        <ele>430</ele>
        <time>2021-03-21T06:43:31Z</time>
      </trkpt>
      <trkpt lat="43.05172" lon="2.4305">
        <ele>429.7</ele>
        <time>2021-03-21T06:43:32Z</time>
      </trkpt>
      <trkpt lat="43.05164" lon="2.43043">
        <ele>429.4</ele>
        <time>2021-03-21T06:43:33Z</time>
      </trkpt>
      <trkpt lat="43.05145" lon="2.43038">
        <ele>428.8</ele>
        <time>2021-03-21T06:43:35Z</time>
      </trkpt>
      <trkpt lat="43.05136" lon="2.43035">
        <ele>428.3</ele>
        <time>2021-03-21T06:43:36Z</time>
      </trkpt>
      <trkpt lat="43.0513" lon="2.43028">
        <ele>427.7</ele>
        <time>2021-03-21T06:43:37Z</time>
      </trkpt>
      <trkpt lat="43.05124" lon="2.43005">
        <ele>426.3</ele>
        <time>2021-03-21T06:43:39Z</time>
      </trkpt>
      <trkpt lat="43.05123" lon="2.42991">
        <ele>425.5</ele>
        <time>2021-03-21T06:43:40Z</time>
      </trkpt>
      <trkpt lat="43.05115" lon="2.42965">
        <ele>424.2</ele>
        <time>2021-03-21T06:43:42Z</time>
      </trkpt>
      <trkpt lat="43.05102" lon="2.42945">
        <ele>423.1</ele>
        <time>2021-03-21T06:43:44Z</time>
      </trkpt>
      <trkpt lat="43.05095" lon="2.42935">
        <ele>422.5</ele>
        <time>2021-03-21T06:43:45Z</time>
      </trkpt>
      <trkpt lat="43.05082" lon="2.42915">
        <ele>421.4</ele>
        <time>2021-03-21T06:43:47Z</time>
      </trkpt>
      <trkpt lat="43.05076" lon="2.42904">
        <ele>420.8</ele>
        <time>2021-03-21T06:43:48Z</time>
      </trkpt>
      <trkpt lat="43.05064" lon="2.42882">
        <ele>419.7</ele>
        <time>2021-03-21T06:43:50Z</time>
      </trkpt>
      <trkpt lat="43.05055" lon="2.42859">
        <ele>418.5</ele>
        <time>2021-03-21T06:43:52Z</time>
      </trkpt>
      <trkpt lat="43.05051" lon="2.42846">
        <ele>417.9</ele>
        <time>2021-03-21T06:43:53Z</time>
      </trkpt>
      <trkpt lat="43.05046" lon="2.42819">
        <ele>416.9</ele>
        <time>2021-03-21T06:43:55Z</time>
      </trkpt>
      <trkpt lat="43.05042" lon="2.42792">
        <ele>415.8</ele>
        <time>2021-03-21T06:43:57Z</time>
      </trkpt>
      <trkpt lat="43.05042" lon="2.42765">
        <ele>414.6</ele>
        <time>2021-03-21T06:43:59Z</time>
      </trkpt>
      <trkpt lat="43.05049" lon="2.4274">
        <ele>413.5</ele>
        <time>2021-03-21T06:44:01Z</time>
      </trkpt>
      <trkpt lat="43.0506" lon="2.42718">
        <ele>412.6</ele>
        <time>2021-03-21T06:44:03Z</time>
      </trkpt>
      <trkpt lat="43.05068" lon="2.42708">
        <ele>412.1</ele>
        <time>2021-03-21T06:44:04Z</time>
      </trkpt>
      <trkpt lat="43.05074" lon="2.42697">
        <ele>411.5</ele>
        <time>2021-03-21T06:44:05Z</time>
      </trkpt>
      <trkpt lat="43.05077" lon="2.42685">
        <ele>411</ele>
        <time>2021-03-21T06:44:06Z</time>
      </trkpt>
      <trkpt lat="43.05075" lon="2.42657">
        <ele>409.8</ele>
        <time>2021-03-21T06:44:08Z</time>
      </trkpt>
      <trkpt lat="43.05064" lon="2.42631">
        <ele>408.5</ele>
        <time>2021-03-21T06:44:10Z</time>
      </trkpt>
      <trkpt lat="43.0505" lon="2.4261">
        <ele>407.5</ele>
        <time>2021-03-21T06:44:12Z</time>
      </trkpt>
      <trkpt lat="43.05045" lon="2.42598">
        <ele>406.9</ele>
        <time>2021-03-21T06:44:13Z</time>
      </trkpt>
      <trkpt lat="43.05045" lon="2.4257">
        <ele>405.9</ele>
        <time>2021-03-21T06:44:15Z</time>
      </trkpt>
      <trkpt lat="43.05054" lon="2.42543">
        <ele>404.9</ele>
        <time>2021-03-21T06:44:17Z</time>
      </trkpt>
      <trkpt lat="43.0506" lon="2.42529">
        <ele>404.5</ele>
        <time>2021-03-21T06:44:18Z</time>
      </trkpt>
      <trkpt lat="43.05066" lon="2.42518">
        <ele>404.2</ele>
        <time>2021-03-21T06:44:19Z</time>
      </trkpt>
      <trkpt lat="43.0508" lon="2.42499">
        <ele>403.8</ele>
        <time>2021-03-21T06:44:21Z</time>
      </trkpt>
      <trkpt lat="43.05081" lon="2.42479">
        <ele>403.3</ele>
        <time>2021-03-21T06:44:23Z</time>
      </trkpt>
      <trkpt lat="43.05065" lon="2.42468">
        <ele>402.4</ele>
        <time>2021-03-21T06:44:25Z</time>
      </trkpt>
      <trkpt lat="43.05055" lon="2.4247">
        <ele>401.8</ele>
        <time>2021-03-21T06:44:26Z</time>
      </trkpt>
      <trkpt lat="43.05046" lon="2.42474">
        <ele>401.2</ele>
        <time>2021-03-21T06:44:27Z</time>
      </trkpt>
      <trkpt lat="43.05038" lon="2.42481">
        <ele>400.7</ele>
        <time>2021-03-21T06:44:28Z</time>
      </trkpt>
      <trkpt lat="43.0502" lon="2.42494">
        <ele>399.6</ele>
        <time>2021-03-21T06:44:30Z</time>
      </trkpt>
      <trkpt lat="43.05011" lon="2.425">
        <ele>399</ele>
        <time>2021-03-21T06:44:31Z</time>
      </trkpt>
      <trkpt lat="43.04992" lon="2.42506">
        <ele>398</ele>
        <time>2021-03-21T06:44:33Z</time>
      </trkpt>
      <trkpt lat="43.04973" lon="2.42502">
        <ele>397</ele>
        <time>2021-03-21T06:44:35Z</time>
      </trkpt>
      <trkpt lat="43.04957" lon="2.42484">
        <ele>395.9</ele>
        <time>2021-03-21T06:44:37Z</time>
      </trkpt>
      <trkpt lat="43.0495" lon="2.42472">
        <ele>395.2</ele>
        <time>2021-03-21T06:44:38Z</time>
      </trkpt>
      <trkpt lat="43.04937" lon="2.42447">
        <ele>393.9</ele>
        <time>2021-03-21T06:44:40Z</time>
      </trkpt>
      <trkpt lat="43.04923" lon="2.42424">
        <ele>392.7</ele>
        <time>2021-03-21T06:44:42Z</time>
      </trkpt>
      <trkpt lat="43.0491" lon="2.42402">
        <ele>391.6</ele>
        <time>2021-03-21T06:44:44Z</time>
      </trkpt>
      <trkpt lat="43.04904" lon="2.42391">
        <ele>391.1</ele>
        <time>2021-03-21T06:44:45Z</time>
      </trkpt>
      <trkpt lat="43.04894" lon="2.42366">
        <ele>390</ele>
        <time>2021-03-21T06:44:47Z</time>
      </trkpt>
      <trkpt lat="43.04889" lon="2.42355">
        <ele>389.5</ele>
        <time>2021-03-21T06:44:48Z</time>
      </trkpt>
      <trkpt lat="43.04876" lon="2.42335">
        <ele>388.4</ele>
        <time>2021-03-21T06:44:50Z</time>
      </trkpt>
      <trkpt lat="43.04867" lon="2.42328">
        <ele>387.8</ele>
        <time>2021-03-21T06:44:51Z</time>
      </trkpt>
      <trkpt lat="43.04859" lon="2.4232">
        <ele>387.2</ele>
        <time>2021-03-21T06:44:52Z</time>
      </trkpt>
      <trkpt lat="43.04846" lon="2.42299">
        <ele>385.8</ele>
        <time>2021-03-21T06:44:54Z</time>
      </trkpt>
      <trkpt lat="43.04837" lon="2.42272">
        <ele>384.4</ele>
        <time>2021-03-21T06:44:56Z</time>
      </trkpt>
      <trkpt lat="43.04831" lon="2.4226">
        <ele>383.8</ele>
        <time>2021-03-21T06:44:57Z</time>
      </trkpt>
      <trkpt lat="43.04817" lon="2.42239">
        <ele>382.6</ele>
        <time>2021-03-21T06:44:59Z</time>
      </trkpt>
      <trkpt lat="43.04809" lon="2.42229">
        <ele>381.9</ele>
        <time>2021-03-21T06:45:00Z</time>
      </trkpt>
      <trkpt lat="43.04791" lon="2.42213">
        <ele>380.7</ele>
        <time>2021-03-21T06:45:02Z</time>
      </trkpt>
      <trkpt lat="43.04773" lon="2.42197">
        <ele>379.4</ele>
        <time>2021-03-21T06:45:04Z</time>
      </trkpt>
      <trkpt lat="43.04755" lon="2.42181">
        <ele>378.1</ele>
        <time>2021-03-21T06:45:06Z</time>
      </trkpt>
      <trkpt lat="43.04746" lon="2.42173">
        <ele>377.5</ele>
        <time>2021-03-21T06:45:07Z</time>
      </trkpt>
      <trkpt lat="43.04737" lon="2.42164">
        <ele>376.9</ele>
        <time>2021-03-21T06:45:08Z</time>
      </trkpt>
      <trkpt lat="43.04719" lon="2.42147">
        <ele>375.7</ele>
        <time>2021-03-21T06:45:10Z</time>
      </trkpt>
      <trkpt lat="43.04702" lon="2.42128">
        <ele>374.7</ele>
        <time>2021-03-21T06:45:12Z</time>
      </trkpt>
      <trkpt lat="43.04693" lon="2.42119">
        <ele>374.2</ele>
        <time>2021-03-21T06:45:13Z</time>
      </trkpt>
      <trkpt lat="43.04679" lon="2.421">
        <ele>373.4</ele>
        <time>2021-03-21T06:45:15Z</time>
      </trkpt>
      <trkpt lat="43.04674" lon="2.42088">
        <ele>373</ele>
        <time>2021-03-21T06:45:16Z</time>
      </trkpt>
      <trkpt lat="43.0467" lon="2.42063">
        <ele>372</ele>
        <time>2021-03-21T06:45:18Z</time>
      </trkpt>
      <trkpt lat="43.04672" lon="2.42039">
        <ele>371</ele>
        <time>2021-03-21T06:45:20Z</time>
      </trkpt>
      <trkpt lat="43.04675" lon="2.42027">
        <ele>370.5</ele>
        <time>2021-03-21T06:45:21Z</time>
      </trkpt>
      <trkpt lat="43.04682" lon="2.42005">
        <ele>369.9</ele>
        <time>2021-03-21T06:45:23Z</time>
      </trkpt>
      <trkpt lat="43.04689" lon="2.41999">
        <ele>369.7</ele>
        <time>2021-03-21T06:45:24Z</time>
      </trkpt>
      <trkpt lat="43.04694" lon="2.41994">
        <ele>369.2</ele>
        <time>2021-03-21T06:45:25Z</time>
      </trkpt>
      <trkpt lat="43.04699" lon="2.41991">
        <ele>369.2</ele>
        <time>2021-03-21T06:45:26Z</time>
      </trkpt>
      <trkpt lat="43.04698" lon="2.41986">
        <ele>369.2</ele>
        <time>2021-03-21T06:45:28Z</time>
      </trkpt>
      <trkpt lat="43.04693" lon="2.41985">
        <ele>369.2</ele>
        <time>2021-03-21T06:45:29Z</time>
      </trkpt>
      <trkpt lat="43.04683" lon="2.41993">
        <ele>369.2</ele>
        <time>2021-03-21T06:45:31Z</time>
      </trkpt>
      <trkpt lat="43.04678" lon="2.42001">
        <ele>368</ele>
        <time>2021-03-21T06:45:32Z</time>
      </trkpt>
      <trkpt lat="43.04668" lon="2.42018">
        <ele>367.5</ele>
        <time>2021-03-21T06:45:34Z</time>
      </trkpt>
      <trkpt lat="43.04657" lon="2.42035">
        <ele>367</ele>
        <time>2021-03-21T06:45:36Z</time>
      </trkpt>
      <trkpt lat="43.04652" lon="2.42043">
        <ele>366.8</ele>
        <time>2021-03-21T06:45:37Z</time>
      </trkpt>
      <trkpt lat="43.04641" lon="2.4206">
        <ele>366.3</ele>
        <time>2021-03-21T06:45:39Z</time>
      </trkpt>
      <trkpt lat="43.04636" lon="2.42069">
        <ele>366.1</ele>
        <time>2021-03-21T06:45:40Z</time>
      </trkpt>
      <trkpt lat="43.04623" lon="2.42083">
        <ele>365.7</ele>
        <time>2021-03-21T06:45:42Z</time>
      </trkpt>
      <trkpt lat="43.04608" lon="2.4209">
        <ele>365.2</ele>
        <time>2021-03-21T06:45:44Z</time>
      </trkpt>
      <trkpt lat="43.046" lon="2.4209">
        <ele>365.1</ele>
        <time>2021-03-21T06:45:45Z</time>
      </trkpt>
      <trkpt lat="43.04584" lon="2.42087">
        <ele>364.7</ele>
        <time>2021-03-21T06:45:47Z</time>
      </trkpt>
      <trkpt lat="43.04576" lon="2.42087">
        <ele>364.6</ele>
        <time>2021-03-21T06:45:48Z</time>
      </trkpt>
      <trkpt lat="43.0456" lon="2.42097">
        <ele>364.4</ele>
        <time>2021-03-21T06:45:50Z</time>
      </trkpt>
      <trkpt lat="43.04554" lon="2.42105">
        <ele>364.4</ele>
        <time>2021-03-21T06:45:51Z</time>
      </trkpt>
      <trkpt lat="43.04542" lon="2.42124">
        <ele>364.5</ele>
        <time>2021-03-21T06:45:53Z</time>
      </trkpt>
      <trkpt lat="43.04529" lon="2.42139">
        <ele>364.7</ele>
        <time>2021-03-21T06:45:55Z</time>
      </trkpt>
      <trkpt lat="43.04522" lon="2.42144">
        <ele>364.8</ele>
        <time>2021-03-21T06:45:56Z</time>
      </trkpt>
      <trkpt lat="43.04507" lon="2.42144">
        <ele>365</ele>
        <time>2021-03-21T06:45:58Z</time>
      </trkpt>
      <trkpt lat="43.045" lon="2.4214">
        <ele>365.1</ele>
        <time>2021-03-21T06:45:59Z</time>
      </trkpt>
      <trkpt lat="43.04493" lon="2.42134">
        <ele>365.2</ele>
        <time>2021-03-21T06:46:00Z</time>
      </trkpt>
      <trkpt lat="43.04487" lon="2.42127">
        <ele>365.4</ele>
        <time>2021-03-21T06:46:01Z</time>
      </trkpt>
      <trkpt lat="43.04477" lon="2.4211">
        <ele>365.6</ele>
        <time>2021-03-21T06:46:03Z</time>
      </trkpt>
      <trkpt lat="43.04472" lon="2.4209">
        <ele>365.6</ele>
        <time>2021-03-21T06:46:05Z</time>
      </trkpt>
      <trkpt lat="43.04471" lon="2.4208">
        <ele>365.8</ele>
        <time>2021-03-21T06:46:06Z</time>
      </trkpt>
      <trkpt lat="43.04469" lon="2.4207">
        <ele>365.9</ele>
        <time>2021-03-21T06:46:07Z</time>
      </trkpt>
      <trkpt lat="43.04462" lon="2.42053">
        <ele>366.1</ele>
        <time>2021-03-21T06:46:09Z</time>
      </trkpt>
      <trkpt lat="43.04457" lon="2.42046">
        <ele>366.2</ele>
        <time>2021-03-21T06:46:10Z</time>
      </trkpt>
      <trkpt lat="43.04444" lon="2.42038">
        <ele>366.5</ele>
        <time>2021-03-21T06:46:12Z</time>
      </trkpt>
      <trkpt lat="43.04437" lon="2.42035">
        <ele>366.6</ele>
        <time>2021-03-21T06:46:13Z</time>
      </trkpt>
      <trkpt lat="43.0443" lon="2.42032">
        <ele>366.8</ele>
        <time>2021-03-21T06:46:14Z</time>
      </trkpt>
      <trkpt lat="43.04423" lon="2.42029">
        <ele>366.9</ele>
        <time>2021-03-21T06:46:15Z</time>
      </trkpt>
      <trkpt lat="43.04409" lon="2.42024">
        <ele>367.2</ele>
        <time>2021-03-21T06:46:17Z</time>
      </trkpt>
      <trkpt lat="43.04403" lon="2.42021">
        <ele>367.3</ele>
        <time>2021-03-21T06:46:18Z</time>
      </trkpt>
      <trkpt lat="43.0439" lon="2.42015">
        <ele>367.6</ele>
        <time>2021-03-21T06:46:20Z</time>
      </trkpt>
      <trkpt lat="43.04377" lon="2.42009">
        <ele>368</ele>
        <time>2021-03-21T06:46:22Z</time>
      </trkpt>
      <trkpt lat="43.04365" lon="2.42006">
        <ele>368.2</ele>
        <time>2021-03-21T06:46:24Z</time>
      </trkpt>
      <trkpt lat="43.04353" lon="2.42005">
        <ele>368.5</ele>
        <time>2021-03-21T06:46:26Z</time>
      </trkpt>
      <trkpt lat="43.04347" lon="2.42005">
        <ele>368.6</ele>
        <time>2021-03-21T06:46:27Z</time>
      </trkpt>
      <trkpt lat="43.04335" lon="2.42006">
        <ele>368.9</ele>
        <time>2021-03-21T06:46:29Z</time>
      </trkpt>
      <trkpt lat="43.04328" lon="2.42007">
        <ele>369</ele>
        <time>2021-03-21T06:46:30Z</time>
      </trkpt>
      <trkpt lat="43.04316" lon="2.4201">
        <ele>369.3</ele>
        <time>2021-03-21T06:46:32Z</time>
      </trkpt>
      <trkpt lat="43.04305" lon="2.42013">
        <ele>369.6</ele>
        <time>2021-03-21T06:46:34Z</time>
      </trkpt>
      <trkpt lat="43.04299" lon="2.42013">
        <ele>369.7</ele>
        <time>2021-03-21T06:46:35Z</time>
      </trkpt>
      <trkpt lat="43.04287" lon="2.42012">
        <ele>369.9</ele>
        <time>2021-03-21T06:46:37Z</time>
      </trkpt>
      <trkpt lat="43.04281" lon="2.42012">
        <ele>370</ele>
        <time>2021-03-21T06:46:38Z</time>
      </trkpt>
      <trkpt lat="43.04275" lon="2.42011">
        <ele>370.1</ele>
        <time>2021-03-21T06:46:39Z</time>
      </trkpt>
      <trkpt lat="43.04264" lon="2.42008">
        <ele>370.3</ele>
        <time>2021-03-21T06:46:41Z</time>
      </trkpt>
      <trkpt lat="43.04258" lon="2.42006">
        <ele>370.5</ele>
        <time>2021-03-21T06:46:42Z</time>
      </trkpt>
      <trkpt lat="43.04247" lon="2.41999">
        <ele>370.8</ele>
        <time>2021-03-21T06:46:44Z</time>
      </trkpt>
      <trkpt lat="43.04236" lon="2.41994">
        <ele>371.1</ele>
        <time>2021-03-21T06:46:46Z</time>
      </trkpt>
      <trkpt lat="43.04225" lon="2.41989">
        <ele>371.4</ele>
        <time>2021-03-21T06:46:48Z</time>
      </trkpt>
      <trkpt lat="43.04219" lon="2.41988">
        <ele>371.5</ele>
        <time>2021-03-21T06:46:49Z</time>
      </trkpt>
      <trkpt lat="43.04207" lon="2.41989">
        <ele>371.7</ele>
        <time>2021-03-21T06:46:51Z</time>
      </trkpt>
      <trkpt lat="43.04196" lon="2.41993">
        <ele>371.9</ele>
        <time>2021-03-21T06:46:53Z</time>
      </trkpt>
      <trkpt lat="43.0419" lon="2.41995">
        <ele>372.1</ele>
        <time>2021-03-21T06:46:54Z</time>
      </trkpt>
      <trkpt lat="43.04178" lon="2.42">
        <ele>372.3</ele>
        <time>2021-03-21T06:46:56Z</time>
      </trkpt>
      <trkpt lat="43.04166" lon="2.42005">
        <ele>372.6</ele>
        <time>2021-03-21T06:46:58Z</time>
      </trkpt>
      <trkpt lat="43.0416" lon="2.42008">
        <ele>372.7</ele>
        <time>2021-03-21T06:46:59Z</time>
      </trkpt>
      <trkpt lat="43.04148" lon="2.42012">
        <ele>372.9</ele>
        <time>2021-03-21T06:47:01Z</time>
      </trkpt>
      <trkpt lat="43.04142" lon="2.42015">
        <ele>373</ele>
        <time>2021-03-21T06:47:02Z</time>
      </trkpt>
      <trkpt lat="43.04131" lon="2.42019">
        <ele>373.3</ele>
        <time>2021-03-21T06:47:04Z</time>
      </trkpt>
      <trkpt lat="43.04125" lon="2.42022">
        <ele>373.4</ele>
        <time>2021-03-21T06:47:05Z</time>
      </trkpt>
      <trkpt lat="43.04119" lon="2.42024">
        <ele>373.6</ele>
        <time>2021-03-21T06:47:06Z</time>
      </trkpt>
      <trkpt lat="43.04107" lon="2.42029">
        <ele>373.9</ele>
        <time>2021-03-21T06:47:08Z</time>
      </trkpt>
      <trkpt lat="43.04097" lon="2.42035">
        <ele>374.1</ele>
        <time>2021-03-21T06:47:10Z</time>
      </trkpt>
      <trkpt lat="43.04088" lon="2.42039">
        <ele>374.3</ele>
        <time>2021-03-21T06:47:12Z</time>
      </trkpt>
      <trkpt lat="43.04084" lon="2.42041">
        <ele>374.4</ele>
        <time>2021-03-21T06:47:13Z</time>
      </trkpt>
      <trkpt lat="43.04073" lon="2.42045">
        <ele>374.6</ele>
        <time>2021-03-21T06:47:15Z</time>
      </trkpt>
      <trkpt lat="43.04062" lon="2.42047">
        <ele>374.8</ele>
        <time>2021-03-21T06:47:17Z</time>
      </trkpt>
      <trkpt lat="43.04049" lon="2.42047">
        <ele>375</ele>
        <time>2021-03-21T06:47:19Z</time>
      </trkpt>
      <trkpt lat="43.04042" lon="2.42046">
        <ele>375.2</ele>
        <time>2021-03-21T06:47:20Z</time>
      </trkpt>
      <trkpt lat="43.04036" lon="2.42045">
        <ele>375.3</ele>
        <time>2021-03-21T06:47:21Z</time>
      </trkpt>
      <trkpt lat="43.04023" lon="2.42042">
        <ele>375.6</ele>
        <time>2021-03-21T06:47:23Z</time>
      </trkpt>
      <trkpt lat="43.04017" lon="2.4204">
        <ele>375.7</ele>
        <time>2021-03-21T06:47:24Z</time>
      </trkpt>
      <trkpt lat="43.04004" lon="2.42038">
        <ele>376</ele>
        <time>2021-03-21T06:47:26Z</time>
      </trkpt>
      <trkpt lat="43.03998" lon="2.42037">
        <ele>376.2</ele>
        <time>2021-03-21T06:47:27Z</time>
      </trkpt>
      <trkpt lat="43.03986" lon="2.42036">
        <ele>376.4</ele>
        <time>2021-03-21T06:47:29Z</time>
      </trkpt>
      <trkpt lat="43.0398" lon="2.42035">
        <ele>376.5</ele>
        <time>2021-03-21T06:47:30Z</time>
      </trkpt>
      <trkpt lat="43.03975" lon="2.42034">
        <ele>376.7</ele>
        <time>2021-03-21T06:47:31Z</time>
      </trkpt>
      <trkpt lat="43.03964" lon="2.42029">
        <ele>377</ele>
        <time>2021-03-21T06:47:33Z</time>
      </trkpt>
      <trkpt lat="43.03953" lon="2.42022">
        <ele>377.4</ele>
        <time>2021-03-21T06:47:35Z</time>
      </trkpt>
      <trkpt lat="43.03943" lon="2.42012">
        <ele>377.8</ele>
        <time>2021-03-21T06:47:37Z</time>
      </trkpt>
      <trkpt lat="43.03933" lon="2.42003">
        <ele>378.2</ele>
        <time>2021-03-21T06:47:39Z</time>
      </trkpt>
      <trkpt lat="43.03928" lon="2.41999">
        <ele>378.3</ele>
        <time>2021-03-21T06:47:40Z</time>
      </trkpt>
      <trkpt lat="43.03923" lon="2.41994">
        <ele>378.5</ele>
        <time>2021-03-21T06:47:41Z</time>
      </trkpt>
      <trkpt lat="43.03917" lon="2.4198">
        <ele>378.7</ele>
        <time>2021-03-21T06:47:43Z</time>
      </trkpt>
      <trkpt lat="43.03916" lon="2.41963">
        <ele>379</ele>
        <time>2021-03-21T06:47:45Z</time>
      </trkpt>
      <trkpt lat="43.03917" lon="2.41954">
        <ele>379.1</ele>
        <time>2021-03-21T06:47:46Z</time>
      </trkpt>
      <trkpt lat="43.03918" lon="2.41946">
        <ele>379.2</ele>
        <time>2021-03-21T06:47:47Z</time>
      </trkpt>
      <trkpt lat="43.03923" lon="2.4193">
        <ele>379.5</ele>
        <time>2021-03-21T06:47:49Z</time>
      </trkpt>
      <trkpt lat="43.03927" lon="2.41915">
        <ele>379.9</ele>
        <time>2021-03-21T06:47:51Z</time>
      </trkpt>
      <trkpt lat="43.03928" lon="2.41907">
        <ele>380.1</ele>
        <time>2021-03-21T06:47:52Z</time>
      </trkpt>
      <trkpt lat="43.03931" lon="2.41893">
        <ele>380.4</ele>
        <time>2021-03-21T06:47:54Z</time>
      </trkpt>
      <trkpt lat="43.03932" lon="2.41877">
        <ele>380.8</ele>
        <time>2021-03-21T06:47:56Z</time>
      </trkpt>
      <trkpt lat="43.03931" lon="2.41869">
        <ele>380.9</ele>
        <time>2021-03-21T06:47:57Z</time>
      </trkpt>
      <trkpt lat="43.03928" lon="2.41854">
        <ele>381.2</ele>
        <time>2021-03-21T06:47:59Z</time>
      </trkpt>
      <trkpt lat="43.03926" lon="2.41846">
        <ele>381.4</ele>
        <time>2021-03-21T06:48:00Z</time>
      </trkpt>
      <trkpt lat="43.03923" lon="2.41839">
        <ele>381.6</ele>
        <time>2021-03-21T06:48:01Z</time>
      </trkpt>
      <trkpt lat="43.03915" lon="2.41826">
        <ele>382</ele>
        <time>2021-03-21T06:48:03Z</time>
      </trkpt>
      <trkpt lat="43.03911" lon="2.4182">
        <ele>382.1</ele>
        <time>2021-03-21T06:48:04Z</time>
      </trkpt>
      <trkpt lat="43.03906" lon="2.41815">
        <ele>382.3</ele>
        <time>2021-03-21T06:48:05Z</time>
      </trkpt>
      <trkpt lat="43.03895" lon="2.41806">
        <ele>382.6</ele>
        <time>2021-03-21T06:48:07Z</time>
      </trkpt>
      <trkpt lat="43.03889" lon="2.41802">
        <ele>382.8</ele>
        <time>2021-03-21T06:48:08Z</time>
      </trkpt>
      <trkpt lat="43.03879" lon="2.41794">
        <ele>383.1</ele>
        <time>2021-03-21T06:48:10Z</time>
      </trkpt>
      <trkpt lat="43.03869" lon="2.41786">
        <ele>383.4</ele>
        <time>2021-03-21T06:48:12Z</time>
      </trkpt>
      <trkpt lat="43.03864" lon="2.41782">
        <ele>383.6</ele>
        <time>2021-03-21T06:48:13Z</time>
      </trkpt>
      <trkpt lat="43.03858" lon="2.4178">
        <ele>383.8</ele>
        <time>2021-03-21T06:48:14Z</time>
      </trkpt>
      <trkpt lat="43.03847" lon="2.41779">
        <ele>384.1</ele>
        <time>2021-03-21T06:48:16Z</time>
      </trkpt>
      <trkpt lat="43.03837" lon="2.41786">
        <ele>384.4</ele>
        <time>2021-03-21T06:48:18Z</time>
      </trkpt>
      <trkpt lat="43.03832" lon="2.41791">
        <ele>384.5</ele>
        <time>2021-03-21T06:48:19Z</time>
      </trkpt>
      <trkpt lat="43.03827" lon="2.41797">
        <ele>384.7</ele>
        <time>2021-03-21T06:48:20Z</time>
      </trkpt>
      <trkpt lat="43.03821" lon="2.41811">
        <ele>385</ele>
        <time>2021-03-21T06:48:22Z</time>
      </trkpt>
      <trkpt lat="43.03817" lon="2.41826">
        <ele>385.3</ele>
        <time>2021-03-21T06:48:24Z</time>
      </trkpt>
      <trkpt lat="43.03815" lon="2.41833">
        <ele>385.5</ele>
        <time>2021-03-21T06:48:25Z</time>
      </trkpt>
      <trkpt lat="43.03814" lon="2.41849">
        <ele>385.7</ele>
        <time>2021-03-21T06:48:27Z</time>
      </trkpt>
      <trkpt lat="43.03813" lon="2.41865">
        <ele>386</ele>
        <time>2021-03-21T06:48:29Z</time>
      </trkpt>
      <trkpt lat="43.03811" lon="2.41873">
        <ele>386.1</ele>
        <time>2021-03-21T06:48:30Z</time>
      </trkpt>
      <trkpt lat="43.03803" lon="2.41885">
        <ele>386.3</ele>
        <time>2021-03-21T06:48:32Z</time>
      </trkpt>
      <trkpt lat="43.03797" lon="2.41888">
        <ele>386.4</ele>
        <time>2021-03-21T06:48:33Z</time>
      </trkpt>
      <trkpt lat="43.03791" lon="2.41889">
        <ele>386.6</ele>
        <time>2021-03-21T06:48:34Z</time>
      </trkpt>
      <trkpt lat="43.03785" lon="2.41889">
        <ele>386.7</ele>
        <time>2021-03-21T06:48:35Z</time>
      </trkpt>
      <trkpt lat="43.03778" lon="2.41888">
        <ele>386.9</ele>
        <time>2021-03-21T06:48:36Z</time>
      </trkpt>
      <trkpt lat="43.03766" lon="2.41886">
        <ele>387.3</ele>
        <time>2021-03-21T06:48:38Z</time>
      </trkpt>
      <trkpt lat="43.03755" lon="2.41885">
        <ele>387.6</ele>
        <time>2021-03-21T06:48:40Z</time>
      </trkpt>
      <trkpt lat="43.03744" lon="2.41885">
        <ele>388</ele>
        <time>2021-03-21T06:48:42Z</time>
      </trkpt>
      <trkpt lat="43.03738" lon="2.41885">
        <ele>388.2</ele>
        <time>2021-03-21T06:48:43Z</time>
      </trkpt>
      <trkpt lat="43.03733" lon="2.41884">
        <ele>388.4</ele>
        <time>2021-03-21T06:48:44Z</time>
      </trkpt>
      <trkpt lat="43.03722" lon="2.41881">
        <ele>388.7</ele>
        <time>2021-03-21T06:48:46Z</time>
      </trkpt>
      <trkpt lat="43.03717" lon="2.41878">
        <ele>388.9</ele>
        <time>2021-03-21T06:48:47Z</time>
      </trkpt>
      <trkpt lat="43.03713" lon="2.41872">
        <ele>389.1</ele>
        <time>2021-03-21T06:48:48Z</time>
      </trkpt>
      <trkpt lat="43.03709" lon="2.41857">
        <ele>389.4</ele>
        <time>2021-03-21T06:48:50Z</time>
      </trkpt>
      <trkpt lat="43.03706" lon="2.41842">
        <ele>389.7</ele>
        <time>2021-03-21T06:48:52Z</time>
      </trkpt>
      <trkpt lat="43.03705" lon="2.41834">
        <ele>389.9</ele>
        <time>2021-03-21T06:48:53Z</time>
      </trkpt>
      <trkpt lat="43.03704" lon="2.41827">
        <ele>390.1</ele>
        <time>2021-03-21T06:48:54Z</time>
      </trkpt>
      <trkpt lat="43.03702" lon="2.41814">
        <ele>390.4</ele>
        <time>2021-03-21T06:48:56Z</time>
      </trkpt>
      <trkpt lat="43.03701" lon="2.41806">
        <ele>390.6</ele>
        <time>2021-03-21T06:48:57Z</time>
      </trkpt>
      <trkpt lat="43.03699" lon="2.41791">
        <ele>390.9</ele>
        <time>2021-03-21T06:48:59Z</time>
      </trkpt>
      <trkpt lat="43.03699" lon="2.41783">
        <ele>391</ele>
        <time>2021-03-21T06:49:00Z</time>
      </trkpt>
      <trkpt lat="43.037" lon="2.41768">
        <ele>391.2</ele>
        <time>2021-03-21T06:49:02Z</time>
      </trkpt>
      <trkpt lat="43.03702" lon="2.41761">
        <ele>391.4</ele>
        <time>2021-03-21T06:49:03Z</time>
      </trkpt>
      <trkpt lat="43.03706" lon="2.41746">
        <ele>391.7</ele>
        <time>2021-03-21T06:49:05Z</time>
      </trkpt>
      <trkpt lat="43.03709" lon="2.41739">
        <ele>391.8</ele>
        <time>2021-03-21T06:49:06Z</time>
      </trkpt>
      <trkpt lat="43.03712" lon="2.41732">
        <ele>391.9</ele>
        <time>2021-03-21T06:49:07Z</time>
      </trkpt>
      <trkpt lat="43.03716" lon="2.41718">
        <ele>392.2</ele>
        <time>2021-03-21T06:49:09Z</time>
      </trkpt>
      <trkpt lat="43.03721" lon="2.41703">
        <ele>392.5</ele>
        <time>2021-03-21T06:49:11Z</time>
      </trkpt>
      <trkpt lat="43.03722" lon="2.41695">
        <ele>392.6</ele>
        <time>2021-03-21T06:49:12Z</time>
      </trkpt>
      <trkpt lat="43.03725" lon="2.4168">
        <ele>392.9</ele>
        <time>2021-03-21T06:49:14Z</time>
      </trkpt>
      <trkpt lat="43.03726" lon="2.41672">
        <ele>393.1</ele>
        <time>2021-03-21T06:49:15Z</time>
      </trkpt>
      <trkpt lat="43.03725" lon="2.41657">
        <ele>393.4</ele>
        <time>2021-03-21T06:49:17Z</time>
      </trkpt>
      <trkpt lat="43.03724" lon="2.41649">
        <ele>393.5</ele>
        <time>2021-03-21T06:49:18Z</time>
      </trkpt>
      <trkpt lat="43.03721" lon="2.41634">
        <ele>393.7</ele>
        <time>2021-03-21T06:49:20Z</time>
      </trkpt>
      <trkpt lat="43.03719" lon="2.41627">
        <ele>393.8</ele>
        <time>2021-03-21T06:49:21Z</time>
      </trkpt>
      <trkpt lat="43.03717" lon="2.4162">
        <ele>393.9</ele>
        <time>2021-03-21T06:49:22Z</time>
      </trkpt>
      <trkpt lat="43.03712" lon="2.41607">
        <ele>394</ele>
        <time>2021-03-21T06:49:24Z</time>
      </trkpt>
      <trkpt lat="43.03709" lon="2.41601">
        <ele>394.1</ele>
        <time>2021-03-21T06:49:25Z</time>
      </trkpt>
      <trkpt lat="43.03701" lon="2.41589">
        <ele>394.3</ele>
        <time>2021-03-21T06:49:27Z</time>
      </trkpt>
      <trkpt lat="43.03697" lon="2.41584">
        <ele>394.4</ele>
        <time>2021-03-21T06:49:28Z</time>
      </trkpt>
      <trkpt lat="43.03686" lon="2.41576">
        <ele>394.7</ele>
        <time>2021-03-21T06:49:30Z</time>
      </trkpt>
      <trkpt lat="43.03681" lon="2.41573">
        <ele>394.9</ele>
        <time>2021-03-21T06:49:31Z</time>
      </trkpt>
      <trkpt lat="43.03675" lon="2.4157">
        <ele>395.1</ele>
        <time>2021-03-21T06:49:32Z</time>
      </trkpt>
      <trkpt lat="43.0367" lon="2.41568">
        <ele>395.3</ele>
        <time>2021-03-21T06:49:33Z</time>
      </trkpt>
      <trkpt lat="43.03658" lon="2.41565">
        <ele>395.6</ele>
        <time>2021-03-21T06:49:35Z</time>
      </trkpt>
      <trkpt lat="43.03653" lon="2.41564">
        <ele>395.8</ele>
        <time>2021-03-21T06:49:36Z</time>
      </trkpt>
      <trkpt lat="43.03647" lon="2.41563">
        <ele>396</ele>
        <time>2021-03-21T06:49:37Z</time>
      </trkpt>
      <trkpt lat="43.03636" lon="2.41563">
        <ele>396.3</ele>
        <time>2021-03-21T06:49:39Z</time>
      </trkpt>
      <trkpt lat="43.03625" lon="2.41563">
        <ele>396.6</ele>
        <time>2021-03-21T06:49:41Z</time>
      </trkpt>
      <trkpt lat="43.03614" lon="2.41564">
        <ele>396.9</ele>
        <time>2021-03-21T06:49:43Z</time>
      </trkpt>
      <trkpt lat="43.03602" lon="2.41566">
        <ele>397.2</ele>
        <time>2021-03-21T06:49:45Z</time>
      </trkpt>
      <trkpt lat="43.03596" lon="2.41566">
        <ele>397.3</ele>
        <time>2021-03-21T06:49:46Z</time>
      </trkpt>
      <trkpt lat="43.03585" lon="2.41559">
        <ele>397.7</ele>
        <time>2021-03-21T06:49:48Z</time>
      </trkpt>
      <trkpt lat="43.03576" lon="2.41545">
        <ele>398</ele>
        <time>2021-03-21T06:49:50Z</time>
      </trkpt>
      <trkpt lat="43.03573" lon="2.41537">
        <ele>398.2</ele>
        <time>2021-03-21T06:49:51Z</time>
      </trkpt>
      <trkpt lat="43.03569" lon="2.4153">
        <ele>398.3</ele>
        <time>2021-03-21T06:49:52Z</time>
      </trkpt>
      <trkpt lat="43.03565" lon="2.41524">
        <ele>398.5</ele>
        <time>2021-03-21T06:49:53Z</time>
      </trkpt>
      <trkpt lat="43.03555" lon="2.41514">
        <ele>398.9</ele>
        <time>2021-03-21T06:49:55Z</time>
      </trkpt>
      <trkpt lat="43.03543" lon="2.41508">
        <ele>399.3</ele>
        <time>2021-03-21T06:49:57Z</time>
      </trkpt>
      <trkpt lat="43.03532" lon="2.41505">
        <ele>399.7</ele>
        <time>2021-03-21T06:49:59Z</time>
      </trkpt>
      <trkpt lat="43.03527" lon="2.41503">
        <ele>399.9</ele>
        <time>2021-03-21T06:50:00Z</time>
      </trkpt>
      <trkpt lat="43.03516" lon="2.41501">
        <ele>400.2</ele>
        <time>2021-03-21T06:50:02Z</time>
      </trkpt>
      <trkpt lat="43.03505" lon="2.41498">
        <ele>400.7</ele>
        <time>2021-03-21T06:50:04Z</time>
      </trkpt>
      <trkpt lat="43.03494" lon="2.41497">
        <ele>401.2</ele>
        <time>2021-03-21T06:50:06Z</time>
      </trkpt>
      <trkpt lat="43.03488" lon="2.41496">
        <ele>401.4</ele>
        <time>2021-03-21T06:50:07Z</time>
      </trkpt>
      <trkpt lat="43.03477" lon="2.41495">
        <ele>401.9</ele>
        <time>2021-03-21T06:50:09Z</time>
      </trkpt>
      <trkpt lat="43.03466" lon="2.41494">
        <ele>402.4</ele>
        <time>2021-03-21T06:50:11Z</time>
      </trkpt>
      <trkpt lat="43.03454" lon="2.41494">
        <ele>402.9</ele>
        <time>2021-03-21T06:50:13Z</time>
      </trkpt>
      <trkpt lat="43.03449" lon="2.41495">
        <ele>403.2</ele>
        <time>2021-03-21T06:50:14Z</time>
      </trkpt>
      <trkpt lat="43.03443" lon="2.41495">
        <ele>403.5</ele>
        <time>2021-03-21T06:50:15Z</time>
      </trkpt>
      <trkpt lat="43.03432" lon="2.41494">
        <ele>404.1</ele>
        <time>2021-03-21T06:50:17Z</time>
      </trkpt>
      <trkpt lat="43.03421" lon="2.41493">
        <ele>404.7</ele>
        <time>2021-03-21T06:50:19Z</time>
      </trkpt>
      <trkpt lat="43.03412" lon="2.41489">
        <ele>405.3</ele>
        <time>2021-03-21T06:50:21Z</time>
      </trkpt>
      <trkpt lat="43.03407" lon="2.41487">
        <ele>405.6</ele>
        <time>2021-03-21T06:50:22Z</time>
      </trkpt>
      <trkpt lat="43.03398" lon="2.41481">
        <ele>406.2</ele>
        <time>2021-03-21T06:50:24Z</time>
      </trkpt>
      <trkpt lat="43.03389" lon="2.41476">
        <ele>406.7</ele>
        <time>2021-03-21T06:50:26Z</time>
      </trkpt>
      <trkpt lat="43.0338" lon="2.41471">
        <ele>407.2</ele>
        <time>2021-03-21T06:50:28Z</time>
      </trkpt>
      <trkpt lat="43.03375" lon="2.41469">
        <ele>407.5</ele>
        <time>2021-03-21T06:50:29Z</time>
      </trkpt>
      <trkpt lat="43.03366" lon="2.41464">
        <ele>408</ele>
        <time>2021-03-21T06:50:31Z</time>
      </trkpt>
      <trkpt lat="43.03356" lon="2.4146">
        <ele>408.5</ele>
        <time>2021-03-21T06:50:33Z</time>
      </trkpt>
      <trkpt lat="43.03347" lon="2.41457">
        <ele>409.1</ele>
        <time>2021-03-21T06:50:35Z</time>
      </trkpt>
      <trkpt lat="43.03337" lon="2.41456">
        <ele>409.6</ele>
        <time>2021-03-21T06:50:37Z</time>
      </trkpt>
      <trkpt lat="43.03328" lon="2.41458">
        <ele>410.1</ele>
        <time>2021-03-21T06:50:39Z</time>
      </trkpt>
      <trkpt lat="43.03323" lon="2.4146">
        <ele>410.4</ele>
        <time>2021-03-21T06:50:40Z</time>
      </trkpt>
      <trkpt lat="43.03313" lon="2.41463">
        <ele>410.9</ele>
        <time>2021-03-21T06:50:42Z</time>
      </trkpt>
      <trkpt lat="43.03308" lon="2.41465">
        <ele>411.2</ele>
        <time>2021-03-21T06:50:43Z</time>
      </trkpt>
      <trkpt lat="43.03298" lon="2.41468">
        <ele>411.8</ele>
        <time>2021-03-21T06:50:45Z</time>
      </trkpt>
      <trkpt lat="43.03289" lon="2.41471">
        <ele>412.2</ele>
        <time>2021-03-21T06:50:47Z</time>
      </trkpt>
      <trkpt lat="43.03279" lon="2.41474">
        <ele>412.7</ele>
        <time>2021-03-21T06:50:49Z</time>
      </trkpt>
      <trkpt lat="43.03269" lon="2.41477">
        <ele>413.2</ele>
        <time>2021-03-21T06:50:51Z</time>
      </trkpt>
      <trkpt lat="43.0326" lon="2.4148">
        <ele>413.7</ele>
        <time>2021-03-21T06:50:53Z</time>
      </trkpt>
      <trkpt lat="43.0325" lon="2.41482">
        <ele>414.2</ele>
        <time>2021-03-21T06:50:55Z</time>
      </trkpt>
      <trkpt lat="43.03241" lon="2.41484">
        <ele>414.7</ele>
        <time>2021-03-21T06:50:57Z</time>
      </trkpt>
      <trkpt lat="43.03236" lon="2.41485">
        <ele>415</ele>
        <time>2021-03-21T06:50:58Z</time>
      </trkpt>
      <trkpt lat="43.03227" lon="2.41487">
        <ele>415.5</ele>
        <time>2021-03-21T06:51:00Z</time>
      </trkpt>
      <trkpt lat="43.03223" lon="2.41488">
        <ele>415.7</ele>
        <time>2021-03-21T06:51:01Z</time>
      </trkpt>
      <trkpt lat="43.03214" lon="2.4149">
        <ele>416.2</ele>
        <time>2021-03-21T06:51:03Z</time>
      </trkpt>
      <trkpt lat="43.03209" lon="2.41491">
        <ele>416.4</ele>
        <time>2021-03-21T06:51:04Z</time>
      </trkpt>
      <trkpt lat="43.03205" lon="2.41492">
        <ele>416.7</ele>
        <time>2021-03-21T06:51:05Z</time>
      </trkpt>
      <trkpt lat="43.03196" lon="2.41494">
        <ele>417.1</ele>
        <time>2021-03-21T06:51:07Z</time>
      </trkpt>
      <trkpt lat="43.03186" lon="2.41497">
        <ele>417.6</ele>
        <time>2021-03-21T06:51:09Z</time>
      </trkpt>
      <trkpt lat="43.03181" lon="2.41498">
        <ele>417.8</ele>
        <time>2021-03-21T06:51:10Z</time>
      </trkpt>
      <trkpt lat="43.03177" lon="2.415">
        <ele>418.1</ele>
        <time>2021-03-21T06:51:11Z</time>
      </trkpt>
      <trkpt lat="43.03168" lon="2.41504">
        <ele>418.6</ele>
        <time>2021-03-21T06:51:13Z</time>
      </trkpt>
      <trkpt lat="43.03163" lon="2.41506">
        <ele>418.8</ele>
        <time>2021-03-21T06:51:14Z</time>
      </trkpt>
      <trkpt lat="43.03154" lon="2.4151">
        <ele>419.3</ele>
        <time>2021-03-21T06:51:16Z</time>
      </trkpt>
      <trkpt lat="43.03149" lon="2.41511">
        <ele>419.5</ele>
        <time>2021-03-21T06:51:17Z</time>
      </trkpt>
      <trkpt lat="43.03141" lon="2.41515">
        <ele>420</ele>
        <time>2021-03-21T06:51:19Z</time>
      </trkpt>
      <trkpt lat="43.03132" lon="2.41518">
        <ele>420.4</ele>
        <time>2021-03-21T06:51:21Z</time>
      </trkpt>
      <trkpt lat="43.03125" lon="2.41522">
        <ele>420.8</ele>
        <time>2021-03-21T06:51:23Z</time>
      </trkpt>
      <trkpt lat="43.03121" lon="2.41524">
        <ele>421</ele>
        <time>2021-03-21T06:51:24Z</time>
      </trkpt>
      <trkpt lat="43.03117" lon="2.41526">
        <ele>421.2</ele>
        <time>2021-03-21T06:51:25Z</time>
      </trkpt>
      <trkpt lat="43.03111" lon="2.41528">
        <ele>421.5</ele>
        <time>2021-03-21T06:51:26Z</time>
      </trkpt>
      <trkpt lat="43.03107" lon="2.41527">
        <ele>421.7</ele>
        <time>2021-03-21T06:51:28Z</time>
      </trkpt>
      <trkpt lat="43.03101" lon="2.41529">
        <ele>422.1</ele>
        <time>2021-03-21T06:51:29Z</time>
      </trkpt>
      <trkpt lat="43.03097" lon="2.41533">
        <ele>422.3</ele>
        <time>2021-03-21T06:51:30Z</time>
      </trkpt>
      <trkpt lat="43.03094" lon="2.41536">
        <ele>422.5</ele>
        <time>2021-03-21T06:51:31Z</time>
      </trkpt>
      <trkpt lat="43.0309" lon="2.41539">
        <ele>422.8</ele>
        <time>2021-03-21T06:51:33Z</time>
      </trkpt>
      <trkpt lat="43.03087" lon="2.41541">
        <ele>423</ele>
        <time>2021-03-21T06:51:34Z</time>
      </trkpt>
      <trkpt lat="43.03083" lon="2.41543">
        <ele>423.2</ele>
        <time>2021-03-21T06:51:36Z</time>
      </trkpt>
      <trkpt lat="43.03079" lon="2.41543">
        <ele>423.4</ele>
        <time>2021-03-21T06:51:37Z</time>
      </trkpt>
      <trkpt lat="43.03076" lon="2.41544">
        <ele>423.6</ele>
        <time>2021-03-21T06:51:38Z</time>
      </trkpt>
      <trkpt lat="43.03073" lon="2.41544">
        <ele>423.8</ele>
        <time>2021-03-21T06:51:39Z</time>
      </trkpt>
      <trkpt lat="43.03069" lon="2.41544">
        <ele>424</ele>
        <time>2021-03-21T06:51:40Z</time>
      </trkpt>
      <trkpt lat="43.03065" lon="2.41546">
        <ele>424.3</ele>
        <time>2021-03-21T06:51:41Z</time>
      </trkpt>
      <trkpt lat="43.03059" lon="2.41548">
        <ele>424.7</ele>
        <time>2021-03-21T06:51:43Z</time>
      </trkpt>
      <trkpt lat="43.03056" lon="2.41551">
        <ele>424.9</ele>
        <time>2021-03-21T06:51:44Z</time>
      </trkpt>
      <trkpt lat="43.03055" lon="2.41555">
        <ele>425.1</ele>
        <time>2021-03-21T06:51:45Z</time>
      </trkpt>
      <trkpt lat="43.03052" lon="2.41565">
        <ele>426.5</ele>
        <time>2021-03-21T06:51:46Z</time>
      </trkpt>
      <trkpt lat="43.03052" lon="2.41583">
        <ele>426.2</ele>
        <time>2021-03-21T06:51:48Z</time>
      </trkpt>
      <trkpt lat="43.03054" lon="2.416">
        <ele>426.1</ele>
        <time>2021-03-21T06:51:50Z</time>
      </trkpt>
      <trkpt lat="43.03055" lon="2.41608">
        <ele>426.1</ele>
        <time>2021-03-21T06:51:51Z</time>
      </trkpt>
      <trkpt lat="43.03059" lon="2.41625">
        <ele>426</ele>
        <time>2021-03-21T06:51:53Z</time>
      </trkpt>
      <trkpt lat="43.03062" lon="2.41642">
        <ele>426.1</ele>
        <time>2021-03-21T06:51:55Z</time>
      </trkpt>
      <trkpt lat="43.03067" lon="2.41659">
        <ele>426.2</ele>
        <time>2021-03-21T06:51:57Z</time>
      </trkpt>
      <trkpt lat="43.03072" lon="2.41673">
        <ele>426.4</ele>
        <time>2021-03-21T06:51:59Z</time>
      </trkpt>
      <trkpt lat="43.03075" lon="2.41681">
        <ele>426.6</ele>
        <time>2021-03-21T06:52:00Z</time>
      </trkpt>
      <trkpt lat="43.03079" lon="2.41696">
        <ele>426.9</ele>
        <time>2021-03-21T06:52:02Z</time>
      </trkpt>
      <trkpt lat="43.03083" lon="2.41708">
        <ele>427.2</ele>
        <time>2021-03-21T06:52:04Z</time>
      </trkpt>
      <trkpt lat="43.03084" lon="2.41715">
        <ele>427.3</ele>
        <time>2021-03-21T06:52:05Z</time>
      </trkpt>
      <trkpt lat="43.03087" lon="2.41728">
        <ele>427.7</ele>
        <time>2021-03-21T06:52:07Z</time>
      </trkpt>
      <trkpt lat="43.03088" lon="2.41734">
        <ele>427.9</ele>
        <time>2021-03-21T06:52:08Z</time>
      </trkpt>
      <trkpt lat="43.03091" lon="2.41748">
        <ele>428.3</ele>
        <time>2021-03-21T06:52:10Z</time>
      </trkpt>
      <trkpt lat="43.03093" lon="2.4176">
        <ele>428.8</ele>
        <time>2021-03-21T06:52:12Z</time>
      </trkpt>
      <trkpt lat="43.03093" lon="2.41767">
        <ele>429</ele>
        <time>2021-03-21T06:52:13Z</time>
      </trkpt>
      <trkpt lat="43.03094" lon="2.41781">
        <ele>429.4</ele>
        <time>2021-03-21T06:52:15Z</time>
      </trkpt>
      <trkpt lat="43.03095" lon="2.41787">
        <ele>429.6</ele>
        <time>2021-03-21T06:52:16Z</time>
      </trkpt>
      <trkpt lat="43.03096" lon="2.41794">
        <ele>429.8</ele>
        <time>2021-03-21T06:52:17Z</time>
      </trkpt>
      <trkpt lat="43.03097" lon="2.41801">
        <ele>430</ele>
        <time>2021-03-21T06:52:18Z</time>
      </trkpt>
      <trkpt lat="43.03098" lon="2.41807">
        <ele>430.2</ele>
        <time>2021-03-21T06:52:19Z</time>
      </trkpt>
      <trkpt lat="43.03102" lon="2.41821">
        <ele>430.6</ele>
        <time>2021-03-21T06:52:21Z</time>
      </trkpt>
      <trkpt lat="43.03106" lon="2.41833">
        <ele>431</ele>
        <time>2021-03-21T06:52:23Z</time>
      </trkpt>
      <trkpt lat="43.03108" lon="2.41844">
        <ele>431.4</ele>
        <time>2021-03-21T06:52:25Z</time>
      </trkpt>
      <trkpt lat="43.03112" lon="2.41856">
        <ele>431.7</ele>
        <time>2021-03-21T06:52:27Z</time>
      </trkpt>
      <trkpt lat="43.03117" lon="2.41866">
        <ele>432</ele>
        <time>2021-03-21T06:52:29Z</time>
      </trkpt>
      <trkpt lat="43.0312" lon="2.41871">
        <ele>432.2</ele>
        <time>2021-03-21T06:52:30Z</time>
      </trkpt>
      <trkpt lat="43.03128" lon="2.41878">
        <ele>432.5</ele>
        <time>2021-03-21T06:52:32Z</time>
      </trkpt>
      <trkpt lat="43.03138" lon="2.41885">
        <ele>432.8</ele>
        <time>2021-03-21T06:52:34Z</time>
      </trkpt>
      <trkpt lat="43.03144" lon="2.41898">
        <ele>433.2</ele>
        <time>2021-03-21T06:52:36Z</time>
      </trkpt>
      <trkpt lat="43.03144" lon="2.41905">
        <ele>433.5</ele>
        <time>2021-03-21T06:52:37Z</time>
      </trkpt>
      <trkpt lat="43.03144" lon="2.41913">
        <ele>433.7</ele>
        <time>2021-03-21T06:52:38Z</time>
      </trkpt>
      <trkpt lat="43.03143" lon="2.4192">
        <ele>434</ele>
        <time>2021-03-21T06:52:39Z</time>
      </trkpt>
      <trkpt lat="43.03142" lon="2.41928">
        <ele>434.3</ele>
        <time>2021-03-21T06:52:40Z</time>
      </trkpt>
      <trkpt lat="43.03141" lon="2.4194">
        <ele>434.8</ele>
        <time>2021-03-21T06:52:42Z</time>
      </trkpt>
      <trkpt lat="43.03141" lon="2.41945">
        <ele>435</ele>
        <time>2021-03-21T06:52:43Z</time>
      </trkpt>
      <trkpt lat="43.03141" lon="2.41956">
        <ele>435.5</ele>
        <time>2021-03-21T06:52:45Z</time>
      </trkpt>
      <trkpt lat="43.03142" lon="2.41961">
        <ele>435.7</ele>
        <time>2021-03-21T06:52:46Z</time>
      </trkpt>
      <trkpt lat="43.03141" lon="2.41966">
        <ele>435.9</ele>
        <time>2021-03-21T06:52:47Z</time>
      </trkpt>
      <trkpt lat="43.03134" lon="2.41973">
        <ele>436.4</ele>
        <time>2021-03-21T06:52:48Z</time>
      </trkpt>
      <trkpt lat="43.03136" lon="2.41978">
        <ele>436.6</ele>
        <time>2021-03-21T06:52:50Z</time>
      </trkpt>
      <trkpt lat="43.03142" lon="2.41984">
        <ele>437.1</ele>
        <time>2021-03-21T06:52:52Z</time>
      </trkpt>
      <trkpt lat="43.03148" lon="2.41993">
        <ele>437.5</ele>
        <time>2021-03-21T06:52:53Z</time>
      </trkpt>
      <trkpt lat="43.03152" lon="2.41999">
        <ele>437.8</ele>
        <time>2021-03-21T06:52:55Z</time>
      </trkpt>
      <trkpt lat="43.03154" lon="2.42004">
        <ele>438</ele>
        <time>2021-03-21T06:52:56Z</time>
      </trkpt>
      <trkpt lat="43.03156" lon="2.42009">
        <ele>438.2</ele>
        <time>2021-03-21T06:52:57Z</time>
      </trkpt>
      <trkpt lat="43.0316" lon="2.4202">
        <ele>438.6</ele>
        <time>2021-03-21T06:52:59Z</time>
      </trkpt>
      <trkpt lat="43.03162" lon="2.42025">
        <ele>438.9</ele>
        <time>2021-03-21T06:53:00Z</time>
      </trkpt>
      <trkpt lat="43.03163" lon="2.4203">
        <ele>439.1</ele>
        <time>2021-03-21T06:53:01Z</time>
      </trkpt>
      <trkpt lat="43.03167" lon="2.42043">
        <ele>439.7</ele>
        <time>2021-03-21T06:53:03Z</time>
      </trkpt>
      <trkpt lat="43.03168" lon="2.42048">
        <ele>439.9</ele>
        <time>2021-03-21T06:53:04Z</time>
      </trkpt>
      <trkpt lat="43.03169" lon="2.42052">
        <ele>440.1</ele>
        <time>2021-03-21T06:53:05Z</time>
      </trkpt>
      <trkpt lat="43.03171" lon="2.42062">
        <ele>440.5</ele>
        <time>2021-03-21T06:53:07Z</time>
      </trkpt>
      <trkpt lat="43.03172" lon="2.42071">
        <ele>440.9</ele>
        <time>2021-03-21T06:53:08Z</time>
      </trkpt>
      <trkpt lat="43.03173" lon="2.42079">
        <ele>441.2</ele>
        <time>2021-03-21T06:53:10Z</time>
      </trkpt>
      <trkpt lat="43.03173" lon="2.42086">
        <ele>441.5</ele>
        <time>2021-03-21T06:53:11Z</time>
      </trkpt>
      <trkpt lat="43.03175" lon="2.421">
        <ele>442.1</ele>
        <time>2021-03-21T06:53:13Z</time>
      </trkpt>
      <trkpt lat="43.03176" lon="2.42107">
        <ele>442.4</ele>
        <time>2021-03-21T06:53:14Z</time>
      </trkpt>
      <trkpt lat="43.03177" lon="2.42115">
        <ele>442.8</ele>
        <time>2021-03-21T06:53:16Z</time>
      </trkpt>
      <trkpt lat="43.03178" lon="2.42121">
        <ele>443.1</ele>
        <time>2021-03-21T06:53:17Z</time>
      </trkpt>
      <trkpt lat="43.03179" lon="2.4213">
        <ele>443.5</ele>
        <time>2021-03-21T06:53:18Z</time>
      </trkpt>
      <trkpt lat="43.03181" lon="2.42136">
        <ele>443.8</ele>
        <time>2021-03-21T06:53:20Z</time>
      </trkpt>
      <trkpt lat="43.03181" lon="2.42141">
        <ele>444</ele>
        <time>2021-03-21T06:53:21Z</time>
      </trkpt>
      <trkpt lat="43.03182" lon="2.42147">
        <ele>444.3</ele>
        <time>2021-03-21T06:53:22Z</time>
      </trkpt>
      <trkpt lat="43.03185" lon="2.42159">
        <ele>444.9</ele>
        <time>2021-03-21T06:53:24Z</time>
      </trkpt>
      <trkpt lat="43.03186" lon="2.42166">
        <ele>445.1</ele>
        <time>2021-03-21T06:53:25Z</time>
      </trkpt>
      <trkpt lat="43.03187" lon="2.4217">
        <ele>445.4</ele>
        <time>2021-03-21T06:53:26Z</time>
      </trkpt>
      <trkpt lat="43.03189" lon="2.4218">
        <ele>445.8</ele>
        <time>2021-03-21T06:53:28Z</time>
      </trkpt>
      <trkpt lat="43.03191" lon="2.4219">
        <ele>446.3</ele>
        <time>2021-03-21T06:53:29Z</time>
      </trkpt>
      <trkpt lat="43.03192" lon="2.42195">
        <ele>446.5</ele>
        <time>2021-03-21T06:53:31Z</time>
      </trkpt>
      <trkpt lat="43.03193" lon="2.42203">
        <ele>446.9</ele>
        <time>2021-03-21T06:53:32Z</time>
      </trkpt>
      <trkpt lat="43.03196" lon="2.42213">
        <ele>447.4</ele>
        <time>2021-03-21T06:53:34Z</time>
      </trkpt>
      <trkpt lat="43.03197" lon="2.42219">
        <ele>447.7</ele>
        <time>2021-03-21T06:53:35Z</time>
      </trkpt>
      <trkpt lat="43.03199" lon="2.42225">
        <ele>448</ele>
        <time>2021-03-21T06:53:36Z</time>
      </trkpt>
      <trkpt lat="43.03201" lon="2.42231">
        <ele>448.3</ele>
        <time>2021-03-21T06:53:37Z</time>
      </trkpt>
      <trkpt lat="43.03203" lon="2.42239">
        <ele>448.7</ele>
        <time>2021-03-21T06:53:39Z</time>
      </trkpt>
      <trkpt lat="43.03204" lon="2.42244">
        <ele>449</ele>
        <time>2021-03-21T06:53:40Z</time>
      </trkpt>
      <trkpt lat="43.03206" lon="2.4225">
        <ele>449.3</ele>
        <time>2021-03-21T06:53:41Z</time>
      </trkpt>
      <trkpt lat="43.03207" lon="2.42259">
        <ele>449.7</ele>
        <time>2021-03-21T06:53:43Z</time>
      </trkpt>
      <trkpt lat="43.03209" lon="2.42267">
        <ele>450.1</ele>
        <time>2021-03-21T06:53:44Z</time>
      </trkpt>
      <trkpt lat="43.0321" lon="2.42272">
        <ele>450.4</ele>
        <time>2021-03-21T06:53:45Z</time>
      </trkpt>
      <trkpt lat="43.0321" lon="2.42279">
        <ele>450.7</ele>
        <time>2021-03-21T06:53:46Z</time>
      </trkpt>
      <trkpt lat="43.03211" lon="2.42286">
        <ele>451</ele>
        <time>2021-03-21T06:53:48Z</time>
      </trkpt>
      <trkpt lat="43.03211" lon="2.42294">
        <ele>451.4</ele>
        <time>2021-03-21T06:53:49Z</time>
      </trkpt>
      <trkpt lat="43.03211" lon="2.423">
        <ele>451.7</ele>
        <time>2021-03-21T06:53:50Z</time>
      </trkpt>
      <trkpt lat="43.03211" lon="2.42305">
        <ele>452</ele>
        <time>2021-03-21T06:53:51Z</time>
      </trkpt>
      <trkpt lat="43.03211" lon="2.42311">
        <ele>452.2</ele>
        <time>2021-03-21T06:53:52Z</time>
      </trkpt>
      <trkpt lat="43.03213" lon="2.42326">
        <ele>452.9</ele>
        <time>2021-03-21T06:53:54Z</time>
      </trkpt>
      <trkpt lat="43.03213" lon="2.4233">
        <ele>453.1</ele>
        <time>2021-03-21T06:53:55Z</time>
      </trkpt>
      <trkpt lat="43.03214" lon="2.42336">
        <ele>453.4</ele>
        <time>2021-03-21T06:53:57Z</time>
      </trkpt>
      <trkpt lat="43.03215" lon="2.42341">
        <ele>453.6</ele>
        <time>2021-03-21T06:53:58Z</time>
      </trkpt>
      <trkpt lat="43.03216" lon="2.42352">
        <ele>454.1</ele>
        <time>2021-03-21T06:53:59Z</time>
      </trkpt>
      <trkpt lat="43.03217" lon="2.42356">
        <ele>454.3</ele>
        <time>2021-03-21T06:54:00Z</time>
      </trkpt>
      <trkpt lat="43.03217" lon="2.42361">
        <ele>454.6</ele>
        <time>2021-03-21T06:54:01Z</time>
      </trkpt>
      <trkpt lat="43.03218" lon="2.42369">
        <ele>454.9</ele>
        <time>2021-03-21T06:54:03Z</time>
      </trkpt>
      <trkpt lat="43.03218" lon="2.42379">
        <ele>455.3</ele>
        <time>2021-03-21T06:54:04Z</time>
      </trkpt>
      <trkpt lat="43.03218" lon="2.42383">
        <ele>455.5</ele>
        <time>2021-03-21T06:54:05Z</time>
      </trkpt>
      <trkpt lat="43.03219" lon="2.42387">
        <ele>455.7</ele>
        <time>2021-03-21T06:54:06Z</time>
      </trkpt>
      <trkpt lat="43.03219" lon="2.42396">
        <ele>456</ele>
        <time>2021-03-21T06:54:08Z</time>
      </trkpt>
      <trkpt lat="43.0322" lon="2.42406">
        <ele>456.5</ele>
        <time>2021-03-21T06:54:09Z</time>
      </trkpt>
      <trkpt lat="43.03221" lon="2.4241">
        <ele>456.7</ele>
        <time>2021-03-21T06:54:10Z</time>
      </trkpt>
      <trkpt lat="43.03221" lon="2.42415">
        <ele>456.9</ele>
        <time>2021-03-21T06:54:11Z</time>
      </trkpt>
      <trkpt lat="43.03221" lon="2.4242">
        <ele>457.1</ele>
        <time>2021-03-21T06:54:12Z</time>
      </trkpt>
      <trkpt lat="43.0322" lon="2.42428">
        <ele>457.5</ele>
        <time>2021-03-21T06:54:14Z</time>
      </trkpt>
      <trkpt lat="43.03219" lon="2.42432">
        <ele>457.7</ele>
        <time>2021-03-21T06:54:15Z</time>
      </trkpt>
      <trkpt lat="43.03217" lon="2.42438">
        <ele>458</ele>
        <time>2021-03-21T06:54:16Z</time>
      </trkpt>
      <trkpt lat="43.03215" lon="2.42443">
        <ele>458.3</ele>
        <time>2021-03-21T06:54:17Z</time>
      </trkpt>
      <trkpt lat="43.03214" lon="2.42448">
        <ele>458.5</ele>
        <time>2021-03-21T06:54:19Z</time>
      </trkpt>
      <trkpt lat="43.03213" lon="2.42455">
        <ele>458.9</ele>
        <time>2021-03-21T06:54:20Z</time>
      </trkpt>
      <trkpt lat="43.03211" lon="2.42461">
        <ele>459.2</ele>
        <time>2021-03-21T06:54:21Z</time>
      </trkpt>
      <trkpt lat="43.03211" lon="2.42466">
        <ele>459.4</ele>
        <time>2021-03-21T06:54:22Z</time>
      </trkpt>
      <trkpt lat="43.03208" lon="2.42475">
        <ele>459.8</ele>
        <time>2021-03-21T06:54:24Z</time>
      </trkpt>
      <trkpt lat="43.03207" lon="2.42487">
        <ele>460.3</ele>
        <time>2021-03-21T06:54:25Z</time>
      </trkpt>
      <trkpt lat="43.03205" lon="2.42495">
        <ele>460.7</ele>
        <time>2021-03-21T06:54:27Z</time>
      </trkpt>
      <trkpt lat="43.03202" lon="2.42497">
        <ele>460.9</ele>
        <time>2021-03-21T06:54:28Z</time>
      </trkpt>
      <trkpt lat="43.03202" lon="2.42508">
        <ele>461.4</ele>
        <time>2021-03-21T06:54:30Z</time>
      </trkpt>
      <trkpt lat="43.03203" lon="2.42516">
        <ele>461.8</ele>
        <time>2021-03-21T06:54:31Z</time>
      </trkpt>
      <trkpt lat="43.03203" lon="2.42522">
        <ele>462.1</ele>
        <time>2021-03-21T06:54:32Z</time>
      </trkpt>
      <trkpt lat="43.03202" lon="2.42534">
        <ele>462.6</ele>
        <time>2021-03-21T06:54:34Z</time>
      </trkpt>
      <trkpt lat="43.03201" lon="2.42545">
        <ele>463.2</ele>
        <time>2021-03-21T06:54:35Z</time>
      </trkpt>
      <trkpt lat="43.032" lon="2.42552">
        <ele>463.5</ele>
        <time>2021-03-21T06:54:36Z</time>
      </trkpt>
      <trkpt lat="43.032" lon="2.42561">
        <ele>463.9</ele>
        <time>2021-03-21T06:54:38Z</time>
      </trkpt>
      <trkpt lat="43.03201" lon="2.4257">
        <ele>464.4</ele>
        <time>2021-03-21T06:54:39Z</time>
      </trkpt>
      <trkpt lat="43.03202" lon="2.42582">
        <ele>464.9</ele>
        <time>2021-03-21T06:54:40Z</time>
      </trkpt>
      <trkpt lat="43.03203" lon="2.4259">
        <ele>465.3</ele>
        <time>2021-03-21T06:54:42Z</time>
      </trkpt>
      <trkpt lat="43.03204" lon="2.42598">
        <ele>465.6</ele>
        <time>2021-03-21T06:54:43Z</time>
      </trkpt>
      <trkpt lat="43.03205" lon="2.42608">
        <ele>466.1</ele>
        <time>2021-03-21T06:54:45Z</time>
      </trkpt>
      <trkpt lat="43.03206" lon="2.42613">
        <ele>466.3</ele>
        <time>2021-03-21T06:54:46Z</time>
      </trkpt>
      <trkpt lat="43.03206" lon="2.42619">
        <ele>466.7</ele>
        <time>2021-03-21T06:54:47Z</time>
      </trkpt>
      <trkpt lat="43.03206" lon="2.42629">
        <ele>467.2</ele>
        <time>2021-03-21T06:54:49Z</time>
      </trkpt>
      <trkpt lat="43.03205" lon="2.42636">
        <ele>467.6</ele>
        <time>2021-03-21T06:54:50Z</time>
      </trkpt>
      <trkpt lat="43.03204" lon="2.4264">
        <ele>467.9</ele>
        <time>2021-03-21T06:54:51Z</time>
      </trkpt>
      <trkpt lat="43.03203" lon="2.42647">
        <ele>468.2</ele>
        <time>2021-03-21T06:54:53Z</time>
      </trkpt>
      <trkpt lat="43.03202" lon="2.42653">
        <ele>468.6</ele>
        <time>2021-03-21T06:54:54Z</time>
      </trkpt>
      <trkpt lat="43.03201" lon="2.42663">
        <ele>469.1</ele>
        <time>2021-03-21T06:54:55Z</time>
      </trkpt>
      <trkpt lat="43.03201" lon="2.42667">
        <ele>469.3</ele>
        <time>2021-03-21T06:54:56Z</time>
      </trkpt>
      <trkpt lat="43.03201" lon="2.42672">
        <ele>469.6</ele>
        <time>2021-03-21T06:54:57Z</time>
      </trkpt>
      <trkpt lat="43.032" lon="2.42679">
        <ele>469.9</ele>
        <time>2021-03-21T06:54:59Z</time>
      </trkpt>
      <trkpt lat="43.03201" lon="2.4269">
        <ele>470.5</ele>
        <time>2021-03-21T06:55:00Z</time>
      </trkpt>
      <trkpt lat="43.03202" lon="2.42695">
        <ele>470.8</ele>
        <time>2021-03-21T06:55:01Z</time>
      </trkpt>
      <trkpt lat="43.03203" lon="2.42703">
        <ele>471.2</ele>
        <time>2021-03-21T06:55:03Z</time>
      </trkpt>
      <trkpt lat="43.03204" lon="2.42708">
        <ele>471.5</ele>
        <time>2021-03-21T06:55:04Z</time>
      </trkpt>
      <trkpt lat="43.03206" lon="2.42717">
        <ele>472</ele>
        <time>2021-03-21T06:55:05Z</time>
      </trkpt>
      <trkpt lat="43.03208" lon="2.42723">
        <ele>472.3</ele>
        <time>2021-03-21T06:55:07Z</time>
      </trkpt>
      <trkpt lat="43.03209" lon="2.42729">
        <ele>472.6</ele>
        <time>2021-03-21T06:55:08Z</time>
      </trkpt>
      <trkpt lat="43.03211" lon="2.42734">
        <ele>472.9</ele>
        <time>2021-03-21T06:55:09Z</time>
      </trkpt>
      <trkpt lat="43.03213" lon="2.42743">
        <ele>473.3</ele>
        <time>2021-03-21T06:55:10Z</time>
      </trkpt>
      <trkpt lat="43.03213" lon="2.42748">
        <ele>473.6</ele>
        <time>2021-03-21T06:55:11Z</time>
      </trkpt>
      <trkpt lat="43.03214" lon="2.42755">
        <ele>474</ele>
        <time>2021-03-21T06:55:13Z</time>
      </trkpt>
      <trkpt lat="43.03215" lon="2.42762">
        <ele>474.4</ele>
        <time>2021-03-21T06:55:14Z</time>
      </trkpt>
      <trkpt lat="43.03217" lon="2.42772">
        <ele>474.9</ele>
        <time>2021-03-21T06:55:16Z</time>
      </trkpt>
      <trkpt lat="43.03217" lon="2.42777">
        <ele>475.2</ele>
        <time>2021-03-21T06:55:17Z</time>
      </trkpt>
      <trkpt lat="43.03218" lon="2.42783">
        <ele>475.5</ele>
        <time>2021-03-21T06:55:18Z</time>
      </trkpt>
      <trkpt lat="43.03218" lon="2.42789">
        <ele>475.9</ele>
        <time>2021-03-21T06:55:19Z</time>
      </trkpt>
      <trkpt lat="43.03219" lon="2.42797">
        <ele>476.4</ele>
        <time>2021-03-21T06:55:20Z</time>
      </trkpt>
      <trkpt lat="43.03219" lon="2.42802">
        <ele>476.7</ele>
        <time>2021-03-21T06:55:21Z</time>
      </trkpt>
      <trkpt lat="43.03219" lon="2.42808">
        <ele>477</ele>
        <time>2021-03-21T06:55:23Z</time>
      </trkpt>
      <trkpt lat="43.0322" lon="2.42813">
        <ele>477.4</ele>
        <time>2021-03-21T06:55:24Z</time>
      </trkpt>
      <trkpt lat="43.0322" lon="2.42823">
        <ele>477.9</ele>
        <time>2021-03-21T06:55:26Z</time>
      </trkpt>
      <trkpt lat="43.03221" lon="2.42829">
        <ele>478.3</ele>
        <time>2021-03-21T06:55:27Z</time>
      </trkpt>
      <trkpt lat="43.03221" lon="2.42836">
        <ele>478.7</ele>
        <time>2021-03-21T06:55:29Z</time>
      </trkpt>
      <trkpt lat="43.0322" lon="2.42846">
        <ele>479.3</ele>
        <time>2021-03-21T06:55:30Z</time>
      </trkpt>
      <trkpt lat="43.0322" lon="2.42852">
        <ele>479.6</ele>
        <time>2021-03-21T06:55:32Z</time>
      </trkpt>
      <trkpt lat="43.0322" lon="2.42858">
        <ele>480</ele>
        <time>2021-03-21T06:55:33Z</time>
      </trkpt>
      <trkpt lat="43.0322" lon="2.42863">
        <ele>480.3</ele>
        <time>2021-03-21T06:55:34Z</time>
      </trkpt>
      <trkpt lat="43.0322" lon="2.42872">
        <ele>480.8</ele>
        <time>2021-03-21T06:55:35Z</time>
      </trkpt>
      <trkpt lat="43.0322" lon="2.42877">
        <ele>481.1</ele>
        <time>2021-03-21T06:55:36Z</time>
      </trkpt>
      <trkpt lat="43.03221" lon="2.42886">
        <ele>481.6</ele>
        <time>2021-03-21T06:55:38Z</time>
      </trkpt>
      <trkpt lat="43.03221" lon="2.42892">
        <ele>481.9</ele>
        <time>2021-03-21T06:55:39Z</time>
      </trkpt>
      <trkpt lat="43.03222" lon="2.42899">
        <ele>482.3</ele>
        <time>2021-03-21T06:55:40Z</time>
      </trkpt>
      <trkpt lat="43.03223" lon="2.42907">
        <ele>482.7</ele>
        <time>2021-03-21T06:55:42Z</time>
      </trkpt>
      <trkpt lat="43.03223" lon="2.42913">
        <ele>483</ele>
        <time>2021-03-21T06:55:43Z</time>
      </trkpt>
      <trkpt lat="43.03224" lon="2.42918">
        <ele>483.3</ele>
        <time>2021-03-21T06:55:44Z</time>
      </trkpt>
      <trkpt lat="43.03226" lon="2.42929">
        <ele>484</ele>
        <time>2021-03-21T06:55:46Z</time>
      </trkpt>
      <trkpt lat="43.03226" lon="2.42935">
        <ele>484.3</ele>
        <time>2021-03-21T06:55:47Z</time>
      </trkpt>
      <trkpt lat="43.03228" lon="2.42942">
        <ele>484.7</ele>
        <time>2021-03-21T06:55:49Z</time>
      </trkpt>
      <trkpt lat="43.03228" lon="2.42948">
        <ele>485.1</ele>
        <time>2021-03-21T06:55:50Z</time>
      </trkpt>
      <trkpt lat="43.0323" lon="2.42957">
        <ele>485.6</ele>
        <time>2021-03-21T06:55:51Z</time>
      </trkpt>
      <trkpt lat="43.03231" lon="2.42963">
        <ele>485.9</ele>
        <time>2021-03-21T06:55:53Z</time>
      </trkpt>
      <trkpt lat="43.03232" lon="2.42969">
        <ele>486.3</ele>
        <time>2021-03-21T06:55:54Z</time>
      </trkpt>
      <trkpt lat="43.03233" lon="2.42977">
        <ele>486.8</ele>
        <time>2021-03-21T06:55:55Z</time>
      </trkpt>
      <trkpt lat="43.03234" lon="2.42983">
        <ele>487.2</ele>
        <time>2021-03-21T06:55:57Z</time>
      </trkpt>
      <trkpt lat="43.03235" lon="2.42988">
        <ele>487.5</ele>
        <time>2021-03-21T06:55:58Z</time>
      </trkpt>
      <trkpt lat="43.03236" lon="2.42994">
        <ele>487.9</ele>
        <time>2021-03-21T06:55:59Z</time>
      </trkpt>
      <trkpt lat="43.03237" lon="2.43003">
        <ele>488.4</ele>
        <time>2021-03-21T06:56:00Z</time>
      </trkpt>
      <trkpt lat="43.03237" lon="2.43007">
        <ele>488.7</ele>
        <time>2021-03-21T06:56:01Z</time>
      </trkpt>
      <trkpt lat="43.03238" lon="2.43014">
        <ele>489.1</ele>
        <time>2021-03-21T06:56:03Z</time>
      </trkpt>
      <trkpt lat="43.03238" lon="2.43018">
        <ele>489.3</ele>
        <time>2021-03-21T06:56:04Z</time>
      </trkpt>
      <trkpt lat="43.03239" lon="2.43028">
        <ele>489.9</ele>
        <time>2021-03-21T06:56:06Z</time>
      </trkpt>
      <trkpt lat="43.0324" lon="2.43035">
        <ele>490.4</ele>
        <time>2021-03-21T06:56:08Z</time>
      </trkpt>
      <trkpt lat="43.0324" lon="2.43042">
        <ele>490.8</ele>
        <time>2021-03-21T06:56:09Z</time>
      </trkpt>
      <trkpt lat="43.03241" lon="2.43052">
        <ele>491.3</ele>
        <time>2021-03-21T06:56:11Z</time>
      </trkpt>
      <trkpt lat="43.03241" lon="2.43056">
        <ele>491.5</ele>
        <time>2021-03-21T06:56:12Z</time>
      </trkpt>
      <trkpt lat="43.03242" lon="2.43065">
        <ele>492</ele>
        <time>2021-03-21T06:56:14Z</time>
      </trkpt>
      <trkpt lat="43.03243" lon="2.43074">
        <ele>492.5</ele>
        <time>2021-03-21T06:56:16Z</time>
      </trkpt>
      <trkpt lat="43.03244" lon="2.4308">
        <ele>492.8</ele>
        <time>2021-03-21T06:56:17Z</time>
      </trkpt>
      <trkpt lat="43.03244" lon="2.43084">
        <ele>493</ele>
        <time>2021-03-21T06:56:18Z</time>
      </trkpt>
      <trkpt lat="43.03245" lon="2.4309">
        <ele>493.3</ele>
        <time>2021-03-21T06:56:20Z</time>
      </trkpt>
      <trkpt lat="43.03245" lon="2.43097">
        <ele>493.7</ele>
        <time>2021-03-21T06:56:21Z</time>
      </trkpt>
      <trkpt lat="43.03245" lon="2.43102">
        <ele>494</ele>
        <time>2021-03-21T06:56:22Z</time>
      </trkpt>
      <trkpt lat="43.03245" lon="2.43109">
        <ele>494.3</ele>
        <time>2021-03-21T06:56:23Z</time>
      </trkpt>
      <trkpt lat="43.03245" lon="2.43119">
        <ele>494.8</ele>
        <time>2021-03-21T06:56:25Z</time>
      </trkpt>
      <trkpt lat="43.03246" lon="2.43123">
        <ele>495.1</ele>
        <time>2021-03-21T06:56:26Z</time>
      </trkpt>
      <trkpt lat="43.03246" lon="2.43131">
        <ele>495.5</ele>
        <time>2021-03-21T06:56:28Z</time>
      </trkpt>
      <trkpt lat="43.03246" lon="2.43136">
        <ele>495.8</ele>
        <time>2021-03-21T06:56:29Z</time>
      </trkpt>
      <trkpt lat="43.03247" lon="2.43144">
        <ele>496.2</ele>
        <time>2021-03-21T06:56:30Z</time>
      </trkpt>
      <trkpt lat="43.03247" lon="2.4315">
        <ele>496.5</ele>
        <time>2021-03-21T06:56:32Z</time>
      </trkpt>
      <trkpt lat="43.03247" lon="2.43154">
        <ele>496.8</ele>
        <time>2021-03-21T06:56:33Z</time>
      </trkpt>
      <trkpt lat="43.03247" lon="2.4316">
        <ele>497.1</ele>
        <time>2021-03-21T06:56:34Z</time>
      </trkpt>
      <trkpt lat="43.03246" lon="2.43169">
        <ele>497.6</ele>
        <time>2021-03-21T06:56:35Z</time>
      </trkpt>
      <trkpt lat="43.03245" lon="2.43175">
        <ele>497.9</ele>
        <time>2021-03-21T06:56:37Z</time>
      </trkpt>
      <trkpt lat="43.03245" lon="2.43183">
        <ele>498.4</ele>
        <time>2021-03-21T06:56:39Z</time>
      </trkpt>
      <trkpt lat="43.03243" lon="2.43196">
        <ele>499.1</ele>
        <time>2021-03-21T06:56:41Z</time>
      </trkpt>
      <trkpt lat="43.03243" lon="2.43202">
        <ele>499.5</ele>
        <time>2021-03-21T06:56:43Z</time>
      </trkpt>
      <trkpt lat="43.03243" lon="2.43208">
        <ele>499.8</ele>
        <time>2021-03-21T06:56:44Z</time>
      </trkpt>
      <trkpt lat="43.03244" lon="2.43218">
        <ele>500.3</ele>
        <time>2021-03-21T06:56:45Z</time>
      </trkpt>
      <trkpt lat="43.03244" lon="2.43222">
        <ele>500.5</ele>
        <time>2021-03-21T06:56:46Z</time>
      </trkpt>
      <trkpt lat="43.03243" lon="2.43227">
        <ele>500.8</ele>
        <time>2021-03-21T06:56:48Z</time>
      </trkpt>
      <trkpt lat="43.03241" lon="2.43232">
        <ele>501.1</ele>
        <time>2021-03-21T06:56:49Z</time>
      </trkpt>
      <trkpt lat="43.03236" lon="2.43238">
        <ele>501.6</ele>
        <time>2021-03-21T06:56:51Z</time>
      </trkpt>
      <trkpt lat="43.03233" lon="2.4324">
        <ele>501.8</ele>
        <time>2021-03-21T06:56:52Z</time>
      </trkpt>
      <trkpt lat="43.0323" lon="2.43243">
        <ele>502.1</ele>
        <time>2021-03-21T06:56:53Z</time>
      </trkpt>
      <trkpt lat="43.03225" lon="2.43246">
        <ele>502.6</ele>
        <time>2021-03-21T06:56:55Z</time>
      </trkpt>
      <trkpt lat="43.03221" lon="2.4325">
        <ele>503</ele>
        <time>2021-03-21T06:56:56Z</time>
      </trkpt>
      <trkpt lat="43.03218" lon="2.43253">
        <ele>503.3</ele>
        <time>2021-03-21T06:56:57Z</time>
      </trkpt>
      <trkpt lat="43.03215" lon="2.43256">
        <ele>503.6</ele>
        <time>2021-03-21T06:56:58Z</time>
      </trkpt>
      <trkpt lat="43.03213" lon="2.4326">
        <ele>503.9</ele>
        <time>2021-03-21T06:56:59Z</time>
      </trkpt>
      <trkpt lat="43.03209" lon="2.43269">
        <ele>504.6</ele>
        <time>2021-03-21T06:57:01Z</time>
      </trkpt>
      <trkpt lat="43.03209" lon="2.43273">
        <ele>504.8</ele>
        <time>2021-03-21T06:57:02Z</time>
      </trkpt>
      <trkpt lat="43.03208" lon="2.43278">
        <ele>505.1</ele>
        <time>2021-03-21T06:57:03Z</time>
      </trkpt>
      <trkpt lat="43.03208" lon="2.43284">
        <ele>505.5</ele>
        <time>2021-03-21T06:57:04Z</time>
      </trkpt>
      <trkpt lat="43.03208" lon="2.43291">
        <ele>505.9</ele>
        <time>2021-03-21T06:57:06Z</time>
      </trkpt>
      <trkpt lat="43.03209" lon="2.43298">
        <ele>506.2</ele>
        <time>2021-03-21T06:57:07Z</time>
      </trkpt>
      <trkpt lat="43.0321" lon="2.43305">
        <ele>506.6</ele>
        <time>2021-03-21T06:57:09Z</time>
      </trkpt>
      <trkpt lat="43.0321" lon="2.43309">
        <ele>506.9</ele>
        <time>2021-03-21T06:57:10Z</time>
      </trkpt>
      <trkpt lat="43.03211" lon="2.43315">
        <ele>507.2</ele>
        <time>2021-03-21T06:57:11Z</time>
      </trkpt>
      <trkpt lat="43.03212" lon="2.4332">
        <ele>507.5</ele>
        <time>2021-03-21T06:57:12Z</time>
      </trkpt>
      <trkpt lat="43.03213" lon="2.43325">
        <ele>507.8</ele>
        <time>2021-03-21T06:57:13Z</time>
      </trkpt>
      <trkpt lat="43.03214" lon="2.43331">
        <ele>508.1</ele>
        <time>2021-03-21T06:57:14Z</time>
      </trkpt>
      <trkpt lat="43.03214" lon="2.43336">
        <ele>508.5</ele>
        <time>2021-03-21T06:57:15Z</time>
      </trkpt>
      <trkpt lat="43.03215" lon="2.43346">
        <ele>509</ele>
        <time>2021-03-21T06:57:17Z</time>
      </trkpt>
      <trkpt lat="43.03216" lon="2.43353">
        <ele>509.4</ele>
        <time>2021-03-21T06:57:19Z</time>
      </trkpt>
      <trkpt lat="43.03216" lon="2.43361">
        <ele>509.8</ele>
        <time>2021-03-21T06:57:20Z</time>
      </trkpt>
      <trkpt lat="43.03217" lon="2.43368">
        <ele>510.2</ele>
        <time>2021-03-21T06:57:22Z</time>
      </trkpt>
      <trkpt lat="43.03218" lon="2.43373">
        <ele>510.5</ele>
        <time>2021-03-21T06:57:23Z</time>
      </trkpt>
      <trkpt lat="43.03218" lon="2.43379">
        <ele>510.8</ele>
        <time>2021-03-21T06:57:24Z</time>
      </trkpt>
      <trkpt lat="43.03218" lon="2.43385">
        <ele>511.2</ele>
        <time>2021-03-21T06:57:25Z</time>
      </trkpt>
      <trkpt lat="43.03218" lon="2.43393">
        <ele>511.6</ele>
        <time>2021-03-21T06:57:27Z</time>
      </trkpt>
      <trkpt lat="43.03218" lon="2.43399">
        <ele>511.9</ele>
        <time>2021-03-21T06:57:28Z</time>
      </trkpt>
      <trkpt lat="43.03218" lon="2.43405">
        <ele>512.2</ele>
        <time>2021-03-21T06:57:29Z</time>
      </trkpt>
      <trkpt lat="43.03219" lon="2.43412">
        <ele>512.7</ele>
        <time>2021-03-21T06:57:31Z</time>
      </trkpt>
      <trkpt lat="43.03219" lon="2.43419">
        <ele>513.1</ele>
        <time>2021-03-21T06:57:32Z</time>
      </trkpt>
      <trkpt lat="43.03219" lon="2.43424">
        <ele>513.3</ele>
        <time>2021-03-21T06:57:33Z</time>
      </trkpt>
      <trkpt lat="43.03218" lon="2.43433">
        <ele>513.8</ele>
        <time>2021-03-21T06:57:35Z</time>
      </trkpt>
      <trkpt lat="43.03218" lon="2.43438">
        <ele>514.1</ele>
        <time>2021-03-21T06:57:36Z</time>
      </trkpt>
      <trkpt lat="43.03219" lon="2.43443">
        <ele>514.4</ele>
        <time>2021-03-21T06:57:37Z</time>
      </trkpt>
      <trkpt lat="43.03221" lon="2.43449">
        <ele>514.7</ele>
        <time>2021-03-21T06:57:39Z</time>
      </trkpt>
      <trkpt lat="43.03222" lon="2.43453">
        <ele>515</ele>
        <time>2021-03-21T06:57:40Z</time>
      </trkpt>
      <trkpt lat="43.03223" lon="2.43457">
        <ele>515.2</ele>
        <time>2021-03-21T06:57:41Z</time>
      </trkpt>
      <trkpt lat="43.03223" lon="2.43461">
        <ele>515.4</ele>
        <time>2021-03-21T06:57:42Z</time>
      </trkpt>
      <trkpt lat="43.03225" lon="2.43468">
        <ele>515.9</ele>
        <time>2021-03-21T06:57:44Z</time>
      </trkpt>
      <trkpt lat="43.03226" lon="2.43473">
        <ele>516.1</ele>
        <time>2021-03-21T06:57:45Z</time>
      </trkpt>
      <trkpt lat="43.03226" lon="2.43475">
        <ele>516.2</ele>
        <time>2021-03-21T06:57:46Z</time>
      </trkpt>
      <trkpt lat="43.03227" lon="2.4348">
        <ele>516.5</ele>
        <time>2021-03-21T06:57:48Z</time>
      </trkpt>
      <trkpt lat="43.03227" lon="2.43491">
        <ele>517.1</ele>
        <time>2021-03-21T06:57:49Z</time>
      </trkpt>
      <trkpt lat="43.03227" lon="2.43496">
        <ele>517.4</ele>
        <time>2021-03-21T06:57:50Z</time>
      </trkpt>
      <trkpt lat="43.03227" lon="2.43506">
        <ele>517.9</ele>
        <time>2021-03-21T06:57:52Z</time>
      </trkpt>
      <trkpt lat="43.03225" lon="2.43519">
        <ele>518.6</ele>
        <time>2021-03-21T06:57:54Z</time>
      </trkpt>
      <trkpt lat="43.03224" lon="2.43523">
        <ele>518.9</ele>
        <time>2021-03-21T06:57:55Z</time>
      </trkpt>
      <trkpt lat="43.03223" lon="2.43529">
        <ele>519.2</ele>
        <time>2021-03-21T06:57:56Z</time>
      </trkpt>
      <trkpt lat="43.03221" lon="2.43535">
        <ele>519.6</ele>
        <time>2021-03-21T06:57:58Z</time>
      </trkpt>
      <trkpt lat="43.03218" lon="2.43546">
        <ele>520.3</ele>
        <time>2021-03-21T06:57:59Z</time>
      </trkpt>
      <trkpt lat="43.03215" lon="2.43552">
        <ele>520.7</ele>
        <time>2021-03-21T06:58:01Z</time>
      </trkpt>
      <trkpt lat="43.03213" lon="2.43558">
        <ele>521.1</ele>
        <time>2021-03-21T06:58:02Z</time>
      </trkpt>
      <trkpt lat="43.0321" lon="2.4357">
        <ele>521.8</ele>
        <time>2021-03-21T06:58:04Z</time>
      </trkpt>
      <trkpt lat="43.03208" lon="2.43574">
        <ele>522.1</ele>
        <time>2021-03-21T06:58:05Z</time>
      </trkpt>
      <trkpt lat="43.03207" lon="2.43583">
        <ele>522.5</ele>
        <time>2021-03-21T06:58:07Z</time>
      </trkpt>
      <trkpt lat="43.03206" lon="2.43587">
        <ele>522.8</ele>
        <time>2021-03-21T06:58:08Z</time>
      </trkpt>
      <trkpt lat="43.03206" lon="2.43592">
        <ele>523.1</ele>
        <time>2021-03-21T06:58:09Z</time>
      </trkpt>
      <trkpt lat="43.03207" lon="2.43597">
        <ele>523.3</ele>
        <time>2021-03-21T06:58:10Z</time>
      </trkpt>
      <trkpt lat="43.03208" lon="2.43606">
        <ele>523.8</ele>
        <time>2021-03-21T06:58:12Z</time>
      </trkpt>
      <trkpt lat="43.03208" lon="2.43611">
        <ele>524.1</ele>
        <time>2021-03-21T06:58:13Z</time>
      </trkpt>
      <trkpt lat="43.03208" lon="2.4362">
        <ele>524.6</ele>
        <time>2021-03-21T06:58:15Z</time>
      </trkpt>
      <trkpt lat="43.03209" lon="2.43626">
        <ele>524.9</ele>
        <time>2021-03-21T06:58:16Z</time>
      </trkpt>
      <trkpt lat="43.03209" lon="2.43631">
        <ele>525.2</ele>
        <time>2021-03-21T06:58:17Z</time>
      </trkpt>
      <trkpt lat="43.03209" lon="2.43638">
        <ele>525.6</ele>
        <time>2021-03-21T06:58:19Z</time>
      </trkpt>
      <trkpt lat="43.03209" lon="2.43643">
        <ele>525.9</ele>
        <time>2021-03-21T06:58:20Z</time>
      </trkpt>
      <trkpt lat="43.03209" lon="2.43648">
        <ele>526.1</ele>
        <time>2021-03-21T06:58:21Z</time>
      </trkpt>
      <trkpt lat="43.03209" lon="2.43654">
        <ele>526.5</ele>
        <time>2021-03-21T06:58:22Z</time>
      </trkpt>
      <trkpt lat="43.03208" lon="2.43659">
        <ele>526.8</ele>
        <time>2021-03-21T06:58:24Z</time>
      </trkpt>
      <trkpt lat="43.03208" lon="2.43667">
        <ele>527.2</ele>
        <time>2021-03-21T06:58:25Z</time>
      </trkpt>
      <trkpt lat="43.03207" lon="2.43673">
        <ele>527.6</ele>
        <time>2021-03-21T06:58:27Z</time>
      </trkpt>
      <trkpt lat="43.03206" lon="2.43679">
        <ele>527.9</ele>
        <time>2021-03-21T06:58:28Z</time>
      </trkpt>
      <trkpt lat="43.03206" lon="2.43685">
        <ele>528.3</ele>
        <time>2021-03-21T06:58:29Z</time>
      </trkpt>
      <trkpt lat="43.03205" lon="2.43691">
        <ele>528.6</ele>
        <time>2021-03-21T06:58:30Z</time>
      </trkpt>
      <trkpt lat="43.03204" lon="2.43696">
        <ele>528.9</ele>
        <time>2021-03-21T06:58:31Z</time>
      </trkpt>
      <trkpt lat="43.03203" lon="2.43702">
        <ele>529.3</ele>
        <time>2021-03-21T06:58:33Z</time>
      </trkpt>
      <trkpt lat="43.03201" lon="2.43708">
        <ele>529.6</ele>
        <time>2021-03-21T06:58:34Z</time>
      </trkpt>
      <trkpt lat="43.032" lon="2.43712">
        <ele>529.9</ele>
        <time>2021-03-21T06:58:35Z</time>
      </trkpt>
      <trkpt lat="43.03199" lon="2.43717">
        <ele>530.1</ele>
        <time>2021-03-21T06:58:36Z</time>
      </trkpt>
      <trkpt lat="43.03198" lon="2.43722">
        <ele>530.4</ele>
        <time>2021-03-21T06:58:37Z</time>
      </trkpt>
      <trkpt lat="43.03197" lon="2.43728">
        <ele>530.7</ele>
        <time>2021-03-21T06:58:39Z</time>
      </trkpt>
      <trkpt lat="43.03195" lon="2.43734">
        <ele>531.1</ele>
        <time>2021-03-21T06:58:40Z</time>
      </trkpt>
      <trkpt lat="43.03193" lon="2.43738">
        <ele>531.4</ele>
        <time>2021-03-21T06:58:41Z</time>
      </trkpt>
      <trkpt lat="43.03191" lon="2.43742">
        <ele>531.7</ele>
        <time>2021-03-21T06:58:42Z</time>
      </trkpt>
      <trkpt lat="43.0319" lon="2.43745">
        <ele>531.9</ele>
        <time>2021-03-21T06:58:43Z</time>
      </trkpt>
      <trkpt lat="43.03187" lon="2.4375">
        <ele>532.3</ele>
        <time>2021-03-21T06:58:45Z</time>
      </trkpt>
      <trkpt lat="43.03183" lon="2.43755">
        <ele>532.7</ele>
        <time>2021-03-21T06:58:46Z</time>
      </trkpt>
      <trkpt lat="43.0318" lon="2.43757">
        <ele>533</ele>
        <time>2021-03-21T06:58:47Z</time>
      </trkpt>
      <trkpt lat="43.03174" lon="2.43759">
        <ele>533.4</ele>
        <time>2021-03-21T06:58:49Z</time>
      </trkpt>
      <trkpt lat="43.0317" lon="2.43761">
        <ele>533.8</ele>
        <time>2021-03-21T06:58:50Z</time>
      </trkpt>
      <trkpt lat="43.03164" lon="2.43764">
        <ele>534.3</ele>
        <time>2021-03-21T06:58:52Z</time>
      </trkpt>
      <trkpt lat="43.03159" lon="2.43766">
        <ele>534.7</ele>
        <time>2021-03-21T06:58:53Z</time>
      </trkpt>
      <trkpt lat="43.03156" lon="2.43769">
        <ele>535</ele>
        <time>2021-03-21T06:58:54Z</time>
      </trkpt>
      <trkpt lat="43.03153" lon="2.43772">
        <ele>535.4</ele>
        <time>2021-03-21T06:58:55Z</time>
      </trkpt>
      <trkpt lat="43.0315" lon="2.43776">
        <ele>535.7</ele>
        <time>2021-03-21T06:58:56Z</time>
      </trkpt>
      <trkpt lat="43.03147" lon="2.4378">
        <ele>536</ele>
        <time>2021-03-21T06:58:58Z</time>
      </trkpt>
      <trkpt lat="43.03145" lon="2.43784">
        <ele>536.3</ele>
        <time>2021-03-21T06:58:59Z</time>
      </trkpt>
      <trkpt lat="43.03143" lon="2.43789">
        <ele>536.7</ele>
        <time>2021-03-21T06:59:00Z</time>
      </trkpt>
      <trkpt lat="43.03141" lon="2.43793">
        <ele>537</ele>
        <time>2021-03-21T06:59:01Z</time>
      </trkpt>
      <trkpt lat="43.03139" lon="2.43797">
        <ele>537.3</ele>
        <time>2021-03-21T06:59:02Z</time>
      </trkpt>
      <trkpt lat="43.03138" lon="2.43801">
        <ele>537.5</ele>
        <time>2021-03-21T06:59:03Z</time>
      </trkpt>
      <trkpt lat="43.03135" lon="2.43806">
        <ele>538</ele>
        <time>2021-03-21T06:59:05Z</time>
      </trkpt>
      <trkpt lat="43.03132" lon="2.43811">
        <ele>538.3</ele>
        <time>2021-03-21T06:59:06Z</time>
      </trkpt>
      <trkpt lat="43.03129" lon="2.43817">
        <ele>538.8</ele>
        <time>2021-03-21T06:59:08Z</time>
      </trkpt>
      <trkpt lat="43.03127" lon="2.43821">
        <ele>539.1</ele>
        <time>2021-03-21T06:59:09Z</time>
      </trkpt>
      <trkpt lat="43.03125" lon="2.43825">
        <ele>539.4</ele>
        <time>2021-03-21T06:59:10Z</time>
      </trkpt>
      <trkpt lat="43.03122" lon="2.43831">
        <ele>539.9</ele>
        <time>2021-03-21T06:59:12Z</time>
      </trkpt>
      <trkpt lat="43.03119" lon="2.43836">
        <ele>540.2</ele>
        <time>2021-03-21T06:59:13Z</time>
      </trkpt>
      <trkpt lat="43.03117" lon="2.4384">
        <ele>540.5</ele>
        <time>2021-03-21T06:59:14Z</time>
      </trkpt>
      <trkpt lat="43.03114" lon="2.43846">
        <ele>540.9</ele>
        <time>2021-03-21T06:59:16Z</time>
      </trkpt>
      <trkpt lat="43.03111" lon="2.4385">
        <ele>541.3</ele>
        <time>2021-03-21T06:59:17Z</time>
      </trkpt>
      <trkpt lat="43.03109" lon="2.43855">
        <ele>541.6</ele>
        <time>2021-03-21T06:59:19Z</time>
      </trkpt>
      <trkpt lat="43.03106" lon="2.43859">
        <ele>541.9</ele>
        <time>2021-03-21T06:59:20Z</time>
      </trkpt>
      <trkpt lat="43.03104" lon="2.43862">
        <ele>542.2</ele>
        <time>2021-03-21T06:59:21Z</time>
      </trkpt>
      <trkpt lat="43.03101" lon="2.43867">
        <ele>542.5</ele>
        <time>2021-03-21T06:59:22Z</time>
      </trkpt>
      <trkpt lat="43.03099" lon="2.4387">
        <ele>542.8</ele>
        <time>2021-03-21T06:59:23Z</time>
      </trkpt>
      <trkpt lat="43.03096" lon="2.43875">
        <ele>543.1</ele>
        <time>2021-03-21T06:59:24Z</time>
      </trkpt>
      <trkpt lat="43.03093" lon="2.4388">
        <ele>543.5</ele>
        <time>2021-03-21T06:59:26Z</time>
      </trkpt>
      <trkpt lat="43.03091" lon="2.43884">
        <ele>543.9</ele>
        <time>2021-03-21T06:59:27Z</time>
      </trkpt>
      <trkpt lat="43.03088" lon="2.43889">
        <ele>544.2</ele>
        <time>2021-03-21T06:59:28Z</time>
      </trkpt>
      <trkpt lat="43.03085" lon="2.43894">
        <ele>544.7</ele>
        <time>2021-03-21T06:59:30Z</time>
      </trkpt>
      <trkpt lat="43.03083" lon="2.43898">
        <ele>545</ele>
        <time>2021-03-21T06:59:31Z</time>
      </trkpt>
      <trkpt lat="43.03081" lon="2.43901">
        <ele>545.2</ele>
        <time>2021-03-21T06:59:32Z</time>
      </trkpt>
      <trkpt lat="43.03077" lon="2.43908">
        <ele>545.7</ele>
        <time>2021-03-21T06:59:34Z</time>
      </trkpt>
      <trkpt lat="43.03074" lon="2.43912">
        <ele>546.1</ele>
        <time>2021-03-21T06:59:35Z</time>
      </trkpt>
      <trkpt lat="43.03072" lon="2.43917">
        <ele>546.4</ele>
        <time>2021-03-21T06:59:37Z</time>
      </trkpt>
      <trkpt lat="43.03069" lon="2.43921">
        <ele>546.7</ele>
        <time>2021-03-21T06:59:38Z</time>
      </trkpt>
      <trkpt lat="43.03067" lon="2.43926">
        <ele>547.1</ele>
        <time>2021-03-21T06:59:39Z</time>
      </trkpt>
      <trkpt lat="43.03064" lon="2.43931">
        <ele>547.4</ele>
        <time>2021-03-21T06:59:40Z</time>
      </trkpt>
      <trkpt lat="43.03062" lon="2.43935">
        <ele>547.7</ele>
        <time>2021-03-21T06:59:41Z</time>
      </trkpt>
      <trkpt lat="43.03057" lon="2.43943">
        <ele>548.4</ele>
        <time>2021-03-21T06:59:43Z</time>
      </trkpt>
      <trkpt lat="43.03054" lon="2.43948">
        <ele>548.9</ele>
        <time>2021-03-21T06:59:45Z</time>
      </trkpt>
      <trkpt lat="43.03051" lon="2.43952">
        <ele>549.2</ele>
        <time>2021-03-21T06:59:46Z</time>
      </trkpt>
      <trkpt lat="43.03048" lon="2.43955">
        <ele>549.5</ele>
        <time>2021-03-21T06:59:47Z</time>
      </trkpt>
      <trkpt lat="43.03045" lon="2.43957">
        <ele>549.8</ele>
        <time>2021-03-21T06:59:48Z</time>
      </trkpt>
      <trkpt lat="43.03041" lon="2.4396">
        <ele>550.2</ele>
        <time>2021-03-21T06:59:49Z</time>
      </trkpt>
      <trkpt lat="43.03038" lon="2.43961">
        <ele>550.5</ele>
        <time>2021-03-21T06:59:50Z</time>
      </trkpt>
      <trkpt lat="43.03034" lon="2.43961">
        <ele>550.8</ele>
        <time>2021-03-21T06:59:51Z</time>
      </trkpt>
      <trkpt lat="43.03031" lon="2.43961">
        <ele>551.1</ele>
        <time>2021-03-21T06:59:52Z</time>
      </trkpt>
      <trkpt lat="43.03027" lon="2.43961">
        <ele>551.5</ele>
        <time>2021-03-21T06:59:54Z</time>
      </trkpt>
      <trkpt lat="43.03023" lon="2.43957">
        <ele>551.8</ele>
        <time>2021-03-21T06:59:55Z</time>
      </trkpt>
      <trkpt lat="43.03021" lon="2.43953">
        <ele>552.2</ele>
        <time>2021-03-21T06:59:56Z</time>
      </trkpt>
      <trkpt lat="43.03019" lon="2.43947">
        <ele>552.6</ele>
        <time>2021-03-21T06:59:58Z</time>
      </trkpt>
      <trkpt lat="43.03018" lon="2.43941">
        <ele>552.9</ele>
        <time>2021-03-21T06:59:59Z</time>
      </trkpt>
      <trkpt lat="43.03016" lon="2.43934">
        <ele>553.4</ele>
        <time>2021-03-21T07:00:01Z</time>
      </trkpt>
      <trkpt lat="43.03014" lon="2.43928">
        <ele>553.8</ele>
        <time>2021-03-21T07:00:03Z</time>
      </trkpt>
      <trkpt lat="43.03011" lon="2.43921">
        <ele>554.2</ele>
        <time>2021-03-21T07:00:04Z</time>
      </trkpt>
      <trkpt lat="43.03009" lon="2.43917">
        <ele>554.5</ele>
        <time>2021-03-21T07:00:05Z</time>
      </trkpt>
      <trkpt lat="43.03008" lon="2.43912">
        <ele>554.8</ele>
        <time>2021-03-21T07:00:07Z</time>
      </trkpt>
      <trkpt lat="43.03007" lon="2.43907">
        <ele>555.2</ele>
        <time>2021-03-21T07:00:08Z</time>
      </trkpt>
      <trkpt lat="43.03005" lon="2.43898">
        <ele>555.7</ele>
        <time>2021-03-21T07:00:10Z</time>
      </trkpt>
      <trkpt lat="43.03003" lon="2.43893">
        <ele>556</ele>
        <time>2021-03-21T07:00:11Z</time>
      </trkpt>
      <trkpt lat="43.03001" lon="2.43887">
        <ele>556.4</ele>
        <time>2021-03-21T07:00:13Z</time>
      </trkpt>
      <trkpt lat="43.02999" lon="2.43878">
        <ele>556.9</ele>
        <time>2021-03-21T07:00:15Z</time>
      </trkpt>
      <trkpt lat="43.02998" lon="2.43872">
        <ele>557.2</ele>
        <time>2021-03-21T07:00:16Z</time>
      </trkpt>
      <trkpt lat="43.02996" lon="2.43866">
        <ele>557.7</ele>
        <time>2021-03-21T07:00:18Z</time>
      </trkpt>
      <trkpt lat="43.02994" lon="2.43861">
        <ele>558</ele>
        <time>2021-03-21T07:00:19Z</time>
      </trkpt>
      <trkpt lat="43.02992" lon="2.43855">
        <ele>558.4</ele>
        <time>2021-03-21T07:00:21Z</time>
      </trkpt>
      <trkpt lat="43.0299" lon="2.4385">
        <ele>558.7</ele>
        <time>2021-03-21T07:00:22Z</time>
      </trkpt>
      <trkpt lat="43.02988" lon="2.43845">
        <ele>559.1</ele>
        <time>2021-03-21T07:00:24Z</time>
      </trkpt>
      <trkpt lat="43.02987" lon="2.43844">
        <ele>559.2</ele>
        <time>2021-03-21T07:00:25Z</time>
      </trkpt>
      <trkpt lat="43.02986" lon="2.43843">
        <ele>559.3</ele>
        <time>2021-03-21T07:00:26Z</time>
      </trkpt>
      <trkpt lat="43.02984" lon="2.43843">
        <ele>559.4</ele>
        <time>2021-03-21T07:00:28Z</time>
      </trkpt>
      <trkpt lat="43.02983" lon="2.43843">
        <ele>559.5</ele>
        <time>2021-03-21T07:00:29Z</time>
      </trkpt>
      <trkpt lat="43.02982" lon="2.43843">
        <ele>559.6</ele>
        <time>2021-03-21T07:00:30Z</time>
      </trkpt>
      <trkpt lat="43.02974" lon="2.43849">
        <ele>560.3</ele>
        <time>2021-03-21T07:00:32Z</time>
      </trkpt>
      <trkpt lat="43.02969" lon="2.43858">
        <ele>560.8</ele>
        <time>2021-03-21T07:00:34Z</time>
      </trkpt>
      <trkpt lat="43.02963" lon="2.43864">
        <ele>561</ele>
        <time>2021-03-21T07:00:35Z</time>
      </trkpt>
      <trkpt lat="43.0296" lon="2.43871">
        <ele>561.2</ele>
        <time>2021-03-21T07:00:36Z</time>
      </trkpt>
      <trkpt lat="43.02958" lon="2.43878">
        <ele>561.3</ele>
        <time>2021-03-21T07:00:37Z</time>
      </trkpt>
      <trkpt lat="43.02956" lon="2.43892">
        <ele>561.4</ele>
        <time>2021-03-21T07:00:39Z</time>
      </trkpt>
      <trkpt lat="43.02955" lon="2.439">
        <ele>561.5</ele>
        <time>2021-03-21T07:00:40Z</time>
      </trkpt>
      <trkpt lat="43.02952" lon="2.43916">
        <ele>561.5</ele>
        <time>2021-03-21T07:00:42Z</time>
      </trkpt>
      <trkpt lat="43.0295" lon="2.43924">
        <ele>561.5</ele>
        <time>2021-03-21T07:00:43Z</time>
      </trkpt>
      <trkpt lat="43.02948" lon="2.43932">
        <ele>561.5</ele>
        <time>2021-03-21T07:00:44Z</time>
      </trkpt>
      <trkpt lat="43.02945" lon="2.4394">
        <ele>561.4</ele>
        <time>2021-03-21T07:00:45Z</time>
      </trkpt>
      <trkpt lat="43.02943" lon="2.43949">
        <ele>561.3</ele>
        <time>2021-03-21T07:00:46Z</time>
      </trkpt>
      <trkpt lat="43.02938" lon="2.43966">
        <ele>561.2</ele>
        <time>2021-03-21T07:00:48Z</time>
      </trkpt>
      <trkpt lat="43.02936" lon="2.43975">
        <ele>561.2</ele>
        <time>2021-03-21T07:00:49Z</time>
      </trkpt>
      <trkpt lat="43.02931" lon="2.43993">
        <ele>561</ele>
        <time>2021-03-21T07:00:51Z</time>
      </trkpt>
      <trkpt lat="43.02928" lon="2.44002">
        <ele>560.9</ele>
        <time>2021-03-21T07:00:52Z</time>
      </trkpt>
      <trkpt lat="43.02923" lon="2.4402">
        <ele>560.8</ele>
        <time>2021-03-21T07:00:54Z</time>
      </trkpt>
      <trkpt lat="43.0292" lon="2.44029">
        <ele>560.7</ele>
        <time>2021-03-21T07:00:55Z</time>
      </trkpt>
      <trkpt lat="43.02914" lon="2.44048">
        <ele>560.6</ele>
        <time>2021-03-21T07:00:57Z</time>
      </trkpt>
      <trkpt lat="43.02912" lon="2.44057">
        <ele>560.5</ele>
        <time>2021-03-21T07:00:58Z</time>
      </trkpt>
      <trkpt lat="43.0291" lon="2.44066">
        <ele>560.5</ele>
        <time>2021-03-21T07:00:59Z</time>
      </trkpt>
      <trkpt lat="43.02909" lon="2.44076">
        <ele>560.4</ele>
        <time>2021-03-21T07:01:00Z</time>
      </trkpt>
      <trkpt lat="43.02909" lon="2.44095">
        <ele>560.4</ele>
        <time>2021-03-21T07:01:02Z</time>
      </trkpt>
      <trkpt lat="43.02909" lon="2.44105">
        <ele>560.3</ele>
        <time>2021-03-21T07:01:03Z</time>
      </trkpt>
      <trkpt lat="43.02912" lon="2.44124">
        <ele>560.2</ele>
        <time>2021-03-21T07:01:05Z</time>
      </trkpt>
      <trkpt lat="43.02914" lon="2.44144">
        <ele>560.1</ele>
        <time>2021-03-21T07:01:07Z</time>
      </trkpt>
      <trkpt lat="43.02913" lon="2.44155">
        <ele>560</ele>
        <time>2021-03-21T07:01:08Z</time>
      </trkpt>
      <trkpt lat="43.02904" lon="2.44172">
        <ele>559.9</ele>
        <time>2021-03-21T07:01:10Z</time>
      </trkpt>
      <trkpt lat="43.02889" lon="2.44181">
        <ele>559.7</ele>
        <time>2021-03-21T07:01:12Z</time>
      </trkpt>
      <trkpt lat="43.02876" lon="2.4419">
        <ele>559.6</ele>
        <time>2021-03-21T07:01:14Z</time>
      </trkpt>
      <trkpt lat="43.02871" lon="2.44196">
        <ele>559.5</ele>
        <time>2021-03-21T07:01:15Z</time>
      </trkpt>
      <trkpt lat="43.02863" lon="2.44214">
        <ele>559.4</ele>
        <time>2021-03-21T07:01:17Z</time>
      </trkpt>
      <trkpt lat="43.02861" lon="2.44224">
        <ele>559.3</ele>
        <time>2021-03-21T07:01:18Z</time>
      </trkpt>
      <trkpt lat="43.02857" lon="2.44245">
        <ele>559.2</ele>
        <time>2021-03-21T07:01:20Z</time>
      </trkpt>
      <trkpt lat="43.02854" lon="2.44265">
        <ele>559.1</ele>
        <time>2021-03-21T07:01:22Z</time>
      </trkpt>
      <trkpt lat="43.02852" lon="2.44276">
        <ele>559</ele>
        <time>2021-03-21T07:01:23Z</time>
      </trkpt>
      <trkpt lat="43.02849" lon="2.44286">
        <ele>559</ele>
        <time>2021-03-21T07:01:24Z</time>
      </trkpt>
      <trkpt lat="43.02844" lon="2.44304">
        <ele>558.9</ele>
        <time>2021-03-21T07:01:26Z</time>
      </trkpt>
      <trkpt lat="43.02841" lon="2.44314">
        <ele>558.9</ele>
        <time>2021-03-21T07:01:27Z</time>
      </trkpt>
      <trkpt lat="43.02833" lon="2.44332">
        <ele>558.8</ele>
        <time>2021-03-21T07:01:29Z</time>
      </trkpt>
      <trkpt lat="43.0283" lon="2.44341">
        <ele>558.8</ele>
        <time>2021-03-21T07:01:30Z</time>
      </trkpt>
      <trkpt lat="43.02826" lon="2.4435">
        <ele>558.9</ele>
        <time>2021-03-21T07:01:31Z</time>
      </trkpt>
      <trkpt lat="43.02822" lon="2.44359">
        <ele>558.9</ele>
        <time>2021-03-21T07:01:32Z</time>
      </trkpt>
      <trkpt lat="43.02815" lon="2.44377">
        <ele>558.7</ele>
        <time>2021-03-21T07:01:34Z</time>
      </trkpt>
      <trkpt lat="43.02811" lon="2.44386">
        <ele>558.6</ele>
        <time>2021-03-21T07:01:35Z</time>
      </trkpt>
      <trkpt lat="43.02803" lon="2.44403">
        <ele>558.3</ele>
        <time>2021-03-21T07:01:37Z</time>
      </trkpt>
      <trkpt lat="43.02794" lon="2.4442">
        <ele>558</ele>
        <time>2021-03-21T07:01:39Z</time>
      </trkpt>
      <trkpt lat="43.02784" lon="2.44436">
        <ele>557.9</ele>
        <time>2021-03-21T07:01:41Z</time>
      </trkpt>
      <trkpt lat="43.02778" lon="2.44443">
        <ele>557.8</ele>
        <time>2021-03-21T07:01:42Z</time>
      </trkpt>
      <trkpt lat="43.02768" lon="2.44458">
        <ele>557.7</ele>
        <time>2021-03-21T07:01:44Z</time>
      </trkpt>
      <trkpt lat="43.02762" lon="2.44465">
        <ele>557.6</ele>
        <time>2021-03-21T07:01:45Z</time>
      </trkpt>
      <trkpt lat="43.02757" lon="2.44473">
        <ele>557.5</ele>
        <time>2021-03-21T07:01:46Z</time>
      </trkpt>
      <trkpt lat="43.02747" lon="2.44489">
        <ele>557.4</ele>
        <time>2021-03-21T07:01:48Z</time>
      </trkpt>
      <trkpt lat="43.02739" lon="2.44508">
        <ele>557.3</ele>
        <time>2021-03-21T07:01:50Z</time>
      </trkpt>
      <trkpt lat="43.02733" lon="2.44529">
        <ele>557</ele>
        <time>2021-03-21T07:01:52Z</time>
      </trkpt>
      <trkpt lat="43.0273" lon="2.44551">
        <ele>556.9</ele>
        <time>2021-03-21T07:01:54Z</time>
      </trkpt>
      <trkpt lat="43.02728" lon="2.44562">
        <ele>556.8</ele>
        <time>2021-03-21T07:01:55Z</time>
      </trkpt>
      <trkpt lat="43.02725" lon="2.44584">
        <ele>556.8</ele>
        <time>2021-03-21T07:01:57Z</time>
      </trkpt>
      <trkpt lat="43.02723" lon="2.44605">
        <ele>556.7</ele>
        <time>2021-03-21T07:01:59Z</time>
      </trkpt>
      <trkpt lat="43.02724" lon="2.44616">
        <ele>556.8</ele>
        <time>2021-03-21T07:02:00Z</time>
      </trkpt>
      <trkpt lat="43.02728" lon="2.44637">
        <ele>556.9</ele>
        <time>2021-03-21T07:02:02Z</time>
      </trkpt>
      <trkpt lat="43.02735" lon="2.44655">
        <ele>557.3</ele>
        <time>2021-03-21T07:02:04Z</time>
      </trkpt>
      <trkpt lat="43.02739" lon="2.44664">
        <ele>557.6</ele>
        <time>2021-03-21T07:02:05Z</time>
      </trkpt>
      <trkpt lat="43.02742" lon="2.44672">
        <ele>557.9</ele>
        <time>2021-03-21T07:02:06Z</time>
      </trkpt>
      <trkpt lat="43.02743" lon="2.44689">
        <ele>558.4</ele>
        <time>2021-03-21T07:02:08Z</time>
      </trkpt>
      <trkpt lat="43.0274" lon="2.44698">
        <ele>558.8</ele>
        <time>2021-03-21T07:02:09Z</time>
      </trkpt>
      <trkpt lat="43.02736" lon="2.44705">
        <ele>559.1</ele>
        <time>2021-03-21T07:02:10Z</time>
      </trkpt>
      <trkpt lat="43.02726" lon="2.44717">
        <ele>559.7</ele>
        <time>2021-03-21T07:02:12Z</time>
      </trkpt>
      <trkpt lat="43.02721" lon="2.44721">
        <ele>560</ele>
        <time>2021-03-21T07:02:13Z</time>
      </trkpt>
      <trkpt lat="43.02713" lon="2.4473">
        <ele>560.6</ele>
        <time>2021-03-21T07:02:15Z</time>
      </trkpt>
      <trkpt lat="43.02707" lon="2.44741">
        <ele>561.1</ele>
        <time>2021-03-21T07:02:17Z</time>
      </trkpt>
      <trkpt lat="43.02705" lon="2.44747">
        <ele>561.3</ele>
        <time>2021-03-21T07:02:18Z</time>
      </trkpt>
      <trkpt lat="43.02701" lon="2.44759">
        <ele>561.9</ele>
        <time>2021-03-21T07:02:20Z</time>
      </trkpt>
      <trkpt lat="43.02699" lon="2.44766">
        <ele>562.2</ele>
        <time>2021-03-21T07:02:21Z</time>
      </trkpt>
      <trkpt lat="43.02697" lon="2.44779">
        <ele>562.8</ele>
        <time>2021-03-21T07:02:23Z</time>
      </trkpt>
      <trkpt lat="43.02696" lon="2.44785">
        <ele>563.1</ele>
        <time>2021-03-21T07:02:24Z</time>
      </trkpt>
      <trkpt lat="43.02695" lon="2.44792">
        <ele>563.4</ele>
        <time>2021-03-21T07:02:25Z</time>
      </trkpt>
      <trkpt lat="43.02693" lon="2.44805">
        <ele>564.1</ele>
        <time>2021-03-21T07:02:27Z</time>
      </trkpt>
      <trkpt lat="43.02691" lon="2.44818">
        <ele>564.7</ele>
        <time>2021-03-21T07:02:29Z</time>
      </trkpt>
      <trkpt lat="43.0269" lon="2.44825">
        <ele>565</ele>
        <time>2021-03-21T07:02:30Z</time>
      </trkpt>
      <trkpt lat="43.02688" lon="2.44837">
        <ele>565.6</ele>
        <time>2021-03-21T07:02:32Z</time>
      </trkpt>
      <trkpt lat="43.02688" lon="2.44842">
        <ele>565.8</ele>
        <time>2021-03-21T07:02:33Z</time>
      </trkpt>
      <trkpt lat="43.02687" lon="2.44848">
        <ele>566.1</ele>
        <time>2021-03-21T07:02:34Z</time>
      </trkpt>
      <trkpt lat="43.02686" lon="2.44854">
        <ele>566.4</ele>
        <time>2021-03-21T07:02:35Z</time>
      </trkpt>
      <trkpt lat="43.02683" lon="2.44867">
        <ele>567</ele>
        <time>2021-03-21T07:02:37Z</time>
      </trkpt>
      <trkpt lat="43.02682" lon="2.4488">
        <ele>567.6</ele>
        <time>2021-03-21T07:02:39Z</time>
      </trkpt>
      <trkpt lat="43.02681" lon="2.44886">
        <ele>567.9</ele>
        <time>2021-03-21T07:02:40Z</time>
      </trkpt>
      <trkpt lat="43.02679" lon="2.44899">
        <ele>568.5</ele>
        <time>2021-03-21T07:02:42Z</time>
      </trkpt>
      <trkpt lat="43.02678" lon="2.44905">
        <ele>568.7</ele>
        <time>2021-03-21T07:02:43Z</time>
      </trkpt>
      <trkpt lat="43.02678" lon="2.44911">
        <ele>569</ele>
        <time>2021-03-21T07:02:44Z</time>
      </trkpt>
      <trkpt lat="43.02678" lon="2.44921">
        <ele>569.4</ele>
        <time>2021-03-21T07:02:46Z</time>
      </trkpt>
      <trkpt lat="43.02678" lon="2.44927">
        <ele>569.6</ele>
        <time>2021-03-21T07:02:47Z</time>
      </trkpt>
      <trkpt lat="43.02677" lon="2.44932">
        <ele>569.8</ele>
        <time>2021-03-21T07:02:48Z</time>
      </trkpt>
      <trkpt lat="43.02673" lon="2.44942">
        <ele>570.3</ele>
        <time>2021-03-21T07:02:50Z</time>
      </trkpt>
      <trkpt lat="43.02671" lon="2.44956">
        <ele>570.8</ele>
        <time>2021-03-21T07:02:52Z</time>
      </trkpt>
      <trkpt lat="43.02675" lon="2.44958">
        <ele>571</ele>
        <time>2021-03-21T07:02:54Z</time>
      </trkpt>
      <trkpt lat="43.02677" lon="2.4496">
        <ele>571.1</ele>
        <time>2021-03-21T07:02:55Z</time>
      </trkpt>
      <trkpt lat="43.02676" lon="2.44964">
        <ele>571.3</ele>
        <time>2021-03-21T07:02:56Z</time>
      </trkpt>
      <trkpt lat="43.0267" lon="2.44977">
        <ele>571.9</ele>
        <time>2021-03-21T07:02:58Z</time>
      </trkpt>
      <trkpt lat="43.02665" lon="2.4498">
        <ele>572.3</ele>
        <time>2021-03-21T07:02:59Z</time>
      </trkpt>
      <trkpt lat="43.02659" lon="2.44988">
        <ele>572.8</ele>
        <time>2021-03-21T07:03:01Z</time>
      </trkpt>
      <trkpt lat="43.02657" lon="2.44993">
        <ele>573</ele>
        <time>2021-03-21T07:03:02Z</time>
      </trkpt>
      <trkpt lat="43.02655" lon="2.44999">
        <ele>573.4</ele>
        <time>2021-03-21T07:03:03Z</time>
      </trkpt>
      <trkpt lat="43.02653" lon="2.45006">
        <ele>573.7</ele>
        <time>2021-03-21T07:03:04Z</time>
      </trkpt>
      <trkpt lat="43.02649" lon="2.45015">
        <ele>574.2</ele>
        <time>2021-03-21T07:03:05Z</time>
      </trkpt>
      <trkpt lat="43.02647" lon="2.45022">
        <ele>574.5</ele>
        <time>2021-03-21T07:03:07Z</time>
      </trkpt>
      <trkpt lat="43.02645" lon="2.45029">
        <ele>574.9</ele>
        <time>2021-03-21T07:03:08Z</time>
      </trkpt>
      <trkpt lat="43.02643" lon="2.45034">
        <ele>575.1</ele>
        <time>2021-03-21T07:03:09Z</time>
      </trkpt>
      <trkpt lat="43.02639" lon="2.45045">
        <ele>575.7</ele>
        <time>2021-03-21T07:03:11Z</time>
      </trkpt>
      <trkpt lat="43.02637" lon="2.45052">
        <ele>576</ele>
        <time>2021-03-21T07:03:12Z</time>
      </trkpt>
      <trkpt lat="43.02634" lon="2.45059">
        <ele>576.4</ele>
        <time>2021-03-21T07:03:13Z</time>
      </trkpt>
      <trkpt lat="43.02632" lon="2.45065">
        <ele>576.7</ele>
        <time>2021-03-21T07:03:14Z</time>
      </trkpt>
      <trkpt lat="43.02628" lon="2.45077">
        <ele>577.3</ele>
        <time>2021-03-21T07:03:16Z</time>
      </trkpt>
      <trkpt lat="43.02626" lon="2.45084">
        <ele>577.6</ele>
        <time>2021-03-21T07:03:17Z</time>
      </trkpt>
      <trkpt lat="43.02625" lon="2.45089">
        <ele>577.8</ele>
        <time>2021-03-21T07:03:18Z</time>
      </trkpt>
      <trkpt lat="43.02623" lon="2.45096">
        <ele>578.1</ele>
        <time>2021-03-21T07:03:19Z</time>
      </trkpt>
      <trkpt lat="43.0262" lon="2.45106">
        <ele>578.6</ele>
        <time>2021-03-21T07:03:21Z</time>
      </trkpt>
      <trkpt lat="43.02619" lon="2.45111">
        <ele>578.8</ele>
        <time>2021-03-21T07:03:22Z</time>
      </trkpt>
      <trkpt lat="43.02617" lon="2.45118">
        <ele>579.2</ele>
        <time>2021-03-21T07:03:23Z</time>
      </trkpt>
      <trkpt lat="43.02616" lon="2.45123">
        <ele>579.4</ele>
        <time>2021-03-21T07:03:24Z</time>
      </trkpt>
      <trkpt lat="43.02613" lon="2.45132">
        <ele>579.9</ele>
        <time>2021-03-21T07:03:26Z</time>
      </trkpt>
      <trkpt lat="43.02612" lon="2.45138">
        <ele>580.1</ele>
        <time>2021-03-21T07:03:27Z</time>
      </trkpt>
      <trkpt lat="43.02609" lon="2.45146">
        <ele>580.5</ele>
        <time>2021-03-21T07:03:28Z</time>
      </trkpt>
      <trkpt lat="43.02607" lon="2.45151">
        <ele>580.8</ele>
        <time>2021-03-21T07:03:29Z</time>
      </trkpt>
      <trkpt lat="43.02603" lon="2.45163">
        <ele>581.3</ele>
        <time>2021-03-21T07:03:31Z</time>
      </trkpt>
      <trkpt lat="43.02601" lon="2.45169">
        <ele>581.6</ele>
        <time>2021-03-21T07:03:32Z</time>
      </trkpt>
      <trkpt lat="43.026" lon="2.45171">
        <ele>581.7</ele>
        <time>2021-03-21T07:03:33Z</time>
      </trkpt>
      <trkpt lat="43.02598" lon="2.45176">
        <ele>582</ele>
        <time>2021-03-21T07:03:34Z</time>
      </trkpt>
      <trkpt lat="43.02594" lon="2.45187">
        <ele>582.5</ele>
        <time>2021-03-21T07:03:36Z</time>
      </trkpt>
      <trkpt lat="43.02592" lon="2.45193">
        <ele>582.8</ele>
        <time>2021-03-21T07:03:37Z</time>
      </trkpt>
      <trkpt lat="43.02588" lon="2.45206">
        <ele>583.5</ele>
        <time>2021-03-21T07:03:39Z</time>
      </trkpt>
      <trkpt lat="43.02583" lon="2.45219">
        <ele>584.1</ele>
        <time>2021-03-21T07:03:41Z</time>
      </trkpt>
      <trkpt lat="43.02581" lon="2.45225">
        <ele>584.4</ele>
        <time>2021-03-21T07:03:42Z</time>
      </trkpt>
      <trkpt lat="43.02576" lon="2.45237">
        <ele>585</ele>
        <time>2021-03-21T07:03:44Z</time>
      </trkpt>
      <trkpt lat="43.02575" lon="2.45245">
        <ele>585.3</ele>
        <time>2021-03-21T07:03:46Z</time>
      </trkpt>
      <trkpt lat="43.02574" lon="2.45251">
        <ele>585.6</ele>
        <time>2021-03-21T07:03:47Z</time>
      </trkpt>
      <trkpt lat="43.02571" lon="2.45259">
        <ele>586</ele>
        <time>2021-03-21T07:03:49Z</time>
      </trkpt>
      <trkpt lat="43.02568" lon="2.45265">
        <ele>586.3</ele>
        <time>2021-03-21T07:03:50Z</time>
      </trkpt>
      <trkpt lat="43.02564" lon="2.45272">
        <ele>586.6</ele>
        <time>2021-03-21T07:03:51Z</time>
      </trkpt>
      <trkpt lat="43.0256" lon="2.45278">
        <ele>587.1</ele>
        <time>2021-03-21T07:03:53Z</time>
      </trkpt>
      <trkpt lat="43.02556" lon="2.45286">
        <ele>587.5</ele>
        <time>2021-03-21T07:03:54Z</time>
      </trkpt>
      <trkpt lat="43.02554" lon="2.4529">
        <ele>587.7</ele>
        <time>2021-03-21T07:03:55Z</time>
      </trkpt>
      <trkpt lat="43.0255" lon="2.45298">
        <ele>588.2</ele>
        <time>2021-03-21T07:03:57Z</time>
      </trkpt>
      <trkpt lat="43.02546" lon="2.45303">
        <ele>588.5</ele>
        <time>2021-03-21T07:03:58Z</time>
      </trkpt>
      <trkpt lat="43.02543" lon="2.45308">
        <ele>588.7</ele>
        <time>2021-03-21T07:03:59Z</time>
      </trkpt>
      <trkpt lat="43.02541" lon="2.45312">
        <ele>589</ele>
        <time>2021-03-21T07:04:00Z</time>
      </trkpt>
      <trkpt lat="43.02537" lon="2.45319">
        <ele>589.3</ele>
        <time>2021-03-21T07:04:02Z</time>
      </trkpt>
      <trkpt lat="43.02533" lon="2.45325">
        <ele>589.7</ele>
        <time>2021-03-21T07:04:03Z</time>
      </trkpt>
      <trkpt lat="43.0253" lon="2.45332">
        <ele>590</ele>
        <time>2021-03-21T07:04:04Z</time>
      </trkpt>
      <trkpt lat="43.02528" lon="2.45337">
        <ele>590.3</ele>
        <time>2021-03-21T07:04:05Z</time>
      </trkpt>
      <trkpt lat="43.02525" lon="2.45343">
        <ele>590.6</ele>
        <time>2021-03-21T07:04:06Z</time>
      </trkpt>
      <trkpt lat="43.02522" lon="2.4535">
        <ele>591</ele>
        <time>2021-03-21T07:04:08Z</time>
      </trkpt>
      <trkpt lat="43.02519" lon="2.45357">
        <ele>591.4</ele>
        <time>2021-03-21T07:04:09Z</time>
      </trkpt>
      <trkpt lat="43.02516" lon="2.45362">
        <ele>591.7</ele>
        <time>2021-03-21T07:04:10Z</time>
      </trkpt>
      <trkpt lat="43.02513" lon="2.45369">
        <ele>592</ele>
        <time>2021-03-21T07:04:11Z</time>
      </trkpt>
      <trkpt lat="43.02511" lon="2.45374">
        <ele>592.3</ele>
        <time>2021-03-21T07:04:13Z</time>
      </trkpt>
      <trkpt lat="43.02509" lon="2.4538">
        <ele>592.6</ele>
        <time>2021-03-21T07:04:14Z</time>
      </trkpt>
      <trkpt lat="43.02505" lon="2.45388">
        <ele>593.1</ele>
        <time>2021-03-21T07:04:15Z</time>
      </trkpt>
      <trkpt lat="43.02503" lon="2.45393">
        <ele>593.4</ele>
        <time>2021-03-21T07:04:16Z</time>
      </trkpt>
      <trkpt lat="43.02499" lon="2.45401">
        <ele>593.8</ele>
        <time>2021-03-21T07:04:18Z</time>
      </trkpt>
      <trkpt lat="43.02496" lon="2.45408">
        <ele>594.2</ele>
        <time>2021-03-21T07:04:19Z</time>
      </trkpt>
      <trkpt lat="43.02492" lon="2.45415">
        <ele>594.5</ele>
        <time>2021-03-21T07:04:21Z</time>
      </trkpt>
      <trkpt lat="43.02489" lon="2.45421">
        <ele>594.8</ele>
        <time>2021-03-21T07:04:22Z</time>
      </trkpt>
      <trkpt lat="43.02486" lon="2.45428">
        <ele>595.1</ele>
        <time>2021-03-21T07:04:23Z</time>
      </trkpt>
      <trkpt lat="43.02479" lon="2.45439">
        <ele>595.4</ele>
        <time>2021-03-21T07:04:25Z</time>
      </trkpt>
      <trkpt lat="43.02475" lon="2.45445">
        <ele>595.4</ele>
        <time>2021-03-21T07:04:26Z</time>
      </trkpt>
      <trkpt lat="43.02466" lon="2.45455">
        <ele>595</ele>
        <time>2021-03-21T07:04:28Z</time>
      </trkpt>
      <trkpt lat="43.02461" lon="2.45459">
        <ele>594.8</ele>
        <time>2021-03-21T07:04:29Z</time>
      </trkpt>
      <trkpt lat="43.02456" lon="2.45464">
        <ele>594.5</ele>
        <time>2021-03-21T07:04:30Z</time>
      </trkpt>
      <trkpt lat="43.0245" lon="2.45468">
        <ele>594.2</ele>
        <time>2021-03-21T07:04:31Z</time>
      </trkpt>
      <trkpt lat="43.02439" lon="2.45478">
        <ele>593.4</ele>
        <time>2021-03-21T07:04:33Z</time>
      </trkpt>
      <trkpt lat="43.02433" lon="2.45484">
        <ele>592.9</ele>
        <time>2021-03-21T07:04:34Z</time>
      </trkpt>
      <trkpt lat="43.02426" lon="2.4549">
        <ele>592.5</ele>
        <time>2021-03-21T07:04:35Z</time>
      </trkpt>
      <trkpt lat="43.0242" lon="2.45498">
        <ele>591.9</ele>
        <time>2021-03-21T07:04:36Z</time>
      </trkpt>
      <trkpt lat="43.02409" lon="2.45519">
        <ele>590.7</ele>
        <time>2021-03-21T07:04:38Z</time>
      </trkpt>
      <trkpt lat="43.02403" lon="2.45545">
        <ele>589.3</ele>
        <time>2021-03-21T07:04:40Z</time>
      </trkpt>
      <trkpt lat="43.024" lon="2.45571">
        <ele>587.9</ele>
        <time>2021-03-21T07:04:42Z</time>
      </trkpt>
      <trkpt lat="43.02399" lon="2.45599">
        <ele>586.4</ele>
        <time>2021-03-21T07:04:44Z</time>
      </trkpt>
      <trkpt lat="43.024" lon="2.45614">
        <ele>585.6</ele>
        <time>2021-03-21T07:04:45Z</time>
      </trkpt>
      <trkpt lat="43.02405" lon="2.45644">
        <ele>583.9</ele>
        <time>2021-03-21T07:04:47Z</time>
      </trkpt>
      <trkpt lat="43.02406" lon="2.45659">
        <ele>583.1</ele>
        <time>2021-03-21T07:04:48Z</time>
      </trkpt>
      <trkpt lat="43.02405" lon="2.4569">
        <ele>581.5</ele>
        <time>2021-03-21T07:04:50Z</time>
      </trkpt>
      <trkpt lat="43.02402" lon="2.45706">
        <ele>580.6</ele>
        <time>2021-03-21T07:04:51Z</time>
      </trkpt>
      <trkpt lat="43.02397" lon="2.45735">
        <ele>579</ele>
        <time>2021-03-21T07:04:53Z</time>
      </trkpt>
      <trkpt lat="43.02386" lon="2.45754">
        <ele>577.8</ele>
        <time>2021-03-21T07:04:55Z</time>
      </trkpt>
      <trkpt lat="43.02377" lon="2.45758">
        <ele>577</ele>
        <time>2021-03-21T07:04:56Z</time>
      </trkpt>
      <trkpt lat="43.02368" lon="2.45759">
        <ele>576.2</ele>
        <time>2021-03-21T07:04:57Z</time>
      </trkpt>
      <trkpt lat="43.02358" lon="2.45757">
        <ele>575.4</ele>
        <time>2021-03-21T07:04:58Z</time>
      </trkpt>
      <trkpt lat="43.02348" lon="2.45759">
        <ele>574.5</ele>
        <time>2021-03-21T07:04:59Z</time>
      </trkpt>
      <trkpt lat="43.02339" lon="2.45765">
        <ele>573.6</ele>
        <time>2021-03-21T07:05:00Z</time>
      </trkpt>
      <trkpt lat="43.02325" lon="2.45786">
        <ele>571.6</ele>
        <time>2021-03-21T07:05:02Z</time>
      </trkpt>
      <trkpt lat="43.02314" lon="2.45812">
        <ele>569.4</ele>
        <time>2021-03-21T07:05:04Z</time>
      </trkpt>
      <trkpt lat="43.02308" lon="2.45825">
        <ele>568.5</ele>
        <time>2021-03-21T07:05:05Z</time>
      </trkpt>
      <trkpt lat="43.02295" lon="2.45849">
        <ele>566.7</ele>
        <time>2021-03-21T07:05:07Z</time>
      </trkpt>
      <trkpt lat="43.02288" lon="2.45861">
        <ele>565.8</ele>
        <time>2021-03-21T07:05:08Z</time>
      </trkpt>
      <trkpt lat="43.02275" lon="2.45887">
        <ele>564.1</ele>
        <time>2021-03-21T07:05:10Z</time>
      </trkpt>
      <trkpt lat="43.02265" lon="2.45918">
        <ele>562.4</ele>
        <time>2021-03-21T07:05:12Z</time>
      </trkpt>
      <trkpt lat="43.02256" lon="2.45945">
        <ele>560.7</ele>
        <time>2021-03-21T07:05:14Z</time>
      </trkpt>
      <trkpt lat="43.0224" lon="2.45963">
        <ele>559.4</ele>
        <time>2021-03-21T07:05:16Z</time>
      </trkpt>
      <trkpt lat="43.02226" lon="2.45979">
        <ele>558.1</ele>
        <time>2021-03-21T07:05:18Z</time>
      </trkpt>
      <trkpt lat="43.02219" lon="2.46005">
        <ele>556.3</ele>
        <time>2021-03-21T07:05:20Z</time>
      </trkpt>
      <trkpt lat="43.02221" lon="2.4602">
        <ele>555.3</ele>
        <time>2021-03-21T07:05:21Z</time>
      </trkpt>
      <trkpt lat="43.02232" lon="2.46048">
        <ele>553.2</ele>
        <time>2021-03-21T07:05:23Z</time>
      </trkpt>
      <trkpt lat="43.02244" lon="2.46075">
        <ele>551.1</ele>
        <time>2021-03-21T07:05:25Z</time>
      </trkpt>
      <trkpt lat="43.02249" lon="2.46089">
        <ele>550.1</ele>
        <time>2021-03-21T07:05:26Z</time>
      </trkpt>
      <trkpt lat="43.02252" lon="2.4612">
        <ele>548</ele>
        <time>2021-03-21T07:05:28Z</time>
      </trkpt>
      <trkpt lat="43.02252" lon="2.46136">
        <ele>547</ele>
        <time>2021-03-21T07:05:29Z</time>
      </trkpt>
      <trkpt lat="43.02252" lon="2.46152">
        <ele>546</ele>
        <time>2021-03-21T07:05:30Z</time>
      </trkpt>
      <trkpt lat="43.0225" lon="2.46186">
        <ele>544.1</ele>
        <time>2021-03-21T07:05:32Z</time>
      </trkpt>
      <trkpt lat="43.02247" lon="2.46203">
        <ele>543.1</ele>
        <time>2021-03-21T07:05:33Z</time>
      </trkpt>
      <trkpt lat="43.02245" lon="2.4622">
        <ele>542.1</ele>
        <time>2021-03-21T07:05:34Z</time>
      </trkpt>
      <trkpt lat="43.02241" lon="2.46257">
        <ele>540.5</ele>
        <time>2021-03-21T07:05:36Z</time>
      </trkpt>
      <trkpt lat="43.02239" lon="2.46275">
        <ele>539.7</ele>
        <time>2021-03-21T07:05:37Z</time>
      </trkpt>
      <trkpt lat="43.02235" lon="2.46308">
        <ele>537.8</ele>
        <time>2021-03-21T07:05:39Z</time>
      </trkpt>
      <trkpt lat="43.02232" lon="2.46324">
        <ele>536.9</ele>
        <time>2021-03-21T07:05:40Z</time>
      </trkpt>
      <trkpt lat="43.02226" lon="2.46356">
        <ele>535.1</ele>
        <time>2021-03-21T07:05:42Z</time>
      </trkpt>
      <trkpt lat="43.02224" lon="2.4639">
        <ele>533.4</ele>
        <time>2021-03-21T07:05:44Z</time>
      </trkpt>
      <trkpt lat="43.02226" lon="2.46424">
        <ele>531.5</ele>
        <time>2021-03-21T07:05:46Z</time>
      </trkpt>
      <trkpt lat="43.02229" lon="2.46442">
        <ele>530.3</ele>
        <time>2021-03-21T07:05:47Z</time>
      </trkpt>
      <trkpt lat="43.02234" lon="2.46459">
        <ele>529.1</ele>
        <time>2021-03-21T07:05:48Z</time>
      </trkpt>
      <trkpt lat="43.02245" lon="2.46488">
        <ele>527.1</ele>
        <time>2021-03-21T07:05:50Z</time>
      </trkpt>
      <trkpt lat="43.02255" lon="2.46517">
        <ele>525.4</ele>
        <time>2021-03-21T07:05:52Z</time>
      </trkpt>
      <trkpt lat="43.0226" lon="2.46532">
        <ele>524.7</ele>
        <time>2021-03-21T07:05:53Z</time>
      </trkpt>
      <trkpt lat="43.02263" lon="2.46548">
        <ele>523.8</ele>
        <time>2021-03-21T07:05:54Z</time>
      </trkpt>
      <trkpt lat="43.02266" lon="2.46581">
        <ele>521.8</ele>
        <time>2021-03-21T07:05:56Z</time>
      </trkpt>
      <trkpt lat="43.02266" lon="2.46599">
        <ele>520.7</ele>
        <time>2021-03-21T07:05:57Z</time>
      </trkpt>
      <trkpt lat="43.02263" lon="2.46651">
        <ele>517.9</ele>
        <time>2021-03-21T07:05:59Z</time>
      </trkpt>
      <trkpt lat="43.02262" lon="2.46668">
        <ele>517</ele>
        <time>2021-03-21T07:05:59Z</time>
      </trkpt>
      <trkpt lat="43.02261" lon="2.46686">
        <ele>516.2</ele>
        <time>2021-03-21T07:06:00Z</time>
      </trkpt>
      <trkpt lat="43.02255" lon="2.4672">
        <ele>514.4</ele>
        <time>2021-03-21T07:06:02Z</time>
      </trkpt>
      <trkpt lat="43.0225" lon="2.46737">
        <ele>513.5</ele>
        <time>2021-03-21T07:06:03Z</time>
      </trkpt>
      <trkpt lat="43.02239" lon="2.46771">
        <ele>511.5</ele>
        <time>2021-03-21T07:06:05Z</time>
      </trkpt>
      <trkpt lat="43.0223" lon="2.46804">
        <ele>509.7</ele>
        <time>2021-03-21T07:06:07Z</time>
      </trkpt>
      <trkpt lat="43.02225" lon="2.46822">
        <ele>508.9</ele>
        <time>2021-03-21T07:06:08Z</time>
      </trkpt>
      <trkpt lat="43.02221" lon="2.4684">
        <ele>508</ele>
        <time>2021-03-21T07:06:09Z</time>
      </trkpt>
      <trkpt lat="43.02214" lon="2.46877">
        <ele>505.9</ele>
        <time>2021-03-21T07:06:11Z</time>
      </trkpt>
      <trkpt lat="43.02211" lon="2.46896">
        <ele>504.9</ele>
        <time>2021-03-21T07:06:12Z</time>
      </trkpt>
      <trkpt lat="43.02209" lon="2.46915">
        <ele>503.8</ele>
        <time>2021-03-21T07:06:13Z</time>
      </trkpt>
      <trkpt lat="43.02207" lon="2.46935">
        <ele>502.7</ele>
        <time>2021-03-21T07:06:14Z</time>
      </trkpt>
      <trkpt lat="43.02204" lon="2.46954">
        <ele>501.5</ele>
        <time>2021-03-21T07:06:15Z</time>
      </trkpt>
      <trkpt lat="43.022" lon="2.46972">
        <ele>500.4</ele>
        <time>2021-03-21T07:06:16Z</time>
      </trkpt>
      <trkpt lat="43.02192" lon="2.47006">
        <ele>498.6</ele>
        <time>2021-03-21T07:06:18Z</time>
      </trkpt>
      <trkpt lat="43.02186" lon="2.47022">
        <ele>497.7</ele>
        <time>2021-03-21T07:06:19Z</time>
      </trkpt>
      <trkpt lat="43.0218" lon="2.47038">
        <ele>496.9</ele>
        <time>2021-03-21T07:06:20Z</time>
      </trkpt>
      <trkpt lat="43.02168" lon="2.4707">
        <ele>495.3</ele>
        <time>2021-03-21T07:06:22Z</time>
      </trkpt>
      <trkpt lat="43.02155" lon="2.47101">
        <ele>493.7</ele>
        <time>2021-03-21T07:06:24Z</time>
      </trkpt>
      <trkpt lat="43.02143" lon="2.47131">
        <ele>492.1</ele>
        <time>2021-03-21T07:06:26Z</time>
      </trkpt>
      <trkpt lat="43.0213" lon="2.47163">
        <ele>490.9</ele>
        <time>2021-03-21T07:06:28Z</time>
      </trkpt>
      <trkpt lat="43.02125" lon="2.47179">
        <ele>490.6</ele>
        <time>2021-03-21T07:06:29Z</time>
      </trkpt>
      <trkpt lat="43.02115" lon="2.47211">
        <ele>490.6</ele>
        <time>2021-03-21T07:06:31Z</time>
      </trkpt>
      <trkpt lat="43.02112" lon="2.47225">
        <ele>490.7</ele>
        <time>2021-03-21T07:06:32Z</time>
      </trkpt>
      <trkpt lat="43.02108" lon="2.47238">
        <ele>490.6</ele>
        <time>2021-03-21T07:06:33Z</time>
      </trkpt>
      <trkpt lat="43.02095" lon="2.47252">
        <ele>489.7</ele>
        <time>2021-03-21T07:06:35Z</time>
      </trkpt>
      <trkpt lat="43.02086" lon="2.47251">
        <ele>488.9</ele>
        <time>2021-03-21T07:06:36Z</time>
      </trkpt>
      <trkpt lat="43.02067" lon="2.47236">
        <ele>487.3</ele>
        <time>2021-03-21T07:06:38Z</time>
      </trkpt>
      <trkpt lat="43.02049" lon="2.47235">
        <ele>486.1</ele>
        <time>2021-03-21T07:06:40Z</time>
      </trkpt>
      <trkpt lat="43.02032" lon="2.47249">
        <ele>484.5</ele>
        <time>2021-03-21T07:06:42Z</time>
      </trkpt>
      <trkpt lat="43.02016" lon="2.47269">
        <ele>483</ele>
        <time>2021-03-21T07:06:44Z</time>
      </trkpt>
      <trkpt lat="43.02001" lon="2.47292">
        <ele>481.4</ele>
        <time>2021-03-21T07:06:46Z</time>
      </trkpt>
      <trkpt lat="43.01986" lon="2.47312">
        <ele>479.6</ele>
        <time>2021-03-21T07:06:48Z</time>
      </trkpt>
      <trkpt lat="43.01973" lon="2.47334">
        <ele>478</ele>
        <time>2021-03-21T07:06:50Z</time>
      </trkpt>
      <trkpt lat="43.01967" lon="2.47347">
        <ele>477.2</ele>
        <time>2021-03-21T07:06:51Z</time>
      </trkpt>
      <trkpt lat="43.01959" lon="2.47374">
        <ele>475.8</ele>
        <time>2021-03-21T07:06:53Z</time>
      </trkpt>
      <trkpt lat="43.0195" lon="2.47401">
        <ele>474.4</ele>
        <time>2021-03-21T07:06:55Z</time>
      </trkpt>
      <trkpt lat="43.01945" lon="2.47415">
        <ele>473.6</ele>
        <time>2021-03-21T07:06:56Z</time>
      </trkpt>
      <trkpt lat="43.01942" lon="2.4743">
        <ele>472.8</ele>
        <time>2021-03-21T07:06:57Z</time>
      </trkpt>
      <trkpt lat="43.01939" lon="2.4746">
        <ele>471.1</ele>
        <time>2021-03-21T07:06:59Z</time>
      </trkpt>
      <trkpt lat="43.01939" lon="2.47476">
        <ele>470.4</ele>
        <time>2021-03-21T07:07:00Z</time>
      </trkpt>
      <trkpt lat="43.01937" lon="2.47504">
        <ele>468.9</ele>
        <time>2021-03-21T07:07:02Z</time>
      </trkpt>
      <trkpt lat="43.01931" lon="2.47517">
        <ele>468.1</ele>
        <time>2021-03-21T07:07:03Z</time>
      </trkpt>
      <trkpt lat="43.01916" lon="2.47541">
        <ele>466.2</ele>
        <time>2021-03-21T07:07:05Z</time>
      </trkpt>
      <trkpt lat="43.019" lon="2.47566">
        <ele>464.2</ele>
        <time>2021-03-21T07:07:07Z</time>
      </trkpt>
      <trkpt lat="43.01892" lon="2.47579">
        <ele>463.4</ele>
        <time>2021-03-21T07:07:08Z</time>
      </trkpt>
      <trkpt lat="43.01879" lon="2.47608">
        <ele>461.7</ele>
        <time>2021-03-21T07:07:10Z</time>
      </trkpt>
      <trkpt lat="43.01872" lon="2.47622">
        <ele>460.8</ele>
        <time>2021-03-21T07:07:11Z</time>
      </trkpt>
      <trkpt lat="43.01859" lon="2.47649">
        <ele>459</ele>
        <time>2021-03-21T07:07:13Z</time>
      </trkpt>
      <trkpt lat="43.01843" lon="2.47675">
        <ele>457.4</ele>
        <time>2021-03-21T07:07:15Z</time>
      </trkpt>
      <trkpt lat="43.01834" lon="2.47687">
        <ele>456.7</ele>
        <time>2021-03-21T07:07:16Z</time>
      </trkpt>
      <trkpt lat="43.01816" lon="2.4771">
        <ele>455.5</ele>
        <time>2021-03-21T07:07:18Z</time>
      </trkpt>
      <trkpt lat="43.01799" lon="2.47731">
        <ele>454.8</ele>
        <time>2021-03-21T07:07:20Z</time>
      </trkpt>
      <trkpt lat="43.0179" lon="2.4774">
        <ele>454.5</ele>
        <time>2021-03-21T07:07:21Z</time>
      </trkpt>
      <trkpt lat="43.01775" lon="2.47756">
        <ele>453.7</ele>
        <time>2021-03-21T07:07:23Z</time>
      </trkpt>
      <trkpt lat="43.01769" lon="2.47766">
        <ele>453</ele>
        <time>2021-03-21T07:07:24Z</time>
      </trkpt>
      <trkpt lat="43.01765" lon="2.47777">
        <ele>452.3</ele>
        <time>2021-03-21T07:07:25Z</time>
      </trkpt>
      <trkpt lat="43.0177" lon="2.47798">
        <ele>451</ele>
        <time>2021-03-21T07:07:27Z</time>
      </trkpt>
      <trkpt lat="43.01788" lon="2.47807">
        <ele>449.7</ele>
        <time>2021-03-21T07:07:29Z</time>
      </trkpt>
      <trkpt lat="43.01806" lon="2.47795">
        <ele>448.4</ele>
        <time>2021-03-21T07:07:31Z</time>
      </trkpt>
      <trkpt lat="43.01815" lon="2.47785">
        <ele>447.6</ele>
        <time>2021-03-21T07:07:32Z</time>
      </trkpt>
      <trkpt lat="43.01822" lon="2.47775">
        <ele>446.9</ele>
        <time>2021-03-21T07:07:33Z</time>
      </trkpt>
      <trkpt lat="43.0183" lon="2.47764">
        <ele>446.2</ele>
        <time>2021-03-21T07:07:34Z</time>
      </trkpt>
      <trkpt lat="43.01845" lon="2.47744">
        <ele>444.8</ele>
        <time>2021-03-21T07:07:36Z</time>
      </trkpt>
      <trkpt lat="43.01853" lon="2.47735">
        <ele>444.2</ele>
        <time>2021-03-21T07:07:37Z</time>
      </trkpt>
      <trkpt lat="43.01861" lon="2.47726">
        <ele>443.5</ele>
        <time>2021-03-21T07:07:38Z</time>
      </trkpt>
      <trkpt lat="43.01877" lon="2.47709">
        <ele>442.2</ele>
        <time>2021-03-21T07:07:40Z</time>
      </trkpt>
      <trkpt lat="43.01886" lon="2.477">
        <ele>441.4</ele>
        <time>2021-03-21T07:07:41Z</time>
      </trkpt>
      <trkpt lat="43.01902" lon="2.47681">
        <ele>439.9</ele>
        <time>2021-03-21T07:07:43Z</time>
      </trkpt>
      <trkpt lat="43.0191" lon="2.47671">
        <ele>439.2</ele>
        <time>2021-03-21T07:07:44Z</time>
      </trkpt>
      <trkpt lat="43.01917" lon="2.4766">
        <ele>438.5</ele>
        <time>2021-03-21T07:07:45Z</time>
      </trkpt>
      <trkpt lat="43.01932" lon="2.47638">
        <ele>437.2</ele>
        <time>2021-03-21T07:07:47Z</time>
      </trkpt>
      <trkpt lat="43.01944" lon="2.47615">
        <ele>436.1</ele>
        <time>2021-03-21T07:07:49Z</time>
      </trkpt>
      <trkpt lat="43.01951" lon="2.47594">
        <ele>435</ele>
        <time>2021-03-21T07:07:51Z</time>
      </trkpt>
      <trkpt lat="43.01956" lon="2.47587">
        <ele>434.5</ele>
        <time>2021-03-21T07:07:52Z</time>
      </trkpt>
      <trkpt lat="43.01966" lon="2.4759">
        <ele>433.8</ele>
        <time>2021-03-21T07:07:54Z</time>
      </trkpt>
      <trkpt lat="43.01968" lon="2.47595">
        <ele>433.5</ele>
        <time>2021-03-21T07:07:55Z</time>
      </trkpt>
      <trkpt lat="43.01965" lon="2.47613">
        <ele>432.7</ele>
        <time>2021-03-21T07:07:57Z</time>
      </trkpt>
      <trkpt lat="43.01958" lon="2.47625">
        <ele>432</ele>
        <time>2021-03-21T07:07:58Z</time>
      </trkpt>
      <trkpt lat="43.01949" lon="2.4764">
        <ele>431.2</ele>
        <time>2021-03-21T07:07:59Z</time>
      </trkpt>
      <trkpt lat="43.01931" lon="2.47669">
        <ele>429.2</ele>
        <time>2021-03-21T07:08:01Z</time>
      </trkpt>
      <trkpt lat="43.01923" lon="2.47683">
        <ele>428.3</ele>
        <time>2021-03-21T07:08:02Z</time>
      </trkpt>
      <trkpt lat="43.01909" lon="2.47708">
        <ele>426.5</ele>
        <time>2021-03-21T07:08:04Z</time>
      </trkpt>
      <trkpt lat="43.01903" lon="2.47721">
        <ele>425.7</ele>
        <time>2021-03-21T07:08:05Z</time>
      </trkpt>
      <trkpt lat="43.01898" lon="2.47735">
        <ele>425</ele>
        <time>2021-03-21T07:08:06Z</time>
      </trkpt>
      <trkpt lat="43.01894" lon="2.47749">
        <ele>424.2</ele>
        <time>2021-03-21T07:08:07Z</time>
      </trkpt>
      <trkpt lat="43.01886" lon="2.4778">
        <ele>422.5</ele>
        <time>2021-03-21T07:08:09Z</time>
      </trkpt>
      <trkpt lat="43.01878" lon="2.4781">
        <ele>420.9</ele>
        <time>2021-03-21T07:08:11Z</time>
      </trkpt>
      <trkpt lat="43.01872" lon="2.47825">
        <ele>420.1</ele>
        <time>2021-03-21T07:08:12Z</time>
      </trkpt>
      <trkpt lat="43.01865" lon="2.47839">
        <ele>419.3</ele>
        <time>2021-03-21T07:08:13Z</time>
      </trkpt>
      <trkpt lat="43.01859" lon="2.47853">
        <ele>418.5</ele>
        <time>2021-03-21T07:08:14Z</time>
      </trkpt>
      <trkpt lat="43.01844" lon="2.47882">
        <ele>416.8</ele>
        <time>2021-03-21T07:08:16Z</time>
      </trkpt>
      <trkpt lat="43.01837" lon="2.47897">
        <ele>416</ele>
        <time>2021-03-21T07:08:17Z</time>
      </trkpt>
      <trkpt lat="43.0183" lon="2.47912">
        <ele>415.2</ele>
        <time>2021-03-21T07:08:18Z</time>
      </trkpt>
      <trkpt lat="43.01823" lon="2.47926">
        <ele>414.4</ele>
        <time>2021-03-21T07:08:19Z</time>
      </trkpt>
      <trkpt lat="43.01816" lon="2.47941">
        <ele>413.6</ele>
        <time>2021-03-21T07:08:20Z</time>
      </trkpt>
      <trkpt lat="43.01802" lon="2.47971">
        <ele>411.9</ele>
        <time>2021-03-21T07:08:22Z</time>
      </trkpt>
      <trkpt lat="43.01789" lon="2.48001">
        <ele>410.2</ele>
        <time>2021-03-21T07:08:24Z</time>
      </trkpt>
      <trkpt lat="43.01782" lon="2.48016">
        <ele>409.4</ele>
        <time>2021-03-21T07:08:25Z</time>
      </trkpt>
      <trkpt lat="43.01776" lon="2.4803">
        <ele>408.6</ele>
        <time>2021-03-21T07:08:26Z</time>
      </trkpt>
      <trkpt lat="43.01759" lon="2.48052">
        <ele>407</ele>
        <time>2021-03-21T07:08:28Z</time>
      </trkpt>
      <trkpt lat="43.01737" lon="2.48064">
        <ele>405.3</ele>
        <time>2021-03-21T07:08:30Z</time>
      </trkpt>
      <trkpt lat="43.01726" lon="2.48067">
        <ele>404.5</ele>
        <time>2021-03-21T07:08:31Z</time>
      </trkpt>
      <trkpt lat="43.01704" lon="2.48072">
        <ele>403</ele>
        <time>2021-03-21T07:08:33Z</time>
      </trkpt>
      <trkpt lat="43.01685" lon="2.4808">
        <ele>401.7</ele>
        <time>2021-03-21T07:08:35Z</time>
      </trkpt>
      <trkpt lat="43.01678" lon="2.48087">
        <ele>401.1</ele>
        <time>2021-03-21T07:08:36Z</time>
      </trkpt>
      <trkpt lat="43.01672" lon="2.48097">
        <ele>400.4</ele>
        <time>2021-03-21T07:08:37Z</time>
      </trkpt>
      <trkpt lat="43.01669" lon="2.4811">
        <ele>399.8</ele>
        <time>2021-03-21T07:08:38Z</time>
      </trkpt>
      <trkpt lat="43.01663" lon="2.48138">
        <ele>398.4</ele>
        <time>2021-03-21T07:08:40Z</time>
      </trkpt>
      <trkpt lat="43.0166" lon="2.48153">
        <ele>397.7</ele>
        <time>2021-03-21T07:08:41Z</time>
      </trkpt>
      <trkpt lat="43.01654" lon="2.48181">
        <ele>396.4</ele>
        <time>2021-03-21T07:08:43Z</time>
      </trkpt>
      <trkpt lat="43.0165" lon="2.48195">
        <ele>395.7</ele>
        <time>2021-03-21T07:08:44Z</time>
      </trkpt>
      <trkpt lat="43.01642" lon="2.48224">
        <ele>394.1</ele>
        <time>2021-03-21T07:08:46Z</time>
      </trkpt>
      <trkpt lat="43.01638" lon="2.48239">
        <ele>393.4</ele>
        <time>2021-03-21T07:08:47Z</time>
      </trkpt>
      <trkpt lat="43.01631" lon="2.48267">
        <ele>391.8</ele>
        <time>2021-03-21T07:08:49Z</time>
      </trkpt>
      <trkpt lat="43.01622" lon="2.48292">
        <ele>390.5</ele>
        <time>2021-03-21T07:08:51Z</time>
      </trkpt>
      <trkpt lat="43.01618" lon="2.48304">
        <ele>389.8</ele>
        <time>2021-03-21T07:08:52Z</time>
      </trkpt>
      <trkpt lat="43.01613" lon="2.48315">
        <ele>389.2</ele>
        <time>2021-03-21T07:08:53Z</time>
      </trkpt>
      <trkpt lat="43.01602" lon="2.48332">
        <ele>388.1</ele>
        <time>2021-03-21T07:08:55Z</time>
      </trkpt>
      <trkpt lat="43.01594" lon="2.48347">
        <ele>387</ele>
        <time>2021-03-21T07:08:57Z</time>
      </trkpt>
      <trkpt lat="43.01592" lon="2.48356">
        <ele>386.4</ele>
        <time>2021-03-21T07:08:58Z</time>
      </trkpt>
      <trkpt lat="43.01587" lon="2.48372">
        <ele>385.5</ele>
        <time>2021-03-21T07:09:00Z</time>
      </trkpt>
      <trkpt lat="43.01585" lon="2.4838">
        <ele>385</ele>
        <time>2021-03-21T07:09:01Z</time>
      </trkpt>
      <trkpt lat="43.01583" lon="2.48386">
        <ele>384.6</ele>
        <time>2021-03-21T07:09:02Z</time>
      </trkpt>
      <trkpt lat="43.01582" lon="2.48393">
        <ele>384.3</ele>
        <time>2021-03-21T07:09:04Z</time>
      </trkpt>
      <trkpt lat="43.01582" lon="2.48394">
        <ele>384.2</ele>
        <time>2021-03-21T07:09:05Z</time>
      </trkpt>
      <trkpt lat="43.01582" lon="2.48394">
        <ele>384.2</ele>
        <time>2021-03-21T07:09:07Z</time>
      </trkpt>
      <trkpt lat="43.01582" lon="2.48394">
        <ele>384.2</ele>
        <time>2021-03-21T07:09:09Z</time>
      </trkpt>
      <trkpt lat="43.01582" lon="2.48394">
        <ele>384.2</ele>
        <time>2021-03-21T07:09:10Z</time>
      </trkpt>
      <trkpt lat="43.01582" lon="2.48394">
        <ele>384.2</ele>
        <time>2021-03-21T07:09:12Z</time>
      </trkpt>
      <trkpt lat="43.01582" lon="2.48394">
        <ele>384.2</ele>
        <time>2021-03-21T07:09:13Z</time>
      </trkpt>
      <trkpt lat="43.01582" lon="2.48394">
        <ele>384.2</ele>
        <time>2021-03-21T07:09:15Z</time>
      </trkpt>
      <trkpt lat="43.01582" lon="2.48394">
        <ele>384.2</ele>
        <time>2021-03-21T07:09:17Z</time>
      </trkpt>
      <trkpt lat="43.01582" lon="2.48394">
        <ele>384.2</ele>
        <time>2021-03-21T07:09:19Z</time>
      </trkpt>
      <trkpt lat="43.01582" lon="2.48394">
        <ele>384.2</ele>
        <time>2021-03-21T07:09:20Z</time>
      </trkpt>
      <trkpt lat="43.01581" lon="2.48394">
        <ele>384.1</ele>
        <time>2021-03-21T07:09:27Z</time>
      </trkpt>
      <trkpt lat="43.01581" lon="2.48395">
        <ele>384.1</ele>
        <time>2021-03-21T07:09:29Z</time>
      </trkpt>
      <trkpt lat="43.01581" lon="2.48395">
        <ele>384.1</ele>
        <time>2021-03-21T07:09:30Z</time>
      </trkpt>
      <trkpt lat="43.01581" lon="2.48395">
        <ele>384.1</ele>
        <time>2021-03-21T07:09:32Z</time>
      </trkpt>
      <trkpt lat="43.01581" lon="2.48395">
        <ele>384.1</ele>
        <time>2021-03-21T07:09:34Z</time>
      </trkpt>
      <trkpt lat="43.01581" lon="2.48395">
        <ele>384.1</ele>
        <time>2021-03-21T07:09:35Z</time>
      </trkpt>
      <trkpt lat="43.01581" lon="2.48395">
        <ele>384.1</ele>
        <time>2021-03-21T07:09:36Z</time>
      </trkpt>
      <trkpt lat="43.01581" lon="2.48395">
        <ele>384.1</ele>
        <time>2021-03-21T07:09:38Z</time>
      </trkpt>
      <trkpt lat="43.01581" lon="2.48395">
        <ele>384.1</ele>
        <time>2021-03-21T07:09:40Z</time>
      </trkpt>
      <trkpt lat="43.01581" lon="2.48395">
        <ele>384.1</ele>
        <time>2021-03-21T07:09:41Z</time>
      </trkpt>
      <trkpt lat="43.01581" lon="2.48395">
        <ele>384.1</ele>
        <time>2021-03-21T07:09:42Z</time>
      </trkpt>
      <trkpt lat="43.0158" lon="2.48395">
        <ele>384.1</ele>
        <time>2021-03-21T07:09:44Z</time>
      </trkpt>
      <trkpt lat="43.0158" lon="2.48395">
        <ele>384.1</ele>
        <time>2021-03-21T07:09:45Z</time>
      </trkpt>
      <trkpt lat="43.0158" lon="2.48395">
        <ele>384.1</ele>
        <time>2021-03-21T07:09:46Z</time>
      </trkpt>
      <trkpt lat="43.0158" lon="2.48395">
        <ele>384</ele>
        <time>2021-03-21T07:09:48Z</time>
      </trkpt>
      <trkpt lat="43.0158" lon="2.48395">
        <ele>384</ele>
        <time>2021-03-21T07:09:49Z</time>
      </trkpt>
      <trkpt lat="43.0158" lon="2.48395">
        <ele>384</ele>
        <time>2021-03-21T07:09:50Z</time>
      </trkpt>
      <trkpt lat="43.0158" lon="2.48395">
        <ele>384</ele>
        <time>2021-03-21T07:09:51Z</time>
      </trkpt>
      <trkpt lat="43.0158" lon="2.48395">
        <ele>384</ele>
        <time>2021-03-21T07:09:53Z</time>
      </trkpt>
      <trkpt lat="43.0158" lon="2.48395">
        <ele>384</ele>
        <time>2021-03-21T07:09:54Z</time>
      </trkpt>
      <trkpt lat="43.0158" lon="2.48395">
        <ele>384</ele>
        <time>2021-03-21T07:09:56Z</time>
      </trkpt>
      <trkpt lat="43.0158" lon="2.48395">
        <ele>384</ele>
        <time>2021-03-21T07:09:57Z</time>
      </trkpt>
      <trkpt lat="43.01579" lon="2.48395">
        <ele>384</ele>
        <time>2021-03-21T07:09:59Z</time>
      </trkpt>
      <trkpt lat="43.01579" lon="2.48395">
        <ele>384</ele>
        <time>2021-03-21T07:10:00Z</time>
      </trkpt>
      <trkpt lat="43.01579" lon="2.48395">
        <ele>384</ele>
        <time>2021-03-21T07:10:02Z</time>
      </trkpt>
      <trkpt lat="43.01579" lon="2.48395">
        <ele>384</ele>
        <time>2021-03-21T07:12:05Z</time>
      </trkpt>
      <trkpt lat="43.01579" lon="2.48395">
        <ele>384</ele>
        <time>2021-03-21T07:12:06Z</time>
      </trkpt>
      <trkpt lat="43.01571" lon="2.4841">
        <ele>383.1</ele>
        <time>2021-03-21T07:12:07Z</time>
      </trkpt>
      <trkpt lat="43.01568" lon="2.48418">
        <ele>382.8</ele>
        <time>2021-03-21T07:12:08Z</time>
      </trkpt>
      <trkpt lat="43.01559" lon="2.48432">
        <ele>382</ele>
        <time>2021-03-21T07:12:10Z</time>
      </trkpt>
      <trkpt lat="43.0155" lon="2.48445">
        <ele>381.2</ele>
        <time>2021-03-21T07:12:12Z</time>
      </trkpt>
      <trkpt lat="43.01541" lon="2.48459">
        <ele>380.4</ele>
        <time>2021-03-21T07:12:14Z</time>
      </trkpt>
      <trkpt lat="43.01534" lon="2.48478">
        <ele>379.5</ele>
        <time>2021-03-21T07:12:16Z</time>
      </trkpt>
      <trkpt lat="43.01528" lon="2.48498">
        <ele>378.5</ele>
        <time>2021-03-21T07:12:18Z</time>
      </trkpt>
      <trkpt lat="43.01518" lon="2.48519">
        <ele>377.4</ele>
        <time>2021-03-21T07:12:20Z</time>
      </trkpt>
      <trkpt lat="43.01505" lon="2.48539">
        <ele>376.3</ele>
        <time>2021-03-21T07:12:22Z</time>
      </trkpt>
      <trkpt lat="43.01497" lon="2.48549">
        <ele>375.7</ele>
        <time>2021-03-21T07:12:23Z</time>
      </trkpt>
      <trkpt lat="43.01489" lon="2.48559">
        <ele>375</ele>
        <time>2021-03-21T07:12:24Z</time>
      </trkpt>
      <trkpt lat="43.01481" lon="2.48568">
        <ele>374.3</ele>
        <time>2021-03-21T07:12:25Z</time>
      </trkpt>
      <trkpt lat="43.01473" lon="2.48578">
        <ele>373.5</ele>
        <time>2021-03-21T07:12:26Z</time>
      </trkpt>
      <trkpt lat="43.01464" lon="2.48588">
        <ele>372.7</ele>
        <time>2021-03-21T07:12:27Z</time>
      </trkpt>
      <trkpt lat="43.01446" lon="2.48609">
        <ele>371</ele>
        <time>2021-03-21T07:12:29Z</time>
      </trkpt>
      <trkpt lat="43.01437" lon="2.4862">
        <ele>370.2</ele>
        <time>2021-03-21T07:12:30Z</time>
      </trkpt>
      <trkpt lat="43.0142" lon="2.48644">
        <ele>368.7</ele>
        <time>2021-03-21T07:12:32Z</time>
      </trkpt>
      <trkpt lat="43.01405" lon="2.48669">
        <ele>367.2</ele>
        <time>2021-03-21T07:12:34Z</time>
      </trkpt>
      <trkpt lat="43.01399" lon="2.48683">
        <ele>366.4</ele>
        <time>2021-03-21T07:12:35Z</time>
      </trkpt>
      <trkpt lat="43.01393" lon="2.48696">
        <ele>365.8</ele>
        <time>2021-03-21T07:12:36Z</time>
      </trkpt>
      <trkpt lat="43.01389" lon="2.4871">
        <ele>365.1</ele>
        <time>2021-03-21T07:12:37Z</time>
      </trkpt>
      <trkpt lat="43.01385" lon="2.48724">
        <ele>364.5</ele>
        <time>2021-03-21T07:12:38Z</time>
      </trkpt>
      <trkpt lat="43.0138" lon="2.48754">
        <ele>363.4</ele>
        <time>2021-03-21T07:12:40Z</time>
      </trkpt>
      <trkpt lat="43.01378" lon="2.48769">
        <ele>362.9</ele>
        <time>2021-03-21T07:12:41Z</time>
      </trkpt>
      <trkpt lat="43.0137" lon="2.48795">
        <ele>362</ele>
        <time>2021-03-21T07:12:43Z</time>
      </trkpt>
      <trkpt lat="43.01354" lon="2.48802">
        <ele>361.2</ele>
        <time>2021-03-21T07:12:45Z</time>
      </trkpt>
      <trkpt lat="43.01346" lon="2.48795">
        <ele>360.6</ele>
        <time>2021-03-21T07:12:46Z</time>
      </trkpt>
      <trkpt lat="43.0134" lon="2.48786">
        <ele>360</ele>
        <time>2021-03-21T07:12:47Z</time>
      </trkpt>
      <trkpt lat="43.01335" lon="2.4876">
        <ele>358.8</ele>
        <time>2021-03-21T07:12:49Z</time>
      </trkpt>
      <trkpt lat="43.01334" lon="2.48746">
        <ele>358.1</ele>
        <time>2021-03-21T07:12:50Z</time>
      </trkpt>
      <trkpt lat="43.01334" lon="2.48731">
        <ele>357.4</ele>
        <time>2021-03-21T07:12:51Z</time>
      </trkpt>
      <trkpt lat="43.01335" lon="2.48703">
        <ele>356.2</ele>
        <time>2021-03-21T07:12:53Z</time>
      </trkpt>
      <trkpt lat="43.01334" lon="2.4869">
        <ele>355.7</ele>
        <time>2021-03-21T07:12:54Z</time>
      </trkpt>
      <trkpt lat="43.01329" lon="2.48663">
        <ele>354.8</ele>
        <time>2021-03-21T07:12:56Z</time>
      </trkpt>
      <trkpt lat="43.01324" lon="2.4865">
        <ele>354.3</ele>
        <time>2021-03-21T07:12:57Z</time>
      </trkpt>
      <trkpt lat="43.01313" lon="2.48625">
        <ele>353.6</ele>
        <time>2021-03-21T07:12:59Z</time>
      </trkpt>
      <trkpt lat="43.01306" lon="2.48613">
        <ele>353.2</ele>
        <time>2021-03-21T07:13:00Z</time>
      </trkpt>
      <trkpt lat="43.01292" lon="2.48591">
        <ele>352.4</ele>
        <time>2021-03-21T07:13:02Z</time>
      </trkpt>
      <trkpt lat="43.01283" lon="2.48583">
        <ele>351.9</ele>
        <time>2021-03-21T07:13:03Z</time>
      </trkpt>
      <trkpt lat="43.01263" lon="2.48572">
        <ele>350.9</ele>
        <time>2021-03-21T07:13:05Z</time>
      </trkpt>
      <trkpt lat="43.01246" lon="2.48562">
        <ele>349.9</ele>
        <time>2021-03-21T07:13:07Z</time>
      </trkpt>
      <trkpt lat="43.01241" lon="2.48552">
        <ele>349.4</ele>
        <time>2021-03-21T07:13:08Z</time>
      </trkpt>
      <trkpt lat="43.01241" lon="2.48526">
        <ele>348.2</ele>
        <time>2021-03-21T07:13:10Z</time>
      </trkpt>
      <trkpt lat="43.01247" lon="2.48497">
        <ele>346.9</ele>
        <time>2021-03-21T07:13:12Z</time>
      </trkpt>
      <trkpt lat="43.0125" lon="2.48483">
        <ele>346.2</ele>
        <time>2021-03-21T07:13:13Z</time>
      </trkpt>
      <trkpt lat="43.01254" lon="2.48453">
        <ele>345</ele>
        <time>2021-03-21T07:13:15Z</time>
      </trkpt>
      <trkpt lat="43.01256" lon="2.48438">
        <ele>344.4</ele>
        <time>2021-03-21T07:13:16Z</time>
      </trkpt>
      <trkpt lat="43.01259" lon="2.48408">
        <ele>343.2</ele>
        <time>2021-03-21T07:13:18Z</time>
      </trkpt>
      <trkpt lat="43.0126" lon="2.48394">
        <ele>342.8</ele>
        <time>2021-03-21T07:13:19Z</time>
      </trkpt>
      <trkpt lat="43.01262" lon="2.4838">
        <ele>342.4</ele>
        <time>2021-03-21T07:13:20Z</time>
      </trkpt>
      <trkpt lat="43.01271" lon="2.48356">
        <ele>341.4</ele>
        <time>2021-03-21T07:13:22Z</time>
      </trkpt>
      <trkpt lat="43.01288" lon="2.48341">
        <ele>340.1</ele>
        <time>2021-03-21T07:13:24Z</time>
      </trkpt>
      <trkpt lat="43.01298" lon="2.48338">
        <ele>339.4</ele>
        <time>2021-03-21T07:13:25Z</time>
      </trkpt>
      <trkpt lat="43.01319" lon="2.48333">
        <ele>338.3</ele>
        <time>2021-03-21T07:13:27Z</time>
      </trkpt>
      <trkpt lat="43.01329" lon="2.48332">
        <ele>337.9</ele>
        <time>2021-03-21T07:13:28Z</time>
      </trkpt>
      <trkpt lat="43.0134" lon="2.48333">
        <ele>337.7</ele>
        <time>2021-03-21T07:13:29Z</time>
      </trkpt>
      <trkpt lat="43.01351" lon="2.48337">
        <ele>337.7</ele>
        <time>2021-03-21T07:13:30Z</time>
      </trkpt>
      <trkpt lat="43.0137" lon="2.48335">
        <ele>337.5</ele>
        <time>2021-03-21T07:13:32Z</time>
      </trkpt>
      <trkpt lat="43.01376" lon="2.48325">
        <ele>337.1</ele>
        <time>2021-03-21T07:13:33Z</time>
      </trkpt>
      <trkpt lat="43.01378" lon="2.48314">
        <ele>336.6</ele>
        <time>2021-03-21T07:13:34Z</time>
      </trkpt>
      <trkpt lat="43.01374" lon="2.48302">
        <ele>335.8</ele>
        <time>2021-03-21T07:13:35Z</time>
      </trkpt>
      <trkpt lat="43.01357" lon="2.48284">
        <ele>334.1</ele>
        <time>2021-03-21T07:13:37Z</time>
      </trkpt>
      <trkpt lat="43.01348" lon="2.48276">
        <ele>333.3</ele>
        <time>2021-03-21T07:13:38Z</time>
      </trkpt>
      <trkpt lat="43.01338" lon="2.48269">
        <ele>332.6</ele>
        <time>2021-03-21T07:13:39Z</time>
      </trkpt>
      <trkpt lat="43.01327" lon="2.48262">
        <ele>332</ele>
        <time>2021-03-21T07:13:40Z</time>
      </trkpt>
      <trkpt lat="43.01306" lon="2.48249">
        <ele>331.1</ele>
        <time>2021-03-21T07:13:42Z</time>
      </trkpt>
      <trkpt lat="43.01286" lon="2.48239">
        <ele>330.3</ele>
        <time>2021-03-21T07:13:44Z</time>
      </trkpt>
      <trkpt lat="43.01276" lon="2.48233">
        <ele>329.9</ele>
        <time>2021-03-21T07:13:45Z</time>
      </trkpt>
      <trkpt lat="43.01267" lon="2.48226">
        <ele>329.5</ele>
        <time>2021-03-21T07:13:46Z</time>
      </trkpt>
      <trkpt lat="43.01255" lon="2.4821">
        <ele>328.5</ele>
        <time>2021-03-21T07:13:48Z</time>
      </trkpt>
      <trkpt lat="43.01254" lon="2.48199">
        <ele>327.8</ele>
        <time>2021-03-21T07:13:49Z</time>
      </trkpt>
      <trkpt lat="43.01255" lon="2.48186">
        <ele>327.1</ele>
        <time>2021-03-21T07:13:50Z</time>
      </trkpt>
      <trkpt lat="43.01259" lon="2.48172">
        <ele>326.2</ele>
        <time>2021-03-21T07:13:51Z</time>
      </trkpt>
      <trkpt lat="43.0127" lon="2.48142">
        <ele>324.8</ele>
        <time>2021-03-21T07:13:53Z</time>
      </trkpt>
      <trkpt lat="43.0128" lon="2.48113">
        <ele>323.8</ele>
        <time>2021-03-21T07:13:55Z</time>
      </trkpt>
      <trkpt lat="43.01285" lon="2.48099">
        <ele>323.5</ele>
        <time>2021-03-21T07:13:56Z</time>
      </trkpt>
      <trkpt lat="43.01289" lon="2.48085">
        <ele>323.4</ele>
        <time>2021-03-21T07:13:57Z</time>
      </trkpt>
      <trkpt lat="43.01294" lon="2.48074">
        <ele>323.4</ele>
        <time>2021-03-21T07:13:58Z</time>
      </trkpt>
      <trkpt lat="43.01307" lon="2.48055">
        <ele>323.4</ele>
        <time>2021-03-21T07:14:00Z</time>
      </trkpt>
      <trkpt lat="43.01314" lon="2.48036">
        <ele>322.7</ele>
        <time>2021-03-21T07:14:02Z</time>
      </trkpt>
      <trkpt lat="43.0131" lon="2.48028">
        <ele>322.1</ele>
        <time>2021-03-21T07:14:03Z</time>
      </trkpt>
      <trkpt lat="43.01295" lon="2.48024">
        <ele>320.6</ele>
        <time>2021-03-21T07:14:05Z</time>
      </trkpt>
      <trkpt lat="43.01287" lon="2.48032">
        <ele>319.7</ele>
        <time>2021-03-21T07:14:06Z</time>
      </trkpt>
      <trkpt lat="43.01272" lon="2.48055">
        <ele>317.8</ele>
        <time>2021-03-21T07:14:08Z</time>
      </trkpt>
      <trkpt lat="43.01258" lon="2.48082">
        <ele>316.1</ele>
        <time>2021-03-21T07:14:10Z</time>
      </trkpt>
      <trkpt lat="43.0125" lon="2.48094">
        <ele>315.2</ele>
        <time>2021-03-21T07:14:11Z</time>
      </trkpt>
      <trkpt lat="43.01236" lon="2.48118">
        <ele>313.4</ele>
        <time>2021-03-21T07:14:13Z</time>
      </trkpt>
      <trkpt lat="43.01229" lon="2.4813">
        <ele>312.6</ele>
        <time>2021-03-21T07:14:14Z</time>
      </trkpt>
      <trkpt lat="43.01221" lon="2.48142">
        <ele>311.7</ele>
        <time>2021-03-21T07:14:15Z</time>
      </trkpt>
      <trkpt lat="43.01215" lon="2.48154">
        <ele>310.8</ele>
        <time>2021-03-21T07:14:16Z</time>
      </trkpt>
      <trkpt lat="43.01203" lon="2.48181">
        <ele>309.1</ele>
        <time>2021-03-21T07:14:18Z</time>
      </trkpt>
      <trkpt lat="43.01192" lon="2.48209">
        <ele>307.2</ele>
        <time>2021-03-21T07:14:20Z</time>
      </trkpt>
      <trkpt lat="43.01183" lon="2.48238">
        <ele>305.5</ele>
        <time>2021-03-21T07:14:22Z</time>
      </trkpt>
      <trkpt lat="43.01179" lon="2.48254">
        <ele>304.7</ele>
        <time>2021-03-21T07:14:23Z</time>
      </trkpt>
      <trkpt lat="43.01171" lon="2.48285">
        <ele>303.2</ele>
        <time>2021-03-21T07:14:25Z</time>
      </trkpt>
      <trkpt lat="43.01168" lon="2.48301">
        <ele>302.5</ele>
        <time>2021-03-21T07:14:26Z</time>
      </trkpt>
      <trkpt lat="43.01162" lon="2.48334">
        <ele>300.8</ele>
        <time>2021-03-21T07:14:28Z</time>
      </trkpt>
      <trkpt lat="43.01158" lon="2.48351">
        <ele>299.9</ele>
        <time>2021-03-21T07:14:29Z</time>
      </trkpt>
      <trkpt lat="43.0115" lon="2.48385">
        <ele>298.3</ele>
        <time>2021-03-21T07:14:31Z</time>
      </trkpt>
      <trkpt lat="43.01142" lon="2.48419">
        <ele>296.7</ele>
        <time>2021-03-21T07:14:33Z</time>
      </trkpt>
      <trkpt lat="43.01138" lon="2.48436">
        <ele>295.9</ele>
        <time>2021-03-21T07:14:34Z</time>
      </trkpt>
      <trkpt lat="43.0113" lon="2.48471">
        <ele>294.5</ele>
        <time>2021-03-21T07:14:36Z</time>
      </trkpt>
      <trkpt lat="43.01128" lon="2.48489">
        <ele>293.9</ele>
        <time>2021-03-21T07:14:37Z</time>
      </trkpt>
      <trkpt lat="43.01131" lon="2.48526">
        <ele>292.7</ele>
        <time>2021-03-21T07:14:39Z</time>
      </trkpt>
      <trkpt lat="43.01133" lon="2.48544">
        <ele>292.2</ele>
        <time>2021-03-21T07:14:40Z</time>
      </trkpt>
      <trkpt lat="43.01135" lon="2.48561">
        <ele>291.6</ele>
        <time>2021-03-21T07:14:41Z</time>
      </trkpt>
      <trkpt lat="43.01134" lon="2.48578">
        <ele>291.1</ele>
        <time>2021-03-21T07:14:42Z</time>
      </trkpt>
      <trkpt lat="43.01135" lon="2.4861">
        <ele>289.9</ele>
        <time>2021-03-21T07:14:44Z</time>
      </trkpt>
      <trkpt lat="43.01138" lon="2.48626">
        <ele>289.3</ele>
        <time>2021-03-21T07:14:45Z</time>
      </trkpt>
      <trkpt lat="43.01152" lon="2.48657">
        <ele>288.1</ele>
        <time>2021-03-21T07:14:47Z</time>
      </trkpt>
      <trkpt lat="43.01165" lon="2.48689">
        <ele>287</ele>
        <time>2021-03-21T07:14:49Z</time>
      </trkpt>
      <trkpt lat="43.01168" lon="2.48705">
        <ele>286.5</ele>
        <time>2021-03-21T07:14:50Z</time>
      </trkpt>
      <trkpt lat="43.01171" lon="2.48738">
        <ele>285.4</ele>
        <time>2021-03-21T07:14:52Z</time>
      </trkpt>
      <trkpt lat="43.01171" lon="2.48754">
        <ele>284.8</ele>
        <time>2021-03-21T07:14:53Z</time>
      </trkpt>
      <trkpt lat="43.01171" lon="2.48785">
        <ele>283.5</ele>
        <time>2021-03-21T07:14:55Z</time>
      </trkpt>
      <trkpt lat="43.01175" lon="2.48816">
        <ele>282.1</ele>
        <time>2021-03-21T07:14:57Z</time>
      </trkpt>
      <trkpt lat="43.01177" lon="2.48832">
        <ele>281.3</ele>
        <time>2021-03-21T07:14:58Z</time>
      </trkpt>
      <trkpt lat="43.01179" lon="2.48849">
        <ele>280.5</ele>
        <time>2021-03-21T07:14:59Z</time>
      </trkpt>
      <trkpt lat="43.01179" lon="2.48882">
        <ele>278.8</ele>
        <time>2021-03-21T07:15:01Z</time>
      </trkpt>
      <trkpt lat="43.01176" lon="2.48899">
        <ele>277.9</ele>
        <time>2021-03-21T07:15:02Z</time>
      </trkpt>
      <trkpt lat="43.01166" lon="2.48933">
        <ele>276</ele>
        <time>2021-03-21T07:15:04Z</time>
      </trkpt>
      <trkpt lat="43.01161" lon="2.4895">
        <ele>275.2</ele>
        <time>2021-03-21T07:15:05Z</time>
      </trkpt>
      <trkpt lat="43.01157" lon="2.48985">
        <ele>274</ele>
        <time>2021-03-21T07:15:07Z</time>
      </trkpt>
      <trkpt lat="43.01157" lon="2.4902">
        <ele>272.9</ele>
        <time>2021-03-21T07:15:09Z</time>
      </trkpt>
      <trkpt lat="43.01156" lon="2.49037">
        <ele>272.4</ele>
        <time>2021-03-21T07:15:10Z</time>
      </trkpt>
      <trkpt lat="43.01153" lon="2.49053">
        <ele>272</ele>
        <time>2021-03-21T07:15:11Z</time>
      </trkpt>
      <trkpt lat="43.01148" lon="2.49068">
        <ele>271.6</ele>
        <time>2021-03-21T07:15:12Z</time>
      </trkpt>
      <trkpt lat="43.01143" lon="2.49082">
        <ele>271.1</ele>
        <time>2021-03-21T07:15:13Z</time>
      </trkpt>
      <trkpt lat="43.01133" lon="2.49111">
        <ele>270.2</ele>
        <time>2021-03-21T07:15:15Z</time>
      </trkpt>
      <trkpt lat="43.01127" lon="2.49141">
        <ele>269.6</ele>
        <time>2021-03-21T07:15:17Z</time>
      </trkpt>
      <trkpt lat="43.01128" lon="2.49157">
        <ele>269.3</ele>
        <time>2021-03-21T07:15:18Z</time>
      </trkpt>
      <trkpt lat="43.01138" lon="2.49187">
        <ele>269</ele>
        <time>2021-03-21T07:15:20Z</time>
      </trkpt>
      <trkpt lat="43.01146" lon="2.49215">
        <ele>268.8</ele>
        <time>2021-03-21T07:15:22Z</time>
      </trkpt>
      <trkpt lat="43.01145" lon="2.49229">
        <ele>268.7</ele>
        <time>2021-03-21T07:15:23Z</time>
      </trkpt>
      <trkpt lat="43.01139" lon="2.49241">
        <ele>268.6</ele>
        <time>2021-03-21T07:15:24Z</time>
      </trkpt>
      <trkpt lat="43.01123" lon="2.49261">
        <ele>268.3</ele>
        <time>2021-03-21T07:15:26Z</time>
      </trkpt>
      <trkpt lat="43.01117" lon="2.49272">
        <ele>268.2</ele>
        <time>2021-03-21T07:15:27Z</time>
      </trkpt>
      <trkpt lat="43.01113" lon="2.49285">
        <ele>268.1</ele>
        <time>2021-03-21T07:15:28Z</time>
      </trkpt>
      <trkpt lat="43.01113" lon="2.49298">
        <ele>268</ele>
        <time>2021-03-21T07:15:29Z</time>
      </trkpt>
      <trkpt lat="43.01114" lon="2.49311">
        <ele>267.9</ele>
        <time>2021-03-21T07:15:30Z</time>
      </trkpt>
      <trkpt lat="43.01119" lon="2.49338">
        <ele>267.7</ele>
        <time>2021-03-21T07:15:32Z</time>
      </trkpt>
      <trkpt lat="43.01123" lon="2.49364">
        <ele>267.4</ele>
        <time>2021-03-21T07:15:34Z</time>
      </trkpt>
      <trkpt lat="43.01126" lon="2.49379">
        <ele>267.2</ele>
        <time>2021-03-21T07:15:35Z</time>
      </trkpt>
      <trkpt lat="43.01128" lon="2.49393">
        <ele>266.9</ele>
        <time>2021-03-21T07:15:36Z</time>
      </trkpt>
      <trkpt lat="43.01131" lon="2.49422">
        <ele>266.3</ele>
        <time>2021-03-21T07:15:38Z</time>
      </trkpt>
      <trkpt lat="43.01136" lon="2.49451">
        <ele>265.4</ele>
        <time>2021-03-21T07:15:40Z</time>
      </trkpt>
      <trkpt lat="43.01139" lon="2.49466">
        <ele>265</ele>
        <time>2021-03-21T07:15:41Z</time>
      </trkpt>
      <trkpt lat="43.01145" lon="2.49496">
        <ele>264.1</ele>
        <time>2021-03-21T07:15:43Z</time>
      </trkpt>
      <trkpt lat="43.01147" lon="2.49512">
        <ele>263.6</ele>
        <time>2021-03-21T07:15:44Z</time>
      </trkpt>
      <trkpt lat="43.01148" lon="2.49543">
        <ele>262.7</ele>
        <time>2021-03-21T07:15:46Z</time>
      </trkpt>
      <trkpt lat="43.01142" lon="2.49574">
        <ele>261.7</ele>
        <time>2021-03-21T07:15:48Z</time>
      </trkpt>
      <trkpt lat="43.01137" lon="2.49589">
        <ele>261.3</ele>
        <time>2021-03-21T07:15:49Z</time>
      </trkpt>
      <trkpt lat="43.01132" lon="2.49605">
        <ele>260.7</ele>
        <time>2021-03-21T07:15:50Z</time>
      </trkpt>
      <trkpt lat="43.01121" lon="2.49633">
        <ele>259.7</ele>
        <time>2021-03-21T07:15:52Z</time>
      </trkpt>
      <trkpt lat="43.01109" lon="2.49662">
        <ele>258.6</ele>
        <time>2021-03-21T07:15:54Z</time>
      </trkpt>
      <trkpt lat="43.01097" lon="2.4969">
        <ele>257.5</ele>
        <time>2021-03-21T07:15:56Z</time>
      </trkpt>
      <trkpt lat="43.01085" lon="2.49717">
        <ele>256.4</ele>
        <time>2021-03-21T07:15:58Z</time>
      </trkpt>
      <trkpt lat="43.01079" lon="2.49731">
        <ele>256</ele>
        <time>2021-03-21T07:15:59Z</time>
      </trkpt>
      <trkpt lat="43.01069" lon="2.49758">
        <ele>255.2</ele>
        <time>2021-03-21T07:16:01Z</time>
      </trkpt>
      <trkpt lat="43.01058" lon="2.49786">
        <ele>254.4</ele>
        <time>2021-03-21T07:16:03Z</time>
      </trkpt>
      <trkpt lat="43.01046" lon="2.49815">
        <ele>253.9</ele>
        <time>2021-03-21T07:16:05Z</time>
      </trkpt>
      <trkpt lat="43.01034" lon="2.49841">
        <ele>253.9</ele>
        <time>2021-03-21T07:16:07Z</time>
      </trkpt>
      <trkpt lat="43.01021" lon="2.49867">
        <ele>254</ele>
        <time>2021-03-21T07:16:09Z</time>
      </trkpt>
      <trkpt lat="43.01015" lon="2.4988">
        <ele>254.2</ele>
        <time>2021-03-21T07:16:10Z</time>
      </trkpt>
      <trkpt lat="43.01009" lon="2.49892">
        <ele>254.5</ele>
        <time>2021-03-21T07:16:11Z</time>
      </trkpt>
      <trkpt lat="43.01" lon="2.49917">
        <ele>255</ele>
        <time>2021-03-21T07:16:13Z</time>
      </trkpt>
      <trkpt lat="43.00996" lon="2.4993">
        <ele>255.3</ele>
        <time>2021-03-21T07:16:14Z</time>
      </trkpt>
      <trkpt lat="43.0099" lon="2.49955">
        <ele>255.9</ele>
        <time>2021-03-21T07:16:16Z</time>
      </trkpt>
      <trkpt lat="43.00987" lon="2.49967">
        <ele>256.1</ele>
        <time>2021-03-21T07:16:17Z</time>
      </trkpt>
      <trkpt lat="43.00984" lon="2.49979">
        <ele>256.2</ele>
        <time>2021-03-21T07:16:18Z</time>
      </trkpt>
      <trkpt lat="43.00976" lon="2.50001">
        <ele>256</ele>
        <time>2021-03-21T07:16:20Z</time>
      </trkpt>
      <trkpt lat="43.00971" lon="2.50012">
        <ele>255.8</ele>
        <time>2021-03-21T07:16:21Z</time>
      </trkpt>
      <trkpt lat="43.00964" lon="2.50021">
        <ele>255.6</ele>
        <time>2021-03-21T07:16:22Z</time>
      </trkpt>
      <trkpt lat="43.00957" lon="2.50031">
        <ele>255.3</ele>
        <time>2021-03-21T07:16:23Z</time>
      </trkpt>
      <trkpt lat="43.00943" lon="2.5005">
        <ele>254.7</ele>
        <time>2021-03-21T07:16:25Z</time>
      </trkpt>
      <trkpt lat="43.0093" lon="2.50069">
        <ele>254.1</ele>
        <time>2021-03-21T07:16:27Z</time>
      </trkpt>
      <trkpt lat="43.00923" lon="2.50078">
        <ele>253.7</ele>
        <time>2021-03-21T07:16:28Z</time>
      </trkpt>
      <trkpt lat="43.00909" lon="2.50096">
        <ele>252.8</ele>
        <time>2021-03-21T07:16:30Z</time>
      </trkpt>
      <trkpt lat="43.00893" lon="2.50111">
        <ele>252.2</ele>
        <time>2021-03-21T07:16:32Z</time>
      </trkpt>
      <trkpt lat="43.00884" lon="2.50118">
        <ele>252</ele>
        <time>2021-03-21T07:16:33Z</time>
      </trkpt>
      <trkpt lat="43.00869" lon="2.5013">
        <ele>251.6</ele>
        <time>2021-03-21T07:16:35Z</time>
      </trkpt>
      <trkpt lat="43.00863" lon="2.50134">
        <ele>251.4</ele>
        <time>2021-03-21T07:16:36Z</time>
      </trkpt>
      <trkpt lat="43.00857" lon="2.50135">
        <ele>251.2</ele>
        <time>2021-03-21T07:16:37Z</time>
      </trkpt>
      <trkpt lat="43.00849" lon="2.50129">
        <ele>251.1</ele>
        <time>2021-03-21T07:16:39Z</time>
      </trkpt>
      <trkpt lat="43.00846" lon="2.50113">
        <ele>251</ele>
        <time>2021-03-21T07:16:41Z</time>
      </trkpt>
      <trkpt lat="43.00846" lon="2.50103">
        <ele>251</ele>
        <time>2021-03-21T07:16:42Z</time>
      </trkpt>
      <trkpt lat="43.00846" lon="2.50092">
        <ele>250.9</ele>
        <time>2021-03-21T07:16:43Z</time>
      </trkpt>
      <trkpt lat="43.00845" lon="2.5007">
        <ele>250.6</ele>
        <time>2021-03-21T07:16:45Z</time>
      </trkpt>
      <trkpt lat="43.00845" lon="2.50048">
        <ele>250.3</ele>
        <time>2021-03-21T07:16:47Z</time>
      </trkpt>
      <trkpt lat="43.00845" lon="2.50036">
        <ele>250.2</ele>
        <time>2021-03-21T07:16:48Z</time>
      </trkpt>
      <trkpt lat="43.00848" lon="2.50014">
        <ele>250</ele>
        <time>2021-03-21T07:16:50Z</time>
      </trkpt>
      <trkpt lat="43.00849" lon="2.50004">
        <ele>249.9</ele>
        <time>2021-03-21T07:16:51Z</time>
      </trkpt>
      <trkpt lat="43.0085" lon="2.49983">
        <ele>249.8</ele>
        <time>2021-03-21T07:16:53Z</time>
      </trkpt>
      <trkpt lat="43.0085" lon="2.49973">
        <ele>249.8</ele>
        <time>2021-03-21T07:16:54Z</time>
      </trkpt>
      <trkpt lat="43.00848" lon="2.49952">
        <ele>249.9</ele>
        <time>2021-03-21T07:16:56Z</time>
      </trkpt>
      <trkpt lat="43.00846" lon="2.49931">
        <ele>250.1</ele>
        <time>2021-03-21T07:16:58Z</time>
      </trkpt>
      <trkpt lat="43.00845" lon="2.49921">
        <ele>250.2</ele>
        <time>2021-03-21T07:16:59Z</time>
      </trkpt>
      <trkpt lat="43.00842" lon="2.49901">
        <ele>250.6</ele>
        <time>2021-03-21T07:17:01Z</time>
      </trkpt>
      <trkpt lat="43.0084" lon="2.49891">
        <ele>250.9</ele>
        <time>2021-03-21T07:17:02Z</time>
      </trkpt>
      <trkpt lat="43.00834" lon="2.49874">
        <ele>251.3</ele>
        <time>2021-03-21T07:17:04Z</time>
      </trkpt>
      <trkpt lat="43.00826" lon="2.49858">
        <ele>251.7</ele>
        <time>2021-03-21T07:17:06Z</time>
      </trkpt>
      <trkpt lat="43.00817" lon="2.49844">
        <ele>252.1</ele>
        <time>2021-03-21T07:17:08Z</time>
      </trkpt>
      <trkpt lat="43.00811" lon="2.49837">
        <ele>252.3</ele>
        <time>2021-03-21T07:17:09Z</time>
      </trkpt>
      <trkpt lat="43.00806" lon="2.49831">
        <ele>252.5</ele>
        <time>2021-03-21T07:17:10Z</time>
      </trkpt>
      <trkpt lat="43.00796" lon="2.49819">
        <ele>252.9</ele>
        <time>2021-03-21T07:17:12Z</time>
      </trkpt>
      <trkpt lat="43.00786" lon="2.49807">
        <ele>253.5</ele>
        <time>2021-03-21T07:17:14Z</time>
      </trkpt>
      <trkpt lat="43.00776" lon="2.49794">
        <ele>254.2</ele>
        <time>2021-03-21T07:17:16Z</time>
      </trkpt>
      <trkpt lat="43.00768" lon="2.49782">
        <ele>254.9</ele>
        <time>2021-03-21T07:17:18Z</time>
      </trkpt>
      <trkpt lat="43.00764" lon="2.49775">
        <ele>255.3</ele>
        <time>2021-03-21T07:17:19Z</time>
      </trkpt>
      <trkpt lat="43.0076" lon="2.49769">
        <ele>255.7</ele>
        <time>2021-03-21T07:17:20Z</time>
      </trkpt>
      <trkpt lat="43.00753" lon="2.49756">
        <ele>256.5</ele>
        <time>2021-03-21T07:17:22Z</time>
      </trkpt>
      <trkpt lat="43.00745" lon="2.49743">
        <ele>257.3</ele>
        <time>2021-03-21T07:17:24Z</time>
      </trkpt>
      <trkpt lat="43.00738" lon="2.49731">
        <ele>258.1</ele>
        <time>2021-03-21T07:17:26Z</time>
      </trkpt>
      <trkpt lat="43.0073" lon="2.49719">
        <ele>258.8</ele>
        <time>2021-03-21T07:17:28Z</time>
      </trkpt>
      <trkpt lat="43.00722" lon="2.49708">
        <ele>259.5</ele>
        <time>2021-03-21T07:17:30Z</time>
      </trkpt>
      <trkpt lat="43.00718" lon="2.49702">
        <ele>259.8</ele>
        <time>2021-03-21T07:17:31Z</time>
      </trkpt>
      <trkpt lat="43.00714" lon="2.49696">
        <ele>260.2</ele>
        <time>2021-03-21T07:17:32Z</time>
      </trkpt>
      <trkpt lat="43.00706" lon="2.49685">
        <ele>260.8</ele>
        <time>2021-03-21T07:17:34Z</time>
      </trkpt>
      <trkpt lat="43.00702" lon="2.49679">
        <ele>261.1</ele>
        <time>2021-03-21T07:17:35Z</time>
      </trkpt>
      <trkpt lat="43.00694" lon="2.49667">
        <ele>261.7</ele>
        <time>2021-03-21T07:17:37Z</time>
      </trkpt>
      <trkpt lat="43.0069" lon="2.49661">
        <ele>262.1</ele>
        <time>2021-03-21T07:17:38Z</time>
      </trkpt>
      <trkpt lat="43.00683" lon="2.49649">
        <ele>262.7</ele>
        <time>2021-03-21T07:17:40Z</time>
      </trkpt>
      <trkpt lat="43.00677" lon="2.49637">
        <ele>263.3</ele>
        <time>2021-03-21T07:17:42Z</time>
      </trkpt>
      <trkpt lat="43.00673" lon="2.49632">
        <ele>263.6</ele>
        <time>2021-03-21T07:17:43Z</time>
      </trkpt>
      <trkpt lat="43.00667" lon="2.4962">
        <ele>264.2</ele>
        <time>2021-03-21T07:17:45Z</time>
      </trkpt>
      <trkpt lat="43.00665" lon="2.49616">
        <ele>264.5</ele>
        <time>2021-03-21T07:17:46Z</time>
      </trkpt>
      <trkpt lat="43.00659" lon="2.49606">
        <ele>265</ele>
        <time>2021-03-21T07:17:48Z</time>
      </trkpt>
      <trkpt lat="43.00655" lon="2.49601">
        <ele>265.3</ele>
        <time>2021-03-21T07:17:49Z</time>
      </trkpt>
      <trkpt lat="43.00648" lon="2.49591">
        <ele>265.9</ele>
        <time>2021-03-21T07:17:51Z</time>
      </trkpt>
      <trkpt lat="43.00645" lon="2.49587">
        <ele>266.2</ele>
        <time>2021-03-21T07:17:52Z</time>
      </trkpt>
      <trkpt lat="43.00641" lon="2.49582">
        <ele>266.5</ele>
        <time>2021-03-21T07:17:53Z</time>
      </trkpt>
      <trkpt lat="43.00637" lon="2.49577">
        <ele>266.8</ele>
        <time>2021-03-21T07:17:54Z</time>
      </trkpt>
      <trkpt lat="43.00629" lon="2.49568">
        <ele>267.3</ele>
        <time>2021-03-21T07:17:56Z</time>
      </trkpt>
      <trkpt lat="43.00625" lon="2.49563">
        <ele>267.6</ele>
        <time>2021-03-21T07:17:57Z</time>
      </trkpt>
      <trkpt lat="43.00617" lon="2.49555">
        <ele>268</ele>
        <time>2021-03-21T07:17:59Z</time>
      </trkpt>
      <trkpt lat="43.00614" lon="2.49551">
        <ele>268.2</ele>
        <time>2021-03-21T07:18:00Z</time>
      </trkpt>
      <trkpt lat="43.0061" lon="2.49548">
        <ele>268.4</ele>
        <time>2021-03-21T07:18:01Z</time>
      </trkpt>
      <trkpt lat="43.00604" lon="2.4954">
        <ele>268.8</ele>
        <time>2021-03-21T07:18:03Z</time>
      </trkpt>
      <trkpt lat="43.00598" lon="2.49532">
        <ele>269.2</ele>
        <time>2021-03-21T07:18:05Z</time>
      </trkpt>
      <trkpt lat="43.00595" lon="2.49535">
        <ele>269.3</ele>
        <time>2021-03-21T07:18:06Z</time>
      </trkpt>
      <trkpt lat="43.00592" lon="2.49528">
        <ele>269.5</ele>
        <time>2021-03-21T07:18:08Z</time>
      </trkpt>
      <trkpt lat="43.0059" lon="2.4952">
        <ele>269.7</ele>
        <time>2021-03-21T07:18:10Z</time>
      </trkpt>
      <trkpt lat="43.00584" lon="2.49519">
        <ele>269.9</ele>
        <time>2021-03-21T07:18:11Z</time>
      </trkpt>
      <trkpt lat="43.0058" lon="2.49511">
        <ele>270.1</ele>
        <time>2021-03-21T07:18:12Z</time>
      </trkpt>
      <trkpt lat="43.00574" lon="2.49495">
        <ele>270.5</ele>
        <time>2021-03-21T07:18:14Z</time>
      </trkpt>
      <trkpt lat="43.0057" lon="2.49487">
        <ele>270.7</ele>
        <time>2021-03-21T07:18:15Z</time>
      </trkpt>
      <trkpt lat="43.00563" lon="2.49473">
        <ele>271</ele>
        <time>2021-03-21T07:18:17Z</time>
      </trkpt>
      <trkpt lat="43.00559" lon="2.49467">
        <ele>271.1</ele>
        <time>2021-03-21T07:18:18Z</time>
      </trkpt>
      <trkpt lat="43.00553" lon="2.49454">
        <ele>271.2</ele>
        <time>2021-03-21T07:18:20Z</time>
      </trkpt>
      <trkpt lat="43.00544" lon="2.49443">
        <ele>271.3</ele>
        <time>2021-03-21T07:18:22Z</time>
      </trkpt>
      <trkpt lat="43.00539" lon="2.49437">
        <ele>271.3</ele>
        <time>2021-03-21T07:18:23Z</time>
      </trkpt>
      <trkpt lat="43.00529" lon="2.49426">
        <ele>271.3</ele>
        <time>2021-03-21T07:18:25Z</time>
      </trkpt>
      <trkpt lat="43.00524" lon="2.4942">
        <ele>271.4</ele>
        <time>2021-03-21T07:18:26Z</time>
      </trkpt>
      <trkpt lat="43.00519" lon="2.49415">
        <ele>271.4</ele>
        <time>2021-03-21T07:18:27Z</time>
      </trkpt>
      <trkpt lat="43.00509" lon="2.49405">
        <ele>271.6</ele>
        <time>2021-03-21T07:18:29Z</time>
      </trkpt>
      <trkpt lat="43.00504" lon="2.49401">
        <ele>271.6</ele>
        <time>2021-03-21T07:18:30Z</time>
      </trkpt>
      <trkpt lat="43.00494" lon="2.49393">
        <ele>271.8</ele>
        <time>2021-03-21T07:18:32Z</time>
      </trkpt>
      <trkpt lat="43.00482" lon="2.49387">
        <ele>271.9</ele>
        <time>2021-03-21T07:18:34Z</time>
      </trkpt>
      <trkpt lat="43.0047" lon="2.49382">
        <ele>272</ele>
        <time>2021-03-21T07:18:36Z</time>
      </trkpt>
      <trkpt lat="43.00457" lon="2.49379">
        <ele>272.2</ele>
        <time>2021-03-21T07:18:38Z</time>
      </trkpt>
      <trkpt lat="43.0045" lon="2.49378">
        <ele>272.3</ele>
        <time>2021-03-21T07:18:39Z</time>
      </trkpt>
      <trkpt lat="43.00444" lon="2.49377">
        <ele>272.3</ele>
        <time>2021-03-21T07:18:40Z</time>
      </trkpt>
      <trkpt lat="43.00432" lon="2.49377">
        <ele>272.5</ele>
        <time>2021-03-21T07:18:42Z</time>
      </trkpt>
      <trkpt lat="43.00426" lon="2.49376">
        <ele>272.6</ele>
        <time>2021-03-21T07:18:43Z</time>
      </trkpt>
      <trkpt lat="43.00414" lon="2.49375">
        <ele>272.7</ele>
        <time>2021-03-21T07:18:45Z</time>
      </trkpt>
      <trkpt lat="43.00403" lon="2.49371">
        <ele>272.8</ele>
        <time>2021-03-21T07:18:47Z</time>
      </trkpt>
      <trkpt lat="43.00392" lon="2.49365">
        <ele>273</ele>
        <time>2021-03-21T07:18:49Z</time>
      </trkpt>
      <trkpt lat="43.00387" lon="2.4936">
        <ele>273.1</ele>
        <time>2021-03-21T07:18:50Z</time>
      </trkpt>
      <trkpt lat="43.00383" lon="2.49355">
        <ele>273.2</ele>
        <time>2021-03-21T07:18:51Z</time>
      </trkpt>
      <trkpt lat="43.00379" lon="2.49349">
        <ele>273.4</ele>
        <time>2021-03-21T07:18:52Z</time>
      </trkpt>
      <trkpt lat="43.00372" lon="2.49337">
        <ele>273.6</ele>
        <time>2021-03-21T07:18:54Z</time>
      </trkpt>
      <trkpt lat="43.0037" lon="2.49331">
        <ele>273.8</ele>
        <time>2021-03-21T07:18:55Z</time>
      </trkpt>
      <trkpt lat="43.00365" lon="2.49319">
        <ele>273.9</ele>
        <time>2021-03-21T07:18:57Z</time>
      </trkpt>
      <trkpt lat="43.00359" lon="2.49307">
        <ele>273.9</ele>
        <time>2021-03-21T07:18:59Z</time>
      </trkpt>
      <trkpt lat="43.00353" lon="2.49295">
        <ele>273.7</ele>
        <time>2021-03-21T07:19:01Z</time>
      </trkpt>
      <trkpt lat="43.00347" lon="2.49282">
        <ele>273.1</ele>
        <time>2021-03-21T07:19:03Z</time>
      </trkpt>
      <trkpt lat="43.00341" lon="2.49267">
        <ele>272.4</ele>
        <time>2021-03-21T07:19:05Z</time>
      </trkpt>
      <trkpt lat="43.00338" lon="2.49258">
        <ele>272</ele>
        <time>2021-03-21T07:19:06Z</time>
      </trkpt>
      <trkpt lat="43.00336" lon="2.49248">
        <ele>271.7</ele>
        <time>2021-03-21T07:19:07Z</time>
      </trkpt>
      <trkpt lat="43.00332" lon="2.49226">
        <ele>270.9</ele>
        <time>2021-03-21T07:19:09Z</time>
      </trkpt>
      <trkpt lat="43.00327" lon="2.49203">
        <ele>270.2</ele>
        <time>2021-03-21T07:19:11Z</time>
      </trkpt>
      <trkpt lat="43.00324" lon="2.49192">
        <ele>269.8</ele>
        <time>2021-03-21T07:19:12Z</time>
      </trkpt>
      <trkpt lat="43.00318" lon="2.4917">
        <ele>269.3</ele>
        <time>2021-03-21T07:19:14Z</time>
      </trkpt>
      <trkpt lat="43.0031" lon="2.49149">
        <ele>269.1</ele>
        <time>2021-03-21T07:19:16Z</time>
      </trkpt>
      <trkpt lat="43.00305" lon="2.49138">
        <ele>269</ele>
        <time>2021-03-21T07:19:17Z</time>
      </trkpt>
      <trkpt lat="43.003" lon="2.49129">
        <ele>268.9</ele>
        <time>2021-03-21T07:19:18Z</time>
      </trkpt>
      <trkpt lat="43.0029" lon="2.4911">
        <ele>268.9</ele>
        <time>2021-03-21T07:19:20Z</time>
      </trkpt>
      <trkpt lat="43.00284" lon="2.49101">
        <ele>268.9</ele>
        <time>2021-03-21T07:19:21Z</time>
      </trkpt>
      <trkpt lat="43.00278" lon="2.49092">
        <ele>269</ele>
        <time>2021-03-21T07:19:22Z</time>
      </trkpt>
      <trkpt lat="43.00267" lon="2.49074">
        <ele>269.2</ele>
        <time>2021-03-21T07:19:24Z</time>
      </trkpt>
      <trkpt lat="43.00256" lon="2.49057">
        <ele>269.6</ele>
        <time>2021-03-21T07:19:26Z</time>
      </trkpt>
      <trkpt lat="43.00246" lon="2.49039">
        <ele>270.1</ele>
        <time>2021-03-21T07:19:28Z</time>
      </trkpt>
      <trkpt lat="43.00241" lon="2.49032">
        <ele>270.4</ele>
        <time>2021-03-21T07:19:29Z</time>
      </trkpt>
      <trkpt lat="43.00236" lon="2.49024">
        <ele>270.7</ele>
        <time>2021-03-21T07:19:30Z</time>
      </trkpt>
      <trkpt lat="43.00227" lon="2.49011">
        <ele>271.2</ele>
        <time>2021-03-21T07:19:32Z</time>
      </trkpt>
      <trkpt lat="43.00217" lon="2.49">
        <ele>271.8</ele>
        <time>2021-03-21T07:19:34Z</time>
      </trkpt>
      <trkpt lat="43.00206" lon="2.48993">
        <ele>272.4</ele>
        <time>2021-03-21T07:19:36Z</time>
      </trkpt>
      <trkpt lat="43.002" lon="2.4899">
        <ele>272.7</ele>
        <time>2021-03-21T07:19:37Z</time>
      </trkpt>
      <trkpt lat="43.00194" lon="2.48987">
        <ele>273</ele>
        <time>2021-03-21T07:19:38Z</time>
      </trkpt>
      <trkpt lat="43.00183" lon="2.48981">
        <ele>273.5</ele>
        <time>2021-03-21T07:19:40Z</time>
      </trkpt>
      <trkpt lat="43.00177" lon="2.48978">
        <ele>273.8</ele>
        <time>2021-03-21T07:19:41Z</time>
      </trkpt>
      <trkpt lat="43.00166" lon="2.48971">
        <ele>274.2</ele>
        <time>2021-03-21T07:19:43Z</time>
      </trkpt>
      <trkpt lat="43.00161" lon="2.48966">
        <ele>274.4</ele>
        <time>2021-03-21T07:19:44Z</time>
      </trkpt>
      <trkpt lat="43.00152" lon="2.48956">
        <ele>274.7</ele>
        <time>2021-03-21T07:19:46Z</time>
      </trkpt>
      <trkpt lat="43.00144" lon="2.48944">
        <ele>275</ele>
        <time>2021-03-21T07:19:48Z</time>
      </trkpt>
      <trkpt lat="43.00136" lon="2.4893">
        <ele>275.3</ele>
        <time>2021-03-21T07:19:50Z</time>
      </trkpt>
      <trkpt lat="43.00133" lon="2.48922">
        <ele>275.4</ele>
        <time>2021-03-21T07:19:51Z</time>
      </trkpt>
      <trkpt lat="43.00129" lon="2.48915">
        <ele>275.6</ele>
        <time>2021-03-21T07:19:52Z</time>
      </trkpt>
      <trkpt lat="43.00126" lon="2.48907">
        <ele>275.8</ele>
        <time>2021-03-21T07:19:53Z</time>
      </trkpt>
      <trkpt lat="43.00122" lon="2.48891">
        <ele>276.2</ele>
        <time>2021-03-21T07:19:55Z</time>
      </trkpt>
      <trkpt lat="43.0012" lon="2.48874">
        <ele>276.7</ele>
        <time>2021-03-21T07:19:57Z</time>
      </trkpt>
      <trkpt lat="43.0012" lon="2.48856">
        <ele>277.1</ele>
        <time>2021-03-21T07:19:59Z</time>
      </trkpt>
      <trkpt lat="43.0012" lon="2.48847">
        <ele>277.4</ele>
        <time>2021-03-21T07:20:00Z</time>
      </trkpt>
      <trkpt lat="43.00119" lon="2.48838">
        <ele>277.6</ele>
        <time>2021-03-21T07:20:01Z</time>
      </trkpt>
      <trkpt lat="43.00118" lon="2.4883">
        <ele>277.8</ele>
        <time>2021-03-21T07:20:02Z</time>
      </trkpt>
      <trkpt lat="43.00117" lon="2.48822">
        <ele>278</ele>
        <time>2021-03-21T07:20:03Z</time>
      </trkpt>
      <trkpt lat="43.00116" lon="2.48814">
        <ele>278.2</ele>
        <time>2021-03-21T07:20:04Z</time>
      </trkpt>
      <trkpt lat="43.00114" lon="2.48797">
        <ele>278.6</ele>
        <time>2021-03-21T07:20:06Z</time>
      </trkpt>
      <trkpt lat="43.00114" lon="2.48789">
        <ele>278.8</ele>
        <time>2021-03-21T07:20:07Z</time>
      </trkpt>
      <trkpt lat="43.00112" lon="2.48773">
        <ele>279.2</ele>
        <time>2021-03-21T07:20:09Z</time>
      </trkpt>
      <trkpt lat="43.0011" lon="2.48766">
        <ele>279.4</ele>
        <time>2021-03-21T07:20:10Z</time>
      </trkpt>
      <trkpt lat="43.00107" lon="2.48758">
        <ele>279.7</ele>
        <time>2021-03-21T07:20:11Z</time>
      </trkpt>
      <trkpt lat="43.00102" lon="2.48752">
        <ele>279.9</ele>
        <time>2021-03-21T07:20:12Z</time>
      </trkpt>
      <trkpt lat="43.00096" lon="2.48747">
        <ele>280.2</ele>
        <time>2021-03-21T07:20:13Z</time>
      </trkpt>
      <trkpt lat="43.00084" lon="2.48741">
        <ele>280.7</ele>
        <time>2021-03-21T07:20:15Z</time>
      </trkpt>
      <trkpt lat="43.00079" lon="2.48738">
        <ele>280.9</ele>
        <time>2021-03-21T07:20:16Z</time>
      </trkpt>
      <trkpt lat="43.00074" lon="2.48734">
        <ele>281.1</ele>
        <time>2021-03-21T07:20:17Z</time>
      </trkpt>
      <trkpt lat="43.00067" lon="2.48724">
        <ele>281.5</ele>
        <time>2021-03-21T07:20:19Z</time>
      </trkpt>
      <trkpt lat="43.00062" lon="2.48711">
        <ele>281.9</ele>
        <time>2021-03-21T07:20:21Z</time>
      </trkpt>
      <trkpt lat="43.00059" lon="2.48704">
        <ele>282.1</ele>
        <time>2021-03-21T07:20:22Z</time>
      </trkpt>
      <trkpt lat="43.00053" lon="2.48692">
        <ele>282.6</ele>
        <time>2021-03-21T07:20:24Z</time>
      </trkpt>
      <trkpt lat="43.0005" lon="2.48686">
        <ele>282.8</ele>
        <time>2021-03-21T07:20:25Z</time>
      </trkpt>
      <trkpt lat="43.00043" lon="2.48677">
        <ele>283.3</ele>
        <time>2021-03-21T07:20:27Z</time>
      </trkpt>
      <trkpt lat="43.00034" lon="2.48667">
        <ele>283.8</ele>
        <time>2021-03-21T07:20:29Z</time>
      </trkpt>
      <trkpt lat="43.0003" lon="2.48662">
        <ele>284.1</ele>
        <time>2021-03-21T07:20:30Z</time>
      </trkpt>
      <trkpt lat="43.00022" lon="2.48653">
        <ele>284.7</ele>
        <time>2021-03-21T07:20:32Z</time>
      </trkpt>
      <trkpt lat="43.00018" lon="2.48648">
        <ele>285</ele>
        <time>2021-03-21T07:20:33Z</time>
      </trkpt>
      <trkpt lat="43.00009" lon="2.48641">
        <ele>285.7</ele>
        <time>2021-03-21T07:20:35Z</time>
      </trkpt>
      <trkpt lat="43.00004" lon="2.48638">
        <ele>286</ele>
        <time>2021-03-21T07:20:36Z</time>
      </trkpt>
      <trkpt lat="42.99994" lon="2.48635">
        <ele>286.7</ele>
        <time>2021-03-21T07:20:38Z</time>
      </trkpt>
      <trkpt lat="42.99983" lon="2.48635">
        <ele>287.4</ele>
        <time>2021-03-21T07:20:40Z</time>
      </trkpt>
      <trkpt lat="42.99973" lon="2.48636">
        <ele>288</ele>
        <time>2021-03-21T07:20:42Z</time>
      </trkpt>
      <trkpt lat="42.9997" lon="2.48636">
        <ele>288.3</ele>
        <time>2021-03-21T07:20:43Z</time>
      </trkpt>
      <trkpt lat="42.99962" lon="2.48637">
        <ele>288.7</ele>
        <time>2021-03-21T07:20:45Z</time>
      </trkpt>
      <trkpt lat="42.99954" lon="2.48637">
        <ele>289.2</ele>
        <time>2021-03-21T07:20:47Z</time>
      </trkpt>
      <trkpt lat="42.99943" lon="2.48633">
        <ele>289.9</ele>
        <time>2021-03-21T07:20:49Z</time>
      </trkpt>
      <trkpt lat="42.99942" lon="2.48638">
        <ele>290.2</ele>
        <time>2021-03-21T07:20:51Z</time>
      </trkpt>
      <trkpt lat="42.99938" lon="2.48632">
        <ele>290.6</ele>
        <time>2021-03-21T07:20:52Z</time>
      </trkpt>
      <trkpt lat="42.9993" lon="2.4862">
        <ele>291.3</ele>
        <time>2021-03-21T07:20:54Z</time>
      </trkpt>
      <trkpt lat="42.99927" lon="2.48617">
        <ele>291.5</ele>
        <time>2021-03-21T07:20:55Z</time>
      </trkpt>
      <trkpt lat="42.99921" lon="2.4861">
        <ele>292</ele>
        <time>2021-03-21T07:20:56Z</time>
      </trkpt>
      <trkpt lat="42.99911" lon="2.48601">
        <ele>292.7</ele>
        <time>2021-03-21T07:20:58Z</time>
      </trkpt>
      <trkpt lat="42.99906" lon="2.48597">
        <ele>293.1</ele>
        <time>2021-03-21T07:20:59Z</time>
      </trkpt>
      <trkpt lat="42.99896" lon="2.48594">
        <ele>293.7</ele>
        <time>2021-03-21T07:21:01Z</time>
      </trkpt>
      <trkpt lat="42.99891" lon="2.4859">
        <ele>294.1</ele>
        <time>2021-03-21T07:21:03Z</time>
      </trkpt>
      <trkpt lat="42.99883" lon="2.48592">
        <ele>294.5</ele>
        <time>2021-03-21T07:21:04Z</time>
      </trkpt>
      <trkpt lat="42.99877" lon="2.48595">
        <ele>294.8</ele>
        <time>2021-03-21T07:21:06Z</time>
      </trkpt>
      <trkpt lat="42.99871" lon="2.48598">
        <ele>295.2</ele>
        <time>2021-03-21T07:21:07Z</time>
      </trkpt>
      <trkpt lat="42.99861" lon="2.48599">
        <ele>295.8</ele>
        <time>2021-03-21T07:21:09Z</time>
      </trkpt>
      <trkpt lat="42.99856" lon="2.48598">
        <ele>296.1</ele>
        <time>2021-03-21T07:21:10Z</time>
      </trkpt>
      <trkpt lat="42.9985" lon="2.48597">
        <ele>296.4</ele>
        <time>2021-03-21T07:21:11Z</time>
      </trkpt>
      <trkpt lat="42.9984" lon="2.48597">
        <ele>297</ele>
        <time>2021-03-21T07:21:13Z</time>
      </trkpt>
      <trkpt lat="42.9983" lon="2.48597">
        <ele>297.6</ele>
        <time>2021-03-21T07:21:15Z</time>
      </trkpt>
      <trkpt lat="42.9982" lon="2.48595">
        <ele>298.2</ele>
        <time>2021-03-21T07:21:17Z</time>
      </trkpt>
      <trkpt lat="42.99815" lon="2.48593">
        <ele>298.5</ele>
        <time>2021-03-21T07:21:18Z</time>
      </trkpt>
      <trkpt lat="42.99805" lon="2.48585">
        <ele>299</ele>
        <time>2021-03-21T07:21:20Z</time>
      </trkpt>
      <trkpt lat="42.99802" lon="2.4858">
        <ele>299.3</ele>
        <time>2021-03-21T07:21:21Z</time>
      </trkpt>
      <trkpt lat="42.99798" lon="2.48575">
        <ele>299.5</ele>
        <time>2021-03-21T07:21:22Z</time>
      </trkpt>
      <trkpt lat="42.99795" lon="2.48569">
        <ele>299.8</ele>
        <time>2021-03-21T07:21:23Z</time>
      </trkpt>
      <trkpt lat="42.99792" lon="2.48558">
        <ele>300.2</ele>
        <time>2021-03-21T07:21:25Z</time>
      </trkpt>
      <trkpt lat="42.9979" lon="2.48552">
        <ele>300.4</ele>
        <time>2021-03-21T07:21:26Z</time>
      </trkpt>
      <trkpt lat="42.99785" lon="2.48543">
        <ele>300.9</ele>
        <time>2021-03-21T07:21:28Z</time>
      </trkpt>
      <trkpt lat="42.99782" lon="2.48538">
        <ele>301.1</ele>
        <time>2021-03-21T07:21:29Z</time>
      </trkpt>
      <trkpt lat="42.99775" lon="2.48533">
        <ele>301.6</ele>
        <time>2021-03-21T07:21:31Z</time>
      </trkpt>
      <trkpt lat="42.99771" lon="2.48533">
        <ele>301.8</ele>
        <time>2021-03-21T07:21:32Z</time>
      </trkpt>
      <trkpt lat="42.9977" lon="2.4853">
        <ele>301.9</ele>
        <time>2021-03-21T07:21:33Z</time>
      </trkpt>
      <trkpt lat="42.99766" lon="2.48521">
        <ele>302.4</ele>
        <time>2021-03-21T07:21:35Z</time>
      </trkpt>
      <trkpt lat="42.99762" lon="2.48515">
        <ele>302.8</ele>
        <time>2021-03-21T07:21:37Z</time>
      </trkpt>
      <trkpt lat="42.99757" lon="2.4851">
        <ele>303.2</ele>
        <time>2021-03-21T07:21:38Z</time>
      </trkpt>
      <trkpt lat="42.99755" lon="2.48508">
        <ele>303.4</ele>
        <time>2021-03-21T07:21:40Z</time>
      </trkpt>
      <trkpt lat="42.99754" lon="2.48506">
        <ele>303.5</ele>
        <time>2021-03-21T07:21:41Z</time>
      </trkpt>
      <trkpt lat="42.99752" lon="2.48503">
        <ele>303.7</ele>
        <time>2021-03-21T07:21:43Z</time>
      </trkpt>
      <trkpt lat="42.99749" lon="2.485">
        <ele>303.9</ele>
        <time>2021-03-21T07:21:44Z</time>
      </trkpt>
      <trkpt lat="42.99744" lon="2.48497">
        <ele>304.3</ele>
        <time>2021-03-21T07:21:45Z</time>
      </trkpt>
      <trkpt lat="42.99741" lon="2.48496">
        <ele>304.5</ele>
        <time>2021-03-21T07:21:46Z</time>
      </trkpt>
      <trkpt lat="42.99736" lon="2.48496">
        <ele>304.8</ele>
        <time>2021-03-21T07:21:48Z</time>
      </trkpt>
      <trkpt lat="42.99732" lon="2.48497">
        <ele>305.1</ele>
        <time>2021-03-21T07:21:49Z</time>
      </trkpt>
      <trkpt lat="42.99722" lon="2.485">
        <ele>305.8</ele>
        <time>2021-03-21T07:21:50Z</time>
      </trkpt>
      <trkpt lat="42.99709" lon="2.48506">
        <ele>306.6</ele>
        <time>2021-03-21T07:21:52Z</time>
      </trkpt>
      <trkpt lat="42.99703" lon="2.48509">
        <ele>307</ele>
        <time>2021-03-21T07:21:54Z</time>
      </trkpt>
      <trkpt lat="42.997" lon="2.48513">
        <ele>307.3</ele>
        <time>2021-03-21T07:21:56Z</time>
      </trkpt>
      <trkpt lat="42.99694" lon="2.48515">
        <ele>307.7</ele>
        <time>2021-03-21T07:21:57Z</time>
      </trkpt>
      <trkpt lat="42.99687" lon="2.48515">
        <ele>308.1</ele>
        <time>2021-03-21T07:21:58Z</time>
      </trkpt>
      <trkpt lat="42.99676" lon="2.48514">
        <ele>308.7</ele>
        <time>2021-03-21T07:22:00Z</time>
      </trkpt>
      <trkpt lat="42.99671" lon="2.48512">
        <ele>309.1</ele>
        <time>2021-03-21T07:22:01Z</time>
      </trkpt>
      <trkpt lat="42.99666" lon="2.4851">
        <ele>309.4</ele>
        <time>2021-03-21T07:22:02Z</time>
      </trkpt>
      <trkpt lat="42.99662" lon="2.48506">
        <ele>309.6</ele>
        <time>2021-03-21T07:22:03Z</time>
      </trkpt>
      <trkpt lat="42.99652" lon="2.48495">
        <ele>310.2</ele>
        <time>2021-03-21T07:22:05Z</time>
      </trkpt>
      <trkpt lat="42.99645" lon="2.48488">
        <ele>310.6</ele>
        <time>2021-03-21T07:22:07Z</time>
      </trkpt>
      <trkpt lat="42.99639" lon="2.48483">
        <ele>310.9</ele>
        <time>2021-03-21T07:22:09Z</time>
      </trkpt>
      <trkpt lat="42.9963" lon="2.48475">
        <ele>311.3</ele>
        <time>2021-03-21T07:22:10Z</time>
      </trkpt>
      <trkpt lat="42.99624" lon="2.48472">
        <ele>311.6</ele>
        <time>2021-03-21T07:22:12Z</time>
      </trkpt>
      <trkpt lat="42.9962" lon="2.4847">
        <ele>311.7</ele>
        <time>2021-03-21T07:22:13Z</time>
      </trkpt>
      <trkpt lat="42.99616" lon="2.48467">
        <ele>312.2</ele>
        <time>2021-03-21T07:22:14Z</time>
      </trkpt>
      <trkpt lat="42.9961" lon="2.48462">
        <ele>312.6</ele>
        <time>2021-03-21T07:22:16Z</time>
      </trkpt>
      <trkpt lat="42.99605" lon="2.48456">
        <ele>312.9</ele>
        <time>2021-03-21T07:22:17Z</time>
      </trkpt>
      <trkpt lat="42.99601" lon="2.48451">
        <ele>313.2</ele>
        <time>2021-03-21T07:22:18Z</time>
      </trkpt>
      <trkpt lat="42.99593" lon="2.48439">
        <ele>313.9</ele>
        <time>2021-03-21T07:22:20Z</time>
      </trkpt>
      <trkpt lat="42.99588" lon="2.48434">
        <ele>314.2</ele>
        <time>2021-03-21T07:22:21Z</time>
      </trkpt>
      <trkpt lat="42.99583" lon="2.48428">
        <ele>314.5</ele>
        <time>2021-03-21T07:22:22Z</time>
      </trkpt>
      <trkpt lat="42.99574" lon="2.48418">
        <ele>315.1</ele>
        <time>2021-03-21T07:22:24Z</time>
      </trkpt>
      <trkpt lat="42.99565" lon="2.48409">
        <ele>315.7</ele>
        <time>2021-03-21T07:22:26Z</time>
      </trkpt>
      <trkpt lat="42.99561" lon="2.48405">
        <ele>316</ele>
        <time>2021-03-21T07:22:28Z</time>
      </trkpt>
      <trkpt lat="42.99557" lon="2.48404">
        <ele>316.2</ele>
        <time>2021-03-21T07:22:30Z</time>
      </trkpt>
      <trkpt lat="42.99553" lon="2.48402">
        <ele>316.3</ele>
        <time>2021-03-21T07:22:31Z</time>
      </trkpt>
      <trkpt lat="42.99547" lon="2.48397">
        <ele>316.7</ele>
        <time>2021-03-21T07:22:32Z</time>
      </trkpt>
      <trkpt lat="42.99538" lon="2.48391">
        <ele>317.2</ele>
        <time>2021-03-21T07:22:34Z</time>
      </trkpt>
      <trkpt lat="42.99541" lon="2.4839">
        <ele>317.3</ele>
        <time>2021-03-21T07:22:35Z</time>
      </trkpt>
      <trkpt lat="42.99537" lon="2.48387">
        <ele>317.6</ele>
        <time>2021-03-21T07:22:36Z</time>
      </trkpt>
      <trkpt lat="42.99528" lon="2.48377">
        <ele>318.2</ele>
        <time>2021-03-21T07:22:38Z</time>
      </trkpt>
      <trkpt lat="42.99523" lon="2.48373">
        <ele>318.6</ele>
        <time>2021-03-21T07:22:39Z</time>
      </trkpt>
      <trkpt lat="42.99517" lon="2.48372">
        <ele>318.9</ele>
        <time>2021-03-21T07:22:40Z</time>
      </trkpt>
      <trkpt lat="42.99514" lon="2.48364">
        <ele>319.3</ele>
        <time>2021-03-21T07:22:42Z</time>
      </trkpt>
      <trkpt lat="42.99511" lon="2.48356">
        <ele>319.6</ele>
        <time>2021-03-21T07:22:43Z</time>
      </trkpt>
      <trkpt lat="42.99508" lon="2.48348">
        <ele>320</ele>
        <time>2021-03-21T07:22:44Z</time>
      </trkpt>
      <trkpt lat="42.99504" lon="2.48342">
        <ele>320.3</ele>
        <time>2021-03-21T07:22:45Z</time>
      </trkpt>
      <trkpt lat="42.99501" lon="2.48336">
        <ele>320.6</ele>
        <time>2021-03-21T07:22:46Z</time>
      </trkpt>
      <trkpt lat="42.99499" lon="2.48332">
        <ele>320.8</ele>
        <time>2021-03-21T07:22:47Z</time>
      </trkpt>
      <trkpt lat="42.99494" lon="2.48325">
        <ele>321.2</ele>
        <time>2021-03-21T07:22:49Z</time>
      </trkpt>
      <trkpt lat="42.99485" lon="2.48316">
        <ele>321.8</ele>
        <time>2021-03-21T07:22:51Z</time>
      </trkpt>
      <trkpt lat="42.99481" lon="2.48311">
        <ele>322.1</ele>
        <time>2021-03-21T07:22:52Z</time>
      </trkpt>
      <trkpt lat="42.99478" lon="2.48307">
        <ele>322.3</ele>
        <time>2021-03-21T07:22:53Z</time>
      </trkpt>
      <trkpt lat="42.99474" lon="2.48303">
        <ele>322.6</ele>
        <time>2021-03-21T07:22:54Z</time>
      </trkpt>
      <trkpt lat="42.99468" lon="2.48298">
        <ele>323</ele>
        <time>2021-03-21T07:22:56Z</time>
      </trkpt>
      <trkpt lat="42.99465" lon="2.48295">
        <ele>323.2</ele>
        <time>2021-03-21T07:22:57Z</time>
      </trkpt>
      <trkpt lat="42.99461" lon="2.48293">
        <ele>323.4</ele>
        <time>2021-03-21T07:22:58Z</time>
      </trkpt>
      <trkpt lat="42.99456" lon="2.48291">
        <ele>323.7</ele>
        <time>2021-03-21T07:22:59Z</time>
      </trkpt>
      <trkpt lat="42.99449" lon="2.48289">
        <ele>324.1</ele>
        <time>2021-03-21T07:23:00Z</time>
      </trkpt>
      <trkpt lat="42.99443" lon="2.48289">
        <ele>324.5</ele>
        <time>2021-03-21T07:23:02Z</time>
      </trkpt>
      <trkpt lat="42.99439" lon="2.4829">
        <ele>324.7</ele>
        <time>2021-03-21T07:23:03Z</time>
      </trkpt>
      <trkpt lat="42.99433" lon="2.4829">
        <ele>325</ele>
        <time>2021-03-21T07:23:04Z</time>
      </trkpt>
      <trkpt lat="42.99421" lon="2.48285">
        <ele>325.6</ele>
        <time>2021-03-21T07:23:06Z</time>
      </trkpt>
      <trkpt lat="42.99415" lon="2.48286">
        <ele>325.9</ele>
        <time>2021-03-21T07:23:08Z</time>
      </trkpt>
      <trkpt lat="42.99413" lon="2.48289">
        <ele>326</ele>
        <time>2021-03-21T07:23:09Z</time>
      </trkpt>
      <trkpt lat="42.99407" lon="2.48284">
        <ele>326.3</ele>
        <time>2021-03-21T07:23:11Z</time>
      </trkpt>
      <trkpt lat="42.99402" lon="2.48281">
        <ele>326.6</ele>
        <time>2021-03-21T07:23:12Z</time>
      </trkpt>
      <trkpt lat="42.99397" lon="2.48278">
        <ele>326.9</ele>
        <time>2021-03-21T07:23:13Z</time>
      </trkpt>
      <trkpt lat="42.99389" lon="2.48274">
        <ele>327.2</ele>
        <time>2021-03-21T07:23:14Z</time>
      </trkpt>
      <trkpt lat="42.99385" lon="2.48272">
        <ele>327.4</ele>
        <time>2021-03-21T07:23:15Z</time>
      </trkpt>
      <trkpt lat="42.99377" lon="2.48272">
        <ele>327.8</ele>
        <time>2021-03-21T07:23:17Z</time>
      </trkpt>
      <trkpt lat="42.99369" lon="2.48275">
        <ele>328.1</ele>
        <time>2021-03-21T07:23:18Z</time>
      </trkpt>
      <trkpt lat="42.99357" lon="2.48282">
        <ele>328.6</ele>
        <time>2021-03-21T07:23:20Z</time>
      </trkpt>
      <trkpt lat="42.99352" lon="2.48286">
        <ele>328.9</ele>
        <time>2021-03-21T07:23:22Z</time>
      </trkpt>
      <trkpt lat="42.99352" lon="2.48293">
        <ele>329.1</ele>
        <time>2021-03-21T07:23:24Z</time>
      </trkpt>
      <trkpt lat="42.99348" lon="2.48297">
        <ele>329.2</ele>
        <time>2021-03-21T07:23:25Z</time>
      </trkpt>
      <trkpt lat="42.99334" lon="2.48299">
        <ele>329.8</ele>
        <time>2021-03-21T07:23:27Z</time>
      </trkpt>
      <trkpt lat="42.99327" lon="2.48297">
        <ele>330.2</ele>
        <time>2021-03-21T07:23:28Z</time>
      </trkpt>
      <trkpt lat="42.99321" lon="2.48293">
        <ele>330.6</ele>
        <time>2021-03-21T07:23:30Z</time>
      </trkpt>
      <trkpt lat="42.99316" lon="2.48286">
        <ele>330.9</ele>
        <time>2021-03-21T07:23:31Z</time>
      </trkpt>
      <trkpt lat="42.99306" lon="2.48273">
        <ele>331.6</ele>
        <time>2021-03-21T07:23:33Z</time>
      </trkpt>
      <trkpt lat="42.99301" lon="2.48266">
        <ele>331.9</ele>
        <time>2021-03-21T07:23:34Z</time>
      </trkpt>
      <trkpt lat="42.99291" lon="2.4825">
        <ele>332.4</ele>
        <time>2021-03-21T07:23:36Z</time>
      </trkpt>
      <trkpt lat="42.99286" lon="2.48243">
        <ele>332.6</ele>
        <time>2021-03-21T07:23:37Z</time>
      </trkpt>
      <trkpt lat="42.99279" lon="2.4823">
        <ele>333</ele>
        <time>2021-03-21T07:23:39Z</time>
      </trkpt>
      <trkpt lat="42.99271" lon="2.48218">
        <ele>333.2</ele>
        <time>2021-03-21T07:23:41Z</time>
      </trkpt>
      <trkpt lat="42.99264" lon="2.48206">
        <ele>333.3</ele>
        <time>2021-03-21T07:23:43Z</time>
      </trkpt>
      <trkpt lat="42.99261" lon="2.482">
        <ele>333.4</ele>
        <time>2021-03-21T07:23:44Z</time>
      </trkpt>
      <trkpt lat="42.99253" lon="2.48188">
        <ele>333.6</ele>
        <time>2021-03-21T07:23:46Z</time>
      </trkpt>
      <trkpt lat="42.9925" lon="2.48182">
        <ele>333.7</ele>
        <time>2021-03-21T07:23:47Z</time>
      </trkpt>
      <trkpt lat="42.99243" lon="2.48171">
        <ele>333.9</ele>
        <time>2021-03-21T07:23:49Z</time>
      </trkpt>
      <trkpt lat="42.99239" lon="2.48165">
        <ele>334</ele>
        <time>2021-03-21T07:23:50Z</time>
      </trkpt>
      <trkpt lat="42.99236" lon="2.48159">
        <ele>334.1</ele>
        <time>2021-03-21T07:23:51Z</time>
      </trkpt>
      <trkpt lat="42.99231" lon="2.48148">
        <ele>334.2</ele>
        <time>2021-03-21T07:23:53Z</time>
      </trkpt>
      <trkpt lat="42.99225" lon="2.48136">
        <ele>334.4</ele>
        <time>2021-03-21T07:23:55Z</time>
      </trkpt>
      <trkpt lat="42.99222" lon="2.48124">
        <ele>334.6</ele>
        <time>2021-03-21T07:23:57Z</time>
      </trkpt>
      <trkpt lat="42.99218" lon="2.48111">
        <ele>334.7</ele>
        <time>2021-03-21T07:23:59Z</time>
      </trkpt>
      <trkpt lat="42.99216" lon="2.48098">
        <ele>334.9</ele>
        <time>2021-03-21T07:24:01Z</time>
      </trkpt>
      <trkpt lat="42.99215" lon="2.48091">
        <ele>335</ele>
        <time>2021-03-21T07:24:02Z</time>
      </trkpt>
      <trkpt lat="42.99215" lon="2.48084">
        <ele>335</ele>
        <time>2021-03-21T07:24:03Z</time>
      </trkpt>
      <trkpt lat="42.99215" lon="2.48078">
        <ele>335.1</ele>
        <time>2021-03-21T07:24:04Z</time>
      </trkpt>
      <trkpt lat="42.99214" lon="2.48064">
        <ele>335.3</ele>
        <time>2021-03-21T07:24:06Z</time>
      </trkpt>
      <trkpt lat="42.99213" lon="2.4805">
        <ele>335.5</ele>
        <time>2021-03-21T07:24:08Z</time>
      </trkpt>
      <trkpt lat="42.99212" lon="2.48036">
        <ele>335.6</ele>
        <time>2021-03-21T07:24:10Z</time>
      </trkpt>
      <trkpt lat="42.99211" lon="2.48021">
        <ele>335.9</ele>
        <time>2021-03-21T07:24:12Z</time>
      </trkpt>
      <trkpt lat="42.99211" lon="2.48013">
        <ele>336</ele>
        <time>2021-03-21T07:24:13Z</time>
      </trkpt>
      <trkpt lat="42.9921" lon="2.47999">
        <ele>336.3</ele>
        <time>2021-03-21T07:24:15Z</time>
      </trkpt>
      <trkpt lat="42.99209" lon="2.47992">
        <ele>336.4</ele>
        <time>2021-03-21T07:24:16Z</time>
      </trkpt>
      <trkpt lat="42.99209" lon="2.47985">
        <ele>336.6</ele>
        <time>2021-03-21T07:24:17Z</time>
      </trkpt>
      <trkpt lat="42.99208" lon="2.47979">
        <ele>336.7</ele>
        <time>2021-03-21T07:24:18Z</time>
      </trkpt>
      <trkpt lat="42.99206" lon="2.47967">
        <ele>337</ele>
        <time>2021-03-21T07:24:20Z</time>
      </trkpt>
      <trkpt lat="42.99205" lon="2.47962">
        <ele>337.2</ele>
        <time>2021-03-21T07:24:21Z</time>
      </trkpt>
      <trkpt lat="42.992" lon="2.4795">
        <ele>337.4</ele>
        <time>2021-03-21T07:24:23Z</time>
      </trkpt>
      <trkpt lat="42.99197" lon="2.47945">
        <ele>337.4</ele>
        <time>2021-03-21T07:24:24Z</time>
      </trkpt>
      <trkpt lat="42.99188" lon="2.47936">
        <ele>337.5</ele>
        <time>2021-03-21T07:24:26Z</time>
      </trkpt>
      <trkpt lat="42.99182" lon="2.47933">
        <ele>337.6</ele>
        <time>2021-03-21T07:24:27Z</time>
      </trkpt>
      <trkpt lat="42.99177" lon="2.47929">
        <ele>337.7</ele>
        <time>2021-03-21T07:24:28Z</time>
      </trkpt>
      <trkpt lat="42.99167" lon="2.47922">
        <ele>337.8</ele>
        <time>2021-03-21T07:24:30Z</time>
      </trkpt>
      <trkpt lat="42.99162" lon="2.47918">
        <ele>337.8</ele>
        <time>2021-03-21T07:24:31Z</time>
      </trkpt>
      <trkpt lat="42.99154" lon="2.47911">
        <ele>338</ele>
        <time>2021-03-21T07:24:33Z</time>
      </trkpt>
      <trkpt lat="42.99149" lon="2.47907">
        <ele>338.1</ele>
        <time>2021-03-21T07:24:34Z</time>
      </trkpt>
      <trkpt lat="42.99141" lon="2.47898">
        <ele>338.2</ele>
        <time>2021-03-21T07:24:36Z</time>
      </trkpt>
      <trkpt lat="42.99137" lon="2.47893">
        <ele>338.3</ele>
        <time>2021-03-21T07:24:37Z</time>
      </trkpt>
      <trkpt lat="42.99132" lon="2.47882">
        <ele>338.5</ele>
        <time>2021-03-21T07:24:39Z</time>
      </trkpt>
      <trkpt lat="42.9913" lon="2.47877">
        <ele>338.5</ele>
        <time>2021-03-21T07:24:40Z</time>
      </trkpt>
      <trkpt lat="42.99129" lon="2.47871">
        <ele>338.6</ele>
        <time>2021-03-21T07:24:41Z</time>
      </trkpt>
      <trkpt lat="42.99127" lon="2.47864">
        <ele>338.6</ele>
        <time>2021-03-21T07:24:42Z</time>
      </trkpt>
      <trkpt lat="42.99123" lon="2.47849">
        <ele>338.8</ele>
        <time>2021-03-21T07:24:44Z</time>
      </trkpt>
      <trkpt lat="42.99121" lon="2.47841">
        <ele>338.9</ele>
        <time>2021-03-21T07:24:45Z</time>
      </trkpt>
      <trkpt lat="42.99119" lon="2.47835">
        <ele>338.9</ele>
        <time>2021-03-21T07:24:46Z</time>
      </trkpt>
      <trkpt lat="42.99113" lon="2.47822">
        <ele>339.1</ele>
        <time>2021-03-21T07:24:48Z</time>
      </trkpt>
      <trkpt lat="42.9911" lon="2.47815">
        <ele>339.2</ele>
        <time>2021-03-21T07:24:49Z</time>
      </trkpt>
      <trkpt lat="42.99104" lon="2.47803">
        <ele>339.4</ele>
        <time>2021-03-21T07:24:51Z</time>
      </trkpt>
      <trkpt lat="42.991" lon="2.47798">
        <ele>339.5</ele>
        <time>2021-03-21T07:24:52Z</time>
      </trkpt>
      <trkpt lat="42.99091" lon="2.4779">
        <ele>339.7</ele>
        <time>2021-03-21T07:24:54Z</time>
      </trkpt>
      <trkpt lat="42.99086" lon="2.47786">
        <ele>339.8</ele>
        <time>2021-03-21T07:24:55Z</time>
      </trkpt>
      <trkpt lat="42.99077" lon="2.47778">
        <ele>339.9</ele>
        <time>2021-03-21T07:24:57Z</time>
      </trkpt>
      <trkpt lat="42.99068" lon="2.47771">
        <ele>340.1</ele>
        <time>2021-03-21T07:24:59Z</time>
      </trkpt>
      <trkpt lat="42.99059" lon="2.47765">
        <ele>340.3</ele>
        <time>2021-03-21T07:25:01Z</time>
      </trkpt>
      <trkpt lat="42.9905" lon="2.47759">
        <ele>340.5</ele>
        <time>2021-03-21T07:25:03Z</time>
      </trkpt>
      <trkpt lat="42.99042" lon="2.47753">
        <ele>340.6</ele>
        <time>2021-03-21T07:25:05Z</time>
      </trkpt>
      <trkpt lat="42.99035" lon="2.47745">
        <ele>340.8</ele>
        <time>2021-03-21T07:25:07Z</time>
      </trkpt>
      <trkpt lat="42.99032" lon="2.4774">
        <ele>340.8</ele>
        <time>2021-03-21T07:25:08Z</time>
      </trkpt>
      <trkpt lat="42.99024" lon="2.47729">
        <ele>341</ele>
        <time>2021-03-21T07:25:10Z</time>
      </trkpt>
      <trkpt lat="42.99021" lon="2.47724">
        <ele>341.1</ele>
        <time>2021-03-21T07:25:11Z</time>
      </trkpt>
      <trkpt lat="42.99018" lon="2.47719">
        <ele>341.2</ele>
        <time>2021-03-21T07:25:12Z</time>
      </trkpt>
      <trkpt lat="42.99011" lon="2.47708">
        <ele>341.3</ele>
        <time>2021-03-21T07:25:14Z</time>
      </trkpt>
      <trkpt lat="42.99008" lon="2.47704">
        <ele>341.3</ele>
        <time>2021-03-21T07:25:15Z</time>
      </trkpt>
      <trkpt lat="42.99001" lon="2.47697">
        <ele>341.4</ele>
        <time>2021-03-21T07:25:17Z</time>
      </trkpt>
      <trkpt lat="42.98992" lon="2.47693">
        <ele>341.5</ele>
        <time>2021-03-21T07:25:19Z</time>
      </trkpt>
      <trkpt lat="42.98982" lon="2.47684">
        <ele>341.7</ele>
        <time>2021-03-21T07:25:21Z</time>
      </trkpt>
      <trkpt lat="42.98976" lon="2.4768">
        <ele>341.8</ele>
        <time>2021-03-21T07:25:22Z</time>
      </trkpt>
      <trkpt lat="42.98971" lon="2.47676">
        <ele>341.9</ele>
        <time>2021-03-21T07:25:23Z</time>
      </trkpt>
      <trkpt lat="42.98966" lon="2.47672">
        <ele>341.9</ele>
        <time>2021-03-21T07:25:24Z</time>
      </trkpt>
      <trkpt lat="42.98956" lon="2.47667">
        <ele>342.1</ele>
        <time>2021-03-21T07:25:26Z</time>
      </trkpt>
      <trkpt lat="42.98958" lon="2.47674">
        <ele>342.1</ele>
        <time>2021-03-21T07:25:28Z</time>
      </trkpt>
      <trkpt lat="42.98958" lon="2.47666">
        <ele>342.1</ele>
        <time>2021-03-21T07:25:30Z</time>
      </trkpt>
      <trkpt lat="42.9895" lon="2.47658">
        <ele>342</ele>
        <time>2021-03-21T07:25:31Z</time>
      </trkpt>
      <trkpt lat="42.98944" lon="2.47653">
        <ele>342</ele>
        <time>2021-03-21T07:25:33Z</time>
      </trkpt>
      <trkpt lat="42.98934" lon="2.47645">
        <ele>341.9</ele>
        <time>2021-03-21T07:25:34Z</time>
      </trkpt>
      <trkpt lat="42.98932" lon="2.47642">
        <ele>341.8</ele>
        <time>2021-03-21T07:25:35Z</time>
      </trkpt>
      <trkpt lat="42.98922" lon="2.47633">
        <ele>341.5</ele>
        <time>2021-03-21T07:25:37Z</time>
      </trkpt>
      <trkpt lat="42.98917" lon="2.47625">
        <ele>341.3</ele>
        <time>2021-03-21T07:25:38Z</time>
      </trkpt>
      <trkpt lat="42.98913" lon="2.47616">
        <ele>341.2</ele>
        <time>2021-03-21T07:25:39Z</time>
      </trkpt>
      <trkpt lat="42.98909" lon="2.47597">
        <ele>340.9</ele>
        <time>2021-03-21T07:25:41Z</time>
      </trkpt>
      <trkpt lat="42.98908" lon="2.47577">
        <ele>340.6</ele>
        <time>2021-03-21T07:25:43Z</time>
      </trkpt>
      <trkpt lat="42.9891" lon="2.47557">
        <ele>340.3</ele>
        <time>2021-03-21T07:25:45Z</time>
      </trkpt>
      <trkpt lat="42.98912" lon="2.47538">
        <ele>340.1</ele>
        <time>2021-03-21T07:25:47Z</time>
      </trkpt>
      <trkpt lat="42.98914" lon="2.47528">
        <ele>339.9</ele>
        <time>2021-03-21T07:25:48Z</time>
      </trkpt>
      <trkpt lat="42.98917" lon="2.47508">
        <ele>339.6</ele>
        <time>2021-03-21T07:25:50Z</time>
      </trkpt>
      <trkpt lat="42.98918" lon="2.47498">
        <ele>339.4</ele>
        <time>2021-03-21T07:25:51Z</time>
      </trkpt>
      <trkpt lat="42.9892" lon="2.4748">
        <ele>339.1</ele>
        <time>2021-03-21T07:25:53Z</time>
      </trkpt>
      <trkpt lat="42.98921" lon="2.47471">
        <ele>339</ele>
        <time>2021-03-21T07:25:54Z</time>
      </trkpt>
      <trkpt lat="42.9892" lon="2.47453">
        <ele>338.7</ele>
        <time>2021-03-21T07:25:56Z</time>
      </trkpt>
      <trkpt lat="42.98918" lon="2.47444">
        <ele>338.6</ele>
        <time>2021-03-21T07:25:57Z</time>
      </trkpt>
      <trkpt lat="42.98914" lon="2.47436">
        <ele>338.4</ele>
        <time>2021-03-21T07:25:58Z</time>
      </trkpt>
      <trkpt lat="42.98908" lon="2.47429">
        <ele>338.2</ele>
        <time>2021-03-21T07:25:59Z</time>
      </trkpt>
      <trkpt lat="42.98901" lon="2.47423">
        <ele>338</ele>
        <time>2021-03-21T07:26:00Z</time>
      </trkpt>
      <trkpt lat="42.98883" lon="2.47415">
        <ele>337.6</ele>
        <time>2021-03-21T07:26:02Z</time>
      </trkpt>
      <trkpt lat="42.98863" lon="2.47417">
        <ele>337.2</ele>
        <time>2021-03-21T07:26:04Z</time>
      </trkpt>
      <trkpt lat="42.98854" lon="2.47423">
        <ele>336.9</ele>
        <time>2021-03-21T07:26:05Z</time>
      </trkpt>
      <trkpt lat="42.98837" lon="2.47441">
        <ele>336.4</ele>
        <time>2021-03-21T07:26:07Z</time>
      </trkpt>
      <trkpt lat="42.9883" lon="2.47452">
        <ele>336.1</ele>
        <time>2021-03-21T07:26:08Z</time>
      </trkpt>
      <trkpt lat="42.98816" lon="2.4747">
        <ele>335.7</ele>
        <time>2021-03-21T07:26:10Z</time>
      </trkpt>
      <trkpt lat="42.98808" lon="2.47477">
        <ele>335.6</ele>
        <time>2021-03-21T07:26:11Z</time>
      </trkpt>
      <trkpt lat="42.98789" lon="2.47486">
        <ele>335.2</ele>
        <time>2021-03-21T07:26:13Z</time>
      </trkpt>
      <trkpt lat="42.98779" lon="2.47486">
        <ele>335</ele>
        <time>2021-03-21T07:26:14Z</time>
      </trkpt>
      <trkpt lat="42.98758" lon="2.47483">
        <ele>334.6</ele>
        <time>2021-03-21T07:26:16Z</time>
      </trkpt>
      <trkpt lat="42.98748" lon="2.4748">
        <ele>334.4</ele>
        <time>2021-03-21T07:26:17Z</time>
      </trkpt>
      <trkpt lat="42.98739" lon="2.47479">
        <ele>334.2</ele>
        <time>2021-03-21T07:26:18Z</time>
      </trkpt>
      <trkpt lat="42.98729" lon="2.47478">
        <ele>334</ele>
        <time>2021-03-21T07:26:19Z</time>
      </trkpt>
      <trkpt lat="42.9871" lon="2.47478">
        <ele>333.5</ele>
        <time>2021-03-21T07:26:21Z</time>
      </trkpt>
      <trkpt lat="42.987" lon="2.47477">
        <ele>333.3</ele>
        <time>2021-03-21T07:26:22Z</time>
      </trkpt>
      <trkpt lat="42.9868" lon="2.47475">
        <ele>332.9</ele>
        <time>2021-03-21T07:26:24Z</time>
      </trkpt>
      <trkpt lat="42.98659" lon="2.47472">
        <ele>332.5</ele>
        <time>2021-03-21T07:26:26Z</time>
      </trkpt>
      <trkpt lat="42.98649" lon="2.4747">
        <ele>332.3</ele>
        <time>2021-03-21T07:26:27Z</time>
      </trkpt>
      <trkpt lat="42.98639" lon="2.47469">
        <ele>332.1</ele>
        <time>2021-03-21T07:26:28Z</time>
      </trkpt>
      <trkpt lat="42.98629" lon="2.47468">
        <ele>331.8</ele>
        <time>2021-03-21T07:26:29Z</time>
      </trkpt>
      <trkpt lat="42.98609" lon="2.47466">
        <ele>331.4</ele>
        <time>2021-03-21T07:26:31Z</time>
      </trkpt>
      <trkpt lat="42.9859" lon="2.47464">
        <ele>331</ele>
        <time>2021-03-21T07:26:33Z</time>
      </trkpt>
      <trkpt lat="42.9858" lon="2.47462">
        <ele>330.8</ele>
        <time>2021-03-21T07:26:34Z</time>
      </trkpt>
      <trkpt lat="42.98571" lon="2.47459">
        <ele>330.5</ele>
        <time>2021-03-21T07:26:35Z</time>
      </trkpt>
      <trkpt lat="42.98561" lon="2.47454">
        <ele>330.3</ele>
        <time>2021-03-21T07:26:36Z</time>
      </trkpt>
      <trkpt lat="42.98543" lon="2.4744">
        <ele>329.9</ele>
        <time>2021-03-21T07:26:38Z</time>
      </trkpt>
      <trkpt lat="42.98535" lon="2.47432">
        <ele>329.7</ele>
        <time>2021-03-21T07:26:39Z</time>
      </trkpt>
      <trkpt lat="42.98527" lon="2.47423">
        <ele>329.5</ele>
        <time>2021-03-21T07:26:40Z</time>
      </trkpt>
      <trkpt lat="42.98519" lon="2.47414">
        <ele>329.3</ele>
        <time>2021-03-21T07:26:41Z</time>
      </trkpt>
      <trkpt lat="42.98505" lon="2.47397">
        <ele>328.9</ele>
        <time>2021-03-21T07:26:43Z</time>
      </trkpt>
      <trkpt lat="42.98499" lon="2.47387">
        <ele>328.7</ele>
        <time>2021-03-21T07:26:44Z</time>
      </trkpt>
      <trkpt lat="42.98493" lon="2.47377">
        <ele>328.5</ele>
        <time>2021-03-21T07:26:45Z</time>
      </trkpt>
      <trkpt lat="42.98488" lon="2.47351">
        <ele>328.1</ele>
        <time>2021-03-21T07:26:47Z</time>
      </trkpt>
      <trkpt lat="42.98489" lon="2.47337">
        <ele>327.9</ele>
        <time>2021-03-21T07:26:48Z</time>
      </trkpt>
      <trkpt lat="42.9849" lon="2.47324">
        <ele>327.6</ele>
        <time>2021-03-21T07:26:49Z</time>
      </trkpt>
      <trkpt lat="42.98487" lon="2.47299">
        <ele>327.2</ele>
        <time>2021-03-21T07:26:51Z</time>
      </trkpt>
      <trkpt lat="42.98481" lon="2.4729">
        <ele>326.9</ele>
        <time>2021-03-21T07:26:52Z</time>
      </trkpt>
      <trkpt lat="42.98472" lon="2.47284">
        <ele>326.7</ele>
        <time>2021-03-21T07:26:53Z</time>
      </trkpt>
      <trkpt lat="42.98454" lon="2.47285">
        <ele>326.3</ele>
        <time>2021-03-21T07:26:55Z</time>
      </trkpt>
      <trkpt lat="42.98445" lon="2.4729">
        <ele>326</ele>
        <time>2021-03-21T07:26:56Z</time>
      </trkpt>
      <trkpt lat="42.98437" lon="2.47296">
        <ele>325.8</ele>
        <time>2021-03-21T07:26:57Z</time>
      </trkpt>
      <trkpt lat="42.9842" lon="2.47307">
        <ele>325.2</ele>
        <time>2021-03-21T07:26:59Z</time>
      </trkpt>
      <trkpt lat="42.98411" lon="2.47312">
        <ele>325</ele>
        <time>2021-03-21T07:27:00Z</time>
      </trkpt>
      <trkpt lat="42.98402" lon="2.47316">
        <ele>324.8</ele>
        <time>2021-03-21T07:27:01Z</time>
      </trkpt>
      <trkpt lat="42.98393" lon="2.47319">
        <ele>324.6</ele>
        <time>2021-03-21T07:27:02Z</time>
      </trkpt>
      <trkpt lat="42.98376" lon="2.47318">
        <ele>324.2</ele>
        <time>2021-03-21T07:27:04Z</time>
      </trkpt>
      <trkpt lat="42.98366" lon="2.47315">
        <ele>324</ele>
        <time>2021-03-21T07:27:05Z</time>
      </trkpt>
      <trkpt lat="42.98346" lon="2.47306">
        <ele>323.8</ele>
        <time>2021-03-21T07:27:07Z</time>
      </trkpt>
      <trkpt lat="42.98337" lon="2.47301">
        <ele>323.7</ele>
        <time>2021-03-21T07:27:08Z</time>
      </trkpt>
      <trkpt lat="42.98319" lon="2.47293">
        <ele>323.5</ele>
        <time>2021-03-21T07:27:10Z</time>
      </trkpt>
      <trkpt lat="42.9831" lon="2.47289">
        <ele>323.4</ele>
        <time>2021-03-21T07:27:11Z</time>
      </trkpt>
      <trkpt lat="42.98301" lon="2.47286">
        <ele>323.4</ele>
        <time>2021-03-21T07:27:12Z</time>
      </trkpt>
      <trkpt lat="42.98282" lon="2.47283">
        <ele>323.3</ele>
        <time>2021-03-21T07:27:14Z</time>
      </trkpt>
      <trkpt lat="42.98265" lon="2.47291">
        <ele>323.2</ele>
        <time>2021-03-21T07:27:16Z</time>
      </trkpt>
      <trkpt lat="42.98251" lon="2.47309">
        <ele>323.2</ele>
        <time>2021-03-21T07:27:18Z</time>
      </trkpt>
      <trkpt lat="42.98236" lon="2.47327">
        <ele>323.2</ele>
        <time>2021-03-21T07:27:20Z</time>
      </trkpt>
      <trkpt lat="42.98222" lon="2.47339">
        <ele>323.5</ele>
        <time>2021-03-21T07:27:22Z</time>
      </trkpt>
      <trkpt lat="42.98206" lon="2.47348">
        <ele>323.8</ele>
        <time>2021-03-21T07:27:24Z</time>
      </trkpt>
      <trkpt lat="42.98199" lon="2.47353">
        <ele>323.9</ele>
        <time>2021-03-21T07:27:25Z</time>
      </trkpt>
      <trkpt lat="42.98192" lon="2.47359">
        <ele>323.9</ele>
        <time>2021-03-21T07:27:26Z</time>
      </trkpt>
      <trkpt lat="42.98177" lon="2.47367">
        <ele>323.9</ele>
        <time>2021-03-21T07:27:28Z</time>
      </trkpt>
      <trkpt lat="42.9817" lon="2.47369">
        <ele>323.9</ele>
        <time>2021-03-21T07:27:29Z</time>
      </trkpt>
      <trkpt lat="42.98154" lon="2.47367">
        <ele>324.1</ele>
        <time>2021-03-21T07:27:31Z</time>
      </trkpt>
      <trkpt lat="42.98138" lon="2.47369">
        <ele>324.2</ele>
        <time>2021-03-21T07:27:33Z</time>
      </trkpt>
      <trkpt lat="42.98126" lon="2.47381">
        <ele>324.2</ele>
        <time>2021-03-21T07:27:35Z</time>
      </trkpt>
      <trkpt lat="42.98121" lon="2.4739">
        <ele>324.2</ele>
        <time>2021-03-21T07:27:36Z</time>
      </trkpt>
      <trkpt lat="42.98118" lon="2.47414">
        <ele>324.2</ele>
        <time>2021-03-21T07:27:38Z</time>
      </trkpt>
      <trkpt lat="42.98119" lon="2.47426">
        <ele>324.3</ele>
        <time>2021-03-21T07:27:39Z</time>
      </trkpt>
      <trkpt lat="42.98124" lon="2.47449">
        <ele>324.4</ele>
        <time>2021-03-21T07:27:41Z</time>
      </trkpt>
      <trkpt lat="42.98129" lon="2.47471">
        <ele>324.5</ele>
        <time>2021-03-21T07:27:43Z</time>
      </trkpt>
      <trkpt lat="42.98132" lon="2.47493">
        <ele>324.7</ele>
        <time>2021-03-21T07:27:45Z</time>
      </trkpt>
      <trkpt lat="42.98136" lon="2.47514">
        <ele>324.8</ele>
        <time>2021-03-21T07:27:47Z</time>
      </trkpt>
      <trkpt lat="42.98141" lon="2.47535">
        <ele>324.9</ele>
        <time>2021-03-21T07:27:49Z</time>
      </trkpt>
      <trkpt lat="42.98146" lon="2.47555">
        <ele>325.1</ele>
        <time>2021-03-21T07:27:51Z</time>
      </trkpt>
      <trkpt lat="42.98149" lon="2.47565">
        <ele>325.1</ele>
        <time>2021-03-21T07:27:52Z</time>
      </trkpt>
      <trkpt lat="42.9815" lon="2.47575">
        <ele>325.2</ele>
        <time>2021-03-21T07:27:53Z</time>
      </trkpt>
      <trkpt lat="42.98147" lon="2.47596">
        <ele>325.4</ele>
        <time>2021-03-21T07:27:55Z</time>
      </trkpt>
      <trkpt lat="42.98132" lon="2.47599">
        <ele>325.3</ele>
        <time>2021-03-21T07:27:57Z</time>
      </trkpt>
      <trkpt lat="42.98116" lon="2.47588">
        <ele>325</ele>
        <time>2021-03-21T07:27:59Z</time>
      </trkpt>
      <trkpt lat="42.98108" lon="2.47581">
        <ele>325</ele>
        <time>2021-03-21T07:28:00Z</time>
      </trkpt>
      <trkpt lat="42.98099" lon="2.47575">
        <ele>325</ele>
        <time>2021-03-21T07:28:01Z</time>
      </trkpt>
      <trkpt lat="42.98081" lon="2.47565">
        <ele>325.2</ele>
        <time>2021-03-21T07:28:03Z</time>
      </trkpt>
      <trkpt lat="42.98073" lon="2.47561">
        <ele>325.3</ele>
        <time>2021-03-21T07:28:04Z</time>
      </trkpt>
      <trkpt lat="42.98065" lon="2.47557">
        <ele>325.3</ele>
        <time>2021-03-21T07:28:05Z</time>
      </trkpt>
      <trkpt lat="42.9805" lon="2.47549">
        <ele>325.4</ele>
        <time>2021-03-21T07:28:07Z</time>
      </trkpt>
      <trkpt lat="42.98036" lon="2.4754">
        <ele>325.5</ele>
        <time>2021-03-21T07:28:09Z</time>
      </trkpt>
      <trkpt lat="42.98021" lon="2.47532">
        <ele>325.6</ele>
        <time>2021-03-21T07:28:11Z</time>
      </trkpt>
      <trkpt lat="42.98013" lon="2.47528">
        <ele>325.7</ele>
        <time>2021-03-21T07:28:12Z</time>
      </trkpt>
      <trkpt lat="42.98006" lon="2.47524">
        <ele>325.7</ele>
        <time>2021-03-21T07:28:13Z</time>
      </trkpt>
      <trkpt lat="42.9799" lon="2.47518">
        <ele>325.8</ele>
        <time>2021-03-21T07:28:15Z</time>
      </trkpt>
      <trkpt lat="42.97983" lon="2.47515">
        <ele>325.9</ele>
        <time>2021-03-21T07:28:16Z</time>
      </trkpt>
      <trkpt lat="42.97975" lon="2.47513">
        <ele>325.9</ele>
        <time>2021-03-21T07:28:17Z</time>
      </trkpt>
      <trkpt lat="42.97961" lon="2.47508">
        <ele>325.9</ele>
        <time>2021-03-21T07:28:19Z</time>
      </trkpt>
      <trkpt lat="42.97953" lon="2.47505">
        <ele>326</ele>
        <time>2021-03-21T07:28:20Z</time>
      </trkpt>
      <trkpt lat="42.97938" lon="2.47501">
        <ele>326.1</ele>
        <time>2021-03-21T07:28:22Z</time>
      </trkpt>
      <trkpt lat="42.97931" lon="2.475">
        <ele>326.1</ele>
        <time>2021-03-21T07:28:23Z</time>
      </trkpt>
      <trkpt lat="42.97915" lon="2.47505">
        <ele>326.1</ele>
        <time>2021-03-21T07:28:25Z</time>
      </trkpt>
      <trkpt lat="42.97907" lon="2.4751">
        <ele>326.1</ele>
        <time>2021-03-21T07:28:26Z</time>
      </trkpt>
      <trkpt lat="42.97899" lon="2.47515">
        <ele>326.2</ele>
        <time>2021-03-21T07:28:27Z</time>
      </trkpt>
      <trkpt lat="42.97884" lon="2.47525">
        <ele>326.3</ele>
        <time>2021-03-21T07:28:29Z</time>
      </trkpt>
      <trkpt lat="42.97877" lon="2.4753">
        <ele>326.3</ele>
        <time>2021-03-21T07:28:30Z</time>
      </trkpt>
      <trkpt lat="42.97864" lon="2.47545">
        <ele>326.4</ele>
        <time>2021-03-21T07:28:32Z</time>
      </trkpt>
      <trkpt lat="42.97859" lon="2.47552">
        <ele>326.4</ele>
        <time>2021-03-21T07:28:33Z</time>
      </trkpt>
      <trkpt lat="42.97846" lon="2.47563">
        <ele>326.4</ele>
        <time>2021-03-21T07:28:35Z</time>
      </trkpt>
      <trkpt lat="42.97838" lon="2.47565">
        <ele>326.5</ele>
        <time>2021-03-21T07:28:36Z</time>
      </trkpt>
      <trkpt lat="42.97829" lon="2.47567">
        <ele>326.5</ele>
        <time>2021-03-21T07:28:37Z</time>
      </trkpt>
      <trkpt lat="42.97812" lon="2.47568">
        <ele>326.6</ele>
        <time>2021-03-21T07:28:39Z</time>
      </trkpt>
      <trkpt lat="42.97795" lon="2.47571">
        <ele>326.7</ele>
        <time>2021-03-21T07:28:41Z</time>
      </trkpt>
      <trkpt lat="42.97786" lon="2.47572">
        <ele>326.7</ele>
        <time>2021-03-21T07:28:42Z</time>
      </trkpt>
      <trkpt lat="42.97778" lon="2.47573">
        <ele>326.8</ele>
        <time>2021-03-21T07:28:43Z</time>
      </trkpt>
      <trkpt lat="42.97762" lon="2.47569">
        <ele>326.8</ele>
        <time>2021-03-21T07:28:45Z</time>
      </trkpt>
      <trkpt lat="42.97754" lon="2.47564">
        <ele>326.9</ele>
        <time>2021-03-21T07:28:46Z</time>
      </trkpt>
      <trkpt lat="42.97738" lon="2.47547">
        <ele>327</ele>
        <time>2021-03-21T07:28:48Z</time>
      </trkpt>
      <trkpt lat="42.97723" lon="2.47537">
        <ele>327.1</ele>
        <time>2021-03-21T07:28:50Z</time>
      </trkpt>
      <trkpt lat="42.97715" lon="2.47536">
        <ele>327.1</ele>
        <time>2021-03-21T07:28:51Z</time>
      </trkpt>
      <trkpt lat="42.977" lon="2.47539">
        <ele>327.2</ele>
        <time>2021-03-21T07:28:53Z</time>
      </trkpt>
      <trkpt lat="42.97684" lon="2.47548">
        <ele>327.2</ele>
        <time>2021-03-21T07:28:55Z</time>
      </trkpt>
      <trkpt lat="42.97677" lon="2.47554">
        <ele>327.2</ele>
        <time>2021-03-21T07:28:56Z</time>
      </trkpt>
      <trkpt lat="42.97661" lon="2.47567">
        <ele>327.3</ele>
        <time>2021-03-21T07:28:58Z</time>
      </trkpt>
      <trkpt lat="42.97653" lon="2.47571">
        <ele>327.3</ele>
        <time>2021-03-21T07:28:59Z</time>
      </trkpt>
      <trkpt lat="42.97645" lon="2.47574">
        <ele>327.3</ele>
        <time>2021-03-21T07:29:00Z</time>
      </trkpt>
      <trkpt lat="42.97637" lon="2.47577">
        <ele>327.3</ele>
        <time>2021-03-21T07:29:01Z</time>
      </trkpt>
      <trkpt lat="42.97622" lon="2.47585">
        <ele>327.3</ele>
        <time>2021-03-21T07:29:03Z</time>
      </trkpt>
      <trkpt lat="42.9761" lon="2.47598">
        <ele>327.4</ele>
        <time>2021-03-21T07:29:05Z</time>
      </trkpt>
      <trkpt lat="42.97605" lon="2.47606">
        <ele>327.4</ele>
        <time>2021-03-21T07:29:06Z</time>
      </trkpt>
      <trkpt lat="42.97601" lon="2.47615">
        <ele>327.5</ele>
        <time>2021-03-21T07:29:07Z</time>
      </trkpt>
      <trkpt lat="42.97598" lon="2.47637">
        <ele>327.5</ele>
        <time>2021-03-21T07:29:09Z</time>
      </trkpt>
      <trkpt lat="42.97599" lon="2.47648">
        <ele>327.6</ele>
        <time>2021-03-21T07:29:10Z</time>
      </trkpt>
      <trkpt lat="42.97604" lon="2.47669">
        <ele>328</ele>
        <time>2021-03-21T07:29:12Z</time>
      </trkpt>
      <trkpt lat="42.97608" lon="2.47678">
        <ele>328.2</ele>
        <time>2021-03-21T07:29:13Z</time>
      </trkpt>
      <trkpt lat="42.97614" lon="2.47687">
        <ele>328.4</ele>
        <time>2021-03-21T07:29:14Z</time>
      </trkpt>
      <trkpt lat="42.97623" lon="2.47703">
        <ele>328.6</ele>
        <time>2021-03-21T07:29:16Z</time>
      </trkpt>
      <trkpt lat="42.97621" lon="2.47718">
        <ele>328.6</ele>
        <time>2021-03-21T07:29:18Z</time>
      </trkpt>
      <trkpt lat="42.97616" lon="2.47722">
        <ele>328.5</ele>
        <time>2021-03-21T07:29:19Z</time>
      </trkpt>
      <trkpt lat="42.9761" lon="2.47721">
        <ele>328.5</ele>
        <time>2021-03-21T07:29:20Z</time>
      </trkpt>
      <trkpt lat="42.97602" lon="2.47716">
        <ele>328.5</ele>
        <time>2021-03-21T07:29:21Z</time>
      </trkpt>
      <trkpt lat="42.97594" lon="2.47709">
        <ele>328.5</ele>
        <time>2021-03-21T07:29:22Z</time>
      </trkpt>
      <trkpt lat="42.97578" lon="2.47694">
        <ele>328.5</ele>
        <time>2021-03-21T07:29:24Z</time>
      </trkpt>
      <trkpt lat="42.97571" lon="2.47686">
        <ele>328.5</ele>
        <time>2021-03-21T07:29:25Z</time>
      </trkpt>
      <trkpt lat="42.97559" lon="2.4767">
        <ele>328.5</ele>
        <time>2021-03-21T07:29:27Z</time>
      </trkpt>
      <trkpt lat="42.97548" lon="2.47654">
        <ele>328.5</ele>
        <time>2021-03-21T07:29:29Z</time>
      </trkpt>
      <trkpt lat="42.97538" lon="2.47639">
        <ele>328.5</ele>
        <time>2021-03-21T07:29:31Z</time>
      </trkpt>
      <trkpt lat="42.97533" lon="2.47632">
        <ele>328.5</ele>
        <time>2021-03-21T07:29:32Z</time>
      </trkpt>
      <trkpt lat="42.97527" lon="2.47625">
        <ele>328.5</ele>
        <time>2021-03-21T07:29:33Z</time>
      </trkpt>
      <trkpt lat="42.97516" lon="2.47612">
        <ele>328.6</ele>
        <time>2021-03-21T07:29:35Z</time>
      </trkpt>
      <trkpt lat="42.9751" lon="2.47607">
        <ele>328.6</ele>
        <time>2021-03-21T07:29:36Z</time>
      </trkpt>
      <trkpt lat="42.97503" lon="2.47603">
        <ele>328.7</ele>
        <time>2021-03-21T07:29:37Z</time>
      </trkpt>
      <trkpt lat="42.97496" lon="2.47599">
        <ele>328.7</ele>
        <time>2021-03-21T07:29:38Z</time>
      </trkpt>
      <trkpt lat="42.97481" lon="2.47596">
        <ele>328.8</ele>
        <time>2021-03-21T07:29:40Z</time>
      </trkpt>
      <trkpt lat="42.97467" lon="2.47594">
        <ele>328.9</ele>
        <time>2021-03-21T07:29:42Z</time>
      </trkpt>
      <trkpt lat="42.9746" lon="2.47593">
        <ele>328.9</ele>
        <time>2021-03-21T07:29:43Z</time>
      </trkpt>
      <trkpt lat="42.97453" lon="2.47593">
        <ele>329</ele>
        <time>2021-03-21T07:29:44Z</time>
      </trkpt>
      <trkpt lat="42.97439" lon="2.47594">
        <ele>329</ele>
        <time>2021-03-21T07:29:46Z</time>
      </trkpt>
      <trkpt lat="42.97426" lon="2.476">
        <ele>329.1</ele>
        <time>2021-03-21T07:29:48Z</time>
      </trkpt>
      <trkpt lat="42.97419" lon="2.47604">
        <ele>329.1</ele>
        <time>2021-03-21T07:29:49Z</time>
      </trkpt>
      <trkpt lat="42.97407" lon="2.47616">
        <ele>329.2</ele>
        <time>2021-03-21T07:29:51Z</time>
      </trkpt>
      <trkpt lat="42.97402" lon="2.47624">
        <ele>329.3</ele>
        <time>2021-03-21T07:29:52Z</time>
      </trkpt>
      <trkpt lat="42.97397" lon="2.47633">
        <ele>329.3</ele>
        <time>2021-03-21T07:29:53Z</time>
      </trkpt>
      <trkpt lat="42.9739" lon="2.47652">
        <ele>329.4</ele>
        <time>2021-03-21T07:29:55Z</time>
      </trkpt>
      <trkpt lat="42.97386" lon="2.47662">
        <ele>329.5</ele>
        <time>2021-03-21T07:29:56Z</time>
      </trkpt>
      <trkpt lat="42.97379" lon="2.4768">
        <ele>329.7</ele>
        <time>2021-03-21T07:29:58Z</time>
      </trkpt>
      <trkpt lat="42.97376" lon="2.4769">
        <ele>329.8</ele>
        <time>2021-03-21T07:29:59Z</time>
      </trkpt>
      <trkpt lat="42.97369" lon="2.47708">
        <ele>330</ele>
        <time>2021-03-21T07:30:01Z</time>
      </trkpt>
      <trkpt lat="42.97362" lon="2.47724">
        <ele>330.1</ele>
        <time>2021-03-21T07:30:03Z</time>
      </trkpt>
      <trkpt lat="42.97357" lon="2.47732">
        <ele>330.1</ele>
        <time>2021-03-21T07:30:04Z</time>
      </trkpt>
      <trkpt lat="42.97353" lon="2.4774">
        <ele>330.1</ele>
        <time>2021-03-21T07:30:05Z</time>
      </trkpt>
      <trkpt lat="42.97344" lon="2.47757">
        <ele>330.2</ele>
        <time>2021-03-21T07:30:07Z</time>
      </trkpt>
      <trkpt lat="42.97337" lon="2.47776">
        <ele>330.3</ele>
        <time>2021-03-21T07:30:09Z</time>
      </trkpt>
      <trkpt lat="42.97333" lon="2.47796">
        <ele>330.4</ele>
        <time>2021-03-21T07:30:11Z</time>
      </trkpt>
      <trkpt lat="42.97331" lon="2.47806">
        <ele>330.4</ele>
        <time>2021-03-21T07:30:12Z</time>
      </trkpt>
      <trkpt lat="42.9733" lon="2.47816">
        <ele>330.5</ele>
        <time>2021-03-21T07:30:13Z</time>
      </trkpt>
      <trkpt lat="42.97326" lon="2.47836">
        <ele>330.6</ele>
        <time>2021-03-21T07:30:15Z</time>
      </trkpt>
      <trkpt lat="42.97323" lon="2.47846">
        <ele>330.7</ele>
        <time>2021-03-21T07:30:16Z</time>
      </trkpt>
      <trkpt lat="42.97317" lon="2.47867">
        <ele>330.7</ele>
        <time>2021-03-21T07:30:18Z</time>
      </trkpt>
      <trkpt lat="42.97315" lon="2.47878">
        <ele>330.8</ele>
        <time>2021-03-21T07:30:19Z</time>
      </trkpt>
      <trkpt lat="42.97314" lon="2.47889">
        <ele>330.8</ele>
        <time>2021-03-21T07:30:20Z</time>
      </trkpt>
      <trkpt lat="42.97314" lon="2.479">
        <ele>330.9</ele>
        <time>2021-03-21T07:30:21Z</time>
      </trkpt>
      <trkpt lat="42.97316" lon="2.47923">
        <ele>331</ele>
        <time>2021-03-21T07:30:23Z</time>
      </trkpt>
      <trkpt lat="42.97318" lon="2.47934">
        <ele>331</ele>
        <time>2021-03-21T07:30:24Z</time>
      </trkpt>
      <trkpt lat="42.97327" lon="2.47955">
        <ele>331.1</ele>
        <time>2021-03-21T07:30:26Z</time>
      </trkpt>
      <trkpt lat="42.97331" lon="2.47966">
        <ele>331.1</ele>
        <time>2021-03-21T07:30:27Z</time>
      </trkpt>
      <trkpt lat="42.97337" lon="2.47987">
        <ele>331.3</ele>
        <time>2021-03-21T07:30:29Z</time>
      </trkpt>
      <trkpt lat="42.97339" lon="2.48009">
        <ele>331.4</ele>
        <time>2021-03-21T07:30:31Z</time>
      </trkpt>
      <trkpt lat="42.97338" lon="2.4802">
        <ele>331.5</ele>
        <time>2021-03-21T07:30:32Z</time>
      </trkpt>
      <trkpt lat="42.97334" lon="2.48043">
        <ele>331.6</ele>
        <time>2021-03-21T07:30:34Z</time>
      </trkpt>
      <trkpt lat="42.9733" lon="2.48065">
        <ele>331.8</ele>
        <time>2021-03-21T07:30:36Z</time>
      </trkpt>
      <trkpt lat="42.97319" lon="2.48083">
        <ele>331.8</ele>
        <time>2021-03-21T07:30:38Z</time>
      </trkpt>
      <trkpt lat="42.97311" lon="2.48088">
        <ele>331.9</ele>
        <time>2021-03-21T07:30:39Z</time>
      </trkpt>
      <trkpt lat="42.97302" lon="2.48087">
        <ele>332</ele>
        <time>2021-03-21T07:30:40Z</time>
      </trkpt>
      <trkpt lat="42.97286" lon="2.48069">
        <ele>332.2</ele>
        <time>2021-03-21T07:30:42Z</time>
      </trkpt>
      <trkpt lat="42.97276" lon="2.48039">
        <ele>332.4</ele>
        <time>2021-03-21T07:30:44Z</time>
      </trkpt>
      <trkpt lat="42.97267" lon="2.48014">
        <ele>332.7</ele>
        <time>2021-03-21T07:30:46Z</time>
      </trkpt>
      <trkpt lat="42.97256" lon="2.47995">
        <ele>332.9</ele>
        <time>2021-03-21T07:30:48Z</time>
      </trkpt>
      <trkpt lat="42.9725" lon="2.47988">
        <ele>332.9</ele>
        <time>2021-03-21T07:30:49Z</time>
      </trkpt>
      <trkpt lat="42.97237" lon="2.47976">
        <ele>333</ele>
        <time>2021-03-21T07:30:51Z</time>
      </trkpt>
      <trkpt lat="42.9723" lon="2.47972">
        <ele>333.1</ele>
        <time>2021-03-21T07:30:52Z</time>
      </trkpt>
      <trkpt lat="42.97223" lon="2.47969">
        <ele>333.1</ele>
        <time>2021-03-21T07:30:53Z</time>
      </trkpt>
      <trkpt lat="42.97206" lon="2.47968">
        <ele>333.3</ele>
        <time>2021-03-21T07:30:55Z</time>
      </trkpt>
      <trkpt lat="42.97198" lon="2.47971">
        <ele>333.3</ele>
        <time>2021-03-21T07:30:56Z</time>
      </trkpt>
      <trkpt lat="42.9719" lon="2.47977">
        <ele>333.4</ele>
        <time>2021-03-21T07:30:57Z</time>
      </trkpt>
      <trkpt lat="42.97177" lon="2.47992">
        <ele>333.5</ele>
        <time>2021-03-21T07:30:59Z</time>
      </trkpt>
      <trkpt lat="42.97172" lon="2.48">
        <ele>333.5</ele>
        <time>2021-03-21T07:31:00Z</time>
      </trkpt>
      <trkpt lat="42.97163" lon="2.48017">
        <ele>333.6</ele>
        <time>2021-03-21T07:31:02Z</time>
      </trkpt>
      <trkpt lat="42.97155" lon="2.48035">
        <ele>333.7</ele>
        <time>2021-03-21T07:31:04Z</time>
      </trkpt>
      <trkpt lat="42.97149" lon="2.48054">
        <ele>333.8</ele>
        <time>2021-03-21T07:31:06Z</time>
      </trkpt>
      <trkpt lat="42.97146" lon="2.48073">
        <ele>334</ele>
        <time>2021-03-21T07:31:08Z</time>
      </trkpt>
      <trkpt lat="42.97145" lon="2.48083">
        <ele>334.1</ele>
        <time>2021-03-21T07:31:09Z</time>
      </trkpt>
      <trkpt lat="42.97143" lon="2.48102">
        <ele>334.2</ele>
        <time>2021-03-21T07:31:11Z</time>
      </trkpt>
      <trkpt lat="42.97141" lon="2.48112">
        <ele>334.3</ele>
        <time>2021-03-21T07:31:12Z</time>
      </trkpt>
      <trkpt lat="42.97134" lon="2.48129">
        <ele>334.4</ele>
        <time>2021-03-21T07:31:14Z</time>
      </trkpt>
      <trkpt lat="42.97128" lon="2.48147">
        <ele>334.5</ele>
        <time>2021-03-21T07:31:16Z</time>
      </trkpt>
      <trkpt lat="42.97127" lon="2.48157">
        <ele>334.5</ele>
        <time>2021-03-21T07:31:17Z</time>
      </trkpt>
      <trkpt lat="42.97132" lon="2.48177">
        <ele>334.6</ele>
        <time>2021-03-21T07:31:19Z</time>
      </trkpt>
      <trkpt lat="42.97136" lon="2.48187">
        <ele>334.6</ele>
        <time>2021-03-21T07:31:20Z</time>
      </trkpt>
      <trkpt lat="42.97145" lon="2.48204">
        <ele>334.7</ele>
        <time>2021-03-21T07:31:22Z</time>
      </trkpt>
      <trkpt lat="42.97147" lon="2.48213">
        <ele>334.9</ele>
        <time>2021-03-21T07:31:23Z</time>
      </trkpt>
      <trkpt lat="42.97143" lon="2.48232">
        <ele>335</ele>
        <time>2021-03-21T07:31:25Z</time>
      </trkpt>
      <trkpt lat="42.97137" lon="2.48238">
        <ele>335</ele>
        <time>2021-03-21T07:31:26Z</time>
      </trkpt>
      <trkpt lat="42.97121" lon="2.48243">
        <ele>335.1</ele>
        <time>2021-03-21T07:31:28Z</time>
      </trkpt>
      <trkpt lat="42.97112" lon="2.48242">
        <ele>335.2</ele>
        <time>2021-03-21T07:31:29Z</time>
      </trkpt>
      <trkpt lat="42.97097" lon="2.48241">
        <ele>335.3</ele>
        <time>2021-03-21T07:31:31Z</time>
      </trkpt>
      <trkpt lat="42.97082" lon="2.48242">
        <ele>335.5</ele>
        <time>2021-03-21T07:31:33Z</time>
      </trkpt>
      <trkpt lat="42.97068" lon="2.48243">
        <ele>335.6</ele>
        <time>2021-03-21T07:31:35Z</time>
      </trkpt>
      <trkpt lat="42.97055" lon="2.48244">
        <ele>335.8</ele>
        <time>2021-03-21T07:31:37Z</time>
      </trkpt>
      <trkpt lat="42.97042" lon="2.48246">
        <ele>335.9</ele>
        <time>2021-03-21T07:31:39Z</time>
      </trkpt>
      <trkpt lat="42.97036" lon="2.48247">
        <ele>335.9</ele>
        <time>2021-03-21T07:31:40Z</time>
      </trkpt>
      <trkpt lat="42.97024" lon="2.48248">
        <ele>335.9</ele>
        <time>2021-03-21T07:31:42Z</time>
      </trkpt>
      <trkpt lat="42.97018" lon="2.48246">
        <ele>336</ele>
        <time>2021-03-21T07:31:43Z</time>
      </trkpt>
      <trkpt lat="42.97005" lon="2.48239">
        <ele>336.1</ele>
        <time>2021-03-21T07:31:45Z</time>
      </trkpt>
      <trkpt lat="42.96999" lon="2.48235">
        <ele>336.2</ele>
        <time>2021-03-21T07:31:46Z</time>
      </trkpt>
      <trkpt lat="42.96986" lon="2.48229">
        <ele>336.4</ele>
        <time>2021-03-21T07:31:48Z</time>
      </trkpt>
      <trkpt lat="42.96973" lon="2.48227">
        <ele>336.6</ele>
        <time>2021-03-21T07:31:50Z</time>
      </trkpt>
      <trkpt lat="42.9696" lon="2.48226">
        <ele>336.8</ele>
        <time>2021-03-21T07:31:52Z</time>
      </trkpt>
      <trkpt lat="42.96954" lon="2.48225">
        <ele>336.8</ele>
        <time>2021-03-21T07:31:53Z</time>
      </trkpt>
      <trkpt lat="42.96941" lon="2.48225">
        <ele>336.9</ele>
        <time>2021-03-21T07:31:55Z</time>
      </trkpt>
      <trkpt lat="42.96935" lon="2.48225">
        <ele>337</ele>
        <time>2021-03-21T07:31:56Z</time>
      </trkpt>
      <trkpt lat="42.96922" lon="2.48226">
        <ele>337.1</ele>
        <time>2021-03-21T07:31:58Z</time>
      </trkpt>
      <trkpt lat="42.96916" lon="2.48227">
        <ele>337.1</ele>
        <time>2021-03-21T07:31:59Z</time>
      </trkpt>
      <trkpt lat="42.96909" lon="2.48227">
        <ele>337.2</ele>
        <time>2021-03-21T07:32:00Z</time>
      </trkpt>
      <trkpt lat="42.96902" lon="2.48229">
        <ele>337.3</ele>
        <time>2021-03-21T07:32:01Z</time>
      </trkpt>
      <trkpt lat="42.96896" lon="2.48232">
        <ele>337.3</ele>
        <time>2021-03-21T07:32:02Z</time>
      </trkpt>
      <trkpt lat="42.96884" lon="2.48239">
        <ele>337.4</ele>
        <time>2021-03-21T07:32:04Z</time>
      </trkpt>
      <trkpt lat="42.96878" lon="2.48243">
        <ele>337.5</ele>
        <time>2021-03-21T07:32:05Z</time>
      </trkpt>
      <trkpt lat="42.96872" lon="2.48248">
        <ele>337.5</ele>
        <time>2021-03-21T07:32:06Z</time>
      </trkpt>
      <trkpt lat="42.96867" lon="2.48253">
        <ele>337.6</ele>
        <time>2021-03-21T07:32:07Z</time>
      </trkpt>
      <trkpt lat="42.96861" lon="2.48258">
        <ele>337.7</ele>
        <time>2021-03-21T07:32:08Z</time>
      </trkpt>
      <trkpt lat="42.96851" lon="2.48267">
        <ele>337.8</ele>
        <time>2021-03-21T07:32:10Z</time>
      </trkpt>
      <trkpt lat="42.96842" lon="2.48276">
        <ele>337.8</ele>
        <time>2021-03-21T07:32:12Z</time>
      </trkpt>
      <trkpt lat="42.96838" lon="2.48279">
        <ele>337.9</ele>
        <time>2021-03-21T07:32:13Z</time>
      </trkpt>
      <trkpt lat="42.96829" lon="2.48286">
        <ele>338</ele>
        <time>2021-03-21T07:32:15Z</time>
      </trkpt>
      <trkpt lat="42.96824" lon="2.48289">
        <ele>338.1</ele>
        <time>2021-03-21T07:32:16Z</time>
      </trkpt>
      <trkpt lat="42.96816" lon="2.48295">
        <ele>338.2</ele>
        <time>2021-03-21T07:32:18Z</time>
      </trkpt>
      <trkpt lat="42.96806" lon="2.48301">
        <ele>338.4</ele>
        <time>2021-03-21T07:32:20Z</time>
      </trkpt>
      <trkpt lat="42.96795" lon="2.48304">
        <ele>338.5</ele>
        <time>2021-03-21T07:32:22Z</time>
      </trkpt>
      <trkpt lat="42.9679" lon="2.48307">
        <ele>338.5</ele>
        <time>2021-03-21T07:32:23Z</time>
      </trkpt>
      <trkpt lat="42.96779" lon="2.48312">
        <ele>338.6</ele>
        <time>2021-03-21T07:32:25Z</time>
      </trkpt>
      <trkpt lat="42.96769" lon="2.48318">
        <ele>338.7</ele>
        <time>2021-03-21T07:32:27Z</time>
      </trkpt>
      <trkpt lat="42.96757" lon="2.48325">
        <ele>338.9</ele>
        <time>2021-03-21T07:32:29Z</time>
      </trkpt>
      <trkpt lat="42.96745" lon="2.48333">
        <ele>339</ele>
        <time>2021-03-21T07:32:31Z</time>
      </trkpt>
      <trkpt lat="42.96739" lon="2.48337">
        <ele>339.1</ele>
        <time>2021-03-21T07:32:32Z</time>
      </trkpt>
      <trkpt lat="42.96727" lon="2.48346">
        <ele>339.2</ele>
        <time>2021-03-21T07:32:34Z</time>
      </trkpt>
      <trkpt lat="42.96717" lon="2.48357">
        <ele>339.3</ele>
        <time>2021-03-21T07:32:36Z</time>
      </trkpt>
      <trkpt lat="42.96712" lon="2.48363">
        <ele>339.4</ele>
        <time>2021-03-21T07:32:37Z</time>
      </trkpt>
      <trkpt lat="42.96703" lon="2.48376">
        <ele>339.6</ele>
        <time>2021-03-21T07:32:39Z</time>
      </trkpt>
      <trkpt lat="42.96698" lon="2.48381">
        <ele>339.7</ele>
        <time>2021-03-21T07:32:40Z</time>
      </trkpt>
      <trkpt lat="42.96687" lon="2.48391">
        <ele>339.9</ele>
        <time>2021-03-21T07:32:42Z</time>
      </trkpt>
      <trkpt lat="42.96675" lon="2.48399">
        <ele>340</ele>
        <time>2021-03-21T07:32:44Z</time>
      </trkpt>
      <trkpt lat="42.96662" lon="2.48405">
        <ele>340.1</ele>
        <time>2021-03-21T07:32:46Z</time>
      </trkpt>
      <trkpt lat="42.96655" lon="2.48408">
        <ele>340.2</ele>
        <time>2021-03-21T07:32:47Z</time>
      </trkpt>
      <trkpt lat="42.96642" lon="2.48413">
        <ele>340.3</ele>
        <time>2021-03-21T07:32:49Z</time>
      </trkpt>
      <trkpt lat="42.96635" lon="2.48416">
        <ele>340.4</ele>
        <time>2021-03-21T07:32:50Z</time>
      </trkpt>
      <trkpt lat="42.96629" lon="2.48419">
        <ele>340.5</ele>
        <time>2021-03-21T07:32:51Z</time>
      </trkpt>
      <trkpt lat="42.96616" lon="2.48425">
        <ele>340.6</ele>
        <time>2021-03-21T07:32:53Z</time>
      </trkpt>
      <trkpt lat="42.96604" lon="2.48433">
        <ele>340.7</ele>
        <time>2021-03-21T07:32:55Z</time>
      </trkpt>
      <trkpt lat="42.96592" lon="2.48441">
        <ele>340.9</ele>
        <time>2021-03-21T07:32:57Z</time>
      </trkpt>
      <trkpt lat="42.96586" lon="2.48445">
        <ele>341</ele>
        <time>2021-03-21T07:32:58Z</time>
      </trkpt>
      <trkpt lat="42.96574" lon="2.48454">
        <ele>341.1</ele>
        <time>2021-03-21T07:33:00Z</time>
      </trkpt>
      <trkpt lat="42.96562" lon="2.48462">
        <ele>341.2</ele>
        <time>2021-03-21T07:33:02Z</time>
      </trkpt>
      <trkpt lat="42.96555" lon="2.48467">
        <ele>341.3</ele>
        <time>2021-03-21T07:33:03Z</time>
      </trkpt>
      <trkpt lat="42.96549" lon="2.48471">
        <ele>341.3</ele>
        <time>2021-03-21T07:33:04Z</time>
      </trkpt>
      <trkpt lat="42.96537" lon="2.48481">
        <ele>341.4</ele>
        <time>2021-03-21T07:33:06Z</time>
      </trkpt>
      <trkpt lat="42.96524" lon="2.48491">
        <ele>341.5</ele>
        <time>2021-03-21T07:33:08Z</time>
      </trkpt>
      <trkpt lat="42.96518" lon="2.48496">
        <ele>341.6</ele>
        <time>2021-03-21T07:33:09Z</time>
      </trkpt>
      <trkpt lat="42.96512" lon="2.48501">
        <ele>341.6</ele>
        <time>2021-03-21T07:33:10Z</time>
      </trkpt>
      <trkpt lat="42.96506" lon="2.48506">
        <ele>341.6</ele>
        <time>2021-03-21T07:33:11Z</time>
      </trkpt>
      <trkpt lat="42.965" lon="2.48511">
        <ele>341.7</ele>
        <time>2021-03-21T07:33:12Z</time>
      </trkpt>
      <trkpt lat="42.96488" lon="2.48522">
        <ele>341.8</ele>
        <time>2021-03-21T07:33:14Z</time>
      </trkpt>
      <trkpt lat="42.96476" lon="2.48533">
        <ele>342</ele>
        <time>2021-03-21T07:33:16Z</time>
      </trkpt>
      <trkpt lat="42.96471" lon="2.4854">
        <ele>342.1</ele>
        <time>2021-03-21T07:33:17Z</time>
      </trkpt>
      <trkpt lat="42.96466" lon="2.48548">
        <ele>342.2</ele>
        <time>2021-03-21T07:33:18Z</time>
      </trkpt>
      <trkpt lat="42.96464" lon="2.48568">
        <ele>342.3</ele>
        <time>2021-03-21T07:33:20Z</time>
      </trkpt>
      <trkpt lat="42.96469" lon="2.4859">
        <ele>342.5</ele>
        <time>2021-03-21T07:33:22Z</time>
      </trkpt>
      <trkpt lat="42.96479" lon="2.4861">
        <ele>342.7</ele>
        <time>2021-03-21T07:33:24Z</time>
      </trkpt>
      <trkpt lat="42.96483" lon="2.4862">
        <ele>342.8</ele>
        <time>2021-03-21T07:33:25Z</time>
      </trkpt>
      <trkpt lat="42.96491" lon="2.48637">
        <ele>342.9</ele>
        <time>2021-03-21T07:33:27Z</time>
      </trkpt>
      <trkpt lat="42.96497" lon="2.48655">
        <ele>343.1</ele>
        <time>2021-03-21T07:33:29Z</time>
      </trkpt>
      <trkpt lat="42.965" lon="2.48674">
        <ele>343.2</ele>
        <time>2021-03-21T07:33:31Z</time>
      </trkpt>
      <trkpt lat="42.96501" lon="2.48684">
        <ele>343.3</ele>
        <time>2021-03-21T07:33:32Z</time>
      </trkpt>
      <trkpt lat="42.96502" lon="2.48693">
        <ele>343.4</ele>
        <time>2021-03-21T07:33:33Z</time>
      </trkpt>
      <trkpt lat="42.96504" lon="2.48711">
        <ele>343.6</ele>
        <time>2021-03-21T07:33:35Z</time>
      </trkpt>
      <trkpt lat="42.96505" lon="2.48721">
        <ele>343.7</ele>
        <time>2021-03-21T07:33:36Z</time>
      </trkpt>
      <trkpt lat="42.96505" lon="2.48741">
        <ele>343.9</ele>
        <time>2021-03-21T07:33:38Z</time>
      </trkpt>
      <trkpt lat="42.96505" lon="2.4876">
        <ele>344.1</ele>
        <time>2021-03-21T07:33:40Z</time>
      </trkpt>
      <trkpt lat="42.96505" lon="2.4878">
        <ele>344.3</ele>
        <time>2021-03-21T07:33:42Z</time>
      </trkpt>
      <trkpt lat="42.96505" lon="2.48799">
        <ele>344.4</ele>
        <time>2021-03-21T07:33:44Z</time>
      </trkpt>
      <trkpt lat="42.96504" lon="2.48819">
        <ele>344.6</ele>
        <time>2021-03-21T07:33:46Z</time>
      </trkpt>
      <trkpt lat="42.96502" lon="2.48838">
        <ele>344.7</ele>
        <time>2021-03-21T07:33:48Z</time>
      </trkpt>
      <trkpt lat="42.965" lon="2.48847">
        <ele>344.7</ele>
        <time>2021-03-21T07:33:49Z</time>
      </trkpt>
      <trkpt lat="42.96498" lon="2.48856">
        <ele>344.7</ele>
        <time>2021-03-21T07:33:50Z</time>
      </trkpt>
      <trkpt lat="42.96495" lon="2.48873">
        <ele>344.8</ele>
        <time>2021-03-21T07:33:52Z</time>
      </trkpt>
      <trkpt lat="42.96493" lon="2.48882">
        <ele>344.9</ele>
        <time>2021-03-21T07:33:53Z</time>
      </trkpt>
      <trkpt lat="42.96489" lon="2.48899">
        <ele>345</ele>
        <time>2021-03-21T07:33:55Z</time>
      </trkpt>
      <trkpt lat="42.96487" lon="2.48908">
        <ele>345.1</ele>
        <time>2021-03-21T07:33:56Z</time>
      </trkpt>
      <trkpt lat="42.96484" lon="2.48925">
        <ele>345.2</ele>
        <time>2021-03-21T07:33:58Z</time>
      </trkpt>
      <trkpt lat="42.9648" lon="2.48943">
        <ele>345.4</ele>
        <time>2021-03-21T07:34:00Z</time>
      </trkpt>
      <trkpt lat="42.96478" lon="2.48951">
        <ele>345.4</ele>
        <time>2021-03-21T07:34:01Z</time>
      </trkpt>
      <trkpt lat="42.96476" lon="2.4896">
        <ele>345.5</ele>
        <time>2021-03-21T07:34:02Z</time>
      </trkpt>
      <trkpt lat="42.96472" lon="2.48978">
        <ele>345.6</ele>
        <time>2021-03-21T07:34:04Z</time>
      </trkpt>
      <trkpt lat="42.96466" lon="2.48994">
        <ele>345.7</ele>
        <time>2021-03-21T07:34:06Z</time>
      </trkpt>
      <trkpt lat="42.96463" lon="2.49002">
        <ele>345.8</ele>
        <time>2021-03-21T07:34:07Z</time>
      </trkpt>
      <trkpt lat="42.96458" lon="2.49008">
        <ele>345.8</ele>
        <time>2021-03-21T07:34:08Z</time>
      </trkpt>
      <trkpt lat="42.96452" lon="2.49014">
        <ele>345.8</ele>
        <time>2021-03-21T07:34:09Z</time>
      </trkpt>
      <trkpt lat="42.96441" lon="2.49027">
        <ele>345.9</ele>
        <time>2021-03-21T07:34:11Z</time>
      </trkpt>
      <trkpt lat="42.9643" lon="2.4904">
        <ele>346.1</ele>
        <time>2021-03-21T07:34:13Z</time>
      </trkpt>
      <trkpt lat="42.96422" lon="2.49056">
        <ele>346.2</ele>
        <time>2021-03-21T07:34:15Z</time>
      </trkpt>
      <trkpt lat="42.96417" lon="2.49073">
        <ele>346.4</ele>
        <time>2021-03-21T07:34:17Z</time>
      </trkpt>
      <trkpt lat="42.96415" lon="2.49082">
        <ele>346.4</ele>
        <time>2021-03-21T07:34:18Z</time>
      </trkpt>
      <trkpt lat="42.96412" lon="2.49101">
        <ele>346.5</ele>
        <time>2021-03-21T07:34:20Z</time>
      </trkpt>
      <trkpt lat="42.9641" lon="2.4912">
        <ele>346.7</ele>
        <time>2021-03-21T07:34:22Z</time>
      </trkpt>
      <trkpt lat="42.96409" lon="2.4913">
        <ele>346.7</ele>
        <time>2021-03-21T07:34:23Z</time>
      </trkpt>
      <trkpt lat="42.96406" lon="2.4915">
        <ele>346.9</ele>
        <time>2021-03-21T07:34:25Z</time>
      </trkpt>
      <trkpt lat="42.96403" lon="2.4917">
        <ele>347</ele>
        <time>2021-03-21T07:34:27Z</time>
      </trkpt>
      <trkpt lat="42.96399" lon="2.4919">
        <ele>347.2</ele>
        <time>2021-03-21T07:34:29Z</time>
      </trkpt>
      <trkpt lat="42.96397" lon="2.492">
        <ele>347.3</ele>
        <time>2021-03-21T07:34:30Z</time>
      </trkpt>
      <trkpt lat="42.96394" lon="2.49219">
        <ele>347.5</ele>
        <time>2021-03-21T07:34:32Z</time>
      </trkpt>
      <trkpt lat="42.96393" lon="2.49238">
        <ele>347.7</ele>
        <time>2021-03-21T07:34:34Z</time>
      </trkpt>
      <trkpt lat="42.96398" lon="2.49256">
        <ele>347.8</ele>
        <time>2021-03-21T07:34:36Z</time>
      </trkpt>
      <trkpt lat="42.96406" lon="2.4927">
        <ele>348</ele>
        <time>2021-03-21T07:34:38Z</time>
      </trkpt>
      <trkpt lat="42.96411" lon="2.49276">
        <ele>348.1</ele>
        <time>2021-03-21T07:34:39Z</time>
      </trkpt>
      <trkpt lat="42.96415" lon="2.49281">
        <ele>348.1</ele>
        <time>2021-03-21T07:34:40Z</time>
      </trkpt>
      <trkpt lat="42.9642" lon="2.49287">
        <ele>348.2</ele>
        <time>2021-03-21T07:34:41Z</time>
      </trkpt>
      <trkpt lat="42.96423" lon="2.49294">
        <ele>348.3</ele>
        <time>2021-03-21T07:34:42Z</time>
      </trkpt>
      <trkpt lat="42.96426" lon="2.49312">
        <ele>348.4</ele>
        <time>2021-03-21T07:34:44Z</time>
      </trkpt>
      <trkpt lat="42.96423" lon="2.49331">
        <ele>348.6</ele>
        <time>2021-03-21T07:34:46Z</time>
      </trkpt>
      <trkpt lat="42.96421" lon="2.49339">
        <ele>348.7</ele>
        <time>2021-03-21T07:34:47Z</time>
      </trkpt>
      <trkpt lat="42.96419" lon="2.49347">
        <ele>348.8</ele>
        <time>2021-03-21T07:34:48Z</time>
      </trkpt>
      <trkpt lat="42.96412" lon="2.49361">
        <ele>349.1</ele>
        <time>2021-03-21T07:34:50Z</time>
      </trkpt>
      <trkpt lat="42.96408" lon="2.49367">
        <ele>349.3</ele>
        <time>2021-03-21T07:34:51Z</time>
      </trkpt>
      <trkpt lat="42.96401" lon="2.49378">
        <ele>349.8</ele>
        <time>2021-03-21T07:34:53Z</time>
      </trkpt>
      <trkpt lat="42.96398" lon="2.49383">
        <ele>350</ele>
        <time>2021-03-21T07:34:54Z</time>
      </trkpt>
      <trkpt lat="42.96395" lon="2.49388">
        <ele>350.2</ele>
        <time>2021-03-21T07:34:55Z</time>
      </trkpt>
      <trkpt lat="42.9639" lon="2.49397">
        <ele>350.6</ele>
        <time>2021-03-21T07:34:57Z</time>
      </trkpt>
      <trkpt lat="42.96386" lon="2.49405">
        <ele>350.9</ele>
        <time>2021-03-21T07:34:59Z</time>
      </trkpt>
      <trkpt lat="42.96385" lon="2.49408">
        <ele>351.1</ele>
        <time>2021-03-21T07:35:00Z</time>
      </trkpt>
      <trkpt lat="42.9638" lon="2.49417">
        <ele>351.4</ele>
        <time>2021-03-21T07:35:02Z</time>
      </trkpt>
      <trkpt lat="42.96376" lon="2.49421">
        <ele>351.7</ele>
        <time>2021-03-21T07:35:03Z</time>
      </trkpt>
      <trkpt lat="42.96369" lon="2.4943">
        <ele>352.1</ele>
        <time>2021-03-21T07:35:05Z</time>
      </trkpt>
      <trkpt lat="42.96361" lon="2.49439">
        <ele>352.5</ele>
        <time>2021-03-21T07:35:07Z</time>
      </trkpt>
      <trkpt lat="42.96357" lon="2.49443">
        <ele>352.7</ele>
        <time>2021-03-21T07:35:08Z</time>
      </trkpt>
      <trkpt lat="42.96353" lon="2.49448">
        <ele>352.9</ele>
        <time>2021-03-21T07:35:09Z</time>
      </trkpt>
      <trkpt lat="42.96349" lon="2.49454">
        <ele>353.3</ele>
        <time>2021-03-21T07:35:10Z</time>
      </trkpt>
      <trkpt lat="42.96343" lon="2.49465">
        <ele>353.9</ele>
        <time>2021-03-21T07:35:12Z</time>
      </trkpt>
      <trkpt lat="42.96342" lon="2.49471">
        <ele>354.3</ele>
        <time>2021-03-21T07:35:13Z</time>
      </trkpt>
      <trkpt lat="42.96341" lon="2.49478">
        <ele>354.6</ele>
        <time>2021-03-21T07:35:14Z</time>
      </trkpt>
      <trkpt lat="42.96342" lon="2.49491">
        <ele>355.3</ele>
        <time>2021-03-21T07:35:16Z</time>
      </trkpt>
      <trkpt lat="42.96343" lon="2.49503">
        <ele>356</ele>
        <time>2021-03-21T07:35:18Z</time>
      </trkpt>
      <trkpt lat="42.96343" lon="2.49509">
        <ele>356.3</ele>
        <time>2021-03-21T07:35:19Z</time>
      </trkpt>
      <trkpt lat="42.96341" lon="2.49519">
        <ele>356.7</ele>
        <time>2021-03-21T07:35:21Z</time>
      </trkpt>
      <trkpt lat="42.96339" lon="2.49524">
        <ele>356.9</ele>
        <time>2021-03-21T07:35:22Z</time>
      </trkpt>
      <trkpt lat="42.96332" lon="2.49534">
        <ele>357.3</ele>
        <time>2021-03-21T07:35:24Z</time>
      </trkpt>
      <trkpt lat="42.96328" lon="2.49538">
        <ele>357.3</ele>
        <time>2021-03-21T07:35:25Z</time>
      </trkpt>
      <trkpt lat="42.96317" lon="2.49543">
        <ele>357.4</ele>
        <time>2021-03-21T07:35:27Z</time>
      </trkpt>
      <trkpt lat="42.96307" lon="2.49538">
        <ele>357.3</ele>
        <time>2021-03-21T07:35:29Z</time>
      </trkpt>
      <trkpt lat="42.96303" lon="2.4953">
        <ele>357.2</ele>
        <time>2021-03-21T07:35:30Z</time>
      </trkpt>
      <trkpt lat="42.96297" lon="2.49514">
        <ele>357.2</ele>
        <time>2021-03-21T07:35:32Z</time>
      </trkpt>
      <trkpt lat="42.96294" lon="2.49507">
        <ele>357.2</ele>
        <time>2021-03-21T07:35:33Z</time>
      </trkpt>
      <trkpt lat="42.96288" lon="2.49494">
        <ele>357.2</ele>
        <time>2021-03-21T07:35:35Z</time>
      </trkpt>
      <trkpt lat="42.96282" lon="2.49482">
        <ele>357.2</ele>
        <time>2021-03-21T07:35:37Z</time>
      </trkpt>
      <trkpt lat="42.96275" lon="2.49469">
        <ele>357.4</ele>
        <time>2021-03-21T07:35:39Z</time>
      </trkpt>
      <trkpt lat="42.96269" lon="2.49456">
        <ele>357.5</ele>
        <time>2021-03-21T07:35:41Z</time>
      </trkpt>
      <trkpt lat="42.96265" lon="2.49449">
        <ele>357.5</ele>
        <time>2021-03-21T07:35:42Z</time>
      </trkpt>
      <trkpt lat="42.96258" lon="2.49437">
        <ele>357.6</ele>
        <time>2021-03-21T07:35:44Z</time>
      </trkpt>
      <trkpt lat="42.96251" lon="2.49424">
        <ele>357.7</ele>
        <time>2021-03-21T07:35:46Z</time>
      </trkpt>
      <trkpt lat="42.96243" lon="2.49411">
        <ele>357.8</ele>
        <time>2021-03-21T07:35:48Z</time>
      </trkpt>
      <trkpt lat="42.96239" lon="2.49404">
        <ele>357.8</ele>
        <time>2021-03-21T07:35:49Z</time>
      </trkpt>
      <trkpt lat="42.96234" lon="2.49398">
        <ele>357.9</ele>
        <time>2021-03-21T07:35:50Z</time>
      </trkpt>
      <trkpt lat="42.96224" lon="2.49387">
        <ele>358</ele>
        <time>2021-03-21T07:35:52Z</time>
      </trkpt>
      <trkpt lat="42.9622" lon="2.49382">
        <ele>358.1</ele>
        <time>2021-03-21T07:35:53Z</time>
      </trkpt>
      <trkpt lat="42.96209" lon="2.49371">
        <ele>358.3</ele>
        <time>2021-03-21T07:35:55Z</time>
      </trkpt>
      <trkpt lat="42.96204" lon="2.49366">
        <ele>358.4</ele>
        <time>2021-03-21T07:35:56Z</time>
      </trkpt>
      <trkpt lat="42.96199" lon="2.49361">
        <ele>358.4</ele>
        <time>2021-03-21T07:35:57Z</time>
      </trkpt>
      <trkpt lat="42.96194" lon="2.49356">
        <ele>358.6</ele>
        <time>2021-03-21T07:35:58Z</time>
      </trkpt>
      <trkpt lat="42.96189" lon="2.49352">
        <ele>358.7</ele>
        <time>2021-03-21T07:35:59Z</time>
      </trkpt>
      <trkpt lat="42.96178" lon="2.49344">
        <ele>358.8</ele>
        <time>2021-03-21T07:36:01Z</time>
      </trkpt>
      <trkpt lat="42.96167" lon="2.49336">
        <ele>359</ele>
        <time>2021-03-21T07:36:03Z</time>
      </trkpt>
      <trkpt lat="42.96161" lon="2.49333">
        <ele>359</ele>
        <time>2021-03-21T07:36:04Z</time>
      </trkpt>
      <trkpt lat="42.9615" lon="2.49327">
        <ele>359</ele>
        <time>2021-03-21T07:36:06Z</time>
      </trkpt>
      <trkpt lat="42.96144" lon="2.49324">
        <ele>359</ele>
        <time>2021-03-21T07:36:07Z</time>
      </trkpt>
      <trkpt lat="42.96134" lon="2.49318">
        <ele>359</ele>
        <time>2021-03-21T07:36:09Z</time>
      </trkpt>
      <trkpt lat="42.96128" lon="2.49315">
        <ele>359</ele>
        <time>2021-03-21T07:36:10Z</time>
      </trkpt>
      <trkpt lat="42.96118" lon="2.4931">
        <ele>359</ele>
        <time>2021-03-21T07:36:12Z</time>
      </trkpt>
      <trkpt lat="42.96112" lon="2.49307">
        <ele>359</ele>
        <time>2021-03-21T07:36:13Z</time>
      </trkpt>
      <trkpt lat="42.961" lon="2.49301">
        <ele>358.9</ele>
        <time>2021-03-21T07:36:15Z</time>
      </trkpt>
      <trkpt lat="42.96087" lon="2.49296">
        <ele>359</ele>
        <time>2021-03-21T07:36:17Z</time>
      </trkpt>
      <trkpt lat="42.96073" lon="2.49292">
        <ele>358.9</ele>
        <time>2021-03-21T07:36:19Z</time>
      </trkpt>
      <trkpt lat="42.9606" lon="2.4929">
        <ele>358.9</ele>
        <time>2021-03-21T07:36:21Z</time>
      </trkpt>
      <trkpt lat="42.96053" lon="2.49289">
        <ele>358.9</ele>
        <time>2021-03-21T07:36:22Z</time>
      </trkpt>
      <trkpt lat="42.96047" lon="2.49288">
        <ele>358.8</ele>
        <time>2021-03-21T07:36:23Z</time>
      </trkpt>
      <trkpt lat="42.96034" lon="2.49288">
        <ele>358.9</ele>
        <time>2021-03-21T07:36:25Z</time>
      </trkpt>
      <trkpt lat="42.96021" lon="2.49286">
        <ele>359</ele>
        <time>2021-03-21T07:36:27Z</time>
      </trkpt>
      <trkpt lat="42.96014" lon="2.49286">
        <ele>359</ele>
        <time>2021-03-21T07:36:28Z</time>
      </trkpt>
      <trkpt lat="42.96001" lon="2.49285">
        <ele>359</ele>
        <time>2021-03-21T07:36:30Z</time>
      </trkpt>
      <trkpt lat="42.95986" lon="2.49285">
        <ele>359</ele>
        <time>2021-03-21T07:36:32Z</time>
      </trkpt>
      <trkpt lat="42.95979" lon="2.49286">
        <ele>359</ele>
        <time>2021-03-21T07:36:33Z</time>
      </trkpt>
      <trkpt lat="42.95972" lon="2.49287">
        <ele>359</ele>
        <time>2021-03-21T07:36:34Z</time>
      </trkpt>
      <trkpt lat="42.95958" lon="2.49291">
        <ele>358.9</ele>
        <time>2021-03-21T07:36:36Z</time>
      </trkpt>
      <trkpt lat="42.95952" lon="2.49294">
        <ele>358.9</ele>
        <time>2021-03-21T07:36:37Z</time>
      </trkpt>
      <trkpt lat="42.95945" lon="2.49296">
        <ele>358.9</ele>
        <time>2021-03-21T07:36:38Z</time>
      </trkpt>
      <trkpt lat="42.95939" lon="2.49299">
        <ele>358.8</ele>
        <time>2021-03-21T07:36:39Z</time>
      </trkpt>
      <trkpt lat="42.95927" lon="2.49304">
        <ele>358.8</ele>
        <time>2021-03-21T07:36:41Z</time>
      </trkpt>
      <trkpt lat="42.9592" lon="2.49307">
        <ele>358.8</ele>
        <time>2021-03-21T07:36:42Z</time>
      </trkpt>
      <trkpt lat="42.95914" lon="2.4931">
        <ele>358.8</ele>
        <time>2021-03-21T07:36:43Z</time>
      </trkpt>
      <trkpt lat="42.95908" lon="2.49313">
        <ele>358.8</ele>
        <time>2021-03-21T07:36:44Z</time>
      </trkpt>
      <trkpt lat="42.95895" lon="2.49321">
        <ele>358.7</ele>
        <time>2021-03-21T07:36:46Z</time>
      </trkpt>
      <trkpt lat="42.95882" lon="2.49329">
        <ele>358.6</ele>
        <time>2021-03-21T07:36:48Z</time>
      </trkpt>
      <trkpt lat="42.9587" lon="2.49339">
        <ele>358.5</ele>
        <time>2021-03-21T07:36:50Z</time>
      </trkpt>
      <trkpt lat="42.95864" lon="2.49344">
        <ele>358.5</ele>
        <time>2021-03-21T07:36:51Z</time>
      </trkpt>
      <trkpt lat="42.95858" lon="2.49349">
        <ele>358.5</ele>
        <time>2021-03-21T07:36:52Z</time>
      </trkpt>
      <trkpt lat="42.95853" lon="2.49355">
        <ele>358.5</ele>
        <time>2021-03-21T07:36:53Z</time>
      </trkpt>
      <trkpt lat="42.95842" lon="2.49367">
        <ele>358.4</ele>
        <time>2021-03-21T07:36:55Z</time>
      </trkpt>
      <trkpt lat="42.95837" lon="2.49374">
        <ele>358.4</ele>
        <time>2021-03-21T07:36:56Z</time>
      </trkpt>
      <trkpt lat="42.95827" lon="2.49387">
        <ele>358.4</ele>
        <time>2021-03-21T07:36:58Z</time>
      </trkpt>
      <trkpt lat="42.95822" lon="2.49395">
        <ele>358.5</ele>
        <time>2021-03-21T07:36:59Z</time>
      </trkpt>
      <trkpt lat="42.95817" lon="2.49411">
        <ele>358.4</ele>
        <time>2021-03-21T07:37:01Z</time>
      </trkpt>
      <trkpt lat="42.95819" lon="2.49421">
        <ele>358.4</ele>
        <time>2021-03-21T07:37:02Z</time>
      </trkpt>
      <trkpt lat="42.95823" lon="2.4943">
        <ele>358.3</ele>
        <time>2021-03-21T07:37:03Z</time>
      </trkpt>
      <trkpt lat="42.95832" lon="2.49447">
        <ele>358.4</ele>
        <time>2021-03-21T07:37:05Z</time>
      </trkpt>
      <trkpt lat="42.95836" lon="2.49456">
        <ele>358.4</ele>
        <time>2021-03-21T07:37:06Z</time>
      </trkpt>
      <trkpt lat="42.95837" lon="2.49465">
        <ele>358.4</ele>
        <time>2021-03-21T07:37:07Z</time>
      </trkpt>
      <trkpt lat="42.95835" lon="2.49483">
        <ele>358.4</ele>
        <time>2021-03-21T07:37:09Z</time>
      </trkpt>
      <trkpt lat="42.9583" lon="2.49491">
        <ele>358.4</ele>
        <time>2021-03-21T07:37:10Z</time>
      </trkpt>
      <trkpt lat="42.95824" lon="2.49497">
        <ele>358.4</ele>
        <time>2021-03-21T07:37:11Z</time>
      </trkpt>
      <trkpt lat="42.9581" lon="2.49501">
        <ele>358.6</ele>
        <time>2021-03-21T07:37:13Z</time>
      </trkpt>
      <trkpt lat="42.95803" lon="2.495">
        <ele>358.6</ele>
        <time>2021-03-21T07:37:14Z</time>
      </trkpt>
      <trkpt lat="42.9579" lon="2.49491">
        <ele>358.8</ele>
        <time>2021-03-21T07:37:16Z</time>
      </trkpt>
      <trkpt lat="42.95777" lon="2.49483">
        <ele>359.2</ele>
        <time>2021-03-21T07:37:18Z</time>
      </trkpt>
      <trkpt lat="42.95765" lon="2.49483">
        <ele>359.6</ele>
        <time>2021-03-21T07:37:20Z</time>
      </trkpt>
      <trkpt lat="42.95759" lon="2.49486">
        <ele>359.8</ele>
        <time>2021-03-21T07:37:21Z</time>
      </trkpt>
      <trkpt lat="42.95753" lon="2.4949">
        <ele>360</ele>
        <time>2021-03-21T07:37:22Z</time>
      </trkpt>
      <trkpt lat="42.95742" lon="2.495">
        <ele>360.4</ele>
        <time>2021-03-21T07:37:24Z</time>
      </trkpt>
      <trkpt lat="42.95737" lon="2.49505">
        <ele>360.6</ele>
        <time>2021-03-21T07:37:25Z</time>
      </trkpt>
      <trkpt lat="42.95728" lon="2.49515">
        <ele>360.9</ele>
        <time>2021-03-21T07:37:27Z</time>
      </trkpt>
      <trkpt lat="42.95719" lon="2.49523">
        <ele>361.2</ele>
        <time>2021-03-21T07:37:29Z</time>
      </trkpt>
      <trkpt lat="42.9571" lon="2.4953">
        <ele>361.4</ele>
        <time>2021-03-21T07:37:31Z</time>
      </trkpt>
      <trkpt lat="42.957" lon="2.49535">
        <ele>361.8</ele>
        <time>2021-03-21T07:37:33Z</time>
      </trkpt>
      <trkpt lat="42.9569" lon="2.4954">
        <ele>362.1</ele>
        <time>2021-03-21T07:37:35Z</time>
      </trkpt>
      <trkpt lat="42.95685" lon="2.49542">
        <ele>362.3</ele>
        <time>2021-03-21T07:37:36Z</time>
      </trkpt>
      <trkpt lat="42.95675" lon="2.49546">
        <ele>362.6</ele>
        <time>2021-03-21T07:37:38Z</time>
      </trkpt>
      <trkpt lat="42.95669" lon="2.49547">
        <ele>362.7</ele>
        <time>2021-03-21T07:37:39Z</time>
      </trkpt>
      <trkpt lat="42.95658" lon="2.49544">
        <ele>363.1</ele>
        <time>2021-03-21T07:37:41Z</time>
      </trkpt>
      <trkpt lat="42.95652" lon="2.49541">
        <ele>363.3</ele>
        <time>2021-03-21T07:37:42Z</time>
      </trkpt>
      <trkpt lat="42.95641" lon="2.49536">
        <ele>363.6</ele>
        <time>2021-03-21T07:37:44Z</time>
      </trkpt>
      <trkpt lat="42.9563" lon="2.49531">
        <ele>363.9</ele>
        <time>2021-03-21T07:37:46Z</time>
      </trkpt>
      <trkpt lat="42.95625" lon="2.49529">
        <ele>364.1</ele>
        <time>2021-03-21T07:37:47Z</time>
      </trkpt>
      <trkpt lat="42.95614" lon="2.49526">
        <ele>364.4</ele>
        <time>2021-03-21T07:37:49Z</time>
      </trkpt>
      <trkpt lat="42.95603" lon="2.49525">
        <ele>364.7</ele>
        <time>2021-03-21T07:37:51Z</time>
      </trkpt>
      <trkpt lat="42.95592" lon="2.49525">
        <ele>365</ele>
        <time>2021-03-21T07:37:53Z</time>
      </trkpt>
      <trkpt lat="42.95587" lon="2.49526">
        <ele>365.2</ele>
        <time>2021-03-21T07:37:54Z</time>
      </trkpt>
      <trkpt lat="42.95582" lon="2.49527">
        <ele>365.4</ele>
        <time>2021-03-21T07:37:55Z</time>
      </trkpt>
      <trkpt lat="42.95574" lon="2.49528">
        <ele>365.8</ele>
        <time>2021-03-21T07:37:57Z</time>
      </trkpt>
      <trkpt lat="42.95564" lon="2.49531">
        <ele>366.3</ele>
        <time>2021-03-21T07:37:59Z</time>
      </trkpt>
      <trkpt lat="42.95559" lon="2.49539">
        <ele>366.6</ele>
        <time>2021-03-21T07:38:01Z</time>
      </trkpt>
      <trkpt lat="42.9556" lon="2.49545">
        <ele>366.9</ele>
        <time>2021-03-21T07:38:02Z</time>
      </trkpt>
      <trkpt lat="42.95562" lon="2.4955">
        <ele>367.2</ele>
        <time>2021-03-21T07:38:03Z</time>
      </trkpt>
      <trkpt lat="42.95567" lon="2.49555">
        <ele>367.4</ele>
        <time>2021-03-21T07:38:04Z</time>
      </trkpt>
      <trkpt lat="42.95577" lon="2.49559">
        <ele>367.9</ele>
        <time>2021-03-21T07:38:06Z</time>
      </trkpt>
      <trkpt lat="42.95586" lon="2.49559">
        <ele>368.3</ele>
        <time>2021-03-21T07:38:08Z</time>
      </trkpt>
      <trkpt lat="42.95588" lon="2.49558">
        <ele>368.4</ele>
        <time>2021-03-21T07:38:09Z</time>
      </trkpt>
      <trkpt lat="42.95588" lon="2.49558">
        <ele>368.4</ele>
        <time>2021-03-21T07:38:10Z</time>
      </trkpt>
      <trkpt lat="42.95596" lon="2.49556">
        <ele>368.8</ele>
        <time>2021-03-21T07:38:12Z</time>
      </trkpt>
      <trkpt lat="42.95603" lon="2.4956">
        <ele>369.3</ele>
        <time>2021-03-21T07:38:13Z</time>
      </trkpt>
      <trkpt lat="42.95609" lon="2.49563">
        <ele>369.7</ele>
        <time>2021-03-21T07:38:14Z</time>
      </trkpt>
      <trkpt lat="42.95613" lon="2.49562">
        <ele>369.9</ele>
        <time>2021-03-21T07:38:15Z</time>
      </trkpt>
      <trkpt lat="42.95623" lon="2.49568">
        <ele>370.6</ele>
        <time>2021-03-21T07:38:17Z</time>
      </trkpt>
      <trkpt lat="42.95632" lon="2.49573">
        <ele>371.1</ele>
        <time>2021-03-21T07:38:19Z</time>
      </trkpt>
      <trkpt lat="42.95639" lon="2.49576">
        <ele>371.5</ele>
        <time>2021-03-21T07:38:21Z</time>
      </trkpt>
      <trkpt lat="42.95645" lon="2.49579">
        <ele>371.8</ele>
        <time>2021-03-21T07:38:22Z</time>
      </trkpt>
      <trkpt lat="42.9565" lon="2.4958">
        <ele>372</ele>
        <time>2021-03-21T07:38:23Z</time>
      </trkpt>
      <trkpt lat="42.95659" lon="2.49582">
        <ele>372.5</ele>
        <time>2021-03-21T07:38:25Z</time>
      </trkpt>
      <trkpt lat="42.95664" lon="2.49582">
        <ele>372.7</ele>
        <time>2021-03-21T07:38:26Z</time>
      </trkpt>
      <trkpt lat="42.95671" lon="2.49579">
        <ele>373.1</ele>
        <time>2021-03-21T07:38:28Z</time>
      </trkpt>
      <trkpt lat="42.95675" lon="2.49576">
        <ele>373.3</ele>
        <time>2021-03-21T07:38:29Z</time>
      </trkpt>
      <trkpt lat="42.9568" lon="2.49575">
        <ele>373.5</ele>
        <time>2021-03-21T07:38:30Z</time>
      </trkpt>
      <trkpt lat="42.95684" lon="2.49574">
        <ele>373.7</ele>
        <time>2021-03-21T07:38:31Z</time>
      </trkpt>
      <trkpt lat="42.95689" lon="2.49572">
        <ele>373.9</ele>
        <time>2021-03-21T07:38:32Z</time>
      </trkpt>
      <trkpt lat="42.95693" lon="2.4957">
        <ele>374.1</ele>
        <time>2021-03-21T07:38:34Z</time>
      </trkpt>
      <trkpt lat="42.95699" lon="2.49566">
        <ele>374.3</ele>
        <time>2021-03-21T07:38:35Z</time>
      </trkpt>
      <trkpt lat="42.95703" lon="2.49565">
        <ele>374.5</ele>
        <time>2021-03-21T07:38:36Z</time>
      </trkpt>
      <trkpt lat="42.95709" lon="2.49562">
        <ele>374.8</ele>
        <time>2021-03-21T07:38:38Z</time>
      </trkpt>
      <trkpt lat="42.95714" lon="2.4956">
        <ele>375</ele>
        <time>2021-03-21T07:38:39Z</time>
      </trkpt>
      <trkpt lat="42.95719" lon="2.49558">
        <ele>375.2</ele>
        <time>2021-03-21T07:38:41Z</time>
      </trkpt>
      <trkpt lat="42.95724" lon="2.49556">
        <ele>375.5</ele>
        <time>2021-03-21T07:38:42Z</time>
      </trkpt>
      <trkpt lat="42.9573" lon="2.49553">
        <ele>375.8</ele>
        <time>2021-03-21T07:38:43Z</time>
      </trkpt>
      <trkpt lat="42.95734" lon="2.49551">
        <ele>376</ele>
        <time>2021-03-21T07:38:44Z</time>
      </trkpt>
      <trkpt lat="42.95739" lon="2.49547">
        <ele>376.3</ele>
        <time>2021-03-21T07:38:46Z</time>
      </trkpt>
      <trkpt lat="42.95743" lon="2.49545">
        <ele>376.5</ele>
        <time>2021-03-21T07:38:47Z</time>
      </trkpt>
      <trkpt lat="42.95751" lon="2.49541">
        <ele>376.9</ele>
        <time>2021-03-21T07:38:49Z</time>
      </trkpt>
      <trkpt lat="42.95757" lon="2.49538">
        <ele>377.3</ele>
        <time>2021-03-21T07:38:50Z</time>
      </trkpt>
      <trkpt lat="42.95761" lon="2.49537">
        <ele>377.5</ele>
        <time>2021-03-21T07:38:51Z</time>
      </trkpt>
      <trkpt lat="42.95765" lon="2.49537">
        <ele>377.7</ele>
        <time>2021-03-21T07:38:52Z</time>
      </trkpt>
      <trkpt lat="42.95768" lon="2.49537">
        <ele>377.8</ele>
        <time>2021-03-21T07:38:53Z</time>
      </trkpt>
      <trkpt lat="42.95774" lon="2.49538">
        <ele>378.1</ele>
        <time>2021-03-21T07:38:55Z</time>
      </trkpt>
      <trkpt lat="42.95778" lon="2.49542">
        <ele>378.3</ele>
        <time>2021-03-21T07:38:56Z</time>
      </trkpt>
      <trkpt lat="42.95781" lon="2.49546">
        <ele>378.5</ele>
        <time>2021-03-21T07:38:57Z</time>
      </trkpt>
      <trkpt lat="42.95785" lon="2.49551">
        <ele>378.8</ele>
        <time>2021-03-21T07:38:58Z</time>
      </trkpt>
      <trkpt lat="42.9579" lon="2.49561">
        <ele>379.3</ele>
        <time>2021-03-21T07:39:00Z</time>
      </trkpt>
      <trkpt lat="42.95794" lon="2.49568">
        <ele>379.6</ele>
        <time>2021-03-21T07:39:01Z</time>
      </trkpt>
      <trkpt lat="42.95799" lon="2.49574">
        <ele>380</ele>
        <time>2021-03-21T07:39:03Z</time>
      </trkpt>
      <trkpt lat="42.95803" lon="2.4958">
        <ele>380.3</ele>
        <time>2021-03-21T07:39:04Z</time>
      </trkpt>
      <trkpt lat="42.95806" lon="2.49584">
        <ele>380.5</ele>
        <time>2021-03-21T07:39:05Z</time>
      </trkpt>
      <trkpt lat="42.95812" lon="2.49589">
        <ele>381</ele>
        <time>2021-03-21T07:39:07Z</time>
      </trkpt>
      <trkpt lat="42.95817" lon="2.49593">
        <ele>381.3</ele>
        <time>2021-03-21T07:39:08Z</time>
      </trkpt>
      <trkpt lat="42.95824" lon="2.49598">
        <ele>381.8</ele>
        <time>2021-03-21T07:39:10Z</time>
      </trkpt>
      <trkpt lat="42.95831" lon="2.49603">
        <ele>382.3</ele>
        <time>2021-03-21T07:39:12Z</time>
      </trkpt>
      <trkpt lat="42.95838" lon="2.49606">
        <ele>382.7</ele>
        <time>2021-03-21T07:39:14Z</time>
      </trkpt>
      <trkpt lat="42.95843" lon="2.49609">
        <ele>383</ele>
        <time>2021-03-21T07:39:15Z</time>
      </trkpt>
      <trkpt lat="42.95847" lon="2.49611">
        <ele>383.3</ele>
        <time>2021-03-21T07:39:16Z</time>
      </trkpt>
      <trkpt lat="42.95852" lon="2.49614">
        <ele>383.5</ele>
        <time>2021-03-21T07:39:17Z</time>
      </trkpt>
      <trkpt lat="42.95856" lon="2.49618">
        <ele>383.8</ele>
        <time>2021-03-21T07:39:18Z</time>
      </trkpt>
      <trkpt lat="42.9586" lon="2.49624">
        <ele>384.2</ele>
        <time>2021-03-21T07:39:20Z</time>
      </trkpt>
      <trkpt lat="42.95864" lon="2.49634">
        <ele>384.7</ele>
        <time>2021-03-21T07:39:21Z</time>
      </trkpt>
      <trkpt lat="42.95866" lon="2.49643">
        <ele>385.1</ele>
        <time>2021-03-21T07:39:23Z</time>
      </trkpt>
      <trkpt lat="42.95869" lon="2.49652">
        <ele>385.5</ele>
        <time>2021-03-21T07:39:24Z</time>
      </trkpt>
      <trkpt lat="42.9587" lon="2.49657">
        <ele>385.7</ele>
        <time>2021-03-21T07:39:25Z</time>
      </trkpt>
      <trkpt lat="42.95874" lon="2.49666">
        <ele>386.2</ele>
        <time>2021-03-21T07:39:27Z</time>
      </trkpt>
      <trkpt lat="42.95876" lon="2.49671">
        <ele>386.4</ele>
        <time>2021-03-21T07:39:28Z</time>
      </trkpt>
      <trkpt lat="42.95879" lon="2.49675">
        <ele>386.6</ele>
        <time>2021-03-21T07:39:29Z</time>
      </trkpt>
      <trkpt lat="42.95882" lon="2.4968">
        <ele>386.9</ele>
        <time>2021-03-21T07:39:31Z</time>
      </trkpt>
      <trkpt lat="42.95886" lon="2.49686">
        <ele>387.2</ele>
        <time>2021-03-21T07:39:32Z</time>
      </trkpt>
      <trkpt lat="42.95889" lon="2.4969">
        <ele>387.4</ele>
        <time>2021-03-21T07:39:33Z</time>
      </trkpt>
      <trkpt lat="42.95893" lon="2.49697">
        <ele>387.7</ele>
        <time>2021-03-21T07:39:35Z</time>
      </trkpt>
      <trkpt lat="42.95895" lon="2.49702">
        <ele>387.9</ele>
        <time>2021-03-21T07:39:36Z</time>
      </trkpt>
      <trkpt lat="42.95898" lon="2.49706">
        <ele>388.1</ele>
        <time>2021-03-21T07:39:37Z</time>
      </trkpt>
      <trkpt lat="42.95902" lon="2.49714">
        <ele>388.5</ele>
        <time>2021-03-21T07:39:39Z</time>
      </trkpt>
      <trkpt lat="42.95904" lon="2.49718">
        <ele>388.7</ele>
        <time>2021-03-21T07:39:40Z</time>
      </trkpt>
      <trkpt lat="42.95908" lon="2.49726">
        <ele>389.1</ele>
        <time>2021-03-21T07:39:42Z</time>
      </trkpt>
      <trkpt lat="42.9591" lon="2.49732">
        <ele>389.4</ele>
        <time>2021-03-21T07:39:44Z</time>
      </trkpt>
      <trkpt lat="42.95912" lon="2.49737">
        <ele>389.6</ele>
        <time>2021-03-21T07:39:45Z</time>
      </trkpt>
      <trkpt lat="42.95913" lon="2.49744">
        <ele>389.8</ele>
        <time>2021-03-21T07:39:46Z</time>
      </trkpt>
      <trkpt lat="42.95914" lon="2.49753">
        <ele>390.2</ele>
        <time>2021-03-21T07:39:48Z</time>
      </trkpt>
      <trkpt lat="42.95916" lon="2.49761">
        <ele>390.5</ele>
        <time>2021-03-21T07:39:50Z</time>
      </trkpt>
      <trkpt lat="42.95917" lon="2.49769">
        <ele>390.8</ele>
        <time>2021-03-21T07:39:51Z</time>
      </trkpt>
      <trkpt lat="42.95919" lon="2.49775">
        <ele>391.1</ele>
        <time>2021-03-21T07:39:52Z</time>
      </trkpt>
      <trkpt lat="42.95921" lon="2.49781">
        <ele>391.3</ele>
        <time>2021-03-21T07:39:53Z</time>
      </trkpt>
      <trkpt lat="42.95923" lon="2.49789">
        <ele>391.6</ele>
        <time>2021-03-21T07:39:55Z</time>
      </trkpt>
      <trkpt lat="42.95924" lon="2.49795">
        <ele>391.7</ele>
        <time>2021-03-21T07:39:56Z</time>
      </trkpt>
      <trkpt lat="42.95926" lon="2.49802">
        <ele>391.9</ele>
        <time>2021-03-21T07:39:57Z</time>
      </trkpt>
      <trkpt lat="42.95928" lon="2.49808">
        <ele>392.1</ele>
        <time>2021-03-21T07:39:58Z</time>
      </trkpt>
      <trkpt lat="42.95932" lon="2.49816">
        <ele>392.2</ele>
        <time>2021-03-21T07:39:59Z</time>
      </trkpt>
      <trkpt lat="42.95935" lon="2.49822">
        <ele>392.4</ele>
        <time>2021-03-21T07:40:00Z</time>
      </trkpt>
      <trkpt lat="42.95943" lon="2.49835">
        <ele>392.4</ele>
        <time>2021-03-21T07:40:02Z</time>
      </trkpt>
      <trkpt lat="42.95947" lon="2.4984">
        <ele>392.4</ele>
        <time>2021-03-21T07:40:03Z</time>
      </trkpt>
      <trkpt lat="42.95956" lon="2.4985">
        <ele>392.7</ele>
        <time>2021-03-21T07:40:05Z</time>
      </trkpt>
      <trkpt lat="42.95959" lon="2.49856">
        <ele>392.8</ele>
        <time>2021-03-21T07:40:07Z</time>
      </trkpt>
      <trkpt lat="42.95962" lon="2.49858">
        <ele>392.9</ele>
        <time>2021-03-21T07:40:08Z</time>
      </trkpt>
      <trkpt lat="42.95966" lon="2.4986">
        <ele>393</ele>
        <time>2021-03-21T07:40:09Z</time>
      </trkpt>
      <trkpt lat="42.9597" lon="2.49862">
        <ele>393.2</ele>
        <time>2021-03-21T07:40:10Z</time>
      </trkpt>
      <trkpt lat="42.95977" lon="2.49863">
        <ele>393.4</ele>
        <time>2021-03-21T07:40:12Z</time>
      </trkpt>
      <trkpt lat="42.95982" lon="2.49865">
        <ele>393.5</ele>
        <time>2021-03-21T07:40:13Z</time>
      </trkpt>
      <trkpt lat="42.95986" lon="2.49867">
        <ele>393.6</ele>
        <time>2021-03-21T07:40:14Z</time>
      </trkpt>
      <trkpt lat="42.95992" lon="2.49872">
        <ele>393.9</ele>
        <time>2021-03-21T07:40:16Z</time>
      </trkpt>
      <trkpt lat="42.95995" lon="2.49878">
        <ele>394.1</ele>
        <time>2021-03-21T07:40:17Z</time>
      </trkpt>
      <trkpt lat="42.95998" lon="2.49883">
        <ele>394.2</ele>
        <time>2021-03-21T07:40:18Z</time>
      </trkpt>
      <trkpt lat="42.96001" lon="2.49892">
        <ele>394.4</ele>
        <time>2021-03-21T07:40:20Z</time>
      </trkpt>
      <trkpt lat="42.96001" lon="2.49904">
        <ele>394.8</ele>
        <time>2021-03-21T07:40:22Z</time>
      </trkpt>
      <trkpt lat="42.96" lon="2.49913">
        <ele>395.1</ele>
        <time>2021-03-21T07:40:24Z</time>
      </trkpt>
      <trkpt lat="42.95998" lon="2.4992">
        <ele>395.3</ele>
        <time>2021-03-21T07:40:25Z</time>
      </trkpt>
      <trkpt lat="42.95994" lon="2.4993">
        <ele>395.7</ele>
        <time>2021-03-21T07:40:27Z</time>
      </trkpt>
      <trkpt lat="42.9599" lon="2.4994">
        <ele>396.1</ele>
        <time>2021-03-21T07:40:29Z</time>
      </trkpt>
      <trkpt lat="42.95988" lon="2.4995">
        <ele>396.5</ele>
        <time>2021-03-21T07:40:31Z</time>
      </trkpt>
      <trkpt lat="42.95987" lon="2.49957">
        <ele>396.7</ele>
        <time>2021-03-21T07:40:33Z</time>
      </trkpt>
      <trkpt lat="42.95986" lon="2.49963">
        <ele>397</ele>
        <time>2021-03-21T07:40:34Z</time>
      </trkpt>
      <trkpt lat="42.95986" lon="2.49971">
        <ele>397.2</ele>
        <time>2021-03-21T07:40:35Z</time>
      </trkpt>
      <trkpt lat="42.95986" lon="2.49981">
        <ele>397.6</ele>
        <time>2021-03-21T07:40:37Z</time>
      </trkpt>
      <trkpt lat="42.95988" lon="2.49989">
        <ele>397.8</ele>
        <time>2021-03-21T07:40:38Z</time>
      </trkpt>
      <trkpt lat="42.95989" lon="2.49996">
        <ele>398</ele>
        <time>2021-03-21T07:40:39Z</time>
      </trkpt>
      <trkpt lat="42.95993" lon="2.50008">
        <ele>398.4</ele>
        <time>2021-03-21T07:40:41Z</time>
      </trkpt>
      <trkpt lat="42.95996" lon="2.50015">
        <ele>398.7</ele>
        <time>2021-03-21T07:40:43Z</time>
      </trkpt>
      <trkpt lat="42.95997" lon="2.5002">
        <ele>398.9</ele>
        <time>2021-03-21T07:40:44Z</time>
      </trkpt>
      <trkpt lat="42.95999" lon="2.50027">
        <ele>399.1</ele>
        <time>2021-03-21T07:40:45Z</time>
      </trkpt>
      <trkpt lat="42.96" lon="2.50033">
        <ele>399.3</ele>
        <time>2021-03-21T07:40:47Z</time>
      </trkpt>
      <trkpt lat="42.96002" lon="2.50046">
        <ele>399.7</ele>
        <time>2021-03-21T07:40:48Z</time>
      </trkpt>
      <trkpt lat="42.96003" lon="2.50053">
        <ele>399.9</ele>
        <time>2021-03-21T07:40:49Z</time>
      </trkpt>
      <trkpt lat="42.96003" lon="2.50061">
        <ele>400.1</ele>
        <time>2021-03-21T07:40:51Z</time>
      </trkpt>
      <trkpt lat="42.96002" lon="2.50068">
        <ele>400.3</ele>
        <time>2021-03-21T07:40:52Z</time>
      </trkpt>
      <trkpt lat="42.95998" lon="2.50076">
        <ele>400.6</ele>
        <time>2021-03-21T07:40:53Z</time>
      </trkpt>
      <trkpt lat="42.95991" lon="2.50085">
        <ele>401.1</ele>
        <time>2021-03-21T07:40:55Z</time>
      </trkpt>
      <trkpt lat="42.95988" lon="2.50089">
        <ele>401.3</ele>
        <time>2021-03-21T07:40:56Z</time>
      </trkpt>
      <trkpt lat="42.95982" lon="2.50095">
        <ele>401.7</ele>
        <time>2021-03-21T07:40:58Z</time>
      </trkpt>
      <trkpt lat="42.95978" lon="2.50099">
        <ele>402</ele>
        <time>2021-03-21T07:40:59Z</time>
      </trkpt>
      <trkpt lat="42.95974" lon="2.50103">
        <ele>402.3</ele>
        <time>2021-03-21T07:41:00Z</time>
      </trkpt>
      <trkpt lat="42.95969" lon="2.50108">
        <ele>402.6</ele>
        <time>2021-03-21T07:41:02Z</time>
      </trkpt>
      <trkpt lat="42.95965" lon="2.50112">
        <ele>402.9</ele>
        <time>2021-03-21T07:41:03Z</time>
      </trkpt>
      <trkpt lat="42.95962" lon="2.50116">
        <ele>403.2</ele>
        <time>2021-03-21T07:41:04Z</time>
      </trkpt>
      <trkpt lat="42.95959" lon="2.50125">
        <ele>403.5</ele>
        <time>2021-03-21T07:41:06Z</time>
      </trkpt>
      <trkpt lat="42.95958" lon="2.50132">
        <ele>403.8</ele>
        <time>2021-03-21T07:41:07Z</time>
      </trkpt>
      <trkpt lat="42.95958" lon="2.50141">
        <ele>404.2</ele>
        <time>2021-03-21T07:41:09Z</time>
      </trkpt>
      <trkpt lat="42.9596" lon="2.50147">
        <ele>404.5</ele>
        <time>2021-03-21T07:41:10Z</time>
      </trkpt>
      <trkpt lat="42.95963" lon="2.50153">
        <ele>404.8</ele>
        <time>2021-03-21T07:41:11Z</time>
      </trkpt>
      <trkpt lat="42.95968" lon="2.50161">
        <ele>405.3</ele>
        <time>2021-03-21T07:41:13Z</time>
      </trkpt>
      <trkpt lat="42.95972" lon="2.50165">
        <ele>405.5</ele>
        <time>2021-03-21T07:41:14Z</time>
      </trkpt>
      <trkpt lat="42.95977" lon="2.5017">
        <ele>405.8</ele>
        <time>2021-03-21T07:41:16Z</time>
      </trkpt>
      <trkpt lat="42.95981" lon="2.50175">
        <ele>406.1</ele>
        <time>2021-03-21T07:41:17Z</time>
      </trkpt>
      <trkpt lat="42.95985" lon="2.50179">
        <ele>406.4</ele>
        <time>2021-03-21T07:41:18Z</time>
      </trkpt>
      <trkpt lat="42.95988" lon="2.50184">
        <ele>406.6</ele>
        <time>2021-03-21T07:41:19Z</time>
      </trkpt>
      <trkpt lat="42.95993" lon="2.50192">
        <ele>407</ele>
        <time>2021-03-21T07:41:21Z</time>
      </trkpt>
      <trkpt lat="42.95995" lon="2.50197">
        <ele>407.2</ele>
        <time>2021-03-21T07:41:22Z</time>
      </trkpt>
      <trkpt lat="42.95996" lon="2.50208">
        <ele>407.6</ele>
        <time>2021-03-21T07:41:24Z</time>
      </trkpt>
      <trkpt lat="42.95996" lon="2.50214">
        <ele>407.9</ele>
        <time>2021-03-21T07:41:25Z</time>
      </trkpt>
      <trkpt lat="42.95994" lon="2.50225">
        <ele>408.3</ele>
        <time>2021-03-21T07:41:27Z</time>
      </trkpt>
      <trkpt lat="42.95992" lon="2.50231">
        <ele>408.5</ele>
        <time>2021-03-21T07:41:28Z</time>
      </trkpt>
      <trkpt lat="42.9599" lon="2.50236">
        <ele>408.7</ele>
        <time>2021-03-21T07:41:29Z</time>
      </trkpt>
      <trkpt lat="42.95986" lon="2.50243">
        <ele>409</ele>
        <time>2021-03-21T07:41:31Z</time>
      </trkpt>
      <trkpt lat="42.95983" lon="2.50248">
        <ele>409.3</ele>
        <time>2021-03-21T07:41:32Z</time>
      </trkpt>
      <trkpt lat="42.95979" lon="2.50251">
        <ele>409.4</ele>
        <time>2021-03-21T07:41:33Z</time>
      </trkpt>
      <trkpt lat="42.95976" lon="2.50254">
        <ele>409.6</ele>
        <time>2021-03-21T07:41:34Z</time>
      </trkpt>
      <trkpt lat="42.95972" lon="2.50257">
        <ele>409.9</ele>
        <time>2021-03-21T07:41:35Z</time>
      </trkpt>
      <trkpt lat="42.95967" lon="2.5026">
        <ele>410.1</ele>
        <time>2021-03-21T07:41:37Z</time>
      </trkpt>
      <trkpt lat="42.9596" lon="2.50264">
        <ele>410.5</ele>
        <time>2021-03-21T07:41:38Z</time>
      </trkpt>
      <trkpt lat="42.95952" lon="2.50268">
        <ele>410.9</ele>
        <time>2021-03-21T07:41:40Z</time>
      </trkpt>
      <trkpt lat="42.95947" lon="2.50269">
        <ele>411.1</ele>
        <time>2021-03-21T07:41:41Z</time>
      </trkpt>
      <trkpt lat="42.95943" lon="2.5027">
        <ele>411.4</ele>
        <time>2021-03-21T07:41:42Z</time>
      </trkpt>
      <trkpt lat="42.95937" lon="2.50272">
        <ele>411.7</ele>
        <time>2021-03-21T07:41:44Z</time>
      </trkpt>
      <trkpt lat="42.95932" lon="2.50274">
        <ele>412</ele>
        <time>2021-03-21T07:41:45Z</time>
      </trkpt>
      <trkpt lat="42.95928" lon="2.50275">
        <ele>412.3</ele>
        <time>2021-03-21T07:41:46Z</time>
      </trkpt>
      <trkpt lat="42.95921" lon="2.50276">
        <ele>412.6</ele>
        <time>2021-03-21T07:41:48Z</time>
      </trkpt>
      <trkpt lat="42.95917" lon="2.50278">
        <ele>412.8</ele>
        <time>2021-03-21T07:41:49Z</time>
      </trkpt>
      <trkpt lat="42.95914" lon="2.50279">
        <ele>413</ele>
        <time>2021-03-21T07:41:50Z</time>
      </trkpt>
      <trkpt lat="42.95906" lon="2.50281">
        <ele>413.5</ele>
        <time>2021-03-21T07:41:52Z</time>
      </trkpt>
      <trkpt lat="42.95902" lon="2.50282">
        <ele>413.6</ele>
        <time>2021-03-21T07:41:53Z</time>
      </trkpt>
      <trkpt lat="42.95899" lon="2.50283">
        <ele>413.8</ele>
        <time>2021-03-21T07:41:54Z</time>
      </trkpt>
      <trkpt lat="42.95895" lon="2.50284">
        <ele>414.1</ele>
        <time>2021-03-21T07:41:55Z</time>
      </trkpt>
      <trkpt lat="42.95888" lon="2.50286">
        <ele>414.4</ele>
        <time>2021-03-21T07:41:57Z</time>
      </trkpt>
      <trkpt lat="42.95883" lon="2.50288">
        <ele>414.7</ele>
        <time>2021-03-21T07:41:58Z</time>
      </trkpt>
      <trkpt lat="42.95877" lon="2.50289">
        <ele>415</ele>
        <time>2021-03-21T07:42:00Z</time>
      </trkpt>
      <trkpt lat="42.95873" lon="2.5029">
        <ele>415.3</ele>
        <time>2021-03-21T07:42:01Z</time>
      </trkpt>
      <trkpt lat="42.95869" lon="2.50291">
        <ele>415.4</ele>
        <time>2021-03-21T07:42:02Z</time>
      </trkpt>
      <trkpt lat="42.95862" lon="2.50291">
        <ele>415.8</ele>
        <time>2021-03-21T07:42:04Z</time>
      </trkpt>
      <trkpt lat="42.95856" lon="2.5029">
        <ele>416.2</ele>
        <time>2021-03-21T07:42:06Z</time>
      </trkpt>
      <trkpt lat="42.95851" lon="2.5029">
        <ele>416.4</ele>
        <time>2021-03-21T07:42:07Z</time>
      </trkpt>
      <trkpt lat="42.95846" lon="2.50289">
        <ele>416.7</ele>
        <time>2021-03-21T07:42:09Z</time>
      </trkpt>
      <trkpt lat="42.95841" lon="2.5029">
        <ele>417</ele>
        <time>2021-03-21T07:42:10Z</time>
      </trkpt>
      <trkpt lat="42.95833" lon="2.50291">
        <ele>417.4</ele>
        <time>2021-03-21T07:42:12Z</time>
      </trkpt>
      <trkpt lat="42.95828" lon="2.50292">
        <ele>417.7</ele>
        <time>2021-03-21T07:42:13Z</time>
      </trkpt>
      <trkpt lat="42.9582" lon="2.50295">
        <ele>418.3</ele>
        <time>2021-03-21T07:42:15Z</time>
      </trkpt>
      <trkpt lat="42.95815" lon="2.50298">
        <ele>418.6</ele>
        <time>2021-03-21T07:42:16Z</time>
      </trkpt>
      <trkpt lat="42.95812" lon="2.50301">
        <ele>418.8</ele>
        <time>2021-03-21T07:42:17Z</time>
      </trkpt>
      <trkpt lat="42.95808" lon="2.50306">
        <ele>419.1</ele>
        <time>2021-03-21T07:42:18Z</time>
      </trkpt>
      <trkpt lat="42.95803" lon="2.50311">
        <ele>419.5</ele>
        <time>2021-03-21T07:42:20Z</time>
      </trkpt>
      <trkpt lat="42.95798" lon="2.50317">
        <ele>419.8</ele>
        <time>2021-03-21T07:42:21Z</time>
      </trkpt>
      <trkpt lat="42.95793" lon="2.50324">
        <ele>420.2</ele>
        <time>2021-03-21T07:42:23Z</time>
      </trkpt>
      <trkpt lat="42.9579" lon="2.50329">
        <ele>420.4</ele>
        <time>2021-03-21T07:42:24Z</time>
      </trkpt>
      <trkpt lat="42.95786" lon="2.50336">
        <ele>420.8</ele>
        <time>2021-03-21T07:42:26Z</time>
      </trkpt>
      <trkpt lat="42.95784" lon="2.50341">
        <ele>421</ele>
        <time>2021-03-21T07:42:27Z</time>
      </trkpt>
      <trkpt lat="42.95781" lon="2.50347">
        <ele>421.3</ele>
        <time>2021-03-21T07:42:28Z</time>
      </trkpt>
      <trkpt lat="42.95778" lon="2.50355">
        <ele>421.7</ele>
        <time>2021-03-21T07:42:30Z</time>
      </trkpt>
      <trkpt lat="42.95776" lon="2.50363">
        <ele>422</ele>
        <time>2021-03-21T07:42:31Z</time>
      </trkpt>
      <trkpt lat="42.95775" lon="2.5037">
        <ele>422.2</ele>
        <time>2021-03-21T07:42:33Z</time>
      </trkpt>
      <trkpt lat="42.95775" lon="2.50375">
        <ele>422.4</ele>
        <time>2021-03-21T07:42:34Z</time>
      </trkpt>
      <trkpt lat="42.95776" lon="2.50383">
        <ele>422.7</ele>
        <time>2021-03-21T07:42:35Z</time>
      </trkpt>
      <trkpt lat="42.95778" lon="2.50393">
        <ele>423.1</ele>
        <time>2021-03-21T07:42:37Z</time>
      </trkpt>
      <trkpt lat="42.9578" lon="2.50401">
        <ele>423.4</ele>
        <time>2021-03-21T07:42:39Z</time>
      </trkpt>
      <trkpt lat="42.95781" lon="2.50408">
        <ele>423.7</ele>
        <time>2021-03-21T07:42:40Z</time>
      </trkpt>
      <trkpt lat="42.95781" lon="2.50413">
        <ele>423.9</ele>
        <time>2021-03-21T07:42:41Z</time>
      </trkpt>
      <trkpt lat="42.95782" lon="2.50421">
        <ele>424.2</ele>
        <time>2021-03-21T07:42:43Z</time>
      </trkpt>
      <trkpt lat="42.95782" lon="2.50426">
        <ele>424.4</ele>
        <time>2021-03-21T07:42:44Z</time>
      </trkpt>
      <trkpt lat="42.95782" lon="2.50433">
        <ele>424.7</ele>
        <time>2021-03-21T07:42:45Z</time>
      </trkpt>
      <trkpt lat="42.95781" lon="2.50439">
        <ele>424.9</ele>
        <time>2021-03-21T07:42:46Z</time>
      </trkpt>
      <trkpt lat="42.9578" lon="2.50448">
        <ele>425.3</ele>
        <time>2021-03-21T07:42:48Z</time>
      </trkpt>
      <trkpt lat="42.95779" lon="2.50456">
        <ele>425.6</ele>
        <time>2021-03-21T07:42:49Z</time>
      </trkpt>
      <trkpt lat="42.95778" lon="2.50462">
        <ele>425.9</ele>
        <time>2021-03-21T07:42:50Z</time>
      </trkpt>
      <trkpt lat="42.95776" lon="2.50469">
        <ele>426.2</ele>
        <time>2021-03-21T07:42:52Z</time>
      </trkpt>
      <trkpt lat="42.95774" lon="2.50475">
        <ele>426.5</ele>
        <time>2021-03-21T07:42:53Z</time>
      </trkpt>
      <trkpt lat="42.95772" lon="2.50484">
        <ele>426.9</ele>
        <time>2021-03-21T07:42:55Z</time>
      </trkpt>
      <trkpt lat="42.9577" lon="2.5049">
        <ele>427.1</ele>
        <time>2021-03-21T07:42:56Z</time>
      </trkpt>
      <trkpt lat="42.95768" lon="2.50496">
        <ele>427.4</ele>
        <time>2021-03-21T07:42:58Z</time>
      </trkpt>
      <trkpt lat="42.95766" lon="2.50502">
        <ele>427.7</ele>
        <time>2021-03-21T07:42:59Z</time>
      </trkpt>
      <trkpt lat="42.95765" lon="2.50507">
        <ele>428</ele>
        <time>2021-03-21T07:43:00Z</time>
      </trkpt>
      <trkpt lat="42.95762" lon="2.50514">
        <ele>428.3</ele>
        <time>2021-03-21T07:43:01Z</time>
      </trkpt>
      <trkpt lat="42.95758" lon="2.5052">
        <ele>428.7</ele>
        <time>2021-03-21T07:43:03Z</time>
      </trkpt>
      <trkpt lat="42.95754" lon="2.50525">
        <ele>429</ele>
        <time>2021-03-21T07:43:04Z</time>
      </trkpt>
      <trkpt lat="42.9575" lon="2.50532">
        <ele>429.4</ele>
        <time>2021-03-21T07:43:06Z</time>
      </trkpt>
      <trkpt lat="42.95747" lon="2.50536">
        <ele>429.6</ele>
        <time>2021-03-21T07:43:07Z</time>
      </trkpt>
      <trkpt lat="42.95743" lon="2.50541">
        <ele>430</ele>
        <time>2021-03-21T07:43:08Z</time>
      </trkpt>
      <trkpt lat="42.95737" lon="2.50549">
        <ele>430.4</ele>
        <time>2021-03-21T07:43:10Z</time>
      </trkpt>
      <trkpt lat="42.95734" lon="2.50554">
        <ele>430.7</ele>
        <time>2021-03-21T07:43:11Z</time>
      </trkpt>
      <trkpt lat="42.95732" lon="2.50558">
        <ele>430.9</ele>
        <time>2021-03-21T07:43:12Z</time>
      </trkpt>
      <trkpt lat="42.95729" lon="2.50568">
        <ele>431.3</ele>
        <time>2021-03-21T07:43:14Z</time>
      </trkpt>
      <trkpt lat="42.95728" lon="2.50574">
        <ele>431.6</ele>
        <time>2021-03-21T07:43:15Z</time>
      </trkpt>
      <trkpt lat="42.95726" lon="2.50585">
        <ele>432</ele>
        <time>2021-03-21T07:43:17Z</time>
      </trkpt>
      <trkpt lat="42.95725" lon="2.50592">
        <ele>432.3</ele>
        <time>2021-03-21T07:43:18Z</time>
      </trkpt>
      <trkpt lat="42.95724" lon="2.50603">
        <ele>432.8</ele>
        <time>2021-03-21T07:43:20Z</time>
      </trkpt>
      <trkpt lat="42.95722" lon="2.50611">
        <ele>433.2</ele>
        <time>2021-03-21T07:43:22Z</time>
      </trkpt>
      <trkpt lat="42.95721" lon="2.50617">
        <ele>433.5</ele>
        <time>2021-03-21T07:43:23Z</time>
      </trkpt>
      <trkpt lat="42.95719" lon="2.50623">
        <ele>433.8</ele>
        <time>2021-03-21T07:43:24Z</time>
      </trkpt>
      <trkpt lat="42.95716" lon="2.50632">
        <ele>434.2</ele>
        <time>2021-03-21T07:43:26Z</time>
      </trkpt>
      <trkpt lat="42.95713" lon="2.50639">
        <ele>434.6</ele>
        <time>2021-03-21T07:43:27Z</time>
      </trkpt>
      <trkpt lat="42.9571" lon="2.50647">
        <ele>435</ele>
        <time>2021-03-21T07:43:29Z</time>
      </trkpt>
      <trkpt lat="42.95708" lon="2.50652">
        <ele>435.3</ele>
        <time>2021-03-21T07:43:30Z</time>
      </trkpt>
      <trkpt lat="42.95705" lon="2.5066">
        <ele>435.7</ele>
        <time>2021-03-21T07:43:32Z</time>
      </trkpt>
      <trkpt lat="42.95703" lon="2.50666">
        <ele>436</ele>
        <time>2021-03-21T07:43:33Z</time>
      </trkpt>
      <trkpt lat="42.957" lon="2.50672">
        <ele>436.4</ele>
        <time>2021-03-21T07:43:34Z</time>
      </trkpt>
      <trkpt lat="42.95699" lon="2.50677">
        <ele>436.6</ele>
        <time>2021-03-21T07:43:35Z</time>
      </trkpt>
      <trkpt lat="42.95697" lon="2.50682">
        <ele>436.8</ele>
        <time>2021-03-21T07:43:36Z</time>
      </trkpt>
      <trkpt lat="42.95694" lon="2.50691">
        <ele>437.3</ele>
        <time>2021-03-21T07:43:38Z</time>
      </trkpt>
      <trkpt lat="42.95691" lon="2.50698">
        <ele>437.6</ele>
        <time>2021-03-21T07:43:40Z</time>
      </trkpt>
      <trkpt lat="42.95688" lon="2.50705">
        <ele>437.9</ele>
        <time>2021-03-21T07:43:41Z</time>
      </trkpt>
      <trkpt lat="42.95685" lon="2.50715">
        <ele>438.4</ele>
        <time>2021-03-21T07:43:43Z</time>
      </trkpt>
      <trkpt lat="42.95683" lon="2.50721">
        <ele>438.6</ele>
        <time>2021-03-21T07:43:44Z</time>
      </trkpt>
      <trkpt lat="42.95681" lon="2.50732">
        <ele>439.1</ele>
        <time>2021-03-21T07:43:46Z</time>
      </trkpt>
      <trkpt lat="42.95679" lon="2.50737">
        <ele>439.3</ele>
        <time>2021-03-21T07:43:47Z</time>
      </trkpt>
      <trkpt lat="42.95678" lon="2.50742">
        <ele>439.5</ele>
        <time>2021-03-21T07:43:48Z</time>
      </trkpt>
      <trkpt lat="42.95677" lon="2.50745">
        <ele>439.7</ele>
        <time>2021-03-21T07:43:49Z</time>
      </trkpt>
      <trkpt lat="42.95677" lon="2.50749">
        <ele>439.9</ele>
        <time>2021-03-21T07:43:50Z</time>
      </trkpt>
      <trkpt lat="42.95676" lon="2.50755">
        <ele>440.1</ele>
        <time>2021-03-21T07:43:52Z</time>
      </trkpt>
      <trkpt lat="42.95676" lon="2.50764">
        <ele>440.4</ele>
        <time>2021-03-21T07:43:53Z</time>
      </trkpt>
      <trkpt lat="42.95676" lon="2.50771">
        <ele>440.7</ele>
        <time>2021-03-21T07:43:54Z</time>
      </trkpt>
      <trkpt lat="42.95676" lon="2.50778">
        <ele>441</ele>
        <time>2021-03-21T07:43:56Z</time>
      </trkpt>
      <trkpt lat="42.95676" lon="2.50786">
        <ele>441.3</ele>
        <time>2021-03-21T07:43:57Z</time>
      </trkpt>
      <trkpt lat="42.95675" lon="2.50792">
        <ele>441.5</ele>
        <time>2021-03-21T07:43:58Z</time>
      </trkpt>
      <trkpt lat="42.95675" lon="2.50801">
        <ele>441.8</ele>
        <time>2021-03-21T07:44:00Z</time>
      </trkpt>
      <trkpt lat="42.95674" lon="2.50808">
        <ele>442.1</ele>
        <time>2021-03-21T07:44:01Z</time>
      </trkpt>
      <trkpt lat="42.95673" lon="2.50814">
        <ele>442.3</ele>
        <time>2021-03-21T07:44:02Z</time>
      </trkpt>
      <trkpt lat="42.95672" lon="2.50821">
        <ele>442.7</ele>
        <time>2021-03-21T07:44:04Z</time>
      </trkpt>
      <trkpt lat="42.95671" lon="2.50825">
        <ele>442.8</ele>
        <time>2021-03-21T07:44:05Z</time>
      </trkpt>
      <trkpt lat="42.9567" lon="2.5083">
        <ele>443</ele>
        <time>2021-03-21T07:44:06Z</time>
      </trkpt>
      <trkpt lat="42.95666" lon="2.50841">
        <ele>443.5</ele>
        <time>2021-03-21T07:44:08Z</time>
      </trkpt>
      <trkpt lat="42.95665" lon="2.50845">
        <ele>443.7</ele>
        <time>2021-03-21T07:44:09Z</time>
      </trkpt>
      <trkpt lat="42.95661" lon="2.50851">
        <ele>444</ele>
        <time>2021-03-21T07:44:11Z</time>
      </trkpt>
      <trkpt lat="42.95658" lon="2.50857">
        <ele>444.2</ele>
        <time>2021-03-21T07:44:12Z</time>
      </trkpt>
      <trkpt lat="42.95651" lon="2.50867">
        <ele>444.7</ele>
        <time>2021-03-21T07:44:13Z</time>
      </trkpt>
      <trkpt lat="42.95647" lon="2.50872">
        <ele>445</ele>
        <time>2021-03-21T07:44:14Z</time>
      </trkpt>
      <trkpt lat="42.95643" lon="2.5088">
        <ele>445.4</ele>
        <time>2021-03-21T07:44:16Z</time>
      </trkpt>
      <trkpt lat="42.9564" lon="2.50889">
        <ele>445.8</ele>
        <time>2021-03-21T07:44:18Z</time>
      </trkpt>
      <trkpt lat="42.95638" lon="2.50895">
        <ele>446.1</ele>
        <time>2021-03-21T07:44:19Z</time>
      </trkpt>
      <trkpt lat="42.95636" lon="2.50901">
        <ele>446.3</ele>
        <time>2021-03-21T07:44:20Z</time>
      </trkpt>
      <trkpt lat="42.95634" lon="2.50907">
        <ele>446.5</ele>
        <time>2021-03-21T07:44:21Z</time>
      </trkpt>
      <trkpt lat="42.95633" lon="2.50914">
        <ele>446.8</ele>
        <time>2021-03-21T07:44:22Z</time>
      </trkpt>
      <trkpt lat="42.95633" lon="2.50921">
        <ele>447.1</ele>
        <time>2021-03-21T07:44:23Z</time>
      </trkpt>
      <trkpt lat="42.95634" lon="2.50931">
        <ele>447.5</ele>
        <time>2021-03-21T07:44:25Z</time>
      </trkpt>
      <trkpt lat="42.95637" lon="2.50941">
        <ele>447.9</ele>
        <time>2021-03-21T07:44:26Z</time>
      </trkpt>
      <trkpt lat="42.95641" lon="2.50947">
        <ele>448.2</ele>
        <time>2021-03-21T07:44:28Z</time>
      </trkpt>
      <trkpt lat="42.95645" lon="2.50951">
        <ele>448.4</ele>
        <time>2021-03-21T07:44:29Z</time>
      </trkpt>
      <trkpt lat="42.95646" lon="2.50954">
        <ele>448.5</ele>
        <time>2021-03-21T07:44:30Z</time>
      </trkpt>
      <trkpt lat="42.95649" lon="2.50961">
        <ele>448.8</ele>
        <time>2021-03-21T07:44:31Z</time>
      </trkpt>
      <trkpt lat="42.95653" lon="2.50969">
        <ele>449.1</ele>
        <time>2021-03-21T07:44:33Z</time>
      </trkpt>
      <trkpt lat="42.95657" lon="2.50976">
        <ele>449.4</ele>
        <time>2021-03-21T07:44:34Z</time>
      </trkpt>
      <trkpt lat="42.9566" lon="2.50982">
        <ele>449.7</ele>
        <time>2021-03-21T07:44:35Z</time>
      </trkpt>
      <trkpt lat="42.95663" lon="2.50988">
        <ele>450</ele>
        <time>2021-03-21T07:44:36Z</time>
      </trkpt>
      <trkpt lat="42.95667" lon="2.50995">
        <ele>450.3</ele>
        <time>2021-03-21T07:44:38Z</time>
      </trkpt>
      <trkpt lat="42.95671" lon="2.51001">
        <ele>450.7</ele>
        <time>2021-03-21T07:44:39Z</time>
      </trkpt>
      <trkpt lat="42.95674" lon="2.51006">
        <ele>450.9</ele>
        <time>2021-03-21T07:44:40Z</time>
      </trkpt>
      <trkpt lat="42.95678" lon="2.51012">
        <ele>451.2</ele>
        <time>2021-03-21T07:44:42Z</time>
      </trkpt>
      <trkpt lat="42.95681" lon="2.5102">
        <ele>451.5</ele>
        <time>2021-03-21T07:44:43Z</time>
      </trkpt>
      <trkpt lat="42.95684" lon="2.51025">
        <ele>451.8</ele>
        <time>2021-03-21T07:44:44Z</time>
      </trkpt>
      <trkpt lat="42.95687" lon="2.51029">
        <ele>452</ele>
        <time>2021-03-21T07:44:45Z</time>
      </trkpt>
      <trkpt lat="42.9569" lon="2.51034">
        <ele>452.2</ele>
        <time>2021-03-21T07:44:46Z</time>
      </trkpt>
      <trkpt lat="42.95693" lon="2.51041">
        <ele>452.5</ele>
        <time>2021-03-21T07:44:48Z</time>
      </trkpt>
      <trkpt lat="42.95697" lon="2.51047">
        <ele>452.8</ele>
        <time>2021-03-21T07:44:49Z</time>
      </trkpt>
      <trkpt lat="42.95701" lon="2.51055">
        <ele>453.1</ele>
        <time>2021-03-21T07:44:51Z</time>
      </trkpt>
      <trkpt lat="42.95705" lon="2.51061">
        <ele>453.4</ele>
        <time>2021-03-21T07:44:52Z</time>
      </trkpt>
      <trkpt lat="42.95709" lon="2.5107">
        <ele>453.9</ele>
        <time>2021-03-21T07:44:54Z</time>
      </trkpt>
      <trkpt lat="42.95711" lon="2.51078">
        <ele>454.2</ele>
        <time>2021-03-21T07:44:55Z</time>
      </trkpt>
      <trkpt lat="42.95712" lon="2.51083">
        <ele>454.5</ele>
        <time>2021-03-21T07:44:57Z</time>
      </trkpt>
      <trkpt lat="42.95713" lon="2.5109">
        <ele>454.7</ele>
        <time>2021-03-21T07:44:58Z</time>
      </trkpt>
      <trkpt lat="42.95713" lon="2.51096">
        <ele>455</ele>
        <time>2021-03-21T07:44:59Z</time>
      </trkpt>
      <trkpt lat="42.95712" lon="2.51102">
        <ele>455.2</ele>
        <time>2021-03-21T07:45:00Z</time>
      </trkpt>
      <trkpt lat="42.9571" lon="2.51108">
        <ele>455.4</ele>
        <time>2021-03-21T07:45:01Z</time>
      </trkpt>
      <trkpt lat="42.95708" lon="2.51113">
        <ele>455.6</ele>
        <time>2021-03-21T07:45:02Z</time>
      </trkpt>
      <trkpt lat="42.95705" lon="2.51119">
        <ele>455.9</ele>
        <time>2021-03-21T07:45:03Z</time>
      </trkpt>
      <trkpt lat="42.957" lon="2.51126">
        <ele>456.3</ele>
        <time>2021-03-21T07:45:05Z</time>
      </trkpt>
      <trkpt lat="42.95696" lon="2.5113">
        <ele>456.5</ele>
        <time>2021-03-21T07:45:06Z</time>
      </trkpt>
      <trkpt lat="42.95692" lon="2.51131">
        <ele>456.7</ele>
        <time>2021-03-21T07:45:07Z</time>
      </trkpt>
      <trkpt lat="42.95688" lon="2.51132">
        <ele>457</ele>
        <time>2021-03-21T07:45:08Z</time>
      </trkpt>
      <trkpt lat="42.95683" lon="2.51132">
        <ele>457.2</ele>
        <time>2021-03-21T07:45:09Z</time>
      </trkpt>
      <trkpt lat="42.95678" lon="2.51132">
        <ele>457.5</ele>
        <time>2021-03-21T07:45:11Z</time>
      </trkpt>
      <trkpt lat="42.95673" lon="2.51128">
        <ele>457.8</ele>
        <time>2021-03-21T07:45:13Z</time>
      </trkpt>
      <trkpt lat="42.95669" lon="2.51122">
        <ele>458.2</ele>
        <time>2021-03-21T07:45:14Z</time>
      </trkpt>
      <trkpt lat="42.95667" lon="2.51117">
        <ele>458.4</ele>
        <time>2021-03-21T07:45:15Z</time>
      </trkpt>
      <trkpt lat="42.95662" lon="2.5111">
        <ele>458.9</ele>
        <time>2021-03-21T07:45:17Z</time>
      </trkpt>
      <trkpt lat="42.9566" lon="2.51107">
        <ele>459.1</ele>
        <time>2021-03-21T07:45:18Z</time>
      </trkpt>
      <trkpt lat="42.95655" lon="2.51102">
        <ele>459.6</ele>
        <time>2021-03-21T07:45:20Z</time>
      </trkpt>
      <trkpt lat="42.95651" lon="2.511">
        <ele>459.8</ele>
        <time>2021-03-21T07:45:21Z</time>
      </trkpt>
      <trkpt lat="42.95644" lon="2.51099">
        <ele>460.3</ele>
        <time>2021-03-21T07:45:23Z</time>
      </trkpt>
      <trkpt lat="42.95637" lon="2.511">
        <ele>460.7</ele>
        <time>2021-03-21T07:45:25Z</time>
      </trkpt>
      <trkpt lat="42.95634" lon="2.51102">
        <ele>460.9</ele>
        <time>2021-03-21T07:45:26Z</time>
      </trkpt>
      <trkpt lat="42.9563" lon="2.51105">
        <ele>461.1</ele>
        <time>2021-03-21T07:45:27Z</time>
      </trkpt>
      <trkpt lat="42.95626" lon="2.51107">
        <ele>461.3</ele>
        <time>2021-03-21T07:45:28Z</time>
      </trkpt>
      <trkpt lat="42.95623" lon="2.51111">
        <ele>461.6</ele>
        <time>2021-03-21T07:45:29Z</time>
      </trkpt>
      <trkpt lat="42.95619" lon="2.51116">
        <ele>461.8</ele>
        <time>2021-03-21T07:45:30Z</time>
      </trkpt>
      <trkpt lat="42.95617" lon="2.51122">
        <ele>462.1</ele>
        <time>2021-03-21T07:45:32Z</time>
      </trkpt>
      <trkpt lat="42.95615" lon="2.5113">
        <ele>462.4</ele>
        <time>2021-03-21T07:45:33Z</time>
      </trkpt>
      <trkpt lat="42.95614" lon="2.51136">
        <ele>462.6</ele>
        <time>2021-03-21T07:45:34Z</time>
      </trkpt>
      <trkpt lat="42.95615" lon="2.51148">
        <ele>463.1</ele>
        <time>2021-03-21T07:45:36Z</time>
      </trkpt>
      <trkpt lat="42.95616" lon="2.51155">
        <ele>463.4</ele>
        <time>2021-03-21T07:45:38Z</time>
      </trkpt>
      <trkpt lat="42.95617" lon="2.51163">
        <ele>463.6</ele>
        <time>2021-03-21T07:45:39Z</time>
      </trkpt>
      <trkpt lat="42.95618" lon="2.5117">
        <ele>463.9</ele>
        <time>2021-03-21T07:45:40Z</time>
      </trkpt>
      <trkpt lat="42.9562" lon="2.51179">
        <ele>464.2</ele>
        <time>2021-03-21T07:45:42Z</time>
      </trkpt>
      <trkpt lat="42.95621" lon="2.51186">
        <ele>464.4</ele>
        <time>2021-03-21T07:45:43Z</time>
      </trkpt>
      <trkpt lat="42.95624" lon="2.51193">
        <ele>464.7</ele>
        <time>2021-03-21T07:45:44Z</time>
      </trkpt>
      <trkpt lat="42.95626" lon="2.51201">
        <ele>465</ele>
        <time>2021-03-21T07:45:46Z</time>
      </trkpt>
      <trkpt lat="42.95627" lon="2.51209">
        <ele>465.3</ele>
        <time>2021-03-21T07:45:47Z</time>
      </trkpt>
      <trkpt lat="42.95629" lon="2.51214">
        <ele>465.5</ele>
        <time>2021-03-21T07:45:48Z</time>
      </trkpt>
      <trkpt lat="42.9563" lon="2.51222">
        <ele>465.8</ele>
        <time>2021-03-21T07:45:50Z</time>
      </trkpt>
      <trkpt lat="42.95631" lon="2.51227">
        <ele>466</ele>
        <time>2021-03-21T07:45:51Z</time>
      </trkpt>
      <trkpt lat="42.95632" lon="2.51232">
        <ele>466.2</ele>
        <time>2021-03-21T07:45:52Z</time>
      </trkpt>
      <trkpt lat="42.95632" lon="2.51238">
        <ele>466.4</ele>
        <time>2021-03-21T07:45:53Z</time>
      </trkpt>
      <trkpt lat="42.95632" lon="2.51246">
        <ele>466.8</ele>
        <time>2021-03-21T07:45:55Z</time>
      </trkpt>
      <trkpt lat="42.95632" lon="2.51252">
        <ele>467</ele>
        <time>2021-03-21T07:45:56Z</time>
      </trkpt>
      <trkpt lat="42.95632" lon="2.51259">
        <ele>467.3</ele>
        <time>2021-03-21T07:45:57Z</time>
      </trkpt>
      <trkpt lat="42.95631" lon="2.51264">
        <ele>467.5</ele>
        <time>2021-03-21T07:45:58Z</time>
      </trkpt>
      <trkpt lat="42.95631" lon="2.51272">
        <ele>467.9</ele>
        <time>2021-03-21T07:46:00Z</time>
      </trkpt>
      <trkpt lat="42.9563" lon="2.5128">
        <ele>468.2</ele>
        <time>2021-03-21T07:46:01Z</time>
      </trkpt>
      <trkpt lat="42.95629" lon="2.51285">
        <ele>468.4</ele>
        <time>2021-03-21T07:46:02Z</time>
      </trkpt>
      <trkpt lat="42.95629" lon="2.51292">
        <ele>468.7</ele>
        <time>2021-03-21T07:46:04Z</time>
      </trkpt>
      <trkpt lat="42.95628" lon="2.51299">
        <ele>469</ele>
        <time>2021-03-21T07:46:05Z</time>
      </trkpt>
      <trkpt lat="42.95626" lon="2.5131">
        <ele>469.4</ele>
        <time>2021-03-21T07:46:07Z</time>
      </trkpt>
      <trkpt lat="42.95625" lon="2.51319">
        <ele>469.8</ele>
        <time>2021-03-21T07:46:09Z</time>
      </trkpt>
      <trkpt lat="42.95624" lon="2.51325">
        <ele>470</ele>
        <time>2021-03-21T07:46:10Z</time>
      </trkpt>
      <trkpt lat="42.95623" lon="2.51335">
        <ele>470.4</ele>
        <time>2021-03-21T07:46:12Z</time>
      </trkpt>
      <trkpt lat="42.95622" lon="2.5134">
        <ele>470.6</ele>
        <time>2021-03-21T07:46:13Z</time>
      </trkpt>
      <trkpt lat="42.9562" lon="2.51345">
        <ele>470.7</ele>
        <time>2021-03-21T07:46:14Z</time>
      </trkpt>
      <trkpt lat="42.95619" lon="2.5135">
        <ele>470.9</ele>
        <time>2021-03-21T07:46:15Z</time>
      </trkpt>
      <trkpt lat="42.95618" lon="2.51355">
        <ele>471.1</ele>
        <time>2021-03-21T07:46:16Z</time>
      </trkpt>
      <trkpt lat="42.95615" lon="2.51365">
        <ele>471.5</ele>
        <time>2021-03-21T07:46:18Z</time>
      </trkpt>
      <trkpt lat="42.95614" lon="2.5137">
        <ele>471.7</ele>
        <time>2021-03-21T07:46:19Z</time>
      </trkpt>
      <trkpt lat="42.9561" lon="2.51379">
        <ele>472</ele>
        <time>2021-03-21T07:46:21Z</time>
      </trkpt>
      <trkpt lat="42.95607" lon="2.51389">
        <ele>472.4</ele>
        <time>2021-03-21T07:46:23Z</time>
      </trkpt>
      <trkpt lat="42.95605" lon="2.51397">
        <ele>472.8</ele>
        <time>2021-03-21T07:46:25Z</time>
      </trkpt>
      <trkpt lat="42.95603" lon="2.51403">
        <ele>473</ele>
        <time>2021-03-21T07:46:26Z</time>
      </trkpt>
      <trkpt lat="42.95601" lon="2.51411">
        <ele>473.4</ele>
        <time>2021-03-21T07:46:28Z</time>
      </trkpt>
      <trkpt lat="42.956" lon="2.51418">
        <ele>473.7</ele>
        <time>2021-03-21T07:46:29Z</time>
      </trkpt>
      <trkpt lat="42.95599" lon="2.51427">
        <ele>474</ele>
        <time>2021-03-21T07:46:31Z</time>
      </trkpt>
      <trkpt lat="42.95598" lon="2.51433">
        <ele>474.3</ele>
        <time>2021-03-21T07:46:32Z</time>
      </trkpt>
      <trkpt lat="42.95597" lon="2.5144">
        <ele>474.6</ele>
        <time>2021-03-21T07:46:33Z</time>
      </trkpt>
      <trkpt lat="42.95597" lon="2.51446">
        <ele>474.8</ele>
        <time>2021-03-21T07:46:34Z</time>
      </trkpt>
      <trkpt lat="42.95596" lon="2.51451">
        <ele>475</ele>
        <time>2021-03-21T07:46:35Z</time>
      </trkpt>
      <trkpt lat="42.95595" lon="2.51462">
        <ele>475.5</ele>
        <time>2021-03-21T07:46:37Z</time>
      </trkpt>
      <trkpt lat="42.95594" lon="2.51469">
        <ele>475.7</ele>
        <time>2021-03-21T07:46:38Z</time>
      </trkpt>
      <trkpt lat="42.95593" lon="2.51478">
        <ele>476.1</ele>
        <time>2021-03-21T07:46:40Z</time>
      </trkpt>
      <trkpt lat="42.95591" lon="2.51487">
        <ele>476.4</ele>
        <time>2021-03-21T07:46:42Z</time>
      </trkpt>
      <trkpt lat="42.95589" lon="2.51493">
        <ele>476.6</ele>
        <time>2021-03-21T07:46:43Z</time>
      </trkpt>
      <trkpt lat="42.95588" lon="2.51498">
        <ele>476.7</ele>
        <time>2021-03-21T07:46:44Z</time>
      </trkpt>
      <trkpt lat="42.95586" lon="2.51508">
        <ele>477</ele>
        <time>2021-03-21T07:46:46Z</time>
      </trkpt>
      <trkpt lat="42.95584" lon="2.51517">
        <ele>477.4</ele>
        <time>2021-03-21T07:46:48Z</time>
      </trkpt>
      <trkpt lat="42.95583" lon="2.51523">
        <ele>477.6</ele>
        <time>2021-03-21T07:46:49Z</time>
      </trkpt>
      <trkpt lat="42.95583" lon="2.51529">
        <ele>477.8</ele>
        <time>2021-03-21T07:46:50Z</time>
      </trkpt>
      <trkpt lat="42.95582" lon="2.51535">
        <ele>478</ele>
        <time>2021-03-21T07:46:51Z</time>
      </trkpt>
      <trkpt lat="42.95581" lon="2.51543">
        <ele>478.3</ele>
        <time>2021-03-21T07:46:53Z</time>
      </trkpt>
      <trkpt lat="42.95581" lon="2.5155">
        <ele>478.6</ele>
        <time>2021-03-21T07:46:54Z</time>
      </trkpt>
      <trkpt lat="42.95581" lon="2.51558">
        <ele>478.9</ele>
        <time>2021-03-21T07:46:56Z</time>
      </trkpt>
      <trkpt lat="42.95583" lon="2.51565">
        <ele>479.2</ele>
        <time>2021-03-21T07:46:57Z</time>
      </trkpt>
      <trkpt lat="42.95584" lon="2.5157">
        <ele>479.4</ele>
        <time>2021-03-21T07:46:58Z</time>
      </trkpt>
      <trkpt lat="42.95588" lon="2.51577">
        <ele>479.7</ele>
        <time>2021-03-21T07:47:00Z</time>
      </trkpt>
      <trkpt lat="42.95592" lon="2.51583">
        <ele>480.1</ele>
        <time>2021-03-21T07:47:01Z</time>
      </trkpt>
      <trkpt lat="42.95595" lon="2.51587">
        <ele>480.3</ele>
        <time>2021-03-21T07:47:02Z</time>
      </trkpt>
      <trkpt lat="42.95599" lon="2.51591">
        <ele>480.5</ele>
        <time>2021-03-21T07:47:04Z</time>
      </trkpt>
      <trkpt lat="42.95603" lon="2.51594">
        <ele>480.8</ele>
        <time>2021-03-21T07:47:05Z</time>
      </trkpt>
      <trkpt lat="42.95607" lon="2.51597">
        <ele>481</ele>
        <time>2021-03-21T07:47:06Z</time>
      </trkpt>
      <trkpt lat="42.95611" lon="2.51601">
        <ele>481.3</ele>
        <time>2021-03-21T07:47:07Z</time>
      </trkpt>
      <trkpt lat="42.95614" lon="2.51604">
        <ele>481.5</ele>
        <time>2021-03-21T07:47:08Z</time>
      </trkpt>
      <trkpt lat="42.9562" lon="2.5161">
        <ele>481.9</ele>
        <time>2021-03-21T07:47:10Z</time>
      </trkpt>
      <trkpt lat="42.95624" lon="2.51613">
        <ele>482.1</ele>
        <time>2021-03-21T07:47:11Z</time>
      </trkpt>
      <trkpt lat="42.9563" lon="2.51619">
        <ele>482.5</ele>
        <time>2021-03-21T07:47:13Z</time>
      </trkpt>
      <trkpt lat="42.95634" lon="2.51625">
        <ele>482.7</ele>
        <time>2021-03-21T07:47:15Z</time>
      </trkpt>
      <trkpt lat="42.95637" lon="2.51631">
        <ele>483</ele>
        <time>2021-03-21T07:47:16Z</time>
      </trkpt>
      <trkpt lat="42.95639" lon="2.51636">
        <ele>483.2</ele>
        <time>2021-03-21T07:47:17Z</time>
      </trkpt>
      <trkpt lat="42.9564" lon="2.51644">
        <ele>483.6</ele>
        <time>2021-03-21T07:47:19Z</time>
      </trkpt>
      <trkpt lat="42.9564" lon="2.5165">
        <ele>483.8</ele>
        <time>2021-03-21T07:47:20Z</time>
      </trkpt>
      <trkpt lat="42.95639" lon="2.51658">
        <ele>484.1</ele>
        <time>2021-03-21T07:47:21Z</time>
      </trkpt>
      <trkpt lat="42.95638" lon="2.51664">
        <ele>484.3</ele>
        <time>2021-03-21T07:47:22Z</time>
      </trkpt>
      <trkpt lat="42.95637" lon="2.51672">
        <ele>484.6</ele>
        <time>2021-03-21T07:47:24Z</time>
      </trkpt>
      <trkpt lat="42.95637" lon="2.5168">
        <ele>484.9</ele>
        <time>2021-03-21T07:47:25Z</time>
      </trkpt>
      <trkpt lat="42.95637" lon="2.51689">
        <ele>485.3</ele>
        <time>2021-03-21T07:47:27Z</time>
      </trkpt>
      <trkpt lat="42.95637" lon="2.51696">
        <ele>485.6</ele>
        <time>2021-03-21T07:47:28Z</time>
      </trkpt>
      <trkpt lat="42.95637" lon="2.51701">
        <ele>485.8</ele>
        <time>2021-03-21T07:47:29Z</time>
      </trkpt>
      <trkpt lat="42.95638" lon="2.51707">
        <ele>486</ele>
        <time>2021-03-21T07:47:30Z</time>
      </trkpt>
      <trkpt lat="42.95638" lon="2.51712">
        <ele>486.3</ele>
        <time>2021-03-21T07:47:31Z</time>
      </trkpt>
      <trkpt lat="42.95638" lon="2.51718">
        <ele>486.5</ele>
        <time>2021-03-21T07:47:33Z</time>
      </trkpt>
      <trkpt lat="42.95637" lon="2.51724">
        <ele>486.8</ele>
        <time>2021-03-21T07:47:34Z</time>
      </trkpt>
      <trkpt lat="42.95637" lon="2.51732">
        <ele>487.1</ele>
        <time>2021-03-21T07:47:35Z</time>
      </trkpt>
      <trkpt lat="42.95636" lon="2.51738">
        <ele>487.4</ele>
        <time>2021-03-21T07:47:36Z</time>
      </trkpt>
      <trkpt lat="42.95635" lon="2.51744">
        <ele>487.6</ele>
        <time>2021-03-21T07:47:37Z</time>
      </trkpt>
      <trkpt lat="42.95633" lon="2.51751">
        <ele>487.9</ele>
        <time>2021-03-21T07:47:39Z</time>
      </trkpt>
      <trkpt lat="42.9563" lon="2.51758">
        <ele>488.2</ele>
        <time>2021-03-21T07:47:40Z</time>
      </trkpt>
      <trkpt lat="42.95627" lon="2.51765">
        <ele>488.6</ele>
        <time>2021-03-21T07:47:41Z</time>
      </trkpt>
      <trkpt lat="42.95624" lon="2.51771">
        <ele>488.8</ele>
        <time>2021-03-21T07:47:43Z</time>
      </trkpt>
      <trkpt lat="42.95621" lon="2.51777">
        <ele>489.1</ele>
        <time>2021-03-21T07:47:44Z</time>
      </trkpt>
      <trkpt lat="42.95619" lon="2.51783">
        <ele>489.4</ele>
        <time>2021-03-21T07:47:45Z</time>
      </trkpt>
      <trkpt lat="42.95618" lon="2.51789">
        <ele>489.7</ele>
        <time>2021-03-21T07:47:47Z</time>
      </trkpt>
      <trkpt lat="42.95616" lon="2.51796">
        <ele>489.9</ele>
        <time>2021-03-21T07:47:48Z</time>
      </trkpt>
      <trkpt lat="42.95614" lon="2.51804">
        <ele>490.3</ele>
        <time>2021-03-21T07:47:50Z</time>
      </trkpt>
      <trkpt lat="42.95614" lon="2.51811">
        <ele>490.6</ele>
        <time>2021-03-21T07:47:51Z</time>
      </trkpt>
      <trkpt lat="42.95614" lon="2.51817">
        <ele>490.8</ele>
        <time>2021-03-21T07:47:52Z</time>
      </trkpt>
      <trkpt lat="42.95615" lon="2.51827">
        <ele>491.2</ele>
        <time>2021-03-21T07:47:54Z</time>
      </trkpt>
      <trkpt lat="42.95616" lon="2.51835">
        <ele>491.6</ele>
        <time>2021-03-21T07:47:56Z</time>
      </trkpt>
      <trkpt lat="42.95617" lon="2.51842">
        <ele>491.8</ele>
        <time>2021-03-21T07:47:57Z</time>
      </trkpt>
      <trkpt lat="42.95619" lon="2.51851">
        <ele>492.3</ele>
        <time>2021-03-21T07:47:59Z</time>
      </trkpt>
      <trkpt lat="42.95621" lon="2.51858">
        <ele>492.6</ele>
        <time>2021-03-21T07:48:01Z</time>
      </trkpt>
      <trkpt lat="42.95623" lon="2.51864">
        <ele>492.8</ele>
        <time>2021-03-21T07:48:02Z</time>
      </trkpt>
      <trkpt lat="42.95626" lon="2.51872">
        <ele>493.2</ele>
        <time>2021-03-21T07:48:03Z</time>
      </trkpt>
      <trkpt lat="42.95628" lon="2.51876">
        <ele>493.4</ele>
        <time>2021-03-21T07:48:04Z</time>
      </trkpt>
      <trkpt lat="42.95633" lon="2.51886">
        <ele>493.9</ele>
        <time>2021-03-21T07:48:06Z</time>
      </trkpt>
      <trkpt lat="42.95637" lon="2.51893">
        <ele>494.3</ele>
        <time>2021-03-21T07:48:08Z</time>
      </trkpt>
      <trkpt lat="42.9564" lon="2.51898">
        <ele>494.6</ele>
        <time>2021-03-21T07:48:09Z</time>
      </trkpt>
      <trkpt lat="42.95642" lon="2.51902">
        <ele>494.8</ele>
        <time>2021-03-21T07:48:10Z</time>
      </trkpt>
      <trkpt lat="42.95644" lon="2.51908">
        <ele>495.1</ele>
        <time>2021-03-21T07:48:11Z</time>
      </trkpt>
      <trkpt lat="42.95646" lon="2.51914">
        <ele>495.4</ele>
        <time>2021-03-21T07:48:13Z</time>
      </trkpt>
      <trkpt lat="42.95647" lon="2.51919">
        <ele>495.6</ele>
        <time>2021-03-21T07:48:14Z</time>
      </trkpt>
      <trkpt lat="42.95648" lon="2.51928">
        <ele>496</ele>
        <time>2021-03-21T07:48:15Z</time>
      </trkpt>
      <trkpt lat="42.95648" lon="2.51933">
        <ele>496.2</ele>
        <time>2021-03-21T07:48:16Z</time>
      </trkpt>
      <trkpt lat="42.95648" lon="2.5194">
        <ele>496.5</ele>
        <time>2021-03-21T07:48:17Z</time>
      </trkpt>
      <trkpt lat="42.95648" lon="2.51948">
        <ele>496.8</ele>
        <time>2021-03-21T07:48:19Z</time>
      </trkpt>
      <trkpt lat="42.95647" lon="2.51954">
        <ele>497.1</ele>
        <time>2021-03-21T07:48:20Z</time>
      </trkpt>
      <trkpt lat="42.95646" lon="2.5196">
        <ele>497.3</ele>
        <time>2021-03-21T07:48:21Z</time>
      </trkpt>
      <trkpt lat="42.95646" lon="2.5197">
        <ele>497.5</ele>
        <time>2021-03-21T07:48:23Z</time>
      </trkpt>
      <trkpt lat="42.95646" lon="2.5198">
        <ele>497.6</ele>
        <time>2021-03-21T07:48:25Z</time>
      </trkpt>
      <trkpt lat="42.95646" lon="2.51988">
        <ele>497.7</ele>
        <time>2021-03-21T07:48:26Z</time>
      </trkpt>
      <trkpt lat="42.95646" lon="2.51996">
        <ele>497.9</ele>
        <time>2021-03-21T07:48:28Z</time>
      </trkpt>
      <trkpt lat="42.95646" lon="2.52009">
        <ele>498.4</ele>
        <time>2021-03-21T07:48:30Z</time>
      </trkpt>
      <trkpt lat="42.95647" lon="2.52019">
        <ele>498.9</ele>
        <time>2021-03-21T07:48:32Z</time>
      </trkpt>
      <trkpt lat="42.95649" lon="2.52026">
        <ele>499.2</ele>
        <time>2021-03-21T07:48:34Z</time>
      </trkpt>
      <trkpt lat="42.9565" lon="2.52034">
        <ele>499.5</ele>
        <time>2021-03-21T07:48:35Z</time>
      </trkpt>
      <trkpt lat="42.95651" lon="2.5204">
        <ele>499.7</ele>
        <time>2021-03-21T07:48:36Z</time>
      </trkpt>
      <trkpt lat="42.95652" lon="2.52049">
        <ele>500.1</ele>
        <time>2021-03-21T07:48:38Z</time>
      </trkpt>
      <trkpt lat="42.95653" lon="2.52055">
        <ele>500.4</ele>
        <time>2021-03-21T07:48:39Z</time>
      </trkpt>
      <trkpt lat="42.95654" lon="2.52061">
        <ele>500.7</ele>
        <time>2021-03-21T07:48:40Z</time>
      </trkpt>
      <trkpt lat="42.95655" lon="2.5207">
        <ele>501</ele>
        <time>2021-03-21T07:48:42Z</time>
      </trkpt>
      <trkpt lat="42.95656" lon="2.52076">
        <ele>501.3</ele>
        <time>2021-03-21T07:48:43Z</time>
      </trkpt>
      <trkpt lat="42.95658" lon="2.52085">
        <ele>501.7</ele>
        <time>2021-03-21T07:48:45Z</time>
      </trkpt>
      <trkpt lat="42.9566" lon="2.52092">
        <ele>501.9</ele>
        <time>2021-03-21T07:48:46Z</time>
      </trkpt>
      <trkpt lat="42.9566" lon="2.52097">
        <ele>502.2</ele>
        <time>2021-03-21T07:48:47Z</time>
      </trkpt>
      <trkpt lat="42.95662" lon="2.52105">
        <ele>502.5</ele>
        <time>2021-03-21T07:48:49Z</time>
      </trkpt>
      <trkpt lat="42.95663" lon="2.52112">
        <ele>502.8</ele>
        <time>2021-03-21T07:48:50Z</time>
      </trkpt>
      <trkpt lat="42.95664" lon="2.52117">
        <ele>503</ele>
        <time>2021-03-21T07:48:51Z</time>
      </trkpt>
      <trkpt lat="42.95666" lon="2.52128">
        <ele>503.4</ele>
        <time>2021-03-21T07:48:53Z</time>
      </trkpt>
      <trkpt lat="42.95666" lon="2.52132">
        <ele>503.6</ele>
        <time>2021-03-21T07:48:54Z</time>
      </trkpt>
      <trkpt lat="42.95668" lon="2.5214">
        <ele>503.9</ele>
        <time>2021-03-21T07:48:56Z</time>
      </trkpt>
      <trkpt lat="42.95669" lon="2.52147">
        <ele>504.2</ele>
        <time>2021-03-21T07:48:57Z</time>
      </trkpt>
      <trkpt lat="42.95671" lon="2.52158">
        <ele>504.7</ele>
        <time>2021-03-21T07:48:59Z</time>
      </trkpt>
      <trkpt lat="42.95673" lon="2.52167">
        <ele>505.1</ele>
        <time>2021-03-21T07:49:01Z</time>
      </trkpt>
      <trkpt lat="42.95674" lon="2.52173">
        <ele>505.3</ele>
        <time>2021-03-21T07:49:02Z</time>
      </trkpt>
      <trkpt lat="42.95677" lon="2.52181">
        <ele>505.7</ele>
        <time>2021-03-21T07:49:04Z</time>
      </trkpt>
      <trkpt lat="42.95679" lon="2.52188">
        <ele>506</ele>
        <time>2021-03-21T07:49:05Z</time>
      </trkpt>
      <trkpt lat="42.95684" lon="2.52196">
        <ele>506.4</ele>
        <time>2021-03-21T07:49:07Z</time>
      </trkpt>
      <trkpt lat="42.95686" lon="2.52201">
        <ele>506.6</ele>
        <time>2021-03-21T07:49:08Z</time>
      </trkpt>
      <trkpt lat="42.9569" lon="2.52205">
        <ele>506.9</ele>
        <time>2021-03-21T07:49:09Z</time>
      </trkpt>
      <trkpt lat="42.95694" lon="2.52211">
        <ele>507.2</ele>
        <time>2021-03-21T07:49:11Z</time>
      </trkpt>
      <trkpt lat="42.95697" lon="2.52215">
        <ele>507.4</ele>
        <time>2021-03-21T07:49:12Z</time>
      </trkpt>
      <trkpt lat="42.957" lon="2.52219">
        <ele>507.7</ele>
        <time>2021-03-21T07:49:13Z</time>
      </trkpt>
      <trkpt lat="42.95703" lon="2.52223">
        <ele>507.9</ele>
        <time>2021-03-21T07:49:14Z</time>
      </trkpt>
      <trkpt lat="42.95707" lon="2.52231">
        <ele>508.3</ele>
        <time>2021-03-21T07:49:16Z</time>
      </trkpt>
      <trkpt lat="42.95709" lon="2.52238">
        <ele>508.6</ele>
        <time>2021-03-21T07:49:17Z</time>
      </trkpt>
      <trkpt lat="42.95711" lon="2.52244">
        <ele>508.9</ele>
        <time>2021-03-21T07:49:18Z</time>
      </trkpt>
      <trkpt lat="42.95712" lon="2.52249">
        <ele>509.1</ele>
        <time>2021-03-21T07:49:19Z</time>
      </trkpt>
      <trkpt lat="42.95712" lon="2.52259">
        <ele>509.5</ele>
        <time>2021-03-21T07:49:21Z</time>
      </trkpt>
      <trkpt lat="42.95713" lon="2.52265">
        <ele>509.8</ele>
        <time>2021-03-21T07:49:22Z</time>
      </trkpt>
      <trkpt lat="42.95714" lon="2.52271">
        <ele>510</ele>
        <time>2021-03-21T07:49:23Z</time>
      </trkpt>
      <trkpt lat="42.95714" lon="2.52278">
        <ele>510.3</ele>
        <time>2021-03-21T07:49:24Z</time>
      </trkpt>
      <trkpt lat="42.95716" lon="2.52289">
        <ele>510.8</ele>
        <time>2021-03-21T07:49:26Z</time>
      </trkpt>
      <trkpt lat="42.95717" lon="2.52294">
        <ele>511</ele>
        <time>2021-03-21T07:49:27Z</time>
      </trkpt>
      <trkpt lat="42.95718" lon="2.52302">
        <ele>511.4</ele>
        <time>2021-03-21T07:49:29Z</time>
      </trkpt>
      <trkpt lat="42.9572" lon="2.52309">
        <ele>511.7</ele>
        <time>2021-03-21T07:49:30Z</time>
      </trkpt>
      <trkpt lat="42.95721" lon="2.52318">
        <ele>512</ele>
        <time>2021-03-21T07:49:32Z</time>
      </trkpt>
      <trkpt lat="42.95722" lon="2.52324">
        <ele>512.3</ele>
        <time>2021-03-21T07:49:33Z</time>
      </trkpt>
      <trkpt lat="42.95724" lon="2.52331">
        <ele>512.6</ele>
        <time>2021-03-21T07:49:34Z</time>
      </trkpt>
      <trkpt lat="42.95724" lon="2.52336">
        <ele>512.8</ele>
        <time>2021-03-21T07:49:35Z</time>
      </trkpt>
      <trkpt lat="42.95725" lon="2.52341">
        <ele>513</ele>
        <time>2021-03-21T07:49:36Z</time>
      </trkpt>
      <trkpt lat="42.95726" lon="2.52351">
        <ele>513.3</ele>
        <time>2021-03-21T07:49:38Z</time>
      </trkpt>
      <trkpt lat="42.95726" lon="2.52357">
        <ele>513.6</ele>
        <time>2021-03-21T07:49:39Z</time>
      </trkpt>
      <trkpt lat="42.95726" lon="2.52363">
        <ele>513.8</ele>
        <time>2021-03-21T07:49:40Z</time>
      </trkpt>
      <trkpt lat="42.95727" lon="2.52371">
        <ele>514.1</ele>
        <time>2021-03-21T07:49:42Z</time>
      </trkpt>
      <trkpt lat="42.95726" lon="2.52377">
        <ele>514.4</ele>
        <time>2021-03-21T07:49:43Z</time>
      </trkpt>
      <trkpt lat="42.95726" lon="2.52384">
        <ele>514.7</ele>
        <time>2021-03-21T07:49:44Z</time>
      </trkpt>
      <trkpt lat="42.95726" lon="2.52393">
        <ele>515</ele>
        <time>2021-03-21T07:49:46Z</time>
      </trkpt>
      <trkpt lat="42.95726" lon="2.524">
        <ele>515.3</ele>
        <time>2021-03-21T07:49:47Z</time>
      </trkpt>
      <trkpt lat="42.95726" lon="2.5241">
        <ele>515.8</ele>
        <time>2021-03-21T07:49:49Z</time>
      </trkpt>
      <trkpt lat="42.95726" lon="2.52421">
        <ele>516.2</ele>
        <time>2021-03-21T07:49:51Z</time>
      </trkpt>
      <trkpt lat="42.95727" lon="2.52432">
        <ele>516.7</ele>
        <time>2021-03-21T07:49:53Z</time>
      </trkpt>
      <trkpt lat="42.95729" lon="2.5244">
        <ele>517.1</ele>
        <time>2021-03-21T07:49:55Z</time>
      </trkpt>
      <trkpt lat="42.95731" lon="2.52448">
        <ele>517.4</ele>
        <time>2021-03-21T07:49:56Z</time>
      </trkpt>
      <trkpt lat="42.95736" lon="2.52457">
        <ele>517.9</ele>
        <time>2021-03-21T07:49:58Z</time>
      </trkpt>
      <trkpt lat="42.95738" lon="2.52462">
        <ele>518.1</ele>
        <time>2021-03-21T07:49:59Z</time>
      </trkpt>
      <trkpt lat="42.95743" lon="2.5247">
        <ele>518.5</ele>
        <time>2021-03-21T07:50:01Z</time>
      </trkpt>
      <trkpt lat="42.95748" lon="2.52479">
        <ele>519</ele>
        <time>2021-03-21T07:50:03Z</time>
      </trkpt>
      <trkpt lat="42.95751" lon="2.52483">
        <ele>519.2</ele>
        <time>2021-03-21T07:50:04Z</time>
      </trkpt>
      <trkpt lat="42.95754" lon="2.52488">
        <ele>519.4</ele>
        <time>2021-03-21T07:50:05Z</time>
      </trkpt>
      <trkpt lat="42.95758" lon="2.52497">
        <ele>519.9</ele>
        <time>2021-03-21T07:50:07Z</time>
      </trkpt>
      <trkpt lat="42.95761" lon="2.52502">
        <ele>520.1</ele>
        <time>2021-03-21T07:50:08Z</time>
      </trkpt>
      <trkpt lat="42.95763" lon="2.52506">
        <ele>520.4</ele>
        <time>2021-03-21T07:50:09Z</time>
      </trkpt>
      <trkpt lat="42.95766" lon="2.52513">
        <ele>520.7</ele>
        <time>2021-03-21T07:50:11Z</time>
      </trkpt>
      <trkpt lat="42.95769" lon="2.5252">
        <ele>521.1</ele>
        <time>2021-03-21T07:50:12Z</time>
      </trkpt>
      <trkpt lat="42.95771" lon="2.52526">
        <ele>521.3</ele>
        <time>2021-03-21T07:50:13Z</time>
      </trkpt>
      <trkpt lat="42.95773" lon="2.52531">
        <ele>521.6</ele>
        <time>2021-03-21T07:50:14Z</time>
      </trkpt>
      <trkpt lat="42.95776" lon="2.52538">
        <ele>521.9</ele>
        <time>2021-03-21T07:50:16Z</time>
      </trkpt>
      <trkpt lat="42.95779" lon="2.52544">
        <ele>522.3</ele>
        <time>2021-03-21T07:50:17Z</time>
      </trkpt>
      <trkpt lat="42.95783" lon="2.52549">
        <ele>522.5</ele>
        <time>2021-03-21T07:50:18Z</time>
      </trkpt>
      <trkpt lat="42.95785" lon="2.52553">
        <ele>522.8</ele>
        <time>2021-03-21T07:50:19Z</time>
      </trkpt>
      <trkpt lat="42.9579" lon="2.52559">
        <ele>523.1</ele>
        <time>2021-03-21T07:50:21Z</time>
      </trkpt>
      <trkpt lat="42.95794" lon="2.52564">
        <ele>523.4</ele>
        <time>2021-03-21T07:50:22Z</time>
      </trkpt>
      <trkpt lat="42.95798" lon="2.52568">
        <ele>523.7</ele>
        <time>2021-03-21T07:50:23Z</time>
      </trkpt>
      <trkpt lat="42.95801" lon="2.52571">
        <ele>524</ele>
        <time>2021-03-21T07:50:24Z</time>
      </trkpt>
      <trkpt lat="42.95806" lon="2.52576">
        <ele>524.3</ele>
        <time>2021-03-21T07:50:26Z</time>
      </trkpt>
      <trkpt lat="42.9581" lon="2.52579">
        <ele>524.6</ele>
        <time>2021-03-21T07:50:27Z</time>
      </trkpt>
      <trkpt lat="42.95815" lon="2.52584">
        <ele>524.9</ele>
        <time>2021-03-21T07:50:28Z</time>
      </trkpt>
      <trkpt lat="42.95819" lon="2.52588">
        <ele>525.2</ele>
        <time>2021-03-21T07:50:30Z</time>
      </trkpt>
      <trkpt lat="42.95823" lon="2.52594">
        <ele>525.5</ele>
        <time>2021-03-21T07:50:31Z</time>
      </trkpt>
      <trkpt lat="42.95827" lon="2.52601">
        <ele>526</ele>
        <time>2021-03-21T07:50:33Z</time>
      </trkpt>
      <trkpt lat="42.95829" lon="2.52607">
        <ele>526.3</ele>
        <time>2021-03-21T07:50:34Z</time>
      </trkpt>
      <trkpt lat="42.9583" lon="2.52612">
        <ele>526.5</ele>
        <time>2021-03-21T07:50:35Z</time>
      </trkpt>
      <trkpt lat="42.95831" lon="2.52619">
        <ele>526.9</ele>
        <time>2021-03-21T07:50:37Z</time>
      </trkpt>
      <trkpt lat="42.9583" lon="2.52625">
        <ele>527.2</ele>
        <time>2021-03-21T07:50:38Z</time>
      </trkpt>
      <trkpt lat="42.9583" lon="2.52633">
        <ele>527.5</ele>
        <time>2021-03-21T07:50:39Z</time>
      </trkpt>
      <trkpt lat="42.95829" lon="2.52638">
        <ele>527.8</ele>
        <time>2021-03-21T07:50:40Z</time>
      </trkpt>
      <trkpt lat="42.95829" lon="2.52645">
        <ele>528.1</ele>
        <time>2021-03-21T07:50:41Z</time>
      </trkpt>
      <trkpt lat="42.95829" lon="2.5265">
        <ele>528.3</ele>
        <time>2021-03-21T07:50:42Z</time>
      </trkpt>
      <trkpt lat="42.9583" lon="2.5266">
        <ele>528.8</ele>
        <time>2021-03-21T07:50:44Z</time>
      </trkpt>
      <trkpt lat="42.95832" lon="2.52666">
        <ele>529.1</ele>
        <time>2021-03-21T07:50:45Z</time>
      </trkpt>
      <trkpt lat="42.95834" lon="2.52672">
        <ele>529.4</ele>
        <time>2021-03-21T07:50:46Z</time>
      </trkpt>
      <trkpt lat="42.95837" lon="2.52678">
        <ele>529.7</ele>
        <time>2021-03-21T07:50:48Z</time>
      </trkpt>
      <trkpt lat="42.95841" lon="2.52686">
        <ele>530.2</ele>
        <time>2021-03-21T07:50:49Z</time>
      </trkpt>
      <trkpt lat="42.95846" lon="2.52692">
        <ele>530.6</ele>
        <time>2021-03-21T07:50:51Z</time>
      </trkpt>
      <trkpt lat="42.95851" lon="2.52697">
        <ele>530.9</ele>
        <time>2021-03-21T07:50:52Z</time>
      </trkpt>
      <trkpt lat="42.95854" lon="2.527">
        <ele>531.2</ele>
        <time>2021-03-21T07:50:53Z</time>
      </trkpt>
      <trkpt lat="42.95861" lon="2.52704">
        <ele>531.6</ele>
        <time>2021-03-21T07:50:55Z</time>
      </trkpt>
      <trkpt lat="42.95865" lon="2.52705">
        <ele>531.9</ele>
        <time>2021-03-21T07:50:56Z</time>
      </trkpt>
      <trkpt lat="42.95872" lon="2.52706">
        <ele>532.2</ele>
        <time>2021-03-21T07:50:58Z</time>
      </trkpt>
      <trkpt lat="42.95876" lon="2.52707">
        <ele>532.5</ele>
        <time>2021-03-21T07:50:59Z</time>
      </trkpt>
      <trkpt lat="42.95881" lon="2.52708">
        <ele>532.8</ele>
        <time>2021-03-21T07:51:00Z</time>
      </trkpt>
      <trkpt lat="42.95887" lon="2.5271">
        <ele>533.1</ele>
        <time>2021-03-21T07:51:02Z</time>
      </trkpt>
      <trkpt lat="42.95891" lon="2.52713">
        <ele>533.5</ele>
        <time>2021-03-21T07:51:03Z</time>
      </trkpt>
      <trkpt lat="42.95896" lon="2.52715">
        <ele>533.7</ele>
        <time>2021-03-21T07:51:04Z</time>
      </trkpt>
      <trkpt lat="42.959" lon="2.52717">
        <ele>534</ele>
        <time>2021-03-21T07:51:05Z</time>
      </trkpt>
      <trkpt lat="42.95903" lon="2.52719">
        <ele>534.2</ele>
        <time>2021-03-21T07:51:06Z</time>
      </trkpt>
      <trkpt lat="42.95909" lon="2.52721">
        <ele>534.5</ele>
        <time>2021-03-21T07:51:08Z</time>
      </trkpt>
      <trkpt lat="42.95914" lon="2.52726">
        <ele>534.8</ele>
        <time>2021-03-21T07:51:09Z</time>
      </trkpt>
      <trkpt lat="42.95919" lon="2.52732">
        <ele>535.2</ele>
        <time>2021-03-21T07:51:11Z</time>
      </trkpt>
      <trkpt lat="42.95923" lon="2.52736">
        <ele>535.5</ele>
        <time>2021-03-21T07:51:12Z</time>
      </trkpt>
      <trkpt lat="42.95929" lon="2.52744">
        <ele>536</ele>
        <time>2021-03-21T07:51:14Z</time>
      </trkpt>
      <trkpt lat="42.95932" lon="2.52749">
        <ele>536.3</ele>
        <time>2021-03-21T07:51:15Z</time>
      </trkpt>
      <trkpt lat="42.95937" lon="2.52755">
        <ele>536.7</ele>
        <time>2021-03-21T07:51:17Z</time>
      </trkpt>
      <trkpt lat="42.95941" lon="2.52764">
        <ele>537.1</ele>
        <time>2021-03-21T07:51:19Z</time>
      </trkpt>
      <trkpt lat="42.95944" lon="2.5277">
        <ele>537.4</ele>
        <time>2021-03-21T07:51:20Z</time>
      </trkpt>
      <trkpt lat="42.95948" lon="2.52778">
        <ele>537.8</ele>
        <time>2021-03-21T07:51:22Z</time>
      </trkpt>
      <trkpt lat="42.95951" lon="2.52783">
        <ele>538</ele>
        <time>2021-03-21T07:51:23Z</time>
      </trkpt>
      <trkpt lat="42.95953" lon="2.52788">
        <ele>538.2</ele>
        <time>2021-03-21T07:51:24Z</time>
      </trkpt>
      <trkpt lat="42.95956" lon="2.52793">
        <ele>538.4</ele>
        <time>2021-03-21T07:51:25Z</time>
      </trkpt>
      <trkpt lat="42.95958" lon="2.52797">
        <ele>538.5</ele>
        <time>2021-03-21T07:51:26Z</time>
      </trkpt>
      <trkpt lat="42.95961" lon="2.52802">
        <ele>538.7</ele>
        <time>2021-03-21T07:51:27Z</time>
      </trkpt>
      <trkpt lat="42.95965" lon="2.52809">
        <ele>538.8</ele>
        <time>2021-03-21T07:51:29Z</time>
      </trkpt>
      <trkpt lat="42.95969" lon="2.52815">
        <ele>538.9</ele>
        <time>2021-03-21T07:51:30Z</time>
      </trkpt>
      <trkpt lat="42.95971" lon="2.52821">
        <ele>538.9</ele>
        <time>2021-03-21T07:51:31Z</time>
      </trkpt>
      <trkpt lat="42.95976" lon="2.52832">
        <ele>539</ele>
        <time>2021-03-21T07:51:33Z</time>
      </trkpt>
      <trkpt lat="42.95979" lon="2.52837">
        <ele>539.1</ele>
        <time>2021-03-21T07:51:34Z</time>
      </trkpt>
      <trkpt lat="42.95981" lon="2.52842">
        <ele>539.1</ele>
        <time>2021-03-21T07:51:35Z</time>
      </trkpt>
      <trkpt lat="42.95986" lon="2.52853">
        <ele>539.1</ele>
        <time>2021-03-21T07:51:37Z</time>
      </trkpt>
      <trkpt lat="42.95991" lon="2.52865">
        <ele>539.1</ele>
        <time>2021-03-21T07:51:39Z</time>
      </trkpt>
      <trkpt lat="42.95995" lon="2.52877">
        <ele>539.1</ele>
        <time>2021-03-21T07:51:41Z</time>
      </trkpt>
      <trkpt lat="42.95997" lon="2.52884">
        <ele>539.1</ele>
        <time>2021-03-21T07:51:42Z</time>
      </trkpt>
      <trkpt lat="42.95999" lon="2.52897">
        <ele>539</ele>
        <time>2021-03-21T07:51:44Z</time>
      </trkpt>
      <trkpt lat="42.96" lon="2.52904">
        <ele>538.9</ele>
        <time>2021-03-21T07:51:45Z</time>
      </trkpt>
      <trkpt lat="42.96" lon="2.52918">
        <ele>538.7</ele>
        <time>2021-03-21T07:51:47Z</time>
      </trkpt>
      <trkpt lat="42.96" lon="2.52932">
        <ele>538.5</ele>
        <time>2021-03-21T07:51:49Z</time>
      </trkpt>
      <trkpt lat="42.96001" lon="2.52947">
        <ele>538.4</ele>
        <time>2021-03-21T07:51:51Z</time>
      </trkpt>
      <trkpt lat="42.96001" lon="2.52956">
        <ele>538.3</ele>
        <time>2021-03-21T07:51:52Z</time>
      </trkpt>
      <trkpt lat="42.96002" lon="2.52974">
        <ele>538</ele>
        <time>2021-03-21T07:51:54Z</time>
      </trkpt>
      <trkpt lat="42.96003" lon="2.52983">
        <ele>537.8</ele>
        <time>2021-03-21T07:51:55Z</time>
      </trkpt>
      <trkpt lat="42.96004" lon="2.53002">
        <ele>537.5</ele>
        <time>2021-03-21T07:51:57Z</time>
      </trkpt>
      <trkpt lat="42.96005" lon="2.53012">
        <ele>537.4</ele>
        <time>2021-03-21T07:51:58Z</time>
      </trkpt>
      <trkpt lat="42.96005" lon="2.53021">
        <ele>537.2</ele>
        <time>2021-03-21T07:51:59Z</time>
      </trkpt>
      <trkpt lat="42.96005" lon="2.53041">
        <ele>536.9</ele>
        <time>2021-03-21T07:52:01Z</time>
      </trkpt>
      <trkpt lat="42.96005" lon="2.53051">
        <ele>536.8</ele>
        <time>2021-03-21T07:52:02Z</time>
      </trkpt>
      <trkpt lat="42.96006" lon="2.53071">
        <ele>536.5</ele>
        <time>2021-03-21T07:52:04Z</time>
      </trkpt>
      <trkpt lat="42.96006" lon="2.53091">
        <ele>536.4</ele>
        <time>2021-03-21T07:52:06Z</time>
      </trkpt>
      <trkpt lat="42.96007" lon="2.53101">
        <ele>536.3</ele>
        <time>2021-03-21T07:52:07Z</time>
      </trkpt>
      <trkpt lat="42.96008" lon="2.53119">
        <ele>536.3</ele>
        <time>2021-03-21T07:52:09Z</time>
      </trkpt>
      <trkpt lat="42.96009" lon="2.53137">
        <ele>536.3</ele>
        <time>2021-03-21T07:52:11Z</time>
      </trkpt>
      <trkpt lat="42.96009" lon="2.53146">
        <ele>536.4</ele>
        <time>2021-03-21T07:52:12Z</time>
      </trkpt>
      <trkpt lat="42.9601" lon="2.53155">
        <ele>536.5</ele>
        <time>2021-03-21T07:52:13Z</time>
      </trkpt>
      <trkpt lat="42.9601" lon="2.53172">
        <ele>536.7</ele>
        <time>2021-03-21T07:52:15Z</time>
      </trkpt>
      <trkpt lat="42.96011" lon="2.53181">
        <ele>536.8</ele>
        <time>2021-03-21T07:52:16Z</time>
      </trkpt>
      <trkpt lat="42.96012" lon="2.53198">
        <ele>537</ele>
        <time>2021-03-21T07:52:18Z</time>
      </trkpt>
      <trkpt lat="42.96013" lon="2.53215">
        <ele>537.3</ele>
        <time>2021-03-21T07:52:20Z</time>
      </trkpt>
      <trkpt lat="42.96013" lon="2.53224">
        <ele>537.4</ele>
        <time>2021-03-21T07:52:21Z</time>
      </trkpt>
      <trkpt lat="42.96014" lon="2.53241">
        <ele>537.8</ele>
        <time>2021-03-21T07:52:23Z</time>
      </trkpt>
      <trkpt lat="42.96014" lon="2.5325">
        <ele>538</ele>
        <time>2021-03-21T07:52:24Z</time>
      </trkpt>
      <trkpt lat="42.96015" lon="2.53258">
        <ele>538.2</ele>
        <time>2021-03-21T07:52:25Z</time>
      </trkpt>
      <trkpt lat="42.96016" lon="2.53267">
        <ele>538.4</ele>
        <time>2021-03-21T07:52:26Z</time>
      </trkpt>
      <trkpt lat="42.96016" lon="2.53275">
        <ele>538.6</ele>
        <time>2021-03-21T07:52:27Z</time>
      </trkpt>
      <trkpt lat="42.96016" lon="2.53284">
        <ele>538.8</ele>
        <time>2021-03-21T07:52:28Z</time>
      </trkpt>
      <trkpt lat="42.96016" lon="2.53292">
        <ele>539</ele>
        <time>2021-03-21T07:52:29Z</time>
      </trkpt>
      <trkpt lat="42.96017" lon="2.53301">
        <ele>539.3</ele>
        <time>2021-03-21T07:52:30Z</time>
      </trkpt>
      <trkpt lat="42.96017" lon="2.53317">
        <ele>539.8</ele>
        <time>2021-03-21T07:52:32Z</time>
      </trkpt>
      <trkpt lat="42.96018" lon="2.53325">
        <ele>540.1</ele>
        <time>2021-03-21T07:52:33Z</time>
      </trkpt>
      <trkpt lat="42.96018" lon="2.5334">
        <ele>540.6</ele>
        <time>2021-03-21T07:52:35Z</time>
      </trkpt>
      <trkpt lat="42.96019" lon="2.53348">
        <ele>540.8</ele>
        <time>2021-03-21T07:52:36Z</time>
      </trkpt>
      <trkpt lat="42.96019" lon="2.53363">
        <ele>541.4</ele>
        <time>2021-03-21T07:52:38Z</time>
      </trkpt>
      <trkpt lat="42.9602" lon="2.53377">
        <ele>541.9</ele>
        <time>2021-03-21T07:52:40Z</time>
      </trkpt>
      <trkpt lat="42.9602" lon="2.53393">
        <ele>542.5</ele>
        <time>2021-03-21T07:52:42Z</time>
      </trkpt>
      <trkpt lat="42.96021" lon="2.53401">
        <ele>542.8</ele>
        <time>2021-03-21T07:52:43Z</time>
      </trkpt>
      <trkpt lat="42.96021" lon="2.53416">
        <ele>543.4</ele>
        <time>2021-03-21T07:52:45Z</time>
      </trkpt>
      <trkpt lat="42.96022" lon="2.53431">
        <ele>543.9</ele>
        <time>2021-03-21T07:52:47Z</time>
      </trkpt>
      <trkpt lat="42.96022" lon="2.53439">
        <ele>544.2</ele>
        <time>2021-03-21T07:52:48Z</time>
      </trkpt>
      <trkpt lat="42.96023" lon="2.53453">
        <ele>544.7</ele>
        <time>2021-03-21T07:52:50Z</time>
      </trkpt>
      <trkpt lat="42.96023" lon="2.5346">
        <ele>545</ele>
        <time>2021-03-21T07:52:51Z</time>
      </trkpt>
      <trkpt lat="42.96024" lon="2.53475">
        <ele>545.5</ele>
        <time>2021-03-21T07:52:53Z</time>
      </trkpt>
      <trkpt lat="42.96025" lon="2.5349">
        <ele>546.1</ele>
        <time>2021-03-21T07:52:55Z</time>
      </trkpt>
      <trkpt lat="42.96025" lon="2.53497">
        <ele>546.3</ele>
        <time>2021-03-21T07:52:56Z</time>
      </trkpt>
      <trkpt lat="42.96026" lon="2.5351">
        <ele>546.8</ele>
        <time>2021-03-21T07:52:58Z</time>
      </trkpt>
      <trkpt lat="42.96026" lon="2.53517">
        <ele>547</ele>
        <time>2021-03-21T07:52:59Z</time>
      </trkpt>
      <trkpt lat="42.96026" lon="2.53531">
        <ele>547.5</ele>
        <time>2021-03-21T07:53:01Z</time>
      </trkpt>
      <trkpt lat="42.96026" lon="2.53538">
        <ele>547.8</ele>
        <time>2021-03-21T07:53:02Z</time>
      </trkpt>
      <trkpt lat="42.96027" lon="2.53545">
        <ele>548</ele>
        <time>2021-03-21T07:53:03Z</time>
      </trkpt>
      <trkpt lat="42.96027" lon="2.53559">
        <ele>548.5</ele>
        <time>2021-03-21T07:53:05Z</time>
      </trkpt>
      <trkpt lat="42.96027" lon="2.53566">
        <ele>548.8</ele>
        <time>2021-03-21T07:53:06Z</time>
      </trkpt>
      <trkpt lat="42.96027" lon="2.53574">
        <ele>549</ele>
        <time>2021-03-21T07:53:07Z</time>
      </trkpt>
      <trkpt lat="42.96028" lon="2.53588">
        <ele>549.6</ele>
        <time>2021-03-21T07:53:09Z</time>
      </trkpt>
      <trkpt lat="42.96028" lon="2.53595">
        <ele>549.8</ele>
        <time>2021-03-21T07:53:10Z</time>
      </trkpt>
      <trkpt lat="42.96029" lon="2.53609">
        <ele>550.4</ele>
        <time>2021-03-21T07:53:12Z</time>
      </trkpt>
      <trkpt lat="42.96029" lon="2.53616">
        <ele>550.7</ele>
        <time>2021-03-21T07:53:13Z</time>
      </trkpt>
      <trkpt lat="42.96029" lon="2.53623">
        <ele>550.9</ele>
        <time>2021-03-21T07:53:14Z</time>
      </trkpt>
      <trkpt lat="42.9603" lon="2.5363">
        <ele>551.2</ele>
        <time>2021-03-21T07:53:15Z</time>
      </trkpt>
      <trkpt lat="42.9603" lon="2.53644">
        <ele>551.7</ele>
        <time>2021-03-21T07:53:17Z</time>
      </trkpt>
      <trkpt lat="42.9603" lon="2.53659">
        <ele>552.2</ele>
        <time>2021-03-21T07:53:19Z</time>
      </trkpt>
      <trkpt lat="42.96031" lon="2.53666">
        <ele>552.4</ele>
        <time>2021-03-21T07:53:20Z</time>
      </trkpt>
      <trkpt lat="42.96031" lon="2.53673">
        <ele>552.7</ele>
        <time>2021-03-21T07:53:21Z</time>
      </trkpt>
      <trkpt lat="42.96031" lon="2.53687">
        <ele>553.1</ele>
        <time>2021-03-21T07:53:23Z</time>
      </trkpt>
      <trkpt lat="42.96031" lon="2.53702">
        <ele>553.5</ele>
        <time>2021-03-21T07:53:25Z</time>
      </trkpt>
      <trkpt lat="42.96032" lon="2.53717">
        <ele>553.9</ele>
        <time>2021-03-21T07:53:27Z</time>
      </trkpt>
      <trkpt lat="42.96032" lon="2.53725">
        <ele>554.1</ele>
        <time>2021-03-21T07:53:28Z</time>
      </trkpt>
      <trkpt lat="42.96032" lon="2.5374">
        <ele>554.5</ele>
        <time>2021-03-21T07:53:30Z</time>
      </trkpt>
      <trkpt lat="42.96033" lon="2.53756">
        <ele>554.8</ele>
        <time>2021-03-21T07:53:32Z</time>
      </trkpt>
      <trkpt lat="42.96033" lon="2.53763">
        <ele>555</ele>
        <time>2021-03-21T07:53:33Z</time>
      </trkpt>
      <trkpt lat="42.96033" lon="2.53778">
        <ele>555.3</ele>
        <time>2021-03-21T07:53:35Z</time>
      </trkpt>
      <trkpt lat="42.96034" lon="2.53793">
        <ele>555.6</ele>
        <time>2021-03-21T07:53:37Z</time>
      </trkpt>
      <trkpt lat="42.96034" lon="2.538">
        <ele>555.8</ele>
        <time>2021-03-21T07:53:38Z</time>
      </trkpt>
      <trkpt lat="42.96034" lon="2.53815">
        <ele>556.1</ele>
        <time>2021-03-21T07:53:40Z</time>
      </trkpt>
      <trkpt lat="42.96035" lon="2.5383">
        <ele>556.4</ele>
        <time>2021-03-21T07:53:42Z</time>
      </trkpt>
      <trkpt lat="42.96035" lon="2.53846">
        <ele>556.7</ele>
        <time>2021-03-21T07:53:44Z</time>
      </trkpt>
      <trkpt lat="42.96036" lon="2.53853">
        <ele>556.9</ele>
        <time>2021-03-21T07:53:45Z</time>
      </trkpt>
      <trkpt lat="42.96036" lon="2.53868">
        <ele>557.2</ele>
        <time>2021-03-21T07:53:47Z</time>
      </trkpt>
      <trkpt lat="42.96037" lon="2.53883">
        <ele>557.6</ele>
        <time>2021-03-21T07:53:49Z</time>
      </trkpt>
      <trkpt lat="42.96037" lon="2.5389">
        <ele>557.8</ele>
        <time>2021-03-21T07:53:50Z</time>
      </trkpt>
      <trkpt lat="42.96038" lon="2.53905">
        <ele>558.1</ele>
        <time>2021-03-21T07:53:52Z</time>
      </trkpt>
      <trkpt lat="42.96039" lon="2.5392">
        <ele>558.5</ele>
        <time>2021-03-21T07:53:54Z</time>
      </trkpt>
      <trkpt lat="42.96039" lon="2.53927">
        <ele>558.7</ele>
        <time>2021-03-21T07:53:55Z</time>
      </trkpt>
      <trkpt lat="42.9604" lon="2.53941">
        <ele>559</ele>
        <time>2021-03-21T07:53:57Z</time>
      </trkpt>
      <trkpt lat="42.9604" lon="2.53949">
        <ele>559.2</ele>
        <time>2021-03-21T07:53:58Z</time>
      </trkpt>
      <trkpt lat="42.9604" lon="2.53956">
        <ele>559.4</ele>
        <time>2021-03-21T07:53:59Z</time>
      </trkpt>
      <trkpt lat="42.96041" lon="2.5397">
        <ele>559.7</ele>
        <time>2021-03-21T07:54:01Z</time>
      </trkpt>
      <trkpt lat="42.96042" lon="2.53985">
        <ele>560</ele>
        <time>2021-03-21T07:54:03Z</time>
      </trkpt>
      <trkpt lat="42.96042" lon="2.53999">
        <ele>560.4</ele>
        <time>2021-03-21T07:54:05Z</time>
      </trkpt>
      <trkpt lat="42.96042" lon="2.54014">
        <ele>560.7</ele>
        <time>2021-03-21T07:54:07Z</time>
      </trkpt>
      <trkpt lat="42.96043" lon="2.54022">
        <ele>560.9</ele>
        <time>2021-03-21T07:54:08Z</time>
      </trkpt>
      <trkpt lat="42.96043" lon="2.54037">
        <ele>561.2</ele>
        <time>2021-03-21T07:54:10Z</time>
      </trkpt>
      <trkpt lat="42.96043" lon="2.54044">
        <ele>561.4</ele>
        <time>2021-03-21T07:54:11Z</time>
      </trkpt>
      <trkpt lat="42.96043" lon="2.54052">
        <ele>561.6</ele>
        <time>2021-03-21T07:54:12Z</time>
      </trkpt>
      <trkpt lat="42.96044" lon="2.54067">
        <ele>562</ele>
        <time>2021-03-21T07:54:14Z</time>
      </trkpt>
      <trkpt lat="42.96043" lon="2.54075">
        <ele>562.2</ele>
        <time>2021-03-21T07:54:15Z</time>
      </trkpt>
      <trkpt lat="42.96044" lon="2.5409">
        <ele>562.6</ele>
        <time>2021-03-21T07:54:17Z</time>
      </trkpt>
      <trkpt lat="42.96044" lon="2.54098">
        <ele>562.7</ele>
        <time>2021-03-21T07:54:18Z</time>
      </trkpt>
      <trkpt lat="42.96045" lon="2.54113">
        <ele>562.8</ele>
        <time>2021-03-21T07:54:20Z</time>
      </trkpt>
      <trkpt lat="42.96045" lon="2.54121">
        <ele>562.9</ele>
        <time>2021-03-21T07:54:21Z</time>
      </trkpt>
      <trkpt lat="42.96045" lon="2.54129">
        <ele>563</ele>
        <time>2021-03-21T07:54:22Z</time>
      </trkpt>
      <trkpt lat="42.96045" lon="2.54144">
        <ele>563.3</ele>
        <time>2021-03-21T07:54:24Z</time>
      </trkpt>
      <trkpt lat="42.96045" lon="2.54159">
        <ele>563.6</ele>
        <time>2021-03-21T07:54:26Z</time>
      </trkpt>
      <trkpt lat="42.96045" lon="2.54175">
        <ele>563.9</ele>
        <time>2021-03-21T07:54:28Z</time>
      </trkpt>
      <trkpt lat="42.96045" lon="2.54191">
        <ele>564.1</ele>
        <time>2021-03-21T07:54:30Z</time>
      </trkpt>
      <trkpt lat="42.96045" lon="2.54207">
        <ele>564.2</ele>
        <time>2021-03-21T07:54:32Z</time>
      </trkpt>
      <trkpt lat="42.96045" lon="2.54216">
        <ele>564.3</ele>
        <time>2021-03-21T07:54:33Z</time>
      </trkpt>
      <trkpt lat="42.96045" lon="2.54233">
        <ele>564.3</ele>
        <time>2021-03-21T07:54:35Z</time>
      </trkpt>
      <trkpt lat="42.96045" lon="2.54241">
        <ele>564.2</ele>
        <time>2021-03-21T07:54:36Z</time>
      </trkpt>
      <trkpt lat="42.96045" lon="2.5425">
        <ele>564.2</ele>
        <time>2021-03-21T07:54:37Z</time>
      </trkpt>
      <trkpt lat="42.96045" lon="2.54258">
        <ele>564</ele>
        <time>2021-03-21T07:54:38Z</time>
      </trkpt>
      <trkpt lat="42.96045" lon="2.54276">
        <ele>563.7</ele>
        <time>2021-03-21T07:54:40Z</time>
      </trkpt>
      <trkpt lat="42.96044" lon="2.54284">
        <ele>563.5</ele>
        <time>2021-03-21T07:54:41Z</time>
      </trkpt>
      <trkpt lat="42.96044" lon="2.54293">
        <ele>563.2</ele>
        <time>2021-03-21T07:54:42Z</time>
      </trkpt>
      <trkpt lat="42.96044" lon="2.54313">
        <ele>562.6</ele>
        <time>2021-03-21T07:54:44Z</time>
      </trkpt>
      <trkpt lat="42.96043" lon="2.54336">
        <ele>561.7</ele>
        <time>2021-03-21T07:54:46Z</time>
      </trkpt>
      <trkpt lat="42.96042" lon="2.54349">
        <ele>561.2</ele>
        <time>2021-03-21T07:54:47Z</time>
      </trkpt>
      <trkpt lat="42.96042" lon="2.54362">
        <ele>560.6</ele>
        <time>2021-03-21T07:54:48Z</time>
      </trkpt>
      <trkpt lat="42.96042" lon="2.54389">
        <ele>559.4</ele>
        <time>2021-03-21T07:54:50Z</time>
      </trkpt>
      <trkpt lat="42.96042" lon="2.54403">
        <ele>558.8</ele>
        <time>2021-03-21T07:54:51Z</time>
      </trkpt>
      <trkpt lat="42.96041" lon="2.54432">
        <ele>557.5</ele>
        <time>2021-03-21T07:54:53Z</time>
      </trkpt>
      <trkpt lat="42.9604" lon="2.54463">
        <ele>556.1</ele>
        <time>2021-03-21T07:54:55Z</time>
      </trkpt>
      <trkpt lat="42.9604" lon="2.54479">
        <ele>555.4</ele>
        <time>2021-03-21T07:54:56Z</time>
      </trkpt>
      <trkpt lat="42.9604" lon="2.54496">
        <ele>554.6</ele>
        <time>2021-03-21T07:54:57Z</time>
      </trkpt>
      <trkpt lat="42.96041" lon="2.54513">
        <ele>553.8</ele>
        <time>2021-03-21T07:54:58Z</time>
      </trkpt>
      <trkpt lat="42.96043" lon="2.54547">
        <ele>552.2</ele>
        <time>2021-03-21T07:55:00Z</time>
      </trkpt>
      <trkpt lat="42.96048" lon="2.54583">
        <ele>550.6</ele>
        <time>2021-03-21T07:55:02Z</time>
      </trkpt>
      <trkpt lat="42.96051" lon="2.54601">
        <ele>549.8</ele>
        <time>2021-03-21T07:55:03Z</time>
      </trkpt>
      <trkpt lat="42.96055" lon="2.54619">
        <ele>548.9</ele>
        <time>2021-03-21T07:55:04Z</time>
      </trkpt>
      <trkpt lat="42.96064" lon="2.54654">
        <ele>547.1</ele>
        <time>2021-03-21T07:55:06Z</time>
      </trkpt>
      <trkpt lat="42.96069" lon="2.54673">
        <ele>546.2</ele>
        <time>2021-03-21T07:55:07Z</time>
      </trkpt>
      <trkpt lat="42.96074" lon="2.54691">
        <ele>545.4</ele>
        <time>2021-03-21T07:55:08Z</time>
      </trkpt>
      <trkpt lat="42.96079" lon="2.54709">
        <ele>544.6</ele>
        <time>2021-03-21T07:55:09Z</time>
      </trkpt>
      <trkpt lat="42.96091" lon="2.54743">
        <ele>542.9</ele>
        <time>2021-03-21T07:55:11Z</time>
      </trkpt>
      <trkpt lat="42.96098" lon="2.54759">
        <ele>542.1</ele>
        <time>2021-03-21T07:55:12Z</time>
      </trkpt>
      <trkpt lat="42.96107" lon="2.54774">
        <ele>541.3</ele>
        <time>2021-03-21T07:55:13Z</time>
      </trkpt>
      <trkpt lat="42.96116" lon="2.54789">
        <ele>540.5</ele>
        <time>2021-03-21T07:55:14Z</time>
      </trkpt>
      <trkpt lat="42.96132" lon="2.54819">
        <ele>538.9</ele>
        <time>2021-03-21T07:55:16Z</time>
      </trkpt>
      <trkpt lat="42.96143" lon="2.54853">
        <ele>537.2</ele>
        <time>2021-03-21T07:55:18Z</time>
      </trkpt>
      <trkpt lat="42.96147" lon="2.54872">
        <ele>536.3</ele>
        <time>2021-03-21T07:55:19Z</time>
      </trkpt>
      <trkpt lat="42.96154" lon="2.54909">
        <ele>534.9</ele>
        <time>2021-03-21T07:55:21Z</time>
      </trkpt>
      <trkpt lat="42.96158" lon="2.54928">
        <ele>534.2</ele>
        <time>2021-03-21T07:55:22Z</time>
      </trkpt>
      <trkpt lat="42.96163" lon="2.54966">
        <ele>532.8</ele>
        <time>2021-03-21T07:55:24Z</time>
      </trkpt>
      <trkpt lat="42.96166" lon="2.55004">
        <ele>531.6</ele>
        <time>2021-03-21T07:55:26Z</time>
      </trkpt>
      <trkpt lat="42.96169" lon="2.55024">
        <ele>530.9</ele>
        <time>2021-03-21T07:55:27Z</time>
      </trkpt>
      <trkpt lat="42.96173" lon="2.55042">
        <ele>530.2</ele>
        <time>2021-03-21T07:55:28Z</time>
      </trkpt>
      <trkpt lat="42.96187" lon="2.55078">
        <ele>528.8</ele>
        <time>2021-03-21T07:55:30Z</time>
      </trkpt>
      <trkpt lat="42.96194" lon="2.55094">
        <ele>528.1</ele>
        <time>2021-03-21T07:55:31Z</time>
      </trkpt>
      <trkpt lat="42.96205" lon="2.55129">
        <ele>526.6</ele>
        <time>2021-03-21T07:55:33Z</time>
      </trkpt>
      <trkpt lat="42.9621" lon="2.55147">
        <ele>525.8</ele>
        <time>2021-03-21T07:55:34Z</time>
      </trkpt>
      <trkpt lat="42.96218" lon="2.55184">
        <ele>524.3</ele>
        <time>2021-03-21T07:55:36Z</time>
      </trkpt>
      <trkpt lat="42.96223" lon="2.55202">
        <ele>523.6</ele>
        <time>2021-03-21T07:55:37Z</time>
      </trkpt>
      <trkpt lat="42.96228" lon="2.55219">
        <ele>522.8</ele>
        <time>2021-03-21T07:55:38Z</time>
      </trkpt>
      <trkpt lat="42.96232" lon="2.55237">
        <ele>522.1</ele>
        <time>2021-03-21T07:55:39Z</time>
      </trkpt>
      <trkpt lat="42.9624" lon="2.55274">
        <ele>520.3</ele>
        <time>2021-03-21T07:55:41Z</time>
      </trkpt>
      <trkpt lat="42.96241" lon="2.55292">
        <ele>519.4</ele>
        <time>2021-03-21T07:55:42Z</time>
      </trkpt>
      <trkpt lat="42.96238" lon="2.55329">
        <ele>517.8</ele>
        <time>2021-03-21T07:55:44Z</time>
      </trkpt>
      <trkpt lat="42.96235" lon="2.55347">
        <ele>517.1</ele>
        <time>2021-03-21T07:55:45Z</time>
      </trkpt>
      <trkpt lat="42.9623" lon="2.55364">
        <ele>516.4</ele>
        <time>2021-03-21T07:55:46Z</time>
      </trkpt>
      <trkpt lat="42.96221" lon="2.55399">
        <ele>514.9</ele>
        <time>2021-03-21T07:55:48Z</time>
      </trkpt>
      <trkpt lat="42.96217" lon="2.55436">
        <ele>513.3</ele>
        <time>2021-03-21T07:55:50Z</time>
      </trkpt>
      <trkpt lat="42.96219" lon="2.55456">
        <ele>512.5</ele>
        <time>2021-03-21T07:55:51Z</time>
      </trkpt>
      <trkpt lat="42.96222" lon="2.55476">
        <ele>511.7</ele>
        <time>2021-03-21T07:55:52Z</time>
      </trkpt>
      <trkpt lat="42.96229" lon="2.55516">
        <ele>510.2</ele>
        <time>2021-03-21T07:55:54Z</time>
      </trkpt>
      <trkpt lat="42.96231" lon="2.55536">
        <ele>509.5</ele>
        <time>2021-03-21T07:55:55Z</time>
      </trkpt>
      <trkpt lat="42.96231" lon="2.55556">
        <ele>508.6</ele>
        <time>2021-03-21T07:55:56Z</time>
      </trkpt>
      <trkpt lat="42.96223" lon="2.55594">
        <ele>506.9</ele>
        <time>2021-03-21T07:55:58Z</time>
      </trkpt>
      <trkpt lat="42.96217" lon="2.55613">
        <ele>506</ele>
        <time>2021-03-21T07:55:59Z</time>
      </trkpt>
      <trkpt lat="42.96202" lon="2.55649">
        <ele>504.3</ele>
        <time>2021-03-21T07:56:01Z</time>
      </trkpt>
      <trkpt lat="42.96195" lon="2.55668">
        <ele>503.5</ele>
        <time>2021-03-21T07:56:02Z</time>
      </trkpt>
      <trkpt lat="42.96189" lon="2.55686">
        <ele>502.6</ele>
        <time>2021-03-21T07:56:03Z</time>
      </trkpt>
      <trkpt lat="42.96177" lon="2.55724">
        <ele>500.9</ele>
        <time>2021-03-21T07:56:05Z</time>
      </trkpt>
      <trkpt lat="42.96171" lon="2.55743">
        <ele>500</ele>
        <time>2021-03-21T07:56:06Z</time>
      </trkpt>
      <trkpt lat="42.96157" lon="2.55782">
        <ele>498.2</ele>
        <time>2021-03-21T07:56:08Z</time>
      </trkpt>
      <trkpt lat="42.9615" lon="2.55801">
        <ele>497.4</ele>
        <time>2021-03-21T07:56:09Z</time>
      </trkpt>
      <trkpt lat="42.96133" lon="2.55838">
        <ele>495.7</ele>
        <time>2021-03-21T07:56:11Z</time>
      </trkpt>
      <trkpt lat="42.96124" lon="2.55856">
        <ele>494.8</ele>
        <time>2021-03-21T07:56:12Z</time>
      </trkpt>
      <trkpt lat="42.96104" lon="2.55888">
        <ele>493</ele>
        <time>2021-03-21T07:56:14Z</time>
      </trkpt>
      <trkpt lat="42.96097" lon="2.55906">
        <ele>492</ele>
        <time>2021-03-21T07:56:15Z</time>
      </trkpt>
      <trkpt lat="42.96091" lon="2.55947">
        <ele>489.9</ele>
        <time>2021-03-21T07:56:17Z</time>
      </trkpt>
      <trkpt lat="42.96092" lon="2.55969">
        <ele>488.9</ele>
        <time>2021-03-21T07:56:18Z</time>
      </trkpt>
      <trkpt lat="42.96095" lon="2.55991">
        <ele>487.9</ele>
        <time>2021-03-21T07:56:19Z</time>
      </trkpt>
      <trkpt lat="42.96096" lon="2.56013">
        <ele>486.9</ele>
        <time>2021-03-21T07:56:20Z</time>
      </trkpt>
      <trkpt lat="42.96093" lon="2.56057">
        <ele>484.8</ele>
        <time>2021-03-21T07:56:22Z</time>
      </trkpt>
      <trkpt lat="42.96093" lon="2.56101">
        <ele>483</ele>
        <time>2021-03-21T07:56:24Z</time>
      </trkpt>
      <trkpt lat="42.96095" lon="2.56123">
        <ele>482.1</ele>
        <time>2021-03-21T07:56:25Z</time>
      </trkpt>
      <trkpt lat="42.96094" lon="2.56164">
        <ele>480.5</ele>
        <time>2021-03-21T07:56:27Z</time>
      </trkpt>
      <trkpt lat="42.96088" lon="2.56183">
        <ele>479.7</ele>
        <time>2021-03-21T07:56:28Z</time>
      </trkpt>
      <trkpt lat="42.96069" lon="2.56213">
        <ele>478.1</ele>
        <time>2021-03-21T07:56:30Z</time>
      </trkpt>
      <trkpt lat="42.96057" lon="2.56223">
        <ele>477.2</ele>
        <time>2021-03-21T07:56:31Z</time>
      </trkpt>
      <trkpt lat="42.96031" lon="2.56239">
        <ele>475.7</ele>
        <time>2021-03-21T07:56:33Z</time>
      </trkpt>
      <trkpt lat="42.96005" lon="2.56253">
        <ele>474.3</ele>
        <time>2021-03-21T07:56:35Z</time>
      </trkpt>
      <trkpt lat="42.95992" lon="2.56258">
        <ele>473.6</ele>
        <time>2021-03-21T07:56:36Z</time>
      </trkpt>
      <trkpt lat="42.95979" lon="2.56261">
        <ele>472.8</ele>
        <time>2021-03-21T07:56:37Z</time>
      </trkpt>
      <trkpt lat="42.95966" lon="2.56263">
        <ele>472</ele>
        <time>2021-03-21T07:56:38Z</time>
      </trkpt>
      <trkpt lat="42.9594" lon="2.56263">
        <ele>470.6</ele>
        <time>2021-03-21T07:56:40Z</time>
      </trkpt>
      <trkpt lat="42.95915" lon="2.56263">
        <ele>469.2</ele>
        <time>2021-03-21T07:56:42Z</time>
      </trkpt>
      <trkpt lat="42.95902" lon="2.56264">
        <ele>468.6</ele>
        <time>2021-03-21T07:56:43Z</time>
      </trkpt>
      <trkpt lat="42.95877" lon="2.56265">
        <ele>467.6</ele>
        <time>2021-03-21T07:56:45Z</time>
      </trkpt>
      <trkpt lat="42.95851" lon="2.56267">
        <ele>466.6</ele>
        <time>2021-03-21T07:56:47Z</time>
      </trkpt>
      <trkpt lat="42.95827" lon="2.56271">
        <ele>465.5</ele>
        <time>2021-03-21T07:56:49Z</time>
      </trkpt>
      <trkpt lat="42.95803" lon="2.56277">
        <ele>464.4</ele>
        <time>2021-03-21T07:56:51Z</time>
      </trkpt>
      <trkpt lat="42.95779" lon="2.56285">
        <ele>463.4</ele>
        <time>2021-03-21T07:56:53Z</time>
      </trkpt>
      <trkpt lat="42.95755" lon="2.56295">
        <ele>462.4</ele>
        <time>2021-03-21T07:56:55Z</time>
      </trkpt>
      <trkpt lat="42.95731" lon="2.56305">
        <ele>461.8</ele>
        <time>2021-03-21T07:56:57Z</time>
      </trkpt>
      <trkpt lat="42.95707" lon="2.56314">
        <ele>461.2</ele>
        <time>2021-03-21T07:56:59Z</time>
      </trkpt>
      <trkpt lat="42.95684" lon="2.56322">
        <ele>460.5</ele>
        <time>2021-03-21T07:57:01Z</time>
      </trkpt>
      <trkpt lat="42.95673" lon="2.56326">
        <ele>460</ele>
        <time>2021-03-21T07:57:02Z</time>
      </trkpt>
      <trkpt lat="42.95662" lon="2.5633">
        <ele>459.6</ele>
        <time>2021-03-21T07:57:03Z</time>
      </trkpt>
      <trkpt lat="42.95642" lon="2.56338">
        <ele>458.9</ele>
        <time>2021-03-21T07:57:05Z</time>
      </trkpt>
      <trkpt lat="42.95631" lon="2.56342">
        <ele>458.7</ele>
        <time>2021-03-21T07:57:06Z</time>
      </trkpt>
      <trkpt lat="42.95612" lon="2.56352">
        <ele>458.3</ele>
        <time>2021-03-21T07:57:08Z</time>
      </trkpt>
      <trkpt lat="42.95595" lon="2.56366">
        <ele>458</ele>
        <time>2021-03-21T07:57:10Z</time>
      </trkpt>
      <trkpt lat="42.95588" lon="2.56374">
        <ele>457.9</ele>
        <time>2021-03-21T07:57:11Z</time>
      </trkpt>
      <trkpt lat="42.95581" lon="2.56384">
        <ele>457.7</ele>
        <time>2021-03-21T07:57:12Z</time>
      </trkpt>
      <trkpt lat="42.95576" lon="2.56394">
        <ele>457.6</ele>
        <time>2021-03-21T07:57:13Z</time>
      </trkpt>
      <trkpt lat="42.9557" lon="2.56417">
        <ele>457.4</ele>
        <time>2021-03-21T07:57:15Z</time>
      </trkpt>
      <trkpt lat="42.95567" lon="2.56428">
        <ele>457.3</ele>
        <time>2021-03-21T07:57:16Z</time>
      </trkpt>
      <trkpt lat="42.95562" lon="2.5645">
        <ele>456.9</ele>
        <time>2021-03-21T07:57:18Z</time>
      </trkpt>
      <trkpt lat="42.95561" lon="2.56462">
        <ele>456.7</ele>
        <time>2021-03-21T07:57:19Z</time>
      </trkpt>
      <trkpt lat="42.95566" lon="2.56483">
        <ele>456.3</ele>
        <time>2021-03-21T07:57:21Z</time>
      </trkpt>
      <trkpt lat="42.9557" lon="2.56493">
        <ele>456.1</ele>
        <time>2021-03-21T07:57:22Z</time>
      </trkpt>
      <trkpt lat="42.9558" lon="2.56512">
        <ele>455.6</ele>
        <time>2021-03-21T07:57:24Z</time>
      </trkpt>
      <trkpt lat="42.95589" lon="2.56533">
        <ele>455.2</ele>
        <time>2021-03-21T07:57:26Z</time>
      </trkpt>
      <trkpt lat="42.95594" lon="2.56543">
        <ele>455.1</ele>
        <time>2021-03-21T07:57:27Z</time>
      </trkpt>
      <trkpt lat="42.95605" lon="2.56561">
        <ele>454.6</ele>
        <time>2021-03-21T07:57:29Z</time>
      </trkpt>
      <trkpt lat="42.95616" lon="2.56581">
        <ele>454.2</ele>
        <time>2021-03-21T07:57:31Z</time>
      </trkpt>
      <trkpt lat="42.95622" lon="2.56604">
        <ele>453.6</ele>
        <time>2021-03-21T07:57:33Z</time>
      </trkpt>
      <trkpt lat="42.95623" lon="2.56617">
        <ele>453.3</ele>
        <time>2021-03-21T07:57:34Z</time>
      </trkpt>
      <trkpt lat="42.95626" lon="2.56641">
        <ele>452.7</ele>
        <time>2021-03-21T07:57:36Z</time>
      </trkpt>
      <trkpt lat="42.9563" lon="2.56653">
        <ele>452.4</ele>
        <time>2021-03-21T07:57:37Z</time>
      </trkpt>
      <trkpt lat="42.95642" lon="2.56673">
        <ele>452</ele>
        <time>2021-03-21T07:57:39Z</time>
      </trkpt>
      <trkpt lat="42.9565" lon="2.56681">
        <ele>451.7</ele>
        <time>2021-03-21T07:57:40Z</time>
      </trkpt>
      <trkpt lat="42.95668" lon="2.56691">
        <ele>451.3</ele>
        <time>2021-03-21T07:57:42Z</time>
      </trkpt>
      <trkpt lat="42.95679" lon="2.56693">
        <ele>451.1</ele>
        <time>2021-03-21T07:57:43Z</time>
      </trkpt>
      <trkpt lat="42.95689" lon="2.56696">
        <ele>451</ele>
        <time>2021-03-21T07:57:44Z</time>
      </trkpt>
      <trkpt lat="42.9571" lon="2.56704">
        <ele>450.7</ele>
        <time>2021-03-21T07:57:46Z</time>
      </trkpt>
      <trkpt lat="42.9572" lon="2.56709">
        <ele>450.5</ele>
        <time>2021-03-21T07:57:47Z</time>
      </trkpt>
      <trkpt lat="42.9573" lon="2.56713">
        <ele>450.3</ele>
        <time>2021-03-21T07:57:48Z</time>
      </trkpt>
      <trkpt lat="42.95749" lon="2.5672">
        <ele>449.8</ele>
        <time>2021-03-21T07:57:50Z</time>
      </trkpt>
      <trkpt lat="42.95768" lon="2.56731">
        <ele>449.2</ele>
        <time>2021-03-21T07:57:52Z</time>
      </trkpt>
      <trkpt lat="42.95783" lon="2.56749">
        <ele>448.5</ele>
        <time>2021-03-21T07:57:54Z</time>
      </trkpt>
      <trkpt lat="42.95788" lon="2.56762">
        <ele>448.2</ele>
        <time>2021-03-21T07:57:55Z</time>
      </trkpt>
      <trkpt lat="42.95791" lon="2.56775">
        <ele>448</ele>
        <time>2021-03-21T07:57:56Z</time>
      </trkpt>
      <trkpt lat="42.95793" lon="2.56801">
        <ele>447.7</ele>
        <time>2021-03-21T07:57:58Z</time>
      </trkpt>
      <trkpt lat="42.95794" lon="2.56814">
        <ele>447.7</ele>
        <time>2021-03-21T07:57:59Z</time>
      </trkpt>
      <trkpt lat="42.95798" lon="2.56839">
        <ele>447.6</ele>
        <time>2021-03-21T07:58:01Z</time>
      </trkpt>
      <trkpt lat="42.95802" lon="2.56851">
        <ele>447.5</ele>
        <time>2021-03-21T07:58:02Z</time>
      </trkpt>
      <trkpt lat="42.95806" lon="2.56863">
        <ele>447.4</ele>
        <time>2021-03-21T07:58:03Z</time>
      </trkpt>
      <trkpt lat="42.95809" lon="2.56874">
        <ele>447.3</ele>
        <time>2021-03-21T07:58:04Z</time>
      </trkpt>
      <trkpt lat="42.95813" lon="2.56885">
        <ele>447.3</ele>
        <time>2021-03-21T07:58:05Z</time>
      </trkpt>
      <trkpt lat="42.95822" lon="2.56908">
        <ele>447.1</ele>
        <time>2021-03-21T07:58:07Z</time>
      </trkpt>
      <trkpt lat="42.95826" lon="2.56918">
        <ele>447</ele>
        <time>2021-03-21T07:58:08Z</time>
      </trkpt>
      <trkpt lat="42.95837" lon="2.56937">
        <ele>446.9</ele>
        <time>2021-03-21T07:58:10Z</time>
      </trkpt>
      <trkpt lat="42.9585" lon="2.56952">
        <ele>446.7</ele>
        <time>2021-03-21T07:58:12Z</time>
      </trkpt>
      <trkpt lat="42.95857" lon="2.56959">
        <ele>446.6</ele>
        <time>2021-03-21T07:58:13Z</time>
      </trkpt>
      <trkpt lat="42.95872" lon="2.56971">
        <ele>446.5</ele>
        <time>2021-03-21T07:58:15Z</time>
      </trkpt>
      <trkpt lat="42.95879" lon="2.56978">
        <ele>446.4</ele>
        <time>2021-03-21T07:58:16Z</time>
      </trkpt>
      <trkpt lat="42.95885" lon="2.56985">
        <ele>446.3</ele>
        <time>2021-03-21T07:58:17Z</time>
      </trkpt>
      <trkpt lat="42.95891" lon="2.56992">
        <ele>446.3</ele>
        <time>2021-03-21T07:58:18Z</time>
      </trkpt>
      <trkpt lat="42.95902" lon="2.57008">
        <ele>446.2</ele>
        <time>2021-03-21T07:58:20Z</time>
      </trkpt>
      <trkpt lat="42.95912" lon="2.57026">
        <ele>446</ele>
        <time>2021-03-21T07:58:22Z</time>
      </trkpt>
      <trkpt lat="42.95917" lon="2.57034">
        <ele>446</ele>
        <time>2021-03-21T07:58:23Z</time>
      </trkpt>
      <trkpt lat="42.95922" lon="2.57044">
        <ele>446</ele>
        <time>2021-03-21T07:58:24Z</time>
      </trkpt>
      <trkpt lat="42.95933" lon="2.57061">
        <ele>445.9</ele>
        <time>2021-03-21T07:58:26Z</time>
      </trkpt>
      <trkpt lat="42.95943" lon="2.57078">
        <ele>445.7</ele>
        <time>2021-03-21T07:58:28Z</time>
      </trkpt>
      <trkpt lat="42.95948" lon="2.57087">
        <ele>445.7</ele>
        <time>2021-03-21T07:58:29Z</time>
      </trkpt>
      <trkpt lat="42.9596" lon="2.57104">
        <ele>445.7</ele>
        <time>2021-03-21T07:58:31Z</time>
      </trkpt>
      <trkpt lat="42.95972" lon="2.57119">
        <ele>445.6</ele>
        <time>2021-03-21T07:58:33Z</time>
      </trkpt>
      <trkpt lat="42.95986" lon="2.57132">
        <ele>445.5</ele>
        <time>2021-03-21T07:58:35Z</time>
      </trkpt>
      <trkpt lat="42.95993" lon="2.57137">
        <ele>445.5</ele>
        <time>2021-03-21T07:58:36Z</time>
      </trkpt>
      <trkpt lat="42.96" lon="2.57141">
        <ele>445.4</ele>
        <time>2021-03-21T07:58:37Z</time>
      </trkpt>
      <trkpt lat="42.96015" lon="2.57149">
        <ele>445.4</ele>
        <time>2021-03-21T07:58:39Z</time>
      </trkpt>
      <trkpt lat="42.96022" lon="2.57151">
        <ele>445.3</ele>
        <time>2021-03-21T07:58:40Z</time>
      </trkpt>
      <trkpt lat="42.96037" lon="2.57153">
        <ele>445.2</ele>
        <time>2021-03-21T07:58:42Z</time>
      </trkpt>
      <trkpt lat="42.96052" lon="2.5715">
        <ele>445</ele>
        <time>2021-03-21T07:58:44Z</time>
      </trkpt>
      <trkpt lat="42.96059" lon="2.57145">
        <ele>444.8</ele>
        <time>2021-03-21T07:58:45Z</time>
      </trkpt>
      <trkpt lat="42.96066" lon="2.57139">
        <ele>444.7</ele>
        <time>2021-03-21T07:58:46Z</time>
      </trkpt>
      <trkpt lat="42.96077" lon="2.57123">
        <ele>444.4</ele>
        <time>2021-03-21T07:58:48Z</time>
      </trkpt>
      <trkpt lat="42.96088" lon="2.57106">
        <ele>444.2</ele>
        <time>2021-03-21T07:58:50Z</time>
      </trkpt>
      <trkpt lat="42.96095" lon="2.57099">
        <ele>444.1</ele>
        <time>2021-03-21T07:58:51Z</time>
      </trkpt>
      <trkpt lat="42.96108" lon="2.57083">
        <ele>443.9</ele>
        <time>2021-03-21T07:58:53Z</time>
      </trkpt>
      <trkpt lat="42.96115" lon="2.57077">
        <ele>443.8</ele>
        <time>2021-03-21T07:58:54Z</time>
      </trkpt>
      <trkpt lat="42.96123" lon="2.57072">
        <ele>443.7</ele>
        <time>2021-03-21T07:58:55Z</time>
      </trkpt>
      <trkpt lat="42.96138" lon="2.57064">
        <ele>443.5</ele>
        <time>2021-03-21T07:58:57Z</time>
      </trkpt>
      <trkpt lat="42.96154" lon="2.57058">
        <ele>443.1</ele>
        <time>2021-03-21T07:58:59Z</time>
      </trkpt>
      <trkpt lat="42.96172" lon="2.57056">
        <ele>442.7</ele>
        <time>2021-03-21T07:59:01Z</time>
      </trkpt>
      <trkpt lat="42.96189" lon="2.57063">
        <ele>442.4</ele>
        <time>2021-03-21T07:59:03Z</time>
      </trkpt>
      <trkpt lat="42.96204" lon="2.57081">
        <ele>442.1</ele>
        <time>2021-03-21T07:59:05Z</time>
      </trkpt>
      <trkpt lat="42.96213" lon="2.57106">
        <ele>441.7</ele>
        <time>2021-03-21T07:59:07Z</time>
      </trkpt>
      <trkpt lat="42.96216" lon="2.57119">
        <ele>441.5</ele>
        <time>2021-03-21T07:59:08Z</time>
      </trkpt>
      <trkpt lat="42.96222" lon="2.57143">
        <ele>441.1</ele>
        <time>2021-03-21T07:59:10Z</time>
      </trkpt>
      <trkpt lat="42.96229" lon="2.57167">
        <ele>440.9</ele>
        <time>2021-03-21T07:59:12Z</time>
      </trkpt>
      <trkpt lat="42.96232" lon="2.57179">
        <ele>440.8</ele>
        <time>2021-03-21T07:59:13Z</time>
      </trkpt>
      <trkpt lat="42.9624" lon="2.57202">
        <ele>440.5</ele>
        <time>2021-03-21T07:59:15Z</time>
      </trkpt>
      <trkpt lat="42.96245" lon="2.57214">
        <ele>440.4</ele>
        <time>2021-03-21T07:59:16Z</time>
      </trkpt>
      <trkpt lat="42.96249" lon="2.57225">
        <ele>440.2</ele>
        <time>2021-03-21T07:59:17Z</time>
      </trkpt>
      <trkpt lat="42.96253" lon="2.57237">
        <ele>440</ele>
        <time>2021-03-21T07:59:18Z</time>
      </trkpt>
      <trkpt lat="42.96261" lon="2.57261">
        <ele>439.7</ele>
        <time>2021-03-21T07:59:20Z</time>
      </trkpt>
      <trkpt lat="42.96269" lon="2.57284">
        <ele>439.5</ele>
        <time>2021-03-21T07:59:22Z</time>
      </trkpt>
      <trkpt lat="42.96272" lon="2.57296">
        <ele>439.5</ele>
        <time>2021-03-21T07:59:23Z</time>
      </trkpt>
      <trkpt lat="42.96276" lon="2.57308">
        <ele>439.4</ele>
        <time>2021-03-21T07:59:24Z</time>
      </trkpt>
      <trkpt lat="42.9628" lon="2.57332">
        <ele>439.8</ele>
        <time>2021-03-21T07:59:26Z</time>
      </trkpt>
      <trkpt lat="42.96282" lon="2.57353">
        <ele>440.5</ele>
        <time>2021-03-21T07:59:28Z</time>
      </trkpt>
      <trkpt lat="42.96283" lon="2.57362">
        <ele>440.7</ele>
        <time>2021-03-21T07:59:29Z</time>
      </trkpt>
      <trkpt lat="42.96287" lon="2.57378">
        <ele>441.2</ele>
        <time>2021-03-21T07:59:31Z</time>
      </trkpt>
      <trkpt lat="42.96288" lon="2.57385">
        <ele>441.4</ele>
        <time>2021-03-21T07:59:32Z</time>
      </trkpt>
      <trkpt lat="42.9629" lon="2.574">
        <ele>441.8</ele>
        <time>2021-03-21T07:59:34Z</time>
      </trkpt>
      <trkpt lat="42.96292" lon="2.57414">
        <ele>442.3</ele>
        <time>2021-03-21T07:59:36Z</time>
      </trkpt>
      <trkpt lat="42.96296" lon="2.57427">
        <ele>442.8</ele>
        <time>2021-03-21T07:59:38Z</time>
      </trkpt>
      <trkpt lat="42.96297" lon="2.57434">
        <ele>443.1</ele>
        <time>2021-03-21T07:59:39Z</time>
      </trkpt>
      <trkpt lat="42.96299" lon="2.57447">
        <ele>443.6</ele>
        <time>2021-03-21T07:59:41Z</time>
      </trkpt>
      <trkpt lat="42.963" lon="2.57453">
        <ele>443.9</ele>
        <time>2021-03-21T07:59:42Z</time>
      </trkpt>
      <trkpt lat="42.96302" lon="2.57459">
        <ele>444.2</ele>
        <time>2021-03-21T07:59:43Z</time>
      </trkpt>
      <trkpt lat="42.96306" lon="2.57472">
        <ele>444.7</ele>
        <time>2021-03-21T07:59:45Z</time>
      </trkpt>
      <trkpt lat="42.96308" lon="2.57479">
        <ele>445</ele>
        <time>2021-03-21T07:59:46Z</time>
      </trkpt>
      <trkpt lat="42.96311" lon="2.57485">
        <ele>445.3</ele>
        <time>2021-03-21T07:59:47Z</time>
      </trkpt>
      <trkpt lat="42.96315" lon="2.57496">
        <ele>445.8</ele>
        <time>2021-03-21T07:59:49Z</time>
      </trkpt>
      <trkpt lat="42.96319" lon="2.57508">
        <ele>446.2</ele>
        <time>2021-03-21T07:59:51Z</time>
      </trkpt>
      <trkpt lat="42.96323" lon="2.57521">
        <ele>446.8</ele>
        <time>2021-03-21T07:59:53Z</time>
      </trkpt>
      <trkpt lat="42.96326" lon="2.57527">
        <ele>447.1</ele>
        <time>2021-03-21T07:59:54Z</time>
      </trkpt>
      <trkpt lat="42.9633" lon="2.5754">
        <ele>447.6</ele>
        <time>2021-03-21T07:59:56Z</time>
      </trkpt>
      <trkpt lat="42.96332" lon="2.57545">
        <ele>447.9</ele>
        <time>2021-03-21T07:59:57Z</time>
      </trkpt>
      <trkpt lat="42.96336" lon="2.57553">
        <ele>448.4</ele>
        <time>2021-03-21T07:59:59Z</time>
      </trkpt>
      <trkpt lat="42.96337" lon="2.5756">
        <ele>448.8</ele>
        <time>2021-03-21T08:00:00Z</time>
      </trkpt>
      <trkpt lat="42.96339" lon="2.57567">
        <ele>449.1</ele>
        <time>2021-03-21T08:00:01Z</time>
      </trkpt>
      <trkpt lat="42.96341" lon="2.57574">
        <ele>449.6</ele>
        <time>2021-03-21T08:00:03Z</time>
      </trkpt>
      <trkpt lat="42.96343" lon="2.5758">
        <ele>450</ele>
        <time>2021-03-21T08:00:04Z</time>
      </trkpt>
      <trkpt lat="42.96344" lon="2.57586">
        <ele>450.4</ele>
        <time>2021-03-21T08:00:05Z</time>
      </trkpt>
      <trkpt lat="42.96345" lon="2.57593">
        <ele>450.8</ele>
        <time>2021-03-21T08:00:06Z</time>
      </trkpt>
      <trkpt lat="42.96346" lon="2.57601">
        <ele>451.3</ele>
        <time>2021-03-21T08:00:08Z</time>
      </trkpt>
      <trkpt lat="42.96347" lon="2.5761">
        <ele>451.8</ele>
        <time>2021-03-21T08:00:09Z</time>
      </trkpt>
      <trkpt lat="42.96347" lon="2.57619">
        <ele>452.3</ele>
        <time>2021-03-21T08:00:11Z</time>
      </trkpt>
      <trkpt lat="42.96345" lon="2.57623">
        <ele>452.5</ele>
        <time>2021-03-21T08:00:12Z</time>
      </trkpt>
      <trkpt lat="42.96341" lon="2.57628">
        <ele>452.8</ele>
        <time>2021-03-21T08:00:13Z</time>
      </trkpt>
      <trkpt lat="42.96337" lon="2.57631">
        <ele>453</ele>
        <time>2021-03-21T08:00:14Z</time>
      </trkpt>
      <trkpt lat="42.96333" lon="2.57633">
        <ele>453.1</ele>
        <time>2021-03-21T08:00:15Z</time>
      </trkpt>
      <trkpt lat="42.96328" lon="2.57634">
        <ele>453.3</ele>
        <time>2021-03-21T08:00:17Z</time>
      </trkpt>
      <trkpt lat="42.96323" lon="2.57635">
        <ele>453.4</ele>
        <time>2021-03-21T08:00:18Z</time>
      </trkpt>
      <trkpt lat="42.96317" lon="2.57636">
        <ele>453.5</ele>
        <time>2021-03-21T08:00:20Z</time>
      </trkpt>
      <trkpt lat="42.96313" lon="2.57637">
        <ele>453.6</ele>
        <time>2021-03-21T08:00:21Z</time>
      </trkpt>
      <trkpt lat="42.96309" lon="2.57638">
        <ele>453.7</ele>
        <time>2021-03-21T08:00:22Z</time>
      </trkpt>
      <trkpt lat="42.96304" lon="2.5764">
        <ele>453.8</ele>
        <time>2021-03-21T08:00:23Z</time>
      </trkpt>
      <trkpt lat="42.96298" lon="2.57642">
        <ele>453.9</ele>
        <time>2021-03-21T08:00:25Z</time>
      </trkpt>
      <trkpt lat="42.96292" lon="2.57644">
        <ele>454.1</ele>
        <time>2021-03-21T08:00:27Z</time>
      </trkpt>
      <trkpt lat="42.96287" lon="2.57646">
        <ele>454.4</ele>
        <time>2021-03-21T08:00:28Z</time>
      </trkpt>
      <trkpt lat="42.96283" lon="2.57649">
        <ele>454.5</ele>
        <time>2021-03-21T08:00:29Z</time>
      </trkpt>
      <trkpt lat="42.96278" lon="2.57651">
        <ele>454.8</ele>
        <time>2021-03-21T08:00:31Z</time>
      </trkpt>
      <trkpt lat="42.96274" lon="2.57653">
        <ele>455</ele>
        <time>2021-03-21T08:00:32Z</time>
      </trkpt>
      <trkpt lat="42.96269" lon="2.57656">
        <ele>455.3</ele>
        <time>2021-03-21T08:00:33Z</time>
      </trkpt>
      <trkpt lat="42.96264" lon="2.5766">
        <ele>455.7</ele>
        <time>2021-03-21T08:00:35Z</time>
      </trkpt>
      <trkpt lat="42.96259" lon="2.57664">
        <ele>456</ele>
        <time>2021-03-21T08:00:36Z</time>
      </trkpt>
      <trkpt lat="42.96255" lon="2.57666">
        <ele>456.3</ele>
        <time>2021-03-21T08:00:37Z</time>
      </trkpt>
      <trkpt lat="42.96251" lon="2.57669">
        <ele>456.5</ele>
        <time>2021-03-21T08:00:38Z</time>
      </trkpt>
      <trkpt lat="42.96245" lon="2.57672">
        <ele>456.9</ele>
        <time>2021-03-21T08:00:40Z</time>
      </trkpt>
      <trkpt lat="42.9624" lon="2.57674">
        <ele>457.3</ele>
        <time>2021-03-21T08:00:41Z</time>
      </trkpt>
      <trkpt lat="42.96234" lon="2.57677">
        <ele>457.6</ele>
        <time>2021-03-21T08:00:42Z</time>
      </trkpt>
      <trkpt lat="42.96229" lon="2.57678">
        <ele>457.9</ele>
        <time>2021-03-21T08:00:43Z</time>
      </trkpt>
      <trkpt lat="42.96226" lon="2.5768">
        <ele>458.2</ele>
        <time>2021-03-21T08:00:44Z</time>
      </trkpt>
      <trkpt lat="42.96219" lon="2.57681">
        <ele>458.6</ele>
        <time>2021-03-21T08:00:46Z</time>
      </trkpt>
      <trkpt lat="42.96214" lon="2.57682">
        <ele>459</ele>
        <time>2021-03-21T08:00:47Z</time>
      </trkpt>
      <trkpt lat="42.96209" lon="2.57683">
        <ele>459.3</ele>
        <time>2021-03-21T08:00:48Z</time>
      </trkpt>
      <trkpt lat="42.96203" lon="2.57683">
        <ele>459.6</ele>
        <time>2021-03-21T08:00:49Z</time>
      </trkpt>
      <trkpt lat="42.96196" lon="2.57683">
        <ele>460.1</ele>
        <time>2021-03-21T08:00:51Z</time>
      </trkpt>
      <trkpt lat="42.96188" lon="2.57682">
        <ele>460.5</ele>
        <time>2021-03-21T08:00:53Z</time>
      </trkpt>
      <trkpt lat="42.9618" lon="2.57681">
        <ele>461</ele>
        <time>2021-03-21T08:00:55Z</time>
      </trkpt>
      <trkpt lat="42.96176" lon="2.57681">
        <ele>461.3</ele>
        <time>2021-03-21T08:00:56Z</time>
      </trkpt>
      <trkpt lat="42.96169" lon="2.57682">
        <ele>461.7</ele>
        <time>2021-03-21T08:00:58Z</time>
      </trkpt>
      <trkpt lat="42.96163" lon="2.57683">
        <ele>462</ele>
        <time>2021-03-21T08:00:59Z</time>
      </trkpt>
      <trkpt lat="42.96158" lon="2.57685">
        <ele>462.4</ele>
        <time>2021-03-21T08:01:00Z</time>
      </trkpt>
      <trkpt lat="42.9615" lon="2.57691">
        <ele>462.9</ele>
        <time>2021-03-21T08:01:02Z</time>
      </trkpt>
      <trkpt lat="42.96145" lon="2.57694">
        <ele>463.4</ele>
        <time>2021-03-21T08:01:04Z</time>
      </trkpt>
      <trkpt lat="42.96139" lon="2.57697">
        <ele>463.8</ele>
        <time>2021-03-21T08:01:05Z</time>
      </trkpt>
      <trkpt lat="42.96135" lon="2.57698">
        <ele>464.1</ele>
        <time>2021-03-21T08:01:06Z</time>
      </trkpt>
      <trkpt lat="42.9613" lon="2.577">
        <ele>464.5</ele>
        <time>2021-03-21T08:01:07Z</time>
      </trkpt>
      <trkpt lat="42.96126" lon="2.57702">
        <ele>464.9</ele>
        <time>2021-03-21T08:01:09Z</time>
      </trkpt>
      <trkpt lat="42.9612" lon="2.57705">
        <ele>465.3</ele>
        <time>2021-03-21T08:01:10Z</time>
      </trkpt>
      <trkpt lat="42.96117" lon="2.57708">
        <ele>465.7</ele>
        <time>2021-03-21T08:01:11Z</time>
      </trkpt>
      <trkpt lat="42.96112" lon="2.57712">
        <ele>466.2</ele>
        <time>2021-03-21T08:01:13Z</time>
      </trkpt>
      <trkpt lat="42.96109" lon="2.57716">
        <ele>466.5</ele>
        <time>2021-03-21T08:01:14Z</time>
      </trkpt>
      <trkpt lat="42.96107" lon="2.57722">
        <ele>467</ele>
        <time>2021-03-21T08:01:15Z</time>
      </trkpt>
      <trkpt lat="42.96106" lon="2.57728">
        <ele>467.4</ele>
        <time>2021-03-21T08:01:16Z</time>
      </trkpt>
      <trkpt lat="42.96106" lon="2.57736">
        <ele>467.8</ele>
        <time>2021-03-21T08:01:18Z</time>
      </trkpt>
      <trkpt lat="42.96108" lon="2.57741">
        <ele>468.1</ele>
        <time>2021-03-21T08:01:19Z</time>
      </trkpt>
      <trkpt lat="42.96111" lon="2.57746">
        <ele>468.3</ele>
        <time>2021-03-21T08:01:20Z</time>
      </trkpt>
      <trkpt lat="42.96117" lon="2.57752">
        <ele>468.8</ele>
        <time>2021-03-21T08:01:21Z</time>
      </trkpt>
      <trkpt lat="42.96118" lon="2.57755">
        <ele>468.9</ele>
        <time>2021-03-21T08:01:22Z</time>
      </trkpt>
      <trkpt lat="42.96119" lon="2.57757">
        <ele>469</ele>
        <time>2021-03-21T08:01:24Z</time>
      </trkpt>
      <trkpt lat="42.96124" lon="2.5776">
        <ele>469.4</ele>
        <time>2021-03-21T08:01:25Z</time>
      </trkpt>
      <trkpt lat="42.96128" lon="2.57764">
        <ele>469.9</ele>
        <time>2021-03-21T08:01:26Z</time>
      </trkpt>
      <trkpt lat="42.96132" lon="2.57772">
        <ele>470.5</ele>
        <time>2021-03-21T08:01:28Z</time>
      </trkpt>
      <trkpt lat="42.96133" lon="2.57781">
        <ele>471</ele>
        <time>2021-03-21T08:01:29Z</time>
      </trkpt>
      <trkpt lat="42.96132" lon="2.57788">
        <ele>471.5</ele>
        <time>2021-03-21T08:01:30Z</time>
      </trkpt>
      <trkpt lat="42.9613" lon="2.57793">
        <ele>471.7</ele>
        <time>2021-03-21T08:01:31Z</time>
      </trkpt>
      <trkpt lat="42.96126" lon="2.57799">
        <ele>472</ele>
        <time>2021-03-21T08:01:32Z</time>
      </trkpt>
      <trkpt lat="42.96122" lon="2.57804">
        <ele>472.2</ele>
        <time>2021-03-21T08:01:34Z</time>
      </trkpt>
      <trkpt lat="42.96118" lon="2.57808">
        <ele>472.4</ele>
        <time>2021-03-21T08:01:35Z</time>
      </trkpt>
      <trkpt lat="42.96113" lon="2.57815">
        <ele>472.7</ele>
        <time>2021-03-21T08:01:36Z</time>
      </trkpt>
      <trkpt lat="42.96112" lon="2.57821">
        <ele>472.8</ele>
        <time>2021-03-21T08:01:38Z</time>
      </trkpt>
      <trkpt lat="42.96108" lon="2.57826">
        <ele>473</ele>
        <time>2021-03-21T08:01:39Z</time>
      </trkpt>
      <trkpt lat="42.96105" lon="2.57829">
        <ele>473.1</ele>
        <time>2021-03-21T08:01:40Z</time>
      </trkpt>
      <trkpt lat="42.961" lon="2.57834">
        <ele>473.2</ele>
        <time>2021-03-21T08:01:42Z</time>
      </trkpt>
      <trkpt lat="42.96095" lon="2.57839">
        <ele>473.4</ele>
        <time>2021-03-21T08:01:43Z</time>
      </trkpt>
      <trkpt lat="42.96091" lon="2.57843">
        <ele>473.6</ele>
        <time>2021-03-21T08:01:45Z</time>
      </trkpt>
      <trkpt lat="42.96086" lon="2.57848">
        <ele>473.8</ele>
        <time>2021-03-21T08:01:46Z</time>
      </trkpt>
      <trkpt lat="42.9608" lon="2.57854">
        <ele>474</ele>
        <time>2021-03-21T08:01:48Z</time>
      </trkpt>
      <trkpt lat="42.96076" lon="2.57857">
        <ele>474.2</ele>
        <time>2021-03-21T08:01:49Z</time>
      </trkpt>
      <trkpt lat="42.96072" lon="2.57862">
        <ele>474.4</ele>
        <time>2021-03-21T08:01:51Z</time>
      </trkpt>
      <trkpt lat="42.96067" lon="2.57868">
        <ele>474.7</ele>
        <time>2021-03-21T08:01:52Z</time>
      </trkpt>
      <trkpt lat="42.96063" lon="2.57872">
        <ele>475</ele>
        <time>2021-03-21T08:01:53Z</time>
      </trkpt>
      <trkpt lat="42.96059" lon="2.57876">
        <ele>475.3</ele>
        <time>2021-03-21T08:01:55Z</time>
      </trkpt>
      <trkpt lat="42.96055" lon="2.57881">
        <ele>475.6</ele>
        <time>2021-03-21T08:01:56Z</time>
      </trkpt>
      <trkpt lat="42.96051" lon="2.57885">
        <ele>475.9</ele>
        <time>2021-03-21T08:01:57Z</time>
      </trkpt>
      <trkpt lat="42.96047" lon="2.57888">
        <ele>476.2</ele>
        <time>2021-03-21T08:01:58Z</time>
      </trkpt>
      <trkpt lat="42.9604" lon="2.57895">
        <ele>476.6</ele>
        <time>2021-03-21T08:02:00Z</time>
      </trkpt>
      <trkpt lat="42.96035" lon="2.579">
        <ele>477</ele>
        <time>2021-03-21T08:02:02Z</time>
      </trkpt>
      <trkpt lat="42.96031" lon="2.57905">
        <ele>477.3</ele>
        <time>2021-03-21T08:02:03Z</time>
      </trkpt>
      <trkpt lat="42.96026" lon="2.5791">
        <ele>477.6</ele>
        <time>2021-03-21T08:02:04Z</time>
      </trkpt>
      <trkpt lat="42.96022" lon="2.57916">
        <ele>477.9</ele>
        <time>2021-03-21T08:02:06Z</time>
      </trkpt>
      <trkpt lat="42.96019" lon="2.57921">
        <ele>478.2</ele>
        <time>2021-03-21T08:02:07Z</time>
      </trkpt>
      <trkpt lat="42.96016" lon="2.57926">
        <ele>478.5</ele>
        <time>2021-03-21T08:02:08Z</time>
      </trkpt>
      <trkpt lat="42.96013" lon="2.57933">
        <ele>478.9</ele>
        <time>2021-03-21T08:02:10Z</time>
      </trkpt>
      <trkpt lat="42.9601" lon="2.57939">
        <ele>479.1</ele>
        <time>2021-03-21T08:02:11Z</time>
      </trkpt>
      <trkpt lat="42.96007" lon="2.57944">
        <ele>479.4</ele>
        <time>2021-03-21T08:02:12Z</time>
      </trkpt>
      <trkpt lat="42.96003" lon="2.5795">
        <ele>479.7</ele>
        <time>2021-03-21T08:02:13Z</time>
      </trkpt>
      <trkpt lat="42.96001" lon="2.57955">
        <ele>480</ele>
        <time>2021-03-21T08:02:14Z</time>
      </trkpt>
      <trkpt lat="42.95997" lon="2.57961">
        <ele>480.4</ele>
        <time>2021-03-21T08:02:15Z</time>
      </trkpt>
      <trkpt lat="42.95991" lon="2.57969">
        <ele>480.9</ele>
        <time>2021-03-21T08:02:17Z</time>
      </trkpt>
      <trkpt lat="42.95988" lon="2.57973">
        <ele>481.2</ele>
        <time>2021-03-21T08:02:18Z</time>
      </trkpt>
      <trkpt lat="42.95981" lon="2.57979">
        <ele>481.6</ele>
        <time>2021-03-21T08:02:20Z</time>
      </trkpt>
      <trkpt lat="42.95978" lon="2.57983">
        <ele>481.9</ele>
        <time>2021-03-21T08:02:21Z</time>
      </trkpt>
      <trkpt lat="42.95972" lon="2.57989">
        <ele>482.3</ele>
        <time>2021-03-21T08:02:23Z</time>
      </trkpt>
      <trkpt lat="42.95968" lon="2.57994">
        <ele>482.7</ele>
        <time>2021-03-21T08:02:24Z</time>
      </trkpt>
      <trkpt lat="42.95963" lon="2.58">
        <ele>483.1</ele>
        <time>2021-03-21T08:02:26Z</time>
      </trkpt>
      <trkpt lat="42.95959" lon="2.58006">
        <ele>483.4</ele>
        <time>2021-03-21T08:02:27Z</time>
      </trkpt>
      <trkpt lat="42.95957" lon="2.58009">
        <ele>483.7</ele>
        <time>2021-03-21T08:02:28Z</time>
      </trkpt>
      <trkpt lat="42.95954" lon="2.58015">
        <ele>484</ele>
        <time>2021-03-21T08:02:29Z</time>
      </trkpt>
      <trkpt lat="42.95951" lon="2.5802">
        <ele>484.3</ele>
        <time>2021-03-21T08:02:31Z</time>
      </trkpt>
      <trkpt lat="42.95948" lon="2.58025">
        <ele>484.6</ele>
        <time>2021-03-21T08:02:32Z</time>
      </trkpt>
      <trkpt lat="42.95944" lon="2.5803">
        <ele>484.9</ele>
        <time>2021-03-21T08:02:33Z</time>
      </trkpt>
      <trkpt lat="42.95939" lon="2.58038">
        <ele>485.4</ele>
        <time>2021-03-21T08:02:35Z</time>
      </trkpt>
      <trkpt lat="42.95937" lon="2.58042">
        <ele>485.7</ele>
        <time>2021-03-21T08:02:36Z</time>
      </trkpt>
      <trkpt lat="42.95934" lon="2.5805">
        <ele>486.2</ele>
        <time>2021-03-21T08:02:38Z</time>
      </trkpt>
      <trkpt lat="42.95932" lon="2.58055">
        <ele>486.6</ele>
        <time>2021-03-21T08:02:39Z</time>
      </trkpt>
      <trkpt lat="42.95931" lon="2.58061">
        <ele>486.9</ele>
        <time>2021-03-21T08:02:40Z</time>
      </trkpt>
      <trkpt lat="42.95931" lon="2.58067">
        <ele>487.3</ele>
        <time>2021-03-21T08:02:41Z</time>
      </trkpt>
      <trkpt lat="42.95931" lon="2.58072">
        <ele>487.5</ele>
        <time>2021-03-21T08:02:42Z</time>
      </trkpt>
      <trkpt lat="42.95932" lon="2.58076">
        <ele>487.8</ele>
        <time>2021-03-21T08:02:43Z</time>
      </trkpt>
      <trkpt lat="42.95935" lon="2.58083">
        <ele>488.2</ele>
        <time>2021-03-21T08:02:45Z</time>
      </trkpt>
      <trkpt lat="42.95938" lon="2.5809">
        <ele>488.5</ele>
        <time>2021-03-21T08:02:46Z</time>
      </trkpt>
      <trkpt lat="42.95941" lon="2.58096">
        <ele>488.7</ele>
        <time>2021-03-21T08:02:47Z</time>
      </trkpt>
      <trkpt lat="42.95945" lon="2.58107">
        <ele>489.1</ele>
        <time>2021-03-21T08:02:49Z</time>
      </trkpt>
      <trkpt lat="42.95949" lon="2.58119">
        <ele>489.6</ele>
        <time>2021-03-21T08:02:51Z</time>
      </trkpt>
      <trkpt lat="42.95951" lon="2.58125">
        <ele>489.9</ele>
        <time>2021-03-21T08:02:52Z</time>
      </trkpt>
      <trkpt lat="42.95953" lon="2.58132">
        <ele>490.2</ele>
        <time>2021-03-21T08:02:53Z</time>
      </trkpt>
      <trkpt lat="42.95954" lon="2.58139">
        <ele>490.5</ele>
        <time>2021-03-21T08:02:54Z</time>
      </trkpt>
      <trkpt lat="42.95955" lon="2.58145">
        <ele>490.8</ele>
        <time>2021-03-21T08:02:55Z</time>
      </trkpt>
      <trkpt lat="42.95957" lon="2.58152">
        <ele>491.2</ele>
        <time>2021-03-21T08:02:57Z</time>
      </trkpt>
      <trkpt lat="42.95959" lon="2.58162">
        <ele>491.6</ele>
        <time>2021-03-21T08:02:58Z</time>
      </trkpt>
      <trkpt lat="42.9596" lon="2.58168">
        <ele>491.9</ele>
        <time>2021-03-21T08:02:59Z</time>
      </trkpt>
      <trkpt lat="42.95962" lon="2.58177">
        <ele>492.3</ele>
        <time>2021-03-21T08:03:01Z</time>
      </trkpt>
      <trkpt lat="42.95963" lon="2.58185">
        <ele>492.6</ele>
        <time>2021-03-21T08:03:02Z</time>
      </trkpt>
      <trkpt lat="42.95964" lon="2.58192">
        <ele>492.9</ele>
        <time>2021-03-21T08:03:03Z</time>
      </trkpt>
      <trkpt lat="42.95965" lon="2.58199">
        <ele>493.2</ele>
        <time>2021-03-21T08:03:04Z</time>
      </trkpt>
      <trkpt lat="42.95968" lon="2.58211">
        <ele>493.7</ele>
        <time>2021-03-21T08:03:06Z</time>
      </trkpt>
      <trkpt lat="42.95967" lon="2.58216">
        <ele>493.9</ele>
        <time>2021-03-21T08:03:08Z</time>
      </trkpt>
      <trkpt lat="42.95967" lon="2.5822">
        <ele>494</ele>
        <time>2021-03-21T08:03:09Z</time>
      </trkpt>
      <trkpt lat="42.95967" lon="2.58227">
        <ele>494.3</ele>
        <time>2021-03-21T08:03:10Z</time>
      </trkpt>
      <trkpt lat="42.95967" lon="2.58238">
        <ele>494.7</ele>
        <time>2021-03-21T08:03:12Z</time>
      </trkpt>
      <trkpt lat="42.95966" lon="2.58247">
        <ele>494.9</ele>
        <time>2021-03-21T08:03:13Z</time>
      </trkpt>
      <trkpt lat="42.95964" lon="2.58257">
        <ele>495</ele>
        <time>2021-03-21T08:03:14Z</time>
      </trkpt>
      <trkpt lat="42.95961" lon="2.58272">
        <ele>494.9</ele>
        <time>2021-03-21T08:03:16Z</time>
      </trkpt>
      <trkpt lat="42.95959" lon="2.5828">
        <ele>494.7</ele>
        <time>2021-03-21T08:03:17Z</time>
      </trkpt>
      <trkpt lat="42.95954" lon="2.58295">
        <ele>494.3</ele>
        <time>2021-03-21T08:03:19Z</time>
      </trkpt>
      <trkpt lat="42.95946" lon="2.58311">
        <ele>493.5</ele>
        <time>2021-03-21T08:03:21Z</time>
      </trkpt>
      <trkpt lat="42.95942" lon="2.5832">
        <ele>493.1</ele>
        <time>2021-03-21T08:03:22Z</time>
      </trkpt>
      <trkpt lat="42.95937" lon="2.58329">
        <ele>492.7</ele>
        <time>2021-03-21T08:03:23Z</time>
      </trkpt>
      <trkpt lat="42.95926" lon="2.5835">
        <ele>491.8</ele>
        <time>2021-03-21T08:03:25Z</time>
      </trkpt>
      <trkpt lat="42.9592" lon="2.58361">
        <ele>491.3</ele>
        <time>2021-03-21T08:03:26Z</time>
      </trkpt>
      <trkpt lat="42.95914" lon="2.58372">
        <ele>490.8</ele>
        <time>2021-03-21T08:03:27Z</time>
      </trkpt>
      <trkpt lat="42.95906" lon="2.58381">
        <ele>490.3</ele>
        <time>2021-03-21T08:03:28Z</time>
      </trkpt>
      <trkpt lat="42.95897" lon="2.58387">
        <ele>489.7</ele>
        <time>2021-03-21T08:03:29Z</time>
      </trkpt>
      <trkpt lat="42.95876" lon="2.58394">
        <ele>488.5</ele>
        <time>2021-03-21T08:03:31Z</time>
      </trkpt>
      <trkpt lat="42.95867" lon="2.58402">
        <ele>487.8</ele>
        <time>2021-03-21T08:03:32Z</time>
      </trkpt>
      <trkpt lat="42.95854" lon="2.58426">
        <ele>486.6</ele>
        <time>2021-03-21T08:03:34Z</time>
      </trkpt>
      <trkpt lat="42.95837" lon="2.58442">
        <ele>485.5</ele>
        <time>2021-03-21T08:03:36Z</time>
      </trkpt>
      <trkpt lat="42.95827" lon="2.58439">
        <ele>485</ele>
        <time>2021-03-21T08:03:37Z</time>
      </trkpt>
      <trkpt lat="42.95816" lon="2.58434">
        <ele>484.3</ele>
        <time>2021-03-21T08:03:38Z</time>
      </trkpt>
      <trkpt lat="42.95795" lon="2.58438">
        <ele>483.1</ele>
        <time>2021-03-21T08:03:40Z</time>
      </trkpt>
      <trkpt lat="42.9579" lon="2.58452">
        <ele>482.5</ele>
        <time>2021-03-21T08:03:41Z</time>
      </trkpt>
      <trkpt lat="42.95785" lon="2.58484">
        <ele>481.1</ele>
        <time>2021-03-21T08:03:43Z</time>
      </trkpt>
      <trkpt lat="42.95773" lon="2.58514">
        <ele>479.7</ele>
        <time>2021-03-21T08:03:45Z</time>
      </trkpt>
      <trkpt lat="42.95765" lon="2.58525">
        <ele>478.9</ele>
        <time>2021-03-21T08:03:46Z</time>
      </trkpt>
      <trkpt lat="42.95755" lon="2.58535">
        <ele>478.2</ele>
        <time>2021-03-21T08:03:47Z</time>
      </trkpt>
      <trkpt lat="42.95746" lon="2.58544">
        <ele>477.6</ele>
        <time>2021-03-21T08:03:48Z</time>
      </trkpt>
      <trkpt lat="42.95743" lon="2.58568">
        <ele>476.6</ele>
        <time>2021-03-21T08:03:50Z</time>
      </trkpt>
      <trkpt lat="42.95762" lon="2.58585">
        <ele>475.5</ele>
        <time>2021-03-21T08:03:52Z</time>
      </trkpt>
      <trkpt lat="42.95773" lon="2.58587">
        <ele>475</ele>
        <time>2021-03-21T08:03:53Z</time>
      </trkpt>
      <trkpt lat="42.95793" lon="2.58577">
        <ele>473.7</ele>
        <time>2021-03-21T08:03:55Z</time>
      </trkpt>
      <trkpt lat="42.95811" lon="2.58569">
        <ele>472.6</ele>
        <time>2021-03-21T08:03:57Z</time>
      </trkpt>
      <trkpt lat="42.9583" lon="2.58572">
        <ele>471.5</ele>
        <time>2021-03-21T08:03:59Z</time>
      </trkpt>
      <trkpt lat="42.9584" lon="2.58576">
        <ele>470.9</ele>
        <time>2021-03-21T08:04:00Z</time>
      </trkpt>
      <trkpt lat="42.9586" lon="2.58588">
        <ele>469.8</ele>
        <time>2021-03-21T08:04:02Z</time>
      </trkpt>
      <trkpt lat="42.9587" lon="2.58594">
        <ele>469.2</ele>
        <time>2021-03-21T08:04:03Z</time>
      </trkpt>
      <trkpt lat="42.95889" lon="2.5861">
        <ele>468</ele>
        <time>2021-03-21T08:04:05Z</time>
      </trkpt>
      <trkpt lat="42.95907" lon="2.58627">
        <ele>466.9</ele>
        <time>2021-03-21T08:04:07Z</time>
      </trkpt>
      <trkpt lat="42.95915" lon="2.58638">
        <ele>466.4</ele>
        <time>2021-03-21T08:04:08Z</time>
      </trkpt>
      <trkpt lat="42.95925" lon="2.58664">
        <ele>465.3</ele>
        <time>2021-03-21T08:04:10Z</time>
      </trkpt>
      <trkpt lat="42.95929" lon="2.58695">
        <ele>464.1</ele>
        <time>2021-03-21T08:04:12Z</time>
      </trkpt>
      <trkpt lat="42.9593" lon="2.58711">
        <ele>463.6</ele>
        <time>2021-03-21T08:04:13Z</time>
      </trkpt>
      <trkpt lat="42.95934" lon="2.58741">
        <ele>462.6</ele>
        <time>2021-03-21T08:04:15Z</time>
      </trkpt>
      <trkpt lat="42.9594" lon="2.58769">
        <ele>461.4</ele>
        <time>2021-03-21T08:04:17Z</time>
      </trkpt>
      <trkpt lat="42.95945" lon="2.58783">
        <ele>460.8</ele>
        <time>2021-03-21T08:04:18Z</time>
      </trkpt>
      <trkpt lat="42.95951" lon="2.58796">
        <ele>460.2</ele>
        <time>2021-03-21T08:04:19Z</time>
      </trkpt>
      <trkpt lat="42.95958" lon="2.58809">
        <ele>459.7</ele>
        <time>2021-03-21T08:04:20Z</time>
      </trkpt>
      <trkpt lat="42.95973" lon="2.58834">
        <ele>458.6</ele>
        <time>2021-03-21T08:04:22Z</time>
      </trkpt>
      <trkpt lat="42.9598" lon="2.58846">
        <ele>458.1</ele>
        <time>2021-03-21T08:04:23Z</time>
      </trkpt>
      <trkpt lat="42.95994" lon="2.58871">
        <ele>456.9</ele>
        <time>2021-03-21T08:04:25Z</time>
      </trkpt>
      <trkpt lat="42.96" lon="2.58885">
        <ele>456.3</ele>
        <time>2021-03-21T08:04:26Z</time>
      </trkpt>
      <trkpt lat="42.96005" lon="2.58899">
        <ele>455.6</ele>
        <time>2021-03-21T08:04:27Z</time>
      </trkpt>
      <trkpt lat="42.96011" lon="2.5893">
        <ele>454.4</ele>
        <time>2021-03-21T08:04:29Z</time>
      </trkpt>
      <trkpt lat="42.96015" lon="2.58963">
        <ele>453.2</ele>
        <time>2021-03-21T08:04:31Z</time>
      </trkpt>
      <trkpt lat="42.96017" lon="2.58981">
        <ele>452.5</ele>
        <time>2021-03-21T08:04:32Z</time>
      </trkpt>
      <trkpt lat="42.96019" lon="2.58998">
        <ele>451.9</ele>
        <time>2021-03-21T08:04:33Z</time>
      </trkpt>
      <trkpt lat="42.96024" lon="2.59034">
        <ele>450.6</ele>
        <time>2021-03-21T08:04:35Z</time>
      </trkpt>
      <trkpt lat="42.96027" lon="2.59052">
        <ele>449.8</ele>
        <time>2021-03-21T08:04:36Z</time>
      </trkpt>
      <trkpt lat="42.9603" lon="2.59071">
        <ele>449.1</ele>
        <time>2021-03-21T08:04:37Z</time>
      </trkpt>
      <trkpt lat="42.96034" lon="2.59089">
        <ele>448.5</ele>
        <time>2021-03-21T08:04:38Z</time>
      </trkpt>
      <trkpt lat="42.96042" lon="2.59125">
        <ele>447.3</ele>
        <time>2021-03-21T08:04:40Z</time>
      </trkpt>
      <trkpt lat="42.9605" lon="2.59159">
        <ele>446.2</ele>
        <time>2021-03-21T08:04:42Z</time>
      </trkpt>
      <trkpt lat="42.96053" lon="2.59192">
        <ele>445</ele>
        <time>2021-03-21T08:04:44Z</time>
      </trkpt>
      <trkpt lat="42.96049" lon="2.59207">
        <ele>444.3</ele>
        <time>2021-03-21T08:04:45Z</time>
      </trkpt>
      <trkpt lat="42.96032" lon="2.59233">
        <ele>443</ele>
        <time>2021-03-21T08:04:47Z</time>
      </trkpt>
      <trkpt lat="42.96008" lon="2.59253">
        <ele>441.6</ele>
        <time>2021-03-21T08:04:49Z</time>
      </trkpt>
      <trkpt lat="42.95983" lon="2.59267">
        <ele>440.3</ele>
        <time>2021-03-21T08:04:51Z</time>
      </trkpt>
      <trkpt lat="42.95957" lon="2.59271">
        <ele>439.1</ele>
        <time>2021-03-21T08:04:53Z</time>
      </trkpt>
      <trkpt lat="42.95931" lon="2.59254">
        <ele>437.8</ele>
        <time>2021-03-21T08:04:55Z</time>
      </trkpt>
      <trkpt lat="42.95919" lon="2.59248">
        <ele>437.2</ele>
        <time>2021-03-21T08:04:56Z</time>
      </trkpt>
      <trkpt lat="42.95895" lon="2.59253">
        <ele>436</ele>
        <time>2021-03-21T08:04:58Z</time>
      </trkpt>
      <trkpt lat="42.95885" lon="2.59262">
        <ele>435.4</ele>
        <time>2021-03-21T08:04:59Z</time>
      </trkpt>
      <trkpt lat="42.95868" lon="2.59282">
        <ele>434.2</ele>
        <time>2021-03-21T08:05:01Z</time>
      </trkpt>
      <trkpt lat="42.95862" lon="2.59312">
        <ele>433</ele>
        <time>2021-03-21T08:05:03Z</time>
      </trkpt>
      <trkpt lat="42.95871" lon="2.59343">
        <ele>431.8</ele>
        <time>2021-03-21T08:05:05Z</time>
      </trkpt>
      <trkpt lat="42.95878" lon="2.59356">
        <ele>431.2</ele>
        <time>2021-03-21T08:05:06Z</time>
      </trkpt>
      <trkpt lat="42.95889" lon="2.59384">
        <ele>430</ele>
        <time>2021-03-21T08:05:08Z</time>
      </trkpt>
      <trkpt lat="42.95892" lon="2.59399">
        <ele>429.4</ele>
        <time>2021-03-21T08:05:09Z</time>
      </trkpt>
      <trkpt lat="42.95898" lon="2.59429">
        <ele>428.2</ele>
        <time>2021-03-21T08:05:11Z</time>
      </trkpt>
      <trkpt lat="42.95903" lon="2.5946">
        <ele>427</ele>
        <time>2021-03-21T08:05:13Z</time>
      </trkpt>
      <trkpt lat="42.95906" lon="2.59475">
        <ele>426.3</ele>
        <time>2021-03-21T08:05:14Z</time>
      </trkpt>
      <trkpt lat="42.95909" lon="2.59491">
        <ele>425.7</ele>
        <time>2021-03-21T08:05:15Z</time>
      </trkpt>
      <trkpt lat="42.95915" lon="2.59523">
        <ele>424.4</ele>
        <time>2021-03-21T08:05:17Z</time>
      </trkpt>
      <trkpt lat="42.95918" lon="2.59538">
        <ele>423.7</ele>
        <time>2021-03-21T08:05:18Z</time>
      </trkpt>
      <trkpt lat="42.95925" lon="2.5957">
        <ele>422.4</ele>
        <time>2021-03-21T08:05:20Z</time>
      </trkpt>
      <trkpt lat="42.95927" lon="2.59586">
        <ele>421.7</ele>
        <time>2021-03-21T08:05:21Z</time>
      </trkpt>
      <trkpt lat="42.95931" lon="2.59619">
        <ele>420.4</ele>
        <time>2021-03-21T08:05:23Z</time>
      </trkpt>
      <trkpt lat="42.95934" lon="2.59636">
        <ele>419.7</ele>
        <time>2021-03-21T08:05:24Z</time>
      </trkpt>
      <trkpt lat="42.95938" lon="2.59652">
        <ele>419</ele>
        <time>2021-03-21T08:05:25Z</time>
      </trkpt>
      <trkpt lat="42.95941" lon="2.59669">
        <ele>418.4</ele>
        <time>2021-03-21T08:05:26Z</time>
      </trkpt>
      <trkpt lat="42.95942" lon="2.59685">
        <ele>417.7</ele>
        <time>2021-03-21T08:05:27Z</time>
      </trkpt>
      <trkpt lat="42.95938" lon="2.5972">
        <ele>416.4</ele>
        <time>2021-03-21T08:05:29Z</time>
      </trkpt>
      <trkpt lat="42.95935" lon="2.59737">
        <ele>415.9</ele>
        <time>2021-03-21T08:05:30Z</time>
      </trkpt>
      <trkpt lat="42.95928" lon="2.59772">
        <ele>414.8</ele>
        <time>2021-03-21T08:05:32Z</time>
      </trkpt>
      <trkpt lat="42.95923" lon="2.59788">
        <ele>414.3</ele>
        <time>2021-03-21T08:05:33Z</time>
      </trkpt>
      <trkpt lat="42.95903" lon="2.59806">
        <ele>413.3</ele>
        <time>2021-03-21T08:05:35Z</time>
      </trkpt>
      <trkpt lat="42.95878" lon="2.59798">
        <ele>412.6</ele>
        <time>2021-03-21T08:05:37Z</time>
      </trkpt>
      <trkpt lat="42.95866" lon="2.59796">
        <ele>412.4</ele>
        <time>2021-03-21T08:05:38Z</time>
      </trkpt>
      <trkpt lat="42.95854" lon="2.59799">
        <ele>412.3</ele>
        <time>2021-03-21T08:05:39Z</time>
      </trkpt>
      <trkpt lat="42.95846" lon="2.59809">
        <ele>412.1</ele>
        <time>2021-03-21T08:05:40Z</time>
      </trkpt>
      <trkpt lat="42.95842" lon="2.59841">
        <ele>411.3</ele>
        <time>2021-03-21T08:05:42Z</time>
      </trkpt>
      <trkpt lat="42.95844" lon="2.59857">
        <ele>410.8</ele>
        <time>2021-03-21T08:05:43Z</time>
      </trkpt>
      <trkpt lat="42.95847" lon="2.59889">
        <ele>409.9</ele>
        <time>2021-03-21T08:05:45Z</time>
      </trkpt>
      <trkpt lat="42.95839" lon="2.59918">
        <ele>408.9</ele>
        <time>2021-03-21T08:05:47Z</time>
      </trkpt>
      <trkpt lat="42.95828" lon="2.59928">
        <ele>408.4</ele>
        <time>2021-03-21T08:05:48Z</time>
      </trkpt>
      <trkpt lat="42.95816" lon="2.59934">
        <ele>407.9</ele>
        <time>2021-03-21T08:05:49Z</time>
      </trkpt>
      <trkpt lat="42.95804" lon="2.59941">
        <ele>407.5</ele>
        <time>2021-03-21T08:05:50Z</time>
      </trkpt>
      <trkpt lat="42.95794" lon="2.59951">
        <ele>407.1</ele>
        <time>2021-03-21T08:05:51Z</time>
      </trkpt>
      <trkpt lat="42.95791" lon="2.59984">
        <ele>406.5</ele>
        <time>2021-03-21T08:05:53Z</time>
      </trkpt>
      <trkpt lat="42.95808" lon="2.60014">
        <ele>405.6</ele>
        <time>2021-03-21T08:05:55Z</time>
      </trkpt>
      <trkpt lat="42.95818" lon="2.60026">
        <ele>405.2</ele>
        <time>2021-03-21T08:05:56Z</time>
      </trkpt>
      <trkpt lat="42.95838" lon="2.60048">
        <ele>404.4</ele>
        <time>2021-03-21T08:05:58Z</time>
      </trkpt>
      <trkpt lat="42.9586" lon="2.60066">
        <ele>403.5</ele>
        <time>2021-03-21T08:06:00Z</time>
      </trkpt>
      <trkpt lat="42.95883" lon="2.60077">
        <ele>402.6</ele>
        <time>2021-03-21T08:06:02Z</time>
      </trkpt>
      <trkpt lat="42.95903" lon="2.60092">
        <ele>401.9</ele>
        <time>2021-03-21T08:06:04Z</time>
      </trkpt>
      <trkpt lat="42.95915" lon="2.60116">
        <ele>401.3</ele>
        <time>2021-03-21T08:06:06Z</time>
      </trkpt>
      <trkpt lat="42.95919" lon="2.6013">
        <ele>400.8</ele>
        <time>2021-03-21T08:06:07Z</time>
      </trkpt>
      <trkpt lat="42.9592" lon="2.60145">
        <ele>400.4</ele>
        <time>2021-03-21T08:06:08Z</time>
      </trkpt>
      <trkpt lat="42.95922" lon="2.60176">
        <ele>399.6</ele>
        <time>2021-03-21T08:06:10Z</time>
      </trkpt>
      <trkpt lat="42.95923" lon="2.60207">
        <ele>398.7</ele>
        <time>2021-03-21T08:06:12Z</time>
      </trkpt>
      <trkpt lat="42.95923" lon="2.60222">
        <ele>398.3</ele>
        <time>2021-03-21T08:06:13Z</time>
      </trkpt>
      <trkpt lat="42.95921" lon="2.60238">
        <ele>397.7</ele>
        <time>2021-03-21T08:06:14Z</time>
      </trkpt>
      <trkpt lat="42.95917" lon="2.6027">
        <ele>396.8</ele>
        <time>2021-03-21T08:06:16Z</time>
      </trkpt>
      <trkpt lat="42.95913" lon="2.60285">
        <ele>396.5</ele>
        <time>2021-03-21T08:06:17Z</time>
      </trkpt>
      <trkpt lat="42.95908" lon="2.603">
        <ele>396.1</ele>
        <time>2021-03-21T08:06:18Z</time>
      </trkpt>
      <trkpt lat="42.95897" lon="2.60328">
        <ele>395.6</ele>
        <time>2021-03-21T08:06:20Z</time>
      </trkpt>
      <trkpt lat="42.95892" lon="2.60342">
        <ele>395.4</ele>
        <time>2021-03-21T08:06:21Z</time>
      </trkpt>
      <trkpt lat="42.95886" lon="2.60369">
        <ele>395.5</ele>
        <time>2021-03-21T08:06:23Z</time>
      </trkpt>
      <trkpt lat="42.95892" lon="2.60396">
        <ele>395.6</ele>
        <time>2021-03-21T08:06:25Z</time>
      </trkpt>
      <trkpt lat="42.95896" lon="2.60408">
        <ele>395.8</ele>
        <time>2021-03-21T08:06:26Z</time>
      </trkpt>
      <trkpt lat="42.95899" lon="2.60432">
        <ele>396.1</ele>
        <time>2021-03-21T08:06:28Z</time>
      </trkpt>
      <trkpt lat="42.959" lon="2.60443">
        <ele>396.2</ele>
        <time>2021-03-21T08:06:29Z</time>
      </trkpt>
      <trkpt lat="42.95899" lon="2.60464">
        <ele>396.5</ele>
        <time>2021-03-21T08:06:31Z</time>
      </trkpt>
      <trkpt lat="42.95899" lon="2.60486">
        <ele>396.8</ele>
        <time>2021-03-21T08:06:33Z</time>
      </trkpt>
      <trkpt lat="42.959" lon="2.60508">
        <ele>397.2</ele>
        <time>2021-03-21T08:06:35Z</time>
      </trkpt>
      <trkpt lat="42.959" lon="2.6052">
        <ele>397.4</ele>
        <time>2021-03-21T08:06:36Z</time>
      </trkpt>
      <trkpt lat="42.959" lon="2.60531">
        <ele>397.6</ele>
        <time>2021-03-21T08:06:37Z</time>
      </trkpt>
      <trkpt lat="42.95901" lon="2.60553">
        <ele>398</ele>
        <time>2021-03-21T08:06:39Z</time>
      </trkpt>
      <trkpt lat="42.95902" lon="2.60563">
        <ele>398.2</ele>
        <time>2021-03-21T08:06:40Z</time>
      </trkpt>
      <trkpt lat="42.95904" lon="2.60573">
        <ele>398.4</ele>
        <time>2021-03-21T08:06:41Z</time>
      </trkpt>
      <trkpt lat="42.95908" lon="2.60582">
        <ele>398.6</ele>
        <time>2021-03-21T08:06:42Z</time>
      </trkpt>
      <trkpt lat="42.9592" lon="2.60592">
        <ele>398.9</ele>
        <time>2021-03-21T08:06:44Z</time>
      </trkpt>
      <trkpt lat="42.95927" lon="2.60595">
        <ele>399.1</ele>
        <time>2021-03-21T08:06:45Z</time>
      </trkpt>
      <trkpt lat="42.95934" lon="2.60597">
        <ele>399.3</ele>
        <time>2021-03-21T08:06:46Z</time>
      </trkpt>
      <trkpt lat="42.95941" lon="2.606">
        <ele>399.6</ele>
        <time>2021-03-21T08:06:47Z</time>
      </trkpt>
      <trkpt lat="42.95953" lon="2.60605">
        <ele>400</ele>
        <time>2021-03-21T08:06:49Z</time>
      </trkpt>
      <trkpt lat="42.95958" lon="2.60609">
        <ele>400.5</ele>
        <time>2021-03-21T08:06:50Z</time>
      </trkpt>
      <trkpt lat="42.95967" lon="2.6062">
        <ele>400.7</ele>
        <time>2021-03-21T08:06:52Z</time>
      </trkpt>
      <trkpt lat="42.95972" lon="2.60635">
        <ele>400.9</ele>
        <time>2021-03-21T08:06:54Z</time>
      </trkpt>
      <trkpt lat="42.95974" lon="2.60642">
        <ele>400.9</ele>
        <time>2021-03-21T08:06:55Z</time>
      </trkpt>
      <trkpt lat="42.95974" lon="2.60649">
        <ele>401</ele>
        <time>2021-03-21T08:06:56Z</time>
      </trkpt>
      <trkpt lat="42.95972" lon="2.60664">
        <ele>401.1</ele>
        <time>2021-03-21T08:06:58Z</time>
      </trkpt>
      <trkpt lat="42.95967" lon="2.6068">
        <ele>401.2</ele>
        <time>2021-03-21T08:07:00Z</time>
      </trkpt>
      <trkpt lat="42.95957" lon="2.60691">
        <ele>401.4</ele>
        <time>2021-03-21T08:07:02Z</time>
      </trkpt>
      <trkpt lat="42.95951" lon="2.60693">
        <ele>401.6</ele>
        <time>2021-03-21T08:07:03Z</time>
      </trkpt>
      <trkpt lat="42.95945" lon="2.60694">
        <ele>401.8</ele>
        <time>2021-03-21T08:07:04Z</time>
      </trkpt>
      <trkpt lat="42.95934" lon="2.60695">
        <ele>402.2</ele>
        <time>2021-03-21T08:07:06Z</time>
      </trkpt>
      <trkpt lat="42.95925" lon="2.60699">
        <ele>402.7</ele>
        <time>2021-03-21T08:07:08Z</time>
      </trkpt>
      <trkpt lat="42.9592" lon="2.607">
        <ele>403</ele>
        <time>2021-03-21T08:07:09Z</time>
      </trkpt>
      <trkpt lat="42.95917" lon="2.60701">
        <ele>403.1</ele>
        <time>2021-03-21T08:07:10Z</time>
      </trkpt>
      <trkpt lat="42.95906" lon="2.60703">
        <ele>403.8</ele>
        <time>2021-03-21T08:07:12Z</time>
      </trkpt>
      <trkpt lat="42.95901" lon="2.60704">
        <ele>404.1</ele>
        <time>2021-03-21T08:07:13Z</time>
      </trkpt>
      <trkpt lat="42.95891" lon="2.60707">
        <ele>404.1</ele>
        <time>2021-03-21T08:07:15Z</time>
      </trkpt>
      <trkpt lat="42.95881" lon="2.6071">
        <ele>404.5</ele>
        <time>2021-03-21T08:07:17Z</time>
      </trkpt>
      <trkpt lat="42.95876" lon="2.60711">
        <ele>404.7</ele>
        <time>2021-03-21T08:07:18Z</time>
      </trkpt>
      <trkpt lat="42.95871" lon="2.60711">
        <ele>404.9</ele>
        <time>2021-03-21T08:07:19Z</time>
      </trkpt>
      <trkpt lat="42.95861" lon="2.6071">
        <ele>405.4</ele>
        <time>2021-03-21T08:07:21Z</time>
      </trkpt>
      <trkpt lat="42.95852" lon="2.60707">
        <ele>405.8</ele>
        <time>2021-03-21T08:07:23Z</time>
      </trkpt>
      <trkpt lat="42.95848" lon="2.60704">
        <ele>406.1</ele>
        <time>2021-03-21T08:07:24Z</time>
      </trkpt>
      <trkpt lat="42.95839" lon="2.60697">
        <ele>406.6</ele>
        <time>2021-03-21T08:07:26Z</time>
      </trkpt>
      <trkpt lat="42.95833" lon="2.6069">
        <ele>407.1</ele>
        <time>2021-03-21T08:07:28Z</time>
      </trkpt>
      <trkpt lat="42.9583" lon="2.60685">
        <ele>407.4</ele>
        <time>2021-03-21T08:07:29Z</time>
      </trkpt>
      <trkpt lat="42.95825" lon="2.60677">
        <ele>407.8</ele>
        <time>2021-03-21T08:07:31Z</time>
      </trkpt>
      <trkpt lat="42.95823" lon="2.60673">
        <ele>408.1</ele>
        <time>2021-03-21T08:07:32Z</time>
      </trkpt>
      <trkpt lat="42.95828" lon="2.6067">
        <ele>408.4</ele>
        <time>2021-03-21T08:07:34Z</time>
      </trkpt>
      <trkpt lat="42.95825" lon="2.60663">
        <ele>408.8</ele>
        <time>2021-03-21T08:07:35Z</time>
      </trkpt>
      <trkpt lat="42.95821" lon="2.60656">
        <ele>409.2</ele>
        <time>2021-03-21T08:07:36Z</time>
      </trkpt>
      <trkpt lat="42.95817" lon="2.60649">
        <ele>409.6</ele>
        <time>2021-03-21T08:07:38Z</time>
      </trkpt>
      <trkpt lat="42.95814" lon="2.60644">
        <ele>409.8</ele>
        <time>2021-03-21T08:07:39Z</time>
      </trkpt>
      <trkpt lat="42.95812" lon="2.60638">
        <ele>410.1</ele>
        <time>2021-03-21T08:07:40Z</time>
      </trkpt>
      <trkpt lat="42.95811" lon="2.60633">
        <ele>410.3</ele>
        <time>2021-03-21T08:07:41Z</time>
      </trkpt>
      <trkpt lat="42.95809" lon="2.60625">
        <ele>410.6</ele>
        <time>2021-03-21T08:07:43Z</time>
      </trkpt>
      <trkpt lat="42.95808" lon="2.60621">
        <ele>410.8</ele>
        <time>2021-03-21T08:07:44Z</time>
      </trkpt>
      <trkpt lat="42.95807" lon="2.60615">
        <ele>411</ele>
        <time>2021-03-21T08:07:45Z</time>
      </trkpt>
      <trkpt lat="42.95806" lon="2.6061">
        <ele>411.2</ele>
        <time>2021-03-21T08:07:46Z</time>
      </trkpt>
      <trkpt lat="42.95805" lon="2.60604">
        <ele>411.5</ele>
        <time>2021-03-21T08:07:47Z</time>
      </trkpt>
      <trkpt lat="42.95803" lon="2.60597">
        <ele>411.8</ele>
        <time>2021-03-21T08:07:49Z</time>
      </trkpt>
      <trkpt lat="42.95801" lon="2.60591">
        <ele>412</ele>
        <time>2021-03-21T08:07:50Z</time>
      </trkpt>
      <trkpt lat="42.958" lon="2.60584">
        <ele>412.3</ele>
        <time>2021-03-21T08:07:52Z</time>
      </trkpt>
      <trkpt lat="42.95799" lon="2.60578">
        <ele>412.5</ele>
        <time>2021-03-21T08:07:53Z</time>
      </trkpt>
      <trkpt lat="42.95797" lon="2.60572">
        <ele>412.8</ele>
        <time>2021-03-21T08:07:54Z</time>
      </trkpt>
      <trkpt lat="42.95794" lon="2.60567">
        <ele>413</ele>
        <time>2021-03-21T08:07:55Z</time>
      </trkpt>
      <trkpt lat="42.95791" lon="2.60563">
        <ele>413.2</ele>
        <time>2021-03-21T08:07:56Z</time>
      </trkpt>
      <trkpt lat="42.95788" lon="2.60559">
        <ele>413.5</ele>
        <time>2021-03-21T08:07:58Z</time>
      </trkpt>
      <trkpt lat="42.95784" lon="2.60557">
        <ele>413.7</ele>
        <time>2021-03-21T08:07:59Z</time>
      </trkpt>
      <trkpt lat="42.95779" lon="2.60557">
        <ele>414</ele>
        <time>2021-03-21T08:08:00Z</time>
      </trkpt>
      <trkpt lat="42.95775" lon="2.60559">
        <ele>414.2</ele>
        <time>2021-03-21T08:08:01Z</time>
      </trkpt>
      <trkpt lat="42.95771" lon="2.60564">
        <ele>414.6</ele>
        <time>2021-03-21T08:08:02Z</time>
      </trkpt>
      <trkpt lat="42.95768" lon="2.60571">
        <ele>415.1</ele>
        <time>2021-03-21T08:08:03Z</time>
      </trkpt>
      <trkpt lat="42.95766" lon="2.60579">
        <ele>415.5</ele>
        <time>2021-03-21T08:08:04Z</time>
      </trkpt>
      <trkpt lat="42.95766" lon="2.60586">
        <ele>415.9</ele>
        <time>2021-03-21T08:08:06Z</time>
      </trkpt>
      <trkpt lat="42.95766" lon="2.60593">
        <ele>416.2</ele>
        <time>2021-03-21T08:08:07Z</time>
      </trkpt>
      <trkpt lat="42.95767" lon="2.60605">
        <ele>416.7</ele>
        <time>2021-03-21T08:08:09Z</time>
      </trkpt>
      <trkpt lat="42.95768" lon="2.60613">
        <ele>417.1</ele>
        <time>2021-03-21T08:08:10Z</time>
      </trkpt>
      <trkpt lat="42.95768" lon="2.60624">
        <ele>417.6</ele>
        <time>2021-03-21T08:08:12Z</time>
      </trkpt>
      <trkpt lat="42.95767" lon="2.60631">
        <ele>417.9</ele>
        <time>2021-03-21T08:08:14Z</time>
      </trkpt>
      <trkpt lat="42.95767" lon="2.60637">
        <ele>418.2</ele>
        <time>2021-03-21T08:08:15Z</time>
      </trkpt>
      <trkpt lat="42.95766" lon="2.60645">
        <ele>418.5</ele>
        <time>2021-03-21T08:08:16Z</time>
      </trkpt>
      <trkpt lat="42.95765" lon="2.6065">
        <ele>418.8</ele>
        <time>2021-03-21T08:08:17Z</time>
      </trkpt>
      <trkpt lat="42.95765" lon="2.60655">
        <ele>419</ele>
        <time>2021-03-21T08:08:18Z</time>
      </trkpt>
      <trkpt lat="42.95764" lon="2.60663">
        <ele>419.4</ele>
        <time>2021-03-21T08:08:20Z</time>
      </trkpt>
      <trkpt lat="42.95763" lon="2.60668">
        <ele>419.7</ele>
        <time>2021-03-21T08:08:21Z</time>
      </trkpt>
      <trkpt lat="42.95762" lon="2.60675">
        <ele>420</ele>
        <time>2021-03-21T08:08:22Z</time>
      </trkpt>
      <trkpt lat="42.95761" lon="2.60681">
        <ele>420.3</ele>
        <time>2021-03-21T08:08:23Z</time>
      </trkpt>
      <trkpt lat="42.9576" lon="2.60688">
        <ele>420.6</ele>
        <time>2021-03-21T08:08:25Z</time>
      </trkpt>
      <trkpt lat="42.95759" lon="2.60694">
        <ele>420.9</ele>
        <time>2021-03-21T08:08:26Z</time>
      </trkpt>
      <trkpt lat="42.95758" lon="2.60701">
        <ele>421.2</ele>
        <time>2021-03-21T08:08:27Z</time>
      </trkpt>
      <trkpt lat="42.95758" lon="2.60706">
        <ele>421.5</ele>
        <time>2021-03-21T08:08:28Z</time>
      </trkpt>
      <trkpt lat="42.95756" lon="2.60717">
        <ele>422</ele>
        <time>2021-03-21T08:08:30Z</time>
      </trkpt>
      <trkpt lat="42.95755" lon="2.60723">
        <ele>422.2</ele>
        <time>2021-03-21T08:08:31Z</time>
      </trkpt>
      <trkpt lat="42.95754" lon="2.60729">
        <ele>422.5</ele>
        <time>2021-03-21T08:08:32Z</time>
      </trkpt>
      <trkpt lat="42.95753" lon="2.60736">
        <ele>422.8</ele>
        <time>2021-03-21T08:08:34Z</time>
      </trkpt>
      <trkpt lat="42.95752" lon="2.60745">
        <ele>423.1</ele>
        <time>2021-03-21T08:08:35Z</time>
      </trkpt>
      <trkpt lat="42.95751" lon="2.6075">
        <ele>423.4</ele>
        <time>2021-03-21T08:08:36Z</time>
      </trkpt>
      <trkpt lat="42.95751" lon="2.60756">
        <ele>423.6</ele>
        <time>2021-03-21T08:08:37Z</time>
      </trkpt>
      <trkpt lat="42.9575" lon="2.60762">
        <ele>423.9</ele>
        <time>2021-03-21T08:08:38Z</time>
      </trkpt>
      <trkpt lat="42.95748" lon="2.60771">
        <ele>424.2</ele>
        <time>2021-03-21T08:08:40Z</time>
      </trkpt>
      <trkpt lat="42.95747" lon="2.60777">
        <ele>424.5</ele>
        <time>2021-03-21T08:08:41Z</time>
      </trkpt>
      <trkpt lat="42.95747" lon="2.60783">
        <ele>424.7</ele>
        <time>2021-03-21T08:08:42Z</time>
      </trkpt>
      <trkpt lat="42.95746" lon="2.6079">
        <ele>425</ele>
        <time>2021-03-21T08:08:43Z</time>
      </trkpt>
      <trkpt lat="42.95745" lon="2.60796">
        <ele>425.2</ele>
        <time>2021-03-21T08:08:45Z</time>
      </trkpt>
      <trkpt lat="42.95744" lon="2.60802">
        <ele>425.5</ele>
        <time>2021-03-21T08:08:46Z</time>
      </trkpt>
      <trkpt lat="42.95743" lon="2.60809">
        <ele>425.8</ele>
        <time>2021-03-21T08:08:47Z</time>
      </trkpt>
      <trkpt lat="42.95741" lon="2.60817">
        <ele>426.2</ele>
        <time>2021-03-21T08:08:49Z</time>
      </trkpt>
      <trkpt lat="42.95738" lon="2.60825">
        <ele>426.5</ele>
        <time>2021-03-21T08:08:50Z</time>
      </trkpt>
      <trkpt lat="42.95737" lon="2.6083">
        <ele>426.7</ele>
        <time>2021-03-21T08:08:51Z</time>
      </trkpt>
      <trkpt lat="42.95734" lon="2.60836">
        <ele>427.1</ele>
        <time>2021-03-21T08:08:53Z</time>
      </trkpt>
      <trkpt lat="42.95733" lon="2.60842">
        <ele>427.3</ele>
        <time>2021-03-21T08:08:54Z</time>
      </trkpt>
      <trkpt lat="42.95731" lon="2.60849">
        <ele>427.6</ele>
        <time>2021-03-21T08:08:55Z</time>
      </trkpt>
      <trkpt lat="42.95728" lon="2.60855">
        <ele>427.9</ele>
        <time>2021-03-21T08:08:56Z</time>
      </trkpt>
      <trkpt lat="42.95726" lon="2.60862">
        <ele>428.2</ele>
        <time>2021-03-21T08:08:58Z</time>
      </trkpt>
      <trkpt lat="42.95724" lon="2.60868">
        <ele>428.5</ele>
        <time>2021-03-21T08:08:59Z</time>
      </trkpt>
      <trkpt lat="42.95721" lon="2.60873">
        <ele>428.7</ele>
        <time>2021-03-21T08:09:00Z</time>
      </trkpt>
      <trkpt lat="42.95718" lon="2.60881">
        <ele>429.1</ele>
        <time>2021-03-21T08:09:02Z</time>
      </trkpt>
      <trkpt lat="42.95715" lon="2.60888">
        <ele>429.4</ele>
        <time>2021-03-21T08:09:03Z</time>
      </trkpt>
      <trkpt lat="42.95712" lon="2.60894">
        <ele>429.7</ele>
        <time>2021-03-21T08:09:05Z</time>
      </trkpt>
      <trkpt lat="42.95709" lon="2.60898">
        <ele>429.9</ele>
        <time>2021-03-21T08:09:06Z</time>
      </trkpt>
      <trkpt lat="42.95706" lon="2.60902">
        <ele>430.2</ele>
        <time>2021-03-21T08:09:07Z</time>
      </trkpt>
      <trkpt lat="42.957" lon="2.6091">
        <ele>430.6</ele>
        <time>2021-03-21T08:09:09Z</time>
      </trkpt>
      <trkpt lat="42.95694" lon="2.60917">
        <ele>431</ele>
        <time>2021-03-21T08:09:11Z</time>
      </trkpt>
      <trkpt lat="42.9569" lon="2.60922">
        <ele>431.3</ele>
        <time>2021-03-21T08:09:13Z</time>
      </trkpt>
      <trkpt lat="42.95685" lon="2.60927">
        <ele>431.6</ele>
        <time>2021-03-21T08:09:14Z</time>
      </trkpt>
      <trkpt lat="42.95682" lon="2.60931">
        <ele>431.9</ele>
        <time>2021-03-21T08:09:15Z</time>
      </trkpt>
      <trkpt lat="42.95677" lon="2.60937">
        <ele>432.2</ele>
        <time>2021-03-21T08:09:17Z</time>
      </trkpt>
      <trkpt lat="42.95672" lon="2.60942">
        <ele>432.6</ele>
        <time>2021-03-21T08:09:18Z</time>
      </trkpt>
      <trkpt lat="42.95668" lon="2.60946">
        <ele>432.9</ele>
        <time>2021-03-21T08:09:19Z</time>
      </trkpt>
      <trkpt lat="42.95665" lon="2.60951">
        <ele>433.2</ele>
        <time>2021-03-21T08:09:20Z</time>
      </trkpt>
      <trkpt lat="42.9566" lon="2.60956">
        <ele>433.5</ele>
        <time>2021-03-21T08:09:22Z</time>
      </trkpt>
      <trkpt lat="42.95656" lon="2.6096">
        <ele>433.8</ele>
        <time>2021-03-21T08:09:23Z</time>
      </trkpt>
      <trkpt lat="42.95652" lon="2.60965">
        <ele>434.2</ele>
        <time>2021-03-21T08:09:25Z</time>
      </trkpt>
      <trkpt lat="42.95647" lon="2.60968">
        <ele>434.5</ele>
        <time>2021-03-21T08:09:26Z</time>
      </trkpt>
      <trkpt lat="42.95643" lon="2.6097">
        <ele>434.8</ele>
        <time>2021-03-21T08:09:27Z</time>
      </trkpt>
      <trkpt lat="42.95639" lon="2.60971">
        <ele>435.1</ele>
        <time>2021-03-21T08:09:28Z</time>
      </trkpt>
      <trkpt lat="42.95634" lon="2.60973">
        <ele>435.4</ele>
        <time>2021-03-21T08:09:30Z</time>
      </trkpt>
      <trkpt lat="42.95628" lon="2.60973">
        <ele>435.8</ele>
        <time>2021-03-21T08:09:31Z</time>
      </trkpt>
      <trkpt lat="42.95623" lon="2.60973">
        <ele>436.1</ele>
        <time>2021-03-21T08:09:32Z</time>
      </trkpt>
      <trkpt lat="42.9562" lon="2.60973">
        <ele>436.4</ele>
        <time>2021-03-21T08:09:33Z</time>
      </trkpt>
      <trkpt lat="42.95616" lon="2.60972">
        <ele>436.6</ele>
        <time>2021-03-21T08:09:34Z</time>
      </trkpt>
      <trkpt lat="42.95608" lon="2.6097">
        <ele>437.1</ele>
        <time>2021-03-21T08:09:36Z</time>
      </trkpt>
      <trkpt lat="42.95601" lon="2.60969">
        <ele>437.6</ele>
        <time>2021-03-21T08:09:38Z</time>
      </trkpt>
      <trkpt lat="42.95596" lon="2.60969">
        <ele>437.9</ele>
        <time>2021-03-21T08:09:39Z</time>
      </trkpt>
      <trkpt lat="42.95589" lon="2.60968">
        <ele>438.4</ele>
        <time>2021-03-21T08:09:41Z</time>
      </trkpt>
      <trkpt lat="42.95583" lon="2.60967">
        <ele>438.8</ele>
        <time>2021-03-21T08:09:43Z</time>
      </trkpt>
      <trkpt lat="42.95578" lon="2.60967">
        <ele>439.2</ele>
        <time>2021-03-21T08:09:44Z</time>
      </trkpt>
      <trkpt lat="42.95574" lon="2.60967">
        <ele>439.5</ele>
        <time>2021-03-21T08:09:45Z</time>
      </trkpt>
      <trkpt lat="42.95567" lon="2.60967">
        <ele>439.9</ele>
        <time>2021-03-21T08:09:47Z</time>
      </trkpt>
      <trkpt lat="42.95563" lon="2.60968">
        <ele>440.2</ele>
        <time>2021-03-21T08:09:48Z</time>
      </trkpt>
      <trkpt lat="42.95559" lon="2.60968">
        <ele>440.5</ele>
        <time>2021-03-21T08:09:49Z</time>
      </trkpt>
      <trkpt lat="42.95554" lon="2.6097">
        <ele>440.8</ele>
        <time>2021-03-21T08:09:51Z</time>
      </trkpt>
      <trkpt lat="42.95547" lon="2.60973">
        <ele>441.3</ele>
        <time>2021-03-21T08:09:52Z</time>
      </trkpt>
      <trkpt lat="42.9554" lon="2.60976">
        <ele>441.8</ele>
        <time>2021-03-21T08:09:54Z</time>
      </trkpt>
      <trkpt lat="42.95534" lon="2.60979">
        <ele>442.2</ele>
        <time>2021-03-21T08:09:56Z</time>
      </trkpt>
      <trkpt lat="42.95528" lon="2.60983">
        <ele>442.6</ele>
        <time>2021-03-21T08:09:57Z</time>
      </trkpt>
      <trkpt lat="42.95523" lon="2.60988">
        <ele>443</ele>
        <time>2021-03-21T08:09:59Z</time>
      </trkpt>
      <trkpt lat="42.95519" lon="2.60991">
        <ele>443.2</ele>
        <time>2021-03-21T08:10:00Z</time>
      </trkpt>
      <trkpt lat="42.95515" lon="2.60994">
        <ele>443.5</ele>
        <time>2021-03-21T08:10:01Z</time>
      </trkpt>
      <trkpt lat="42.95511" lon="2.60998">
        <ele>443.8</ele>
        <time>2021-03-21T08:10:02Z</time>
      </trkpt>
      <trkpt lat="42.95506" lon="2.61002">
        <ele>444.1</ele>
        <time>2021-03-21T08:10:04Z</time>
      </trkpt>
      <trkpt lat="42.95501" lon="2.61006">
        <ele>444.5</ele>
        <time>2021-03-21T08:10:05Z</time>
      </trkpt>
      <trkpt lat="42.95498" lon="2.61009">
        <ele>444.7</ele>
        <time>2021-03-21T08:10:06Z</time>
      </trkpt>
      <trkpt lat="42.95494" lon="2.61012">
        <ele>445</ele>
        <time>2021-03-21T08:10:07Z</time>
      </trkpt>
      <trkpt lat="42.95489" lon="2.61016">
        <ele>445.3</ele>
        <time>2021-03-21T08:10:09Z</time>
      </trkpt>
      <trkpt lat="42.95485" lon="2.61019">
        <ele>445.5</ele>
        <time>2021-03-21T08:10:10Z</time>
      </trkpt>
      <trkpt lat="42.9548" lon="2.61022">
        <ele>445.9</ele>
        <time>2021-03-21T08:10:11Z</time>
      </trkpt>
      <trkpt lat="42.95474" lon="2.61025">
        <ele>446.3</ele>
        <time>2021-03-21T08:10:13Z</time>
      </trkpt>
      <trkpt lat="42.95468" lon="2.61028">
        <ele>446.6</ele>
        <time>2021-03-21T08:10:14Z</time>
      </trkpt>
      <trkpt lat="42.95463" lon="2.6103">
        <ele>446.9</ele>
        <time>2021-03-21T08:10:16Z</time>
      </trkpt>
      <trkpt lat="42.95457" lon="2.61032">
        <ele>447.2</ele>
        <time>2021-03-21T08:10:17Z</time>
      </trkpt>
      <trkpt lat="42.95453" lon="2.61034">
        <ele>447.5</ele>
        <time>2021-03-21T08:10:18Z</time>
      </trkpt>
      <trkpt lat="42.95447" lon="2.61036">
        <ele>447.8</ele>
        <time>2021-03-21T08:10:19Z</time>
      </trkpt>
      <trkpt lat="42.95443" lon="2.61038">
        <ele>448</ele>
        <time>2021-03-21T08:10:20Z</time>
      </trkpt>
      <trkpt lat="42.95435" lon="2.61042">
        <ele>448.4</ele>
        <time>2021-03-21T08:10:22Z</time>
      </trkpt>
      <trkpt lat="42.95429" lon="2.61045">
        <ele>448.8</ele>
        <time>2021-03-21T08:10:24Z</time>
      </trkpt>
      <trkpt lat="42.95425" lon="2.61047">
        <ele>449</ele>
        <time>2021-03-21T08:10:25Z</time>
      </trkpt>
      <trkpt lat="42.9542" lon="2.61049">
        <ele>449.3</ele>
        <time>2021-03-21T08:10:26Z</time>
      </trkpt>
      <trkpt lat="42.95415" lon="2.61051">
        <ele>449.6</ele>
        <time>2021-03-21T08:10:28Z</time>
      </trkpt>
      <trkpt lat="42.95411" lon="2.61052">
        <ele>449.8</ele>
        <time>2021-03-21T08:10:29Z</time>
      </trkpt>
      <trkpt lat="42.95405" lon="2.61053">
        <ele>450.1</ele>
        <time>2021-03-21T08:10:30Z</time>
      </trkpt>
      <trkpt lat="42.954" lon="2.61054">
        <ele>450.3</ele>
        <time>2021-03-21T08:10:31Z</time>
      </trkpt>
      <trkpt lat="42.95392" lon="2.61055">
        <ele>450.7</ele>
        <time>2021-03-21T08:10:33Z</time>
      </trkpt>
      <trkpt lat="42.95386" lon="2.61055">
        <ele>450.9</ele>
        <time>2021-03-21T08:10:34Z</time>
      </trkpt>
      <trkpt lat="42.9538" lon="2.61055">
        <ele>451.1</ele>
        <time>2021-03-21T08:10:35Z</time>
      </trkpt>
      <trkpt lat="42.95369" lon="2.61053">
        <ele>451.4</ele>
        <time>2021-03-21T08:10:37Z</time>
      </trkpt>
      <trkpt lat="42.95364" lon="2.61052">
        <ele>451.4</ele>
        <time>2021-03-21T08:10:38Z</time>
      </trkpt>
      <trkpt lat="42.95352" lon="2.61047">
        <ele>451.4</ele>
        <time>2021-03-21T08:10:40Z</time>
      </trkpt>
      <trkpt lat="42.95347" lon="2.61043">
        <ele>451.3</ele>
        <time>2021-03-21T08:10:41Z</time>
      </trkpt>
      <trkpt lat="42.95337" lon="2.61035">
        <ele>451.2</ele>
        <time>2021-03-21T08:10:43Z</time>
      </trkpt>
      <trkpt lat="42.95332" lon="2.61031">
        <ele>451.1</ele>
        <time>2021-03-21T08:10:44Z</time>
      </trkpt>
      <trkpt lat="42.95321" lon="2.61023">
        <ele>450.9</ele>
        <time>2021-03-21T08:10:46Z</time>
      </trkpt>
      <trkpt lat="42.9531" lon="2.61018">
        <ele>450.7</ele>
        <time>2021-03-21T08:10:48Z</time>
      </trkpt>
      <trkpt lat="42.95298" lon="2.61017">
        <ele>450.5</ele>
        <time>2021-03-21T08:10:50Z</time>
      </trkpt>
      <trkpt lat="42.95292" lon="2.61019">
        <ele>450.4</ele>
        <time>2021-03-21T08:10:51Z</time>
      </trkpt>
      <trkpt lat="42.95286" lon="2.61022">
        <ele>450.3</ele>
        <time>2021-03-21T08:10:52Z</time>
      </trkpt>
      <trkpt lat="42.95275" lon="2.61035">
        <ele>450</ele>
        <time>2021-03-21T08:10:54Z</time>
      </trkpt>
      <trkpt lat="42.9527" lon="2.61043">
        <ele>449.8</ele>
        <time>2021-03-21T08:10:55Z</time>
      </trkpt>
      <trkpt lat="42.95263" lon="2.61059">
        <ele>449.6</ele>
        <time>2021-03-21T08:10:57Z</time>
      </trkpt>
      <trkpt lat="42.95259" lon="2.61067">
        <ele>449.5</ele>
        <time>2021-03-21T08:10:58Z</time>
      </trkpt>
      <trkpt lat="42.95256" lon="2.61075">
        <ele>449.4</ele>
        <time>2021-03-21T08:10:59Z</time>
      </trkpt>
      <trkpt lat="42.95253" lon="2.61082">
        <ele>449.3</ele>
        <time>2021-03-21T08:11:00Z</time>
      </trkpt>
      <trkpt lat="42.95249" lon="2.6109">
        <ele>449.2</ele>
        <time>2021-03-21T08:11:01Z</time>
      </trkpt>
      <trkpt lat="42.9524" lon="2.61103">
        <ele>448.9</ele>
        <time>2021-03-21T08:11:03Z</time>
      </trkpt>
      <trkpt lat="42.9523" lon="2.61115">
        <ele>448.7</ele>
        <time>2021-03-21T08:11:05Z</time>
      </trkpt>
      <trkpt lat="42.95218" lon="2.61123">
        <ele>448.5</ele>
        <time>2021-03-21T08:11:07Z</time>
      </trkpt>
      <trkpt lat="42.95204" lon="2.61129">
        <ele>448.3</ele>
        <time>2021-03-21T08:11:09Z</time>
      </trkpt>
      <trkpt lat="42.9519" lon="2.61133">
        <ele>448</ele>
        <time>2021-03-21T08:11:11Z</time>
      </trkpt>
      <trkpt lat="42.95183" lon="2.61133">
        <ele>448</ele>
        <time>2021-03-21T08:11:12Z</time>
      </trkpt>
      <trkpt lat="42.95175" lon="2.61133">
        <ele>447.9</ele>
        <time>2021-03-21T08:11:13Z</time>
      </trkpt>
      <trkpt lat="42.95167" lon="2.61132">
        <ele>447.8</ele>
        <time>2021-03-21T08:11:14Z</time>
      </trkpt>
      <trkpt lat="42.95151" lon="2.61128">
        <ele>447.6</ele>
        <time>2021-03-21T08:11:16Z</time>
      </trkpt>
      <trkpt lat="42.95144" lon="2.61125">
        <ele>447.5</ele>
        <time>2021-03-21T08:11:17Z</time>
      </trkpt>
      <trkpt lat="42.9513" lon="2.61115">
        <ele>447.3</ele>
        <time>2021-03-21T08:11:19Z</time>
      </trkpt>
      <trkpt lat="42.95124" lon="2.61107">
        <ele>447.2</ele>
        <time>2021-03-21T08:11:20Z</time>
      </trkpt>
      <trkpt lat="42.95119" lon="2.61099">
        <ele>447.1</ele>
        <time>2021-03-21T08:11:21Z</time>
      </trkpt>
      <trkpt lat="42.95114" lon="2.61091">
        <ele>447</ele>
        <time>2021-03-21T08:11:22Z</time>
      </trkpt>
      <trkpt lat="42.95101" lon="2.6108">
        <ele>446.8</ele>
        <time>2021-03-21T08:11:24Z</time>
      </trkpt>
      <trkpt lat="42.95094" lon="2.61079">
        <ele>446.6</ele>
        <time>2021-03-21T08:11:25Z</time>
      </trkpt>
      <trkpt lat="42.95079" lon="2.61083">
        <ele>445.8</ele>
        <time>2021-03-21T08:11:27Z</time>
      </trkpt>
      <trkpt lat="42.95071" lon="2.61087">
        <ele>445.3</ele>
        <time>2021-03-21T08:11:28Z</time>
      </trkpt>
      <trkpt lat="42.95057" lon="2.61096">
        <ele>444.4</ele>
        <time>2021-03-21T08:11:30Z</time>
      </trkpt>
      <trkpt lat="42.95049" lon="2.611">
        <ele>443.8</ele>
        <time>2021-03-21T08:11:31Z</time>
      </trkpt>
      <trkpt lat="42.95042" lon="2.61103">
        <ele>443.3</ele>
        <time>2021-03-21T08:11:32Z</time>
      </trkpt>
      <trkpt lat="42.95025" lon="2.61111">
        <ele>442.1</ele>
        <time>2021-03-21T08:11:34Z</time>
      </trkpt>
      <trkpt lat="42.95008" lon="2.61119">
        <ele>441</ele>
        <time>2021-03-21T08:11:36Z</time>
      </trkpt>
      <trkpt lat="42.9499" lon="2.61126">
        <ele>439.8</ele>
        <time>2021-03-21T08:11:38Z</time>
      </trkpt>
      <trkpt lat="42.94981" lon="2.61131">
        <ele>439.2</ele>
        <time>2021-03-21T08:11:39Z</time>
      </trkpt>
      <trkpt lat="42.94972" lon="2.61136">
        <ele>438.6</ele>
        <time>2021-03-21T08:11:40Z</time>
      </trkpt>
      <trkpt lat="42.94957" lon="2.61155">
        <ele>437.1</ele>
        <time>2021-03-21T08:11:42Z</time>
      </trkpt>
      <trkpt lat="42.94951" lon="2.61167">
        <ele>436.3</ele>
        <time>2021-03-21T08:11:43Z</time>
      </trkpt>
      <trkpt lat="42.9494" lon="2.61193">
        <ele>434.7</ele>
        <time>2021-03-21T08:11:45Z</time>
      </trkpt>
      <trkpt lat="42.94929" lon="2.61217">
        <ele>433.2</ele>
        <time>2021-03-21T08:11:47Z</time>
      </trkpt>
      <trkpt lat="42.94916" lon="2.61238">
        <ele>431.6</ele>
        <time>2021-03-21T08:11:49Z</time>
      </trkpt>
      <trkpt lat="42.94908" lon="2.61248">
        <ele>430.8</ele>
        <time>2021-03-21T08:11:50Z</time>
      </trkpt>
      <trkpt lat="42.949" lon="2.61257">
        <ele>430</ele>
        <time>2021-03-21T08:11:51Z</time>
      </trkpt>
      <trkpt lat="42.94881" lon="2.61272">
        <ele>428.6</ele>
        <time>2021-03-21T08:11:53Z</time>
      </trkpt>
      <trkpt lat="42.9486" lon="2.61286">
        <ele>427.8</ele>
        <time>2021-03-21T08:11:55Z</time>
      </trkpt>
      <trkpt lat="42.9484" lon="2.613">
        <ele>427.4</ele>
        <time>2021-03-21T08:11:57Z</time>
      </trkpt>
      <trkpt lat="42.9483" lon="2.61308">
        <ele>427.3</ele>
        <time>2021-03-21T08:11:58Z</time>
      </trkpt>
      <trkpt lat="42.94823" lon="2.61318">
        <ele>426.9</ele>
        <time>2021-03-21T08:11:59Z</time>
      </trkpt>
      <trkpt lat="42.9482" lon="2.61332">
        <ele>426.2</ele>
        <time>2021-03-21T08:12:00Z</time>
      </trkpt>
      <trkpt lat="42.9483" lon="2.61358">
        <ele>424.4</ele>
        <time>2021-03-21T08:12:02Z</time>
      </trkpt>
      <trkpt lat="42.94836" lon="2.61371">
        <ele>423.6</ele>
        <time>2021-03-21T08:12:03Z</time>
      </trkpt>
      <trkpt lat="42.9484" lon="2.61384">
        <ele>422.7</ele>
        <time>2021-03-21T08:12:04Z</time>
      </trkpt>
      <trkpt lat="42.94843" lon="2.61413">
        <ele>421.3</ele>
        <time>2021-03-21T08:12:06Z</time>
      </trkpt>
      <trkpt lat="42.94848" lon="2.61442">
        <ele>419.8</ele>
        <time>2021-03-21T08:12:08Z</time>
      </trkpt>
      <trkpt lat="42.9485" lon="2.61458">
        <ele>419.1</ele>
        <time>2021-03-21T08:12:09Z</time>
      </trkpt>
      <trkpt lat="42.94851" lon="2.61473">
        <ele>418.4</ele>
        <time>2021-03-21T08:12:10Z</time>
      </trkpt>
      <trkpt lat="42.94852" lon="2.61503">
        <ele>417.3</ele>
        <time>2021-03-21T08:12:12Z</time>
      </trkpt>
      <trkpt lat="42.94851" lon="2.61518">
        <ele>416.7</ele>
        <time>2021-03-21T08:12:13Z</time>
      </trkpt>
      <trkpt lat="42.94848" lon="2.61545">
        <ele>416.2</ele>
        <time>2021-03-21T08:12:15Z</time>
      </trkpt>
      <trkpt lat="42.94844" lon="2.61557">
        <ele>416.2</ele>
        <time>2021-03-21T08:12:16Z</time>
      </trkpt>
      <trkpt lat="42.94832" lon="2.61568">
        <ele>416</ele>
        <time>2021-03-21T08:12:18Z</time>
      </trkpt>
      <trkpt lat="42.94816" lon="2.6156">
        <ele>414.8</ele>
        <time>2021-03-21T08:12:20Z</time>
      </trkpt>
      <trkpt lat="42.94809" lon="2.61546">
        <ele>413.5</ele>
        <time>2021-03-21T08:12:21Z</time>
      </trkpt>
      <trkpt lat="42.94806" lon="2.61515">
        <ele>410.9</ele>
        <time>2021-03-21T08:12:23Z</time>
      </trkpt>
      <trkpt lat="42.94804" lon="2.61487">
        <ele>408.9</ele>
        <time>2021-03-21T08:12:25Z</time>
      </trkpt>
      <trkpt lat="42.94798" lon="2.61477">
        <ele>408.2</ele>
        <time>2021-03-21T08:12:26Z</time>
      </trkpt>
      <trkpt lat="42.94781" lon="2.61462">
        <ele>406.8</ele>
        <time>2021-03-21T08:12:28Z</time>
      </trkpt>
      <trkpt lat="42.9477" lon="2.61458">
        <ele>406.2</ele>
        <time>2021-03-21T08:12:29Z</time>
      </trkpt>
      <trkpt lat="42.94748" lon="2.61465">
        <ele>404.9</ele>
        <time>2021-03-21T08:12:31Z</time>
      </trkpt>
      <trkpt lat="42.94733" lon="2.6149">
        <ele>403.6</ele>
        <time>2021-03-21T08:12:33Z</time>
      </trkpt>
      <trkpt lat="42.94729" lon="2.61525">
        <ele>402.7</ele>
        <time>2021-03-21T08:12:35Z</time>
      </trkpt>
      <trkpt lat="42.94728" lon="2.61542">
        <ele>402.7</ele>
        <time>2021-03-21T08:12:36Z</time>
      </trkpt>
      <trkpt lat="42.94723" lon="2.6157">
        <ele>402.2</ele>
        <time>2021-03-21T08:12:38Z</time>
      </trkpt>
      <trkpt lat="42.94708" lon="2.61574">
        <ele>400.8</ele>
        <time>2021-03-21T08:12:40Z</time>
      </trkpt>
      <trkpt lat="42.94692" lon="2.61553">
        <ele>398.4</ele>
        <time>2021-03-21T08:12:42Z</time>
      </trkpt>
      <trkpt lat="42.94684" lon="2.6154">
        <ele>397.1</ele>
        <time>2021-03-21T08:12:43Z</time>
      </trkpt>
      <trkpt lat="42.94674" lon="2.61532">
        <ele>396.2</ele>
        <time>2021-03-21T08:12:44Z</time>
      </trkpt>
      <trkpt lat="42.94653" lon="2.61529">
        <ele>394.8</ele>
        <time>2021-03-21T08:12:46Z</time>
      </trkpt>
      <trkpt lat="42.94631" lon="2.61535">
        <ele>393.5</ele>
        <time>2021-03-21T08:12:48Z</time>
      </trkpt>
      <trkpt lat="42.94619" lon="2.61537">
        <ele>392.9</ele>
        <time>2021-03-21T08:12:49Z</time>
      </trkpt>
      <trkpt lat="42.94598" lon="2.61543">
        <ele>391.9</ele>
        <time>2021-03-21T08:12:51Z</time>
      </trkpt>
      <trkpt lat="42.94583" lon="2.6156">
        <ele>390.6</ele>
        <time>2021-03-21T08:12:53Z</time>
      </trkpt>
      <trkpt lat="42.94579" lon="2.61573">
        <ele>389.7</ele>
        <time>2021-03-21T08:12:54Z</time>
      </trkpt>
      <trkpt lat="42.9458" lon="2.61605">
        <ele>387.6</ele>
        <time>2021-03-21T08:12:56Z</time>
      </trkpt>
      <trkpt lat="42.9458" lon="2.61621">
        <ele>386.6</ele>
        <time>2021-03-21T08:12:57Z</time>
      </trkpt>
      <trkpt lat="42.94579" lon="2.61654">
        <ele>385</ele>
        <time>2021-03-21T08:12:59Z</time>
      </trkpt>
      <trkpt lat="42.94579" lon="2.61671">
        <ele>384.2</ele>
        <time>2021-03-21T08:13:00Z</time>
      </trkpt>
      <trkpt lat="42.9458" lon="2.61706">
        <ele>382.8</ele>
        <time>2021-03-21T08:13:02Z</time>
      </trkpt>
      <trkpt lat="42.94581" lon="2.61722">
        <ele>382.2</ele>
        <time>2021-03-21T08:13:03Z</time>
      </trkpt>
      <trkpt lat="42.94584" lon="2.61753">
        <ele>381.7</ele>
        <time>2021-03-21T08:13:05Z</time>
      </trkpt>
      <trkpt lat="42.94584" lon="2.61767">
        <ele>381.5</ele>
        <time>2021-03-21T08:13:06Z</time>
      </trkpt>
      <trkpt lat="42.94575" lon="2.61788">
        <ele>380.8</ele>
        <time>2021-03-21T08:13:08Z</time>
      </trkpt>
      <trkpt lat="42.94557" lon="2.61789">
        <ele>379.5</ele>
        <time>2021-03-21T08:13:10Z</time>
      </trkpt>
      <trkpt lat="42.94545" lon="2.61759">
        <ele>376.9</ele>
        <time>2021-03-21T08:13:12Z</time>
      </trkpt>
      <trkpt lat="42.94543" lon="2.61744">
        <ele>375.7</ele>
        <time>2021-03-21T08:13:13Z</time>
      </trkpt>
      <trkpt lat="42.94543" lon="2.61711">
        <ele>373.7</ele>
        <time>2021-03-21T08:13:15Z</time>
      </trkpt>
      <trkpt lat="42.94544" lon="2.61694">
        <ele>372.9</ele>
        <time>2021-03-21T08:13:16Z</time>
      </trkpt>
      <trkpt lat="42.94542" lon="2.61663">
        <ele>372</ele>
        <time>2021-03-21T08:13:18Z</time>
      </trkpt>
      <trkpt lat="42.94537" lon="2.61635">
        <ele>371.1</ele>
        <time>2021-03-21T08:13:20Z</time>
      </trkpt>
      <trkpt lat="42.94534" lon="2.61621">
        <ele>370.5</ele>
        <time>2021-03-21T08:13:21Z</time>
      </trkpt>
      <trkpt lat="42.94523" lon="2.61596">
        <ele>369.1</ele>
        <time>2021-03-21T08:13:23Z</time>
      </trkpt>
      <trkpt lat="42.94515" lon="2.61585">
        <ele>368.3</ele>
        <time>2021-03-21T08:13:24Z</time>
      </trkpt>
      <trkpt lat="42.94505" lon="2.61575">
        <ele>367.4</ele>
        <time>2021-03-21T08:13:25Z</time>
      </trkpt>
      <trkpt lat="42.94487" lon="2.61555">
        <ele>365.9</ele>
        <time>2021-03-21T08:13:27Z</time>
      </trkpt>
      <trkpt lat="42.94469" lon="2.61538">
        <ele>364.5</ele>
        <time>2021-03-21T08:13:29Z</time>
      </trkpt>
      <trkpt lat="42.9446" lon="2.6153">
        <ele>363.7</ele>
        <time>2021-03-21T08:13:30Z</time>
      </trkpt>
      <trkpt lat="42.9444" lon="2.61517">
        <ele>362.3</ele>
        <time>2021-03-21T08:13:32Z</time>
      </trkpt>
      <trkpt lat="42.9442" lon="2.61506">
        <ele>361</ele>
        <time>2021-03-21T08:13:34Z</time>
      </trkpt>
      <trkpt lat="42.944" lon="2.61499">
        <ele>359.6</ele>
        <time>2021-03-21T08:13:36Z</time>
      </trkpt>
      <trkpt lat="42.94389" lon="2.61497">
        <ele>358.9</ele>
        <time>2021-03-21T08:13:37Z</time>
      </trkpt>
      <trkpt lat="42.94367" lon="2.61495">
        <ele>357.5</ele>
        <time>2021-03-21T08:13:39Z</time>
      </trkpt>
      <trkpt lat="42.94356" lon="2.61492">
        <ele>356.8</ele>
        <time>2021-03-21T08:13:40Z</time>
      </trkpt>
      <trkpt lat="42.94344" lon="2.61486">
        <ele>356.1</ele>
        <time>2021-03-21T08:13:41Z</time>
      </trkpt>
      <trkpt lat="42.94333" lon="2.6148">
        <ele>355.5</ele>
        <time>2021-03-21T08:13:42Z</time>
      </trkpt>
      <trkpt lat="42.94321" lon="2.61475">
        <ele>354.8</ele>
        <time>2021-03-21T08:13:43Z</time>
      </trkpt>
      <trkpt lat="42.94297" lon="2.61468">
        <ele>353.5</ele>
        <time>2021-03-21T08:13:45Z</time>
      </trkpt>
      <trkpt lat="42.94273" lon="2.61468">
        <ele>352.1</ele>
        <time>2021-03-21T08:13:47Z</time>
      </trkpt>
      <trkpt lat="42.94261" lon="2.61472">
        <ele>351.4</ele>
        <time>2021-03-21T08:13:48Z</time>
      </trkpt>
      <trkpt lat="42.94238" lon="2.61488">
        <ele>350.4</ele>
        <time>2021-03-21T08:13:50Z</time>
      </trkpt>
      <trkpt lat="42.94228" lon="2.61498">
        <ele>349.9</ele>
        <time>2021-03-21T08:13:51Z</time>
      </trkpt>
      <trkpt lat="42.94218" lon="2.61508">
        <ele>349.3</ele>
        <time>2021-03-21T08:13:52Z</time>
      </trkpt>
      <trkpt lat="42.94208" lon="2.61518">
        <ele>348.7</ele>
        <time>2021-03-21T08:13:53Z</time>
      </trkpt>
      <trkpt lat="42.94198" lon="2.61526">
        <ele>348.2</ele>
        <time>2021-03-21T08:13:54Z</time>
      </trkpt>
      <trkpt lat="42.94186" lon="2.61532">
        <ele>347.7</ele>
        <time>2021-03-21T08:13:55Z</time>
      </trkpt>
      <trkpt lat="42.94161" lon="2.61539">
        <ele>346.7</ele>
        <time>2021-03-21T08:13:57Z</time>
      </trkpt>
      <trkpt lat="42.94136" lon="2.61546">
        <ele>345.9</ele>
        <time>2021-03-21T08:13:59Z</time>
      </trkpt>
      <trkpt lat="42.94125" lon="2.61552">
        <ele>345.5</ele>
        <time>2021-03-21T08:14:00Z</time>
      </trkpt>
      <trkpt lat="42.94113" lon="2.61559">
        <ele>345.2</ele>
        <time>2021-03-21T08:14:01Z</time>
      </trkpt>
      <trkpt lat="42.94091" lon="2.61573">
        <ele>344.5</ele>
        <time>2021-03-21T08:14:03Z</time>
      </trkpt>
      <trkpt lat="42.94067" lon="2.61581">
        <ele>344</ele>
        <time>2021-03-21T08:14:05Z</time>
      </trkpt>
      <trkpt lat="42.94044" lon="2.61582">
        <ele>343.6</ele>
        <time>2021-03-21T08:14:07Z</time>
      </trkpt>
      <trkpt lat="42.94032" lon="2.61584">
        <ele>343.5</ele>
        <time>2021-03-21T08:14:08Z</time>
      </trkpt>
      <trkpt lat="42.94021" lon="2.61589">
        <ele>343.3</ele>
        <time>2021-03-21T08:14:09Z</time>
      </trkpt>
      <trkpt lat="42.94011" lon="2.61597">
        <ele>343</ele>
        <time>2021-03-21T08:14:10Z</time>
      </trkpt>
      <trkpt lat="42.93994" lon="2.61618">
        <ele>342.5</ele>
        <time>2021-03-21T08:14:12Z</time>
      </trkpt>
      <trkpt lat="42.93987" lon="2.6163">
        <ele>342.3</ele>
        <time>2021-03-21T08:14:13Z</time>
      </trkpt>
      <trkpt lat="42.93974" lon="2.61655">
        <ele>342</ele>
        <time>2021-03-21T08:14:15Z</time>
      </trkpt>
      <trkpt lat="42.93969" lon="2.61668">
        <ele>341.8</ele>
        <time>2021-03-21T08:14:16Z</time>
      </trkpt>
      <trkpt lat="42.93963" lon="2.61679">
        <ele>341.6</ele>
        <time>2021-03-21T08:14:17Z</time>
      </trkpt>
      <trkpt lat="42.93946" lon="2.61694">
        <ele>341.2</ele>
        <time>2021-03-21T08:14:19Z</time>
      </trkpt>
      <trkpt lat="42.93925" lon="2.61695">
        <ele>340.6</ele>
        <time>2021-03-21T08:14:21Z</time>
      </trkpt>
      <trkpt lat="42.93916" lon="2.61698">
        <ele>340.3</ele>
        <time>2021-03-21T08:14:22Z</time>
      </trkpt>
      <trkpt lat="42.93906" lon="2.61702">
        <ele>340.1</ele>
        <time>2021-03-21T08:14:23Z</time>
      </trkpt>
      <trkpt lat="42.93897" lon="2.61706">
        <ele>339.9</ele>
        <time>2021-03-21T08:14:24Z</time>
      </trkpt>
      <trkpt lat="42.93876" lon="2.61702">
        <ele>339.2</ele>
        <time>2021-03-21T08:14:26Z</time>
      </trkpt>
      <trkpt lat="42.93865" lon="2.61697">
        <ele>338.9</ele>
        <time>2021-03-21T08:14:27Z</time>
      </trkpt>
      <trkpt lat="42.93854" lon="2.61693">
        <ele>338.6</ele>
        <time>2021-03-21T08:14:28Z</time>
      </trkpt>
      <trkpt lat="42.93832" lon="2.61694">
        <ele>338.1</ele>
        <time>2021-03-21T08:14:30Z</time>
      </trkpt>
      <trkpt lat="42.93821" lon="2.617">
        <ele>337.8</ele>
        <time>2021-03-21T08:14:31Z</time>
      </trkpt>
      <trkpt lat="42.93801" lon="2.61718">
        <ele>337.3</ele>
        <time>2021-03-21T08:14:33Z</time>
      </trkpt>
      <trkpt lat="42.93782" lon="2.61738">
        <ele>336.8</ele>
        <time>2021-03-21T08:14:35Z</time>
      </trkpt>
      <trkpt lat="42.93773" lon="2.61749">
        <ele>336.5</ele>
        <time>2021-03-21T08:14:36Z</time>
      </trkpt>
      <trkpt lat="42.93764" lon="2.61758">
        <ele>336.2</ele>
        <time>2021-03-21T08:14:37Z</time>
      </trkpt>
      <trkpt lat="42.93746" lon="2.61777">
        <ele>335.5</ele>
        <time>2021-03-21T08:14:39Z</time>
      </trkpt>
      <trkpt lat="42.93728" lon="2.61794">
        <ele>334.9</ele>
        <time>2021-03-21T08:14:41Z</time>
      </trkpt>
      <trkpt lat="42.93719" lon="2.61802">
        <ele>334.5</ele>
        <time>2021-03-21T08:14:42Z</time>
      </trkpt>
      <trkpt lat="42.937" lon="2.61818">
        <ele>334</ele>
        <time>2021-03-21T08:14:44Z</time>
      </trkpt>
      <trkpt lat="42.93681" lon="2.6183">
        <ele>333.6</ele>
        <time>2021-03-21T08:14:46Z</time>
      </trkpt>
      <trkpt lat="42.93659" lon="2.61833">
        <ele>333.2</ele>
        <time>2021-03-21T08:14:48Z</time>
      </trkpt>
      <trkpt lat="42.93636" lon="2.61833">
        <ele>332.9</ele>
        <time>2021-03-21T08:14:50Z</time>
      </trkpt>
      <trkpt lat="42.93626" lon="2.61837">
        <ele>332.7</ele>
        <time>2021-03-21T08:14:51Z</time>
      </trkpt>
      <trkpt lat="42.93607" lon="2.61852">
        <ele>332.2</ele>
        <time>2021-03-21T08:14:53Z</time>
      </trkpt>
      <trkpt lat="42.93594" lon="2.61876">
        <ele>331.7</ele>
        <time>2021-03-21T08:14:55Z</time>
      </trkpt>
      <trkpt lat="42.93589" lon="2.6189">
        <ele>331.5</ele>
        <time>2021-03-21T08:14:56Z</time>
      </trkpt>
      <trkpt lat="42.93582" lon="2.61918">
        <ele>331.1</ele>
        <time>2021-03-21T08:14:58Z</time>
      </trkpt>
      <trkpt lat="42.93578" lon="2.61933">
        <ele>330.9</ele>
        <time>2021-03-21T08:14:59Z</time>
      </trkpt>
      <trkpt lat="42.93574" lon="2.61947">
        <ele>330.7</ele>
        <time>2021-03-21T08:15:00Z</time>
      </trkpt>
      <trkpt lat="42.93565" lon="2.61974">
        <ele>330.3</ele>
        <time>2021-03-21T08:15:02Z</time>
      </trkpt>
      <trkpt lat="42.9356" lon="2.61987">
        <ele>330.1</ele>
        <time>2021-03-21T08:15:03Z</time>
      </trkpt>
      <trkpt lat="42.9355" lon="2.62013">
        <ele>329.8</ele>
        <time>2021-03-21T08:15:05Z</time>
      </trkpt>
      <trkpt lat="42.93545" lon="2.62025">
        <ele>329.7</ele>
        <time>2021-03-21T08:15:06Z</time>
      </trkpt>
      <trkpt lat="42.93539" lon="2.62037">
        <ele>329.5</ele>
        <time>2021-03-21T08:15:07Z</time>
      </trkpt>
      <trkpt lat="42.93522" lon="2.62054">
        <ele>328.8</ele>
        <time>2021-03-21T08:15:09Z</time>
      </trkpt>
      <trkpt lat="42.93512" lon="2.62057">
        <ele>328.7</ele>
        <time>2021-03-21T08:15:10Z</time>
      </trkpt>
      <trkpt lat="42.9349" lon="2.62055">
        <ele>328.6</ele>
        <time>2021-03-21T08:15:12Z</time>
      </trkpt>
      <trkpt lat="42.93479" lon="2.62053">
        <ele>328.5</ele>
        <time>2021-03-21T08:15:13Z</time>
      </trkpt>
      <trkpt lat="42.93459" lon="2.6205">
        <ele>328.4</ele>
        <time>2021-03-21T08:15:15Z</time>
      </trkpt>
      <trkpt lat="42.9344" lon="2.62051">
        <ele>328.1</ele>
        <time>2021-03-21T08:15:17Z</time>
      </trkpt>
      <trkpt lat="42.9343" lon="2.62053">
        <ele>328</ele>
        <time>2021-03-21T08:15:18Z</time>
      </trkpt>
      <trkpt lat="42.9342" lon="2.62056">
        <ele>327.9</ele>
        <time>2021-03-21T08:15:19Z</time>
      </trkpt>
      <trkpt lat="42.93401" lon="2.62064">
        <ele>327.7</ele>
        <time>2021-03-21T08:15:21Z</time>
      </trkpt>
      <trkpt lat="42.93392" lon="2.6207">
        <ele>327.6</ele>
        <time>2021-03-21T08:15:22Z</time>
      </trkpt>
      <trkpt lat="42.93377" lon="2.62088">
        <ele>327.4</ele>
        <time>2021-03-21T08:15:24Z</time>
      </trkpt>
      <trkpt lat="42.93371" lon="2.621">
        <ele>327.2</ele>
        <time>2021-03-21T08:15:25Z</time>
      </trkpt>
      <trkpt lat="42.93364" lon="2.62128">
        <ele>326.6</ele>
        <time>2021-03-21T08:15:27Z</time>
      </trkpt>
      <trkpt lat="42.9336" lon="2.62157">
        <ele>326.1</ele>
        <time>2021-03-21T08:15:29Z</time>
      </trkpt>
      <trkpt lat="42.93357" lon="2.62171">
        <ele>325.9</ele>
        <time>2021-03-21T08:15:30Z</time>
      </trkpt>
      <trkpt lat="42.93353" lon="2.62184">
        <ele>325.6</ele>
        <time>2021-03-21T08:15:31Z</time>
      </trkpt>
      <trkpt lat="42.93343" lon="2.62209">
        <ele>325.2</ele>
        <time>2021-03-21T08:15:33Z</time>
      </trkpt>
      <trkpt lat="42.93331" lon="2.62235">
        <ele>324.7</ele>
        <time>2021-03-21T08:15:35Z</time>
      </trkpt>
      <trkpt lat="42.93325" lon="2.62247">
        <ele>324.4</ele>
        <time>2021-03-21T08:15:36Z</time>
      </trkpt>
      <trkpt lat="42.93312" lon="2.62269">
        <ele>323.9</ele>
        <time>2021-03-21T08:15:38Z</time>
      </trkpt>
      <trkpt lat="42.93304" lon="2.62277">
        <ele>323.8</ele>
        <time>2021-03-21T08:15:39Z</time>
      </trkpt>
      <trkpt lat="42.93295" lon="2.62284">
        <ele>323.5</ele>
        <time>2021-03-21T08:15:40Z</time>
      </trkpt>
      <trkpt lat="42.93275" lon="2.62292">
        <ele>323.1</ele>
        <time>2021-03-21T08:15:42Z</time>
      </trkpt>
      <trkpt lat="42.93265" lon="2.62296">
        <ele>322.9</ele>
        <time>2021-03-21T08:15:43Z</time>
      </trkpt>
      <trkpt lat="42.93247" lon="2.62303">
        <ele>322.7</ele>
        <time>2021-03-21T08:15:45Z</time>
      </trkpt>
      <trkpt lat="42.93238" lon="2.62308">
        <ele>322.6</ele>
        <time>2021-03-21T08:15:46Z</time>
      </trkpt>
      <trkpt lat="42.93221" lon="2.62317">
        <ele>322.2</ele>
        <time>2021-03-21T08:15:48Z</time>
      </trkpt>
      <trkpt lat="42.93205" lon="2.62327">
        <ele>321.9</ele>
        <time>2021-03-21T08:15:50Z</time>
      </trkpt>
      <trkpt lat="42.93196" lon="2.62332">
        <ele>321.7</ele>
        <time>2021-03-21T08:15:51Z</time>
      </trkpt>
      <trkpt lat="42.93179" lon="2.62339">
        <ele>321.5</ele>
        <time>2021-03-21T08:15:53Z</time>
      </trkpt>
      <trkpt lat="42.93162" lon="2.62344">
        <ele>321.3</ele>
        <time>2021-03-21T08:15:55Z</time>
      </trkpt>
      <trkpt lat="42.93153" lon="2.62347">
        <ele>321.2</ele>
        <time>2021-03-21T08:15:56Z</time>
      </trkpt>
      <trkpt lat="42.93136" lon="2.62358">
        <ele>321</ele>
        <time>2021-03-21T08:15:58Z</time>
      </trkpt>
      <trkpt lat="42.93121" lon="2.62373">
        <ele>320.8</ele>
        <time>2021-03-21T08:16:00Z</time>
      </trkpt>
      <trkpt lat="42.93114" lon="2.6238">
        <ele>320.8</ele>
        <time>2021-03-21T08:16:01Z</time>
      </trkpt>
      <trkpt lat="42.931" lon="2.62395">
        <ele>320.7</ele>
        <time>2021-03-21T08:16:03Z</time>
      </trkpt>
      <trkpt lat="42.93093" lon="2.62402">
        <ele>320.7</ele>
        <time>2021-03-21T08:16:04Z</time>
      </trkpt>
      <trkpt lat="42.93078" lon="2.62415">
        <ele>320.6</ele>
        <time>2021-03-21T08:16:06Z</time>
      </trkpt>
      <trkpt lat="42.93063" lon="2.62426">
        <ele>320.3</ele>
        <time>2021-03-21T08:16:08Z</time>
      </trkpt>
      <trkpt lat="42.93047" lon="2.62434">
        <ele>319.9</ele>
        <time>2021-03-21T08:16:10Z</time>
      </trkpt>
      <trkpt lat="42.93039" lon="2.62438">
        <ele>319.7</ele>
        <time>2021-03-21T08:16:11Z</time>
      </trkpt>
      <trkpt lat="42.93022" lon="2.62444">
        <ele>319.3</ele>
        <time>2021-03-21T08:16:13Z</time>
      </trkpt>
      <trkpt lat="42.93006" lon="2.62456">
        <ele>319</ele>
        <time>2021-03-21T08:16:15Z</time>
      </trkpt>
      <trkpt lat="42.92994" lon="2.62475">
        <ele>318.6</ele>
        <time>2021-03-21T08:16:17Z</time>
      </trkpt>
      <trkpt lat="42.92987" lon="2.625">
        <ele>318.2</ele>
        <time>2021-03-21T08:16:19Z</time>
      </trkpt>
      <trkpt lat="42.92983" lon="2.62512">
        <ele>318</ele>
        <time>2021-03-21T08:16:20Z</time>
      </trkpt>
      <trkpt lat="42.92978" lon="2.62524">
        <ele>317.8</ele>
        <time>2021-03-21T08:16:21Z</time>
      </trkpt>
      <trkpt lat="42.92966" lon="2.62542">
        <ele>317.7</ele>
        <time>2021-03-21T08:16:23Z</time>
      </trkpt>
      <trkpt lat="42.92958" lon="2.6255">
        <ele>317.8</ele>
        <time>2021-03-21T08:16:24Z</time>
      </trkpt>
      <trkpt lat="42.9295" lon="2.62557">
        <ele>317.8</ele>
        <time>2021-03-21T08:16:25Z</time>
      </trkpt>
      <trkpt lat="42.92942" lon="2.62564">
        <ele>317.9</ele>
        <time>2021-03-21T08:16:26Z</time>
      </trkpt>
      <trkpt lat="42.9293" lon="2.62581">
        <ele>317.8</ele>
        <time>2021-03-21T08:16:28Z</time>
      </trkpt>
      <trkpt lat="42.92919" lon="2.626">
        <ele>317.8</ele>
        <time>2021-03-21T08:16:30Z</time>
      </trkpt>
      <trkpt lat="42.9291" lon="2.62621">
        <ele>317.8</ele>
        <time>2021-03-21T08:16:32Z</time>
      </trkpt>
      <trkpt lat="42.92906" lon="2.62632">
        <ele>317.8</ele>
        <time>2021-03-21T08:16:33Z</time>
      </trkpt>
      <trkpt lat="42.929" lon="2.62654">
        <ele>317.8</ele>
        <time>2021-03-21T08:16:35Z</time>
      </trkpt>
      <trkpt lat="42.92898" lon="2.62666">
        <ele>317.8</ele>
        <time>2021-03-21T08:16:36Z</time>
      </trkpt>
      <trkpt lat="42.92895" lon="2.62689">
        <ele>317.7</ele>
        <time>2021-03-21T08:16:38Z</time>
      </trkpt>
      <trkpt lat="42.92893" lon="2.62713">
        <ele>317.7</ele>
        <time>2021-03-21T08:16:40Z</time>
      </trkpt>
      <trkpt lat="42.92891" lon="2.62725">
        <ele>317.7</ele>
        <time>2021-03-21T08:16:41Z</time>
      </trkpt>
      <trkpt lat="42.92883" lon="2.62746">
        <ele>317.7</ele>
        <time>2021-03-21T08:16:43Z</time>
      </trkpt>
      <trkpt lat="42.92872" lon="2.62763">
        <ele>317.7</ele>
        <time>2021-03-21T08:16:45Z</time>
      </trkpt>
      <trkpt lat="42.92867" lon="2.62772">
        <ele>317.7</ele>
        <time>2021-03-21T08:16:46Z</time>
      </trkpt>
      <trkpt lat="42.92858" lon="2.62791">
        <ele>317.8</ele>
        <time>2021-03-21T08:16:48Z</time>
      </trkpt>
      <trkpt lat="42.92853" lon="2.62801">
        <ele>317.8</ele>
        <time>2021-03-21T08:16:49Z</time>
      </trkpt>
      <trkpt lat="42.92844" lon="2.6282">
        <ele>317.7</ele>
        <time>2021-03-21T08:16:51Z</time>
      </trkpt>
      <trkpt lat="42.92834" lon="2.62838">
        <ele>317.6</ele>
        <time>2021-03-21T08:16:53Z</time>
      </trkpt>
      <trkpt lat="42.92824" lon="2.62855">
        <ele>317.5</ele>
        <time>2021-03-21T08:16:55Z</time>
      </trkpt>
      <trkpt lat="42.92818" lon="2.62864">
        <ele>317.4</ele>
        <time>2021-03-21T08:16:56Z</time>
      </trkpt>
      <trkpt lat="42.92813" lon="2.62873">
        <ele>317.4</ele>
        <time>2021-03-21T08:16:57Z</time>
      </trkpt>
      <trkpt lat="42.92801" lon="2.6289">
        <ele>317.4</ele>
        <time>2021-03-21T08:16:59Z</time>
      </trkpt>
      <trkpt lat="42.92791" lon="2.62909">
        <ele>317.5</ele>
        <time>2021-03-21T08:17:01Z</time>
      </trkpt>
      <trkpt lat="42.92783" lon="2.6293">
        <ele>317.5</ele>
        <time>2021-03-21T08:17:03Z</time>
      </trkpt>
      <trkpt lat="42.92779" lon="2.62941">
        <ele>317.5</ele>
        <time>2021-03-21T08:17:04Z</time>
      </trkpt>
      <trkpt lat="42.92775" lon="2.62951">
        <ele>317.6</ele>
        <time>2021-03-21T08:17:05Z</time>
      </trkpt>
      <trkpt lat="42.92767" lon="2.6297">
        <ele>317.7</ele>
        <time>2021-03-21T08:17:07Z</time>
      </trkpt>
      <trkpt lat="42.92763" lon="2.62979">
        <ele>317.9</ele>
        <time>2021-03-21T08:17:08Z</time>
      </trkpt>
      <trkpt lat="42.9276" lon="2.62989">
        <ele>318</ele>
        <time>2021-03-21T08:17:09Z</time>
      </trkpt>
      <trkpt lat="42.92754" lon="2.63008">
        <ele>318.3</ele>
        <time>2021-03-21T08:17:11Z</time>
      </trkpt>
      <trkpt lat="42.92751" lon="2.63017">
        <ele>318.4</ele>
        <time>2021-03-21T08:17:12Z</time>
      </trkpt>
      <trkpt lat="42.92748" lon="2.63027">
        <ele>318.4</ele>
        <time>2021-03-21T08:17:13Z</time>
      </trkpt>
      <trkpt lat="42.92743" lon="2.63046">
        <ele>318.3</ele>
        <time>2021-03-21T08:17:15Z</time>
      </trkpt>
      <trkpt lat="42.9274" lon="2.63056">
        <ele>318.2</ele>
        <time>2021-03-21T08:17:16Z</time>
      </trkpt>
      <trkpt lat="42.92737" lon="2.63066">
        <ele>318</ele>
        <time>2021-03-21T08:17:17Z</time>
      </trkpt>
      <trkpt lat="42.92731" lon="2.63085">
        <ele>317.6</ele>
        <time>2021-03-21T08:17:19Z</time>
      </trkpt>
      <trkpt lat="42.92727" lon="2.63095">
        <ele>317.5</ele>
        <time>2021-03-21T08:17:20Z</time>
      </trkpt>
      <trkpt lat="42.92723" lon="2.63105">
        <ele>317.3</ele>
        <time>2021-03-21T08:17:21Z</time>
      </trkpt>
      <trkpt lat="42.92719" lon="2.63115">
        <ele>317.2</ele>
        <time>2021-03-21T08:17:22Z</time>
      </trkpt>
      <trkpt lat="42.92714" lon="2.63125">
        <ele>317</ele>
        <time>2021-03-21T08:17:23Z</time>
      </trkpt>
      <trkpt lat="42.92707" lon="2.63146">
        <ele>316.7</ele>
        <time>2021-03-21T08:17:25Z</time>
      </trkpt>
      <trkpt lat="42.92702" lon="2.63168">
        <ele>316.6</ele>
        <time>2021-03-21T08:17:27Z</time>
      </trkpt>
      <trkpt lat="42.92701" lon="2.63191">
        <ele>316.5</ele>
        <time>2021-03-21T08:17:29Z</time>
      </trkpt>
      <trkpt lat="42.92703" lon="2.63215">
        <ele>316.7</ele>
        <time>2021-03-21T08:17:31Z</time>
      </trkpt>
      <trkpt lat="42.92703" lon="2.63226">
        <ele>316.8</ele>
        <time>2021-03-21T08:17:32Z</time>
      </trkpt>
      <trkpt lat="42.92702" lon="2.63237">
        <ele>317</ele>
        <time>2021-03-21T08:17:33Z</time>
      </trkpt>
      <trkpt lat="42.92702" lon="2.63248">
        <ele>317.1</ele>
        <time>2021-03-21T08:17:34Z</time>
      </trkpt>
      <trkpt lat="42.92701" lon="2.63267">
        <ele>317.3</ele>
        <time>2021-03-21T08:17:36Z</time>
      </trkpt>
      <trkpt lat="42.927" lon="2.63276">
        <ele>317.5</ele>
        <time>2021-03-21T08:17:37Z</time>
      </trkpt>
      <trkpt lat="42.92698" lon="2.63293">
        <ele>317.7</ele>
        <time>2021-03-21T08:17:39Z</time>
      </trkpt>
      <trkpt lat="42.92697" lon="2.63301">
        <ele>317.8</ele>
        <time>2021-03-21T08:17:40Z</time>
      </trkpt>
      <trkpt lat="42.92697" lon="2.63309">
        <ele>317.9</ele>
        <time>2021-03-21T08:17:41Z</time>
      </trkpt>
      <trkpt lat="42.92697" lon="2.63325">
        <ele>318</ele>
        <time>2021-03-21T08:17:43Z</time>
      </trkpt>
      <trkpt lat="42.92699" lon="2.63342">
        <ele>317.9</ele>
        <time>2021-03-21T08:17:45Z</time>
      </trkpt>
      <trkpt lat="42.92697" lon="2.6336">
        <ele>317.8</ele>
        <time>2021-03-21T08:17:47Z</time>
      </trkpt>
      <trkpt lat="42.92695" lon="2.63379">
        <ele>317.6</ele>
        <time>2021-03-21T08:17:49Z</time>
      </trkpt>
      <trkpt lat="42.92693" lon="2.63389">
        <ele>317.5</ele>
        <time>2021-03-21T08:17:50Z</time>
      </trkpt>
      <trkpt lat="42.92692" lon="2.634">
        <ele>317.5</ele>
        <time>2021-03-21T08:17:51Z</time>
      </trkpt>
      <trkpt lat="42.92692" lon="2.6341">
        <ele>317.4</ele>
        <time>2021-03-21T08:17:52Z</time>
      </trkpt>
      <trkpt lat="42.9269" lon="2.63428">
        <ele>317.2</ele>
        <time>2021-03-21T08:17:54Z</time>
      </trkpt>
      <trkpt lat="42.92689" lon="2.63438">
        <ele>317.1</ele>
        <time>2021-03-21T08:17:55Z</time>
      </trkpt>
      <trkpt lat="42.92688" lon="2.63447">
        <ele>317</ele>
        <time>2021-03-21T08:17:56Z</time>
      </trkpt>
      <trkpt lat="42.92685" lon="2.63464">
        <ele>316.6</ele>
        <time>2021-03-21T08:17:58Z</time>
      </trkpt>
      <trkpt lat="42.92685" lon="2.6348">
        <ele>316.3</ele>
        <time>2021-03-21T08:18:00Z</time>
      </trkpt>
      <trkpt lat="42.9269" lon="2.63488">
        <ele>316.2</ele>
        <time>2021-03-21T08:18:01Z</time>
      </trkpt>
      <trkpt lat="42.92698" lon="2.63492">
        <ele>316</ele>
        <time>2021-03-21T08:18:02Z</time>
      </trkpt>
      <trkpt lat="42.92715" lon="2.63495">
        <ele>315.6</ele>
        <time>2021-03-21T08:18:04Z</time>
      </trkpt>
      <trkpt lat="42.92722" lon="2.63498">
        <ele>315.4</ele>
        <time>2021-03-21T08:18:05Z</time>
      </trkpt>
      <trkpt lat="42.92731" lon="2.63511">
        <ele>315.2</ele>
        <time>2021-03-21T08:18:07Z</time>
      </trkpt>
      <trkpt lat="42.92726" lon="2.63524">
        <ele>314.7</ele>
        <time>2021-03-21T08:18:09Z</time>
      </trkpt>
      <trkpt lat="42.92719" lon="2.63526">
        <ele>314.3</ele>
        <time>2021-03-21T08:18:10Z</time>
      </trkpt>
      <trkpt lat="42.92712" lon="2.63526">
        <ele>313.9</ele>
        <time>2021-03-21T08:18:11Z</time>
      </trkpt>
      <trkpt lat="42.92693" lon="2.63523">
        <ele>313</ele>
        <time>2021-03-21T08:18:13Z</time>
      </trkpt>
      <trkpt lat="42.92674" lon="2.63516">
        <ele>311.9</ele>
        <time>2021-03-21T08:18:15Z</time>
      </trkpt>
      <trkpt lat="42.92665" lon="2.6351">
        <ele>311.3</ele>
        <time>2021-03-21T08:18:16Z</time>
      </trkpt>
      <trkpt lat="42.92659" lon="2.63498">
        <ele>310.7</ele>
        <time>2021-03-21T08:18:17Z</time>
      </trkpt>
      <trkpt lat="42.92659" lon="2.63468">
        <ele>309.4</ele>
        <time>2021-03-21T08:18:19Z</time>
      </trkpt>
      <trkpt lat="42.9266" lon="2.63438">
        <ele>308.4</ele>
        <time>2021-03-21T08:18:21Z</time>
      </trkpt>
      <trkpt lat="42.92655" lon="2.63427">
        <ele>308</ele>
        <time>2021-03-21T08:18:22Z</time>
      </trkpt>
      <trkpt lat="42.92647" lon="2.6342">
        <ele>307.6</ele>
        <time>2021-03-21T08:18:23Z</time>
      </trkpt>
      <trkpt lat="42.92628" lon="2.63425">
        <ele>307.5</ele>
        <time>2021-03-21T08:18:25Z</time>
      </trkpt>
      <trkpt lat="42.92612" lon="2.63447">
        <ele>307</ele>
        <time>2021-03-21T08:18:27Z</time>
      </trkpt>
      <trkpt lat="42.92604" lon="2.6347">
        <ele>306.9</ele>
        <time>2021-03-21T08:18:29Z</time>
      </trkpt>
      <trkpt lat="42.926" lon="2.63481">
        <ele>306.9</ele>
        <time>2021-03-21T08:18:30Z</time>
      </trkpt>
      <trkpt lat="42.92596" lon="2.63492">
        <ele>306.9</ele>
        <time>2021-03-21T08:18:31Z</time>
      </trkpt>
      <trkpt lat="42.92589" lon="2.63513">
        <ele>307.1</ele>
        <time>2021-03-21T08:18:33Z</time>
      </trkpt>
      <trkpt lat="42.92584" lon="2.63523">
        <ele>307.2</ele>
        <time>2021-03-21T08:18:34Z</time>
      </trkpt>
      <trkpt lat="42.9258" lon="2.63534">
        <ele>307.2</ele>
        <time>2021-03-21T08:18:35Z</time>
      </trkpt>
      <trkpt lat="42.9257" lon="2.63554">
        <ele>307.4</ele>
        <time>2021-03-21T08:18:37Z</time>
      </trkpt>
      <trkpt lat="42.9256" lon="2.63572">
        <ele>307.6</ele>
        <time>2021-03-21T08:18:39Z</time>
      </trkpt>
      <trkpt lat="42.92554" lon="2.63579">
        <ele>307.7</ele>
        <time>2021-03-21T08:18:40Z</time>
      </trkpt>
      <trkpt lat="42.92542" lon="2.63593">
        <ele>308</ele>
        <time>2021-03-21T08:18:42Z</time>
      </trkpt>
      <trkpt lat="42.92535" lon="2.636">
        <ele>308.1</ele>
        <time>2021-03-21T08:18:43Z</time>
      </trkpt>
      <trkpt lat="42.92523" lon="2.63614">
        <ele>308.3</ele>
        <time>2021-03-21T08:18:45Z</time>
      </trkpt>
      <trkpt lat="42.92512" lon="2.63628">
        <ele>308.4</ele>
        <time>2021-03-21T08:18:47Z</time>
      </trkpt>
      <trkpt lat="42.92506" lon="2.63636">
        <ele>308.5</ele>
        <time>2021-03-21T08:18:48Z</time>
      </trkpt>
      <trkpt lat="42.925" lon="2.63644">
        <ele>308.5</ele>
        <time>2021-03-21T08:18:49Z</time>
      </trkpt>
      <trkpt lat="42.92488" lon="2.63658">
        <ele>308.6</ele>
        <time>2021-03-21T08:18:51Z</time>
      </trkpt>
      <trkpt lat="42.92482" lon="2.63664">
        <ele>308.6</ele>
        <time>2021-03-21T08:18:52Z</time>
      </trkpt>
      <trkpt lat="42.92476" lon="2.6367">
        <ele>308.6</ele>
        <time>2021-03-21T08:18:53Z</time>
      </trkpt>
      <trkpt lat="42.92463" lon="2.63684">
        <ele>308.6</ele>
        <time>2021-03-21T08:18:55Z</time>
      </trkpt>
      <trkpt lat="42.92458" lon="2.63692">
        <ele>308.6</ele>
        <time>2021-03-21T08:18:56Z</time>
      </trkpt>
      <trkpt lat="42.92453" lon="2.637">
        <ele>308.6</ele>
        <time>2021-03-21T08:18:57Z</time>
      </trkpt>
      <trkpt lat="42.92445" lon="2.63718">
        <ele>308.6</ele>
        <time>2021-03-21T08:18:59Z</time>
      </trkpt>
      <trkpt lat="42.92442" lon="2.63728">
        <ele>308.6</ele>
        <time>2021-03-21T08:19:00Z</time>
      </trkpt>
      <trkpt lat="42.92439" lon="2.63738">
        <ele>308.6</ele>
        <time>2021-03-21T08:19:01Z</time>
      </trkpt>
      <trkpt lat="42.92436" lon="2.63748">
        <ele>308.6</ele>
        <time>2021-03-21T08:19:02Z</time>
      </trkpt>
      <trkpt lat="42.9243" lon="2.63769">
        <ele>308.6</ele>
        <time>2021-03-21T08:19:04Z</time>
      </trkpt>
      <trkpt lat="42.92427" lon="2.63778">
        <ele>308.6</ele>
        <time>2021-03-21T08:19:05Z</time>
      </trkpt>
      <trkpt lat="42.92422" lon="2.63787">
        <ele>308.6</ele>
        <time>2021-03-21T08:19:06Z</time>
      </trkpt>
      <trkpt lat="42.92417" lon="2.63795">
        <ele>308.6</ele>
        <time>2021-03-21T08:19:07Z</time>
      </trkpt>
      <trkpt lat="42.92412" lon="2.63803">
        <ele>308.6</ele>
        <time>2021-03-21T08:19:08Z</time>
      </trkpt>
      <trkpt lat="42.924" lon="2.63816">
        <ele>308.6</ele>
        <time>2021-03-21T08:19:10Z</time>
      </trkpt>
      <trkpt lat="42.92386" lon="2.63823">
        <ele>308.7</ele>
        <time>2021-03-21T08:19:12Z</time>
      </trkpt>
      <trkpt lat="42.92378" lon="2.63823">
        <ele>308.8</ele>
        <time>2021-03-21T08:19:13Z</time>
      </trkpt>
      <trkpt lat="42.92362" lon="2.63815">
        <ele>309</ele>
        <time>2021-03-21T08:19:15Z</time>
      </trkpt>
      <trkpt lat="42.92352" lon="2.63794">
        <ele>309.1</ele>
        <time>2021-03-21T08:19:17Z</time>
      </trkpt>
      <trkpt lat="42.92352" lon="2.63767">
        <ele>309.2</ele>
        <time>2021-03-21T08:19:19Z</time>
      </trkpt>
      <trkpt lat="42.92355" lon="2.63743">
        <ele>309.3</ele>
        <time>2021-03-21T08:19:21Z</time>
      </trkpt>
      <trkpt lat="42.92356" lon="2.63721">
        <ele>309.5</ele>
        <time>2021-03-21T08:19:23Z</time>
      </trkpt>
      <trkpt lat="42.92352" lon="2.63702">
        <ele>309.6</ele>
        <time>2021-03-21T08:19:25Z</time>
      </trkpt>
      <trkpt lat="42.92341" lon="2.63686">
        <ele>309.7</ele>
        <time>2021-03-21T08:19:27Z</time>
      </trkpt>
      <trkpt lat="42.92333" lon="2.63679">
        <ele>309.8</ele>
        <time>2021-03-21T08:19:28Z</time>
      </trkpt>
      <trkpt lat="42.92317" lon="2.63667">
        <ele>310</ele>
        <time>2021-03-21T08:19:30Z</time>
      </trkpt>
      <trkpt lat="42.92303" lon="2.63658">
        <ele>310.2</ele>
        <time>2021-03-21T08:19:32Z</time>
      </trkpt>
      <trkpt lat="42.92291" lon="2.63647">
        <ele>310.2</ele>
        <time>2021-03-21T08:19:34Z</time>
      </trkpt>
      <trkpt lat="42.92279" lon="2.63636">
        <ele>310.2</ele>
        <time>2021-03-21T08:19:36Z</time>
      </trkpt>
      <trkpt lat="42.92267" lon="2.63625">
        <ele>310</ele>
        <time>2021-03-21T08:19:38Z</time>
      </trkpt>
      <trkpt lat="42.92261" lon="2.63619">
        <ele>310</ele>
        <time>2021-03-21T08:19:39Z</time>
      </trkpt>
      <trkpt lat="42.9225" lon="2.63605">
        <ele>309.8</ele>
        <time>2021-03-21T08:19:41Z</time>
      </trkpt>
      <trkpt lat="42.92245" lon="2.63598">
        <ele>309.8</ele>
        <time>2021-03-21T08:19:42Z</time>
      </trkpt>
      <trkpt lat="42.92238" lon="2.63592">
        <ele>309.9</ele>
        <time>2021-03-21T08:19:43Z</time>
      </trkpt>
      <trkpt lat="42.92224" lon="2.63583">
        <ele>310.2</ele>
        <time>2021-03-21T08:19:45Z</time>
      </trkpt>
      <trkpt lat="42.92211" lon="2.63581">
        <ele>310.5</ele>
        <time>2021-03-21T08:19:47Z</time>
      </trkpt>
      <trkpt lat="42.92204" lon="2.63579">
        <ele>310.6</ele>
        <time>2021-03-21T08:19:48Z</time>
      </trkpt>
      <trkpt lat="42.92197" lon="2.63578">
        <ele>310.7</ele>
        <time>2021-03-21T08:19:49Z</time>
      </trkpt>
      <trkpt lat="42.92184" lon="2.63574">
        <ele>310.9</ele>
        <time>2021-03-21T08:19:51Z</time>
      </trkpt>
      <trkpt lat="42.92177" lon="2.63571">
        <ele>311</ele>
        <time>2021-03-21T08:19:52Z</time>
      </trkpt>
      <trkpt lat="42.92165" lon="2.63566">
        <ele>311</ele>
        <time>2021-03-21T08:19:54Z</time>
      </trkpt>
      <trkpt lat="42.92152" lon="2.6356">
        <ele>311</ele>
        <time>2021-03-21T08:19:56Z</time>
      </trkpt>
      <trkpt lat="42.92138" lon="2.63554">
        <ele>310.8</ele>
        <time>2021-03-21T08:19:58Z</time>
      </trkpt>
      <trkpt lat="42.92124" lon="2.6355">
        <ele>310.6</ele>
        <time>2021-03-21T08:20:00Z</time>
      </trkpt>
      <trkpt lat="42.92117" lon="2.63551">
        <ele>310.6</ele>
        <time>2021-03-21T08:20:01Z</time>
      </trkpt>
      <trkpt lat="42.92104" lon="2.63562">
        <ele>310.5</ele>
        <time>2021-03-21T08:20:03Z</time>
      </trkpt>
      <trkpt lat="42.92099" lon="2.6357">
        <ele>310.4</ele>
        <time>2021-03-21T08:20:04Z</time>
      </trkpt>
      <trkpt lat="42.92093" lon="2.63578">
        <ele>310.3</ele>
        <time>2021-03-21T08:20:05Z</time>
      </trkpt>
      <trkpt lat="42.92083" lon="2.63594">
        <ele>310.2</ele>
        <time>2021-03-21T08:20:07Z</time>
      </trkpt>
      <trkpt lat="42.92077" lon="2.63601">
        <ele>310.1</ele>
        <time>2021-03-21T08:20:08Z</time>
      </trkpt>
      <trkpt lat="42.92067" lon="2.63615">
        <ele>310</ele>
        <time>2021-03-21T08:20:10Z</time>
      </trkpt>
      <trkpt lat="42.92061" lon="2.63621">
        <ele>309.9</ele>
        <time>2021-03-21T08:20:11Z</time>
      </trkpt>
      <trkpt lat="42.92056" lon="2.63628">
        <ele>309.9</ele>
        <time>2021-03-21T08:20:12Z</time>
      </trkpt>
      <trkpt lat="42.92045" lon="2.63639">
        <ele>309.8</ele>
        <time>2021-03-21T08:20:14Z</time>
      </trkpt>
      <trkpt lat="42.9204" lon="2.63645">
        <ele>309.7</ele>
        <time>2021-03-21T08:20:15Z</time>
      </trkpt>
      <trkpt lat="42.92029" lon="2.63658">
        <ele>309.5</ele>
        <time>2021-03-21T08:20:17Z</time>
      </trkpt>
      <trkpt lat="42.92017" lon="2.63671">
        <ele>309.3</ele>
        <time>2021-03-21T08:20:19Z</time>
      </trkpt>
      <trkpt lat="42.92003" lon="2.63682">
        <ele>309.1</ele>
        <time>2021-03-21T08:20:21Z</time>
      </trkpt>
      <trkpt lat="42.91995" lon="2.63685">
        <ele>309</ele>
        <time>2021-03-21T08:20:22Z</time>
      </trkpt>
      <trkpt lat="42.91979" lon="2.63689">
        <ele>308.9</ele>
        <time>2021-03-21T08:20:24Z</time>
      </trkpt>
      <trkpt lat="42.91963" lon="2.63694">
        <ele>308.8</ele>
        <time>2021-03-21T08:20:26Z</time>
      </trkpt>
      <trkpt lat="42.91955" lon="2.63699">
        <ele>308.7</ele>
        <time>2021-03-21T08:20:27Z</time>
      </trkpt>
      <trkpt lat="42.91942" lon="2.63712">
        <ele>308.7</ele>
        <time>2021-03-21T08:20:29Z</time>
      </trkpt>
      <trkpt lat="42.91937" lon="2.6372">
        <ele>308.7</ele>
        <time>2021-03-21T08:20:30Z</time>
      </trkpt>
      <trkpt lat="42.91925" lon="2.63736">
        <ele>308.5</ele>
        <time>2021-03-21T08:20:32Z</time>
      </trkpt>
      <trkpt lat="42.91919" lon="2.63743">
        <ele>308.4</ele>
        <time>2021-03-21T08:20:33Z</time>
      </trkpt>
      <trkpt lat="42.91913" lon="2.63749">
        <ele>308.3</ele>
        <time>2021-03-21T08:20:34Z</time>
      </trkpt>
      <trkpt lat="42.91901" lon="2.63762">
        <ele>308.2</ele>
        <time>2021-03-21T08:20:36Z</time>
      </trkpt>
      <trkpt lat="42.91895" lon="2.63768">
        <ele>308.1</ele>
        <time>2021-03-21T08:20:37Z</time>
      </trkpt>
      <trkpt lat="42.91883" lon="2.63782">
        <ele>308</ele>
        <time>2021-03-21T08:20:39Z</time>
      </trkpt>
      <trkpt lat="42.91878" lon="2.63789">
        <ele>308</ele>
        <time>2021-03-21T08:20:40Z</time>
      </trkpt>
      <trkpt lat="42.91868" lon="2.63806">
        <ele>308</ele>
        <time>2021-03-21T08:20:42Z</time>
      </trkpt>
      <trkpt lat="42.91864" lon="2.63814">
        <ele>307.9</ele>
        <time>2021-03-21T08:20:43Z</time>
      </trkpt>
      <trkpt lat="42.91856" lon="2.63831">
        <ele>307.8</ele>
        <time>2021-03-21T08:20:45Z</time>
      </trkpt>
      <trkpt lat="42.91852" lon="2.6384">
        <ele>307.8</ele>
        <time>2021-03-21T08:20:46Z</time>
      </trkpt>
      <trkpt lat="42.91848" lon="2.63849">
        <ele>307.7</ele>
        <time>2021-03-21T08:20:47Z</time>
      </trkpt>
      <trkpt lat="42.91839" lon="2.63866">
        <ele>307.6</ele>
        <time>2021-03-21T08:20:49Z</time>
      </trkpt>
      <trkpt lat="42.91832" lon="2.63883">
        <ele>307.4</ele>
        <time>2021-03-21T08:20:51Z</time>
      </trkpt>
      <trkpt lat="42.91829" lon="2.63892">
        <ele>307.3</ele>
        <time>2021-03-21T08:20:52Z</time>
      </trkpt>
      <trkpt lat="42.91825" lon="2.63901">
        <ele>307.2</ele>
        <time>2021-03-21T08:20:53Z</time>
      </trkpt>
      <trkpt lat="42.91816" lon="2.63919">
        <ele>307</ele>
        <time>2021-03-21T08:20:55Z</time>
      </trkpt>
      <trkpt lat="42.91807" lon="2.63932">
        <ele>306.8</ele>
        <time>2021-03-21T08:20:57Z</time>
      </trkpt>
      <trkpt lat="42.91801" lon="2.63938">
        <ele>306.7</ele>
        <time>2021-03-21T08:20:58Z</time>
      </trkpt>
      <trkpt lat="42.91789" lon="2.63947">
        <ele>306.6</ele>
        <time>2021-03-21T08:21:00Z</time>
      </trkpt>
      <trkpt lat="42.91777" lon="2.63957">
        <ele>306.4</ele>
        <time>2021-03-21T08:21:02Z</time>
      </trkpt>
      <trkpt lat="42.91766" lon="2.63969">
        <ele>306.4</ele>
        <time>2021-03-21T08:21:04Z</time>
      </trkpt>
      <trkpt lat="42.91761" lon="2.63975">
        <ele>306.4</ele>
        <time>2021-03-21T08:21:05Z</time>
      </trkpt>
      <trkpt lat="42.91748" lon="2.63984">
        <ele>306.3</ele>
        <time>2021-03-21T08:21:07Z</time>
      </trkpt>
      <trkpt lat="42.91742" lon="2.63988">
        <ele>306.3</ele>
        <time>2021-03-21T08:21:08Z</time>
      </trkpt>
      <trkpt lat="42.91735" lon="2.63991">
        <ele>306.3</ele>
        <time>2021-03-21T08:21:09Z</time>
      </trkpt>
      <trkpt lat="42.91721" lon="2.63997">
        <ele>306.2</ele>
        <time>2021-03-21T08:21:11Z</time>
      </trkpt>
      <trkpt lat="42.91714" lon="2.64">
        <ele>306.2</ele>
        <time>2021-03-21T08:21:12Z</time>
      </trkpt>
      <trkpt lat="42.917" lon="2.64002">
        <ele>306.1</ele>
        <time>2021-03-21T08:21:14Z</time>
      </trkpt>
      <trkpt lat="42.91692" lon="2.64001">
        <ele>306</ele>
        <time>2021-03-21T08:21:15Z</time>
      </trkpt>
      <trkpt lat="42.91678" lon="2.63995">
        <ele>306</ele>
        <time>2021-03-21T08:21:17Z</time>
      </trkpt>
      <trkpt lat="42.91671" lon="2.63991">
        <ele>306</ele>
        <time>2021-03-21T08:21:18Z</time>
      </trkpt>
      <trkpt lat="42.91657" lon="2.63983">
        <ele>305.9</ele>
        <time>2021-03-21T08:21:20Z</time>
      </trkpt>
      <trkpt lat="42.91643" lon="2.63975">
        <ele>305.8</ele>
        <time>2021-03-21T08:21:22Z</time>
      </trkpt>
      <trkpt lat="42.91636" lon="2.63972">
        <ele>305.7</ele>
        <time>2021-03-21T08:21:23Z</time>
      </trkpt>
      <trkpt lat="42.91622" lon="2.63962">
        <ele>305.5</ele>
        <time>2021-03-21T08:21:25Z</time>
      </trkpt>
      <trkpt lat="42.9161" lon="2.63949">
        <ele>305.4</ele>
        <time>2021-03-21T08:21:27Z</time>
      </trkpt>
      <trkpt lat="42.91603" lon="2.63942">
        <ele>305.3</ele>
        <time>2021-03-21T08:21:28Z</time>
      </trkpt>
      <trkpt lat="42.91588" lon="2.63934">
        <ele>305.2</ele>
        <time>2021-03-21T08:21:30Z</time>
      </trkpt>
      <trkpt lat="42.91572" lon="2.63931">
        <ele>305</ele>
        <time>2021-03-21T08:21:32Z</time>
      </trkpt>
      <trkpt lat="42.91564" lon="2.63929">
        <ele>304.9</ele>
        <time>2021-03-21T08:21:33Z</time>
      </trkpt>
      <trkpt lat="42.91551" lon="2.63917">
        <ele>304.8</ele>
        <time>2021-03-21T08:21:35Z</time>
      </trkpt>
      <trkpt lat="42.91546" lon="2.63908">
        <ele>304.8</ele>
        <time>2021-03-21T08:21:36Z</time>
      </trkpt>
      <trkpt lat="42.91541" lon="2.63888">
        <ele>304.7</ele>
        <time>2021-03-21T08:21:38Z</time>
      </trkpt>
      <trkpt lat="42.91542" lon="2.63866">
        <ele>304.6</ele>
        <time>2021-03-21T08:21:40Z</time>
      </trkpt>
      <trkpt lat="42.91544" lon="2.63855">
        <ele>304.6</ele>
        <time>2021-03-21T08:21:41Z</time>
      </trkpt>
      <trkpt lat="42.91549" lon="2.63833">
        <ele>304.5</ele>
        <time>2021-03-21T08:21:43Z</time>
      </trkpt>
      <trkpt lat="42.91551" lon="2.63823">
        <ele>304.4</ele>
        <time>2021-03-21T08:21:44Z</time>
      </trkpt>
      <trkpt lat="42.91551" lon="2.63803">
        <ele>304.3</ele>
        <time>2021-03-21T08:21:46Z</time>
      </trkpt>
      <trkpt lat="42.91547" lon="2.63793">
        <ele>304.3</ele>
        <time>2021-03-21T08:21:47Z</time>
      </trkpt>
      <trkpt lat="42.91532" lon="2.63782">
        <ele>304.1</ele>
        <time>2021-03-21T08:21:49Z</time>
      </trkpt>
      <trkpt lat="42.91523" lon="2.6378">
        <ele>304.1</ele>
        <time>2021-03-21T08:21:50Z</time>
      </trkpt>
      <trkpt lat="42.91515" lon="2.63777">
        <ele>304</ele>
        <time>2021-03-21T08:21:51Z</time>
      </trkpt>
      <trkpt lat="42.91499" lon="2.6377">
        <ele>303.9</ele>
        <time>2021-03-21T08:21:53Z</time>
      </trkpt>
      <trkpt lat="42.91485" lon="2.63761">
        <ele>303.7</ele>
        <time>2021-03-21T08:21:55Z</time>
      </trkpt>
      <trkpt lat="42.91477" lon="2.63756">
        <ele>303.6</ele>
        <time>2021-03-21T08:21:56Z</time>
      </trkpt>
      <trkpt lat="42.9147" lon="2.6375">
        <ele>303.5</ele>
        <time>2021-03-21T08:21:57Z</time>
      </trkpt>
      <trkpt lat="42.91464" lon="2.63744">
        <ele>303.4</ele>
        <time>2021-03-21T08:21:58Z</time>
      </trkpt>
      <trkpt lat="42.91459" lon="2.63736">
        <ele>303.3</ele>
        <time>2021-03-21T08:21:59Z</time>
      </trkpt>
      <trkpt lat="42.91454" lon="2.63716">
        <ele>303</ele>
        <time>2021-03-21T08:22:01Z</time>
      </trkpt>
      <trkpt lat="42.91453" lon="2.63705">
        <ele>302.9</ele>
        <time>2021-03-21T08:22:02Z</time>
      </trkpt>
      <trkpt lat="42.91453" lon="2.63694">
        <ele>302.7</ele>
        <time>2021-03-21T08:22:03Z</time>
      </trkpt>
      <trkpt lat="42.91453" lon="2.63672">
        <ele>302.5</ele>
        <time>2021-03-21T08:22:05Z</time>
      </trkpt>
      <trkpt lat="42.91454" lon="2.63661">
        <ele>302.5</ele>
        <time>2021-03-21T08:22:06Z</time>
      </trkpt>
      <trkpt lat="42.91456" lon="2.6364">
        <ele>302.4</ele>
        <time>2021-03-21T08:22:08Z</time>
      </trkpt>
      <trkpt lat="42.91459" lon="2.63631">
        <ele>302.4</ele>
        <time>2021-03-21T08:22:09Z</time>
      </trkpt>
      <trkpt lat="42.91463" lon="2.63622">
        <ele>302.4</ele>
        <time>2021-03-21T08:22:10Z</time>
      </trkpt>
      <trkpt lat="42.91466" lon="2.63613">
        <ele>302.3</ele>
        <time>2021-03-21T08:22:11Z</time>
      </trkpt>
      <trkpt lat="42.91472" lon="2.63597">
        <ele>302.3</ele>
        <time>2021-03-21T08:22:13Z</time>
      </trkpt>
      <trkpt lat="42.91479" lon="2.63579">
        <ele>302.2</ele>
        <time>2021-03-21T08:22:15Z</time>
      </trkpt>
      <trkpt lat="42.91482" lon="2.6357">
        <ele>302.1</ele>
        <time>2021-03-21T08:22:16Z</time>
      </trkpt>
      <trkpt lat="42.91487" lon="2.63552">
        <ele>302</ele>
        <time>2021-03-21T08:22:18Z</time>
      </trkpt>
      <trkpt lat="42.91489" lon="2.63543">
        <ele>301.9</ele>
        <time>2021-03-21T08:22:19Z</time>
      </trkpt>
      <trkpt lat="42.91492" lon="2.63534">
        <ele>301.8</ele>
        <time>2021-03-21T08:22:20Z</time>
      </trkpt>
      <trkpt lat="42.91497" lon="2.63515">
        <ele>301.7</ele>
        <time>2021-03-21T08:22:22Z</time>
      </trkpt>
      <trkpt lat="42.91502" lon="2.63497">
        <ele>301.5</ele>
        <time>2021-03-21T08:22:24Z</time>
      </trkpt>
      <trkpt lat="42.91509" lon="2.6348">
        <ele>301.4</ele>
        <time>2021-03-21T08:22:26Z</time>
      </trkpt>
      <trkpt lat="42.91513" lon="2.63473">
        <ele>301.3</ele>
        <time>2021-03-21T08:22:27Z</time>
      </trkpt>
      <trkpt lat="42.91523" lon="2.6346">
        <ele>301.1</ele>
        <time>2021-03-21T08:22:29Z</time>
      </trkpt>
      <trkpt lat="42.91528" lon="2.63453">
        <ele>301</ele>
        <time>2021-03-21T08:22:30Z</time>
      </trkpt>
      <trkpt lat="42.91533" lon="2.63447">
        <ele>301</ele>
        <time>2021-03-21T08:22:31Z</time>
      </trkpt>
      <trkpt lat="42.91538" lon="2.6344">
        <ele>300.9</ele>
        <time>2021-03-21T08:22:32Z</time>
      </trkpt>
      <trkpt lat="42.91546" lon="2.63424">
        <ele>300.8</ele>
        <time>2021-03-21T08:22:34Z</time>
      </trkpt>
      <trkpt lat="42.91552" lon="2.63404">
        <ele>300.7</ele>
        <time>2021-03-21T08:22:36Z</time>
      </trkpt>
      <trkpt lat="42.91554" lon="2.63383">
        <ele>300.7</ele>
        <time>2021-03-21T08:22:38Z</time>
      </trkpt>
      <trkpt lat="42.91554" lon="2.63374">
        <ele>300.7</ele>
        <time>2021-03-21T08:22:39Z</time>
      </trkpt>
      <trkpt lat="42.91553" lon="2.63364">
        <ele>300.6</ele>
        <time>2021-03-21T08:22:40Z</time>
      </trkpt>
      <trkpt lat="42.91552" lon="2.63345">
        <ele>300.5</ele>
        <time>2021-03-21T08:22:42Z</time>
      </trkpt>
      <trkpt lat="42.91553" lon="2.63326">
        <ele>300.3</ele>
        <time>2021-03-21T08:22:44Z</time>
      </trkpt>
      <trkpt lat="42.91554" lon="2.63317">
        <ele>300.2</ele>
        <time>2021-03-21T08:22:45Z</time>
      </trkpt>
      <trkpt lat="42.91553" lon="2.63298">
        <ele>300.1</ele>
        <time>2021-03-21T08:22:47Z</time>
      </trkpt>
      <trkpt lat="42.91551" lon="2.63288">
        <ele>299.9</ele>
        <time>2021-03-21T08:22:48Z</time>
      </trkpt>
      <trkpt lat="42.91543" lon="2.6327">
        <ele>299.7</ele>
        <time>2021-03-21T08:22:50Z</time>
      </trkpt>
      <trkpt lat="42.91538" lon="2.63261">
        <ele>299.6</ele>
        <time>2021-03-21T08:22:51Z</time>
      </trkpt>
      <trkpt lat="42.9153" lon="2.63245">
        <ele>299.3</ele>
        <time>2021-03-21T08:22:53Z</time>
      </trkpt>
      <trkpt lat="42.91524" lon="2.63227">
        <ele>299</ele>
        <time>2021-03-21T08:22:55Z</time>
      </trkpt>
      <trkpt lat="42.9152" lon="2.63209">
        <ele>298.9</ele>
        <time>2021-03-21T08:22:57Z</time>
      </trkpt>
      <trkpt lat="42.91518" lon="2.632">
        <ele>298.8</ele>
        <time>2021-03-21T08:22:58Z</time>
      </trkpt>
      <trkpt lat="42.91516" lon="2.63191">
        <ele>298.8</ele>
        <time>2021-03-21T08:22:59Z</time>
      </trkpt>
      <trkpt lat="42.91514" lon="2.63183">
        <ele>298.7</ele>
        <time>2021-03-21T08:23:00Z</time>
      </trkpt>
      <trkpt lat="42.9151" lon="2.63165">
        <ele>298.6</ele>
        <time>2021-03-21T08:23:02Z</time>
      </trkpt>
      <trkpt lat="42.91507" lon="2.63148">
        <ele>298.4</ele>
        <time>2021-03-21T08:23:04Z</time>
      </trkpt>
      <trkpt lat="42.91504" lon="2.6313">
        <ele>298.3</ele>
        <time>2021-03-21T08:23:06Z</time>
      </trkpt>
      <trkpt lat="42.91502" lon="2.6312">
        <ele>298.1</ele>
        <time>2021-03-21T08:23:07Z</time>
      </trkpt>
      <trkpt lat="42.91498" lon="2.63102">
        <ele>297.9</ele>
        <time>2021-03-21T08:23:09Z</time>
      </trkpt>
      <trkpt lat="42.91497" lon="2.63092">
        <ele>297.8</ele>
        <time>2021-03-21T08:23:10Z</time>
      </trkpt>
      <trkpt lat="42.91494" lon="2.63073">
        <ele>297.7</ele>
        <time>2021-03-21T08:23:12Z</time>
      </trkpt>
      <trkpt lat="42.91493" lon="2.63052">
        <ele>297.6</ele>
        <time>2021-03-21T08:23:14Z</time>
      </trkpt>
      <trkpt lat="42.91493" lon="2.63042">
        <ele>297.5</ele>
        <time>2021-03-21T08:23:15Z</time>
      </trkpt>
      <trkpt lat="42.91493" lon="2.63031">
        <ele>297.4</ele>
        <time>2021-03-21T08:23:16Z</time>
      </trkpt>
      <trkpt lat="42.91493" lon="2.63011">
        <ele>297.2</ele>
        <time>2021-03-21T08:23:18Z</time>
      </trkpt>
      <trkpt lat="42.91492" lon="2.63002">
        <ele>297.1</ele>
        <time>2021-03-21T08:23:19Z</time>
      </trkpt>
      <trkpt lat="42.91492" lon="2.62983">
        <ele>296.9</ele>
        <time>2021-03-21T08:23:21Z</time>
      </trkpt>
      <trkpt lat="42.91494" lon="2.62964">
        <ele>296.7</ele>
        <time>2021-03-21T08:23:23Z</time>
      </trkpt>
      <trkpt lat="42.91496" lon="2.62955">
        <ele>296.7</ele>
        <time>2021-03-21T08:23:24Z</time>
      </trkpt>
      <trkpt lat="42.91504" lon="2.62938">
        <ele>296.6</ele>
        <time>2021-03-21T08:23:26Z</time>
      </trkpt>
      <trkpt lat="42.91509" lon="2.6293">
        <ele>296.5</ele>
        <time>2021-03-21T08:23:27Z</time>
      </trkpt>
      <trkpt lat="42.91513" lon="2.62921">
        <ele>296.5</ele>
        <time>2021-03-21T08:23:28Z</time>
      </trkpt>
      <trkpt lat="42.91519" lon="2.62902">
        <ele>296.3</ele>
        <time>2021-03-21T08:23:30Z</time>
      </trkpt>
      <trkpt lat="42.91521" lon="2.62893">
        <ele>296.2</ele>
        <time>2021-03-21T08:23:31Z</time>
      </trkpt>
      <trkpt lat="42.91524" lon="2.62873">
        <ele>296.1</ele>
        <time>2021-03-21T08:23:33Z</time>
      </trkpt>
      <trkpt lat="42.91526" lon="2.62864">
        <ele>296</ele>
        <time>2021-03-21T08:23:34Z</time>
      </trkpt>
      <trkpt lat="42.91531" lon="2.62847">
        <ele>295.9</ele>
        <time>2021-03-21T08:23:36Z</time>
      </trkpt>
      <trkpt lat="42.91535" lon="2.62832">
        <ele>295.9</ele>
        <time>2021-03-21T08:23:38Z</time>
      </trkpt>
      <trkpt lat="42.91531" lon="2.62816">
        <ele>296.3</ele>
        <time>2021-03-21T08:23:40Z</time>
      </trkpt>
      <trkpt lat="42.91527" lon="2.6281">
        <ele>297.1</ele>
        <time>2021-03-21T08:23:41Z</time>
      </trkpt>
      <trkpt lat="42.91521" lon="2.62807">
        <ele>298</ele>
        <time>2021-03-21T08:23:43Z</time>
      </trkpt>
      <trkpt lat="42.91519" lon="2.62807">
        <ele>297.9</ele>
        <time>2021-03-21T08:23:44Z</time>
      </trkpt>
      <trkpt lat="42.91517" lon="2.62809">
        <ele>297.8</ele>
        <time>2021-03-21T08:23:46Z</time>
      </trkpt>
      <trkpt lat="42.91518" lon="2.62811">
        <ele>297.7</ele>
        <time>2021-03-21T08:23:47Z</time>
      </trkpt>
      <trkpt lat="42.9152" lon="2.62813">
        <ele>297.6</ele>
        <time>2021-03-21T08:23:49Z</time>
      </trkpt>
      <trkpt lat="42.9152" lon="2.62815">
        <ele>297.5</ele>
        <time>2021-03-21T08:23:50Z</time>
      </trkpt>
      <trkpt lat="42.91519" lon="2.62814">
        <ele>297.5</ele>
        <time>2021-03-21T08:23:51Z</time>
      </trkpt>
      <trkpt lat="42.91518" lon="2.62814">
        <ele>297.4</ele>
        <time>2021-03-21T08:23:53Z</time>
      </trkpt>
      <trkpt lat="42.91517" lon="2.62813">
        <ele>297.4</ele>
        <time>2021-03-21T08:23:54Z</time>
      </trkpt>
      <trkpt lat="42.91516" lon="2.62813">
        <ele>297.3</ele>
        <time>2021-03-21T08:23:56Z</time>
      </trkpt>
      <trkpt lat="42.91515" lon="2.62812">
        <ele>297.3</ele>
        <time>2021-03-21T08:23:57Z</time>
      </trkpt>
      <trkpt lat="42.91514" lon="2.62812">
        <ele>297.2</ele>
        <time>2021-03-21T08:23:59Z</time>
      </trkpt>
      <trkpt lat="42.91512" lon="2.62811">
        <ele>297.1</ele>
        <time>2021-03-21T08:24:42Z</time>
      </trkpt>
      <trkpt lat="42.91511" lon="2.62811">
        <ele>297.1</ele>
        <time>2021-03-21T08:24:43Z</time>
      </trkpt>
      <trkpt lat="42.91507" lon="2.6281">
        <ele>296.9</ele>
        <time>2021-03-21T08:24:44Z</time>
      </trkpt>
      <trkpt lat="42.91502" lon="2.62811">
        <ele>296</ele>
        <time>2021-03-21T08:24:46Z</time>
      </trkpt>
      <trkpt lat="42.91494" lon="2.62814">
        <ele>296.3</ele>
        <time>2021-03-21T08:24:47Z</time>
      </trkpt>
      <trkpt lat="42.91486" lon="2.62825">
        <ele>296.9</ele>
        <time>2021-03-21T08:24:49Z</time>
      </trkpt>
      <trkpt lat="42.91483" lon="2.62831">
        <ele>297.2</ele>
        <time>2021-03-21T08:24:50Z</time>
      </trkpt>
      <trkpt lat="42.91477" lon="2.62842">
        <ele>297.8</ele>
        <time>2021-03-21T08:24:52Z</time>
      </trkpt>
      <trkpt lat="42.91474" lon="2.62848">
        <ele>298.1</ele>
        <time>2021-03-21T08:24:53Z</time>
      </trkpt>
      <trkpt lat="42.91472" lon="2.62857">
        <ele>298.5</ele>
        <time>2021-03-21T08:24:55Z</time>
      </trkpt>
      <trkpt lat="42.91472" lon="2.62865">
        <ele>298.9</ele>
        <time>2021-03-21T08:24:57Z</time>
      </trkpt>
      <trkpt lat="42.91467" lon="2.62871">
        <ele>299.3</ele>
        <time>2021-03-21T08:24:59Z</time>
      </trkpt>
      <trkpt lat="42.91465" lon="2.62874">
        <ele>299.5</ele>
        <time>2021-03-21T08:25:00Z</time>
      </trkpt>
      <trkpt lat="42.91462" lon="2.62878">
        <ele>299.8</ele>
        <time>2021-03-21T08:25:01Z</time>
      </trkpt>
      <trkpt lat="42.9146" lon="2.62882">
        <ele>300</ele>
        <time>2021-03-21T08:25:02Z</time>
      </trkpt>
      <trkpt lat="42.91455" lon="2.62888">
        <ele>300.4</ele>
        <time>2021-03-21T08:25:04Z</time>
      </trkpt>
      <trkpt lat="42.91452" lon="2.62893">
        <ele>300.8</ele>
        <time>2021-03-21T08:25:05Z</time>
      </trkpt>
      <trkpt lat="42.91449" lon="2.62898">
        <ele>301.1</ele>
        <time>2021-03-21T08:25:06Z</time>
      </trkpt>
      <trkpt lat="42.91446" lon="2.62903">
        <ele>301.5</ele>
        <time>2021-03-21T08:25:07Z</time>
      </trkpt>
      <trkpt lat="42.91442" lon="2.62909">
        <ele>301.9</ele>
        <time>2021-03-21T08:25:09Z</time>
      </trkpt>
      <trkpt lat="42.91439" lon="2.62914">
        <ele>302.2</ele>
        <time>2021-03-21T08:25:10Z</time>
      </trkpt>
      <trkpt lat="42.91436" lon="2.6292">
        <ele>302.5</ele>
        <time>2021-03-21T08:25:12Z</time>
      </trkpt>
      <trkpt lat="42.91433" lon="2.62927">
        <ele>302.9</ele>
        <time>2021-03-21T08:25:13Z</time>
      </trkpt>
      <trkpt lat="42.91429" lon="2.62933">
        <ele>303.4</ele>
        <time>2021-03-21T08:25:15Z</time>
      </trkpt>
      <trkpt lat="42.91426" lon="2.62938">
        <ele>303.6</ele>
        <time>2021-03-21T08:25:16Z</time>
      </trkpt>
      <trkpt lat="42.91423" lon="2.62942">
        <ele>303.9</ele>
        <time>2021-03-21T08:25:17Z</time>
      </trkpt>
      <trkpt lat="42.91422" lon="2.62946">
        <ele>304.1</ele>
        <time>2021-03-21T08:25:18Z</time>
      </trkpt>
      <trkpt lat="42.91419" lon="2.62952">
        <ele>304.4</ele>
        <time>2021-03-21T08:25:20Z</time>
      </trkpt>
      <trkpt lat="42.91416" lon="2.62956">
        <ele>304.6</ele>
        <time>2021-03-21T08:25:21Z</time>
      </trkpt>
      <trkpt lat="42.91414" lon="2.62959">
        <ele>304.8</ele>
        <time>2021-03-21T08:25:22Z</time>
      </trkpt>
      <trkpt lat="42.91411" lon="2.62963">
        <ele>305.1</ele>
        <time>2021-03-21T08:25:23Z</time>
      </trkpt>
      <trkpt lat="42.91408" lon="2.62969">
        <ele>305.4</ele>
        <time>2021-03-21T08:25:25Z</time>
      </trkpt>
      <trkpt lat="42.91406" lon="2.62972">
        <ele>305.6</ele>
        <time>2021-03-21T08:25:26Z</time>
      </trkpt>
      <trkpt lat="42.91402" lon="2.62976">
        <ele>305.9</ele>
        <time>2021-03-21T08:25:28Z</time>
      </trkpt>
      <trkpt lat="42.91398" lon="2.6298">
        <ele>306.3</ele>
        <time>2021-03-21T08:25:30Z</time>
      </trkpt>
      <trkpt lat="42.91395" lon="2.62983">
        <ele>306.5</ele>
        <time>2021-03-21T08:25:31Z</time>
      </trkpt>
      <trkpt lat="42.91393" lon="2.62985">
        <ele>306.6</ele>
        <time>2021-03-21T08:25:32Z</time>
      </trkpt>
      <trkpt lat="42.91392" lon="2.62988">
        <ele>306.8</ele>
        <time>2021-03-21T08:25:33Z</time>
      </trkpt>
      <trkpt lat="42.91388" lon="2.62996">
        <ele>307.3</ele>
        <time>2021-03-21T08:25:35Z</time>
      </trkpt>
      <trkpt lat="42.91387" lon="2.63">
        <ele>307.5</ele>
        <time>2021-03-21T08:25:36Z</time>
      </trkpt>
      <trkpt lat="42.91386" lon="2.63002">
        <ele>307.6</ele>
        <time>2021-03-21T08:25:37Z</time>
      </trkpt>
      <trkpt lat="42.91385" lon="2.63007">
        <ele>307.9</ele>
        <time>2021-03-21T08:25:39Z</time>
      </trkpt>
      <trkpt lat="42.91383" lon="2.63015">
        <ele>308.4</ele>
        <time>2021-03-21T08:25:40Z</time>
      </trkpt>
      <trkpt lat="42.91382" lon="2.63022">
        <ele>308.7</ele>
        <time>2021-03-21T08:25:42Z</time>
      </trkpt>
      <trkpt lat="42.91381" lon="2.63029">
        <ele>309</ele>
        <time>2021-03-21T08:25:43Z</time>
      </trkpt>
      <trkpt lat="42.91381" lon="2.63036">
        <ele>309.4</ele>
        <time>2021-03-21T08:25:44Z</time>
      </trkpt>
      <trkpt lat="42.91381" lon="2.63046">
        <ele>309.9</ele>
        <time>2021-03-21T08:25:45Z</time>
      </trkpt>
      <trkpt lat="42.91381" lon="2.63052">
        <ele>310.2</ele>
        <time>2021-03-21T08:25:46Z</time>
      </trkpt>
      <trkpt lat="42.91382" lon="2.63059">
        <ele>310.6</ele>
        <time>2021-03-21T08:25:48Z</time>
      </trkpt>
      <trkpt lat="42.91383" lon="2.63065">
        <ele>310.9</ele>
        <time>2021-03-21T08:25:49Z</time>
      </trkpt>
      <trkpt lat="42.91384" lon="2.63072">
        <ele>311.3</ele>
        <time>2021-03-21T08:25:50Z</time>
      </trkpt>
      <trkpt lat="42.91385" lon="2.63077">
        <ele>311.6</ele>
        <time>2021-03-21T08:25:51Z</time>
      </trkpt>
      <trkpt lat="42.91387" lon="2.63088">
        <ele>312.2</ele>
        <time>2021-03-21T08:25:53Z</time>
      </trkpt>
      <trkpt lat="42.91387" lon="2.63094">
        <ele>312.5</ele>
        <time>2021-03-21T08:25:54Z</time>
      </trkpt>
      <trkpt lat="42.91386" lon="2.63104">
        <ele>313.1</ele>
        <time>2021-03-21T08:25:56Z</time>
      </trkpt>
      <trkpt lat="42.91386" lon="2.6311">
        <ele>313.5</ele>
        <time>2021-03-21T08:25:57Z</time>
      </trkpt>
      <trkpt lat="42.91385" lon="2.63116">
        <ele>313.8</ele>
        <time>2021-03-21T08:25:58Z</time>
      </trkpt>
      <trkpt lat="42.91384" lon="2.6312">
        <ele>314.1</ele>
        <time>2021-03-21T08:25:59Z</time>
      </trkpt>
      <trkpt lat="42.91382" lon="2.63129">
        <ele>314.7</ele>
        <time>2021-03-21T08:26:01Z</time>
      </trkpt>
      <trkpt lat="42.91381" lon="2.63134">
        <ele>315</ele>
        <time>2021-03-21T08:26:02Z</time>
      </trkpt>
      <trkpt lat="42.9138" lon="2.6314">
        <ele>315.3</ele>
        <time>2021-03-21T08:26:03Z</time>
      </trkpt>
      <trkpt lat="42.91381" lon="2.63147">
        <ele>315.7</ele>
        <time>2021-03-21T08:26:04Z</time>
      </trkpt>
      <trkpt lat="42.91381" lon="2.63154">
        <ele>316.1</ele>
        <time>2021-03-21T08:26:06Z</time>
      </trkpt>
      <trkpt lat="42.91381" lon="2.6316">
        <ele>316.4</ele>
        <time>2021-03-21T08:26:07Z</time>
      </trkpt>
      <trkpt lat="42.91382" lon="2.63168">
        <ele>316.8</ele>
        <time>2021-03-21T08:26:08Z</time>
      </trkpt>
      <trkpt lat="42.91383" lon="2.63174">
        <ele>317.2</ele>
        <time>2021-03-21T08:26:09Z</time>
      </trkpt>
      <trkpt lat="42.91385" lon="2.6318">
        <ele>317.5</ele>
        <time>2021-03-21T08:26:10Z</time>
      </trkpt>
      <trkpt lat="42.91386" lon="2.63185">
        <ele>317.8</ele>
        <time>2021-03-21T08:26:12Z</time>
      </trkpt>
      <trkpt lat="42.91388" lon="2.63191">
        <ele>318.1</ele>
        <time>2021-03-21T08:26:13Z</time>
      </trkpt>
      <trkpt lat="42.9139" lon="2.63197">
        <ele>318.4</ele>
        <time>2021-03-21T08:26:14Z</time>
      </trkpt>
      <trkpt lat="42.91392" lon="2.63202">
        <ele>318.8</ele>
        <time>2021-03-21T08:26:15Z</time>
      </trkpt>
      <trkpt lat="42.91395" lon="2.63209">
        <ele>319.1</ele>
        <time>2021-03-21T08:26:17Z</time>
      </trkpt>
      <trkpt lat="42.91398" lon="2.63215">
        <ele>319.4</ele>
        <time>2021-03-21T08:26:18Z</time>
      </trkpt>
      <trkpt lat="42.91401" lon="2.6322">
        <ele>319.7</ele>
        <time>2021-03-21T08:26:19Z</time>
      </trkpt>
      <trkpt lat="42.91405" lon="2.63226">
        <ele>320</ele>
        <time>2021-03-21T08:26:20Z</time>
      </trkpt>
      <trkpt lat="42.91409" lon="2.63236">
        <ele>320.6</ele>
        <time>2021-03-21T08:26:22Z</time>
      </trkpt>
      <trkpt lat="42.91413" lon="2.63246">
        <ele>321.2</ele>
        <time>2021-03-21T08:26:24Z</time>
      </trkpt>
      <trkpt lat="42.91414" lon="2.63252">
        <ele>321.5</ele>
        <time>2021-03-21T08:26:25Z</time>
      </trkpt>
      <trkpt lat="42.91415" lon="2.63258">
        <ele>321.8</ele>
        <time>2021-03-21T08:26:26Z</time>
      </trkpt>
      <trkpt lat="42.91416" lon="2.63265">
        <ele>322.1</ele>
        <time>2021-03-21T08:26:27Z</time>
      </trkpt>
      <trkpt lat="42.91417" lon="2.63275">
        <ele>322.6</ele>
        <time>2021-03-21T08:26:29Z</time>
      </trkpt>
      <trkpt lat="42.91417" lon="2.63282">
        <ele>323</ele>
        <time>2021-03-21T08:26:30Z</time>
      </trkpt>
      <trkpt lat="42.91417" lon="2.63289">
        <ele>323.3</ele>
        <time>2021-03-21T08:26:32Z</time>
      </trkpt>
      <trkpt lat="42.91416" lon="2.63296">
        <ele>323.7</ele>
        <time>2021-03-21T08:26:33Z</time>
      </trkpt>
      <trkpt lat="42.91416" lon="2.63305">
        <ele>324.2</ele>
        <time>2021-03-21T08:26:35Z</time>
      </trkpt>
      <trkpt lat="42.91416" lon="2.63311">
        <ele>324.6</ele>
        <time>2021-03-21T08:26:36Z</time>
      </trkpt>
      <trkpt lat="42.91414" lon="2.63318">
        <ele>325</ele>
        <time>2021-03-21T08:26:38Z</time>
      </trkpt>
      <trkpt lat="42.91412" lon="2.63324">
        <ele>325.4</ele>
        <time>2021-03-21T08:26:39Z</time>
      </trkpt>
      <trkpt lat="42.9141" lon="2.63329">
        <ele>325.7</ele>
        <time>2021-03-21T08:26:40Z</time>
      </trkpt>
      <trkpt lat="42.91406" lon="2.63336">
        <ele>326.2</ele>
        <time>2021-03-21T08:26:42Z</time>
      </trkpt>
      <trkpt lat="42.91404" lon="2.6334">
        <ele>326.5</ele>
        <time>2021-03-21T08:26:43Z</time>
      </trkpt>
      <trkpt lat="42.91402" lon="2.63346">
        <ele>326.8</ele>
        <time>2021-03-21T08:26:44Z</time>
      </trkpt>
      <trkpt lat="42.91399" lon="2.63351">
        <ele>327.2</ele>
        <time>2021-03-21T08:26:45Z</time>
      </trkpt>
      <trkpt lat="42.91397" lon="2.63355">
        <ele>327.4</ele>
        <time>2021-03-21T08:26:46Z</time>
      </trkpt>
      <trkpt lat="42.91393" lon="2.63363">
        <ele>327.9</ele>
        <time>2021-03-21T08:26:48Z</time>
      </trkpt>
      <trkpt lat="42.9139" lon="2.63368">
        <ele>328.2</ele>
        <time>2021-03-21T08:26:49Z</time>
      </trkpt>
      <trkpt lat="42.91387" lon="2.63372">
        <ele>328.4</ele>
        <time>2021-03-21T08:26:50Z</time>
      </trkpt>
      <trkpt lat="42.91381" lon="2.63379">
        <ele>328.9</ele>
        <time>2021-03-21T08:26:52Z</time>
      </trkpt>
      <trkpt lat="42.91376" lon="2.63384">
        <ele>329.3</ele>
        <time>2021-03-21T08:26:54Z</time>
      </trkpt>
      <trkpt lat="42.91371" lon="2.63388">
        <ele>329.7</ele>
        <time>2021-03-21T08:26:55Z</time>
      </trkpt>
      <trkpt lat="42.91367" lon="2.6339">
        <ele>330</ele>
        <time>2021-03-21T08:26:56Z</time>
      </trkpt>
      <trkpt lat="42.91362" lon="2.63393">
        <ele>330.4</ele>
        <time>2021-03-21T08:26:58Z</time>
      </trkpt>
      <trkpt lat="42.91359" lon="2.63395">
        <ele>330.6</ele>
        <time>2021-03-21T08:26:59Z</time>
      </trkpt>
      <trkpt lat="42.91355" lon="2.63397">
        <ele>331</ele>
        <time>2021-03-21T08:27:01Z</time>
      </trkpt>
      <trkpt lat="42.91351" lon="2.63399">
        <ele>331.3</ele>
        <time>2021-03-21T08:27:02Z</time>
      </trkpt>
      <trkpt lat="42.91348" lon="2.63399">
        <ele>331.6</ele>
        <time>2021-03-21T08:27:03Z</time>
      </trkpt>
      <trkpt lat="42.91342" lon="2.634">
        <ele>331.9</ele>
        <time>2021-03-21T08:27:05Z</time>
      </trkpt>
      <trkpt lat="42.91338" lon="2.63402">
        <ele>332.2</ele>
        <time>2021-03-21T08:27:06Z</time>
      </trkpt>
      <trkpt lat="42.91333" lon="2.63403">
        <ele>332.5</ele>
        <time>2021-03-21T08:27:07Z</time>
      </trkpt>
      <trkpt lat="42.91327" lon="2.63404">
        <ele>332.9</ele>
        <time>2021-03-21T08:27:09Z</time>
      </trkpt>
      <trkpt lat="42.91321" lon="2.63406">
        <ele>333.3</ele>
        <time>2021-03-21T08:27:10Z</time>
      </trkpt>
      <trkpt lat="42.91317" lon="2.63406">
        <ele>333.6</ele>
        <time>2021-03-21T08:27:11Z</time>
      </trkpt>
      <trkpt lat="42.91312" lon="2.63405">
        <ele>333.9</ele>
        <time>2021-03-21T08:27:12Z</time>
      </trkpt>
      <trkpt lat="42.91307" lon="2.63402">
        <ele>334.3</ele>
        <time>2021-03-21T08:27:14Z</time>
      </trkpt>
      <trkpt lat="42.91304" lon="2.63402">
        <ele>334.6</ele>
        <time>2021-03-21T08:27:15Z</time>
      </trkpt>
      <trkpt lat="42.913" lon="2.63399">
        <ele>334.9</ele>
        <time>2021-03-21T08:27:16Z</time>
      </trkpt>
      <trkpt lat="42.91297" lon="2.63397">
        <ele>335.2</ele>
        <time>2021-03-21T08:27:17Z</time>
      </trkpt>
      <trkpt lat="42.91293" lon="2.63394">
        <ele>335.5</ele>
        <time>2021-03-21T08:27:19Z</time>
      </trkpt>
      <trkpt lat="42.9129" lon="2.63392">
        <ele>335.8</ele>
        <time>2021-03-21T08:27:20Z</time>
      </trkpt>
      <trkpt lat="42.91285" lon="2.6339">
        <ele>336.2</ele>
        <time>2021-03-21T08:27:21Z</time>
      </trkpt>
      <trkpt lat="42.91279" lon="2.6339">
        <ele>336.5</ele>
        <time>2021-03-21T08:27:22Z</time>
      </trkpt>
      <trkpt lat="42.91273" lon="2.63388">
        <ele>336.9</ele>
        <time>2021-03-21T08:27:24Z</time>
      </trkpt>
      <trkpt lat="42.91268" lon="2.63386">
        <ele>337.3</ele>
        <time>2021-03-21T08:27:25Z</time>
      </trkpt>
      <trkpt lat="42.91263" lon="2.63383">
        <ele>337.6</ele>
        <time>2021-03-21T08:27:26Z</time>
      </trkpt>
      <trkpt lat="42.91257" lon="2.63382">
        <ele>338</ele>
        <time>2021-03-21T08:27:28Z</time>
      </trkpt>
      <trkpt lat="42.91251" lon="2.6338">
        <ele>338.5</ele>
        <time>2021-03-21T08:27:29Z</time>
      </trkpt>
      <trkpt lat="42.91246" lon="2.63378">
        <ele>338.8</ele>
        <time>2021-03-21T08:27:30Z</time>
      </trkpt>
      <trkpt lat="42.91241" lon="2.63376">
        <ele>339.1</ele>
        <time>2021-03-21T08:27:31Z</time>
      </trkpt>
      <trkpt lat="42.91237" lon="2.63375">
        <ele>339.4</ele>
        <time>2021-03-21T08:27:32Z</time>
      </trkpt>
      <trkpt lat="42.91231" lon="2.63372">
        <ele>339.7</ele>
        <time>2021-03-21T08:27:34Z</time>
      </trkpt>
      <trkpt lat="42.91227" lon="2.63368">
        <ele>340</ele>
        <time>2021-03-21T08:27:35Z</time>
      </trkpt>
      <trkpt lat="42.91223" lon="2.63364">
        <ele>340.3</ele>
        <time>2021-03-21T08:27:36Z</time>
      </trkpt>
      <trkpt lat="42.9122" lon="2.63359">
        <ele>340.6</ele>
        <time>2021-03-21T08:27:37Z</time>
      </trkpt>
      <trkpt lat="42.91219" lon="2.63354">
        <ele>340.9</ele>
        <time>2021-03-21T08:27:38Z</time>
      </trkpt>
      <trkpt lat="42.91217" lon="2.63349">
        <ele>341.2</ele>
        <time>2021-03-21T08:27:39Z</time>
      </trkpt>
      <trkpt lat="42.91213" lon="2.6334">
        <ele>341.8</ele>
        <time>2021-03-21T08:27:41Z</time>
      </trkpt>
      <trkpt lat="42.91214" lon="2.63332">
        <ele>342.2</ele>
        <time>2021-03-21T08:27:43Z</time>
      </trkpt>
      <trkpt lat="42.91214" lon="2.63324">
        <ele>342.7</ele>
        <time>2021-03-21T08:27:44Z</time>
      </trkpt>
      <trkpt lat="42.91214" lon="2.63317">
        <ele>343.1</ele>
        <time>2021-03-21T08:27:46Z</time>
      </trkpt>
      <trkpt lat="42.91213" lon="2.63311">
        <ele>343.4</ele>
        <time>2021-03-21T08:27:47Z</time>
      </trkpt>
      <trkpt lat="42.91213" lon="2.63306">
        <ele>343.6</ele>
        <time>2021-03-21T08:27:48Z</time>
      </trkpt>
      <trkpt lat="42.91213" lon="2.633">
        <ele>344</ele>
        <time>2021-03-21T08:27:49Z</time>
      </trkpt>
      <trkpt lat="42.91212" lon="2.63293">
        <ele>344.3</ele>
        <time>2021-03-21T08:27:50Z</time>
      </trkpt>
      <trkpt lat="42.91211" lon="2.63284">
        <ele>344.7</ele>
        <time>2021-03-21T08:27:52Z</time>
      </trkpt>
      <trkpt lat="42.91211" lon="2.63278">
        <ele>345.1</ele>
        <time>2021-03-21T08:27:53Z</time>
      </trkpt>
      <trkpt lat="42.91211" lon="2.63272">
        <ele>345.3</ele>
        <time>2021-03-21T08:27:54Z</time>
      </trkpt>
      <trkpt lat="42.9121" lon="2.63267">
        <ele>345.6</ele>
        <time>2021-03-21T08:27:55Z</time>
      </trkpt>
      <trkpt lat="42.9121" lon="2.63261">
        <ele>345.9</ele>
        <time>2021-03-21T08:27:56Z</time>
      </trkpt>
      <trkpt lat="42.91209" lon="2.63255">
        <ele>346.2</ele>
        <time>2021-03-21T08:27:58Z</time>
      </trkpt>
      <trkpt lat="42.91209" lon="2.63249">
        <ele>346.6</ele>
        <time>2021-03-21T08:27:59Z</time>
      </trkpt>
      <trkpt lat="42.91209" lon="2.63242">
        <ele>346.9</ele>
        <time>2021-03-21T08:28:00Z</time>
      </trkpt>
      <trkpt lat="42.91208" lon="2.63236">
        <ele>347.2</ele>
        <time>2021-03-21T08:28:01Z</time>
      </trkpt>
      <trkpt lat="42.91204" lon="2.63229">
        <ele>347.7</ele>
        <time>2021-03-21T08:28:03Z</time>
      </trkpt>
      <trkpt lat="42.91202" lon="2.63224">
        <ele>348</ele>
        <time>2021-03-21T08:28:04Z</time>
      </trkpt>
      <trkpt lat="42.91198" lon="2.63218">
        <ele>348.5</ele>
        <time>2021-03-21T08:28:06Z</time>
      </trkpt>
      <trkpt lat="42.91194" lon="2.63214">
        <ele>348.8</ele>
        <time>2021-03-21T08:28:07Z</time>
      </trkpt>
      <trkpt lat="42.91192" lon="2.6321">
        <ele>349.1</ele>
        <time>2021-03-21T08:28:08Z</time>
      </trkpt>
      <trkpt lat="42.91189" lon="2.63205">
        <ele>349.5</ele>
        <time>2021-03-21T08:28:10Z</time>
      </trkpt>
      <trkpt lat="42.91187" lon="2.63201">
        <ele>349.7</ele>
        <time>2021-03-21T08:28:11Z</time>
      </trkpt>
      <trkpt lat="42.91185" lon="2.63195">
        <ele>350</ele>
        <time>2021-03-21T08:28:12Z</time>
      </trkpt>
      <trkpt lat="42.91184" lon="2.63188">
        <ele>350.4</ele>
        <time>2021-03-21T08:28:13Z</time>
      </trkpt>
      <trkpt lat="42.91185" lon="2.63181">
        <ele>350.8</ele>
        <time>2021-03-21T08:28:15Z</time>
      </trkpt>
      <trkpt lat="42.91185" lon="2.63175">
        <ele>351.1</ele>
        <time>2021-03-21T08:28:16Z</time>
      </trkpt>
      <trkpt lat="42.91186" lon="2.63169">
        <ele>351.4</ele>
        <time>2021-03-21T08:28:17Z</time>
      </trkpt>
      <trkpt lat="42.91188" lon="2.63165">
        <ele>351.6</ele>
        <time>2021-03-21T08:28:18Z</time>
      </trkpt>
      <trkpt lat="42.9119" lon="2.6316">
        <ele>351.9</ele>
        <time>2021-03-21T08:28:19Z</time>
      </trkpt>
      <trkpt lat="42.91193" lon="2.63154">
        <ele>352.3</ele>
        <time>2021-03-21T08:28:21Z</time>
      </trkpt>
      <trkpt lat="42.91195" lon="2.63149">
        <ele>352.6</ele>
        <time>2021-03-21T08:28:22Z</time>
      </trkpt>
      <trkpt lat="42.91197" lon="2.63144">
        <ele>352.9</ele>
        <time>2021-03-21T08:28:23Z</time>
      </trkpt>
      <trkpt lat="42.91199" lon="2.6314">
        <ele>353.1</ele>
        <time>2021-03-21T08:28:24Z</time>
      </trkpt>
      <trkpt lat="42.912" lon="2.63135">
        <ele>353.4</ele>
        <time>2021-03-21T08:28:25Z</time>
      </trkpt>
      <trkpt lat="42.91202" lon="2.63131">
        <ele>353.6</ele>
        <time>2021-03-21T08:28:26Z</time>
      </trkpt>
      <trkpt lat="42.91205" lon="2.63124">
        <ele>354.1</ele>
        <time>2021-03-21T08:28:28Z</time>
      </trkpt>
      <trkpt lat="42.91207" lon="2.63119">
        <ele>354.4</ele>
        <time>2021-03-21T08:28:29Z</time>
      </trkpt>
      <trkpt lat="42.91208" lon="2.63111">
        <ele>354.8</ele>
        <time>2021-03-21T08:28:31Z</time>
      </trkpt>
      <trkpt lat="42.91209" lon="2.63105">
        <ele>355.2</ele>
        <time>2021-03-21T08:28:32Z</time>
      </trkpt>
      <trkpt lat="42.91211" lon="2.63096">
        <ele>355.6</ele>
        <time>2021-03-21T08:28:34Z</time>
      </trkpt>
      <trkpt lat="42.91212" lon="2.63092">
        <ele>355.9</ele>
        <time>2021-03-21T08:28:35Z</time>
      </trkpt>
      <trkpt lat="42.91213" lon="2.63084">
        <ele>356.3</ele>
        <time>2021-03-21T08:28:37Z</time>
      </trkpt>
      <trkpt lat="42.91214" lon="2.63078">
        <ele>356.6</ele>
        <time>2021-03-21T08:28:38Z</time>
      </trkpt>
      <trkpt lat="42.91215" lon="2.63072">
        <ele>356.9</ele>
        <time>2021-03-21T08:28:39Z</time>
      </trkpt>
      <trkpt lat="42.91216" lon="2.63066">
        <ele>357.2</ele>
        <time>2021-03-21T08:28:41Z</time>
      </trkpt>
      <trkpt lat="42.91216" lon="2.63061">
        <ele>357.5</ele>
        <time>2021-03-21T08:28:42Z</time>
      </trkpt>
      <trkpt lat="42.91217" lon="2.63056">
        <ele>357.8</ele>
        <time>2021-03-21T08:28:43Z</time>
      </trkpt>
      <trkpt lat="42.91218" lon="2.63051">
        <ele>358</ele>
        <time>2021-03-21T08:28:44Z</time>
      </trkpt>
      <trkpt lat="42.91218" lon="2.63042">
        <ele>358.4</ele>
        <time>2021-03-21T08:28:46Z</time>
      </trkpt>
      <trkpt lat="42.91218" lon="2.63036">
        <ele>358.8</ele>
        <time>2021-03-21T08:28:47Z</time>
      </trkpt>
      <trkpt lat="42.91218" lon="2.6303">
        <ele>359.1</ele>
        <time>2021-03-21T08:28:49Z</time>
      </trkpt>
      <trkpt lat="42.91218" lon="2.63023">
        <ele>359.4</ele>
        <time>2021-03-21T08:28:50Z</time>
      </trkpt>
      <trkpt lat="42.91218" lon="2.63017">
        <ele>359.8</ele>
        <time>2021-03-21T08:28:52Z</time>
      </trkpt>
      <trkpt lat="42.91218" lon="2.63008">
        <ele>360.2</ele>
        <time>2021-03-21T08:28:53Z</time>
      </trkpt>
      <trkpt lat="42.91218" lon="2.63001">
        <ele>360.6</ele>
        <time>2021-03-21T08:28:55Z</time>
      </trkpt>
      <trkpt lat="42.91219" lon="2.62993">
        <ele>361</ele>
        <time>2021-03-21T08:28:56Z</time>
      </trkpt>
      <trkpt lat="42.91219" lon="2.62989">
        <ele>361.2</ele>
        <time>2021-03-21T08:28:57Z</time>
      </trkpt>
      <trkpt lat="42.91219" lon="2.62982">
        <ele>361.6</ele>
        <time>2021-03-21T08:28:59Z</time>
      </trkpt>
      <trkpt lat="42.91219" lon="2.62974">
        <ele>361.9</ele>
        <time>2021-03-21T08:29:00Z</time>
      </trkpt>
      <trkpt lat="42.91219" lon="2.62968">
        <ele>362.2</ele>
        <time>2021-03-21T08:29:01Z</time>
      </trkpt>
      <trkpt lat="42.91219" lon="2.62961">
        <ele>362.5</ele>
        <time>2021-03-21T08:29:03Z</time>
      </trkpt>
      <trkpt lat="42.91218" lon="2.62956">
        <ele>362.7</ele>
        <time>2021-03-21T08:29:04Z</time>
      </trkpt>
      <trkpt lat="42.91218" lon="2.62949">
        <ele>363</ele>
        <time>2021-03-21T08:29:05Z</time>
      </trkpt>
      <trkpt lat="42.91218" lon="2.62943">
        <ele>363.3</ele>
        <time>2021-03-21T08:29:07Z</time>
      </trkpt>
      <trkpt lat="42.91218" lon="2.62936">
        <ele>363.7</ele>
        <time>2021-03-21T08:29:08Z</time>
      </trkpt>
      <trkpt lat="42.91218" lon="2.6293">
        <ele>364</ele>
        <time>2021-03-21T08:29:09Z</time>
      </trkpt>
      <trkpt lat="42.91219" lon="2.62924">
        <ele>364.3</ele>
        <time>2021-03-21T08:29:11Z</time>
      </trkpt>
      <trkpt lat="42.91219" lon="2.62918">
        <ele>364.6</ele>
        <time>2021-03-21T08:29:12Z</time>
      </trkpt>
      <trkpt lat="42.91219" lon="2.62913">
        <ele>364.9</ele>
        <time>2021-03-21T08:29:13Z</time>
      </trkpt>
      <trkpt lat="42.91219" lon="2.62908">
        <ele>365.1</ele>
        <time>2021-03-21T08:29:14Z</time>
      </trkpt>
      <trkpt lat="42.91219" lon="2.62903">
        <ele>365.4</ele>
        <time>2021-03-21T08:29:15Z</time>
      </trkpt>
      <trkpt lat="42.91219" lon="2.62897">
        <ele>365.7</ele>
        <time>2021-03-21T08:29:16Z</time>
      </trkpt>
      <trkpt lat="42.91218" lon="2.62891">
        <ele>366</ele>
        <time>2021-03-21T08:29:18Z</time>
      </trkpt>
      <trkpt lat="42.91218" lon="2.62885">
        <ele>366.3</ele>
        <time>2021-03-21T08:29:19Z</time>
      </trkpt>
      <trkpt lat="42.91218" lon="2.62879">
        <ele>366.6</ele>
        <time>2021-03-21T08:29:20Z</time>
      </trkpt>
      <trkpt lat="42.91217" lon="2.62874">
        <ele>366.9</ele>
        <time>2021-03-21T08:29:21Z</time>
      </trkpt>
      <trkpt lat="42.91216" lon="2.62867">
        <ele>367.2</ele>
        <time>2021-03-21T08:29:23Z</time>
      </trkpt>
      <trkpt lat="42.91216" lon="2.62861">
        <ele>367.5</ele>
        <time>2021-03-21T08:29:24Z</time>
      </trkpt>
      <trkpt lat="42.91215" lon="2.62852">
        <ele>368</ele>
        <time>2021-03-21T08:29:26Z</time>
      </trkpt>
      <trkpt lat="42.91215" lon="2.62847">
        <ele>368.2</ele>
        <time>2021-03-21T08:29:27Z</time>
      </trkpt>
      <trkpt lat="42.91214" lon="2.62841">
        <ele>368.5</ele>
        <time>2021-03-21T08:29:28Z</time>
      </trkpt>
      <trkpt lat="42.91213" lon="2.62835">
        <ele>368.8</ele>
        <time>2021-03-21T08:29:29Z</time>
      </trkpt>
      <trkpt lat="42.91213" lon="2.62828">
        <ele>369.1</ele>
        <time>2021-03-21T08:29:31Z</time>
      </trkpt>
      <trkpt lat="42.91213" lon="2.62823">
        <ele>369.4</ele>
        <time>2021-03-21T08:29:32Z</time>
      </trkpt>
      <trkpt lat="42.91212" lon="2.62817">
        <ele>369.8</ele>
        <time>2021-03-21T08:29:33Z</time>
      </trkpt>
      <trkpt lat="42.91212" lon="2.62811">
        <ele>370.1</ele>
        <time>2021-03-21T08:29:34Z</time>
      </trkpt>
      <trkpt lat="42.91211" lon="2.62803">
        <ele>370.5</ele>
        <time>2021-03-21T08:29:36Z</time>
      </trkpt>
      <trkpt lat="42.91209" lon="2.62798">
        <ele>370.9</ele>
        <time>2021-03-21T08:29:37Z</time>
      </trkpt>
      <trkpt lat="42.91208" lon="2.62792">
        <ele>371.2</ele>
        <time>2021-03-21T08:29:38Z</time>
      </trkpt>
      <trkpt lat="42.91205" lon="2.62785">
        <ele>371.7</ele>
        <time>2021-03-21T08:29:40Z</time>
      </trkpt>
      <trkpt lat="42.91202" lon="2.6278">
        <ele>372</ele>
        <time>2021-03-21T08:29:41Z</time>
      </trkpt>
      <trkpt lat="42.912" lon="2.62776">
        <ele>372.2</ele>
        <time>2021-03-21T08:29:42Z</time>
      </trkpt>
      <trkpt lat="42.91196" lon="2.6277">
        <ele>372.6</ele>
        <time>2021-03-21T08:29:44Z</time>
      </trkpt>
      <trkpt lat="42.91193" lon="2.62766">
        <ele>372.9</ele>
        <time>2021-03-21T08:29:45Z</time>
      </trkpt>
      <trkpt lat="42.9119" lon="2.62763">
        <ele>373.2</ele>
        <time>2021-03-21T08:29:46Z</time>
      </trkpt>
      <trkpt lat="42.91184" lon="2.62758">
        <ele>373.6</ele>
        <time>2021-03-21T08:29:48Z</time>
      </trkpt>
      <trkpt lat="42.91181" lon="2.62753">
        <ele>374</ele>
        <time>2021-03-21T08:29:50Z</time>
      </trkpt>
      <trkpt lat="42.91177" lon="2.62748">
        <ele>374.4</ele>
        <time>2021-03-21T08:29:51Z</time>
      </trkpt>
      <trkpt lat="42.91175" lon="2.62744">
        <ele>374.7</ele>
        <time>2021-03-21T08:29:52Z</time>
      </trkpt>
      <trkpt lat="42.91173" lon="2.6274">
        <ele>374.9</ele>
        <time>2021-03-21T08:29:53Z</time>
      </trkpt>
      <trkpt lat="42.9117" lon="2.62736">
        <ele>375.2</ele>
        <time>2021-03-21T08:29:54Z</time>
      </trkpt>
      <trkpt lat="42.91167" lon="2.6273">
        <ele>375.6</ele>
        <time>2021-03-21T08:29:56Z</time>
      </trkpt>
      <trkpt lat="42.91166" lon="2.62723">
        <ele>376.1</ele>
        <time>2021-03-21T08:29:57Z</time>
      </trkpt>
      <trkpt lat="42.91165" lon="2.62717">
        <ele>376.4</ele>
        <time>2021-03-21T08:29:58Z</time>
      </trkpt>
      <trkpt lat="42.91166" lon="2.62707">
        <ele>376.9</ele>
        <time>2021-03-21T08:30:00Z</time>
      </trkpt>
      <trkpt lat="42.91166" lon="2.62702">
        <ele>377.3</ele>
        <time>2021-03-21T08:30:01Z</time>
      </trkpt>
      <trkpt lat="42.91167" lon="2.62697">
        <ele>377.5</ele>
        <time>2021-03-21T08:30:02Z</time>
      </trkpt>
      <trkpt lat="42.91167" lon="2.62692">
        <ele>377.8</ele>
        <time>2021-03-21T08:30:03Z</time>
      </trkpt>
      <trkpt lat="42.91168" lon="2.62687">
        <ele>378.1</ele>
        <time>2021-03-21T08:30:04Z</time>
      </trkpt>
      <trkpt lat="42.91169" lon="2.6268">
        <ele>378.5</ele>
        <time>2021-03-21T08:30:06Z</time>
      </trkpt>
      <trkpt lat="42.91169" lon="2.62675">
        <ele>378.8</ele>
        <time>2021-03-21T08:30:07Z</time>
      </trkpt>
      <trkpt lat="42.9117" lon="2.62666">
        <ele>379.2</ele>
        <time>2021-03-21T08:30:09Z</time>
      </trkpt>
      <trkpt lat="42.91169" lon="2.6266">
        <ele>379.5</ele>
        <time>2021-03-21T08:30:10Z</time>
      </trkpt>
      <trkpt lat="42.91168" lon="2.62652">
        <ele>379.9</ele>
        <time>2021-03-21T08:30:12Z</time>
      </trkpt>
      <trkpt lat="42.91166" lon="2.62646">
        <ele>380.2</ele>
        <time>2021-03-21T08:30:13Z</time>
      </trkpt>
      <trkpt lat="42.91164" lon="2.6264">
        <ele>380.6</ele>
        <time>2021-03-21T08:30:14Z</time>
      </trkpt>
      <trkpt lat="42.91162" lon="2.62635">
        <ele>380.9</ele>
        <time>2021-03-21T08:30:15Z</time>
      </trkpt>
      <trkpt lat="42.9116" lon="2.6263">
        <ele>381.2</ele>
        <time>2021-03-21T08:30:16Z</time>
      </trkpt>
      <trkpt lat="42.91156" lon="2.62625">
        <ele>381.7</ele>
        <time>2021-03-21T08:30:18Z</time>
      </trkpt>
      <trkpt lat="42.91152" lon="2.62622">
        <ele>382</ele>
        <time>2021-03-21T08:30:19Z</time>
      </trkpt>
      <trkpt lat="42.91146" lon="2.62618">
        <ele>382.5</ele>
        <time>2021-03-21T08:30:21Z</time>
      </trkpt>
      <trkpt lat="42.91141" lon="2.62617">
        <ele>382.7</ele>
        <time>2021-03-21T08:30:22Z</time>
      </trkpt>
      <trkpt lat="42.91137" lon="2.62616">
        <ele>383</ele>
        <time>2021-03-21T08:30:24Z</time>
      </trkpt>
      <trkpt lat="42.91133" lon="2.62617">
        <ele>383.3</ele>
        <time>2021-03-21T08:30:25Z</time>
      </trkpt>
      <trkpt lat="42.91128" lon="2.62618">
        <ele>383.5</ele>
        <time>2021-03-21T08:30:26Z</time>
      </trkpt>
      <trkpt lat="42.91124" lon="2.62618">
        <ele>383.8</ele>
        <time>2021-03-21T08:30:27Z</time>
      </trkpt>
      <trkpt lat="42.9112" lon="2.6262">
        <ele>384</ele>
        <time>2021-03-21T08:30:28Z</time>
      </trkpt>
      <trkpt lat="42.91116" lon="2.62621">
        <ele>384.3</ele>
        <time>2021-03-21T08:30:30Z</time>
      </trkpt>
      <trkpt lat="42.91112" lon="2.62623">
        <ele>384.6</ele>
        <time>2021-03-21T08:30:31Z</time>
      </trkpt>
      <trkpt lat="42.91108" lon="2.62624">
        <ele>384.8</ele>
        <time>2021-03-21T08:30:32Z</time>
      </trkpt>
      <trkpt lat="42.91105" lon="2.62625">
        <ele>385.1</ele>
        <time>2021-03-21T08:30:33Z</time>
      </trkpt>
      <trkpt lat="42.91098" lon="2.62626">
        <ele>385.5</ele>
        <time>2021-03-21T08:30:35Z</time>
      </trkpt>
      <trkpt lat="42.91094" lon="2.62626">
        <ele>385.8</ele>
        <time>2021-03-21T08:30:36Z</time>
      </trkpt>
      <trkpt lat="42.91089" lon="2.62627">
        <ele>386.2</ele>
        <time>2021-03-21T08:30:38Z</time>
      </trkpt>
      <trkpt lat="42.91085" lon="2.62628">
        <ele>386.5</ele>
        <time>2021-03-21T08:30:39Z</time>
      </trkpt>
      <trkpt lat="42.91082" lon="2.62628">
        <ele>386.8</ele>
        <time>2021-03-21T08:30:40Z</time>
      </trkpt>
      <trkpt lat="42.91078" lon="2.62629">
        <ele>387</ele>
        <time>2021-03-21T08:30:41Z</time>
      </trkpt>
      <trkpt lat="42.91074" lon="2.62629">
        <ele>387.3</ele>
        <time>2021-03-21T08:30:43Z</time>
      </trkpt>
      <trkpt lat="42.9107" lon="2.62628">
        <ele>387.6</ele>
        <time>2021-03-21T08:30:44Z</time>
      </trkpt>
      <trkpt lat="42.91066" lon="2.62627">
        <ele>387.8</ele>
        <time>2021-03-21T08:30:45Z</time>
      </trkpt>
      <trkpt lat="42.91062" lon="2.62626">
        <ele>388.1</ele>
        <time>2021-03-21T08:30:46Z</time>
      </trkpt>
      <trkpt lat="42.91058" lon="2.62625">
        <ele>388.4</ele>
        <time>2021-03-21T08:30:47Z</time>
      </trkpt>
      <trkpt lat="42.91052" lon="2.62622">
        <ele>388.9</ele>
        <time>2021-03-21T08:30:49Z</time>
      </trkpt>
      <trkpt lat="42.91046" lon="2.62619">
        <ele>389.3</ele>
        <time>2021-03-21T08:30:50Z</time>
      </trkpt>
      <trkpt lat="42.9104" lon="2.62615">
        <ele>389.8</ele>
        <time>2021-03-21T08:30:52Z</time>
      </trkpt>
      <trkpt lat="42.91036" lon="2.62613">
        <ele>390</ele>
        <time>2021-03-21T08:30:53Z</time>
      </trkpt>
      <trkpt lat="42.91032" lon="2.6261">
        <ele>390.4</ele>
        <time>2021-03-21T08:30:54Z</time>
      </trkpt>
      <trkpt lat="42.91028" lon="2.62605">
        <ele>390.7</ele>
        <time>2021-03-21T08:30:56Z</time>
      </trkpt>
      <trkpt lat="42.91025" lon="2.62602">
        <ele>391</ele>
        <time>2021-03-21T08:30:57Z</time>
      </trkpt>
      <trkpt lat="42.91021" lon="2.62598">
        <ele>391.3</ele>
        <time>2021-03-21T08:30:58Z</time>
      </trkpt>
      <trkpt lat="42.91016" lon="2.62595">
        <ele>391.6</ele>
        <time>2021-03-21T08:31:00Z</time>
      </trkpt>
      <trkpt lat="42.91012" lon="2.62593">
        <ele>391.9</ele>
        <time>2021-03-21T08:31:01Z</time>
      </trkpt>
      <trkpt lat="42.91007" lon="2.62592">
        <ele>392.1</ele>
        <time>2021-03-21T08:31:02Z</time>
      </trkpt>
      <trkpt lat="42.91003" lon="2.62591">
        <ele>392.4</ele>
        <time>2021-03-21T08:31:03Z</time>
      </trkpt>
      <trkpt lat="42.90999" lon="2.6259">
        <ele>392.6</ele>
        <time>2021-03-21T08:31:04Z</time>
      </trkpt>
      <trkpt lat="42.90994" lon="2.62588">
        <ele>392.9</ele>
        <time>2021-03-21T08:31:06Z</time>
      </trkpt>
      <trkpt lat="42.90989" lon="2.62588">
        <ele>393.3</ele>
        <time>2021-03-21T08:31:07Z</time>
      </trkpt>
      <trkpt lat="42.90983" lon="2.62587">
        <ele>393.6</ele>
        <time>2021-03-21T08:31:08Z</time>
      </trkpt>
      <trkpt lat="42.90979" lon="2.62587">
        <ele>393.9</ele>
        <time>2021-03-21T08:31:10Z</time>
      </trkpt>
      <trkpt lat="42.90975" lon="2.62586">
        <ele>394.2</ele>
        <time>2021-03-21T08:31:11Z</time>
      </trkpt>
      <trkpt lat="42.9097" lon="2.62586">
        <ele>394.5</ele>
        <time>2021-03-21T08:31:12Z</time>
      </trkpt>
      <trkpt lat="42.90963" lon="2.62585">
        <ele>394.9</ele>
        <time>2021-03-21T08:31:14Z</time>
      </trkpt>
      <trkpt lat="42.90959" lon="2.62585">
        <ele>395.2</ele>
        <time>2021-03-21T08:31:15Z</time>
      </trkpt>
      <trkpt lat="42.90954" lon="2.62585">
        <ele>395.5</ele>
        <time>2021-03-21T08:31:17Z</time>
      </trkpt>
      <trkpt lat="42.90949" lon="2.62584">
        <ele>395.9</ele>
        <time>2021-03-21T08:31:18Z</time>
      </trkpt>
      <trkpt lat="42.90942" lon="2.62579">
        <ele>396.3</ele>
        <time>2021-03-21T08:31:20Z</time>
      </trkpt>
      <trkpt lat="42.90938" lon="2.62575">
        <ele>396.7</ele>
        <time>2021-03-21T08:31:22Z</time>
      </trkpt>
      <trkpt lat="42.90935" lon="2.62573">
        <ele>396.9</ele>
        <time>2021-03-21T08:31:23Z</time>
      </trkpt>
      <trkpt lat="42.9093" lon="2.6257">
        <ele>397.2</ele>
        <time>2021-03-21T08:31:24Z</time>
      </trkpt>
      <trkpt lat="42.90927" lon="2.62567">
        <ele>397.5</ele>
        <time>2021-03-21T08:31:26Z</time>
      </trkpt>
      <trkpt lat="42.90922" lon="2.62564">
        <ele>397.7</ele>
        <time>2021-03-21T08:31:27Z</time>
      </trkpt>
      <trkpt lat="42.90916" lon="2.6256">
        <ele>397.8</ele>
        <time>2021-03-21T08:31:28Z</time>
      </trkpt>
      <trkpt lat="42.90911" lon="2.62557">
        <ele>397.9</ele>
        <time>2021-03-21T08:31:29Z</time>
      </trkpt>
      <trkpt lat="42.90902" lon="2.62549">
        <ele>398.1</ele>
        <time>2021-03-21T08:31:31Z</time>
      </trkpt>
      <trkpt lat="42.90894" lon="2.62537">
        <ele>398.5</ele>
        <time>2021-03-21T08:31:33Z</time>
      </trkpt>
      <trkpt lat="42.9089" lon="2.62531">
        <ele>398.7</ele>
        <time>2021-03-21T08:31:34Z</time>
      </trkpt>
      <trkpt lat="42.90885" lon="2.62526">
        <ele>399</ele>
        <time>2021-03-21T08:31:35Z</time>
      </trkpt>
      <trkpt lat="42.90876" lon="2.62517">
        <ele>399.7</ele>
        <time>2021-03-21T08:31:37Z</time>
      </trkpt>
      <trkpt lat="42.90872" lon="2.62513">
        <ele>399.5</ele>
        <time>2021-03-21T08:31:38Z</time>
      </trkpt>
      <trkpt lat="42.90863" lon="2.62503">
        <ele>399</ele>
        <time>2021-03-21T08:31:40Z</time>
      </trkpt>
      <trkpt lat="42.90859" lon="2.62498">
        <ele>398.7</ele>
        <time>2021-03-21T08:31:41Z</time>
      </trkpt>
      <trkpt lat="42.90855" lon="2.62493">
        <ele>398.4</ele>
        <time>2021-03-21T08:31:42Z</time>
      </trkpt>
      <trkpt lat="42.90851" lon="2.62488">
        <ele>398.2</ele>
        <time>2021-03-21T08:31:43Z</time>
      </trkpt>
      <trkpt lat="42.90844" lon="2.62477">
        <ele>397.6</ele>
        <time>2021-03-21T08:31:45Z</time>
      </trkpt>
      <trkpt lat="42.90841" lon="2.62472">
        <ele>397.4</ele>
        <time>2021-03-21T08:31:46Z</time>
      </trkpt>
      <trkpt lat="42.90835" lon="2.62462">
        <ele>397.2</ele>
        <time>2021-03-21T08:31:48Z</time>
      </trkpt>
      <trkpt lat="42.90833" lon="2.62459">
        <ele>397.4</ele>
        <time>2021-03-21T08:31:49Z</time>
      </trkpt>
      <trkpt lat="42.9083" lon="2.62454">
        <ele>397.6</ele>
        <time>2021-03-21T08:31:50Z</time>
      </trkpt>
      <trkpt lat="42.90826" lon="2.62444">
        <ele>398</ele>
        <time>2021-03-21T08:31:52Z</time>
      </trkpt>
      <trkpt lat="42.90824" lon="2.62434">
        <ele>398.5</ele>
        <time>2021-03-21T08:31:54Z</time>
      </trkpt>
      <trkpt lat="42.90829" lon="2.62427">
        <ele>398.9</ele>
        <time>2021-03-21T08:31:55Z</time>
      </trkpt>
      <trkpt lat="42.90826" lon="2.6242">
        <ele>399.2</ele>
        <time>2021-03-21T08:31:57Z</time>
      </trkpt>
      <trkpt lat="42.90822" lon="2.62413">
        <ele>399.6</ele>
        <time>2021-03-21T08:31:58Z</time>
      </trkpt>
      <trkpt lat="42.90818" lon="2.62407">
        <ele>399.9</ele>
        <time>2021-03-21T08:31:59Z</time>
      </trkpt>
      <trkpt lat="42.90813" lon="2.62399">
        <ele>400.3</ele>
        <time>2021-03-21T08:32:01Z</time>
      </trkpt>
      <trkpt lat="42.9081" lon="2.62392">
        <ele>400.6</ele>
        <time>2021-03-21T08:32:02Z</time>
      </trkpt>
      <trkpt lat="42.90807" lon="2.62388">
        <ele>400.8</ele>
        <time>2021-03-21T08:32:03Z</time>
      </trkpt>
      <trkpt lat="42.90803" lon="2.62383">
        <ele>401.1</ele>
        <time>2021-03-21T08:32:05Z</time>
      </trkpt>
      <trkpt lat="42.908" lon="2.62377">
        <ele>401.4</ele>
        <time>2021-03-21T08:32:06Z</time>
      </trkpt>
      <trkpt lat="42.90797" lon="2.62372">
        <ele>401.6</ele>
        <time>2021-03-21T08:32:07Z</time>
      </trkpt>
      <trkpt lat="42.90794" lon="2.62367">
        <ele>401.9</ele>
        <time>2021-03-21T08:32:09Z</time>
      </trkpt>
      <trkpt lat="42.90792" lon="2.62363">
        <ele>402.1</ele>
        <time>2021-03-21T08:32:10Z</time>
      </trkpt>
      <trkpt lat="42.90789" lon="2.62357">
        <ele>402.4</ele>
        <time>2021-03-21T08:32:11Z</time>
      </trkpt>
      <trkpt lat="42.90786" lon="2.62353">
        <ele>402.6</ele>
        <time>2021-03-21T08:32:12Z</time>
      </trkpt>
      <trkpt lat="42.90782" lon="2.62345">
        <ele>403</ele>
        <time>2021-03-21T08:32:14Z</time>
      </trkpt>
      <trkpt lat="42.90779" lon="2.6234">
        <ele>403.3</ele>
        <time>2021-03-21T08:32:15Z</time>
      </trkpt>
      <trkpt lat="42.90776" lon="2.62335">
        <ele>403.6</ele>
        <time>2021-03-21T08:32:16Z</time>
      </trkpt>
      <trkpt lat="42.90773" lon="2.6233">
        <ele>403.9</ele>
        <time>2021-03-21T08:32:17Z</time>
      </trkpt>
      <trkpt lat="42.90769" lon="2.62322">
        <ele>404.3</ele>
        <time>2021-03-21T08:32:19Z</time>
      </trkpt>
      <trkpt lat="42.90766" lon="2.62317">
        <ele>404.6</ele>
        <time>2021-03-21T08:32:20Z</time>
      </trkpt>
      <trkpt lat="42.90764" lon="2.62312">
        <ele>404.8</ele>
        <time>2021-03-21T08:32:21Z</time>
      </trkpt>
      <trkpt lat="42.90761" lon="2.62307">
        <ele>405.1</ele>
        <time>2021-03-21T08:32:22Z</time>
      </trkpt>
      <trkpt lat="42.90758" lon="2.62301">
        <ele>405.5</ele>
        <time>2021-03-21T08:32:24Z</time>
      </trkpt>
      <trkpt lat="42.90755" lon="2.62294">
        <ele>405.9</ele>
        <time>2021-03-21T08:32:26Z</time>
      </trkpt>
      <trkpt lat="42.90752" lon="2.62289">
        <ele>406.2</ele>
        <time>2021-03-21T08:32:27Z</time>
      </trkpt>
      <trkpt lat="42.9075" lon="2.62283">
        <ele>406.5</ele>
        <time>2021-03-21T08:32:28Z</time>
      </trkpt>
      <trkpt lat="42.90748" lon="2.62277">
        <ele>406.8</ele>
        <time>2021-03-21T08:32:29Z</time>
      </trkpt>
      <trkpt lat="42.90747" lon="2.62268">
        <ele>407.2</ele>
        <time>2021-03-21T08:32:31Z</time>
      </trkpt>
      <trkpt lat="42.90746" lon="2.62262">
        <ele>407.6</ele>
        <time>2021-03-21T08:32:32Z</time>
      </trkpt>
      <trkpt lat="42.90746" lon="2.62254">
        <ele>407.9</ele>
        <time>2021-03-21T08:32:34Z</time>
      </trkpt>
      <trkpt lat="42.90747" lon="2.62247">
        <ele>408.2</ele>
        <time>2021-03-21T08:32:35Z</time>
      </trkpt>
      <trkpt lat="42.90747" lon="2.62242">
        <ele>408.4</ele>
        <time>2021-03-21T08:32:36Z</time>
      </trkpt>
      <trkpt lat="42.90748" lon="2.62233">
        <ele>408.7</ele>
        <time>2021-03-21T08:32:38Z</time>
      </trkpt>
      <trkpt lat="42.90749" lon="2.62227">
        <ele>409</ele>
        <time>2021-03-21T08:32:39Z</time>
      </trkpt>
      <trkpt lat="42.9075" lon="2.6222">
        <ele>409.3</ele>
        <time>2021-03-21T08:32:40Z</time>
      </trkpt>
      <trkpt lat="42.9075" lon="2.62213">
        <ele>409.6</ele>
        <time>2021-03-21T08:32:42Z</time>
      </trkpt>
      <trkpt lat="42.90751" lon="2.62207">
        <ele>409.9</ele>
        <time>2021-03-21T08:32:43Z</time>
      </trkpt>
      <trkpt lat="42.90752" lon="2.62202">
        <ele>410.2</ele>
        <time>2021-03-21T08:32:44Z</time>
      </trkpt>
      <trkpt lat="42.90753" lon="2.62197">
        <ele>410.4</ele>
        <time>2021-03-21T08:32:45Z</time>
      </trkpt>
      <trkpt lat="42.90755" lon="2.62191">
        <ele>410.7</ele>
        <time>2021-03-21T08:32:47Z</time>
      </trkpt>
      <trkpt lat="42.90756" lon="2.62186">
        <ele>410.9</ele>
        <time>2021-03-21T08:32:48Z</time>
      </trkpt>
      <trkpt lat="42.90757" lon="2.6218">
        <ele>411.1</ele>
        <time>2021-03-21T08:32:49Z</time>
      </trkpt>
      <trkpt lat="42.90759" lon="2.62174">
        <ele>411.3</ele>
        <time>2021-03-21T08:32:51Z</time>
      </trkpt>
      <trkpt lat="42.90761" lon="2.62168">
        <ele>411.6</ele>
        <time>2021-03-21T08:32:52Z</time>
      </trkpt>
      <trkpt lat="42.90763" lon="2.6216">
        <ele>411.9</ele>
        <time>2021-03-21T08:32:54Z</time>
      </trkpt>
      <trkpt lat="42.90764" lon="2.62154">
        <ele>412.1</ele>
        <time>2021-03-21T08:32:55Z</time>
      </trkpt>
      <trkpt lat="42.90766" lon="2.62149">
        <ele>412.3</ele>
        <time>2021-03-21T08:32:56Z</time>
      </trkpt>
      <trkpt lat="42.90767" lon="2.62142">
        <ele>412.6</ele>
        <time>2021-03-21T08:32:58Z</time>
      </trkpt>
      <trkpt lat="42.90769" lon="2.62137">
        <ele>412.8</ele>
        <time>2021-03-21T08:32:59Z</time>
      </trkpt>
      <trkpt lat="42.9077" lon="2.62132">
        <ele>413</ele>
        <time>2021-03-21T08:33:00Z</time>
      </trkpt>
      <trkpt lat="42.90772" lon="2.62126">
        <ele>413.2</ele>
        <time>2021-03-21T08:33:01Z</time>
      </trkpt>
      <trkpt lat="42.90773" lon="2.62121">
        <ele>413.4</ele>
        <time>2021-03-21T08:33:02Z</time>
      </trkpt>
      <trkpt lat="42.90774" lon="2.62116">
        <ele>413.6</ele>
        <time>2021-03-21T08:33:03Z</time>
      </trkpt>
      <trkpt lat="42.90774" lon="2.62108">
        <ele>414</ele>
        <time>2021-03-21T08:33:05Z</time>
      </trkpt>
      <trkpt lat="42.90775" lon="2.62101">
        <ele>414.2</ele>
        <time>2021-03-21T08:33:06Z</time>
      </trkpt>
      <trkpt lat="42.90775" lon="2.62096">
        <ele>414.4</ele>
        <time>2021-03-21T08:33:07Z</time>
      </trkpt>
      <trkpt lat="42.90775" lon="2.6209">
        <ele>414.7</ele>
        <time>2021-03-21T08:33:08Z</time>
      </trkpt>
      <trkpt lat="42.90775" lon="2.62084">
        <ele>414.9</ele>
        <time>2021-03-21T08:33:10Z</time>
      </trkpt>
      <trkpt lat="42.90775" lon="2.62077">
        <ele>415.2</ele>
        <time>2021-03-21T08:33:11Z</time>
      </trkpt>
      <trkpt lat="42.90775" lon="2.62072">
        <ele>415.4</ele>
        <time>2021-03-21T08:33:12Z</time>
      </trkpt>
      <trkpt lat="42.90775" lon="2.62067">
        <ele>415.6</ele>
        <time>2021-03-21T08:33:13Z</time>
      </trkpt>
      <trkpt lat="42.90774" lon="2.62061">
        <ele>415.8</ele>
        <time>2021-03-21T08:33:14Z</time>
      </trkpt>
      <trkpt lat="42.90774" lon="2.62053">
        <ele>416.1</ele>
        <time>2021-03-21T08:33:16Z</time>
      </trkpt>
      <trkpt lat="42.90774" lon="2.62048">
        <ele>416.3</ele>
        <time>2021-03-21T08:33:17Z</time>
      </trkpt>
      <trkpt lat="42.90774" lon="2.62041">
        <ele>416.6</ele>
        <time>2021-03-21T08:33:18Z</time>
      </trkpt>
      <trkpt lat="42.90774" lon="2.62036">
        <ele>416.8</ele>
        <time>2021-03-21T08:33:19Z</time>
      </trkpt>
      <trkpt lat="42.90774" lon="2.62028">
        <ele>417</ele>
        <time>2021-03-21T08:33:21Z</time>
      </trkpt>
      <trkpt lat="42.90774" lon="2.62021">
        <ele>417.3</ele>
        <time>2021-03-21T08:33:22Z</time>
      </trkpt>
      <trkpt lat="42.90775" lon="2.62016">
        <ele>417.5</ele>
        <time>2021-03-21T08:33:23Z</time>
      </trkpt>
      <trkpt lat="42.90777" lon="2.62007">
        <ele>417.7</ele>
        <time>2021-03-21T08:33:25Z</time>
      </trkpt>
      <trkpt lat="42.90777" lon="2.62001">
        <ele>417.9</ele>
        <time>2021-03-21T08:33:26Z</time>
      </trkpt>
      <trkpt lat="42.90779" lon="2.61991">
        <ele>418.2</ele>
        <time>2021-03-21T08:33:28Z</time>
      </trkpt>
      <trkpt lat="42.90781" lon="2.61984">
        <ele>418.5</ele>
        <time>2021-03-21T08:33:30Z</time>
      </trkpt>
      <trkpt lat="42.90782" lon="2.61977">
        <ele>418.7</ele>
        <time>2021-03-21T08:33:31Z</time>
      </trkpt>
      <trkpt lat="42.90784" lon="2.61969">
        <ele>419</ele>
        <time>2021-03-21T08:33:33Z</time>
      </trkpt>
      <trkpt lat="42.90785" lon="2.61964">
        <ele>419.1</ele>
        <time>2021-03-21T08:33:34Z</time>
      </trkpt>
      <trkpt lat="42.90786" lon="2.61958">
        <ele>419.4</ele>
        <time>2021-03-21T08:33:35Z</time>
      </trkpt>
      <trkpt lat="42.90787" lon="2.61948">
        <ele>419.8</ele>
        <time>2021-03-21T08:33:37Z</time>
      </trkpt>
      <trkpt lat="42.90788" lon="2.61939">
        <ele>420.2</ele>
        <time>2021-03-21T08:33:39Z</time>
      </trkpt>
      <trkpt lat="42.90789" lon="2.61932">
        <ele>420.4</ele>
        <time>2021-03-21T08:33:40Z</time>
      </trkpt>
      <trkpt lat="42.90789" lon="2.61924">
        <ele>420.6</ele>
        <time>2021-03-21T08:33:42Z</time>
      </trkpt>
      <trkpt lat="42.9079" lon="2.61916">
        <ele>420.9</ele>
        <time>2021-03-21T08:33:43Z</time>
      </trkpt>
      <trkpt lat="42.90791" lon="2.61908">
        <ele>421.2</ele>
        <time>2021-03-21T08:33:45Z</time>
      </trkpt>
      <trkpt lat="42.90792" lon="2.61901">
        <ele>421.4</ele>
        <time>2021-03-21T08:33:46Z</time>
      </trkpt>
      <trkpt lat="42.90794" lon="2.61894">
        <ele>421.7</ele>
        <time>2021-03-21T08:33:47Z</time>
      </trkpt>
      <trkpt lat="42.90795" lon="2.61885">
        <ele>422</ele>
        <time>2021-03-21T08:33:49Z</time>
      </trkpt>
      <trkpt lat="42.90795" lon="2.6188">
        <ele>422.2</ele>
        <time>2021-03-21T08:33:50Z</time>
      </trkpt>
      <trkpt lat="42.90796" lon="2.61874">
        <ele>422.4</ele>
        <time>2021-03-21T08:33:51Z</time>
      </trkpt>
      <trkpt lat="42.90796" lon="2.61868">
        <ele>422.6</ele>
        <time>2021-03-21T08:33:52Z</time>
      </trkpt>
      <trkpt lat="42.90796" lon="2.61861">
        <ele>422.9</ele>
        <time>2021-03-21T08:33:54Z</time>
      </trkpt>
      <trkpt lat="42.90796" lon="2.61856">
        <ele>423.2</ele>
        <time>2021-03-21T08:33:55Z</time>
      </trkpt>
      <trkpt lat="42.90797" lon="2.6185">
        <ele>423.4</ele>
        <time>2021-03-21T08:33:57Z</time>
      </trkpt>
      <trkpt lat="42.90797" lon="2.61845">
        <ele>423.7</ele>
        <time>2021-03-21T08:33:58Z</time>
      </trkpt>
      <trkpt lat="42.90797" lon="2.6184">
        <ele>423.9</ele>
        <time>2021-03-21T08:33:59Z</time>
      </trkpt>
      <trkpt lat="42.90798" lon="2.61836">
        <ele>424.2</ele>
        <time>2021-03-21T08:34:00Z</time>
      </trkpt>
      <trkpt lat="42.90799" lon="2.6183">
        <ele>424.5</ele>
        <time>2021-03-21T08:34:02Z</time>
      </trkpt>
      <trkpt lat="42.90799" lon="2.61825">
        <ele>424.7</ele>
        <time>2021-03-21T08:34:03Z</time>
      </trkpt>
      <trkpt lat="42.90799" lon="2.61819">
        <ele>424.9</ele>
        <time>2021-03-21T08:34:04Z</time>
      </trkpt>
      <trkpt lat="42.90798" lon="2.61814">
        <ele>425.2</ele>
        <time>2021-03-21T08:34:05Z</time>
      </trkpt>
      <trkpt lat="42.90798" lon="2.6181">
        <ele>425.4</ele>
        <time>2021-03-21T08:34:06Z</time>
      </trkpt>
      <trkpt lat="42.90797" lon="2.61804">
        <ele>425.8</ele>
        <time>2021-03-21T08:34:08Z</time>
      </trkpt>
      <trkpt lat="42.90797" lon="2.61799">
        <ele>426.1</ele>
        <time>2021-03-21T08:34:09Z</time>
      </trkpt>
      <trkpt lat="42.90797" lon="2.61794">
        <ele>426.4</ele>
        <time>2021-03-21T08:34:10Z</time>
      </trkpt>
      <trkpt lat="42.90796" lon="2.61789">
        <ele>426.7</ele>
        <time>2021-03-21T08:34:11Z</time>
      </trkpt>
      <trkpt lat="42.90796" lon="2.61785">
        <ele>427</ele>
        <time>2021-03-21T08:34:12Z</time>
      </trkpt>
      <trkpt lat="42.90797" lon="2.6178">
        <ele>427.2</ele>
        <time>2021-03-21T08:34:13Z</time>
      </trkpt>
      <trkpt lat="42.90797" lon="2.61772">
        <ele>427.6</ele>
        <time>2021-03-21T08:34:15Z</time>
      </trkpt>
      <trkpt lat="42.90797" lon="2.61767">
        <ele>427.9</ele>
        <time>2021-03-21T08:34:16Z</time>
      </trkpt>
      <trkpt lat="42.90797" lon="2.61763">
        <ele>428.1</ele>
        <time>2021-03-21T08:34:17Z</time>
      </trkpt>
      <trkpt lat="42.90797" lon="2.61757">
        <ele>428.4</ele>
        <time>2021-03-21T08:34:19Z</time>
      </trkpt>
      <trkpt lat="42.90797" lon="2.61753">
        <ele>428.6</ele>
        <time>2021-03-21T08:34:20Z</time>
      </trkpt>
      <trkpt lat="42.90797" lon="2.61749">
        <ele>428.8</ele>
        <time>2021-03-21T08:34:21Z</time>
      </trkpt>
      <trkpt lat="42.90797" lon="2.61742">
        <ele>429.2</ele>
        <time>2021-03-21T08:34:23Z</time>
      </trkpt>
      <trkpt lat="42.90797" lon="2.61737">
        <ele>429.5</ele>
        <time>2021-03-21T08:34:24Z</time>
      </trkpt>
      <trkpt lat="42.90797" lon="2.61735">
        <ele>429.6</ele>
        <time>2021-03-21T08:34:25Z</time>
      </trkpt>
      <trkpt lat="42.90797" lon="2.61732">
        <ele>429.8</ele>
        <time>2021-03-21T08:34:26Z</time>
      </trkpt>
      <trkpt lat="42.90797" lon="2.61727">
        <ele>430.1</ele>
        <time>2021-03-21T08:34:28Z</time>
      </trkpt>
      <trkpt lat="42.90796" lon="2.6172">
        <ele>430.4</ele>
        <time>2021-03-21T08:34:29Z</time>
      </trkpt>
      <trkpt lat="42.90796" lon="2.61716">
        <ele>430.6</ele>
        <time>2021-03-21T08:34:30Z</time>
      </trkpt>
      <trkpt lat="42.90796" lon="2.61711">
        <ele>430.9</ele>
        <time>2021-03-21T08:34:32Z</time>
      </trkpt>
      <trkpt lat="42.90796" lon="2.61707">
        <ele>431.1</ele>
        <time>2021-03-21T08:34:33Z</time>
      </trkpt>
      <trkpt lat="42.90796" lon="2.61702">
        <ele>431.4</ele>
        <time>2021-03-21T08:34:34Z</time>
      </trkpt>
      <trkpt lat="42.90796" lon="2.61697">
        <ele>431.7</ele>
        <time>2021-03-21T08:34:36Z</time>
      </trkpt>
      <trkpt lat="42.90796" lon="2.61693">
        <ele>431.9</ele>
        <time>2021-03-21T08:34:37Z</time>
      </trkpt>
      <trkpt lat="42.90796" lon="2.61688">
        <ele>432.2</ele>
        <time>2021-03-21T08:34:38Z</time>
      </trkpt>
      <trkpt lat="42.90797" lon="2.61685">
        <ele>432.4</ele>
        <time>2021-03-21T08:34:39Z</time>
      </trkpt>
      <trkpt lat="42.90797" lon="2.6168">
        <ele>432.8</ele>
        <time>2021-03-21T08:34:40Z</time>
      </trkpt>
      <trkpt lat="42.90797" lon="2.61675">
        <ele>433.1</ele>
        <time>2021-03-21T08:34:42Z</time>
      </trkpt>
      <trkpt lat="42.90797" lon="2.61671">
        <ele>433.3</ele>
        <time>2021-03-21T08:34:43Z</time>
      </trkpt>
      <trkpt lat="42.90796" lon="2.61663">
        <ele>433.8</ele>
        <time>2021-03-21T08:34:45Z</time>
      </trkpt>
      <trkpt lat="42.90796" lon="2.61658">
        <ele>434.1</ele>
        <time>2021-03-21T08:34:46Z</time>
      </trkpt>
      <trkpt lat="42.90796" lon="2.61653">
        <ele>434.5</ele>
        <time>2021-03-21T08:34:48Z</time>
      </trkpt>
      <trkpt lat="42.90796" lon="2.61648">
        <ele>434.8</ele>
        <time>2021-03-21T08:34:49Z</time>
      </trkpt>
      <trkpt lat="42.90796" lon="2.61644">
        <ele>435.1</ele>
        <time>2021-03-21T08:34:50Z</time>
      </trkpt>
      <trkpt lat="42.90796" lon="2.6164">
        <ele>435.3</ele>
        <time>2021-03-21T08:34:51Z</time>
      </trkpt>
      <trkpt lat="42.90796" lon="2.61634">
        <ele>435.7</ele>
        <time>2021-03-21T08:34:53Z</time>
      </trkpt>
      <trkpt lat="42.90795" lon="2.61629">
        <ele>436.1</ele>
        <time>2021-03-21T08:34:54Z</time>
      </trkpt>
      <trkpt lat="42.90795" lon="2.61624">
        <ele>436.3</ele>
        <time>2021-03-21T08:34:55Z</time>
      </trkpt>
      <trkpt lat="42.90794" lon="2.61617">
        <ele>436.8</ele>
        <time>2021-03-21T08:34:57Z</time>
      </trkpt>
      <trkpt lat="42.90794" lon="2.61612">
        <ele>437</ele>
        <time>2021-03-21T08:34:58Z</time>
      </trkpt>
      <trkpt lat="42.90793" lon="2.61608">
        <ele>437.2</ele>
        <time>2021-03-21T08:34:59Z</time>
      </trkpt>
      <trkpt lat="42.90792" lon="2.61602">
        <ele>437.5</ele>
        <time>2021-03-21T08:35:01Z</time>
      </trkpt>
      <trkpt lat="42.90792" lon="2.61597">
        <ele>437.8</ele>
        <time>2021-03-21T08:35:02Z</time>
      </trkpt>
      <trkpt lat="42.90791" lon="2.61591">
        <ele>438.1</ele>
        <time>2021-03-21T08:35:03Z</time>
      </trkpt>
      <trkpt lat="42.9079" lon="2.61584">
        <ele>438.4</ele>
        <time>2021-03-21T08:35:05Z</time>
      </trkpt>
      <trkpt lat="42.9079" lon="2.61578">
        <ele>438.7</ele>
        <time>2021-03-21T08:35:06Z</time>
      </trkpt>
      <trkpt lat="42.9079" lon="2.61572">
        <ele>439.1</ele>
        <time>2021-03-21T08:35:08Z</time>
      </trkpt>
      <trkpt lat="42.9079" lon="2.61566">
        <ele>439.4</ele>
        <time>2021-03-21T08:35:09Z</time>
      </trkpt>
      <trkpt lat="42.9079" lon="2.6156">
        <ele>439.7</ele>
        <time>2021-03-21T08:35:10Z</time>
      </trkpt>
      <trkpt lat="42.9079" lon="2.61554">
        <ele>440</ele>
        <time>2021-03-21T08:35:11Z</time>
      </trkpt>
      <trkpt lat="42.9079" lon="2.61547">
        <ele>440.4</ele>
        <time>2021-03-21T08:35:13Z</time>
      </trkpt>
      <trkpt lat="42.9079" lon="2.61541">
        <ele>440.7</ele>
        <time>2021-03-21T08:35:14Z</time>
      </trkpt>
      <trkpt lat="42.9079" lon="2.61535">
        <ele>441</ele>
        <time>2021-03-21T08:35:16Z</time>
      </trkpt>
      <trkpt lat="42.9079" lon="2.6153">
        <ele>441.3</ele>
        <time>2021-03-21T08:35:17Z</time>
      </trkpt>
      <trkpt lat="42.9079" lon="2.61524">
        <ele>441.7</ele>
        <time>2021-03-21T08:35:18Z</time>
      </trkpt>
      <trkpt lat="42.9079" lon="2.61519">
        <ele>442</ele>
        <time>2021-03-21T08:35:19Z</time>
      </trkpt>
      <trkpt lat="42.90791" lon="2.61513">
        <ele>442.2</ele>
        <time>2021-03-21T08:35:20Z</time>
      </trkpt>
      <trkpt lat="42.90791" lon="2.61509">
        <ele>442.5</ele>
        <time>2021-03-21T08:35:22Z</time>
      </trkpt>
      <trkpt lat="42.90791" lon="2.61503">
        <ele>442.8</ele>
        <time>2021-03-21T08:35:23Z</time>
      </trkpt>
      <trkpt lat="42.90791" lon="2.61498">
        <ele>443.1</ele>
        <time>2021-03-21T08:35:24Z</time>
      </trkpt>
      <trkpt lat="42.90791" lon="2.6149">
        <ele>443.5</ele>
        <time>2021-03-21T08:35:26Z</time>
      </trkpt>
      <trkpt lat="42.90791" lon="2.61486">
        <ele>443.8</ele>
        <time>2021-03-21T08:35:27Z</time>
      </trkpt>
      <trkpt lat="42.90791" lon="2.61481">
        <ele>444</ele>
        <time>2021-03-21T08:35:28Z</time>
      </trkpt>
      <trkpt lat="42.90792" lon="2.61475">
        <ele>444.3</ele>
        <time>2021-03-21T08:35:30Z</time>
      </trkpt>
      <trkpt lat="42.90792" lon="2.61469">
        <ele>444.6</ele>
        <time>2021-03-21T08:35:31Z</time>
      </trkpt>
      <trkpt lat="42.90792" lon="2.61462">
        <ele>445</ele>
        <time>2021-03-21T08:35:33Z</time>
      </trkpt>
      <trkpt lat="42.90791" lon="2.61458">
        <ele>445.2</ele>
        <time>2021-03-21T08:35:34Z</time>
      </trkpt>
      <trkpt lat="42.90791" lon="2.61452">
        <ele>445.5</ele>
        <time>2021-03-21T08:35:35Z</time>
      </trkpt>
      <trkpt lat="42.90791" lon="2.61448">
        <ele>445.7</ele>
        <time>2021-03-21T08:35:36Z</time>
      </trkpt>
      <trkpt lat="42.90791" lon="2.61441">
        <ele>446</ele>
        <time>2021-03-21T08:35:38Z</time>
      </trkpt>
      <trkpt lat="42.90791" lon="2.61435">
        <ele>446.3</ele>
        <time>2021-03-21T08:35:39Z</time>
      </trkpt>
      <trkpt lat="42.90791" lon="2.61428">
        <ele>446.7</ele>
        <time>2021-03-21T08:35:41Z</time>
      </trkpt>
      <trkpt lat="42.90791" lon="2.61423">
        <ele>446.9</ele>
        <time>2021-03-21T08:35:42Z</time>
      </trkpt>
      <trkpt lat="42.9079" lon="2.61417">
        <ele>447.2</ele>
        <time>2021-03-21T08:35:43Z</time>
      </trkpt>
      <trkpt lat="42.90789" lon="2.6141">
        <ele>447.6</ele>
        <time>2021-03-21T08:35:45Z</time>
      </trkpt>
      <trkpt lat="42.90788" lon="2.61406">
        <ele>447.9</ele>
        <time>2021-03-21T08:35:46Z</time>
      </trkpt>
      <trkpt lat="42.90788" lon="2.61402">
        <ele>448.1</ele>
        <time>2021-03-21T08:35:47Z</time>
      </trkpt>
      <trkpt lat="42.90787" lon="2.61397">
        <ele>448.4</ele>
        <time>2021-03-21T08:35:48Z</time>
      </trkpt>
      <trkpt lat="42.90786" lon="2.61393">
        <ele>448.7</ele>
        <time>2021-03-21T08:35:49Z</time>
      </trkpt>
      <trkpt lat="42.90783" lon="2.61386">
        <ele>449.1</ele>
        <time>2021-03-21T08:35:51Z</time>
      </trkpt>
      <trkpt lat="42.90782" lon="2.61381">
        <ele>449.4</ele>
        <time>2021-03-21T08:35:52Z</time>
      </trkpt>
      <trkpt lat="42.90781" lon="2.61377">
        <ele>449.7</ele>
        <time>2021-03-21T08:35:53Z</time>
      </trkpt>
      <trkpt lat="42.90779" lon="2.61369">
        <ele>450.2</ele>
        <time>2021-03-21T08:35:55Z</time>
      </trkpt>
      <trkpt lat="42.90778" lon="2.61364">
        <ele>450.4</ele>
        <time>2021-03-21T08:35:56Z</time>
      </trkpt>
      <trkpt lat="42.90778" lon="2.61359">
        <ele>450.7</ele>
        <time>2021-03-21T08:35:57Z</time>
      </trkpt>
      <trkpt lat="42.90778" lon="2.61354">
        <ele>451</ele>
        <time>2021-03-21T08:35:59Z</time>
      </trkpt>
      <trkpt lat="42.90779" lon="2.61348">
        <ele>451.3</ele>
        <time>2021-03-21T08:36:00Z</time>
      </trkpt>
      <trkpt lat="42.9078" lon="2.61342">
        <ele>451.6</ele>
        <time>2021-03-21T08:36:01Z</time>
      </trkpt>
      <trkpt lat="42.90781" lon="2.61336">
        <ele>452</ele>
        <time>2021-03-21T08:36:03Z</time>
      </trkpt>
      <trkpt lat="42.90783" lon="2.61331">
        <ele>452.3</ele>
        <time>2021-03-21T08:36:04Z</time>
      </trkpt>
      <trkpt lat="42.90785" lon="2.61323">
        <ele>452.7</ele>
        <time>2021-03-21T08:36:06Z</time>
      </trkpt>
      <trkpt lat="42.90786" lon="2.61317">
        <ele>453</ele>
        <time>2021-03-21T08:36:07Z</time>
      </trkpt>
      <trkpt lat="42.90788" lon="2.6131">
        <ele>453.5</ele>
        <time>2021-03-21T08:36:09Z</time>
      </trkpt>
      <trkpt lat="42.90789" lon="2.61305">
        <ele>453.7</ele>
        <time>2021-03-21T08:36:10Z</time>
      </trkpt>
      <trkpt lat="42.90791" lon="2.61298">
        <ele>454.1</ele>
        <time>2021-03-21T08:36:12Z</time>
      </trkpt>
      <trkpt lat="42.90792" lon="2.61292">
        <ele>454.5</ele>
        <time>2021-03-21T08:36:13Z</time>
      </trkpt>
      <trkpt lat="42.90793" lon="2.61288">
        <ele>454.7</ele>
        <time>2021-03-21T08:36:14Z</time>
      </trkpt>
      <trkpt lat="42.90793" lon="2.61282">
        <ele>455.1</ele>
        <time>2021-03-21T08:36:16Z</time>
      </trkpt>
      <trkpt lat="42.90794" lon="2.61277">
        <ele>455.4</ele>
        <time>2021-03-21T08:36:17Z</time>
      </trkpt>
      <trkpt lat="42.90794" lon="2.6127">
        <ele>455.7</ele>
        <time>2021-03-21T08:36:18Z</time>
      </trkpt>
      <trkpt lat="42.90794" lon="2.61265">
        <ele>456</ele>
        <time>2021-03-21T08:36:19Z</time>
      </trkpt>
      <trkpt lat="42.90793" lon="2.6126">
        <ele>456.3</ele>
        <time>2021-03-21T08:36:20Z</time>
      </trkpt>
      <trkpt lat="42.90793" lon="2.61249">
        <ele>456.8</ele>
        <time>2021-03-21T08:36:22Z</time>
      </trkpt>
      <trkpt lat="42.90792" lon="2.61241">
        <ele>457.2</ele>
        <time>2021-03-21T08:36:24Z</time>
      </trkpt>
      <trkpt lat="42.90792" lon="2.61235">
        <ele>457.5</ele>
        <time>2021-03-21T08:36:25Z</time>
      </trkpt>
      <trkpt lat="42.90791" lon="2.61229">
        <ele>457.8</ele>
        <time>2021-03-21T08:36:26Z</time>
      </trkpt>
      <trkpt lat="42.9079" lon="2.61224">
        <ele>458</ele>
        <time>2021-03-21T08:36:27Z</time>
      </trkpt>
      <trkpt lat="42.90789" lon="2.61218">
        <ele>458.3</ele>
        <time>2021-03-21T08:36:28Z</time>
      </trkpt>
      <trkpt lat="42.90787" lon="2.6121">
        <ele>458.7</ele>
        <time>2021-03-21T08:36:30Z</time>
      </trkpt>
      <trkpt lat="42.90785" lon="2.61204">
        <ele>459</ele>
        <time>2021-03-21T08:36:31Z</time>
      </trkpt>
      <trkpt lat="42.90783" lon="2.61198">
        <ele>459.2</ele>
        <time>2021-03-21T08:36:32Z</time>
      </trkpt>
      <trkpt lat="42.90781" lon="2.61191">
        <ele>459.5</ele>
        <time>2021-03-21T08:36:33Z</time>
      </trkpt>
      <trkpt lat="42.9078" lon="2.61185">
        <ele>459.7</ele>
        <time>2021-03-21T08:36:34Z</time>
      </trkpt>
      <trkpt lat="42.90779" lon="2.6118">
        <ele>459.9</ele>
        <time>2021-03-21T08:36:35Z</time>
      </trkpt>
      <trkpt lat="42.90776" lon="2.61173">
        <ele>460.2</ele>
        <time>2021-03-21T08:36:37Z</time>
      </trkpt>
      <trkpt lat="42.90774" lon="2.61166">
        <ele>460.5</ele>
        <time>2021-03-21T08:36:38Z</time>
      </trkpt>
      <trkpt lat="42.90772" lon="2.61161">
        <ele>460.8</ele>
        <time>2021-03-21T08:36:39Z</time>
      </trkpt>
      <trkpt lat="42.9077" lon="2.61156">
        <ele>461</ele>
        <time>2021-03-21T08:36:40Z</time>
      </trkpt>
      <trkpt lat="42.90768" lon="2.61146">
        <ele>461.5</ele>
        <time>2021-03-21T08:36:42Z</time>
      </trkpt>
      <trkpt lat="42.90767" lon="2.6114">
        <ele>461.7</ele>
        <time>2021-03-21T08:36:43Z</time>
      </trkpt>
      <trkpt lat="42.90766" lon="2.61133">
        <ele>462</ele>
        <time>2021-03-21T08:36:44Z</time>
      </trkpt>
      <trkpt lat="42.90765" lon="2.61126">
        <ele>462.3</ele>
        <time>2021-03-21T08:36:45Z</time>
      </trkpt>
      <trkpt lat="42.90765" lon="2.61118">
        <ele>462.6</ele>
        <time>2021-03-21T08:36:47Z</time>
      </trkpt>
      <trkpt lat="42.90765" lon="2.61112">
        <ele>462.8</ele>
        <time>2021-03-21T08:36:48Z</time>
      </trkpt>
      <trkpt lat="42.90765" lon="2.61106">
        <ele>463.1</ele>
        <time>2021-03-21T08:36:49Z</time>
      </trkpt>
      <trkpt lat="42.90766" lon="2.61099">
        <ele>463.4</ele>
        <time>2021-03-21T08:36:50Z</time>
      </trkpt>
      <trkpt lat="42.90767" lon="2.61094">
        <ele>463.6</ele>
        <time>2021-03-21T08:36:51Z</time>
      </trkpt>
      <trkpt lat="42.90768" lon="2.61088">
        <ele>463.8</ele>
        <time>2021-03-21T08:36:52Z</time>
      </trkpt>
      <trkpt lat="42.90769" lon="2.61083">
        <ele>464.1</ele>
        <time>2021-03-21T08:36:53Z</time>
      </trkpt>
      <trkpt lat="42.90771" lon="2.61076">
        <ele>464.4</ele>
        <time>2021-03-21T08:36:55Z</time>
      </trkpt>
      <trkpt lat="42.90773" lon="2.6107">
        <ele>464.7</ele>
        <time>2021-03-21T08:36:56Z</time>
      </trkpt>
      <trkpt lat="42.90774" lon="2.61063">
        <ele>465.1</ele>
        <time>2021-03-21T08:36:57Z</time>
      </trkpt>
      <trkpt lat="42.90776" lon="2.61055">
        <ele>465.5</ele>
        <time>2021-03-21T08:36:59Z</time>
      </trkpt>
      <trkpt lat="42.90777" lon="2.61049">
        <ele>465.8</ele>
        <time>2021-03-21T08:37:00Z</time>
      </trkpt>
      <trkpt lat="42.90779" lon="2.61042">
        <ele>466.3</ele>
        <time>2021-03-21T08:37:01Z</time>
      </trkpt>
      <trkpt lat="42.90782" lon="2.61034">
        <ele>467</ele>
        <time>2021-03-21T08:37:03Z</time>
      </trkpt>
      <trkpt lat="42.90783" lon="2.61028">
        <ele>467.5</ele>
        <time>2021-03-21T08:37:04Z</time>
      </trkpt>
      <trkpt lat="42.90785" lon="2.61022">
        <ele>468.1</ele>
        <time>2021-03-21T08:37:06Z</time>
      </trkpt>
      <trkpt lat="42.90787" lon="2.61014">
        <ele>468.7</ele>
        <time>2021-03-21T08:37:07Z</time>
      </trkpt>
      <trkpt lat="42.90788" lon="2.61009">
        <ele>469.1</ele>
        <time>2021-03-21T08:37:08Z</time>
      </trkpt>
      <trkpt lat="42.90789" lon="2.61004">
        <ele>469.5</ele>
        <time>2021-03-21T08:37:09Z</time>
      </trkpt>
      <trkpt lat="42.90791" lon="2.60997">
        <ele>470.1</ele>
        <time>2021-03-21T08:37:11Z</time>
      </trkpt>
      <trkpt lat="42.90792" lon="2.60991">
        <ele>470.5</ele>
        <time>2021-03-21T08:37:12Z</time>
      </trkpt>
      <trkpt lat="42.90794" lon="2.60984">
        <ele>471.1</ele>
        <time>2021-03-21T08:37:13Z</time>
      </trkpt>
      <trkpt lat="42.90795" lon="2.60978">
        <ele>471.5</ele>
        <time>2021-03-21T08:37:14Z</time>
      </trkpt>
      <trkpt lat="42.90796" lon="2.60971">
        <ele>472</ele>
        <time>2021-03-21T08:37:16Z</time>
      </trkpt>
      <trkpt lat="42.90798" lon="2.60964">
        <ele>472.5</ele>
        <time>2021-03-21T08:37:17Z</time>
      </trkpt>
      <trkpt lat="42.90799" lon="2.60959">
        <ele>472.9</ele>
        <time>2021-03-21T08:37:18Z</time>
      </trkpt>
      <trkpt lat="42.90801" lon="2.60953">
        <ele>473.3</ele>
        <time>2021-03-21T08:37:19Z</time>
      </trkpt>
      <trkpt lat="42.90804" lon="2.60948">
        <ele>473.7</ele>
        <time>2021-03-21T08:37:20Z</time>
      </trkpt>
      <trkpt lat="42.90807" lon="2.60943">
        <ele>474.2</ele>
        <time>2021-03-21T08:37:21Z</time>
      </trkpt>
      <trkpt lat="42.90811" lon="2.60937">
        <ele>474.8</ele>
        <time>2021-03-21T08:37:23Z</time>
      </trkpt>
      <trkpt lat="42.90815" lon="2.60932">
        <ele>475.3</ele>
        <time>2021-03-21T08:37:24Z</time>
      </trkpt>
      <trkpt lat="42.90819" lon="2.60928">
        <ele>475.8</ele>
        <time>2021-03-21T08:37:25Z</time>
      </trkpt>
      <trkpt lat="42.90823" lon="2.60922">
        <ele>476.1</ele>
        <time>2021-03-21T08:37:26Z</time>
      </trkpt>
      <trkpt lat="42.90827" lon="2.60918">
        <ele>476.4</ele>
        <time>2021-03-21T08:37:28Z</time>
      </trkpt>
      <trkpt lat="42.90832" lon="2.60913">
        <ele>476.6</ele>
        <time>2021-03-21T08:37:29Z</time>
      </trkpt>
      <trkpt lat="42.90836" lon="2.6091">
        <ele>476.7</ele>
        <time>2021-03-21T08:37:30Z</time>
      </trkpt>
      <trkpt lat="42.90843" lon="2.60904">
        <ele>477</ele>
        <time>2021-03-21T08:37:32Z</time>
      </trkpt>
      <trkpt lat="42.90847" lon="2.60902">
        <ele>477.1</ele>
        <time>2021-03-21T08:37:33Z</time>
      </trkpt>
      <trkpt lat="42.90853" lon="2.609">
        <ele>477.3</ele>
        <time>2021-03-21T08:37:35Z</time>
      </trkpt>
      <trkpt lat="42.90859" lon="2.609">
        <ele>477.5</ele>
        <time>2021-03-21T08:37:36Z</time>
      </trkpt>
      <trkpt lat="42.90863" lon="2.609">
        <ele>477.6</ele>
        <time>2021-03-21T08:37:37Z</time>
      </trkpt>
      <trkpt lat="42.90866" lon="2.609">
        <ele>477.7</ele>
        <time>2021-03-21T08:37:38Z</time>
      </trkpt>
      <trkpt lat="42.90872" lon="2.60899">
        <ele>477.9</ele>
        <time>2021-03-21T08:37:40Z</time>
      </trkpt>
      <trkpt lat="42.90877" lon="2.60899">
        <ele>478.1</ele>
        <time>2021-03-21T08:37:41Z</time>
      </trkpt>
      <trkpt lat="42.90881" lon="2.60899">
        <ele>478.2</ele>
        <time>2021-03-21T08:37:42Z</time>
      </trkpt>
      <trkpt lat="42.90887" lon="2.60898">
        <ele>478.4</ele>
        <time>2021-03-21T08:37:44Z</time>
      </trkpt>
      <trkpt lat="42.90892" lon="2.60897">
        <ele>478.6</ele>
        <time>2021-03-21T08:37:45Z</time>
      </trkpt>
      <trkpt lat="42.90896" lon="2.60896">
        <ele>478.7</ele>
        <time>2021-03-21T08:37:46Z</time>
      </trkpt>
      <trkpt lat="42.909" lon="2.60895">
        <ele>478.9</ele>
        <time>2021-03-21T08:37:47Z</time>
      </trkpt>
      <trkpt lat="42.90904" lon="2.60893">
        <ele>479</ele>
        <time>2021-03-21T08:37:48Z</time>
      </trkpt>
      <trkpt lat="42.90908" lon="2.60889">
        <ele>479.2</ele>
        <time>2021-03-21T08:37:50Z</time>
      </trkpt>
      <trkpt lat="42.90912" lon="2.60883">
        <ele>479.4</ele>
        <time>2021-03-21T08:37:51Z</time>
      </trkpt>
      <trkpt lat="42.90915" lon="2.60878">
        <ele>479.6</ele>
        <time>2021-03-21T08:37:52Z</time>
      </trkpt>
      <trkpt lat="42.90918" lon="2.60873">
        <ele>479.8</ele>
        <time>2021-03-21T08:37:53Z</time>
      </trkpt>
      <trkpt lat="42.90921" lon="2.60867">
        <ele>480</ele>
        <time>2021-03-21T08:37:55Z</time>
      </trkpt>
      <trkpt lat="42.90923" lon="2.60862">
        <ele>480.1</ele>
        <time>2021-03-21T08:37:56Z</time>
      </trkpt>
      <trkpt lat="42.90925" lon="2.60857">
        <ele>480.2</ele>
        <time>2021-03-21T08:37:57Z</time>
      </trkpt>
      <trkpt lat="42.90927" lon="2.60851">
        <ele>480.4</ele>
        <time>2021-03-21T08:37:58Z</time>
      </trkpt>
      <trkpt lat="42.90929" lon="2.60846">
        <ele>480.6</ele>
        <time>2021-03-21T08:37:59Z</time>
      </trkpt>
      <trkpt lat="42.90931" lon="2.60839">
        <ele>480.8</ele>
        <time>2021-03-21T08:38:01Z</time>
      </trkpt>
      <trkpt lat="42.90934" lon="2.60831">
        <ele>481.1</ele>
        <time>2021-03-21T08:38:02Z</time>
      </trkpt>
      <trkpt lat="42.90938" lon="2.60822">
        <ele>481.4</ele>
        <time>2021-03-21T08:38:04Z</time>
      </trkpt>
      <trkpt lat="42.9094" lon="2.60817">
        <ele>481.6</ele>
        <time>2021-03-21T08:38:05Z</time>
      </trkpt>
      <trkpt lat="42.90942" lon="2.6081">
        <ele>481.9</ele>
        <time>2021-03-21T08:38:07Z</time>
      </trkpt>
      <trkpt lat="42.90944" lon="2.60805">
        <ele>482</ele>
        <time>2021-03-21T08:38:08Z</time>
      </trkpt>
      <trkpt lat="42.90946" lon="2.60799">
        <ele>482.3</ele>
        <time>2021-03-21T08:38:09Z</time>
      </trkpt>
      <trkpt lat="42.90948" lon="2.60794">
        <ele>482.4</ele>
        <time>2021-03-21T08:38:10Z</time>
      </trkpt>
      <trkpt lat="42.90951" lon="2.60786">
        <ele>482.7</ele>
        <time>2021-03-21T08:38:12Z</time>
      </trkpt>
      <trkpt lat="42.90953" lon="2.6078">
        <ele>482.9</ele>
        <time>2021-03-21T08:38:13Z</time>
      </trkpt>
      <trkpt lat="42.90954" lon="2.60774">
        <ele>483.1</ele>
        <time>2021-03-21T08:38:15Z</time>
      </trkpt>
      <trkpt lat="42.90956" lon="2.60768">
        <ele>483.3</ele>
        <time>2021-03-21T08:38:16Z</time>
      </trkpt>
      <trkpt lat="42.90958" lon="2.60761">
        <ele>483.5</ele>
        <time>2021-03-21T08:38:17Z</time>
      </trkpt>
      <trkpt lat="42.90959" lon="2.60755">
        <ele>483.7</ele>
        <time>2021-03-21T08:38:18Z</time>
      </trkpt>
      <trkpt lat="42.90961" lon="2.60749">
        <ele>483.9</ele>
        <time>2021-03-21T08:38:20Z</time>
      </trkpt>
      <trkpt lat="42.90962" lon="2.60742">
        <ele>484.1</ele>
        <time>2021-03-21T08:38:21Z</time>
      </trkpt>
      <trkpt lat="42.90964" lon="2.60736">
        <ele>484.3</ele>
        <time>2021-03-21T08:38:22Z</time>
      </trkpt>
      <trkpt lat="42.90966" lon="2.60725">
        <ele>484.5</ele>
        <time>2021-03-21T08:38:24Z</time>
      </trkpt>
      <trkpt lat="42.90967" lon="2.6072">
        <ele>484.6</ele>
        <time>2021-03-21T08:38:25Z</time>
      </trkpt>
      <trkpt lat="42.90968" lon="2.60712">
        <ele>484.7</ele>
        <time>2021-03-21T08:38:27Z</time>
      </trkpt>
      <trkpt lat="42.90969" lon="2.60706">
        <ele>484.8</ele>
        <time>2021-03-21T08:38:28Z</time>
      </trkpt>
      <trkpt lat="42.9097" lon="2.60699">
        <ele>485</ele>
        <time>2021-03-21T08:38:29Z</time>
      </trkpt>
      <trkpt lat="42.90971" lon="2.60693">
        <ele>485.1</ele>
        <time>2021-03-21T08:38:30Z</time>
      </trkpt>
      <trkpt lat="42.90973" lon="2.60684">
        <ele>485.2</ele>
        <time>2021-03-21T08:38:32Z</time>
      </trkpt>
      <trkpt lat="42.90974" lon="2.60678">
        <ele>485.3</ele>
        <time>2021-03-21T08:38:33Z</time>
      </trkpt>
      <trkpt lat="42.90976" lon="2.6067">
        <ele>485.3</ele>
        <time>2021-03-21T08:38:34Z</time>
      </trkpt>
      <trkpt lat="42.90979" lon="2.60664">
        <ele>485.3</ele>
        <time>2021-03-21T08:38:35Z</time>
      </trkpt>
      <trkpt lat="42.90982" lon="2.60656">
        <ele>485.3</ele>
        <time>2021-03-21T08:38:37Z</time>
      </trkpt>
      <trkpt lat="42.90984" lon="2.6065">
        <ele>485.1</ele>
        <time>2021-03-21T08:38:38Z</time>
      </trkpt>
      <trkpt lat="42.90986" lon="2.60644">
        <ele>485</ele>
        <time>2021-03-21T08:38:39Z</time>
      </trkpt>
      <trkpt lat="42.90989" lon="2.60638">
        <ele>484.9</ele>
        <time>2021-03-21T08:38:40Z</time>
      </trkpt>
      <trkpt lat="42.90992" lon="2.60625">
        <ele>484.4</ele>
        <time>2021-03-21T08:38:42Z</time>
      </trkpt>
      <trkpt lat="42.90994" lon="2.60618">
        <ele>484.2</ele>
        <time>2021-03-21T08:38:43Z</time>
      </trkpt>
      <trkpt lat="42.90994" lon="2.60602">
        <ele>483.6</ele>
        <time>2021-03-21T08:38:45Z</time>
      </trkpt>
      <trkpt lat="42.90994" lon="2.60593">
        <ele>483.2</ele>
        <time>2021-03-21T08:38:46Z</time>
      </trkpt>
      <trkpt lat="42.90991" lon="2.60575">
        <ele>482.3</ele>
        <time>2021-03-21T08:38:48Z</time>
      </trkpt>
      <trkpt lat="42.9099" lon="2.60565">
        <ele>481.9</ele>
        <time>2021-03-21T08:38:49Z</time>
      </trkpt>
      <trkpt lat="42.90986" lon="2.60547">
        <ele>481.3</ele>
        <time>2021-03-21T08:38:51Z</time>
      </trkpt>
      <trkpt lat="42.90984" lon="2.60539">
        <ele>481</ele>
        <time>2021-03-21T08:38:52Z</time>
      </trkpt>
      <trkpt lat="42.9098" lon="2.60522">
        <ele>480.5</ele>
        <time>2021-03-21T08:38:54Z</time>
      </trkpt>
      <trkpt lat="42.90978" lon="2.60513">
        <ele>480.3</ele>
        <time>2021-03-21T08:38:55Z</time>
      </trkpt>
      <trkpt lat="42.90974" lon="2.60495">
        <ele>480</ele>
        <time>2021-03-21T08:38:57Z</time>
      </trkpt>
      <trkpt lat="42.90972" lon="2.60485">
        <ele>479.8</ele>
        <time>2021-03-21T08:38:58Z</time>
      </trkpt>
      <trkpt lat="42.9097" lon="2.60466">
        <ele>479.5</ele>
        <time>2021-03-21T08:39:00Z</time>
      </trkpt>
      <trkpt lat="42.90968" lon="2.60445">
        <ele>479.1</ele>
        <time>2021-03-21T08:39:02Z</time>
      </trkpt>
      <trkpt lat="42.90967" lon="2.60435">
        <ele>479</ele>
        <time>2021-03-21T08:39:03Z</time>
      </trkpt>
      <trkpt lat="42.90965" lon="2.60414">
        <ele>478.9</ele>
        <time>2021-03-21T08:39:05Z</time>
      </trkpt>
      <trkpt lat="42.90963" lon="2.60394">
        <ele>479.1</ele>
        <time>2021-03-21T08:39:07Z</time>
      </trkpt>
      <trkpt lat="42.90961" lon="2.60375">
        <ele>479.4</ele>
        <time>2021-03-21T08:39:09Z</time>
      </trkpt>
      <trkpt lat="42.9096" lon="2.60366">
        <ele>479.6</ele>
        <time>2021-03-21T08:39:10Z</time>
      </trkpt>
      <trkpt lat="42.9096" lon="2.60349">
        <ele>479.8</ele>
        <time>2021-03-21T08:39:12Z</time>
      </trkpt>
      <trkpt lat="42.90959" lon="2.60332">
        <ele>479.9</ele>
        <time>2021-03-21T08:39:14Z</time>
      </trkpt>
      <trkpt lat="42.9096" lon="2.60323">
        <ele>480</ele>
        <time>2021-03-21T08:39:15Z</time>
      </trkpt>
      <trkpt lat="42.9096" lon="2.60315">
        <ele>480</ele>
        <time>2021-03-21T08:39:16Z</time>
      </trkpt>
      <trkpt lat="42.9096" lon="2.60298">
        <ele>480</ele>
        <time>2021-03-21T08:39:18Z</time>
      </trkpt>
      <trkpt lat="42.90961" lon="2.60282">
        <ele>480.1</ele>
        <time>2021-03-21T08:39:20Z</time>
      </trkpt>
      <trkpt lat="42.90961" lon="2.60268">
        <ele>480.3</ele>
        <time>2021-03-21T08:39:22Z</time>
      </trkpt>
      <trkpt lat="42.90962" lon="2.60253">
        <ele>480.6</ele>
        <time>2021-03-21T08:39:24Z</time>
      </trkpt>
      <trkpt lat="42.90963" lon="2.60246">
        <ele>480.7</ele>
        <time>2021-03-21T08:39:25Z</time>
      </trkpt>
      <trkpt lat="42.90963" lon="2.60239">
        <ele>480.9</ele>
        <time>2021-03-21T08:39:26Z</time>
      </trkpt>
      <trkpt lat="42.90963" lon="2.60225">
        <ele>481.2</ele>
        <time>2021-03-21T08:39:28Z</time>
      </trkpt>
      <trkpt lat="42.90963" lon="2.60218">
        <ele>481.4</ele>
        <time>2021-03-21T08:39:29Z</time>
      </trkpt>
      <trkpt lat="42.90963" lon="2.60205">
        <ele>481.8</ele>
        <time>2021-03-21T08:39:31Z</time>
      </trkpt>
      <trkpt lat="42.90964" lon="2.60193">
        <ele>482.1</ele>
        <time>2021-03-21T08:39:33Z</time>
      </trkpt>
      <trkpt lat="42.90965" lon="2.60186">
        <ele>482.2</ele>
        <time>2021-03-21T08:39:34Z</time>
      </trkpt>
      <trkpt lat="42.90967" lon="2.60172">
        <ele>482.6</ele>
        <time>2021-03-21T08:39:36Z</time>
      </trkpt>
      <trkpt lat="42.90968" lon="2.60165">
        <ele>482.8</ele>
        <time>2021-03-21T08:39:37Z</time>
      </trkpt>
      <trkpt lat="42.90969" lon="2.60158">
        <ele>483</ele>
        <time>2021-03-21T08:39:38Z</time>
      </trkpt>
      <trkpt lat="42.9097" lon="2.60151">
        <ele>483.2</ele>
        <time>2021-03-21T08:39:39Z</time>
      </trkpt>
      <trkpt lat="42.9097" lon="2.60138">
        <ele>483.6</ele>
        <time>2021-03-21T08:39:41Z</time>
      </trkpt>
      <trkpt lat="42.9097" lon="2.60127">
        <ele>483.9</ele>
        <time>2021-03-21T08:39:43Z</time>
      </trkpt>
      <trkpt lat="42.9097" lon="2.60116">
        <ele>484.2</ele>
        <time>2021-03-21T08:39:45Z</time>
      </trkpt>
      <trkpt lat="42.9097" lon="2.60112">
        <ele>484.3</ele>
        <time>2021-03-21T08:39:46Z</time>
      </trkpt>
      <trkpt lat="42.90971" lon="2.60105">
        <ele>484.4</ele>
        <time>2021-03-21T08:39:47Z</time>
      </trkpt>
      <trkpt lat="42.90972" lon="2.60093">
        <ele>484.8</ele>
        <time>2021-03-21T08:39:49Z</time>
      </trkpt>
      <trkpt lat="42.90971" lon="2.60087">
        <ele>484.9</ele>
        <time>2021-03-21T08:39:50Z</time>
      </trkpt>
      <trkpt lat="42.9097" lon="2.60079">
        <ele>485.2</ele>
        <time>2021-03-21T08:39:52Z</time>
      </trkpt>
      <trkpt lat="42.90972" lon="2.60072">
        <ele>485.4</ele>
        <time>2021-03-21T08:39:53Z</time>
      </trkpt>
      <trkpt lat="42.90974" lon="2.60066">
        <ele>485.7</ele>
        <time>2021-03-21T08:39:54Z</time>
      </trkpt>
      <trkpt lat="42.90978" lon="2.60055">
        <ele>486.1</ele>
        <time>2021-03-21T08:39:56Z</time>
      </trkpt>
      <trkpt lat="42.90982" lon="2.60048">
        <ele>486.3</ele>
        <time>2021-03-21T08:39:58Z</time>
      </trkpt>
      <trkpt lat="42.90985" lon="2.6004">
        <ele>486.7</ele>
        <time>2021-03-21T08:39:59Z</time>
      </trkpt>
      <trkpt lat="42.90989" lon="2.60031">
        <ele>487.1</ele>
        <time>2021-03-21T08:40:01Z</time>
      </trkpt>
      <trkpt lat="42.90992" lon="2.60027">
        <ele>487.3</ele>
        <time>2021-03-21T08:40:02Z</time>
      </trkpt>
      <trkpt lat="42.90995" lon="2.60023">
        <ele>487.6</ele>
        <time>2021-03-21T08:40:03Z</time>
      </trkpt>
      <trkpt lat="42.90998" lon="2.60019">
        <ele>487.7</ele>
        <time>2021-03-21T08:40:04Z</time>
      </trkpt>
      <trkpt lat="42.91002" lon="2.60013">
        <ele>488</ele>
        <time>2021-03-21T08:40:06Z</time>
      </trkpt>
      <trkpt lat="42.91005" lon="2.60007">
        <ele>488.2</ele>
        <time>2021-03-21T08:40:07Z</time>
      </trkpt>
      <trkpt lat="42.91007" lon="2.60002">
        <ele>488.4</ele>
        <time>2021-03-21T08:40:08Z</time>
      </trkpt>
      <trkpt lat="42.91008" lon="2.59996">
        <ele>488.6</ele>
        <time>2021-03-21T08:40:09Z</time>
      </trkpt>
      <trkpt lat="42.91009" lon="2.59988">
        <ele>488.9</ele>
        <time>2021-03-21T08:40:11Z</time>
      </trkpt>
      <trkpt lat="42.91009" lon="2.5998">
        <ele>489.1</ele>
        <time>2021-03-21T08:40:12Z</time>
      </trkpt>
      <trkpt lat="42.91008" lon="2.59973">
        <ele>489.4</ele>
        <time>2021-03-21T08:40:13Z</time>
      </trkpt>
      <trkpt lat="42.91006" lon="2.59963">
        <ele>489.9</ele>
        <time>2021-03-21T08:40:15Z</time>
      </trkpt>
      <trkpt lat="42.91005" lon="2.59957">
        <ele>490.2</ele>
        <time>2021-03-21T08:40:16Z</time>
      </trkpt>
      <trkpt lat="42.91002" lon="2.59947">
        <ele>490.6</ele>
        <time>2021-03-21T08:40:18Z</time>
      </trkpt>
      <trkpt lat="42.91" lon="2.59942">
        <ele>490.8</ele>
        <time>2021-03-21T08:40:19Z</time>
      </trkpt>
      <trkpt lat="42.90997" lon="2.59938">
        <ele>491</ele>
        <time>2021-03-21T08:40:20Z</time>
      </trkpt>
      <trkpt lat="42.90992" lon="2.59934">
        <ele>491.4</ele>
        <time>2021-03-21T08:40:22Z</time>
      </trkpt>
      <trkpt lat="42.90987" lon="2.5993">
        <ele>491.8</ele>
        <time>2021-03-21T08:40:23Z</time>
      </trkpt>
      <trkpt lat="42.90983" lon="2.59926">
        <ele>492.1</ele>
        <time>2021-03-21T08:40:24Z</time>
      </trkpt>
      <trkpt lat="42.90978" lon="2.59922">
        <ele>492.6</ele>
        <time>2021-03-21T08:40:26Z</time>
      </trkpt>
      <trkpt lat="42.90974" lon="2.59918">
        <ele>493</ele>
        <time>2021-03-21T08:40:27Z</time>
      </trkpt>
      <trkpt lat="42.90968" lon="2.59915">
        <ele>493.4</ele>
        <time>2021-03-21T08:40:29Z</time>
      </trkpt>
      <trkpt lat="42.90964" lon="2.59911">
        <ele>493.8</ele>
        <time>2021-03-21T08:40:30Z</time>
      </trkpt>
      <trkpt lat="42.90959" lon="2.59907">
        <ele>494.2</ele>
        <time>2021-03-21T08:40:32Z</time>
      </trkpt>
      <trkpt lat="42.90955" lon="2.59903">
        <ele>494.6</ele>
        <time>2021-03-21T08:40:33Z</time>
      </trkpt>
      <trkpt lat="42.90949" lon="2.59896">
        <ele>495.1</ele>
        <time>2021-03-21T08:40:35Z</time>
      </trkpt>
      <trkpt lat="42.90947" lon="2.59894">
        <ele>495.4</ele>
        <time>2021-03-21T08:40:36Z</time>
      </trkpt>
      <trkpt lat="42.90942" lon="2.59888">
        <ele>496</ele>
        <time>2021-03-21T08:40:38Z</time>
      </trkpt>
      <trkpt lat="42.90939" lon="2.59883">
        <ele>496.3</ele>
        <time>2021-03-21T08:40:40Z</time>
      </trkpt>
      <trkpt lat="42.90936" lon="2.59879">
        <ele>496.7</ele>
        <time>2021-03-21T08:40:41Z</time>
      </trkpt>
      <trkpt lat="42.90934" lon="2.59874">
        <ele>497.1</ele>
        <time>2021-03-21T08:40:42Z</time>
      </trkpt>
      <trkpt lat="42.90932" lon="2.5987">
        <ele>497.4</ele>
        <time>2021-03-21T08:40:43Z</time>
      </trkpt>
      <trkpt lat="42.9093" lon="2.59864">
        <ele>497.9</ele>
        <time>2021-03-21T08:40:45Z</time>
      </trkpt>
      <trkpt lat="42.90929" lon="2.5986">
        <ele>498.2</ele>
        <time>2021-03-21T08:40:46Z</time>
      </trkpt>
      <trkpt lat="42.90928" lon="2.59857">
        <ele>498.5</ele>
        <time>2021-03-21T08:40:47Z</time>
      </trkpt>
      <trkpt lat="42.90926" lon="2.59853">
        <ele>498.8</ele>
        <time>2021-03-21T08:40:49Z</time>
      </trkpt>
      <trkpt lat="42.90923" lon="2.59849">
        <ele>499.1</ele>
        <time>2021-03-21T08:40:50Z</time>
      </trkpt>
      <trkpt lat="42.90921" lon="2.59846">
        <ele>499.4</ele>
        <time>2021-03-21T08:40:51Z</time>
      </trkpt>
      <trkpt lat="42.90918" lon="2.59843">
        <ele>499.7</ele>
        <time>2021-03-21T08:40:52Z</time>
      </trkpt>
      <trkpt lat="42.90914" lon="2.59839">
        <ele>500.2</ele>
        <time>2021-03-21T08:40:54Z</time>
      </trkpt>
      <trkpt lat="42.9091" lon="2.59836">
        <ele>500.6</ele>
        <time>2021-03-21T08:40:55Z</time>
      </trkpt>
      <trkpt lat="42.90908" lon="2.59834">
        <ele>500.9</ele>
        <time>2021-03-21T08:40:56Z</time>
      </trkpt>
      <trkpt lat="42.90902" lon="2.5983">
        <ele>501.4</ele>
        <time>2021-03-21T08:40:58Z</time>
      </trkpt>
      <trkpt lat="42.909" lon="2.59828">
        <ele>501.7</ele>
        <time>2021-03-21T08:40:59Z</time>
      </trkpt>
      <trkpt lat="42.90897" lon="2.59826">
        <ele>502</ele>
        <time>2021-03-21T08:41:00Z</time>
      </trkpt>
      <trkpt lat="42.90894" lon="2.59823">
        <ele>502.3</ele>
        <time>2021-03-21T08:41:01Z</time>
      </trkpt>
      <trkpt lat="42.90891" lon="2.59821">
        <ele>502.6</ele>
        <time>2021-03-21T08:41:02Z</time>
      </trkpt>
      <trkpt lat="42.90888" lon="2.59818">
        <ele>503</ele>
        <time>2021-03-21T08:41:04Z</time>
      </trkpt>
      <trkpt lat="42.90885" lon="2.59815">
        <ele>503.4</ele>
        <time>2021-03-21T08:41:05Z</time>
      </trkpt>
      <trkpt lat="42.90881" lon="2.59812">
        <ele>503.8</ele>
        <time>2021-03-21T08:41:06Z</time>
      </trkpt>
      <trkpt lat="42.90878" lon="2.59809">
        <ele>504.3</ele>
        <time>2021-03-21T08:41:07Z</time>
      </trkpt>
      <trkpt lat="42.90875" lon="2.59806">
        <ele>504.6</ele>
        <time>2021-03-21T08:41:08Z</time>
      </trkpt>
      <trkpt lat="42.90871" lon="2.59803">
        <ele>505</ele>
        <time>2021-03-21T08:41:10Z</time>
      </trkpt>
      <trkpt lat="42.90868" lon="2.59801">
        <ele>505.4</ele>
        <time>2021-03-21T08:41:11Z</time>
      </trkpt>
      <trkpt lat="42.90865" lon="2.598">
        <ele>505.7</ele>
        <time>2021-03-21T08:41:12Z</time>
      </trkpt>
      <trkpt lat="42.90862" lon="2.59798">
        <ele>506.1</ele>
        <time>2021-03-21T08:41:13Z</time>
      </trkpt>
      <trkpt lat="42.90858" lon="2.59796">
        <ele>506.5</ele>
        <time>2021-03-21T08:41:14Z</time>
      </trkpt>
      <trkpt lat="42.90855" lon="2.59795">
        <ele>506.9</ele>
        <time>2021-03-21T08:41:15Z</time>
      </trkpt>
      <trkpt lat="42.90851" lon="2.59795">
        <ele>507.2</ele>
        <time>2021-03-21T08:41:16Z</time>
      </trkpt>
      <trkpt lat="42.90848" lon="2.59797">
        <ele>507.5</ele>
        <time>2021-03-21T08:41:18Z</time>
      </trkpt>
      <trkpt lat="42.90845" lon="2.59801">
        <ele>508</ele>
        <time>2021-03-21T08:41:19Z</time>
      </trkpt>
      <trkpt lat="42.90844" lon="2.59808">
        <ele>508.6</ele>
        <time>2021-03-21T08:41:21Z</time>
      </trkpt>
      <trkpt lat="42.90844" lon="2.59815">
        <ele>509.1</ele>
        <time>2021-03-21T08:41:22Z</time>
      </trkpt>
      <trkpt lat="42.90844" lon="2.5982">
        <ele>509.5</ele>
        <time>2021-03-21T08:41:23Z</time>
      </trkpt>
      <trkpt lat="42.90845" lon="2.59826">
        <ele>509.9</ele>
        <time>2021-03-21T08:41:25Z</time>
      </trkpt>
      <trkpt lat="42.90845" lon="2.59832">
        <ele>510.3</ele>
        <time>2021-03-21T08:41:26Z</time>
      </trkpt>
      <trkpt lat="42.90845" lon="2.59838">
        <ele>510.8</ele>
        <time>2021-03-21T08:41:28Z</time>
      </trkpt>
      <trkpt lat="42.90845" lon="2.59845">
        <ele>511.3</ele>
        <time>2021-03-21T08:41:29Z</time>
      </trkpt>
      <trkpt lat="42.90845" lon="2.59853">
        <ele>511.9</ele>
        <time>2021-03-21T08:41:31Z</time>
      </trkpt>
      <trkpt lat="42.90846" lon="2.59858">
        <ele>512.3</ele>
        <time>2021-03-21T08:41:32Z</time>
      </trkpt>
      <trkpt lat="42.90846" lon="2.59862">
        <ele>512.6</ele>
        <time>2021-03-21T08:41:33Z</time>
      </trkpt>
      <trkpt lat="42.90846" lon="2.59866">
        <ele>512.9</ele>
        <time>2021-03-21T08:41:34Z</time>
      </trkpt>
      <trkpt lat="42.90846" lon="2.59872">
        <ele>513.3</ele>
        <time>2021-03-21T08:41:35Z</time>
      </trkpt>
      <trkpt lat="42.90845" lon="2.59876">
        <ele>513.6</ele>
        <time>2021-03-21T08:41:37Z</time>
      </trkpt>
      <trkpt lat="42.90844" lon="2.59883">
        <ele>514.1</ele>
        <time>2021-03-21T08:41:38Z</time>
      </trkpt>
      <trkpt lat="42.90843" lon="2.5989">
        <ele>514.7</ele>
        <time>2021-03-21T08:41:40Z</time>
      </trkpt>
      <trkpt lat="42.90841" lon="2.59895">
        <ele>515.1</ele>
        <time>2021-03-21T08:41:41Z</time>
      </trkpt>
      <trkpt lat="42.90839" lon="2.59899">
        <ele>515.4</ele>
        <time>2021-03-21T08:41:42Z</time>
      </trkpt>
      <trkpt lat="42.90837" lon="2.59902">
        <ele>515.7</ele>
        <time>2021-03-21T08:41:43Z</time>
      </trkpt>
      <trkpt lat="42.90835" lon="2.59906">
        <ele>516.1</ele>
        <time>2021-03-21T08:41:45Z</time>
      </trkpt>
      <trkpt lat="42.90831" lon="2.59909">
        <ele>516.5</ele>
        <time>2021-03-21T08:41:46Z</time>
      </trkpt>
      <trkpt lat="42.90828" lon="2.59911">
        <ele>516.8</ele>
        <time>2021-03-21T08:41:47Z</time>
      </trkpt>
      <trkpt lat="42.90825" lon="2.59912">
        <ele>517.1</ele>
        <time>2021-03-21T08:41:48Z</time>
      </trkpt>
      <trkpt lat="42.90819" lon="2.59913">
        <ele>517.6</ele>
        <time>2021-03-21T08:41:50Z</time>
      </trkpt>
      <trkpt lat="42.90816" lon="2.59914">
        <ele>517.9</ele>
        <time>2021-03-21T08:41:51Z</time>
      </trkpt>
      <trkpt lat="42.90812" lon="2.59913">
        <ele>518.3</ele>
        <time>2021-03-21T08:41:53Z</time>
      </trkpt>
      <trkpt lat="42.90807" lon="2.59913">
        <ele>518.7</ele>
        <time>2021-03-21T08:41:54Z</time>
      </trkpt>
      <trkpt lat="42.90804" lon="2.59912">
        <ele>519</ele>
        <time>2021-03-21T08:41:55Z</time>
      </trkpt>
      <trkpt lat="42.908" lon="2.5991">
        <ele>519.4</ele>
        <time>2021-03-21T08:41:57Z</time>
      </trkpt>
      <trkpt lat="42.90796" lon="2.59908">
        <ele>519.8</ele>
        <time>2021-03-21T08:41:58Z</time>
      </trkpt>
      <trkpt lat="42.90793" lon="2.59907">
        <ele>520</ele>
        <time>2021-03-21T08:41:59Z</time>
      </trkpt>
      <trkpt lat="42.9079" lon="2.59905">
        <ele>520.3</ele>
        <time>2021-03-21T08:42:01Z</time>
      </trkpt>
      <trkpt lat="42.90787" lon="2.59903">
        <ele>520.6</ele>
        <time>2021-03-21T08:42:02Z</time>
      </trkpt>
      <trkpt lat="42.90784" lon="2.599">
        <ele>520.9</ele>
        <time>2021-03-21T08:42:03Z</time>
      </trkpt>
      <trkpt lat="42.90782" lon="2.59898">
        <ele>521.1</ele>
        <time>2021-03-21T08:42:04Z</time>
      </trkpt>
      <trkpt lat="42.90779" lon="2.59893">
        <ele>521.4</ele>
        <time>2021-03-21T08:42:06Z</time>
      </trkpt>
      <trkpt lat="42.90776" lon="2.5989">
        <ele>521.7</ele>
        <time>2021-03-21T08:42:07Z</time>
      </trkpt>
      <trkpt lat="42.90773" lon="2.59887">
        <ele>522</ele>
        <time>2021-03-21T08:42:08Z</time>
      </trkpt>
      <trkpt lat="42.90769" lon="2.59883">
        <ele>522.4</ele>
        <time>2021-03-21T08:42:10Z</time>
      </trkpt>
      <trkpt lat="42.90766" lon="2.59881">
        <ele>522.7</ele>
        <time>2021-03-21T08:42:11Z</time>
      </trkpt>
      <trkpt lat="42.90762" lon="2.59878">
        <ele>523.1</ele>
        <time>2021-03-21T08:42:12Z</time>
      </trkpt>
      <trkpt lat="42.90759" lon="2.59873">
        <ele>523.6</ele>
        <time>2021-03-21T08:42:14Z</time>
      </trkpt>
      <trkpt lat="42.90755" lon="2.59869">
        <ele>524.1</ele>
        <time>2021-03-21T08:42:16Z</time>
      </trkpt>
      <trkpt lat="42.90752" lon="2.59866">
        <ele>524.5</ele>
        <time>2021-03-21T08:42:17Z</time>
      </trkpt>
      <trkpt lat="42.9075" lon="2.59862">
        <ele>525</ele>
        <time>2021-03-21T08:42:18Z</time>
      </trkpt>
      <trkpt lat="42.90748" lon="2.59858">
        <ele>525.5</ele>
        <time>2021-03-21T08:42:20Z</time>
      </trkpt>
      <trkpt lat="42.90746" lon="2.59853">
        <ele>526.1</ele>
        <time>2021-03-21T08:42:21Z</time>
      </trkpt>
      <trkpt lat="42.90745" lon="2.59851">
        <ele>526.4</ele>
        <time>2021-03-21T08:42:22Z</time>
      </trkpt>
      <trkpt lat="42.90743" lon="2.59847">
        <ele>526.9</ele>
        <time>2021-03-21T08:42:24Z</time>
      </trkpt>
      <trkpt lat="42.90741" lon="2.59843">
        <ele>527.4</ele>
        <time>2021-03-21T08:42:25Z</time>
      </trkpt>
      <trkpt lat="42.9074" lon="2.59842">
        <ele>527.5</ele>
        <time>2021-03-21T08:42:26Z</time>
      </trkpt>
      <trkpt lat="42.90739" lon="2.59839">
        <ele>528</ele>
        <time>2021-03-21T08:42:27Z</time>
      </trkpt>
      <trkpt lat="42.90737" lon="2.59833">
        <ele>528.6</ele>
        <time>2021-03-21T08:42:29Z</time>
      </trkpt>
      <trkpt lat="42.90735" lon="2.59829">
        <ele>529.2</ele>
        <time>2021-03-21T08:42:30Z</time>
      </trkpt>
      <trkpt lat="42.90733" lon="2.59825">
        <ele>529.6</ele>
        <time>2021-03-21T08:42:32Z</time>
      </trkpt>
      <trkpt lat="42.90731" lon="2.5982">
        <ele>530.3</ele>
        <time>2021-03-21T08:42:33Z</time>
      </trkpt>
      <trkpt lat="42.90729" lon="2.59816">
        <ele>530.7</ele>
        <time>2021-03-21T08:42:34Z</time>
      </trkpt>
      <trkpt lat="42.90726" lon="2.5981">
        <ele>531.4</ele>
        <time>2021-03-21T08:42:36Z</time>
      </trkpt>
      <trkpt lat="42.90724" lon="2.59806">
        <ele>531.9</ele>
        <time>2021-03-21T08:42:37Z</time>
      </trkpt>
      <trkpt lat="42.90721" lon="2.59801">
        <ele>532.5</ele>
        <time>2021-03-21T08:42:39Z</time>
      </trkpt>
      <trkpt lat="42.90719" lon="2.59797">
        <ele>532.9</ele>
        <time>2021-03-21T08:42:40Z</time>
      </trkpt>
      <trkpt lat="42.90718" lon="2.59794">
        <ele>533.3</ele>
        <time>2021-03-21T08:42:41Z</time>
      </trkpt>
      <trkpt lat="42.90715" lon="2.59791">
        <ele>533.7</ele>
        <time>2021-03-21T08:42:43Z</time>
      </trkpt>
      <trkpt lat="42.90713" lon="2.59787">
        <ele>534.1</ele>
        <time>2021-03-21T08:42:44Z</time>
      </trkpt>
      <trkpt lat="42.90712" lon="2.59783">
        <ele>534.4</ele>
        <time>2021-03-21T08:42:45Z</time>
      </trkpt>
      <trkpt lat="42.90711" lon="2.5978">
        <ele>534.7</ele>
        <time>2021-03-21T08:42:46Z</time>
      </trkpt>
      <trkpt lat="42.90709" lon="2.59776">
        <ele>535</ele>
        <time>2021-03-21T08:42:48Z</time>
      </trkpt>
      <trkpt lat="42.90708" lon="2.59771">
        <ele>535.3</ele>
        <time>2021-03-21T08:42:49Z</time>
      </trkpt>
      <trkpt lat="42.90707" lon="2.59765">
        <ele>535.8</ele>
        <time>2021-03-21T08:42:51Z</time>
      </trkpt>
      <trkpt lat="42.90707" lon="2.5976">
        <ele>536.1</ele>
        <time>2021-03-21T08:42:52Z</time>
      </trkpt>
      <trkpt lat="42.90706" lon="2.59756">
        <ele>536.3</ele>
        <time>2021-03-21T08:42:53Z</time>
      </trkpt>
      <trkpt lat="42.90706" lon="2.59751">
        <ele>536.7</ele>
        <time>2021-03-21T08:42:55Z</time>
      </trkpt>
      <trkpt lat="42.90705" lon="2.59746">
        <ele>537.1</ele>
        <time>2021-03-21T08:42:56Z</time>
      </trkpt>
      <trkpt lat="42.90704" lon="2.5974">
        <ele>537.4</ele>
        <time>2021-03-21T08:42:57Z</time>
      </trkpt>
      <trkpt lat="42.90703" lon="2.59735">
        <ele>537.8</ele>
        <time>2021-03-21T08:42:59Z</time>
      </trkpt>
      <trkpt lat="42.90701" lon="2.59729">
        <ele>538.2</ele>
        <time>2021-03-21T08:43:00Z</time>
      </trkpt>
      <trkpt lat="42.907" lon="2.59725">
        <ele>538.4</ele>
        <time>2021-03-21T08:43:01Z</time>
      </trkpt>
      <trkpt lat="42.90698" lon="2.59719">
        <ele>538.8</ele>
        <time>2021-03-21T08:43:03Z</time>
      </trkpt>
      <trkpt lat="42.90698" lon="2.59714">
        <ele>539.1</ele>
        <time>2021-03-21T08:43:05Z</time>
      </trkpt>
      <trkpt lat="42.90697" lon="2.59707">
        <ele>539.5</ele>
        <time>2021-03-21T08:43:06Z</time>
      </trkpt>
      <trkpt lat="42.90696" lon="2.59702">
        <ele>539.8</ele>
        <time>2021-03-21T08:43:08Z</time>
      </trkpt>
      <trkpt lat="42.90695" lon="2.59696">
        <ele>540.1</ele>
        <time>2021-03-21T08:43:09Z</time>
      </trkpt>
      <trkpt lat="42.90694" lon="2.59691">
        <ele>540.4</ele>
        <time>2021-03-21T08:43:10Z</time>
      </trkpt>
      <trkpt lat="42.90694" lon="2.59686">
        <ele>540.7</ele>
        <time>2021-03-21T08:43:11Z</time>
      </trkpt>
      <trkpt lat="42.90693" lon="2.59679">
        <ele>541.1</ele>
        <time>2021-03-21T08:43:13Z</time>
      </trkpt>
      <trkpt lat="42.90693" lon="2.59674">
        <ele>541.4</ele>
        <time>2021-03-21T08:43:14Z</time>
      </trkpt>
      <trkpt lat="42.90694" lon="2.59668">
        <ele>541.7</ele>
        <time>2021-03-21T08:43:15Z</time>
      </trkpt>
      <trkpt lat="42.90695" lon="2.59662">
        <ele>542.1</ele>
        <time>2021-03-21T08:43:17Z</time>
      </trkpt>
      <trkpt lat="42.90696" lon="2.59656">
        <ele>542.4</ele>
        <time>2021-03-21T08:43:18Z</time>
      </trkpt>
      <trkpt lat="42.90697" lon="2.59648">
        <ele>542.8</ele>
        <time>2021-03-21T08:43:20Z</time>
      </trkpt>
      <trkpt lat="42.90699" lon="2.59644">
        <ele>543.1</ele>
        <time>2021-03-21T08:43:21Z</time>
      </trkpt>
      <trkpt lat="42.907" lon="2.5964">
        <ele>543.4</ele>
        <time>2021-03-21T08:43:22Z</time>
      </trkpt>
      <trkpt lat="42.90702" lon="2.59634">
        <ele>543.8</ele>
        <time>2021-03-21T08:43:24Z</time>
      </trkpt>
      <trkpt lat="42.90703" lon="2.59629">
        <ele>544.1</ele>
        <time>2021-03-21T08:43:25Z</time>
      </trkpt>
      <trkpt lat="42.90705" lon="2.59624">
        <ele>544.4</ele>
        <time>2021-03-21T08:43:26Z</time>
      </trkpt>
      <trkpt lat="42.90706" lon="2.5962">
        <ele>544.7</ele>
        <time>2021-03-21T08:43:27Z</time>
      </trkpt>
      <trkpt lat="42.90707" lon="2.59616">
        <ele>545</ele>
        <time>2021-03-21T08:43:28Z</time>
      </trkpt>
      <trkpt lat="42.90709" lon="2.59609">
        <ele>545.5</ele>
        <time>2021-03-21T08:43:30Z</time>
      </trkpt>
      <trkpt lat="42.9071" lon="2.59605">
        <ele>545.8</ele>
        <time>2021-03-21T08:43:31Z</time>
      </trkpt>
      <trkpt lat="42.90712" lon="2.59599">
        <ele>546.2</ele>
        <time>2021-03-21T08:43:32Z</time>
      </trkpt>
      <trkpt lat="42.90715" lon="2.59595">
        <ele>546.5</ele>
        <time>2021-03-21T08:43:33Z</time>
      </trkpt>
      <trkpt lat="42.90718" lon="2.59591">
        <ele>546.9</ele>
        <time>2021-03-21T08:43:35Z</time>
      </trkpt>
      <trkpt lat="42.90723" lon="2.59587">
        <ele>547.2</ele>
        <time>2021-03-21T08:43:36Z</time>
      </trkpt>
      <trkpt lat="42.90727" lon="2.59583">
        <ele>547.6</ele>
        <time>2021-03-21T08:43:38Z</time>
      </trkpt>
      <trkpt lat="42.90731" lon="2.59582">
        <ele>547.8</ele>
        <time>2021-03-21T08:43:39Z</time>
      </trkpt>
      <trkpt lat="42.90734" lon="2.5958">
        <ele>548.1</ele>
        <time>2021-03-21T08:43:40Z</time>
      </trkpt>
      <trkpt lat="42.90739" lon="2.59577">
        <ele>548.5</ele>
        <time>2021-03-21T08:43:42Z</time>
      </trkpt>
      <trkpt lat="42.90742" lon="2.59574">
        <ele>548.9</ele>
        <time>2021-03-21T08:43:43Z</time>
      </trkpt>
      <trkpt lat="42.90745" lon="2.59571">
        <ele>549.2</ele>
        <time>2021-03-21T08:43:44Z</time>
      </trkpt>
      <trkpt lat="42.90748" lon="2.59569">
        <ele>549.5</ele>
        <time>2021-03-21T08:43:46Z</time>
      </trkpt>
      <trkpt lat="42.90751" lon="2.59566">
        <ele>549.9</ele>
        <time>2021-03-21T08:43:47Z</time>
      </trkpt>
      <trkpt lat="42.90753" lon="2.59562">
        <ele>550.3</ele>
        <time>2021-03-21T08:43:48Z</time>
      </trkpt>
      <trkpt lat="42.90754" lon="2.59558">
        <ele>550.6</ele>
        <time>2021-03-21T08:43:49Z</time>
      </trkpt>
      <trkpt lat="42.90754" lon="2.59553">
        <ele>551</ele>
        <time>2021-03-21T08:43:50Z</time>
      </trkpt>
      <trkpt lat="42.90753" lon="2.59547">
        <ele>551.6</ele>
        <time>2021-03-21T08:43:51Z</time>
      </trkpt>
      <trkpt lat="42.90749" lon="2.5954">
        <ele>552.4</ele>
        <time>2021-03-21T08:43:53Z</time>
      </trkpt>
      <trkpt lat="42.90746" lon="2.59537">
        <ele>552.8</ele>
        <time>2021-03-21T08:43:54Z</time>
      </trkpt>
      <trkpt lat="42.90742" lon="2.59533">
        <ele>553.4</ele>
        <time>2021-03-21T08:43:56Z</time>
      </trkpt>
      <trkpt lat="42.90735" lon="2.59529">
        <ele>554.2</ele>
        <time>2021-03-21T08:43:58Z</time>
      </trkpt>
      <trkpt lat="42.90732" lon="2.59527">
        <ele>554.6</ele>
        <time>2021-03-21T08:43:59Z</time>
      </trkpt>
      <trkpt lat="42.90727" lon="2.59525">
        <ele>555</ele>
        <time>2021-03-21T08:44:01Z</time>
      </trkpt>
      <trkpt lat="42.90723" lon="2.59522">
        <ele>555.4</ele>
        <time>2021-03-21T08:44:02Z</time>
      </trkpt>
      <trkpt lat="42.90719" lon="2.59519">
        <ele>555.8</ele>
        <time>2021-03-21T08:44:04Z</time>
      </trkpt>
      <trkpt lat="42.90716" lon="2.59516">
        <ele>556.1</ele>
        <time>2021-03-21T08:44:05Z</time>
      </trkpt>
      <trkpt lat="42.90712" lon="2.59511">
        <ele>556.5</ele>
        <time>2021-03-21T08:44:07Z</time>
      </trkpt>
      <trkpt lat="42.90709" lon="2.59508">
        <ele>556.8</ele>
        <time>2021-03-21T08:44:08Z</time>
      </trkpt>
      <trkpt lat="42.90706" lon="2.59504">
        <ele>557.2</ele>
        <time>2021-03-21T08:44:09Z</time>
      </trkpt>
      <trkpt lat="42.90703" lon="2.59502">
        <ele>557.4</ele>
        <time>2021-03-21T08:44:10Z</time>
      </trkpt>
      <trkpt lat="42.90701" lon="2.595">
        <ele>557.6</ele>
        <time>2021-03-21T08:44:11Z</time>
      </trkpt>
      <trkpt lat="42.90698" lon="2.59495">
        <ele>558</ele>
        <time>2021-03-21T08:44:13Z</time>
      </trkpt>
      <trkpt lat="42.90694" lon="2.59491">
        <ele>558.3</ele>
        <time>2021-03-21T08:44:15Z</time>
      </trkpt>
      <trkpt lat="42.90692" lon="2.59488">
        <ele>558.5</ele>
        <time>2021-03-21T08:44:16Z</time>
      </trkpt>
      <trkpt lat="42.9069" lon="2.59485">
        <ele>558.7</ele>
        <time>2021-03-21T08:44:17Z</time>
      </trkpt>
      <trkpt lat="42.90689" lon="2.59485">
        <ele>558.8</ele>
        <time>2021-03-21T08:44:19Z</time>
      </trkpt>
      <trkpt lat="42.90689" lon="2.59484">
        <ele>558.9</ele>
        <time>2021-03-21T08:44:21Z</time>
      </trkpt>
      <trkpt lat="42.90689" lon="2.59484">
        <ele>558.9</ele>
        <time>2021-03-21T08:44:22Z</time>
      </trkpt>
      <trkpt lat="42.90689" lon="2.59484">
        <ele>558.9</ele>
        <time>2021-03-21T08:44:23Z</time>
      </trkpt>
      <trkpt lat="42.90688" lon="2.59484">
        <ele>558.9</ele>
        <time>2021-03-21T08:44:25Z</time>
      </trkpt>
      <trkpt lat="42.90688" lon="2.59484">
        <ele>558.9</ele>
        <time>2021-03-21T08:44:26Z</time>
      </trkpt>
      <trkpt lat="42.90688" lon="2.59484">
        <ele>558.9</ele>
        <time>2021-03-21T08:44:27Z</time>
      </trkpt>
      <trkpt lat="42.90679" lon="2.59469">
        <ele>560</ele>
        <time>2021-03-21T08:44:32Z</time>
      </trkpt>
      <trkpt lat="42.90675" lon="2.59461">
        <ele>560.4</ele>
        <time>2021-03-21T08:44:33Z</time>
      </trkpt>
      <trkpt lat="42.90671" lon="2.59452">
        <ele>561</ele>
        <time>2021-03-21T08:44:34Z</time>
      </trkpt>
      <trkpt lat="42.90666" lon="2.59443">
        <ele>561.6</ele>
        <time>2021-03-21T08:44:35Z</time>
      </trkpt>
      <trkpt lat="42.90662" lon="2.59432">
        <ele>562.4</ele>
        <time>2021-03-21T08:44:36Z</time>
      </trkpt>
      <trkpt lat="42.90657" lon="2.59421">
        <ele>562.8</ele>
        <time>2021-03-21T08:44:38Z</time>
      </trkpt>
      <trkpt lat="42.90655" lon="2.59413">
        <ele>562.8</ele>
        <time>2021-03-21T08:44:39Z</time>
      </trkpt>
      <trkpt lat="42.90653" lon="2.59404">
        <ele>562.7</ele>
        <time>2021-03-21T08:44:40Z</time>
      </trkpt>
      <trkpt lat="42.90652" lon="2.59396">
        <ele>562.8</ele>
        <time>2021-03-21T08:44:41Z</time>
      </trkpt>
      <trkpt lat="42.90651" lon="2.5939">
        <ele>563</ele>
        <time>2021-03-21T08:44:42Z</time>
      </trkpt>
      <trkpt lat="42.90651" lon="2.5938">
        <ele>563.2</ele>
        <time>2021-03-21T08:44:44Z</time>
      </trkpt>
      <trkpt lat="42.9065" lon="2.59372">
        <ele>563.4</ele>
        <time>2021-03-21T08:44:45Z</time>
      </trkpt>
      <trkpt lat="42.90651" lon="2.59365">
        <ele>563.4</ele>
        <time>2021-03-21T08:44:46Z</time>
      </trkpt>
      <trkpt lat="42.90652" lon="2.59356">
        <ele>563.4</ele>
        <time>2021-03-21T08:44:47Z</time>
      </trkpt>
      <trkpt lat="42.90652" lon="2.59349">
        <ele>563.4</ele>
        <time>2021-03-21T08:44:48Z</time>
      </trkpt>
      <trkpt lat="42.90654" lon="2.59335">
        <ele>563.2</ele>
        <time>2021-03-21T08:44:50Z</time>
      </trkpt>
      <trkpt lat="42.90658" lon="2.5932">
        <ele>562.9</ele>
        <time>2021-03-21T08:44:52Z</time>
      </trkpt>
      <trkpt lat="42.9066" lon="2.59312">
        <ele>562.7</ele>
        <time>2021-03-21T08:44:53Z</time>
      </trkpt>
      <trkpt lat="42.90665" lon="2.59297">
        <ele>562.5</ele>
        <time>2021-03-21T08:44:55Z</time>
      </trkpt>
      <trkpt lat="42.90667" lon="2.59289">
        <ele>562.4</ele>
        <time>2021-03-21T08:44:56Z</time>
      </trkpt>
      <trkpt lat="42.9067" lon="2.59272">
        <ele>562.3</ele>
        <time>2021-03-21T08:44:58Z</time>
      </trkpt>
      <trkpt lat="42.90671" lon="2.59255">
        <ele>562.2</ele>
        <time>2021-03-21T08:45:00Z</time>
      </trkpt>
      <trkpt lat="42.9067" lon="2.59247">
        <ele>562.2</ele>
        <time>2021-03-21T08:45:01Z</time>
      </trkpt>
      <trkpt lat="42.90665" lon="2.59231">
        <ele>562.2</ele>
        <time>2021-03-21T08:45:03Z</time>
      </trkpt>
      <trkpt lat="42.90662" lon="2.59223">
        <ele>562.1</ele>
        <time>2021-03-21T08:45:04Z</time>
      </trkpt>
      <trkpt lat="42.90658" lon="2.59216">
        <ele>562</ele>
        <time>2021-03-21T08:45:05Z</time>
      </trkpt>
      <trkpt lat="42.90651" lon="2.59201">
        <ele>561.7</ele>
        <time>2021-03-21T08:45:07Z</time>
      </trkpt>
      <trkpt lat="42.90647" lon="2.59194">
        <ele>561.4</ele>
        <time>2021-03-21T08:45:08Z</time>
      </trkpt>
      <trkpt lat="42.90644" lon="2.59185">
        <ele>561.1</ele>
        <time>2021-03-21T08:45:09Z</time>
      </trkpt>
      <trkpt lat="42.90642" lon="2.59176">
        <ele>560.7</ele>
        <time>2021-03-21T08:45:10Z</time>
      </trkpt>
      <trkpt lat="42.90641" lon="2.59157">
        <ele>559.8</ele>
        <time>2021-03-21T08:45:12Z</time>
      </trkpt>
      <trkpt lat="42.90641" lon="2.59146">
        <ele>559.3</ele>
        <time>2021-03-21T08:45:13Z</time>
      </trkpt>
      <trkpt lat="42.90644" lon="2.59125">
        <ele>558.4</ele>
        <time>2021-03-21T08:45:15Z</time>
      </trkpt>
      <trkpt lat="42.90646" lon="2.59104">
        <ele>557.2</ele>
        <time>2021-03-21T08:45:17Z</time>
      </trkpt>
      <trkpt lat="42.90646" lon="2.59093">
        <ele>556.6</ele>
        <time>2021-03-21T08:45:18Z</time>
      </trkpt>
      <trkpt lat="42.90646" lon="2.59081">
        <ele>556</ele>
        <time>2021-03-21T08:45:19Z</time>
      </trkpt>
      <trkpt lat="42.90645" lon="2.59057">
        <ele>554.9</ele>
        <time>2021-03-21T08:45:21Z</time>
      </trkpt>
      <trkpt lat="42.90644" lon="2.59044">
        <ele>554.5</ele>
        <time>2021-03-21T08:45:22Z</time>
      </trkpt>
      <trkpt lat="42.90643" lon="2.59019">
        <ele>553.8</ele>
        <time>2021-03-21T08:45:24Z</time>
      </trkpt>
      <trkpt lat="42.90643" lon="2.59007">
        <ele>553.4</ele>
        <time>2021-03-21T08:45:25Z</time>
      </trkpt>
      <trkpt lat="42.90643" lon="2.58984">
        <ele>553.1</ele>
        <time>2021-03-21T08:45:27Z</time>
      </trkpt>
      <trkpt lat="42.90642" lon="2.58974">
        <ele>552.9</ele>
        <time>2021-03-21T08:45:28Z</time>
      </trkpt>
      <trkpt lat="42.90638" lon="2.58953">
        <ele>552.6</ele>
        <time>2021-03-21T08:45:30Z</time>
      </trkpt>
      <trkpt lat="42.90634" lon="2.58943">
        <ele>552.4</ele>
        <time>2021-03-21T08:45:31Z</time>
      </trkpt>
      <trkpt lat="42.90624" lon="2.58924">
        <ele>551.7</ele>
        <time>2021-03-21T08:45:33Z</time>
      </trkpt>
      <trkpt lat="42.90616" lon="2.58905">
        <ele>550.5</ele>
        <time>2021-03-21T08:45:35Z</time>
      </trkpt>
      <trkpt lat="42.90608" lon="2.58884">
        <ele>548.7</ele>
        <time>2021-03-21T08:45:37Z</time>
      </trkpt>
      <trkpt lat="42.90603" lon="2.58875">
        <ele>547.4</ele>
        <time>2021-03-21T08:45:38Z</time>
      </trkpt>
      <trkpt lat="42.90587" lon="2.58864">
        <ele>545</ele>
        <time>2021-03-21T08:45:40Z</time>
      </trkpt>
      <trkpt lat="42.90569" lon="2.58876">
        <ele>542.7</ele>
        <time>2021-03-21T08:45:42Z</time>
      </trkpt>
      <trkpt lat="42.90559" lon="2.58897">
        <ele>540.5</ele>
        <time>2021-03-21T08:45:44Z</time>
      </trkpt>
      <trkpt lat="42.90548" lon="2.58909">
        <ele>538.6</ele>
        <time>2021-03-21T08:45:46Z</time>
      </trkpt>
      <trkpt lat="42.90533" lon="2.58901">
        <ele>536.1</ele>
        <time>2021-03-21T08:45:48Z</time>
      </trkpt>
      <trkpt lat="42.90525" lon="2.58891">
        <ele>534.5</ele>
        <time>2021-03-21T08:45:49Z</time>
      </trkpt>
      <trkpt lat="42.90517" lon="2.58879">
        <ele>532.9</ele>
        <time>2021-03-21T08:45:50Z</time>
      </trkpt>
      <trkpt lat="42.9051" lon="2.58867">
        <ele>531.5</ele>
        <time>2021-03-21T08:45:51Z</time>
      </trkpt>
      <trkpt lat="42.90503" lon="2.58854">
        <ele>530.2</ele>
        <time>2021-03-21T08:45:52Z</time>
      </trkpt>
      <trkpt lat="42.9049" lon="2.58827">
        <ele>528.1</ele>
        <time>2021-03-21T08:45:54Z</time>
      </trkpt>
      <trkpt lat="42.90478" lon="2.58804">
        <ele>526</ele>
        <time>2021-03-21T08:45:56Z</time>
      </trkpt>
      <trkpt lat="42.90469" lon="2.58784">
        <ele>523.5</ele>
        <time>2021-03-21T08:45:58Z</time>
      </trkpt>
      <trkpt lat="42.90468" lon="2.58763">
        <ele>522.4</ele>
        <time>2021-03-21T08:46:00Z</time>
      </trkpt>
      <trkpt lat="42.90479" lon="2.58739">
        <ele>521.2</ele>
        <time>2021-03-21T08:46:02Z</time>
      </trkpt>
      <trkpt lat="42.90486" lon="2.58727">
        <ele>520.6</ele>
        <time>2021-03-21T08:46:03Z</time>
      </trkpt>
      <trkpt lat="42.90493" lon="2.58714">
        <ele>519.9</ele>
        <time>2021-03-21T08:46:04Z</time>
      </trkpt>
      <trkpt lat="42.90508" lon="2.58688">
        <ele>518.5</ele>
        <time>2021-03-21T08:46:06Z</time>
      </trkpt>
      <trkpt lat="42.90526" lon="2.58668">
        <ele>517.4</ele>
        <time>2021-03-21T08:46:08Z</time>
      </trkpt>
      <trkpt lat="42.90536" lon="2.58661">
        <ele>516.9</ele>
        <time>2021-03-21T08:46:09Z</time>
      </trkpt>
      <trkpt lat="42.90556" lon="2.58659">
        <ele>516.5</ele>
        <time>2021-03-21T08:46:11Z</time>
      </trkpt>
      <trkpt lat="42.90575" lon="2.58672">
        <ele>516.6</ele>
        <time>2021-03-21T08:46:13Z</time>
      </trkpt>
      <trkpt lat="42.90581" lon="2.58674">
        <ele>516.3</ele>
        <time>2021-03-21T08:46:14Z</time>
      </trkpt>
      <trkpt lat="42.90589" lon="2.58661">
        <ele>515.2</ele>
        <time>2021-03-21T08:46:16Z</time>
      </trkpt>
      <trkpt lat="42.90591" lon="2.5865">
        <ele>514.4</ele>
        <time>2021-03-21T08:46:17Z</time>
      </trkpt>
      <trkpt lat="42.90594" lon="2.58628">
        <ele>512.7</ele>
        <time>2021-03-21T08:46:19Z</time>
      </trkpt>
      <trkpt lat="42.90597" lon="2.58617">
        <ele>511.8</ele>
        <time>2021-03-21T08:46:20Z</time>
      </trkpt>
      <trkpt lat="42.90601" lon="2.58606">
        <ele>511</ele>
        <time>2021-03-21T08:46:21Z</time>
      </trkpt>
      <trkpt lat="42.90605" lon="2.58595">
        <ele>510.3</ele>
        <time>2021-03-21T08:46:22Z</time>
      </trkpt>
      <trkpt lat="42.90617" lon="2.58574">
        <ele>508.8</ele>
        <time>2021-03-21T08:46:24Z</time>
      </trkpt>
      <trkpt lat="42.90623" lon="2.58564">
        <ele>508</ele>
        <time>2021-03-21T08:46:25Z</time>
      </trkpt>
      <trkpt lat="42.90628" lon="2.5854">
        <ele>505.9</ele>
        <time>2021-03-21T08:46:27Z</time>
      </trkpt>
      <trkpt lat="42.90626" lon="2.58527">
        <ele>504.4</ele>
        <time>2021-03-21T08:46:28Z</time>
      </trkpt>
      <trkpt lat="42.90618" lon="2.585">
        <ele>500.8</ele>
        <time>2021-03-21T08:46:30Z</time>
      </trkpt>
      <trkpt lat="42.90614" lon="2.58487">
        <ele>499</ele>
        <time>2021-03-21T08:46:31Z</time>
      </trkpt>
      <trkpt lat="42.90607" lon="2.58462">
        <ele>495.6</ele>
        <time>2021-03-21T08:46:33Z</time>
      </trkpt>
      <trkpt lat="42.9061" lon="2.58438">
        <ele>492.8</ele>
        <time>2021-03-21T08:46:35Z</time>
      </trkpt>
      <trkpt lat="42.90617" lon="2.58427">
        <ele>491.5</ele>
        <time>2021-03-21T08:46:36Z</time>
      </trkpt>
      <trkpt lat="42.90637" lon="2.58413">
        <ele>489.7</ele>
        <time>2021-03-21T08:46:38Z</time>
      </trkpt>
      <trkpt lat="42.90647" lon="2.58408">
        <ele>489.1</ele>
        <time>2021-03-21T08:46:39Z</time>
      </trkpt>
      <trkpt lat="42.90665" lon="2.58398">
        <ele>488.3</ele>
        <time>2021-03-21T08:46:41Z</time>
      </trkpt>
      <trkpt lat="42.90678" lon="2.58386">
        <ele>487.6</ele>
        <time>2021-03-21T08:46:43Z</time>
      </trkpt>
      <trkpt lat="42.90678" lon="2.58368">
        <ele>486.9</ele>
        <time>2021-03-21T08:46:45Z</time>
      </trkpt>
      <trkpt lat="42.90671" lon="2.58362">
        <ele>486.4</ele>
        <time>2021-03-21T08:46:46Z</time>
      </trkpt>
      <trkpt lat="42.90653" lon="2.58364">
        <ele>485.1</ele>
        <time>2021-03-21T08:46:48Z</time>
      </trkpt>
      <trkpt lat="42.90645" lon="2.58369">
        <ele>484.4</ele>
        <time>2021-03-21T08:46:49Z</time>
      </trkpt>
      <trkpt lat="42.90637" lon="2.58374">
        <ele>483.8</ele>
        <time>2021-03-21T08:46:50Z</time>
      </trkpt>
      <trkpt lat="42.90621" lon="2.58381">
        <ele>483</ele>
        <time>2021-03-21T08:46:52Z</time>
      </trkpt>
      <trkpt lat="42.90613" lon="2.58383">
        <ele>482.8</ele>
        <time>2021-03-21T08:46:53Z</time>
      </trkpt>
      <trkpt lat="42.90597" lon="2.58386">
        <ele>482.9</ele>
        <time>2021-03-21T08:46:55Z</time>
      </trkpt>
      <trkpt lat="42.90589" lon="2.58387">
        <ele>483.2</ele>
        <time>2021-03-21T08:46:56Z</time>
      </trkpt>
      <trkpt lat="42.90582" lon="2.58388">
        <ele>483.6</ele>
        <time>2021-03-21T08:46:57Z</time>
      </trkpt>
      <trkpt lat="42.90574" lon="2.58389">
        <ele>484.1</ele>
        <time>2021-03-21T08:46:58Z</time>
      </trkpt>
      <trkpt lat="42.9056" lon="2.5839">
        <ele>485.5</ele>
        <time>2021-03-21T08:47:00Z</time>
      </trkpt>
      <trkpt lat="42.90546" lon="2.58391">
        <ele>486.8</ele>
        <time>2021-03-21T08:47:02Z</time>
      </trkpt>
      <trkpt lat="42.9054" lon="2.58391">
        <ele>487.4</ele>
        <time>2021-03-21T08:47:03Z</time>
      </trkpt>
      <trkpt lat="42.9053" lon="2.58391">
        <ele>488.3</ele>
        <time>2021-03-21T08:47:05Z</time>
      </trkpt>
      <trkpt lat="42.90521" lon="2.58389">
        <ele>489</ele>
        <time>2021-03-21T08:47:07Z</time>
      </trkpt>
      <trkpt lat="42.90512" lon="2.58387">
        <ele>489.4</ele>
        <time>2021-03-21T08:47:09Z</time>
      </trkpt>
      <trkpt lat="42.90503" lon="2.58384">
        <ele>489.4</ele>
        <time>2021-03-21T08:47:11Z</time>
      </trkpt>
      <trkpt lat="42.90498" lon="2.58381">
        <ele>489.3</ele>
        <time>2021-03-21T08:47:12Z</time>
      </trkpt>
      <trkpt lat="42.9049" lon="2.58372">
        <ele>488.5</ele>
        <time>2021-03-21T08:47:14Z</time>
      </trkpt>
      <trkpt lat="42.90482" lon="2.58355">
        <ele>487.3</ele>
        <time>2021-03-21T08:47:16Z</time>
      </trkpt>
      <trkpt lat="42.90478" lon="2.58344">
        <ele>486.7</ele>
        <time>2021-03-21T08:47:17Z</time>
      </trkpt>
      <trkpt lat="42.90475" lon="2.58334">
        <ele>486</ele>
        <time>2021-03-21T08:47:18Z</time>
      </trkpt>
      <trkpt lat="42.90472" lon="2.58323">
        <ele>485.3</ele>
        <time>2021-03-21T08:47:19Z</time>
      </trkpt>
      <trkpt lat="42.90466" lon="2.58301">
        <ele>484</ele>
        <time>2021-03-21T08:47:21Z</time>
      </trkpt>
      <trkpt lat="42.90463" lon="2.58289">
        <ele>483.4</ele>
        <time>2021-03-21T08:47:22Z</time>
      </trkpt>
      <trkpt lat="42.90459" lon="2.58266">
        <ele>482.1</ele>
        <time>2021-03-21T08:47:24Z</time>
      </trkpt>
      <trkpt lat="42.90458" lon="2.58243">
        <ele>480.8</ele>
        <time>2021-03-21T08:47:26Z</time>
      </trkpt>
      <trkpt lat="42.90458" lon="2.58231">
        <ele>480.2</ele>
        <time>2021-03-21T08:47:27Z</time>
      </trkpt>
      <trkpt lat="42.9046" lon="2.58209">
        <ele>479.1</ele>
        <time>2021-03-21T08:47:29Z</time>
      </trkpt>
      <trkpt lat="42.90461" lon="2.58188">
        <ele>478</ele>
        <time>2021-03-21T08:47:31Z</time>
      </trkpt>
      <trkpt lat="42.90461" lon="2.58178">
        <ele>477.5</ele>
        <time>2021-03-21T08:47:32Z</time>
      </trkpt>
      <trkpt lat="42.90463" lon="2.58159">
        <ele>476.5</ele>
        <time>2021-03-21T08:47:34Z</time>
      </trkpt>
      <trkpt lat="42.90463" lon="2.58149">
        <ele>476</ele>
        <time>2021-03-21T08:47:35Z</time>
      </trkpt>
      <trkpt lat="42.90464" lon="2.58128">
        <ele>474.9</ele>
        <time>2021-03-21T08:47:37Z</time>
      </trkpt>
      <trkpt lat="42.90468" lon="2.58107">
        <ele>473.9</ele>
        <time>2021-03-21T08:47:39Z</time>
      </trkpt>
      <trkpt lat="42.90471" lon="2.58096">
        <ele>473.4</ele>
        <time>2021-03-21T08:47:40Z</time>
      </trkpt>
      <trkpt lat="42.90475" lon="2.58074">
        <ele>472.3</ele>
        <time>2021-03-21T08:47:42Z</time>
      </trkpt>
      <trkpt lat="42.90477" lon="2.58062">
        <ele>471.8</ele>
        <time>2021-03-21T08:47:43Z</time>
      </trkpt>
      <trkpt lat="42.9048" lon="2.58037">
        <ele>470.7</ele>
        <time>2021-03-21T08:47:45Z</time>
      </trkpt>
      <trkpt lat="42.9048" lon="2.58024">
        <ele>470.2</ele>
        <time>2021-03-21T08:47:46Z</time>
      </trkpt>
      <trkpt lat="42.90481" lon="2.57997">
        <ele>468.9</ele>
        <time>2021-03-21T08:47:48Z</time>
      </trkpt>
      <trkpt lat="42.90484" lon="2.5797">
        <ele>467.9</ele>
        <time>2021-03-21T08:47:50Z</time>
      </trkpt>
      <trkpt lat="42.90486" lon="2.57957">
        <ele>467.4</ele>
        <time>2021-03-21T08:47:51Z</time>
      </trkpt>
      <trkpt lat="42.90491" lon="2.5793">
        <ele>466.3</ele>
        <time>2021-03-21T08:47:53Z</time>
      </trkpt>
      <trkpt lat="42.90492" lon="2.57916">
        <ele>465.8</ele>
        <time>2021-03-21T08:47:54Z</time>
      </trkpt>
      <trkpt lat="42.90486" lon="2.57891">
        <ele>465.1</ele>
        <time>2021-03-21T08:47:56Z</time>
      </trkpt>
      <trkpt lat="42.90469" lon="2.57879">
        <ele>463.8</ele>
        <time>2021-03-21T08:47:58Z</time>
      </trkpt>
      <trkpt lat="42.90459" lon="2.57879">
        <ele>463</ele>
        <time>2021-03-21T08:47:59Z</time>
      </trkpt>
      <trkpt lat="42.9044" lon="2.57879">
        <ele>461.7</ele>
        <time>2021-03-21T08:48:01Z</time>
      </trkpt>
      <trkpt lat="42.90424" lon="2.5787">
        <ele>460.7</ele>
        <time>2021-03-21T08:48:03Z</time>
      </trkpt>
      <trkpt lat="42.90415" lon="2.5785">
        <ele>459.7</ele>
        <time>2021-03-21T08:48:05Z</time>
      </trkpt>
      <trkpt lat="42.9041" lon="2.57827">
        <ele>458.8</ele>
        <time>2021-03-21T08:48:07Z</time>
      </trkpt>
      <trkpt lat="42.90407" lon="2.57816">
        <ele>458.3</ele>
        <time>2021-03-21T08:48:08Z</time>
      </trkpt>
      <trkpt lat="42.90404" lon="2.57805">
        <ele>457.9</ele>
        <time>2021-03-21T08:48:09Z</time>
      </trkpt>
      <trkpt lat="42.90396" lon="2.57784">
        <ele>457</ele>
        <time>2021-03-21T08:48:11Z</time>
      </trkpt>
      <trkpt lat="42.90391" lon="2.57774">
        <ele>456.6</ele>
        <time>2021-03-21T08:48:12Z</time>
      </trkpt>
      <trkpt lat="42.90387" lon="2.57763">
        <ele>456.2</ele>
        <time>2021-03-21T08:48:13Z</time>
      </trkpt>
      <trkpt lat="42.9038" lon="2.57741">
        <ele>455.4</ele>
        <time>2021-03-21T08:48:15Z</time>
      </trkpt>
      <trkpt lat="42.90377" lon="2.57729">
        <ele>455.1</ele>
        <time>2021-03-21T08:48:16Z</time>
      </trkpt>
      <trkpt lat="42.90373" lon="2.57705">
        <ele>454.5</ele>
        <time>2021-03-21T08:48:18Z</time>
      </trkpt>
      <trkpt lat="42.90371" lon="2.57692">
        <ele>454.1</ele>
        <time>2021-03-21T08:48:19Z</time>
      </trkpt>
      <trkpt lat="42.90367" lon="2.57667">
        <ele>453.3</ele>
        <time>2021-03-21T08:48:21Z</time>
      </trkpt>
      <trkpt lat="42.90365" lon="2.57654">
        <ele>452.9</ele>
        <time>2021-03-21T08:48:22Z</time>
      </trkpt>
      <trkpt lat="42.90365" lon="2.57629">
        <ele>452</ele>
        <time>2021-03-21T08:48:24Z</time>
      </trkpt>
      <trkpt lat="42.90365" lon="2.57616">
        <ele>451.7</ele>
        <time>2021-03-21T08:48:25Z</time>
      </trkpt>
      <trkpt lat="42.90369" lon="2.57591">
        <ele>451.1</ele>
        <time>2021-03-21T08:48:27Z</time>
      </trkpt>
      <trkpt lat="42.90369" lon="2.57566">
        <ele>450.5</ele>
        <time>2021-03-21T08:48:29Z</time>
      </trkpt>
      <trkpt lat="42.90364" lon="2.57555">
        <ele>450.1</ele>
        <time>2021-03-21T08:48:30Z</time>
      </trkpt>
      <trkpt lat="42.90356" lon="2.57547">
        <ele>449.5</ele>
        <time>2021-03-21T08:48:31Z</time>
      </trkpt>
      <trkpt lat="42.90337" lon="2.57538">
        <ele>448</ele>
        <time>2021-03-21T08:48:33Z</time>
      </trkpt>
      <trkpt lat="42.90328" lon="2.57533">
        <ele>447.3</ele>
        <time>2021-03-21T08:48:34Z</time>
      </trkpt>
      <trkpt lat="42.90312" lon="2.57517">
        <ele>445.6</ele>
        <time>2021-03-21T08:48:36Z</time>
      </trkpt>
      <trkpt lat="42.903" lon="2.57494">
        <ele>444</ele>
        <time>2021-03-21T08:48:38Z</time>
      </trkpt>
      <trkpt lat="42.90296" lon="2.5748">
        <ele>443.2</ele>
        <time>2021-03-21T08:48:39Z</time>
      </trkpt>
      <trkpt lat="42.90292" lon="2.57451">
        <ele>441.8</ele>
        <time>2021-03-21T08:48:41Z</time>
      </trkpt>
      <trkpt lat="42.90291" lon="2.57422">
        <ele>440.7</ele>
        <time>2021-03-21T08:48:43Z</time>
      </trkpt>
      <trkpt lat="42.90291" lon="2.57396">
        <ele>439.3</ele>
        <time>2021-03-21T08:48:45Z</time>
      </trkpt>
      <trkpt lat="42.90283" lon="2.57373">
        <ele>438.1</ele>
        <time>2021-03-21T08:48:47Z</time>
      </trkpt>
      <trkpt lat="42.90277" lon="2.57363">
        <ele>437.6</ele>
        <time>2021-03-21T08:48:48Z</time>
      </trkpt>
      <trkpt lat="42.90272" lon="2.57352">
        <ele>437</ele>
        <time>2021-03-21T08:48:49Z</time>
      </trkpt>
      <trkpt lat="42.90268" lon="2.5734">
        <ele>436.5</ele>
        <time>2021-03-21T08:48:50Z</time>
      </trkpt>
      <trkpt lat="42.90265" lon="2.57328">
        <ele>436</ele>
        <time>2021-03-21T08:48:51Z</time>
      </trkpt>
      <trkpt lat="42.90263" lon="2.57304">
        <ele>435.2</ele>
        <time>2021-03-21T08:48:53Z</time>
      </trkpt>
      <trkpt lat="42.90263" lon="2.57292">
        <ele>434.9</ele>
        <time>2021-03-21T08:48:54Z</time>
      </trkpt>
      <trkpt lat="42.90265" lon="2.5728">
        <ele>434.7</ele>
        <time>2021-03-21T08:48:55Z</time>
      </trkpt>
      <trkpt lat="42.90273" lon="2.57261">
        <ele>434.5</ele>
        <time>2021-03-21T08:48:57Z</time>
      </trkpt>
      <trkpt lat="42.90284" lon="2.57244">
        <ele>434.3</ele>
        <time>2021-03-21T08:48:59Z</time>
      </trkpt>
      <trkpt lat="42.90289" lon="2.57237">
        <ele>434.1</ele>
        <time>2021-03-21T08:49:00Z</time>
      </trkpt>
      <trkpt lat="42.90297" lon="2.57218">
        <ele>433.7</ele>
        <time>2021-03-21T08:49:02Z</time>
      </trkpt>
      <trkpt lat="42.90298" lon="2.57196">
        <ele>433.1</ele>
        <time>2021-03-21T08:49:04Z</time>
      </trkpt>
      <trkpt lat="42.90298" lon="2.57185">
        <ele>432.7</ele>
        <time>2021-03-21T08:49:05Z</time>
      </trkpt>
      <trkpt lat="42.90296" lon="2.57161">
        <ele>431.9</ele>
        <time>2021-03-21T08:49:07Z</time>
      </trkpt>
      <trkpt lat="42.90296" lon="2.57148">
        <ele>431.5</ele>
        <time>2021-03-21T08:49:08Z</time>
      </trkpt>
      <trkpt lat="42.90297" lon="2.57136">
        <ele>431.1</ele>
        <time>2021-03-21T08:49:09Z</time>
      </trkpt>
      <trkpt lat="42.90295" lon="2.57113">
        <ele>430.2</ele>
        <time>2021-03-21T08:49:11Z</time>
      </trkpt>
      <trkpt lat="42.90291" lon="2.57103">
        <ele>429.7</ele>
        <time>2021-03-21T08:49:12Z</time>
      </trkpt>
      <trkpt lat="42.90285" lon="2.57093">
        <ele>429.2</ele>
        <time>2021-03-21T08:49:13Z</time>
      </trkpt>
      <trkpt lat="42.90271" lon="2.57078">
        <ele>428.4</ele>
        <time>2021-03-21T08:49:15Z</time>
      </trkpt>
      <trkpt lat="42.90264" lon="2.57071">
        <ele>428</ele>
        <time>2021-03-21T08:49:16Z</time>
      </trkpt>
      <trkpt lat="42.9025" lon="2.57055">
        <ele>427.2</ele>
        <time>2021-03-21T08:49:18Z</time>
      </trkpt>
      <trkpt lat="42.90244" lon="2.57046">
        <ele>426.8</ele>
        <time>2021-03-21T08:49:19Z</time>
      </trkpt>
      <trkpt lat="42.9023" lon="2.57032">
        <ele>426</ele>
        <time>2021-03-21T08:49:21Z</time>
      </trkpt>
      <trkpt lat="42.90221" lon="2.57027">
        <ele>425.5</ele>
        <time>2021-03-21T08:49:22Z</time>
      </trkpt>
      <trkpt lat="42.90211" lon="2.57026">
        <ele>425.1</ele>
        <time>2021-03-21T08:49:23Z</time>
      </trkpt>
      <trkpt lat="42.90193" lon="2.57027">
        <ele>424.4</ele>
        <time>2021-03-21T08:49:25Z</time>
      </trkpt>
      <trkpt lat="42.90177" lon="2.57029">
        <ele>423.6</ele>
        <time>2021-03-21T08:49:27Z</time>
      </trkpt>
      <trkpt lat="42.90168" lon="2.57031">
        <ele>423.2</ele>
        <time>2021-03-21T08:49:28Z</time>
      </trkpt>
      <trkpt lat="42.90151" lon="2.57037">
        <ele>422.4</ele>
        <time>2021-03-21T08:49:30Z</time>
      </trkpt>
      <trkpt lat="42.90134" lon="2.5704">
        <ele>421.5</ele>
        <time>2021-03-21T08:49:32Z</time>
      </trkpt>
      <trkpt lat="42.90117" lon="2.57041">
        <ele>420.7</ele>
        <time>2021-03-21T08:49:34Z</time>
      </trkpt>
      <trkpt lat="42.90109" lon="2.5704">
        <ele>420.3</ele>
        <time>2021-03-21T08:49:35Z</time>
      </trkpt>
      <trkpt lat="42.90092" lon="2.57036">
        <ele>419.3</ele>
        <time>2021-03-21T08:49:37Z</time>
      </trkpt>
      <trkpt lat="42.90083" lon="2.57035">
        <ele>418.7</ele>
        <time>2021-03-21T08:49:38Z</time>
      </trkpt>
      <trkpt lat="42.90065" lon="2.57031">
        <ele>418</ele>
        <time>2021-03-21T08:49:40Z</time>
      </trkpt>
      <trkpt lat="42.90047" lon="2.57029">
        <ele>417.5</ele>
        <time>2021-03-21T08:49:42Z</time>
      </trkpt>
      <trkpt lat="42.90029" lon="2.57027">
        <ele>417.2</ele>
        <time>2021-03-21T08:49:44Z</time>
      </trkpt>
      <trkpt lat="42.90014" lon="2.57026">
        <ele>417.1</ele>
        <time>2021-03-21T08:49:46Z</time>
      </trkpt>
      <trkpt lat="42.90007" lon="2.57026">
        <ele>417</ele>
        <time>2021-03-21T08:49:47Z</time>
      </trkpt>
      <trkpt lat="42.89994" lon="2.57032">
        <ele>416.9</ele>
        <time>2021-03-21T08:49:49Z</time>
      </trkpt>
      <trkpt lat="42.89989" lon="2.57039">
        <ele>416.8</ele>
        <time>2021-03-21T08:49:50Z</time>
      </trkpt>
      <trkpt lat="42.89985" lon="2.57048">
        <ele>416.7</ele>
        <time>2021-03-21T08:49:51Z</time>
      </trkpt>
      <trkpt lat="42.89981" lon="2.57068">
        <ele>416.6</ele>
        <time>2021-03-21T08:49:53Z</time>
      </trkpt>
      <trkpt lat="42.89979" lon="2.57089">
        <ele>416.5</ele>
        <time>2021-03-21T08:49:55Z</time>
      </trkpt>
      <trkpt lat="42.89977" lon="2.57112">
        <ele>416.5</ele>
        <time>2021-03-21T08:49:57Z</time>
      </trkpt>
      <trkpt lat="42.89975" lon="2.57122">
        <ele>416.5</ele>
        <time>2021-03-21T08:49:58Z</time>
      </trkpt>
      <trkpt lat="42.89973" lon="2.57133">
        <ele>416.5</ele>
        <time>2021-03-21T08:49:59Z</time>
      </trkpt>
      <trkpt lat="42.89968" lon="2.57153">
        <ele>416.4</ele>
        <time>2021-03-21T08:50:01Z</time>
      </trkpt>
      <trkpt lat="42.89965" lon="2.57162">
        <ele>416.4</ele>
        <time>2021-03-21T08:50:02Z</time>
      </trkpt>
      <trkpt lat="42.89963" lon="2.57172">
        <ele>416.4</ele>
        <time>2021-03-21T08:50:03Z</time>
      </trkpt>
      <trkpt lat="42.89957" lon="2.57189">
        <ele>416.4</ele>
        <time>2021-03-21T08:50:05Z</time>
      </trkpt>
      <trkpt lat="42.89949" lon="2.57206">
        <ele>416.3</ele>
        <time>2021-03-21T08:50:07Z</time>
      </trkpt>
      <trkpt lat="42.89938" lon="2.57221">
        <ele>415.9</ele>
        <time>2021-03-21T08:50:09Z</time>
      </trkpt>
      <trkpt lat="42.89931" lon="2.57229">
        <ele>415.7</ele>
        <time>2021-03-21T08:50:10Z</time>
      </trkpt>
      <trkpt lat="42.89924" lon="2.57236">
        <ele>415.4</ele>
        <time>2021-03-21T08:50:11Z</time>
      </trkpt>
      <trkpt lat="42.8991" lon="2.57249">
        <ele>415</ele>
        <time>2021-03-21T08:50:13Z</time>
      </trkpt>
      <trkpt lat="42.89894" lon="2.57261">
        <ele>414.4</ele>
        <time>2021-03-21T08:50:15Z</time>
      </trkpt>
      <trkpt lat="42.89886" lon="2.57265">
        <ele>414.2</ele>
        <time>2021-03-21T08:50:16Z</time>
      </trkpt>
      <trkpt lat="42.89868" lon="2.57268">
        <ele>413.7</ele>
        <time>2021-03-21T08:50:18Z</time>
      </trkpt>
      <trkpt lat="42.89848" lon="2.57264">
        <ele>413.2</ele>
        <time>2021-03-21T08:50:20Z</time>
      </trkpt>
      <trkpt lat="42.89829" lon="2.57255">
        <ele>412.7</ele>
        <time>2021-03-21T08:50:22Z</time>
      </trkpt>
      <trkpt lat="42.89819" lon="2.57251">
        <ele>412.5</ele>
        <time>2021-03-21T08:50:23Z</time>
      </trkpt>
      <trkpt lat="42.89802" lon="2.57242">
        <ele>412.2</ele>
        <time>2021-03-21T08:50:25Z</time>
      </trkpt>
      <trkpt lat="42.89784" lon="2.57234">
        <ele>411.9</ele>
        <time>2021-03-21T08:50:27Z</time>
      </trkpt>
      <trkpt lat="42.89767" lon="2.57229">
        <ele>411.5</ele>
        <time>2021-03-21T08:50:29Z</time>
      </trkpt>
      <trkpt lat="42.89758" lon="2.57227">
        <ele>411.2</ele>
        <time>2021-03-21T08:50:30Z</time>
      </trkpt>
      <trkpt lat="42.89741" lon="2.57225">
        <ele>410.5</ele>
        <time>2021-03-21T08:50:32Z</time>
      </trkpt>
      <trkpt lat="42.89724" lon="2.57225">
        <ele>409.8</ele>
        <time>2021-03-21T08:50:34Z</time>
      </trkpt>
      <trkpt lat="42.89715" lon="2.57224">
        <ele>409.4</ele>
        <time>2021-03-21T08:50:35Z</time>
      </trkpt>
      <trkpt lat="42.89708" lon="2.57219">
        <ele>409</ele>
        <time>2021-03-21T08:50:36Z</time>
      </trkpt>
      <trkpt lat="42.89701" lon="2.57211">
        <ele>408.6</ele>
        <time>2021-03-21T08:50:37Z</time>
      </trkpt>
      <trkpt lat="42.89699" lon="2.57189">
        <ele>407.8</ele>
        <time>2021-03-21T08:50:39Z</time>
      </trkpt>
      <trkpt lat="42.89712" lon="2.5717">
        <ele>406.5</ele>
        <time>2021-03-21T08:50:41Z</time>
      </trkpt>
      <trkpt lat="42.89722" lon="2.57165">
        <ele>405.9</ele>
        <time>2021-03-21T08:50:42Z</time>
      </trkpt>
      <trkpt lat="42.89733" lon="2.57163">
        <ele>405.2</ele>
        <time>2021-03-21T08:50:43Z</time>
      </trkpt>
      <trkpt lat="42.89753" lon="2.57154">
        <ele>404</ele>
        <time>2021-03-21T08:50:45Z</time>
      </trkpt>
      <trkpt lat="42.89761" lon="2.57146">
        <ele>403.5</ele>
        <time>2021-03-21T08:50:46Z</time>
      </trkpt>
      <trkpt lat="42.89768" lon="2.57136">
        <ele>402.9</ele>
        <time>2021-03-21T08:50:47Z</time>
      </trkpt>
      <trkpt lat="42.89775" lon="2.57109">
        <ele>401.8</ele>
        <time>2021-03-21T08:50:49Z</time>
      </trkpt>
      <trkpt lat="42.89772" lon="2.57079">
        <ele>400.6</ele>
        <time>2021-03-21T08:50:51Z</time>
      </trkpt>
      <trkpt lat="42.8977" lon="2.57065">
        <ele>400</ele>
        <time>2021-03-21T08:50:52Z</time>
      </trkpt>
      <trkpt lat="42.89766" lon="2.5704">
        <ele>398.9</ele>
        <time>2021-03-21T08:50:54Z</time>
      </trkpt>
      <trkpt lat="42.89765" lon="2.57015">
        <ele>397.8</ele>
        <time>2021-03-21T08:50:56Z</time>
      </trkpt>
      <trkpt lat="42.89766" lon="2.57003">
        <ele>397.2</ele>
        <time>2021-03-21T08:50:57Z</time>
      </trkpt>
      <trkpt lat="42.89765" lon="2.56978">
        <ele>396.1</ele>
        <time>2021-03-21T08:50:59Z</time>
      </trkpt>
      <trkpt lat="42.89763" lon="2.56952">
        <ele>395</ele>
        <time>2021-03-21T08:51:01Z</time>
      </trkpt>
      <trkpt lat="42.89759" lon="2.56927">
        <ele>393.9</ele>
        <time>2021-03-21T08:51:03Z</time>
      </trkpt>
      <trkpt lat="42.89756" lon="2.56915">
        <ele>393.4</ele>
        <time>2021-03-21T08:51:04Z</time>
      </trkpt>
      <trkpt lat="42.89754" lon="2.56903">
        <ele>393</ele>
        <time>2021-03-21T08:51:05Z</time>
      </trkpt>
      <trkpt lat="42.89751" lon="2.56878">
        <ele>391.9</ele>
        <time>2021-03-21T08:51:07Z</time>
      </trkpt>
      <trkpt lat="42.89749" lon="2.56865">
        <ele>391.3</ele>
        <time>2021-03-21T08:51:08Z</time>
      </trkpt>
      <trkpt lat="42.89748" lon="2.5684">
        <ele>390.3</ele>
        <time>2021-03-21T08:51:10Z</time>
      </trkpt>
      <trkpt lat="42.89748" lon="2.56816">
        <ele>389.4</ele>
        <time>2021-03-21T08:51:12Z</time>
      </trkpt>
      <trkpt lat="42.89747" lon="2.56803">
        <ele>389</ele>
        <time>2021-03-21T08:51:13Z</time>
      </trkpt>
      <trkpt lat="42.8974" lon="2.5678">
        <ele>388.3</ele>
        <time>2021-03-21T08:51:15Z</time>
      </trkpt>
      <trkpt lat="42.89729" lon="2.5676">
        <ele>387.9</ele>
        <time>2021-03-21T08:51:17Z</time>
      </trkpt>
      <trkpt lat="42.89723" lon="2.56739">
        <ele>387.8</ele>
        <time>2021-03-21T08:51:19Z</time>
      </trkpt>
      <trkpt lat="42.89722" lon="2.56717">
        <ele>387.8</ele>
        <time>2021-03-21T08:51:21Z</time>
      </trkpt>
      <trkpt lat="42.89724" lon="2.56695">
        <ele>387.9</ele>
        <time>2021-03-21T08:51:23Z</time>
      </trkpt>
      <trkpt lat="42.89728" lon="2.56674">
        <ele>388.2</ele>
        <time>2021-03-21T08:51:25Z</time>
      </trkpt>
      <trkpt lat="42.89733" lon="2.56656">
        <ele>388.3</ele>
        <time>2021-03-21T08:51:27Z</time>
      </trkpt>
      <trkpt lat="42.89736" lon="2.56646">
        <ele>388.5</ele>
        <time>2021-03-21T08:51:28Z</time>
      </trkpt>
      <trkpt lat="42.89737" lon="2.56637">
        <ele>388.6</ele>
        <time>2021-03-21T08:51:29Z</time>
      </trkpt>
      <trkpt lat="42.89732" lon="2.56619">
        <ele>388.8</ele>
        <time>2021-03-21T08:51:31Z</time>
      </trkpt>
      <trkpt lat="42.89725" lon="2.56613">
        <ele>388.9</ele>
        <time>2021-03-21T08:51:32Z</time>
      </trkpt>
      <trkpt lat="42.89708" lon="2.56613">
        <ele>388.8</ele>
        <time>2021-03-21T08:51:34Z</time>
      </trkpt>
      <trkpt lat="42.89694" lon="2.56615">
        <ele>388.7</ele>
        <time>2021-03-21T08:51:36Z</time>
      </trkpt>
      <trkpt lat="42.89681" lon="2.56605">
        <ele>388.7</ele>
        <time>2021-03-21T08:51:38Z</time>
      </trkpt>
      <trkpt lat="42.89676" lon="2.56596">
        <ele>388.7</ele>
        <time>2021-03-21T08:51:39Z</time>
      </trkpt>
      <trkpt lat="42.89666" lon="2.56576">
        <ele>388.7</ele>
        <time>2021-03-21T08:51:41Z</time>
      </trkpt>
      <trkpt lat="42.89656" lon="2.56557">
        <ele>388.9</ele>
        <time>2021-03-21T08:51:43Z</time>
      </trkpt>
      <trkpt lat="42.8965" lon="2.56549">
        <ele>389</ele>
        <time>2021-03-21T08:51:44Z</time>
      </trkpt>
      <trkpt lat="42.89635" lon="2.56543">
        <ele>389.2</ele>
        <time>2021-03-21T08:51:46Z</time>
      </trkpt>
      <trkpt lat="42.89626" lon="2.56544">
        <ele>389.3</ele>
        <time>2021-03-21T08:51:47Z</time>
      </trkpt>
      <trkpt lat="42.8961" lon="2.56552">
        <ele>389.3</ele>
        <time>2021-03-21T08:51:49Z</time>
      </trkpt>
      <trkpt lat="42.89594" lon="2.56558">
        <ele>389.3</ele>
        <time>2021-03-21T08:51:51Z</time>
      </trkpt>
      <trkpt lat="42.8958" lon="2.56551">
        <ele>389.3</ele>
        <time>2021-03-21T08:51:53Z</time>
      </trkpt>
      <trkpt lat="42.89576" lon="2.56541">
        <ele>389.4</ele>
        <time>2021-03-21T08:51:54Z</time>
      </trkpt>
      <trkpt lat="42.89573" lon="2.5653">
        <ele>389.4</ele>
        <time>2021-03-21T08:51:55Z</time>
      </trkpt>
      <trkpt lat="42.8957" lon="2.5651">
        <ele>389.5</ele>
        <time>2021-03-21T08:51:57Z</time>
      </trkpt>
      <trkpt lat="42.89566" lon="2.56489">
        <ele>389.6</ele>
        <time>2021-03-21T08:51:59Z</time>
      </trkpt>
      <trkpt lat="42.89564" lon="2.56479">
        <ele>389.6</ele>
        <time>2021-03-21T08:52:00Z</time>
      </trkpt>
      <trkpt lat="42.89559" lon="2.56458">
        <ele>389.7</ele>
        <time>2021-03-21T08:52:02Z</time>
      </trkpt>
      <trkpt lat="42.89555" lon="2.56449">
        <ele>389.8</ele>
        <time>2021-03-21T08:52:03Z</time>
      </trkpt>
      <trkpt lat="42.89543" lon="2.56434">
        <ele>389.9</ele>
        <time>2021-03-21T08:52:05Z</time>
      </trkpt>
      <trkpt lat="42.89536" lon="2.56429">
        <ele>389.9</ele>
        <time>2021-03-21T08:52:06Z</time>
      </trkpt>
      <trkpt lat="42.89521" lon="2.56422">
        <ele>389.9</ele>
        <time>2021-03-21T08:52:08Z</time>
      </trkpt>
      <trkpt lat="42.89513" lon="2.56422">
        <ele>390</ele>
        <time>2021-03-21T08:52:09Z</time>
      </trkpt>
      <trkpt lat="42.89497" lon="2.5643">
        <ele>389.9</ele>
        <time>2021-03-21T08:52:11Z</time>
      </trkpt>
      <trkpt lat="42.89491" lon="2.56437">
        <ele>389.9</ele>
        <time>2021-03-21T08:52:12Z</time>
      </trkpt>
      <trkpt lat="42.8948" lon="2.56451">
        <ele>389.8</ele>
        <time>2021-03-21T08:52:14Z</time>
      </trkpt>
      <trkpt lat="42.89475" lon="2.56458">
        <ele>389.8</ele>
        <time>2021-03-21T08:52:15Z</time>
      </trkpt>
      <trkpt lat="42.89469" lon="2.56464">
        <ele>389.8</ele>
        <time>2021-03-21T08:52:16Z</time>
      </trkpt>
      <trkpt lat="42.89456" lon="2.56475">
        <ele>389.9</ele>
        <time>2021-03-21T08:52:18Z</time>
      </trkpt>
      <trkpt lat="42.8945" lon="2.56479">
        <ele>390</ele>
        <time>2021-03-21T08:52:19Z</time>
      </trkpt>
      <trkpt lat="42.89442" lon="2.56482">
        <ele>390.1</ele>
        <time>2021-03-21T08:52:20Z</time>
      </trkpt>
      <trkpt lat="42.89428" lon="2.56482">
        <ele>390.2</ele>
        <time>2021-03-21T08:52:22Z</time>
      </trkpt>
      <trkpt lat="42.89421" lon="2.56479">
        <ele>390.2</ele>
        <time>2021-03-21T08:52:23Z</time>
      </trkpt>
      <trkpt lat="42.89414" lon="2.56473">
        <ele>390.3</ele>
        <time>2021-03-21T08:52:24Z</time>
      </trkpt>
      <trkpt lat="42.89401" lon="2.56459">
        <ele>390.4</ele>
        <time>2021-03-21T08:52:26Z</time>
      </trkpt>
      <trkpt lat="42.89394" lon="2.56453">
        <ele>390.5</ele>
        <time>2021-03-21T08:52:27Z</time>
      </trkpt>
      <trkpt lat="42.89387" lon="2.56449">
        <ele>390.5</ele>
        <time>2021-03-21T08:52:28Z</time>
      </trkpt>
      <trkpt lat="42.89379" lon="2.56448">
        <ele>390.6</ele>
        <time>2021-03-21T08:52:29Z</time>
      </trkpt>
      <trkpt lat="42.89364" lon="2.56455">
        <ele>390.8</ele>
        <time>2021-03-21T08:52:31Z</time>
      </trkpt>
      <trkpt lat="42.89358" lon="2.56463">
        <ele>390.8</ele>
        <time>2021-03-21T08:52:32Z</time>
      </trkpt>
      <trkpt lat="42.89353" lon="2.56471">
        <ele>390.8</ele>
        <time>2021-03-21T08:52:33Z</time>
      </trkpt>
      <trkpt lat="42.89342" lon="2.56485">
        <ele>390.8</ele>
        <time>2021-03-21T08:52:35Z</time>
      </trkpt>
      <trkpt lat="42.89336" lon="2.56489">
        <ele>390.7</ele>
        <time>2021-03-21T08:52:36Z</time>
      </trkpt>
      <trkpt lat="42.89322" lon="2.56492">
        <ele>390.9</ele>
        <time>2021-03-21T08:52:38Z</time>
      </trkpt>
      <trkpt lat="42.89307" lon="2.56488">
        <ele>391.2</ele>
        <time>2021-03-21T08:52:40Z</time>
      </trkpt>
      <trkpt lat="42.89292" lon="2.56484">
        <ele>391.6</ele>
        <time>2021-03-21T08:52:42Z</time>
      </trkpt>
      <trkpt lat="42.89286" lon="2.56481">
        <ele>391.7</ele>
        <time>2021-03-21T08:52:43Z</time>
      </trkpt>
      <trkpt lat="42.89279" lon="2.56479">
        <ele>391.9</ele>
        <time>2021-03-21T08:52:44Z</time>
      </trkpt>
      <trkpt lat="42.89267" lon="2.56474">
        <ele>392.1</ele>
        <time>2021-03-21T08:52:46Z</time>
      </trkpt>
      <trkpt lat="42.89255" lon="2.56468">
        <ele>392.3</ele>
        <time>2021-03-21T08:52:48Z</time>
      </trkpt>
      <trkpt lat="42.89245" lon="2.56461">
        <ele>392.4</ele>
        <time>2021-03-21T08:52:50Z</time>
      </trkpt>
      <trkpt lat="42.89236" lon="2.56453">
        <ele>392.4</ele>
        <time>2021-03-21T08:52:52Z</time>
      </trkpt>
      <trkpt lat="42.8923" lon="2.56449">
        <ele>392.3</ele>
        <time>2021-03-21T08:52:53Z</time>
      </trkpt>
      <trkpt lat="42.8922" lon="2.56442">
        <ele>392.2</ele>
        <time>2021-03-21T08:52:55Z</time>
      </trkpt>
      <trkpt lat="42.89214" lon="2.56437">
        <ele>392.2</ele>
        <time>2021-03-21T08:52:56Z</time>
      </trkpt>
      <trkpt lat="42.89203" lon="2.56428">
        <ele>392.1</ele>
        <time>2021-03-21T08:52:58Z</time>
      </trkpt>
      <trkpt lat="42.89197" lon="2.56423">
        <ele>392.1</ele>
        <time>2021-03-21T08:52:59Z</time>
      </trkpt>
      <trkpt lat="42.89186" lon="2.56412">
        <ele>392.1</ele>
        <time>2021-03-21T08:53:01Z</time>
      </trkpt>
      <trkpt lat="42.89175" lon="2.564">
        <ele>392</ele>
        <time>2021-03-21T08:53:03Z</time>
      </trkpt>
      <trkpt lat="42.89164" lon="2.5639">
        <ele>391.9</ele>
        <time>2021-03-21T08:53:05Z</time>
      </trkpt>
      <trkpt lat="42.89158" lon="2.56385">
        <ele>391.9</ele>
        <time>2021-03-21T08:53:06Z</time>
      </trkpt>
      <trkpt lat="42.89152" lon="2.56381">
        <ele>391.9</ele>
        <time>2021-03-21T08:53:07Z</time>
      </trkpt>
      <trkpt lat="42.89142" lon="2.56374">
        <ele>391.8</ele>
        <time>2021-03-21T08:53:09Z</time>
      </trkpt>
      <trkpt lat="42.89136" lon="2.56372">
        <ele>391.8</ele>
        <time>2021-03-21T08:53:10Z</time>
      </trkpt>
      <trkpt lat="42.89124" lon="2.56369">
        <ele>391.7</ele>
        <time>2021-03-21T08:53:12Z</time>
      </trkpt>
      <trkpt lat="42.89117" lon="2.56368">
        <ele>391.6</ele>
        <time>2021-03-21T08:53:13Z</time>
      </trkpt>
      <trkpt lat="42.89104" lon="2.56363">
        <ele>391.5</ele>
        <time>2021-03-21T08:53:15Z</time>
      </trkpt>
      <trkpt lat="42.89097" lon="2.5636">
        <ele>391.5</ele>
        <time>2021-03-21T08:53:16Z</time>
      </trkpt>
      <trkpt lat="42.8909" lon="2.56356">
        <ele>391.4</ele>
        <time>2021-03-21T08:53:17Z</time>
      </trkpt>
      <trkpt lat="42.89076" lon="2.56345">
        <ele>391.3</ele>
        <time>2021-03-21T08:53:19Z</time>
      </trkpt>
      <trkpt lat="42.89063" lon="2.56333">
        <ele>391.2</ele>
        <time>2021-03-21T08:53:21Z</time>
      </trkpt>
      <trkpt lat="42.89057" lon="2.56325">
        <ele>391.1</ele>
        <time>2021-03-21T08:53:22Z</time>
      </trkpt>
      <trkpt lat="42.89046" lon="2.56308">
        <ele>391</ele>
        <time>2021-03-21T08:53:24Z</time>
      </trkpt>
      <trkpt lat="42.89041" lon="2.56299">
        <ele>390.9</ele>
        <time>2021-03-21T08:53:25Z</time>
      </trkpt>
      <trkpt lat="42.89037" lon="2.5629">
        <ele>390.8</ele>
        <time>2021-03-21T08:53:26Z</time>
      </trkpt>
      <trkpt lat="42.89027" lon="2.56271">
        <ele>390.7</ele>
        <time>2021-03-21T08:53:28Z</time>
      </trkpt>
      <trkpt lat="42.89023" lon="2.56262">
        <ele>390.7</ele>
        <time>2021-03-21T08:53:29Z</time>
      </trkpt>
      <trkpt lat="42.89013" lon="2.56244">
        <ele>390.7</ele>
        <time>2021-03-21T08:53:31Z</time>
      </trkpt>
      <trkpt lat="42.89003" lon="2.56229">
        <ele>390.6</ele>
        <time>2021-03-21T08:53:33Z</time>
      </trkpt>
      <trkpt lat="42.88993" lon="2.56215">
        <ele>390.3</ele>
        <time>2021-03-21T08:53:35Z</time>
      </trkpt>
      <trkpt lat="42.88988" lon="2.56209">
        <ele>390.1</ele>
        <time>2021-03-21T08:53:36Z</time>
      </trkpt>
      <trkpt lat="42.88977" lon="2.56197">
        <ele>389.7</ele>
        <time>2021-03-21T08:53:38Z</time>
      </trkpt>
      <trkpt lat="42.88971" lon="2.56191">
        <ele>389.4</ele>
        <time>2021-03-21T08:53:39Z</time>
      </trkpt>
      <trkpt lat="42.88959" lon="2.56178">
        <ele>388.8</ele>
        <time>2021-03-21T08:53:41Z</time>
      </trkpt>
      <trkpt lat="42.88947" lon="2.56163">
        <ele>388.1</ele>
        <time>2021-03-21T08:53:43Z</time>
      </trkpt>
      <trkpt lat="42.88941" lon="2.56154">
        <ele>387.7</ele>
        <time>2021-03-21T08:53:44Z</time>
      </trkpt>
      <trkpt lat="42.8893" lon="2.56136">
        <ele>387</ele>
        <time>2021-03-21T08:53:46Z</time>
      </trkpt>
      <trkpt lat="42.88925" lon="2.56126">
        <ele>386.6</ele>
        <time>2021-03-21T08:53:47Z</time>
      </trkpt>
      <trkpt lat="42.88917" lon="2.56104">
        <ele>385.8</ele>
        <time>2021-03-21T08:53:49Z</time>
      </trkpt>
      <trkpt lat="42.88915" lon="2.56092">
        <ele>385.4</ele>
        <time>2021-03-21T08:53:50Z</time>
      </trkpt>
      <trkpt lat="42.88912" lon="2.56067">
        <ele>384.5</ele>
        <time>2021-03-21T08:53:52Z</time>
      </trkpt>
      <trkpt lat="42.88909" lon="2.56043">
        <ele>383.7</ele>
        <time>2021-03-21T08:53:54Z</time>
      </trkpt>
      <trkpt lat="42.88909" lon="2.56031">
        <ele>383.5</ele>
        <time>2021-03-21T08:53:55Z</time>
      </trkpt>
      <trkpt lat="42.88909" lon="2.56007">
        <ele>383.3</ele>
        <time>2021-03-21T08:53:57Z</time>
      </trkpt>
      <trkpt lat="42.88901" lon="2.5599">
        <ele>383.1</ele>
        <time>2021-03-21T08:53:59Z</time>
      </trkpt>
      <trkpt lat="42.88887" lon="2.55991">
        <ele>382.2</ele>
        <time>2021-03-21T08:54:01Z</time>
      </trkpt>
      <trkpt lat="42.8888" lon="2.55999">
        <ele>381.7</ele>
        <time>2021-03-21T08:54:02Z</time>
      </trkpt>
      <trkpt lat="42.88874" lon="2.56008">
        <ele>381.2</ele>
        <time>2021-03-21T08:54:03Z</time>
      </trkpt>
      <trkpt lat="42.88867" lon="2.56015">
        <ele>380.8</ele>
        <time>2021-03-21T08:54:04Z</time>
      </trkpt>
      <trkpt lat="42.88861" lon="2.56021">
        <ele>380.4</ele>
        <time>2021-03-21T08:54:05Z</time>
      </trkpt>
      <trkpt lat="42.88845" lon="2.56021">
        <ele>379.7</ele>
        <time>2021-03-21T08:54:07Z</time>
      </trkpt>
      <trkpt lat="42.88829" lon="2.56007">
        <ele>378.6</ele>
        <time>2021-03-21T08:54:09Z</time>
      </trkpt>
      <trkpt lat="42.88822" lon="2.55999">
        <ele>377.9</ele>
        <time>2021-03-21T08:54:10Z</time>
      </trkpt>
      <trkpt lat="42.88807" lon="2.55984">
        <ele>376.5</ele>
        <time>2021-03-21T08:54:12Z</time>
      </trkpt>
      <trkpt lat="42.88799" lon="2.55977">
        <ele>375.9</ele>
        <time>2021-03-21T08:54:13Z</time>
      </trkpt>
      <trkpt lat="42.88784" lon="2.55964">
        <ele>375</ele>
        <time>2021-03-21T08:54:15Z</time>
      </trkpt>
      <trkpt lat="42.88775" lon="2.55958">
        <ele>374.7</ele>
        <time>2021-03-21T08:54:16Z</time>
      </trkpt>
      <trkpt lat="42.88759" lon="2.55946">
        <ele>374</ele>
        <time>2021-03-21T08:54:18Z</time>
      </trkpt>
      <trkpt lat="42.88742" lon="2.55932">
        <ele>373.1</ele>
        <time>2021-03-21T08:54:20Z</time>
      </trkpt>
      <trkpt lat="42.88726" lon="2.55917">
        <ele>372</ele>
        <time>2021-03-21T08:54:22Z</time>
      </trkpt>
      <trkpt lat="42.88718" lon="2.5591">
        <ele>371.5</ele>
        <time>2021-03-21T08:54:23Z</time>
      </trkpt>
      <trkpt lat="42.88711" lon="2.55902">
        <ele>371</ele>
        <time>2021-03-21T08:54:24Z</time>
      </trkpt>
      <trkpt lat="42.88698" lon="2.55886">
        <ele>370.1</ele>
        <time>2021-03-21T08:54:26Z</time>
      </trkpt>
      <trkpt lat="42.88691" lon="2.55879">
        <ele>369.7</ele>
        <time>2021-03-21T08:54:27Z</time>
      </trkpt>
      <trkpt lat="42.88679" lon="2.55863">
        <ele>368.9</ele>
        <time>2021-03-21T08:54:29Z</time>
      </trkpt>
      <trkpt lat="42.88668" lon="2.55846">
        <ele>368.2</ele>
        <time>2021-03-21T08:54:31Z</time>
      </trkpt>
      <trkpt lat="42.88662" lon="2.55838">
        <ele>367.9</ele>
        <time>2021-03-21T08:54:32Z</time>
      </trkpt>
      <trkpt lat="42.8865" lon="2.55822">
        <ele>367.1</ele>
        <time>2021-03-21T08:54:34Z</time>
      </trkpt>
      <trkpt lat="42.88643" lon="2.55814">
        <ele>366.7</ele>
        <time>2021-03-21T08:54:35Z</time>
      </trkpt>
      <trkpt lat="42.88636" lon="2.55806">
        <ele>366.3</ele>
        <time>2021-03-21T08:54:36Z</time>
      </trkpt>
      <trkpt lat="42.88629" lon="2.55797">
        <ele>365.8</ele>
        <time>2021-03-21T08:54:37Z</time>
      </trkpt>
      <trkpt lat="42.88615" lon="2.5578">
        <ele>365</ele>
        <time>2021-03-21T08:54:39Z</time>
      </trkpt>
      <trkpt lat="42.88602" lon="2.55761">
        <ele>363.9</ele>
        <time>2021-03-21T08:54:41Z</time>
      </trkpt>
      <trkpt lat="42.88595" lon="2.55752">
        <ele>363.3</ele>
        <time>2021-03-21T08:54:42Z</time>
      </trkpt>
      <trkpt lat="42.88583" lon="2.55731">
        <ele>362.4</ele>
        <time>2021-03-21T08:54:44Z</time>
      </trkpt>
      <trkpt lat="42.88577" lon="2.55719">
        <ele>362</ele>
        <time>2021-03-21T08:54:45Z</time>
      </trkpt>
      <trkpt lat="42.88572" lon="2.55707">
        <ele>361.6</ele>
        <time>2021-03-21T08:54:46Z</time>
      </trkpt>
      <trkpt lat="42.88561" lon="2.55683">
        <ele>360.9</ele>
        <time>2021-03-21T08:54:48Z</time>
      </trkpt>
      <trkpt lat="42.88555" lon="2.55656">
        <ele>359.9</ele>
        <time>2021-03-21T08:54:50Z</time>
      </trkpt>
      <trkpt lat="42.88555" lon="2.55642">
        <ele>359.2</ele>
        <time>2021-03-21T08:54:51Z</time>
      </trkpt>
      <trkpt lat="42.88554" lon="2.55616">
        <ele>357.9</ele>
        <time>2021-03-21T08:54:53Z</time>
      </trkpt>
      <trkpt lat="42.88543" lon="2.55596">
        <ele>356.6</ele>
        <time>2021-03-21T08:54:55Z</time>
      </trkpt>
      <trkpt lat="42.88529" lon="2.55579">
        <ele>355.4</ele>
        <time>2021-03-21T08:54:57Z</time>
      </trkpt>
      <trkpt lat="42.88516" lon="2.55561">
        <ele>354.4</ele>
        <time>2021-03-21T08:54:59Z</time>
      </trkpt>
      <trkpt lat="42.88507" lon="2.55541">
        <ele>353.3</ele>
        <time>2021-03-21T08:55:01Z</time>
      </trkpt>
      <trkpt lat="42.88496" lon="2.55521">
        <ele>352</ele>
        <time>2021-03-21T08:55:03Z</time>
      </trkpt>
      <trkpt lat="42.88491" lon="2.55511">
        <ele>351.5</ele>
        <time>2021-03-21T08:55:04Z</time>
      </trkpt>
      <trkpt lat="42.88478" lon="2.55492">
        <ele>350.5</ele>
        <time>2021-03-21T08:55:06Z</time>
      </trkpt>
      <trkpt lat="42.88464" lon="2.55474">
        <ele>349.3</ele>
        <time>2021-03-21T08:55:08Z</time>
      </trkpt>
      <trkpt lat="42.88449" lon="2.55457">
        <ele>348.1</ele>
        <time>2021-03-21T08:55:10Z</time>
      </trkpt>
      <trkpt lat="42.88442" lon="2.55448">
        <ele>347.7</ele>
        <time>2021-03-21T08:55:11Z</time>
      </trkpt>
      <trkpt lat="42.88429" lon="2.55432">
        <ele>346.9</ele>
        <time>2021-03-21T08:55:13Z</time>
      </trkpt>
      <trkpt lat="42.88423" lon="2.55424">
        <ele>346.5</ele>
        <time>2021-03-21T08:55:14Z</time>
      </trkpt>
      <trkpt lat="42.88412" lon="2.55407">
        <ele>345.9</ele>
        <time>2021-03-21T08:55:16Z</time>
      </trkpt>
      <trkpt lat="42.88406" lon="2.55398">
        <ele>345.7</ele>
        <time>2021-03-21T08:55:17Z</time>
      </trkpt>
      <trkpt lat="42.88397" lon="2.55379">
        <ele>345.2</ele>
        <time>2021-03-21T08:55:19Z</time>
      </trkpt>
      <trkpt lat="42.88392" lon="2.5537">
        <ele>345.1</ele>
        <time>2021-03-21T08:55:20Z</time>
      </trkpt>
      <trkpt lat="42.88381" lon="2.55358">
        <ele>344.7</ele>
        <time>2021-03-21T08:55:22Z</time>
      </trkpt>
      <trkpt lat="42.88373" lon="2.55358">
        <ele>344.3</ele>
        <time>2021-03-21T08:55:23Z</time>
      </trkpt>
      <trkpt lat="42.88359" lon="2.55369">
        <ele>343.5</ele>
        <time>2021-03-21T08:55:25Z</time>
      </trkpt>
      <trkpt lat="42.88353" lon="2.55375">
        <ele>343.1</ele>
        <time>2021-03-21T08:55:26Z</time>
      </trkpt>
      <trkpt lat="42.88339" lon="2.55386">
        <ele>342.5</ele>
        <time>2021-03-21T08:55:28Z</time>
      </trkpt>
      <trkpt lat="42.88323" lon="2.5539">
        <ele>342.1</ele>
        <time>2021-03-21T08:55:30Z</time>
      </trkpt>
      <trkpt lat="42.88315" lon="2.55389">
        <ele>341.9</ele>
        <time>2021-03-21T08:55:31Z</time>
      </trkpt>
      <trkpt lat="42.88298" lon="2.55385">
        <ele>341.8</ele>
        <time>2021-03-21T08:55:33Z</time>
      </trkpt>
      <trkpt lat="42.88284" lon="2.55386">
        <ele>341.9</ele>
        <time>2021-03-21T08:55:35Z</time>
      </trkpt>
      <trkpt lat="42.88272" lon="2.55393">
        <ele>341.8</ele>
        <time>2021-03-21T08:55:37Z</time>
      </trkpt>
      <trkpt lat="42.88267" lon="2.55398">
        <ele>341.7</ele>
        <time>2021-03-21T08:55:38Z</time>
      </trkpt>
      <trkpt lat="42.88256" lon="2.55406">
        <ele>341.6</ele>
        <time>2021-03-21T08:55:40Z</time>
      </trkpt>
      <trkpt lat="42.88244" lon="2.55409">
        <ele>341.3</ele>
        <time>2021-03-21T08:55:42Z</time>
      </trkpt>
      <trkpt lat="42.88236" lon="2.55408">
        <ele>341.2</ele>
        <time>2021-03-21T08:55:43Z</time>
      </trkpt>
      <trkpt lat="42.88221" lon="2.55406">
        <ele>341.1</ele>
        <time>2021-03-21T08:55:45Z</time>
      </trkpt>
      <trkpt lat="42.88213" lon="2.55406">
        <ele>341.2</ele>
        <time>2021-03-21T08:55:46Z</time>
      </trkpt>
      <trkpt lat="42.88198" lon="2.55409">
        <ele>341.6</ele>
        <time>2021-03-21T08:55:48Z</time>
      </trkpt>
      <trkpt lat="42.88192" lon="2.55411">
        <ele>341.8</ele>
        <time>2021-03-21T08:55:49Z</time>
      </trkpt>
      <trkpt lat="42.88179" lon="2.55417">
        <ele>342.4</ele>
        <time>2021-03-21T08:55:51Z</time>
      </trkpt>
      <trkpt lat="42.88168" lon="2.55422">
        <ele>342.8</ele>
        <time>2021-03-21T08:55:53Z</time>
      </trkpt>
      <trkpt lat="42.88156" lon="2.55425">
        <ele>343.3</ele>
        <time>2021-03-21T08:55:55Z</time>
      </trkpt>
      <trkpt lat="42.88151" lon="2.55426">
        <ele>343.5</ele>
        <time>2021-03-21T08:55:56Z</time>
      </trkpt>
      <trkpt lat="42.8814" lon="2.55429">
        <ele>343.9</ele>
        <time>2021-03-21T08:55:58Z</time>
      </trkpt>
      <trkpt lat="42.8813" lon="2.5543">
        <ele>344.3</ele>
        <time>2021-03-21T08:56:00Z</time>
      </trkpt>
      <trkpt lat="42.88118" lon="2.55429">
        <ele>344.8</ele>
        <time>2021-03-21T08:56:02Z</time>
      </trkpt>
      <trkpt lat="42.88113" lon="2.55429">
        <ele>345.1</ele>
        <time>2021-03-21T08:56:03Z</time>
      </trkpt>
      <trkpt lat="42.88101" lon="2.5543">
        <ele>345.7</ele>
        <time>2021-03-21T08:56:05Z</time>
      </trkpt>
      <trkpt lat="42.88096" lon="2.55431">
        <ele>346</ele>
        <time>2021-03-21T08:56:06Z</time>
      </trkpt>
      <trkpt lat="42.8809" lon="2.55433">
        <ele>346.4</ele>
        <time>2021-03-21T08:56:07Z</time>
      </trkpt>
      <trkpt lat="42.88079" lon="2.55437">
        <ele>347</ele>
        <time>2021-03-21T08:56:09Z</time>
      </trkpt>
      <trkpt lat="42.88073" lon="2.55439">
        <ele>347.4</ele>
        <time>2021-03-21T08:56:10Z</time>
      </trkpt>
      <trkpt lat="42.88062" lon="2.55445">
        <ele>348.2</ele>
        <time>2021-03-21T08:56:12Z</time>
      </trkpt>
      <trkpt lat="42.88057" lon="2.55446">
        <ele>348.6</ele>
        <time>2021-03-21T08:56:13Z</time>
      </trkpt>
      <trkpt lat="42.88046" lon="2.55448">
        <ele>349.4</ele>
        <time>2021-03-21T08:56:15Z</time>
      </trkpt>
      <trkpt lat="42.8804" lon="2.55449">
        <ele>349.8</ele>
        <time>2021-03-21T08:56:16Z</time>
      </trkpt>
      <trkpt lat="42.88029" lon="2.55452">
        <ele>351</ele>
        <time>2021-03-21T08:56:18Z</time>
      </trkpt>
      <trkpt lat="42.88023" lon="2.55454">
        <ele>351.7</ele>
        <time>2021-03-21T08:56:19Z</time>
      </trkpt>
      <trkpt lat="42.88018" lon="2.55457">
        <ele>352.3</ele>
        <time>2021-03-21T08:56:20Z</time>
      </trkpt>
      <trkpt lat="42.88009" lon="2.5546">
        <ele>353.5</ele>
        <time>2021-03-21T08:56:22Z</time>
      </trkpt>
      <trkpt lat="42.88005" lon="2.55461">
        <ele>354</ele>
        <time>2021-03-21T08:56:23Z</time>
      </trkpt>
      <trkpt lat="42.88" lon="2.55457">
        <ele>354.5</ele>
        <time>2021-03-21T08:56:25Z</time>
      </trkpt>
      <trkpt lat="42.87999" lon="2.55452">
        <ele>354.6</ele>
        <time>2021-03-21T08:56:26Z</time>
      </trkpt>
      <trkpt lat="42.87996" lon="2.55438">
        <ele>354.9</ele>
        <time>2021-03-21T08:56:28Z</time>
      </trkpt>
      <trkpt lat="42.87993" lon="2.55426">
        <ele>355.3</ele>
        <time>2021-03-21T08:56:30Z</time>
      </trkpt>
      <trkpt lat="42.8799" lon="2.55421">
        <ele>355.6</ele>
        <time>2021-03-21T08:56:31Z</time>
      </trkpt>
      <trkpt lat="42.87986" lon="2.55413">
        <ele>356</ele>
        <time>2021-03-21T08:56:33Z</time>
      </trkpt>
      <trkpt lat="42.87984" lon="2.55407">
        <ele>356.3</ele>
        <time>2021-03-21T08:56:34Z</time>
      </trkpt>
      <trkpt lat="42.87983" lon="2.55398">
        <ele>356.6</ele>
        <time>2021-03-21T08:56:36Z</time>
      </trkpt>
      <trkpt lat="42.87981" lon="2.55391">
        <ele>356.9</ele>
        <time>2021-03-21T08:56:37Z</time>
      </trkpt>
      <trkpt lat="42.8798" lon="2.55383">
        <ele>357.1</ele>
        <time>2021-03-21T08:56:39Z</time>
      </trkpt>
      <trkpt lat="42.8798" lon="2.55376">
        <ele>357.3</ele>
        <time>2021-03-21T08:56:40Z</time>
      </trkpt>
      <trkpt lat="42.87978" lon="2.55371">
        <ele>357.4</ele>
        <time>2021-03-21T08:56:41Z</time>
      </trkpt>
      <trkpt lat="42.87977" lon="2.55365">
        <ele>357.4</ele>
        <time>2021-03-21T08:56:42Z</time>
      </trkpt>
      <trkpt lat="42.87976" lon="2.5536">
        <ele>357.5</ele>
        <time>2021-03-21T08:56:43Z</time>
      </trkpt>
      <trkpt lat="42.87974" lon="2.55352">
        <ele>357.5</ele>
        <time>2021-03-21T08:56:45Z</time>
      </trkpt>
      <trkpt lat="42.87974" lon="2.55345">
        <ele>357.4</ele>
        <time>2021-03-21T08:56:46Z</time>
      </trkpt>
      <trkpt lat="42.87974" lon="2.55339">
        <ele>357.4</ele>
        <time>2021-03-21T08:56:47Z</time>
      </trkpt>
      <trkpt lat="42.87976" lon="2.55326">
        <ele>357.1</ele>
        <time>2021-03-21T08:56:49Z</time>
      </trkpt>
      <trkpt lat="42.87977" lon="2.55319">
        <ele>356.9</ele>
        <time>2021-03-21T08:56:50Z</time>
      </trkpt>
      <trkpt lat="42.87978" lon="2.55311">
        <ele>356.8</ele>
        <time>2021-03-21T08:56:51Z</time>
      </trkpt>
      <trkpt lat="42.87983" lon="2.55296">
        <ele>356.5</ele>
        <time>2021-03-21T08:56:53Z</time>
      </trkpt>
      <trkpt lat="42.87987" lon="2.55281">
        <ele>356</ele>
        <time>2021-03-21T08:56:55Z</time>
      </trkpt>
      <trkpt lat="42.8799" lon="2.55273">
        <ele>355.6</ele>
        <time>2021-03-21T08:56:56Z</time>
      </trkpt>
      <trkpt lat="42.87992" lon="2.55265">
        <ele>355.3</ele>
        <time>2021-03-21T08:56:57Z</time>
      </trkpt>
      <trkpt lat="42.87997" lon="2.55251">
        <ele>354.7</ele>
        <time>2021-03-21T08:56:59Z</time>
      </trkpt>
      <trkpt lat="42.88001" lon="2.55236">
        <ele>354.2</ele>
        <time>2021-03-21T08:57:01Z</time>
      </trkpt>
      <trkpt lat="42.88005" lon="2.55222">
        <ele>353.7</ele>
        <time>2021-03-21T08:57:03Z</time>
      </trkpt>
      <trkpt lat="42.88008" lon="2.55207">
        <ele>353.5</ele>
        <time>2021-03-21T08:57:05Z</time>
      </trkpt>
      <trkpt lat="42.88011" lon="2.55199">
        <ele>353.3</ele>
        <time>2021-03-21T08:57:06Z</time>
      </trkpt>
      <trkpt lat="42.88013" lon="2.55191">
        <ele>353.1</ele>
        <time>2021-03-21T08:57:07Z</time>
      </trkpt>
      <trkpt lat="42.88016" lon="2.55183">
        <ele>353</ele>
        <time>2021-03-21T08:57:08Z</time>
      </trkpt>
      <trkpt lat="42.88019" lon="2.55175">
        <ele>352.8</ele>
        <time>2021-03-21T08:57:09Z</time>
      </trkpt>
      <trkpt lat="42.88024" lon="2.55158">
        <ele>352.4</ele>
        <time>2021-03-21T08:57:11Z</time>
      </trkpt>
      <trkpt lat="42.88026" lon="2.5515">
        <ele>352.3</ele>
        <time>2021-03-21T08:57:12Z</time>
      </trkpt>
      <trkpt lat="42.88028" lon="2.55141">
        <ele>352.1</ele>
        <time>2021-03-21T08:57:13Z</time>
      </trkpt>
      <trkpt lat="42.88031" lon="2.55122">
        <ele>351.7</ele>
        <time>2021-03-21T08:57:15Z</time>
      </trkpt>
      <trkpt lat="42.88033" lon="2.55112">
        <ele>351.5</ele>
        <time>2021-03-21T08:57:16Z</time>
      </trkpt>
      <trkpt lat="42.88036" lon="2.55093">
        <ele>351</ele>
        <time>2021-03-21T08:57:18Z</time>
      </trkpt>
      <trkpt lat="42.88039" lon="2.55073">
        <ele>350.6</ele>
        <time>2021-03-21T08:57:20Z</time>
      </trkpt>
      <trkpt lat="42.8804" lon="2.55063">
        <ele>350.4</ele>
        <time>2021-03-21T08:57:21Z</time>
      </trkpt>
      <trkpt lat="42.88042" lon="2.55052">
        <ele>350.2</ele>
        <time>2021-03-21T08:57:22Z</time>
      </trkpt>
      <trkpt lat="42.88044" lon="2.55042">
        <ele>350</ele>
        <time>2021-03-21T08:57:23Z</time>
      </trkpt>
      <trkpt lat="42.88049" lon="2.55022">
        <ele>349.7</ele>
        <time>2021-03-21T08:57:25Z</time>
      </trkpt>
      <trkpt lat="42.88054" lon="2.55003">
        <ele>349.5</ele>
        <time>2021-03-21T08:57:27Z</time>
      </trkpt>
      <trkpt lat="42.88057" lon="2.54994">
        <ele>349.4</ele>
        <time>2021-03-21T08:57:28Z</time>
      </trkpt>
      <trkpt lat="42.8806" lon="2.54984">
        <ele>349.2</ele>
        <time>2021-03-21T08:57:29Z</time>
      </trkpt>
      <trkpt lat="42.88066" lon="2.54966">
        <ele>349</ele>
        <time>2021-03-21T08:57:31Z</time>
      </trkpt>
      <trkpt lat="42.88069" lon="2.54956">
        <ele>349</ele>
        <time>2021-03-21T08:57:32Z</time>
      </trkpt>
      <trkpt lat="42.88074" lon="2.54938">
        <ele>349.2</ele>
        <time>2021-03-21T08:57:34Z</time>
      </trkpt>
      <trkpt lat="42.88079" lon="2.54921">
        <ele>349.5</ele>
        <time>2021-03-21T08:57:36Z</time>
      </trkpt>
      <trkpt lat="42.88083" lon="2.54905">
        <ele>349.7</ele>
        <time>2021-03-21T08:57:38Z</time>
      </trkpt>
      <trkpt lat="42.88087" lon="2.54891">
        <ele>349.9</ele>
        <time>2021-03-21T08:57:40Z</time>
      </trkpt>
      <trkpt lat="42.88089" lon="2.54876">
        <ele>350.1</ele>
        <time>2021-03-21T08:57:42Z</time>
      </trkpt>
      <trkpt lat="42.88088" lon="2.54869">
        <ele>350.3</ele>
        <time>2021-03-21T08:57:43Z</time>
      </trkpt>
      <trkpt lat="42.88087" lon="2.54862">
        <ele>350.4</ele>
        <time>2021-03-21T08:57:44Z</time>
      </trkpt>
      <trkpt lat="42.88081" lon="2.5485">
        <ele>350.8</ele>
        <time>2021-03-21T08:57:46Z</time>
      </trkpt>
      <trkpt lat="42.88074" lon="2.54839">
        <ele>351.2</ele>
        <time>2021-03-21T08:57:48Z</time>
      </trkpt>
      <trkpt lat="42.88067" lon="2.54828">
        <ele>351.7</ele>
        <time>2021-03-21T08:57:50Z</time>
      </trkpt>
      <trkpt lat="42.88064" lon="2.54821">
        <ele>351.9</ele>
        <time>2021-03-21T08:57:51Z</time>
      </trkpt>
      <trkpt lat="42.88062" lon="2.54814">
        <ele>352.1</ele>
        <time>2021-03-21T08:57:52Z</time>
      </trkpt>
      <trkpt lat="42.88058" lon="2.54801">
        <ele>352.4</ele>
        <time>2021-03-21T08:57:54Z</time>
      </trkpt>
      <trkpt lat="42.88054" lon="2.54788">
        <ele>352.8</ele>
        <time>2021-03-21T08:57:56Z</time>
      </trkpt>
      <trkpt lat="42.88052" lon="2.54783">
        <ele>352.9</ele>
        <time>2021-03-21T08:57:57Z</time>
      </trkpt>
      <trkpt lat="42.88049" lon="2.54778">
        <ele>353.1</ele>
        <time>2021-03-21T08:57:58Z</time>
      </trkpt>
      <trkpt lat="42.88042" lon="2.54769">
        <ele>353.5</ele>
        <time>2021-03-21T08:58:00Z</time>
      </trkpt>
      <trkpt lat="42.88038" lon="2.54765">
        <ele>353.7</ele>
        <time>2021-03-21T08:58:01Z</time>
      </trkpt>
      <trkpt lat="42.88035" lon="2.54761">
        <ele>353.9</ele>
        <time>2021-03-21T08:58:02Z</time>
      </trkpt>
      <trkpt lat="42.88031" lon="2.54758">
        <ele>354.1</ele>
        <time>2021-03-21T08:58:03Z</time>
      </trkpt>
      <trkpt lat="42.88023" lon="2.5475">
        <ele>354.4</ele>
        <time>2021-03-21T08:58:05Z</time>
      </trkpt>
      <trkpt lat="42.8802" lon="2.54746">
        <ele>354.6</ele>
        <time>2021-03-21T08:58:06Z</time>
      </trkpt>
      <trkpt lat="42.88018" lon="2.54741">
        <ele>354.7</ele>
        <time>2021-03-21T08:58:07Z</time>
      </trkpt>
      <trkpt lat="42.88014" lon="2.54729">
        <ele>355</ele>
        <time>2021-03-21T08:58:09Z</time>
      </trkpt>
      <trkpt lat="42.88013" lon="2.54723">
        <ele>355.2</ele>
        <time>2021-03-21T08:58:10Z</time>
      </trkpt>
      <trkpt lat="42.88013" lon="2.54718">
        <ele>355.3</ele>
        <time>2021-03-21T08:58:11Z</time>
      </trkpt>
      <trkpt lat="42.88012" lon="2.54708">
        <ele>355.6</ele>
        <time>2021-03-21T08:58:13Z</time>
      </trkpt>
      <trkpt lat="42.88012" lon="2.54697">
        <ele>355.8</ele>
        <time>2021-03-21T08:58:15Z</time>
      </trkpt>
      <trkpt lat="42.88012" lon="2.54692">
        <ele>355.9</ele>
        <time>2021-03-21T08:58:16Z</time>
      </trkpt>
      <trkpt lat="42.88012" lon="2.54685">
        <ele>356.1</ele>
        <time>2021-03-21T08:58:17Z</time>
      </trkpt>
      <trkpt lat="42.88012" lon="2.5468">
        <ele>356.1</ele>
        <time>2021-03-21T08:58:19Z</time>
      </trkpt>
      <trkpt lat="42.88011" lon="2.54677">
        <ele>356.2</ele>
        <time>2021-03-21T08:58:20Z</time>
      </trkpt>
      <trkpt lat="42.88011" lon="2.54665">
        <ele>356.4</ele>
        <time>2021-03-21T08:58:21Z</time>
      </trkpt>
      <trkpt lat="42.8801" lon="2.54649">
        <ele>356.6</ele>
        <time>2021-03-21T08:58:23Z</time>
      </trkpt>
      <trkpt lat="42.88009" lon="2.54642">
        <ele>356.7</ele>
        <time>2021-03-21T08:58:24Z</time>
      </trkpt>
      <trkpt lat="42.88004" lon="2.5463">
        <ele>356.9</ele>
        <time>2021-03-21T08:58:26Z</time>
      </trkpt>
      <trkpt lat="42.87997" lon="2.5462">
        <ele>357.2</ele>
        <time>2021-03-21T08:58:28Z</time>
      </trkpt>
      <trkpt lat="42.87989" lon="2.54611">
        <ele>357.4</ele>
        <time>2021-03-21T08:58:30Z</time>
      </trkpt>
      <trkpt lat="42.87984" lon="2.54606">
        <ele>357.5</ele>
        <time>2021-03-21T08:58:32Z</time>
      </trkpt>
      <trkpt lat="42.87978" lon="2.546">
        <ele>357.7</ele>
        <time>2021-03-21T08:58:33Z</time>
      </trkpt>
      <trkpt lat="42.87969" lon="2.54591">
        <ele>357.2</ele>
        <time>2021-03-21T08:58:35Z</time>
      </trkpt>
      <trkpt lat="42.87962" lon="2.54579">
        <ele>356.4</ele>
        <time>2021-03-21T08:58:37Z</time>
      </trkpt>
      <trkpt lat="42.87959" lon="2.54571">
        <ele>355.9</ele>
        <time>2021-03-21T08:58:38Z</time>
      </trkpt>
      <trkpt lat="42.87958" lon="2.54552">
        <ele>354.9</ele>
        <time>2021-03-21T08:58:40Z</time>
      </trkpt>
      <trkpt lat="42.8796" lon="2.54543">
        <ele>354.4</ele>
        <time>2021-03-21T08:58:41Z</time>
      </trkpt>
      <trkpt lat="42.87967" lon="2.54526">
        <ele>353.4</ele>
        <time>2021-03-21T08:58:43Z</time>
      </trkpt>
      <trkpt lat="42.87975" lon="2.5451">
        <ele>352.4</ele>
        <time>2021-03-21T08:58:45Z</time>
      </trkpt>
      <trkpt lat="42.8798" lon="2.54491">
        <ele>351.3</ele>
        <time>2021-03-21T08:58:47Z</time>
      </trkpt>
      <trkpt lat="42.87981" lon="2.54481">
        <ele>350.7</ele>
        <time>2021-03-21T08:58:48Z</time>
      </trkpt>
      <trkpt lat="42.8798" lon="2.5446">
        <ele>349.7</ele>
        <time>2021-03-21T08:58:50Z</time>
      </trkpt>
      <trkpt lat="42.8798" lon="2.5445">
        <ele>349.2</ele>
        <time>2021-03-21T08:58:51Z</time>
      </trkpt>
      <trkpt lat="42.87986" lon="2.54431">
        <ele>348.4</ele>
        <time>2021-03-21T08:58:53Z</time>
      </trkpt>
      <trkpt lat="42.88002" lon="2.54422">
        <ele>347.8</ele>
        <time>2021-03-21T08:58:55Z</time>
      </trkpt>
      <trkpt lat="42.88011" lon="2.54421">
        <ele>347.6</ele>
        <time>2021-03-21T08:58:56Z</time>
      </trkpt>
      <trkpt lat="42.88019" lon="2.5442">
        <ele>347.4</ele>
        <time>2021-03-21T08:58:57Z</time>
      </trkpt>
      <trkpt lat="42.88035" lon="2.54419">
        <ele>347</ele>
        <time>2021-03-21T08:58:59Z</time>
      </trkpt>
      <trkpt lat="42.88043" lon="2.54417">
        <ele>346.9</ele>
        <time>2021-03-21T08:59:00Z</time>
      </trkpt>
      <trkpt lat="42.88059" lon="2.54409">
        <ele>346.7</ele>
        <time>2021-03-21T08:59:02Z</time>
      </trkpt>
      <trkpt lat="42.88065" lon="2.54402">
        <ele>346.6</ele>
        <time>2021-03-21T08:59:03Z</time>
      </trkpt>
      <trkpt lat="42.88077" lon="2.54386">
        <ele>346.5</ele>
        <time>2021-03-21T08:59:05Z</time>
      </trkpt>
      <trkpt lat="42.88086" lon="2.5437">
        <ele>346.6</ele>
        <time>2021-03-21T08:59:07Z</time>
      </trkpt>
      <trkpt lat="42.88089" lon="2.54363">
        <ele>346.6</ele>
        <time>2021-03-21T08:59:08Z</time>
      </trkpt>
      <trkpt lat="42.88094" lon="2.54348">
        <ele>346.8</ele>
        <time>2021-03-21T08:59:10Z</time>
      </trkpt>
      <trkpt lat="42.88096" lon="2.54341">
        <ele>346.9</ele>
        <time>2021-03-21T08:59:11Z</time>
      </trkpt>
      <trkpt lat="42.88098" lon="2.54334">
        <ele>346.9</ele>
        <time>2021-03-21T08:59:12Z</time>
      </trkpt>
      <trkpt lat="42.881" lon="2.54327">
        <ele>347</ele>
        <time>2021-03-21T08:59:13Z</time>
      </trkpt>
      <trkpt lat="42.88102" lon="2.54312">
        <ele>347.2</ele>
        <time>2021-03-21T08:59:15Z</time>
      </trkpt>
      <trkpt lat="42.88103" lon="2.54305">
        <ele>347.2</ele>
        <time>2021-03-21T08:59:16Z</time>
      </trkpt>
      <trkpt lat="42.88104" lon="2.5429">
        <ele>347.4</ele>
        <time>2021-03-21T08:59:18Z</time>
      </trkpt>
      <trkpt lat="42.88104" lon="2.54283">
        <ele>347.5</ele>
        <time>2021-03-21T08:59:19Z</time>
      </trkpt>
      <trkpt lat="42.88105" lon="2.54269">
        <ele>347.6</ele>
        <time>2021-03-21T08:59:21Z</time>
      </trkpt>
      <trkpt lat="42.88104" lon="2.54263">
        <ele>347.7</ele>
        <time>2021-03-21T08:59:22Z</time>
      </trkpt>
      <trkpt lat="42.88104" lon="2.54257">
        <ele>347.8</ele>
        <time>2021-03-21T08:59:23Z</time>
      </trkpt>
      <trkpt lat="42.88103" lon="2.54244">
        <ele>347.9</ele>
        <time>2021-03-21T08:59:25Z</time>
      </trkpt>
      <trkpt lat="42.88102" lon="2.54232">
        <ele>348</ele>
        <time>2021-03-21T08:59:27Z</time>
      </trkpt>
      <trkpt lat="42.88101" lon="2.54219">
        <ele>348.1</ele>
        <time>2021-03-21T08:59:29Z</time>
      </trkpt>
      <trkpt lat="42.881" lon="2.54212">
        <ele>348.2</ele>
        <time>2021-03-21T08:59:30Z</time>
      </trkpt>
      <trkpt lat="42.88098" lon="2.54199">
        <ele>348.2</ele>
        <time>2021-03-21T08:59:32Z</time>
      </trkpt>
      <trkpt lat="42.88097" lon="2.54186">
        <ele>348.3</ele>
        <time>2021-03-21T08:59:34Z</time>
      </trkpt>
      <trkpt lat="42.88095" lon="2.54173">
        <ele>348.5</ele>
        <time>2021-03-21T08:59:36Z</time>
      </trkpt>
      <trkpt lat="42.88095" lon="2.54166">
        <ele>348.6</ele>
        <time>2021-03-21T08:59:37Z</time>
      </trkpt>
      <trkpt lat="42.88094" lon="2.54153">
        <ele>348.7</ele>
        <time>2021-03-21T08:59:39Z</time>
      </trkpt>
      <trkpt lat="42.88093" lon="2.54147">
        <ele>348.8</ele>
        <time>2021-03-21T08:59:40Z</time>
      </trkpt>
      <trkpt lat="42.88093" lon="2.5414">
        <ele>348.9</ele>
        <time>2021-03-21T08:59:41Z</time>
      </trkpt>
      <trkpt lat="42.88092" lon="2.54126">
        <ele>349.1</ele>
        <time>2021-03-21T08:59:43Z</time>
      </trkpt>
      <trkpt lat="42.88091" lon="2.54113">
        <ele>349.3</ele>
        <time>2021-03-21T08:59:45Z</time>
      </trkpt>
      <trkpt lat="42.8809" lon="2.541">
        <ele>349.5</ele>
        <time>2021-03-21T08:59:47Z</time>
      </trkpt>
      <trkpt lat="42.88089" lon="2.54093">
        <ele>349.5</ele>
        <time>2021-03-21T08:59:48Z</time>
      </trkpt>
      <trkpt lat="42.88088" lon="2.5408">
        <ele>349.7</ele>
        <time>2021-03-21T08:59:50Z</time>
      </trkpt>
      <trkpt lat="42.88087" lon="2.54066">
        <ele>349.8</ele>
        <time>2021-03-21T08:59:52Z</time>
      </trkpt>
      <trkpt lat="42.88086" lon="2.5406">
        <ele>349.9</ele>
        <time>2021-03-21T08:59:53Z</time>
      </trkpt>
      <trkpt lat="42.88085" lon="2.54047">
        <ele>350</ele>
        <time>2021-03-21T08:59:55Z</time>
      </trkpt>
      <trkpt lat="42.88084" lon="2.54041">
        <ele>350.1</ele>
        <time>2021-03-21T08:59:56Z</time>
      </trkpt>
      <trkpt lat="42.88084" lon="2.54034">
        <ele>350.2</ele>
        <time>2021-03-21T08:59:57Z</time>
      </trkpt>
      <trkpt lat="42.88083" lon="2.5402">
        <ele>350.4</ele>
        <time>2021-03-21T08:59:59Z</time>
      </trkpt>
      <trkpt lat="42.88082" lon="2.54007">
        <ele>350.5</ele>
        <time>2021-03-21T09:00:01Z</time>
      </trkpt>
      <trkpt lat="42.88082" lon="2.54">
        <ele>350.6</ele>
        <time>2021-03-21T09:00:02Z</time>
      </trkpt>
      <trkpt lat="42.88081" lon="2.53994">
        <ele>350.7</ele>
        <time>2021-03-21T09:00:03Z</time>
      </trkpt>
      <trkpt lat="42.88081" lon="2.53988">
        <ele>350.7</ele>
        <time>2021-03-21T09:00:04Z</time>
      </trkpt>
      <trkpt lat="42.8808" lon="2.53979">
        <ele>350.8</ele>
        <time>2021-03-21T09:00:06Z</time>
      </trkpt>
      <trkpt lat="42.88079" lon="2.53967">
        <ele>350.9</ele>
        <time>2021-03-21T09:00:08Z</time>
      </trkpt>
      <trkpt lat="42.88078" lon="2.5396">
        <ele>350.9</ele>
        <time>2021-03-21T09:00:09Z</time>
      </trkpt>
      <trkpt lat="42.88077" lon="2.53952">
        <ele>351</ele>
        <time>2021-03-21T09:00:10Z</time>
      </trkpt>
      <trkpt lat="42.88076" lon="2.53937">
        <ele>351.1</ele>
        <time>2021-03-21T09:00:12Z</time>
      </trkpt>
      <trkpt lat="42.88075" lon="2.53923">
        <ele>351.3</ele>
        <time>2021-03-21T09:00:14Z</time>
      </trkpt>
      <trkpt lat="42.88073" lon="2.53909">
        <ele>351.4</ele>
        <time>2021-03-21T09:00:16Z</time>
      </trkpt>
      <trkpt lat="42.88072" lon="2.53902">
        <ele>351.4</ele>
        <time>2021-03-21T09:00:17Z</time>
      </trkpt>
      <trkpt lat="42.88071" lon="2.53895">
        <ele>351.5</ele>
        <time>2021-03-21T09:00:18Z</time>
      </trkpt>
      <trkpt lat="42.88071" lon="2.53888">
        <ele>351.6</ele>
        <time>2021-03-21T09:00:19Z</time>
      </trkpt>
      <trkpt lat="42.88069" lon="2.53873">
        <ele>351.8</ele>
        <time>2021-03-21T09:00:21Z</time>
      </trkpt>
      <trkpt lat="42.88068" lon="2.53858">
        <ele>351.9</ele>
        <time>2021-03-21T09:00:23Z</time>
      </trkpt>
      <trkpt lat="42.88067" lon="2.53851">
        <ele>352</ele>
        <time>2021-03-21T09:00:24Z</time>
      </trkpt>
      <trkpt lat="42.88066" lon="2.53836">
        <ele>352.2</ele>
        <time>2021-03-21T09:00:26Z</time>
      </trkpt>
      <trkpt lat="42.88065" lon="2.5382">
        <ele>352.3</ele>
        <time>2021-03-21T09:00:28Z</time>
      </trkpt>
      <trkpt lat="42.88064" lon="2.53812">
        <ele>352.4</ele>
        <time>2021-03-21T09:00:29Z</time>
      </trkpt>
      <trkpt lat="42.88063" lon="2.53797">
        <ele>352.6</ele>
        <time>2021-03-21T09:00:31Z</time>
      </trkpt>
      <trkpt lat="42.88063" lon="2.53789">
        <ele>352.7</ele>
        <time>2021-03-21T09:00:32Z</time>
      </trkpt>
      <trkpt lat="42.88062" lon="2.53782">
        <ele>352.8</ele>
        <time>2021-03-21T09:00:33Z</time>
      </trkpt>
      <trkpt lat="42.8806" lon="2.53766">
        <ele>353.1</ele>
        <time>2021-03-21T09:00:35Z</time>
      </trkpt>
      <trkpt lat="42.88058" lon="2.53751">
        <ele>353.3</ele>
        <time>2021-03-21T09:00:37Z</time>
      </trkpt>
      <trkpt lat="42.88057" lon="2.53744">
        <ele>353.4</ele>
        <time>2021-03-21T09:00:38Z</time>
      </trkpt>
      <trkpt lat="42.88054" lon="2.53729">
        <ele>353.6</ele>
        <time>2021-03-21T09:00:40Z</time>
      </trkpt>
      <trkpt lat="42.88049" lon="2.53716">
        <ele>353.8</ele>
        <time>2021-03-21T09:00:42Z</time>
      </trkpt>
      <trkpt lat="42.88046" lon="2.53709">
        <ele>353.8</ele>
        <time>2021-03-21T09:00:43Z</time>
      </trkpt>
      <trkpt lat="42.8804" lon="2.53697">
        <ele>354</ele>
        <time>2021-03-21T09:00:45Z</time>
      </trkpt>
      <trkpt lat="42.88037" lon="2.53691">
        <ele>354</ele>
        <time>2021-03-21T09:00:46Z</time>
      </trkpt>
      <trkpt lat="42.88034" lon="2.53686">
        <ele>354.1</ele>
        <time>2021-03-21T09:00:47Z</time>
      </trkpt>
      <trkpt lat="42.88027" lon="2.53675">
        <ele>354.2</ele>
        <time>2021-03-21T09:00:49Z</time>
      </trkpt>
      <trkpt lat="42.88024" lon="2.53669">
        <ele>354.3</ele>
        <time>2021-03-21T09:00:50Z</time>
      </trkpt>
      <trkpt lat="42.88019" lon="2.53657">
        <ele>354.5</ele>
        <time>2021-03-21T09:00:52Z</time>
      </trkpt>
      <trkpt lat="42.88016" lon="2.5365">
        <ele>354.6</ele>
        <time>2021-03-21T09:00:53Z</time>
      </trkpt>
      <trkpt lat="42.88013" lon="2.53644">
        <ele>354.7</ele>
        <time>2021-03-21T09:00:54Z</time>
      </trkpt>
      <trkpt lat="42.88008" lon="2.53631">
        <ele>354.8</ele>
        <time>2021-03-21T09:00:56Z</time>
      </trkpt>
      <trkpt lat="42.88006" lon="2.53624">
        <ele>354.9</ele>
        <time>2021-03-21T09:00:57Z</time>
      </trkpt>
      <trkpt lat="42.88002" lon="2.5361">
        <ele>355.2</ele>
        <time>2021-03-21T09:00:59Z</time>
      </trkpt>
      <trkpt lat="42.88001" lon="2.53603">
        <ele>355.3</ele>
        <time>2021-03-21T09:01:00Z</time>
      </trkpt>
      <trkpt lat="42.87999" lon="2.53595">
        <ele>355.4</ele>
        <time>2021-03-21T09:01:01Z</time>
      </trkpt>
      <trkpt lat="42.87998" lon="2.53588">
        <ele>355.5</ele>
        <time>2021-03-21T09:01:02Z</time>
      </trkpt>
      <trkpt lat="42.87994" lon="2.53574">
        <ele>355.7</ele>
        <time>2021-03-21T09:01:04Z</time>
      </trkpt>
      <trkpt lat="42.87992" lon="2.53567">
        <ele>355.7</ele>
        <time>2021-03-21T09:01:05Z</time>
      </trkpt>
      <trkpt lat="42.8799" lon="2.53553">
        <ele>355.9</ele>
        <time>2021-03-21T09:01:07Z</time>
      </trkpt>
      <trkpt lat="42.87988" lon="2.53546">
        <ele>356</ele>
        <time>2021-03-21T09:01:08Z</time>
      </trkpt>
      <trkpt lat="42.87985" lon="2.53533">
        <ele>356.1</ele>
        <time>2021-03-21T09:01:10Z</time>
      </trkpt>
      <trkpt lat="42.8798" lon="2.53519">
        <ele>356.2</ele>
        <time>2021-03-21T09:01:12Z</time>
      </trkpt>
      <trkpt lat="42.87978" lon="2.53512">
        <ele>356.3</ele>
        <time>2021-03-21T09:01:13Z</time>
      </trkpt>
      <trkpt lat="42.87974" lon="2.53497">
        <ele>356.4</ele>
        <time>2021-03-21T09:01:15Z</time>
      </trkpt>
      <trkpt lat="42.87969" lon="2.53483">
        <ele>356.5</ele>
        <time>2021-03-21T09:01:17Z</time>
      </trkpt>
      <trkpt lat="42.87964" lon="2.53469">
        <ele>356.5</ele>
        <time>2021-03-21T09:01:19Z</time>
      </trkpt>
      <trkpt lat="42.87961" lon="2.53462">
        <ele>356.5</ele>
        <time>2021-03-21T09:01:20Z</time>
      </trkpt>
      <trkpt lat="42.87953" lon="2.5345">
        <ele>356.4</ele>
        <time>2021-03-21T09:01:22Z</time>
      </trkpt>
      <trkpt lat="42.87949" lon="2.53443">
        <ele>356.4</ele>
        <time>2021-03-21T09:01:23Z</time>
      </trkpt>
      <trkpt lat="42.87942" lon="2.53431">
        <ele>356.3</ele>
        <time>2021-03-21T09:01:25Z</time>
      </trkpt>
      <trkpt lat="42.87934" lon="2.53419">
        <ele>356.4</ele>
        <time>2021-03-21T09:01:27Z</time>
      </trkpt>
      <trkpt lat="42.8793" lon="2.53413">
        <ele>356.4</ele>
        <time>2021-03-21T09:01:28Z</time>
      </trkpt>
      <trkpt lat="42.87927" lon="2.53406">
        <ele>356.5</ele>
        <time>2021-03-21T09:01:29Z</time>
      </trkpt>
      <trkpt lat="42.87921" lon="2.53391">
        <ele>356.3</ele>
        <time>2021-03-21T09:01:31Z</time>
      </trkpt>
      <trkpt lat="42.87918" lon="2.53383">
        <ele>356.3</ele>
        <time>2021-03-21T09:01:32Z</time>
      </trkpt>
      <trkpt lat="42.87916" lon="2.53375">
        <ele>356.2</ele>
        <time>2021-03-21T09:01:33Z</time>
      </trkpt>
      <trkpt lat="42.87912" lon="2.53359">
        <ele>356.2</ele>
        <time>2021-03-21T09:01:35Z</time>
      </trkpt>
      <trkpt lat="42.87907" lon="2.53344">
        <ele>356.2</ele>
        <time>2021-03-21T09:01:37Z</time>
      </trkpt>
      <trkpt lat="42.87905" lon="2.53336">
        <ele>356.2</ele>
        <time>2021-03-21T09:01:38Z</time>
      </trkpt>
      <trkpt lat="42.87903" lon="2.53329">
        <ele>356.2</ele>
        <time>2021-03-21T09:01:39Z</time>
      </trkpt>
      <trkpt lat="42.87899" lon="2.53313">
        <ele>356.2</ele>
        <time>2021-03-21T09:01:41Z</time>
      </trkpt>
      <trkpt lat="42.87897" lon="2.53306">
        <ele>356.2</ele>
        <time>2021-03-21T09:01:42Z</time>
      </trkpt>
      <trkpt lat="42.87893" lon="2.53291">
        <ele>356.3</ele>
        <time>2021-03-21T09:01:44Z</time>
      </trkpt>
      <trkpt lat="42.87888" lon="2.53276">
        <ele>356.4</ele>
        <time>2021-03-21T09:01:46Z</time>
      </trkpt>
      <trkpt lat="42.87884" lon="2.53262">
        <ele>356.5</ele>
        <time>2021-03-21T09:01:48Z</time>
      </trkpt>
      <trkpt lat="42.87882" lon="2.53255">
        <ele>356.6</ele>
        <time>2021-03-21T09:01:49Z</time>
      </trkpt>
      <trkpt lat="42.87878" lon="2.53242">
        <ele>356.7</ele>
        <time>2021-03-21T09:01:51Z</time>
      </trkpt>
      <trkpt lat="42.87876" lon="2.53235">
        <ele>356.7</ele>
        <time>2021-03-21T09:01:52Z</time>
      </trkpt>
      <trkpt lat="42.87872" lon="2.5322">
        <ele>356.8</ele>
        <time>2021-03-21T09:01:54Z</time>
      </trkpt>
      <trkpt lat="42.87868" lon="2.53205">
        <ele>356.9</ele>
        <time>2021-03-21T09:01:56Z</time>
      </trkpt>
      <trkpt lat="42.87865" lon="2.5319">
        <ele>357.1</ele>
        <time>2021-03-21T09:01:58Z</time>
      </trkpt>
      <trkpt lat="42.87864" lon="2.53183">
        <ele>357.1</ele>
        <time>2021-03-21T09:01:59Z</time>
      </trkpt>
      <trkpt lat="42.87862" lon="2.53176">
        <ele>357.2</ele>
        <time>2021-03-21T09:02:00Z</time>
      </trkpt>
      <trkpt lat="42.8786" lon="2.53161">
        <ele>357.4</ele>
        <time>2021-03-21T09:02:02Z</time>
      </trkpt>
      <trkpt lat="42.87858" lon="2.53147">
        <ele>357.6</ele>
        <time>2021-03-21T09:02:04Z</time>
      </trkpt>
      <trkpt lat="42.87857" lon="2.5314">
        <ele>357.7</ele>
        <time>2021-03-21T09:02:05Z</time>
      </trkpt>
      <trkpt lat="42.87855" lon="2.53125">
        <ele>357.9</ele>
        <time>2021-03-21T09:02:07Z</time>
      </trkpt>
      <trkpt lat="42.87852" lon="2.53111">
        <ele>358.1</ele>
        <time>2021-03-21T09:02:09Z</time>
      </trkpt>
      <trkpt lat="42.87851" lon="2.53104">
        <ele>358.2</ele>
        <time>2021-03-21T09:02:10Z</time>
      </trkpt>
      <trkpt lat="42.87849" lon="2.53089">
        <ele>358.4</ele>
        <time>2021-03-21T09:02:12Z</time>
      </trkpt>
      <trkpt lat="42.87847" lon="2.53082">
        <ele>358.5</ele>
        <time>2021-03-21T09:02:13Z</time>
      </trkpt>
      <trkpt lat="42.87845" lon="2.53068">
        <ele>358.7</ele>
        <time>2021-03-21T09:02:15Z</time>
      </trkpt>
      <trkpt lat="42.87844" lon="2.53061">
        <ele>358.8</ele>
        <time>2021-03-21T09:02:16Z</time>
      </trkpt>
      <trkpt lat="42.87842" lon="2.53047">
        <ele>359</ele>
        <time>2021-03-21T09:02:18Z</time>
      </trkpt>
      <trkpt lat="42.8784" lon="2.53034">
        <ele>359.2</ele>
        <time>2021-03-21T09:02:20Z</time>
      </trkpt>
      <trkpt lat="42.87838" lon="2.5302">
        <ele>359.3</ele>
        <time>2021-03-21T09:02:22Z</time>
      </trkpt>
      <trkpt lat="42.87835" lon="2.53006">
        <ele>359.5</ele>
        <time>2021-03-21T09:02:24Z</time>
      </trkpt>
      <trkpt lat="42.87834" lon="2.53">
        <ele>359.6</ele>
        <time>2021-03-21T09:02:25Z</time>
      </trkpt>
      <trkpt lat="42.87832" lon="2.52993">
        <ele>359.7</ele>
        <time>2021-03-21T09:02:26Z</time>
      </trkpt>
      <trkpt lat="42.87831" lon="2.52986">
        <ele>359.7</ele>
        <time>2021-03-21T09:02:27Z</time>
      </trkpt>
      <trkpt lat="42.87829" lon="2.52973">
        <ele>359.9</ele>
        <time>2021-03-21T09:02:29Z</time>
      </trkpt>
      <trkpt lat="42.87826" lon="2.52959">
        <ele>360.1</ele>
        <time>2021-03-21T09:02:31Z</time>
      </trkpt>
      <trkpt lat="42.87825" lon="2.52952">
        <ele>360.2</ele>
        <time>2021-03-21T09:02:32Z</time>
      </trkpt>
      <trkpt lat="42.87823" lon="2.52939">
        <ele>360.4</ele>
        <time>2021-03-21T09:02:34Z</time>
      </trkpt>
      <trkpt lat="42.87821" lon="2.52926">
        <ele>360.6</ele>
        <time>2021-03-21T09:02:36Z</time>
      </trkpt>
      <trkpt lat="42.8782" lon="2.52919">
        <ele>360.8</ele>
        <time>2021-03-21T09:02:37Z</time>
      </trkpt>
      <trkpt lat="42.87818" lon="2.52906">
        <ele>361</ele>
        <time>2021-03-21T09:02:39Z</time>
      </trkpt>
      <trkpt lat="42.87818" lon="2.529">
        <ele>361.1</ele>
        <time>2021-03-21T09:02:40Z</time>
      </trkpt>
      <trkpt lat="42.87817" lon="2.52893">
        <ele>361.2</ele>
        <time>2021-03-21T09:02:41Z</time>
      </trkpt>
      <trkpt lat="42.87816" lon="2.52887">
        <ele>361.3</ele>
        <time>2021-03-21T09:02:42Z</time>
      </trkpt>
      <trkpt lat="42.87816" lon="2.52881">
        <ele>361.4</ele>
        <time>2021-03-21T09:02:43Z</time>
      </trkpt>
      <trkpt lat="42.87815" lon="2.52869">
        <ele>361.6</ele>
        <time>2021-03-21T09:02:45Z</time>
      </trkpt>
      <trkpt lat="42.87815" lon="2.52856">
        <ele>361.9</ele>
        <time>2021-03-21T09:02:47Z</time>
      </trkpt>
      <trkpt lat="42.87814" lon="2.52843">
        <ele>362.1</ele>
        <time>2021-03-21T09:02:49Z</time>
      </trkpt>
      <trkpt lat="42.87814" lon="2.52829">
        <ele>362.3</ele>
        <time>2021-03-21T09:02:51Z</time>
      </trkpt>
      <trkpt lat="42.87813" lon="2.52823">
        <ele>362.4</ele>
        <time>2021-03-21T09:02:52Z</time>
      </trkpt>
      <trkpt lat="42.87812" lon="2.52812">
        <ele>362.5</ele>
        <time>2021-03-21T09:02:54Z</time>
      </trkpt>
      <trkpt lat="42.87812" lon="2.52805">
        <ele>362.6</ele>
        <time>2021-03-21T09:02:55Z</time>
      </trkpt>
      <trkpt lat="42.87811" lon="2.52791">
        <ele>362.8</ele>
        <time>2021-03-21T09:02:57Z</time>
      </trkpt>
      <trkpt lat="42.8781" lon="2.52777">
        <ele>362.9</ele>
        <time>2021-03-21T09:02:59Z</time>
      </trkpt>
      <trkpt lat="42.8781" lon="2.5277">
        <ele>363</ele>
        <time>2021-03-21T09:03:00Z</time>
      </trkpt>
      <trkpt lat="42.87809" lon="2.52756">
        <ele>363.1</ele>
        <time>2021-03-21T09:03:02Z</time>
      </trkpt>
      <trkpt lat="42.87808" lon="2.52749">
        <ele>363.2</ele>
        <time>2021-03-21T09:03:03Z</time>
      </trkpt>
      <trkpt lat="42.87806" lon="2.52734">
        <ele>363.3</ele>
        <time>2021-03-21T09:03:05Z</time>
      </trkpt>
      <trkpt lat="42.87805" lon="2.5272">
        <ele>363.4</ele>
        <time>2021-03-21T09:03:07Z</time>
      </trkpt>
      <trkpt lat="42.87804" lon="2.52713">
        <ele>363.4</ele>
        <time>2021-03-21T09:03:08Z</time>
      </trkpt>
      <trkpt lat="42.87802" lon="2.52699">
        <ele>363.5</ele>
        <time>2021-03-21T09:03:10Z</time>
      </trkpt>
      <trkpt lat="42.878" lon="2.52685">
        <ele>363.6</ele>
        <time>2021-03-21T09:03:12Z</time>
      </trkpt>
      <trkpt lat="42.87799" lon="2.52672">
        <ele>363.7</ele>
        <time>2021-03-21T09:03:14Z</time>
      </trkpt>
      <trkpt lat="42.87798" lon="2.52665">
        <ele>363.7</ele>
        <time>2021-03-21T09:03:15Z</time>
      </trkpt>
      <trkpt lat="42.87797" lon="2.52658">
        <ele>363.8</ele>
        <time>2021-03-21T09:03:16Z</time>
      </trkpt>
      <trkpt lat="42.87795" lon="2.52644">
        <ele>363.9</ele>
        <time>2021-03-21T09:03:18Z</time>
      </trkpt>
      <trkpt lat="42.87795" lon="2.52636">
        <ele>363.9</ele>
        <time>2021-03-21T09:03:19Z</time>
      </trkpt>
      <trkpt lat="42.87796" lon="2.52622">
        <ele>364</ele>
        <time>2021-03-21T09:03:21Z</time>
      </trkpt>
      <trkpt lat="42.87797" lon="2.52615">
        <ele>364</ele>
        <time>2021-03-21T09:03:22Z</time>
      </trkpt>
      <trkpt lat="42.878" lon="2.52603">
        <ele>364.1</ele>
        <time>2021-03-21T09:03:24Z</time>
      </trkpt>
      <trkpt lat="42.87806" lon="2.52592">
        <ele>364.2</ele>
        <time>2021-03-21T09:03:26Z</time>
      </trkpt>
      <trkpt lat="42.87809" lon="2.52586">
        <ele>364.3</ele>
        <time>2021-03-21T09:03:27Z</time>
      </trkpt>
      <trkpt lat="42.87815" lon="2.52574">
        <ele>364.4</ele>
        <time>2021-03-21T09:03:29Z</time>
      </trkpt>
      <trkpt lat="42.8782" lon="2.52562">
        <ele>364.5</ele>
        <time>2021-03-21T09:03:31Z</time>
      </trkpt>
      <trkpt lat="42.87824" lon="2.5255">
        <ele>364.7</ele>
        <time>2021-03-21T09:03:33Z</time>
      </trkpt>
      <trkpt lat="42.87826" lon="2.52544">
        <ele>364.7</ele>
        <time>2021-03-21T09:03:34Z</time>
      </trkpt>
      <trkpt lat="42.8783" lon="2.52532">
        <ele>364.9</ele>
        <time>2021-03-21T09:03:36Z</time>
      </trkpt>
      <trkpt lat="42.87832" lon="2.52526">
        <ele>365</ele>
        <time>2021-03-21T09:03:37Z</time>
      </trkpt>
      <trkpt lat="42.87837" lon="2.52515">
        <ele>365.2</ele>
        <time>2021-03-21T09:03:39Z</time>
      </trkpt>
      <trkpt lat="42.87839" lon="2.52509">
        <ele>365.3</ele>
        <time>2021-03-21T09:03:40Z</time>
      </trkpt>
      <trkpt lat="42.87841" lon="2.52503">
        <ele>365.3</ele>
        <time>2021-03-21T09:03:41Z</time>
      </trkpt>
      <trkpt lat="42.87845" lon="2.5249">
        <ele>365.5</ele>
        <time>2021-03-21T09:03:43Z</time>
      </trkpt>
      <trkpt lat="42.87847" lon="2.52484">
        <ele>365.6</ele>
        <time>2021-03-21T09:03:44Z</time>
      </trkpt>
      <trkpt lat="42.87849" lon="2.52478">
        <ele>365.7</ele>
        <time>2021-03-21T09:03:45Z</time>
      </trkpt>
      <trkpt lat="42.87854" lon="2.52465">
        <ele>365.9</ele>
        <time>2021-03-21T09:03:47Z</time>
      </trkpt>
      <trkpt lat="42.87858" lon="2.52451">
        <ele>366</ele>
        <time>2021-03-21T09:03:49Z</time>
      </trkpt>
      <trkpt lat="42.87863" lon="2.52438">
        <ele>366.2</ele>
        <time>2021-03-21T09:03:51Z</time>
      </trkpt>
      <trkpt lat="42.87868" lon="2.52425">
        <ele>366.3</ele>
        <time>2021-03-21T09:03:53Z</time>
      </trkpt>
      <trkpt lat="42.87872" lon="2.52412">
        <ele>366.5</ele>
        <time>2021-03-21T09:03:55Z</time>
      </trkpt>
      <trkpt lat="42.87876" lon="2.52399">
        <ele>366.7</ele>
        <time>2021-03-21T09:03:57Z</time>
      </trkpt>
      <trkpt lat="42.87878" lon="2.52385">
        <ele>366.9</ele>
        <time>2021-03-21T09:03:59Z</time>
      </trkpt>
      <trkpt lat="42.87878" lon="2.52378">
        <ele>367</ele>
        <time>2021-03-21T09:04:00Z</time>
      </trkpt>
      <trkpt lat="42.87876" lon="2.52364">
        <ele>367.1</ele>
        <time>2021-03-21T09:04:02Z</time>
      </trkpt>
      <trkpt lat="42.87873" lon="2.52351">
        <ele>367.2</ele>
        <time>2021-03-21T09:04:04Z</time>
      </trkpt>
      <trkpt lat="42.8787" lon="2.52338">
        <ele>367.3</ele>
        <time>2021-03-21T09:04:06Z</time>
      </trkpt>
      <trkpt lat="42.87869" lon="2.52331">
        <ele>367.4</ele>
        <time>2021-03-21T09:04:07Z</time>
      </trkpt>
      <trkpt lat="42.87866" lon="2.52318">
        <ele>367.5</ele>
        <time>2021-03-21T09:04:09Z</time>
      </trkpt>
      <trkpt lat="42.87864" lon="2.52304">
        <ele>367.7</ele>
        <time>2021-03-21T09:04:11Z</time>
      </trkpt>
      <trkpt lat="42.87863" lon="2.52297">
        <ele>367.7</ele>
        <time>2021-03-21T09:04:12Z</time>
      </trkpt>
      <trkpt lat="42.87862" lon="2.5229">
        <ele>367.8</ele>
        <time>2021-03-21T09:04:13Z</time>
      </trkpt>
      <trkpt lat="42.8786" lon="2.52275">
        <ele>367.8</ele>
        <time>2021-03-21T09:04:15Z</time>
      </trkpt>
      <trkpt lat="42.87859" lon="2.52268">
        <ele>367.8</ele>
        <time>2021-03-21T09:04:16Z</time>
      </trkpt>
      <trkpt lat="42.87857" lon="2.52261">
        <ele>367.9</ele>
        <time>2021-03-21T09:04:17Z</time>
      </trkpt>
      <trkpt lat="42.87855" lon="2.52246">
        <ele>367.9</ele>
        <time>2021-03-21T09:04:19Z</time>
      </trkpt>
      <trkpt lat="42.87854" lon="2.52238">
        <ele>368</ele>
        <time>2021-03-21T09:04:20Z</time>
      </trkpt>
      <trkpt lat="42.87852" lon="2.52223">
        <ele>368</ele>
        <time>2021-03-21T09:04:22Z</time>
      </trkpt>
      <trkpt lat="42.87851" lon="2.52216">
        <ele>368</ele>
        <time>2021-03-21T09:04:23Z</time>
      </trkpt>
      <trkpt lat="42.87849" lon="2.52208">
        <ele>368.1</ele>
        <time>2021-03-21T09:04:24Z</time>
      </trkpt>
      <trkpt lat="42.87848" lon="2.52193">
        <ele>368.2</ele>
        <time>2021-03-21T09:04:26Z</time>
      </trkpt>
      <trkpt lat="42.87847" lon="2.52177">
        <ele>368.2</ele>
        <time>2021-03-21T09:04:28Z</time>
      </trkpt>
      <trkpt lat="42.87846" lon="2.52161">
        <ele>368.3</ele>
        <time>2021-03-21T09:04:30Z</time>
      </trkpt>
      <trkpt lat="42.87845" lon="2.52154">
        <ele>368.4</ele>
        <time>2021-03-21T09:04:31Z</time>
      </trkpt>
      <trkpt lat="42.87844" lon="2.52139">
        <ele>368.4</ele>
        <time>2021-03-21T09:04:33Z</time>
      </trkpt>
      <trkpt lat="42.87843" lon="2.52125">
        <ele>368.5</ele>
        <time>2021-03-21T09:04:35Z</time>
      </trkpt>
      <trkpt lat="42.87842" lon="2.5211">
        <ele>368.6</ele>
        <time>2021-03-21T09:04:37Z</time>
      </trkpt>
      <trkpt lat="42.87842" lon="2.52103">
        <ele>368.7</ele>
        <time>2021-03-21T09:04:38Z</time>
      </trkpt>
      <trkpt lat="42.87841" lon="2.52088">
        <ele>368.8</ele>
        <time>2021-03-21T09:04:40Z</time>
      </trkpt>
      <trkpt lat="42.87841" lon="2.5208">
        <ele>368.9</ele>
        <time>2021-03-21T09:04:41Z</time>
      </trkpt>
      <trkpt lat="42.8784" lon="2.52064">
        <ele>369</ele>
        <time>2021-03-21T09:04:43Z</time>
      </trkpt>
      <trkpt lat="42.87839" lon="2.52048">
        <ele>369.3</ele>
        <time>2021-03-21T09:04:45Z</time>
      </trkpt>
      <trkpt lat="42.87839" lon="2.5204">
        <ele>369.4</ele>
        <time>2021-03-21T09:04:46Z</time>
      </trkpt>
      <trkpt lat="42.87837" lon="2.52025">
        <ele>369.6</ele>
        <time>2021-03-21T09:04:48Z</time>
      </trkpt>
      <trkpt lat="42.87836" lon="2.52018">
        <ele>369.8</ele>
        <time>2021-03-21T09:04:49Z</time>
      </trkpt>
      <trkpt lat="42.87834" lon="2.52003">
        <ele>370</ele>
        <time>2021-03-21T09:04:51Z</time>
      </trkpt>
      <trkpt lat="42.87829" lon="2.51989">
        <ele>370.2</ele>
        <time>2021-03-21T09:04:53Z</time>
      </trkpt>
      <trkpt lat="42.87824" lon="2.51975">
        <ele>370.4</ele>
        <time>2021-03-21T09:04:55Z</time>
      </trkpt>
      <trkpt lat="42.87819" lon="2.51962">
        <ele>370.7</ele>
        <time>2021-03-21T09:04:57Z</time>
      </trkpt>
      <trkpt lat="42.87817" lon="2.51956">
        <ele>370.8</ele>
        <time>2021-03-21T09:04:58Z</time>
      </trkpt>
      <trkpt lat="42.87814" lon="2.51949">
        <ele>370.9</ele>
        <time>2021-03-21T09:04:59Z</time>
      </trkpt>
      <trkpt lat="42.87809" lon="2.51936">
        <ele>371.2</ele>
        <time>2021-03-21T09:05:01Z</time>
      </trkpt>
      <trkpt lat="42.87807" lon="2.5193">
        <ele>371.4</ele>
        <time>2021-03-21T09:05:02Z</time>
      </trkpt>
      <trkpt lat="42.87803" lon="2.51918">
        <ele>371.6</ele>
        <time>2021-03-21T09:05:04Z</time>
      </trkpt>
      <trkpt lat="42.87802" lon="2.51911">
        <ele>371.8</ele>
        <time>2021-03-21T09:05:05Z</time>
      </trkpt>
      <trkpt lat="42.87798" lon="2.51898">
        <ele>372</ele>
        <time>2021-03-21T09:05:07Z</time>
      </trkpt>
      <trkpt lat="42.87797" lon="2.51891">
        <ele>372.1</ele>
        <time>2021-03-21T09:05:08Z</time>
      </trkpt>
      <trkpt lat="42.87793" lon="2.51878">
        <ele>372.2</ele>
        <time>2021-03-21T09:05:10Z</time>
      </trkpt>
      <trkpt lat="42.8779" lon="2.51864">
        <ele>372.4</ele>
        <time>2021-03-21T09:05:12Z</time>
      </trkpt>
      <trkpt lat="42.87786" lon="2.51851">
        <ele>372.5</ele>
        <time>2021-03-21T09:05:14Z</time>
      </trkpt>
      <trkpt lat="42.87785" lon="2.51844">
        <ele>372.6</ele>
        <time>2021-03-21T09:05:15Z</time>
      </trkpt>
      <trkpt lat="42.87781" lon="2.51831">
        <ele>372.7</ele>
        <time>2021-03-21T09:05:17Z</time>
      </trkpt>
      <trkpt lat="42.87778" lon="2.51818">
        <ele>372.7</ele>
        <time>2021-03-21T09:05:19Z</time>
      </trkpt>
      <trkpt lat="42.87775" lon="2.51805">
        <ele>372.8</ele>
        <time>2021-03-21T09:05:21Z</time>
      </trkpt>
      <trkpt lat="42.87774" lon="2.51798">
        <ele>372.8</ele>
        <time>2021-03-21T09:05:22Z</time>
      </trkpt>
      <trkpt lat="42.87772" lon="2.51784">
        <ele>372.8</ele>
        <time>2021-03-21T09:05:24Z</time>
      </trkpt>
      <trkpt lat="42.87772" lon="2.51769">
        <ele>372.9</ele>
        <time>2021-03-21T09:05:26Z</time>
      </trkpt>
      <trkpt lat="42.87774" lon="2.51762">
        <ele>372.9</ele>
        <time>2021-03-21T09:05:27Z</time>
      </trkpt>
      <trkpt lat="42.87776" lon="2.51754">
        <ele>373</ele>
        <time>2021-03-21T09:05:28Z</time>
      </trkpt>
      <trkpt lat="42.87778" lon="2.51747">
        <ele>373</ele>
        <time>2021-03-21T09:05:29Z</time>
      </trkpt>
      <trkpt lat="42.87782" lon="2.51733">
        <ele>373.1</ele>
        <time>2021-03-21T09:05:31Z</time>
      </trkpt>
      <trkpt lat="42.87784" lon="2.51726">
        <ele>373.2</ele>
        <time>2021-03-21T09:05:32Z</time>
      </trkpt>
      <trkpt lat="42.87785" lon="2.51711">
        <ele>373.3</ele>
        <time>2021-03-21T09:05:34Z</time>
      </trkpt>
      <trkpt lat="42.87784" lon="2.51703">
        <ele>373.4</ele>
        <time>2021-03-21T09:05:35Z</time>
      </trkpt>
      <trkpt lat="42.87782" lon="2.51688">
        <ele>373.5</ele>
        <time>2021-03-21T09:05:37Z</time>
      </trkpt>
      <trkpt lat="42.87779" lon="2.51673">
        <ele>373.5</ele>
        <time>2021-03-21T09:05:39Z</time>
      </trkpt>
      <trkpt lat="42.87776" lon="2.51657">
        <ele>373.5</ele>
        <time>2021-03-21T09:05:41Z</time>
      </trkpt>
      <trkpt lat="42.87774" lon="2.5165">
        <ele>373.5</ele>
        <time>2021-03-21T09:05:42Z</time>
      </trkpt>
      <trkpt lat="42.87772" lon="2.51642">
        <ele>373.5</ele>
        <time>2021-03-21T09:05:43Z</time>
      </trkpt>
      <trkpt lat="42.87769" lon="2.51628">
        <ele>373.5</ele>
        <time>2021-03-21T09:05:45Z</time>
      </trkpt>
      <trkpt lat="42.87767" lon="2.51613">
        <ele>373.4</ele>
        <time>2021-03-21T09:05:47Z</time>
      </trkpt>
      <trkpt lat="42.87764" lon="2.51598">
        <ele>373.4</ele>
        <time>2021-03-21T09:05:49Z</time>
      </trkpt>
      <trkpt lat="42.87763" lon="2.51591">
        <ele>373.4</ele>
        <time>2021-03-21T09:05:50Z</time>
      </trkpt>
      <trkpt lat="42.87759" lon="2.51577">
        <ele>373.4</ele>
        <time>2021-03-21T09:05:52Z</time>
      </trkpt>
      <trkpt lat="42.87758" lon="2.51571">
        <ele>373.4</ele>
        <time>2021-03-21T09:05:53Z</time>
      </trkpt>
      <trkpt lat="42.87754" lon="2.51557">
        <ele>373.3</ele>
        <time>2021-03-21T09:05:55Z</time>
      </trkpt>
      <trkpt lat="42.87752" lon="2.5155">
        <ele>373.3</ele>
        <time>2021-03-21T09:05:56Z</time>
      </trkpt>
      <trkpt lat="42.87749" lon="2.51536">
        <ele>373.2</ele>
        <time>2021-03-21T09:05:58Z</time>
      </trkpt>
      <trkpt lat="42.87745" lon="2.51521">
        <ele>373.2</ele>
        <time>2021-03-21T09:06:00Z</time>
      </trkpt>
      <trkpt lat="42.87743" lon="2.51513">
        <ele>373.1</ele>
        <time>2021-03-21T09:06:01Z</time>
      </trkpt>
      <trkpt lat="42.87739" lon="2.51498">
        <ele>373.2</ele>
        <time>2021-03-21T09:06:03Z</time>
      </trkpt>
      <trkpt lat="42.87737" lon="2.5149">
        <ele>373.2</ele>
        <time>2021-03-21T09:06:04Z</time>
      </trkpt>
      <trkpt lat="42.87735" lon="2.51483">
        <ele>373.2</ele>
        <time>2021-03-21T09:06:05Z</time>
      </trkpt>
      <trkpt lat="42.87733" lon="2.51476">
        <ele>373.2</ele>
        <time>2021-03-21T09:06:06Z</time>
      </trkpt>
      <trkpt lat="42.87728" lon="2.51462">
        <ele>373.3</ele>
        <time>2021-03-21T09:06:08Z</time>
      </trkpt>
      <trkpt lat="42.87724" lon="2.51448">
        <ele>373.5</ele>
        <time>2021-03-21T09:06:10Z</time>
      </trkpt>
      <trkpt lat="42.8772" lon="2.51434">
        <ele>373.7</ele>
        <time>2021-03-21T09:06:12Z</time>
      </trkpt>
      <trkpt lat="42.87717" lon="2.5142">
        <ele>373.8</ele>
        <time>2021-03-21T09:06:14Z</time>
      </trkpt>
      <trkpt lat="42.87715" lon="2.51406">
        <ele>373.9</ele>
        <time>2021-03-21T09:06:16Z</time>
      </trkpt>
      <trkpt lat="42.87712" lon="2.51391">
        <ele>374.1</ele>
        <time>2021-03-21T09:06:18Z</time>
      </trkpt>
      <trkpt lat="42.87711" lon="2.51383">
        <ele>374.3</ele>
        <time>2021-03-21T09:06:19Z</time>
      </trkpt>
      <trkpt lat="42.87711" lon="2.51367">
        <ele>374.6</ele>
        <time>2021-03-21T09:06:21Z</time>
      </trkpt>
      <trkpt lat="42.8771" lon="2.51352">
        <ele>375</ele>
        <time>2021-03-21T09:06:23Z</time>
      </trkpt>
      <trkpt lat="42.87708" lon="2.51337">
        <ele>375.3</ele>
        <time>2021-03-21T09:06:25Z</time>
      </trkpt>
      <trkpt lat="42.87708" lon="2.5133">
        <ele>375.4</ele>
        <time>2021-03-21T09:06:26Z</time>
      </trkpt>
      <trkpt lat="42.87707" lon="2.51318">
        <ele>375.7</ele>
        <time>2021-03-21T09:06:28Z</time>
      </trkpt>
      <trkpt lat="42.87705" lon="2.51304">
        <ele>376.1</ele>
        <time>2021-03-21T09:06:30Z</time>
      </trkpt>
      <trkpt lat="42.87704" lon="2.51297">
        <ele>376.3</ele>
        <time>2021-03-21T09:06:31Z</time>
      </trkpt>
      <trkpt lat="42.87703" lon="2.5129">
        <ele>376.5</ele>
        <time>2021-03-21T09:06:32Z</time>
      </trkpt>
      <trkpt lat="42.87701" lon="2.51282">
        <ele>376.7</ele>
        <time>2021-03-21T09:06:33Z</time>
      </trkpt>
      <trkpt lat="42.87698" lon="2.51266">
        <ele>377.1</ele>
        <time>2021-03-21T09:06:35Z</time>
      </trkpt>
      <trkpt lat="42.87696" lon="2.51258">
        <ele>377.3</ele>
        <time>2021-03-21T09:06:36Z</time>
      </trkpt>
      <trkpt lat="42.87693" lon="2.51251">
        <ele>377.5</ele>
        <time>2021-03-21T09:06:37Z</time>
      </trkpt>
      <trkpt lat="42.87689" lon="2.51237">
        <ele>377.9</ele>
        <time>2021-03-21T09:06:39Z</time>
      </trkpt>
      <trkpt lat="42.87686" lon="2.51224">
        <ele>378.3</ele>
        <time>2021-03-21T09:06:41Z</time>
      </trkpt>
      <trkpt lat="42.87684" lon="2.51217">
        <ele>378.5</ele>
        <time>2021-03-21T09:06:42Z</time>
      </trkpt>
      <trkpt lat="42.87683" lon="2.51209">
        <ele>378.7</ele>
        <time>2021-03-21T09:06:43Z</time>
      </trkpt>
      <trkpt lat="42.87682" lon="2.51202">
        <ele>378.8</ele>
        <time>2021-03-21T09:06:44Z</time>
      </trkpt>
      <trkpt lat="42.87681" lon="2.51187">
        <ele>379.2</ele>
        <time>2021-03-21T09:06:46Z</time>
      </trkpt>
      <trkpt lat="42.87682" lon="2.5118">
        <ele>379.4</ele>
        <time>2021-03-21T09:06:47Z</time>
      </trkpt>
      <trkpt lat="42.87684" lon="2.51168">
        <ele>379.7</ele>
        <time>2021-03-21T09:06:49Z</time>
      </trkpt>
      <trkpt lat="42.87686" lon="2.51163">
        <ele>379.8</ele>
        <time>2021-03-21T09:06:50Z</time>
      </trkpt>
      <trkpt lat="42.87691" lon="2.51151">
        <ele>380.1</ele>
        <time>2021-03-21T09:06:52Z</time>
      </trkpt>
      <trkpt lat="42.87698" lon="2.51141">
        <ele>380.4</ele>
        <time>2021-03-21T09:06:54Z</time>
      </trkpt>
      <trkpt lat="42.87706" lon="2.51134">
        <ele>380.6</ele>
        <time>2021-03-21T09:06:56Z</time>
      </trkpt>
      <trkpt lat="42.87709" lon="2.51138">
        <ele>380.7</ele>
        <time>2021-03-21T09:06:58Z</time>
      </trkpt>
      <trkpt lat="42.87712" lon="2.51133">
        <ele>380.9</ele>
        <time>2021-03-21T09:07:00Z</time>
      </trkpt>
      <trkpt lat="42.87724" lon="2.51129">
        <ele>381.1</ele>
        <time>2021-03-21T09:07:01Z</time>
      </trkpt>
      <trkpt lat="42.87736" lon="2.51128">
        <ele>381.3</ele>
        <time>2021-03-21T09:07:03Z</time>
      </trkpt>
      <trkpt lat="42.87742" lon="2.51128">
        <ele>381.4</ele>
        <time>2021-03-21T09:07:04Z</time>
      </trkpt>
      <trkpt lat="42.87747" lon="2.51128">
        <ele>381.5</ele>
        <time>2021-03-21T09:07:05Z</time>
      </trkpt>
      <trkpt lat="42.87758" lon="2.51126">
        <ele>381.8</ele>
        <time>2021-03-21T09:07:07Z</time>
      </trkpt>
      <trkpt lat="42.87763" lon="2.51124">
        <ele>381.9</ele>
        <time>2021-03-21T09:07:08Z</time>
      </trkpt>
      <trkpt lat="42.87768" lon="2.51121">
        <ele>382.1</ele>
        <time>2021-03-21T09:07:09Z</time>
      </trkpt>
      <trkpt lat="42.87773" lon="2.51117">
        <ele>382.2</ele>
        <time>2021-03-21T09:07:10Z</time>
      </trkpt>
      <trkpt lat="42.87778" lon="2.51114">
        <ele>382.4</ele>
        <time>2021-03-21T09:07:11Z</time>
      </trkpt>
      <trkpt lat="42.87787" lon="2.51106">
        <ele>382.6</ele>
        <time>2021-03-21T09:07:13Z</time>
      </trkpt>
      <trkpt lat="42.87791" lon="2.51101">
        <ele>382.7</ele>
        <time>2021-03-21T09:07:14Z</time>
      </trkpt>
      <trkpt lat="42.87799" lon="2.51092">
        <ele>382.9</ele>
        <time>2021-03-21T09:07:16Z</time>
      </trkpt>
      <trkpt lat="42.87808" lon="2.51084">
        <ele>383</ele>
        <time>2021-03-21T09:07:18Z</time>
      </trkpt>
      <trkpt lat="42.87812" lon="2.5108">
        <ele>383.1</ele>
        <time>2021-03-21T09:07:19Z</time>
      </trkpt>
      <trkpt lat="42.87817" lon="2.51076">
        <ele>383.2</ele>
        <time>2021-03-21T09:07:20Z</time>
      </trkpt>
      <trkpt lat="42.87825" lon="2.51068">
        <ele>383.5</ele>
        <time>2021-03-21T09:07:22Z</time>
      </trkpt>
      <trkpt lat="42.8783" lon="2.51064">
        <ele>383.6</ele>
        <time>2021-03-21T09:07:23Z</time>
      </trkpt>
      <trkpt lat="42.87838" lon="2.51055">
        <ele>383.8</ele>
        <time>2021-03-21T09:07:25Z</time>
      </trkpt>
      <trkpt lat="42.87845" lon="2.51046">
        <ele>384.1</ele>
        <time>2021-03-21T09:07:27Z</time>
      </trkpt>
      <trkpt lat="42.87851" lon="2.51034">
        <ele>384.3</ele>
        <time>2021-03-21T09:07:29Z</time>
      </trkpt>
      <trkpt lat="42.87856" lon="2.51021">
        <ele>384.6</ele>
        <time>2021-03-21T09:07:31Z</time>
      </trkpt>
      <trkpt lat="42.87861" lon="2.51008">
        <ele>384.9</ele>
        <time>2021-03-21T09:07:33Z</time>
      </trkpt>
      <trkpt lat="42.87863" lon="2.51">
        <ele>385</ele>
        <time>2021-03-21T09:07:34Z</time>
      </trkpt>
      <trkpt lat="42.87865" lon="2.50986">
        <ele>385.3</ele>
        <time>2021-03-21T09:07:36Z</time>
      </trkpt>
      <trkpt lat="42.87867" lon="2.50972">
        <ele>385.6</ele>
        <time>2021-03-21T09:07:38Z</time>
      </trkpt>
      <trkpt lat="42.87868" lon="2.50964">
        <ele>385.7</ele>
        <time>2021-03-21T09:07:39Z</time>
      </trkpt>
      <trkpt lat="42.87868" lon="2.50957">
        <ele>385.8</ele>
        <time>2021-03-21T09:07:40Z</time>
      </trkpt>
      <trkpt lat="42.87867" lon="2.50943">
        <ele>386</ele>
        <time>2021-03-21T09:07:42Z</time>
      </trkpt>
      <trkpt lat="42.87866" lon="2.50936">
        <ele>386.2</ele>
        <time>2021-03-21T09:07:43Z</time>
      </trkpt>
      <trkpt lat="42.87864" lon="2.50922">
        <ele>386.4</ele>
        <time>2021-03-21T09:07:45Z</time>
      </trkpt>
      <trkpt lat="42.87863" lon="2.50915">
        <ele>386.5</ele>
        <time>2021-03-21T09:07:46Z</time>
      </trkpt>
      <trkpt lat="42.87862" lon="2.50909">
        <ele>386.6</ele>
        <time>2021-03-21T09:07:47Z</time>
      </trkpt>
      <trkpt lat="42.87858" lon="2.50895">
        <ele>386.9</ele>
        <time>2021-03-21T09:07:49Z</time>
      </trkpt>
      <trkpt lat="42.87856" lon="2.50889">
        <ele>387</ele>
        <time>2021-03-21T09:07:50Z</time>
      </trkpt>
      <trkpt lat="42.87852" lon="2.50876">
        <ele>387.2</ele>
        <time>2021-03-21T09:07:52Z</time>
      </trkpt>
      <trkpt lat="42.8785" lon="2.50869">
        <ele>387.3</ele>
        <time>2021-03-21T09:07:53Z</time>
      </trkpt>
      <trkpt lat="42.87844" lon="2.50855">
        <ele>387.5</ele>
        <time>2021-03-21T09:07:55Z</time>
      </trkpt>
      <trkpt lat="42.87838" lon="2.50842">
        <ele>387.8</ele>
        <time>2021-03-21T09:07:57Z</time>
      </trkpt>
      <trkpt lat="42.87836" lon="2.50836">
        <ele>387.9</ele>
        <time>2021-03-21T09:07:58Z</time>
      </trkpt>
      <trkpt lat="42.87831" lon="2.50823">
        <ele>388</ele>
        <time>2021-03-21T09:08:00Z</time>
      </trkpt>
      <trkpt lat="42.8783" lon="2.50809">
        <ele>388.2</ele>
        <time>2021-03-21T09:08:02Z</time>
      </trkpt>
      <trkpt lat="42.87831" lon="2.50796">
        <ele>388.4</ele>
        <time>2021-03-21T09:08:04Z</time>
      </trkpt>
      <trkpt lat="42.87834" lon="2.50782">
        <ele>388.5</ele>
        <time>2021-03-21T09:08:06Z</time>
      </trkpt>
      <trkpt lat="42.87836" lon="2.50776">
        <ele>388.6</ele>
        <time>2021-03-21T09:08:07Z</time>
      </trkpt>
      <trkpt lat="42.8784" lon="2.50763">
        <ele>388.7</ele>
        <time>2021-03-21T09:08:09Z</time>
      </trkpt>
      <trkpt lat="42.87844" lon="2.5075">
        <ele>389</ele>
        <time>2021-03-21T09:08:11Z</time>
      </trkpt>
      <trkpt lat="42.87847" lon="2.50737">
        <ele>389.3</ele>
        <time>2021-03-21T09:08:13Z</time>
      </trkpt>
      <trkpt lat="42.8785" lon="2.50725">
        <ele>389.5</ele>
        <time>2021-03-21T09:08:15Z</time>
      </trkpt>
      <trkpt lat="42.87853" lon="2.50713">
        <ele>389.8</ele>
        <time>2021-03-21T09:08:17Z</time>
      </trkpt>
      <trkpt lat="42.87855" lon="2.50707">
        <ele>389.9</ele>
        <time>2021-03-21T09:08:18Z</time>
      </trkpt>
      <trkpt lat="42.87857" lon="2.50701">
        <ele>390</ele>
        <time>2021-03-21T09:08:19Z</time>
      </trkpt>
      <trkpt lat="42.87861" lon="2.50689">
        <ele>390.3</ele>
        <time>2021-03-21T09:08:21Z</time>
      </trkpt>
      <trkpt lat="42.87866" lon="2.50676">
        <ele>390.5</ele>
        <time>2021-03-21T09:08:23Z</time>
      </trkpt>
      <trkpt lat="42.87869" lon="2.50669">
        <ele>390.7</ele>
        <time>2021-03-21T09:08:24Z</time>
      </trkpt>
      <trkpt lat="42.87874" lon="2.50656">
        <ele>391</ele>
        <time>2021-03-21T09:08:26Z</time>
      </trkpt>
      <trkpt lat="42.8788" lon="2.50642">
        <ele>391.3</ele>
        <time>2021-03-21T09:08:28Z</time>
      </trkpt>
      <trkpt lat="42.87884" lon="2.50629">
        <ele>391.6</ele>
        <time>2021-03-21T09:08:30Z</time>
      </trkpt>
      <trkpt lat="42.87887" lon="2.50623">
        <ele>391.8</ele>
        <time>2021-03-21T09:08:31Z</time>
      </trkpt>
      <trkpt lat="42.87889" lon="2.50618">
        <ele>392</ele>
        <time>2021-03-21T09:08:32Z</time>
      </trkpt>
      <trkpt lat="42.87895" lon="2.5061">
        <ele>392.2</ele>
        <time>2021-03-21T09:08:34Z</time>
      </trkpt>
      <trkpt lat="42.87898" lon="2.50609">
        <ele>392.3</ele>
        <time>2021-03-21T09:08:35Z</time>
      </trkpt>
      <trkpt lat="42.87902" lon="2.5061">
        <ele>392.6</ele>
        <time>2021-03-21T09:08:36Z</time>
      </trkpt>
      <trkpt lat="42.8791" lon="2.50618">
        <ele>392.7</ele>
        <time>2021-03-21T09:08:38Z</time>
      </trkpt>
      <trkpt lat="42.87914" lon="2.50623">
        <ele>392.8</ele>
        <time>2021-03-21T09:08:39Z</time>
      </trkpt>
      <trkpt lat="42.87921" lon="2.50632">
        <ele>392.9</ele>
        <time>2021-03-21T09:08:41Z</time>
      </trkpt>
      <trkpt lat="42.87927" lon="2.50639">
        <ele>393.1</ele>
        <time>2021-03-21T09:08:43Z</time>
      </trkpt>
      <trkpt lat="42.87927" lon="2.5064">
        <ele>393.1</ele>
        <time>2021-03-21T09:08:45Z</time>
      </trkpt>
      <trkpt lat="42.87929" lon="2.50642">
        <ele>393.2</ele>
        <time>2021-03-21T09:08:46Z</time>
      </trkpt>
      <trkpt lat="42.87935" lon="2.50646">
        <ele>393.4</ele>
        <time>2021-03-21T09:08:47Z</time>
      </trkpt>
      <trkpt lat="42.87941" lon="2.50651">
        <ele>393.7</ele>
        <time>2021-03-21T09:08:49Z</time>
      </trkpt>
      <trkpt lat="42.87947" lon="2.50657">
        <ele>394</ele>
        <time>2021-03-21T09:08:50Z</time>
      </trkpt>
      <trkpt lat="42.87953" lon="2.50662">
        <ele>394.3</ele>
        <time>2021-03-21T09:08:52Z</time>
      </trkpt>
      <trkpt lat="42.87959" lon="2.50669">
        <ele>394.6</ele>
        <time>2021-03-21T09:08:53Z</time>
      </trkpt>
      <trkpt lat="42.87962" lon="2.50673">
        <ele>394.8</ele>
        <time>2021-03-21T09:08:54Z</time>
      </trkpt>
      <trkpt lat="42.87967" lon="2.50678">
        <ele>395.1</ele>
        <time>2021-03-21T09:08:56Z</time>
      </trkpt>
      <trkpt lat="42.87971" lon="2.50685">
        <ele>395.4</ele>
        <time>2021-03-21T09:08:57Z</time>
      </trkpt>
      <trkpt lat="42.87976" lon="2.50693">
        <ele>395.7</ele>
        <time>2021-03-21T09:08:59Z</time>
      </trkpt>
      <trkpt lat="42.87979" lon="2.507">
        <ele>396</ele>
        <time>2021-03-21T09:09:00Z</time>
      </trkpt>
      <trkpt lat="42.87983" lon="2.50707">
        <ele>396.2</ele>
        <time>2021-03-21T09:09:02Z</time>
      </trkpt>
      <trkpt lat="42.87986" lon="2.50713">
        <ele>396.4</ele>
        <time>2021-03-21T09:09:03Z</time>
      </trkpt>
      <trkpt lat="42.87989" lon="2.50719">
        <ele>396.6</ele>
        <time>2021-03-21T09:09:04Z</time>
      </trkpt>
      <trkpt lat="42.87993" lon="2.50725">
        <ele>396.8</ele>
        <time>2021-03-21T09:09:05Z</time>
      </trkpt>
      <trkpt lat="42.87996" lon="2.5073">
        <ele>397</ele>
        <time>2021-03-21T09:09:06Z</time>
      </trkpt>
      <trkpt lat="42.88" lon="2.50734">
        <ele>397.2</ele>
        <time>2021-03-21T09:09:07Z</time>
      </trkpt>
      <trkpt lat="42.88003" lon="2.50739">
        <ele>397.4</ele>
        <time>2021-03-21T09:09:08Z</time>
      </trkpt>
      <trkpt lat="42.88008" lon="2.50745">
        <ele>397.6</ele>
        <time>2021-03-21T09:09:10Z</time>
      </trkpt>
      <trkpt lat="42.88012" lon="2.50749">
        <ele>397.8</ele>
        <time>2021-03-21T09:09:11Z</time>
      </trkpt>
      <trkpt lat="42.88017" lon="2.50753">
        <ele>398</ele>
        <time>2021-03-21T09:09:12Z</time>
      </trkpt>
      <trkpt lat="42.88022" lon="2.50758">
        <ele>398.2</ele>
        <time>2021-03-21T09:09:14Z</time>
      </trkpt>
      <trkpt lat="42.88024" lon="2.5076">
        <ele>398.3</ele>
        <time>2021-03-21T09:09:15Z</time>
      </trkpt>
      <trkpt lat="42.8803" lon="2.50763">
        <ele>398.5</ele>
        <time>2021-03-21T09:09:16Z</time>
      </trkpt>
      <trkpt lat="42.88035" lon="2.50766">
        <ele>398.7</ele>
        <time>2021-03-21T09:09:18Z</time>
      </trkpt>
      <trkpt lat="42.8804" lon="2.50769">
        <ele>398.9</ele>
        <time>2021-03-21T09:09:19Z</time>
      </trkpt>
      <trkpt lat="42.88045" lon="2.50772">
        <ele>399.1</ele>
        <time>2021-03-21T09:09:20Z</time>
      </trkpt>
      <trkpt lat="42.88049" lon="2.50774">
        <ele>399.3</ele>
        <time>2021-03-21T09:09:21Z</time>
      </trkpt>
      <trkpt lat="42.88053" lon="2.50776">
        <ele>399.4</ele>
        <time>2021-03-21T09:09:22Z</time>
      </trkpt>
      <trkpt lat="42.88062" lon="2.50784">
        <ele>399.8</ele>
        <time>2021-03-21T09:09:24Z</time>
      </trkpt>
      <trkpt lat="42.88069" lon="2.50793">
        <ele>400.2</ele>
        <time>2021-03-21T09:09:26Z</time>
      </trkpt>
      <trkpt lat="42.88072" lon="2.50797">
        <ele>400.4</ele>
        <time>2021-03-21T09:09:27Z</time>
      </trkpt>
      <trkpt lat="42.88078" lon="2.50809">
        <ele>400.7</ele>
        <time>2021-03-21T09:09:29Z</time>
      </trkpt>
      <trkpt lat="42.88082" lon="2.50822">
        <ele>401.1</ele>
        <time>2021-03-21T09:09:31Z</time>
      </trkpt>
      <trkpt lat="42.88083" lon="2.50829">
        <ele>401.2</ele>
        <time>2021-03-21T09:09:32Z</time>
      </trkpt>
      <trkpt lat="42.88086" lon="2.50841">
        <ele>401.5</ele>
        <time>2021-03-21T09:09:34Z</time>
      </trkpt>
      <trkpt lat="42.8809" lon="2.50853">
        <ele>401.8</ele>
        <time>2021-03-21T09:09:36Z</time>
      </trkpt>
      <trkpt lat="42.88093" lon="2.50862">
        <ele>402.1</ele>
        <time>2021-03-21T09:09:38Z</time>
      </trkpt>
      <trkpt lat="42.88095" lon="2.50867">
        <ele>402.2</ele>
        <time>2021-03-21T09:09:39Z</time>
      </trkpt>
      <trkpt lat="42.88097" lon="2.50874">
        <ele>402.4</ele>
        <time>2021-03-21T09:09:40Z</time>
      </trkpt>
      <trkpt lat="42.88099" lon="2.50879">
        <ele>402.5</ele>
        <time>2021-03-21T09:09:41Z</time>
      </trkpt>
      <trkpt lat="42.88101" lon="2.50884">
        <ele>402.7</ele>
        <time>2021-03-21T09:09:42Z</time>
      </trkpt>
      <trkpt lat="42.88103" lon="2.50889">
        <ele>402.8</ele>
        <time>2021-03-21T09:09:43Z</time>
      </trkpt>
      <trkpt lat="42.88106" lon="2.50895">
        <ele>403</ele>
        <time>2021-03-21T09:09:45Z</time>
      </trkpt>
      <trkpt lat="42.88108" lon="2.50901">
        <ele>403.2</ele>
        <time>2021-03-21T09:09:46Z</time>
      </trkpt>
      <trkpt lat="42.8811" lon="2.50907">
        <ele>403.3</ele>
        <time>2021-03-21T09:09:47Z</time>
      </trkpt>
      <trkpt lat="42.88112" lon="2.50912">
        <ele>403.5</ele>
        <time>2021-03-21T09:09:48Z</time>
      </trkpt>
      <trkpt lat="42.88115" lon="2.50919">
        <ele>403.6</ele>
        <time>2021-03-21T09:09:49Z</time>
      </trkpt>
      <trkpt lat="42.88118" lon="2.50926">
        <ele>403.9</ele>
        <time>2021-03-21T09:09:51Z</time>
      </trkpt>
      <trkpt lat="42.8812" lon="2.50928">
        <ele>404</ele>
        <time>2021-03-21T09:09:52Z</time>
      </trkpt>
      <trkpt lat="42.88122" lon="2.50935">
        <ele>404.1</ele>
        <time>2021-03-21T09:09:53Z</time>
      </trkpt>
      <trkpt lat="42.88125" lon="2.50947">
        <ele>404.5</ele>
        <time>2021-03-21T09:09:55Z</time>
      </trkpt>
      <trkpt lat="42.88127" lon="2.50953">
        <ele>404.7</ele>
        <time>2021-03-21T09:09:56Z</time>
      </trkpt>
      <trkpt lat="42.8813" lon="2.50964">
        <ele>405</ele>
        <time>2021-03-21T09:09:58Z</time>
      </trkpt>
      <trkpt lat="42.88132" lon="2.50973">
        <ele>405.3</ele>
        <time>2021-03-21T09:10:00Z</time>
      </trkpt>
      <trkpt lat="42.88135" lon="2.50981">
        <ele>405.5</ele>
        <time>2021-03-21T09:10:01Z</time>
      </trkpt>
      <trkpt lat="42.88138" lon="2.50993">
        <ele>406</ele>
        <time>2021-03-21T09:10:03Z</time>
      </trkpt>
      <trkpt lat="42.8814" lon="2.50998">
        <ele>406.2</ele>
        <time>2021-03-21T09:10:04Z</time>
      </trkpt>
      <trkpt lat="42.88142" lon="2.51005">
        <ele>406.4</ele>
        <time>2021-03-21T09:10:05Z</time>
      </trkpt>
      <trkpt lat="42.88144" lon="2.51015">
        <ele>406.8</ele>
        <time>2021-03-21T09:10:07Z</time>
      </trkpt>
      <trkpt lat="42.88146" lon="2.51021">
        <ele>407</ele>
        <time>2021-03-21T09:10:08Z</time>
      </trkpt>
      <trkpt lat="42.88147" lon="2.51028">
        <ele>407.2</ele>
        <time>2021-03-21T09:10:09Z</time>
      </trkpt>
      <trkpt lat="42.88147" lon="2.51035">
        <ele>407.5</ele>
        <time>2021-03-21T09:10:11Z</time>
      </trkpt>
      <trkpt lat="42.88146" lon="2.51044">
        <ele>407.7</ele>
        <time>2021-03-21T09:10:12Z</time>
      </trkpt>
      <trkpt lat="42.88143" lon="2.51049">
        <ele>407.8</ele>
        <time>2021-03-21T09:10:13Z</time>
      </trkpt>
      <trkpt lat="42.88136" lon="2.51054">
        <ele>408.1</ele>
        <time>2021-03-21T09:10:14Z</time>
      </trkpt>
      <trkpt lat="42.88131" lon="2.51058">
        <ele>408.2</ele>
        <time>2021-03-21T09:10:15Z</time>
      </trkpt>
      <trkpt lat="42.88126" lon="2.51064">
        <ele>408.4</ele>
        <time>2021-03-21T09:10:17Z</time>
      </trkpt>
      <trkpt lat="42.8812" lon="2.51066">
        <ele>408.5</ele>
        <time>2021-03-21T09:10:18Z</time>
      </trkpt>
      <trkpt lat="42.88111" lon="2.51062">
        <ele>408.7</ele>
        <time>2021-03-21T09:10:20Z</time>
      </trkpt>
      <trkpt lat="42.88104" lon="2.51051">
        <ele>408.8</ele>
        <time>2021-03-21T09:10:22Z</time>
      </trkpt>
      <trkpt lat="42.88098" lon="2.5104">
        <ele>409.1</ele>
        <time>2021-03-21T09:10:24Z</time>
      </trkpt>
      <trkpt lat="42.88095" lon="2.51034">
        <ele>409.2</ele>
        <time>2021-03-21T09:10:25Z</time>
      </trkpt>
      <trkpt lat="42.88089" lon="2.51025">
        <ele>409.4</ele>
        <time>2021-03-21T09:10:27Z</time>
      </trkpt>
      <trkpt lat="42.88083" lon="2.51017">
        <ele>409.6</ele>
        <time>2021-03-21T09:10:29Z</time>
      </trkpt>
      <trkpt lat="42.88081" lon="2.51012">
        <ele>409.7</ele>
        <time>2021-03-21T09:10:31Z</time>
      </trkpt>
      <trkpt lat="42.88076" lon="2.51006">
        <ele>409.9</ele>
        <time>2021-03-21T09:10:32Z</time>
      </trkpt>
      <trkpt lat="42.88073" lon="2.51002">
        <ele>410</ele>
        <time>2021-03-21T09:10:33Z</time>
      </trkpt>
      <trkpt lat="42.88068" lon="2.50998">
        <ele>410.1</ele>
        <time>2021-03-21T09:10:34Z</time>
      </trkpt>
      <trkpt lat="42.88064" lon="2.50995">
        <ele>410.3</ele>
        <time>2021-03-21T09:10:35Z</time>
      </trkpt>
      <trkpt lat="42.88056" lon="2.50994">
        <ele>410.5</ele>
        <time>2021-03-21T09:10:37Z</time>
      </trkpt>
      <trkpt lat="42.88047" lon="2.50998">
        <ele>410.8</ele>
        <time>2021-03-21T09:10:39Z</time>
      </trkpt>
      <trkpt lat="42.88043" lon="2.51003">
        <ele>410.9</ele>
        <time>2021-03-21T09:10:40Z</time>
      </trkpt>
      <trkpt lat="42.88037" lon="2.51014">
        <ele>411.1</ele>
        <time>2021-03-21T09:10:42Z</time>
      </trkpt>
      <trkpt lat="42.88035" lon="2.5102">
        <ele>411.3</ele>
        <time>2021-03-21T09:10:43Z</time>
      </trkpt>
      <trkpt lat="42.88033" lon="2.51033">
        <ele>411.5</ele>
        <time>2021-03-21T09:10:45Z</time>
      </trkpt>
      <trkpt lat="42.88032" lon="2.51046">
        <ele>411.8</ele>
        <time>2021-03-21T09:10:47Z</time>
      </trkpt>
      <trkpt lat="42.88032" lon="2.51056">
        <ele>412</ele>
        <time>2021-03-21T09:10:49Z</time>
      </trkpt>
      <trkpt lat="42.88032" lon="2.51067">
        <ele>412.2</ele>
        <time>2021-03-21T09:10:51Z</time>
      </trkpt>
      <trkpt lat="42.88032" lon="2.51073">
        <ele>412.4</ele>
        <time>2021-03-21T09:10:52Z</time>
      </trkpt>
      <trkpt lat="42.88031" lon="2.51087">
        <ele>412.7</ele>
        <time>2021-03-21T09:10:54Z</time>
      </trkpt>
      <trkpt lat="42.88031" lon="2.51094">
        <ele>412.8</ele>
        <time>2021-03-21T09:10:55Z</time>
      </trkpt>
      <trkpt lat="42.88032" lon="2.511">
        <ele>412.9</ele>
        <time>2021-03-21T09:10:56Z</time>
      </trkpt>
      <trkpt lat="42.88033" lon="2.51107">
        <ele>413.1</ele>
        <time>2021-03-21T09:10:57Z</time>
      </trkpt>
      <trkpt lat="42.88036" lon="2.51119">
        <ele>413.4</ele>
        <time>2021-03-21T09:10:59Z</time>
      </trkpt>
      <trkpt lat="42.8804" lon="2.51131">
        <ele>413.7</ele>
        <time>2021-03-21T09:11:01Z</time>
      </trkpt>
      <trkpt lat="42.88043" lon="2.51143">
        <ele>413.9</ele>
        <time>2021-03-21T09:11:03Z</time>
      </trkpt>
      <trkpt lat="42.88045" lon="2.51149">
        <ele>414.1</ele>
        <time>2021-03-21T09:11:04Z</time>
      </trkpt>
      <trkpt lat="42.88049" lon="2.51161">
        <ele>414.3</ele>
        <time>2021-03-21T09:11:06Z</time>
      </trkpt>
      <trkpt lat="42.88052" lon="2.51173">
        <ele>414.6</ele>
        <time>2021-03-21T09:11:08Z</time>
      </trkpt>
      <trkpt lat="42.88053" lon="2.51185">
        <ele>414.9</ele>
        <time>2021-03-21T09:11:10Z</time>
      </trkpt>
      <trkpt lat="42.88052" lon="2.51198">
        <ele>415.3</ele>
        <time>2021-03-21T09:11:12Z</time>
      </trkpt>
      <trkpt lat="42.88047" lon="2.51208">
        <ele>415.5</ele>
        <time>2021-03-21T09:11:14Z</time>
      </trkpt>
      <trkpt lat="42.8804" lon="2.51215">
        <ele>415.8</ele>
        <time>2021-03-21T09:11:15Z</time>
      </trkpt>
      <trkpt lat="42.88032" lon="2.51216">
        <ele>416.1</ele>
        <time>2021-03-21T09:11:17Z</time>
      </trkpt>
      <trkpt lat="42.88027" lon="2.51215">
        <ele>416.2</ele>
        <time>2021-03-21T09:11:18Z</time>
      </trkpt>
      <trkpt lat="42.88017" lon="2.51221">
        <ele>416.6</ele>
        <time>2021-03-21T09:11:20Z</time>
      </trkpt>
      <trkpt lat="42.88013" lon="2.51225">
        <ele>416.8</ele>
        <time>2021-03-21T09:11:21Z</time>
      </trkpt>
      <trkpt lat="42.88006" lon="2.51234">
        <ele>417.1</ele>
        <time>2021-03-21T09:11:23Z</time>
      </trkpt>
      <trkpt lat="42.88002" lon="2.51247">
        <ele>417.5</ele>
        <time>2021-03-21T09:11:25Z</time>
      </trkpt>
      <trkpt lat="42.88002" lon="2.51263">
        <ele>417.8</ele>
        <time>2021-03-21T09:11:27Z</time>
      </trkpt>
      <trkpt lat="42.88004" lon="2.5127">
        <ele>418</ele>
        <time>2021-03-21T09:11:28Z</time>
      </trkpt>
      <trkpt lat="42.88007" lon="2.51277">
        <ele>418.1</ele>
        <time>2021-03-21T09:11:29Z</time>
      </trkpt>
      <trkpt lat="42.88014" lon="2.51288">
        <ele>418.4</ele>
        <time>2021-03-21T09:11:31Z</time>
      </trkpt>
      <trkpt lat="42.88024" lon="2.51293">
        <ele>418.7</ele>
        <time>2021-03-21T09:11:33Z</time>
      </trkpt>
      <trkpt lat="42.88035" lon="2.51296">
        <ele>418.9</ele>
        <time>2021-03-21T09:11:35Z</time>
      </trkpt>
      <trkpt lat="42.88045" lon="2.513">
        <ele>419.2</ele>
        <time>2021-03-21T09:11:37Z</time>
      </trkpt>
      <trkpt lat="42.88049" lon="2.51302">
        <ele>419.3</ele>
        <time>2021-03-21T09:11:38Z</time>
      </trkpt>
      <trkpt lat="42.88054" lon="2.51304">
        <ele>419.4</ele>
        <time>2021-03-21T09:11:39Z</time>
      </trkpt>
      <trkpt lat="42.88058" lon="2.51307">
        <ele>419.5</ele>
        <time>2021-03-21T09:11:40Z</time>
      </trkpt>
      <trkpt lat="42.88067" lon="2.51312">
        <ele>419.7</ele>
        <time>2021-03-21T09:11:42Z</time>
      </trkpt>
      <trkpt lat="42.88072" lon="2.51316">
        <ele>419.8</ele>
        <time>2021-03-21T09:11:43Z</time>
      </trkpt>
      <trkpt lat="42.8808" lon="2.51325">
        <ele>420</ele>
        <time>2021-03-21T09:11:45Z</time>
      </trkpt>
      <trkpt lat="42.88083" lon="2.5133">
        <ele>420.1</ele>
        <time>2021-03-21T09:11:46Z</time>
      </trkpt>
      <trkpt lat="42.8809" lon="2.51341">
        <ele>420.4</ele>
        <time>2021-03-21T09:11:48Z</time>
      </trkpt>
      <trkpt lat="42.88093" lon="2.51347">
        <ele>420.5</ele>
        <time>2021-03-21T09:11:49Z</time>
      </trkpt>
      <trkpt lat="42.88098" lon="2.51358">
        <ele>420.7</ele>
        <time>2021-03-21T09:11:51Z</time>
      </trkpt>
      <trkpt lat="42.881" lon="2.51364">
        <ele>420.8</ele>
        <time>2021-03-21T09:11:52Z</time>
      </trkpt>
      <trkpt lat="42.88103" lon="2.5137">
        <ele>420.9</ele>
        <time>2021-03-21T09:11:53Z</time>
      </trkpt>
      <trkpt lat="42.88108" lon="2.51382">
        <ele>421.1</ele>
        <time>2021-03-21T09:11:55Z</time>
      </trkpt>
      <trkpt lat="42.88113" lon="2.51394">
        <ele>421.3</ele>
        <time>2021-03-21T09:11:57Z</time>
      </trkpt>
      <trkpt lat="42.88118" lon="2.51405">
        <ele>421.5</ele>
        <time>2021-03-21T09:11:59Z</time>
      </trkpt>
      <trkpt lat="42.88124" lon="2.51417">
        <ele>421.8</ele>
        <time>2021-03-21T09:12:01Z</time>
      </trkpt>
      <trkpt lat="42.88129" lon="2.51428">
        <ele>422</ele>
        <time>2021-03-21T09:12:03Z</time>
      </trkpt>
      <trkpt lat="42.88134" lon="2.51439">
        <ele>422.2</ele>
        <time>2021-03-21T09:12:05Z</time>
      </trkpt>
      <trkpt lat="42.88138" lon="2.51451">
        <ele>422.4</ele>
        <time>2021-03-21T09:12:07Z</time>
      </trkpt>
      <trkpt lat="42.8814" lon="2.51457">
        <ele>422.5</ele>
        <time>2021-03-21T09:12:08Z</time>
      </trkpt>
      <trkpt lat="42.88143" lon="2.51463">
        <ele>422.6</ele>
        <time>2021-03-21T09:12:09Z</time>
      </trkpt>
      <trkpt lat="42.88145" lon="2.51469">
        <ele>422.7</ele>
        <time>2021-03-21T09:12:10Z</time>
      </trkpt>
      <trkpt lat="42.88147" lon="2.51476">
        <ele>422.9</ele>
        <time>2021-03-21T09:12:11Z</time>
      </trkpt>
      <trkpt lat="42.88151" lon="2.51489">
        <ele>423.1</ele>
        <time>2021-03-21T09:12:13Z</time>
      </trkpt>
      <trkpt lat="42.88154" lon="2.51502">
        <ele>423.3</ele>
        <time>2021-03-21T09:12:15Z</time>
      </trkpt>
      <trkpt lat="42.88156" lon="2.51509">
        <ele>423.5</ele>
        <time>2021-03-21T09:12:16Z</time>
      </trkpt>
      <trkpt lat="42.88157" lon="2.51515">
        <ele>423.6</ele>
        <time>2021-03-21T09:12:17Z</time>
      </trkpt>
      <trkpt lat="42.8816" lon="2.51529">
        <ele>423.8</ele>
        <time>2021-03-21T09:12:19Z</time>
      </trkpt>
      <trkpt lat="42.88163" lon="2.51541">
        <ele>424</ele>
        <time>2021-03-21T09:12:21Z</time>
      </trkpt>
      <trkpt lat="42.88167" lon="2.51553">
        <ele>424.2</ele>
        <time>2021-03-21T09:12:23Z</time>
      </trkpt>
      <trkpt lat="42.88169" lon="2.5156">
        <ele>424.4</ele>
        <time>2021-03-21T09:12:24Z</time>
      </trkpt>
      <trkpt lat="42.88173" lon="2.51573">
        <ele>424.6</ele>
        <time>2021-03-21T09:12:26Z</time>
      </trkpt>
      <trkpt lat="42.88177" lon="2.51585">
        <ele>424.8</ele>
        <time>2021-03-21T09:12:28Z</time>
      </trkpt>
      <trkpt lat="42.8818" lon="2.51591">
        <ele>425</ele>
        <time>2021-03-21T09:12:29Z</time>
      </trkpt>
      <trkpt lat="42.88185" lon="2.51602">
        <ele>425.2</ele>
        <time>2021-03-21T09:12:31Z</time>
      </trkpt>
      <trkpt lat="42.88188" lon="2.51608">
        <ele>425.3</ele>
        <time>2021-03-21T09:12:32Z</time>
      </trkpt>
      <trkpt lat="42.88194" lon="2.51618">
        <ele>425.5</ele>
        <time>2021-03-21T09:12:34Z</time>
      </trkpt>
      <trkpt lat="42.88197" lon="2.51623">
        <ele>425.7</ele>
        <time>2021-03-21T09:12:35Z</time>
      </trkpt>
      <trkpt lat="42.882" lon="2.51628">
        <ele>425.8</ele>
        <time>2021-03-21T09:12:36Z</time>
      </trkpt>
      <trkpt lat="42.88204" lon="2.51634">
        <ele>425.9</ele>
        <time>2021-03-21T09:12:37Z</time>
      </trkpt>
      <trkpt lat="42.8821" lon="2.51644">
        <ele>426.2</ele>
        <time>2021-03-21T09:12:39Z</time>
      </trkpt>
      <trkpt lat="42.88213" lon="2.51649">
        <ele>426.3</ele>
        <time>2021-03-21T09:12:40Z</time>
      </trkpt>
      <trkpt lat="42.88217" lon="2.51655">
        <ele>426.4</ele>
        <time>2021-03-21T09:12:41Z</time>
      </trkpt>
      <trkpt lat="42.88223" lon="2.51665">
        <ele>426.7</ele>
        <time>2021-03-21T09:12:43Z</time>
      </trkpt>
      <trkpt lat="42.88226" lon="2.51671">
        <ele>426.8</ele>
        <time>2021-03-21T09:12:44Z</time>
      </trkpt>
      <trkpt lat="42.88233" lon="2.51681">
        <ele>427</ele>
        <time>2021-03-21T09:12:46Z</time>
      </trkpt>
      <trkpt lat="42.88239" lon="2.51693">
        <ele>427.3</ele>
        <time>2021-03-21T09:12:48Z</time>
      </trkpt>
      <trkpt lat="42.88246" lon="2.51704">
        <ele>427.6</ele>
        <time>2021-03-21T09:12:50Z</time>
      </trkpt>
      <trkpt lat="42.88249" lon="2.5171">
        <ele>427.7</ele>
        <time>2021-03-21T09:12:51Z</time>
      </trkpt>
      <trkpt lat="42.88252" lon="2.51716">
        <ele>427.8</ele>
        <time>2021-03-21T09:12:52Z</time>
      </trkpt>
      <trkpt lat="42.88258" lon="2.51727">
        <ele>428</ele>
        <time>2021-03-21T09:12:54Z</time>
      </trkpt>
      <trkpt lat="42.88261" lon="2.51733">
        <ele>428.1</ele>
        <time>2021-03-21T09:12:55Z</time>
      </trkpt>
      <trkpt lat="42.88267" lon="2.51744">
        <ele>428.3</ele>
        <time>2021-03-21T09:12:57Z</time>
      </trkpt>
      <trkpt lat="42.8827" lon="2.51749">
        <ele>428.4</ele>
        <time>2021-03-21T09:12:58Z</time>
      </trkpt>
      <trkpt lat="42.88277" lon="2.51759">
        <ele>428.6</ele>
        <time>2021-03-21T09:13:00Z</time>
      </trkpt>
      <trkpt lat="42.88283" lon="2.5177">
        <ele>428.8</ele>
        <time>2021-03-21T09:13:02Z</time>
      </trkpt>
      <trkpt lat="42.88286" lon="2.51775">
        <ele>428.9</ele>
        <time>2021-03-21T09:13:03Z</time>
      </trkpt>
      <trkpt lat="42.88288" lon="2.5178">
        <ele>429</ele>
        <time>2021-03-21T09:13:04Z</time>
      </trkpt>
      <trkpt lat="42.88291" lon="2.51786">
        <ele>429.1</ele>
        <time>2021-03-21T09:13:05Z</time>
      </trkpt>
      <trkpt lat="42.88297" lon="2.51797">
        <ele>429.4</ele>
        <time>2021-03-21T09:13:07Z</time>
      </trkpt>
      <trkpt lat="42.88299" lon="2.51803">
        <ele>429.5</ele>
        <time>2021-03-21T09:13:08Z</time>
      </trkpt>
      <trkpt lat="42.88302" lon="2.51809">
        <ele>429.6</ele>
        <time>2021-03-21T09:13:09Z</time>
      </trkpt>
      <trkpt lat="42.88307" lon="2.5182">
        <ele>429.9</ele>
        <time>2021-03-21T09:13:11Z</time>
      </trkpt>
      <trkpt lat="42.8831" lon="2.51826">
        <ele>430</ele>
        <time>2021-03-21T09:13:12Z</time>
      </trkpt>
      <trkpt lat="42.88312" lon="2.51832">
        <ele>430.2</ele>
        <time>2021-03-21T09:13:13Z</time>
      </trkpt>
      <trkpt lat="42.88318" lon="2.51844">
        <ele>430.4</ele>
        <time>2021-03-21T09:13:15Z</time>
      </trkpt>
      <trkpt lat="42.88321" lon="2.51849">
        <ele>430.6</ele>
        <time>2021-03-21T09:13:16Z</time>
      </trkpt>
      <trkpt lat="42.88324" lon="2.51855">
        <ele>430.7</ele>
        <time>2021-03-21T09:13:17Z</time>
      </trkpt>
      <trkpt lat="42.88328" lon="2.51859">
        <ele>430.9</ele>
        <time>2021-03-21T09:13:18Z</time>
      </trkpt>
      <trkpt lat="42.88333" lon="2.51862">
        <ele>431</ele>
        <time>2021-03-21T09:13:19Z</time>
      </trkpt>
      <trkpt lat="42.88342" lon="2.51868">
        <ele>431.2</ele>
        <time>2021-03-21T09:13:21Z</time>
      </trkpt>
      <trkpt lat="42.88347" lon="2.5187">
        <ele>431.3</ele>
        <time>2021-03-21T09:13:22Z</time>
      </trkpt>
      <trkpt lat="42.88352" lon="2.51872">
        <ele>431.4</ele>
        <time>2021-03-21T09:13:23Z</time>
      </trkpt>
      <trkpt lat="42.88361" lon="2.51875">
        <ele>431.7</ele>
        <time>2021-03-21T09:13:25Z</time>
      </trkpt>
      <trkpt lat="42.88366" lon="2.51875">
        <ele>431.8</ele>
        <time>2021-03-21T09:13:26Z</time>
      </trkpt>
      <trkpt lat="42.88372" lon="2.51876">
        <ele>431.9</ele>
        <time>2021-03-21T09:13:27Z</time>
      </trkpt>
      <trkpt lat="42.88382" lon="2.51874">
        <ele>432.2</ele>
        <time>2021-03-21T09:13:29Z</time>
      </trkpt>
      <trkpt lat="42.88391" lon="2.51871">
        <ele>432.4</ele>
        <time>2021-03-21T09:13:31Z</time>
      </trkpt>
      <trkpt lat="42.884" lon="2.51866">
        <ele>432.7</ele>
        <time>2021-03-21T09:13:33Z</time>
      </trkpt>
      <trkpt lat="42.88409" lon="2.51862">
        <ele>432.9</ele>
        <time>2021-03-21T09:13:35Z</time>
      </trkpt>
      <trkpt lat="42.88417" lon="2.51856">
        <ele>433.2</ele>
        <time>2021-03-21T09:13:37Z</time>
      </trkpt>
      <trkpt lat="42.88422" lon="2.51853">
        <ele>433.3</ele>
        <time>2021-03-21T09:13:38Z</time>
      </trkpt>
      <trkpt lat="42.88426" lon="2.5185">
        <ele>433.5</ele>
        <time>2021-03-21T09:13:39Z</time>
      </trkpt>
      <trkpt lat="42.88431" lon="2.51847">
        <ele>433.6</ele>
        <time>2021-03-21T09:13:40Z</time>
      </trkpt>
      <trkpt lat="42.88436" lon="2.51845">
        <ele>433.8</ele>
        <time>2021-03-21T09:13:41Z</time>
      </trkpt>
      <trkpt lat="42.88446" lon="2.51841">
        <ele>434.1</ele>
        <time>2021-03-21T09:13:43Z</time>
      </trkpt>
      <trkpt lat="42.88451" lon="2.51839">
        <ele>434.2</ele>
        <time>2021-03-21T09:13:44Z</time>
      </trkpt>
      <trkpt lat="42.8846" lon="2.51835">
        <ele>434.5</ele>
        <time>2021-03-21T09:13:46Z</time>
      </trkpt>
      <trkpt lat="42.88465" lon="2.51834">
        <ele>434.6</ele>
        <time>2021-03-21T09:13:47Z</time>
      </trkpt>
      <trkpt lat="42.88474" lon="2.51832">
        <ele>434.8</ele>
        <time>2021-03-21T09:13:49Z</time>
      </trkpt>
      <trkpt lat="42.88485" lon="2.51829">
        <ele>435</ele>
        <time>2021-03-21T09:13:51Z</time>
      </trkpt>
      <trkpt lat="42.88495" lon="2.51826">
        <ele>435.2</ele>
        <time>2021-03-21T09:13:53Z</time>
      </trkpt>
      <trkpt lat="42.885" lon="2.51825">
        <ele>435.3</ele>
        <time>2021-03-21T09:13:54Z</time>
      </trkpt>
      <trkpt lat="42.88509" lon="2.51822">
        <ele>435.5</ele>
        <time>2021-03-21T09:13:56Z</time>
      </trkpt>
      <trkpt lat="42.88514" lon="2.51821">
        <ele>435.6</ele>
        <time>2021-03-21T09:13:57Z</time>
      </trkpt>
      <trkpt lat="42.88519" lon="2.51819">
        <ele>435.7</ele>
        <time>2021-03-21T09:13:58Z</time>
      </trkpt>
      <trkpt lat="42.88525" lon="2.51817">
        <ele>435.8</ele>
        <time>2021-03-21T09:13:59Z</time>
      </trkpt>
      <trkpt lat="42.8853" lon="2.51814">
        <ele>435.9</ele>
        <time>2021-03-21T09:14:00Z</time>
      </trkpt>
      <trkpt lat="42.8854" lon="2.51808">
        <ele>436.2</ele>
        <time>2021-03-21T09:14:02Z</time>
      </trkpt>
      <trkpt lat="42.88545" lon="2.51805">
        <ele>436.3</ele>
        <time>2021-03-21T09:14:03Z</time>
      </trkpt>
      <trkpt lat="42.88554" lon="2.51799">
        <ele>436.6</ele>
        <time>2021-03-21T09:14:05Z</time>
      </trkpt>
      <trkpt lat="42.88559" lon="2.51796">
        <ele>436.7</ele>
        <time>2021-03-21T09:14:06Z</time>
      </trkpt>
      <trkpt lat="42.88564" lon="2.51793">
        <ele>436.9</ele>
        <time>2021-03-21T09:14:07Z</time>
      </trkpt>
      <trkpt lat="42.88574" lon="2.51788">
        <ele>437.1</ele>
        <time>2021-03-21T09:14:09Z</time>
      </trkpt>
      <trkpt lat="42.88583" lon="2.51782">
        <ele>437.3</ele>
        <time>2021-03-21T09:14:11Z</time>
      </trkpt>
      <trkpt lat="42.88593" lon="2.51778">
        <ele>437.5</ele>
        <time>2021-03-21T09:14:13Z</time>
      </trkpt>
      <trkpt lat="42.88598" lon="2.51776">
        <ele>437.6</ele>
        <time>2021-03-21T09:14:14Z</time>
      </trkpt>
      <trkpt lat="42.88608" lon="2.51775">
        <ele>437.8</ele>
        <time>2021-03-21T09:14:16Z</time>
      </trkpt>
      <trkpt lat="42.88618" lon="2.51775">
        <ele>438</ele>
        <time>2021-03-21T09:14:18Z</time>
      </trkpt>
      <trkpt lat="42.88629" lon="2.51775">
        <ele>438.2</ele>
        <time>2021-03-21T09:14:20Z</time>
      </trkpt>
      <trkpt lat="42.88639" lon="2.51774">
        <ele>438.5</ele>
        <time>2021-03-21T09:14:22Z</time>
      </trkpt>
      <trkpt lat="42.88644" lon="2.51774">
        <ele>438.6</ele>
        <time>2021-03-21T09:14:23Z</time>
      </trkpt>
      <trkpt lat="42.88654" lon="2.51771">
        <ele>438.9</ele>
        <time>2021-03-21T09:14:25Z</time>
      </trkpt>
      <trkpt lat="42.88659" lon="2.5177">
        <ele>439</ele>
        <time>2021-03-21T09:14:26Z</time>
      </trkpt>
      <trkpt lat="42.88664" lon="2.51767">
        <ele>439.1</ele>
        <time>2021-03-21T09:14:27Z</time>
      </trkpt>
      <trkpt lat="42.88669" lon="2.51765">
        <ele>439.2</ele>
        <time>2021-03-21T09:14:28Z</time>
      </trkpt>
      <trkpt lat="42.88678" lon="2.51759">
        <ele>439.5</ele>
        <time>2021-03-21T09:14:30Z</time>
      </trkpt>
      <trkpt lat="42.88682" lon="2.51756">
        <ele>439.6</ele>
        <time>2021-03-21T09:14:31Z</time>
      </trkpt>
      <trkpt lat="42.88691" lon="2.5175">
        <ele>439.8</ele>
        <time>2021-03-21T09:14:33Z</time>
      </trkpt>
      <trkpt lat="42.88699" lon="2.51743">
        <ele>440.1</ele>
        <time>2021-03-21T09:14:35Z</time>
      </trkpt>
      <trkpt lat="42.88703" lon="2.51739">
        <ele>440.2</ele>
        <time>2021-03-21T09:14:36Z</time>
      </trkpt>
      <trkpt lat="42.88707" lon="2.51735">
        <ele>440.4</ele>
        <time>2021-03-21T09:14:37Z</time>
      </trkpt>
      <trkpt lat="42.88716" lon="2.51727">
        <ele>440.7</ele>
        <time>2021-03-21T09:14:39Z</time>
      </trkpt>
      <trkpt lat="42.8872" lon="2.51723">
        <ele>440.9</ele>
        <time>2021-03-21T09:14:40Z</time>
      </trkpt>
      <trkpt lat="42.88724" lon="2.51718">
        <ele>441.1</ele>
        <time>2021-03-21T09:14:41Z</time>
      </trkpt>
      <trkpt lat="42.88733" lon="2.51713">
        <ele>441.5</ele>
        <time>2021-03-21T09:14:43Z</time>
      </trkpt>
      <trkpt lat="42.8874" lon="2.51715">
        <ele>441.8</ele>
        <time>2021-03-21T09:14:45Z</time>
      </trkpt>
      <trkpt lat="42.88747" lon="2.51723">
        <ele>441.9</ele>
        <time>2021-03-21T09:14:47Z</time>
      </trkpt>
      <trkpt lat="42.88755" lon="2.51731">
        <ele>442.1</ele>
        <time>2021-03-21T09:14:49Z</time>
      </trkpt>
      <trkpt lat="42.88761" lon="2.51733">
        <ele>442.6</ele>
        <time>2021-03-21T09:14:51Z</time>
      </trkpt>
      <trkpt lat="42.88765" lon="2.51732">
        <ele>442.8</ele>
        <time>2021-03-21T09:14:52Z</time>
      </trkpt>
      <trkpt lat="42.88771" lon="2.51728">
        <ele>443.3</ele>
        <time>2021-03-21T09:14:54Z</time>
      </trkpt>
      <trkpt lat="42.88774" lon="2.51725">
        <ele>443.5</ele>
        <time>2021-03-21T09:14:55Z</time>
      </trkpt>
      <trkpt lat="42.88777" lon="2.51722">
        <ele>443.8</ele>
        <time>2021-03-21T09:14:57Z</time>
      </trkpt>
      <trkpt lat="42.8878" lon="2.5172">
        <ele>444</ele>
        <time>2021-03-21T09:14:58Z</time>
      </trkpt>
      <trkpt lat="42.88786" lon="2.51716">
        <ele>444.6</ele>
        <time>2021-03-21T09:15:00Z</time>
      </trkpt>
      <trkpt lat="42.8879" lon="2.51712">
        <ele>445</ele>
        <time>2021-03-21T09:15:02Z</time>
      </trkpt>
      <trkpt lat="42.88791" lon="2.51711">
        <ele>445.1</ele>
        <time>2021-03-21T09:15:03Z</time>
      </trkpt>
      <trkpt lat="42.88796" lon="2.51705">
        <ele>445.7</ele>
        <time>2021-03-21T09:15:05Z</time>
      </trkpt>
      <trkpt lat="42.88798" lon="2.51703">
        <ele>445.9</ele>
        <time>2021-03-21T09:15:06Z</time>
      </trkpt>
      <trkpt lat="42.88799" lon="2.51702">
        <ele>446</ele>
        <time>2021-03-21T09:15:07Z</time>
      </trkpt>
      <trkpt lat="42.88801" lon="2.51698">
        <ele>446.3</ele>
        <time>2021-03-21T09:15:08Z</time>
      </trkpt>
      <trkpt lat="42.88805" lon="2.51693">
        <ele>446.6</ele>
        <time>2021-03-21T09:15:10Z</time>
      </trkpt>
      <trkpt lat="42.88807" lon="2.51689">
        <ele>447</ele>
        <time>2021-03-21T09:15:11Z</time>
      </trkpt>
      <trkpt lat="42.8881" lon="2.51684">
        <ele>447.3</ele>
        <time>2021-03-21T09:15:12Z</time>
      </trkpt>
      <trkpt lat="42.88816" lon="2.51675">
        <ele>448</ele>
        <time>2021-03-21T09:15:14Z</time>
      </trkpt>
      <trkpt lat="42.8882" lon="2.51669">
        <ele>448.5</ele>
        <time>2021-03-21T09:15:15Z</time>
      </trkpt>
      <trkpt lat="42.88823" lon="2.51663">
        <ele>448.9</ele>
        <time>2021-03-21T09:15:16Z</time>
      </trkpt>
      <trkpt lat="42.88827" lon="2.51652">
        <ele>449.6</ele>
        <time>2021-03-21T09:15:18Z</time>
      </trkpt>
      <trkpt lat="42.88829" lon="2.51646">
        <ele>450</ele>
        <time>2021-03-21T09:15:19Z</time>
      </trkpt>
      <trkpt lat="42.88833" lon="2.51633">
        <ele>450.8</ele>
        <time>2021-03-21T09:15:21Z</time>
      </trkpt>
      <trkpt lat="42.88835" lon="2.51628">
        <ele>451.1</ele>
        <time>2021-03-21T09:15:22Z</time>
      </trkpt>
      <trkpt lat="42.88835" lon="2.51626">
        <ele>451.2</ele>
        <time>2021-03-21T09:15:24Z</time>
      </trkpt>
      <trkpt lat="42.88836" lon="2.51624">
        <ele>451.4</ele>
        <time>2021-03-21T09:15:25Z</time>
      </trkpt>
      <trkpt lat="42.88837" lon="2.5162">
        <ele>451.6</ele>
        <time>2021-03-21T09:15:26Z</time>
      </trkpt>
      <trkpt lat="42.88839" lon="2.51615">
        <ele>451.9</ele>
        <time>2021-03-21T09:15:27Z</time>
      </trkpt>
      <trkpt lat="42.88841" lon="2.5161">
        <ele>452.3</ele>
        <time>2021-03-21T09:15:28Z</time>
      </trkpt>
      <trkpt lat="42.88843" lon="2.51606">
        <ele>452.6</ele>
        <time>2021-03-21T09:15:30Z</time>
      </trkpt>
      <trkpt lat="42.88845" lon="2.51604">
        <ele>452.8</ele>
        <time>2021-03-21T09:15:31Z</time>
      </trkpt>
      <trkpt lat="42.88848" lon="2.51601">
        <ele>453</ele>
        <time>2021-03-21T09:15:33Z</time>
      </trkpt>
      <trkpt lat="42.88851" lon="2.51599">
        <ele>453.2</ele>
        <time>2021-03-21T09:15:34Z</time>
      </trkpt>
      <trkpt lat="42.88854" lon="2.51598">
        <ele>453.5</ele>
        <time>2021-03-21T09:15:35Z</time>
      </trkpt>
      <trkpt lat="42.88857" lon="2.51597">
        <ele>453.7</ele>
        <time>2021-03-21T09:15:36Z</time>
      </trkpt>
      <trkpt lat="42.8886" lon="2.51597">
        <ele>453.8</ele>
        <time>2021-03-21T09:15:37Z</time>
      </trkpt>
      <trkpt lat="42.88863" lon="2.51595">
        <ele>454.1</ele>
        <time>2021-03-21T09:15:39Z</time>
      </trkpt>
      <trkpt lat="42.88868" lon="2.51594">
        <ele>454.4</ele>
        <time>2021-03-21T09:15:40Z</time>
      </trkpt>
      <trkpt lat="42.88873" lon="2.51592">
        <ele>454.8</ele>
        <time>2021-03-21T09:15:41Z</time>
      </trkpt>
      <trkpt lat="42.88877" lon="2.5159">
        <ele>455.1</ele>
        <time>2021-03-21T09:15:43Z</time>
      </trkpt>
      <trkpt lat="42.8888" lon="2.51587">
        <ele>455.4</ele>
        <time>2021-03-21T09:15:44Z</time>
      </trkpt>
      <trkpt lat="42.88883" lon="2.51586">
        <ele>455.7</ele>
        <time>2021-03-21T09:15:45Z</time>
      </trkpt>
      <trkpt lat="42.88891" lon="2.51581">
        <ele>456.2</ele>
        <time>2021-03-21T09:15:47Z</time>
      </trkpt>
      <trkpt lat="42.88893" lon="2.51579">
        <ele>456.4</ele>
        <time>2021-03-21T09:15:48Z</time>
      </trkpt>
      <trkpt lat="42.88898" lon="2.51576">
        <ele>456.7</ele>
        <time>2021-03-21T09:15:50Z</time>
      </trkpt>
      <trkpt lat="42.88901" lon="2.51573">
        <ele>457</ele>
        <time>2021-03-21T09:15:51Z</time>
      </trkpt>
      <trkpt lat="42.88902" lon="2.51572">
        <ele>457.1</ele>
        <time>2021-03-21T09:15:52Z</time>
      </trkpt>
      <trkpt lat="42.88906" lon="2.5157">
        <ele>457.3</ele>
        <time>2021-03-21T09:15:54Z</time>
      </trkpt>
      <trkpt lat="42.88908" lon="2.51569">
        <ele>457.5</ele>
        <time>2021-03-21T09:15:55Z</time>
      </trkpt>
      <trkpt lat="42.88913" lon="2.51567">
        <ele>457.8</ele>
        <time>2021-03-21T09:15:56Z</time>
      </trkpt>
      <trkpt lat="42.88916" lon="2.51565">
        <ele>458</ele>
        <time>2021-03-21T09:15:57Z</time>
      </trkpt>
      <trkpt lat="42.88919" lon="2.51562">
        <ele>458.3</ele>
        <time>2021-03-21T09:15:58Z</time>
      </trkpt>
      <trkpt lat="42.88924" lon="2.51559">
        <ele>458.6</ele>
        <time>2021-03-21T09:16:00Z</time>
      </trkpt>
      <trkpt lat="42.88932" lon="2.51553">
        <ele>459.3</ele>
        <time>2021-03-21T09:16:02Z</time>
      </trkpt>
      <trkpt lat="42.88937" lon="2.5155">
        <ele>459.6</ele>
        <time>2021-03-21T09:16:03Z</time>
      </trkpt>
      <trkpt lat="42.88943" lon="2.51545">
        <ele>460</ele>
        <time>2021-03-21T09:16:04Z</time>
      </trkpt>
      <trkpt lat="42.88948" lon="2.51542">
        <ele>460.3</ele>
        <time>2021-03-21T09:16:05Z</time>
      </trkpt>
      <trkpt lat="42.88959" lon="2.51535">
        <ele>461.1</ele>
        <time>2021-03-21T09:16:07Z</time>
      </trkpt>
      <trkpt lat="42.88964" lon="2.51533">
        <ele>461.5</ele>
        <time>2021-03-21T09:16:08Z</time>
      </trkpt>
      <trkpt lat="42.88971" lon="2.51531">
        <ele>461.9</ele>
        <time>2021-03-21T09:16:10Z</time>
      </trkpt>
      <trkpt lat="42.88977" lon="2.5153">
        <ele>462.4</ele>
        <time>2021-03-21T09:16:12Z</time>
      </trkpt>
      <trkpt lat="42.88981" lon="2.5153">
        <ele>462.7</ele>
        <time>2021-03-21T09:16:13Z</time>
      </trkpt>
      <trkpt lat="42.88986" lon="2.51532">
        <ele>463.1</ele>
        <time>2021-03-21T09:16:15Z</time>
      </trkpt>
      <trkpt lat="42.8899" lon="2.51534">
        <ele>463.4</ele>
        <time>2021-03-21T09:16:16Z</time>
      </trkpt>
      <trkpt lat="42.88994" lon="2.51538">
        <ele>463.8</ele>
        <time>2021-03-21T09:16:18Z</time>
      </trkpt>
      <trkpt lat="42.88998" lon="2.5154">
        <ele>464</ele>
        <time>2021-03-21T09:16:19Z</time>
      </trkpt>
      <trkpt lat="42.89002" lon="2.51543">
        <ele>464.4</ele>
        <time>2021-03-21T09:16:21Z</time>
      </trkpt>
      <trkpt lat="42.89004" lon="2.51544">
        <ele>464.5</ele>
        <time>2021-03-21T09:16:22Z</time>
      </trkpt>
      <trkpt lat="42.89005" lon="2.51545">
        <ele>464.6</ele>
        <time>2021-03-21T09:16:23Z</time>
      </trkpt>
      <trkpt lat="42.89009" lon="2.51549">
        <ele>465</ele>
        <time>2021-03-21T09:16:25Z</time>
      </trkpt>
      <trkpt lat="42.89011" lon="2.51551">
        <ele>465.2</ele>
        <time>2021-03-21T09:16:26Z</time>
      </trkpt>
      <trkpt lat="42.89014" lon="2.51553">
        <ele>465.5</ele>
        <time>2021-03-21T09:16:27Z</time>
      </trkpt>
      <trkpt lat="42.89015" lon="2.51554">
        <ele>465.6</ele>
        <time>2021-03-21T09:16:28Z</time>
      </trkpt>
      <trkpt lat="42.89019" lon="2.51556">
        <ele>465.9</ele>
        <time>2021-03-21T09:16:29Z</time>
      </trkpt>
      <trkpt lat="42.8902" lon="2.51557">
        <ele>466</ele>
        <time>2021-03-21T09:16:30Z</time>
      </trkpt>
      <trkpt lat="42.89023" lon="2.5156">
        <ele>466.3</ele>
        <time>2021-03-21T09:16:32Z</time>
      </trkpt>
      <trkpt lat="42.89026" lon="2.51561">
        <ele>466.5</ele>
        <time>2021-03-21T09:16:33Z</time>
      </trkpt>
      <trkpt lat="42.8903" lon="2.51562">
        <ele>466.8</ele>
        <time>2021-03-21T09:16:34Z</time>
      </trkpt>
      <trkpt lat="42.89031" lon="2.51562">
        <ele>466.9</ele>
        <time>2021-03-21T09:16:35Z</time>
      </trkpt>
      <trkpt lat="42.89035" lon="2.51563">
        <ele>467.3</ele>
        <time>2021-03-21T09:16:37Z</time>
      </trkpt>
      <trkpt lat="42.8904" lon="2.51564">
        <ele>467.6</ele>
        <time>2021-03-21T09:16:38Z</time>
      </trkpt>
      <trkpt lat="42.89044" lon="2.51563">
        <ele>468</ele>
        <time>2021-03-21T09:16:39Z</time>
      </trkpt>
      <trkpt lat="42.89049" lon="2.51563">
        <ele>468.3</ele>
        <time>2021-03-21T09:16:40Z</time>
      </trkpt>
      <trkpt lat="42.89058" lon="2.5156">
        <ele>468.9</ele>
        <time>2021-03-21T09:16:42Z</time>
      </trkpt>
      <trkpt lat="42.89062" lon="2.51559">
        <ele>469.2</ele>
        <time>2021-03-21T09:16:43Z</time>
      </trkpt>
      <trkpt lat="42.89067" lon="2.51558">
        <ele>469.4</ele>
        <time>2021-03-21T09:16:44Z</time>
      </trkpt>
      <trkpt lat="42.8907" lon="2.51556">
        <ele>469.6</ele>
        <time>2021-03-21T09:16:45Z</time>
      </trkpt>
      <trkpt lat="42.89076" lon="2.51552">
        <ele>470</ele>
        <time>2021-03-21T09:16:47Z</time>
      </trkpt>
      <trkpt lat="42.89081" lon="2.51551">
        <ele>470.3</ele>
        <time>2021-03-21T09:16:49Z</time>
      </trkpt>
      <trkpt lat="42.89085" lon="2.51549">
        <ele>470.5</ele>
        <time>2021-03-21T09:16:50Z</time>
      </trkpt>
      <trkpt lat="42.89088" lon="2.51549">
        <ele>470.7</ele>
        <time>2021-03-21T09:16:51Z</time>
      </trkpt>
      <trkpt lat="42.8909" lon="2.51547">
        <ele>470.8</ele>
        <time>2021-03-21T09:16:53Z</time>
      </trkpt>
      <trkpt lat="42.89093" lon="2.51546">
        <ele>471</ele>
        <time>2021-03-21T09:16:54Z</time>
      </trkpt>
      <trkpt lat="42.89096" lon="2.51546">
        <ele>471.1</ele>
        <time>2021-03-21T09:16:55Z</time>
      </trkpt>
      <trkpt lat="42.891" lon="2.51546">
        <ele>471.4</ele>
        <time>2021-03-21T09:16:57Z</time>
      </trkpt>
      <trkpt lat="42.89103" lon="2.51544">
        <ele>471.6</ele>
        <time>2021-03-21T09:16:58Z</time>
      </trkpt>
      <trkpt lat="42.89106" lon="2.51543">
        <ele>471.8</ele>
        <time>2021-03-21T09:16:59Z</time>
      </trkpt>
      <trkpt lat="42.89109" lon="2.51541">
        <ele>472</ele>
        <time>2021-03-21T09:17:00Z</time>
      </trkpt>
      <trkpt lat="42.89114" lon="2.51538">
        <ele>472.4</ele>
        <time>2021-03-21T09:17:01Z</time>
      </trkpt>
      <trkpt lat="42.89119" lon="2.51534">
        <ele>472.7</ele>
        <time>2021-03-21T09:17:03Z</time>
      </trkpt>
      <trkpt lat="42.89122" lon="2.5153">
        <ele>473</ele>
        <time>2021-03-21T09:17:04Z</time>
      </trkpt>
      <trkpt lat="42.89129" lon="2.51521">
        <ele>473.7</ele>
        <time>2021-03-21T09:17:06Z</time>
      </trkpt>
      <trkpt lat="42.89131" lon="2.51516">
        <ele>474</ele>
        <time>2021-03-21T09:17:08Z</time>
      </trkpt>
      <trkpt lat="42.89133" lon="2.51512">
        <ele>474.2</ele>
        <time>2021-03-21T09:17:09Z</time>
      </trkpt>
      <trkpt lat="42.89135" lon="2.51508">
        <ele>474.5</ele>
        <time>2021-03-21T09:17:10Z</time>
      </trkpt>
      <trkpt lat="42.89137" lon="2.51502">
        <ele>474.8</ele>
        <time>2021-03-21T09:17:12Z</time>
      </trkpt>
      <trkpt lat="42.89139" lon="2.51495">
        <ele>475.2</ele>
        <time>2021-03-21T09:17:14Z</time>
      </trkpt>
      <trkpt lat="42.89143" lon="2.51489">
        <ele>475.6</ele>
        <time>2021-03-21T09:17:15Z</time>
      </trkpt>
      <trkpt lat="42.89146" lon="2.51485">
        <ele>475.9</ele>
        <time>2021-03-21T09:17:16Z</time>
      </trkpt>
      <trkpt lat="42.89151" lon="2.51476">
        <ele>476.5</ele>
        <time>2021-03-21T09:17:18Z</time>
      </trkpt>
      <trkpt lat="42.89154" lon="2.51471">
        <ele>476.9</ele>
        <time>2021-03-21T09:17:19Z</time>
      </trkpt>
      <trkpt lat="42.89157" lon="2.51465">
        <ele>477.3</ele>
        <time>2021-03-21T09:17:20Z</time>
      </trkpt>
      <trkpt lat="42.8916" lon="2.51459">
        <ele>477.7</ele>
        <time>2021-03-21T09:17:21Z</time>
      </trkpt>
      <trkpt lat="42.89163" lon="2.51453">
        <ele>478.2</ele>
        <time>2021-03-21T09:17:23Z</time>
      </trkpt>
      <trkpt lat="42.89165" lon="2.51448">
        <ele>478.5</ele>
        <time>2021-03-21T09:17:24Z</time>
      </trkpt>
      <trkpt lat="42.89167" lon="2.51443">
        <ele>478.9</ele>
        <time>2021-03-21T09:17:26Z</time>
      </trkpt>
      <trkpt lat="42.89169" lon="2.51437">
        <ele>479.3</ele>
        <time>2021-03-21T09:17:27Z</time>
      </trkpt>
      <trkpt lat="42.8917" lon="2.51432">
        <ele>479.7</ele>
        <time>2021-03-21T09:17:28Z</time>
      </trkpt>
      <trkpt lat="42.89171" lon="2.5143">
        <ele>479.8</ele>
        <time>2021-03-21T09:17:29Z</time>
      </trkpt>
      <trkpt lat="42.89172" lon="2.51425">
        <ele>480.2</ele>
        <time>2021-03-21T09:17:31Z</time>
      </trkpt>
      <trkpt lat="42.89173" lon="2.51421">
        <ele>480.4</ele>
        <time>2021-03-21T09:17:32Z</time>
      </trkpt>
      <trkpt lat="42.89174" lon="2.51418">
        <ele>480.6</ele>
        <time>2021-03-21T09:17:34Z</time>
      </trkpt>
      <trkpt lat="42.89176" lon="2.51413">
        <ele>480.9</ele>
        <time>2021-03-21T09:17:35Z</time>
      </trkpt>
      <trkpt lat="42.89178" lon="2.51408">
        <ele>481.2</ele>
        <time>2021-03-21T09:17:37Z</time>
      </trkpt>
      <trkpt lat="42.8918" lon="2.51403">
        <ele>481.6</ele>
        <time>2021-03-21T09:17:38Z</time>
      </trkpt>
      <trkpt lat="42.89182" lon="2.51396">
        <ele>481.9</ele>
        <time>2021-03-21T09:17:39Z</time>
      </trkpt>
      <trkpt lat="42.89183" lon="2.51392">
        <ele>482.2</ele>
        <time>2021-03-21T09:17:40Z</time>
      </trkpt>
      <trkpt lat="42.89187" lon="2.51381">
        <ele>482.9</ele>
        <time>2021-03-21T09:17:42Z</time>
      </trkpt>
      <trkpt lat="42.89189" lon="2.51377">
        <ele>483.1</ele>
        <time>2021-03-21T09:17:43Z</time>
      </trkpt>
      <trkpt lat="42.8919" lon="2.51372">
        <ele>483.4</ele>
        <time>2021-03-21T09:17:44Z</time>
      </trkpt>
      <trkpt lat="42.89193" lon="2.51366">
        <ele>483.7</ele>
        <time>2021-03-21T09:17:46Z</time>
      </trkpt>
      <trkpt lat="42.89196" lon="2.51358">
        <ele>484.1</ele>
        <time>2021-03-21T09:17:47Z</time>
      </trkpt>
      <trkpt lat="42.89197" lon="2.51354">
        <ele>484.4</ele>
        <time>2021-03-21T09:17:48Z</time>
      </trkpt>
      <trkpt lat="42.892" lon="2.51349">
        <ele>484.7</ele>
        <time>2021-03-21T09:17:49Z</time>
      </trkpt>
      <trkpt lat="42.89203" lon="2.51342">
        <ele>485.1</ele>
        <time>2021-03-21T09:17:51Z</time>
      </trkpt>
      <trkpt lat="42.89205" lon="2.51338">
        <ele>485.3</ele>
        <time>2021-03-21T09:17:52Z</time>
      </trkpt>
      <trkpt lat="42.89207" lon="2.51334">
        <ele>485.6</ele>
        <time>2021-03-21T09:17:53Z</time>
      </trkpt>
      <trkpt lat="42.8921" lon="2.51328">
        <ele>485.9</ele>
        <time>2021-03-21T09:17:54Z</time>
      </trkpt>
      <trkpt lat="42.89214" lon="2.51323">
        <ele>486.3</ele>
        <time>2021-03-21T09:17:56Z</time>
      </trkpt>
      <trkpt lat="42.89217" lon="2.51318">
        <ele>486.6</ele>
        <time>2021-03-21T09:17:57Z</time>
      </trkpt>
      <trkpt lat="42.89221" lon="2.51315">
        <ele>486.8</ele>
        <time>2021-03-21T09:17:58Z</time>
      </trkpt>
      <trkpt lat="42.89224" lon="2.51312">
        <ele>487.1</ele>
        <time>2021-03-21T09:18:00Z</time>
      </trkpt>
      <trkpt lat="42.8923" lon="2.51307">
        <ele>487.6</ele>
        <time>2021-03-21T09:18:01Z</time>
      </trkpt>
      <trkpt lat="42.89233" lon="2.51305">
        <ele>487.8</ele>
        <time>2021-03-21T09:18:02Z</time>
      </trkpt>
      <trkpt lat="42.89237" lon="2.51302">
        <ele>488.1</ele>
        <time>2021-03-21T09:18:04Z</time>
      </trkpt>
      <trkpt lat="42.8924" lon="2.513">
        <ele>488.3</ele>
        <time>2021-03-21T09:18:05Z</time>
      </trkpt>
      <trkpt lat="42.89245" lon="2.51295">
        <ele>488.7</ele>
        <time>2021-03-21T09:18:06Z</time>
      </trkpt>
      <trkpt lat="42.89248" lon="2.51292">
        <ele>489</ele>
        <time>2021-03-21T09:18:08Z</time>
      </trkpt>
      <trkpt lat="42.89251" lon="2.51289">
        <ele>489.2</ele>
        <time>2021-03-21T09:18:09Z</time>
      </trkpt>
      <trkpt lat="42.89253" lon="2.51285">
        <ele>489.5</ele>
        <time>2021-03-21T09:18:11Z</time>
      </trkpt>
      <trkpt lat="42.89256" lon="2.5128">
        <ele>489.9</ele>
        <time>2021-03-21T09:18:12Z</time>
      </trkpt>
      <trkpt lat="42.89258" lon="2.51276">
        <ele>490.1</ele>
        <time>2021-03-21T09:18:13Z</time>
      </trkpt>
      <trkpt lat="42.89259" lon="2.51272">
        <ele>490.4</ele>
        <time>2021-03-21T09:18:14Z</time>
      </trkpt>
      <trkpt lat="42.89262" lon="2.51266">
        <ele>490.8</ele>
        <time>2021-03-21T09:18:16Z</time>
      </trkpt>
      <trkpt lat="42.89263" lon="2.51262">
        <ele>491</ele>
        <time>2021-03-21T09:18:17Z</time>
      </trkpt>
      <trkpt lat="42.89265" lon="2.51258">
        <ele>491.3</ele>
        <time>2021-03-21T09:18:18Z</time>
      </trkpt>
      <trkpt lat="42.89266" lon="2.51254">
        <ele>491.5</ele>
        <time>2021-03-21T09:18:19Z</time>
      </trkpt>
      <trkpt lat="42.89268" lon="2.5125">
        <ele>491.8</ele>
        <time>2021-03-21T09:18:20Z</time>
      </trkpt>
      <trkpt lat="42.8927" lon="2.51243">
        <ele>492.3</ele>
        <time>2021-03-21T09:18:22Z</time>
      </trkpt>
      <trkpt lat="42.89272" lon="2.51238">
        <ele>492.5</ele>
        <time>2021-03-21T09:18:23Z</time>
      </trkpt>
      <trkpt lat="42.89274" lon="2.51231">
        <ele>493</ele>
        <time>2021-03-21T09:18:25Z</time>
      </trkpt>
      <trkpt lat="42.89278" lon="2.51221">
        <ele>493.6</ele>
        <time>2021-03-21T09:18:27Z</time>
      </trkpt>
      <trkpt lat="42.8928" lon="2.51216">
        <ele>493.9</ele>
        <time>2021-03-21T09:18:28Z</time>
      </trkpt>
      <trkpt lat="42.89283" lon="2.5121">
        <ele>494.3</ele>
        <time>2021-03-21T09:18:30Z</time>
      </trkpt>
      <trkpt lat="42.89286" lon="2.51205">
        <ele>494.6</ele>
        <time>2021-03-21T09:18:31Z</time>
      </trkpt>
      <trkpt lat="42.89291" lon="2.51198">
        <ele>495.1</ele>
        <time>2021-03-21T09:18:33Z</time>
      </trkpt>
      <trkpt lat="42.89294" lon="2.51194">
        <ele>495.4</ele>
        <time>2021-03-21T09:18:34Z</time>
      </trkpt>
      <trkpt lat="42.89297" lon="2.51191">
        <ele>495.7</ele>
        <time>2021-03-21T09:18:35Z</time>
      </trkpt>
      <trkpt lat="42.89301" lon="2.51188">
        <ele>496</ele>
        <time>2021-03-21T09:18:36Z</time>
      </trkpt>
      <trkpt lat="42.89304" lon="2.51185">
        <ele>496.3</ele>
        <time>2021-03-21T09:18:37Z</time>
      </trkpt>
      <trkpt lat="42.89307" lon="2.51182">
        <ele>496.6</ele>
        <time>2021-03-21T09:18:38Z</time>
      </trkpt>
      <trkpt lat="42.89311" lon="2.5118">
        <ele>496.8</ele>
        <time>2021-03-21T09:18:39Z</time>
      </trkpt>
      <trkpt lat="42.89316" lon="2.51176">
        <ele>497.2</ele>
        <time>2021-03-21T09:18:41Z</time>
      </trkpt>
      <trkpt lat="42.89318" lon="2.51173">
        <ele>497.4</ele>
        <time>2021-03-21T09:18:42Z</time>
      </trkpt>
      <trkpt lat="42.89322" lon="2.5117">
        <ele>497.7</ele>
        <time>2021-03-21T09:18:43Z</time>
      </trkpt>
      <trkpt lat="42.89323" lon="2.51168">
        <ele>497.9</ele>
        <time>2021-03-21T09:18:44Z</time>
      </trkpt>
      <trkpt lat="42.89326" lon="2.51164">
        <ele>498.1</ele>
        <time>2021-03-21T09:18:45Z</time>
      </trkpt>
      <trkpt lat="42.89329" lon="2.51158">
        <ele>498.5</ele>
        <time>2021-03-21T09:18:47Z</time>
      </trkpt>
      <trkpt lat="42.89331" lon="2.51154">
        <ele>498.7</ele>
        <time>2021-03-21T09:18:48Z</time>
      </trkpt>
      <trkpt lat="42.89332" lon="2.51148">
        <ele>499</ele>
        <time>2021-03-21T09:18:49Z</time>
      </trkpt>
      <trkpt lat="42.89332" lon="2.5114">
        <ele>499.4</ele>
        <time>2021-03-21T09:18:51Z</time>
      </trkpt>
      <trkpt lat="42.8933" lon="2.51133">
        <ele>499.7</ele>
        <time>2021-03-21T09:18:52Z</time>
      </trkpt>
      <trkpt lat="42.89328" lon="2.51128">
        <ele>500</ele>
        <time>2021-03-21T09:18:53Z</time>
      </trkpt>
      <trkpt lat="42.89326" lon="2.51119">
        <ele>500.4</ele>
        <time>2021-03-21T09:18:55Z</time>
      </trkpt>
      <trkpt lat="42.89325" lon="2.51114">
        <ele>500.7</ele>
        <time>2021-03-21T09:18:56Z</time>
      </trkpt>
      <trkpt lat="42.89325" lon="2.51108">
        <ele>500.9</ele>
        <time>2021-03-21T09:18:57Z</time>
      </trkpt>
      <trkpt lat="42.89325" lon="2.51103">
        <ele>501.2</ele>
        <time>2021-03-21T09:18:58Z</time>
      </trkpt>
      <trkpt lat="42.89326" lon="2.51096">
        <ele>501.5</ele>
        <time>2021-03-21T09:18:59Z</time>
      </trkpt>
      <trkpt lat="42.89328" lon="2.51087">
        <ele>501.9</ele>
        <time>2021-03-21T09:19:01Z</time>
      </trkpt>
      <trkpt lat="42.89331" lon="2.51075">
        <ele>502.6</ele>
        <time>2021-03-21T09:19:03Z</time>
      </trkpt>
      <trkpt lat="42.89333" lon="2.51066">
        <ele>503.1</ele>
        <time>2021-03-21T09:19:05Z</time>
      </trkpt>
      <trkpt lat="42.89334" lon="2.51062">
        <ele>503.3</ele>
        <time>2021-03-21T09:19:06Z</time>
      </trkpt>
      <trkpt lat="42.89336" lon="2.51053">
        <ele>503.8</ele>
        <time>2021-03-21T09:19:07Z</time>
      </trkpt>
      <trkpt lat="42.89337" lon="2.51048">
        <ele>504.1</ele>
        <time>2021-03-21T09:19:08Z</time>
      </trkpt>
      <trkpt lat="42.89337" lon="2.51046">
        <ele>504.2</ele>
        <time>2021-03-21T09:19:09Z</time>
      </trkpt>
      <trkpt lat="42.89337" lon="2.51039">
        <ele>504.6</ele>
        <time>2021-03-21T09:19:11Z</time>
      </trkpt>
      <trkpt lat="42.89337" lon="2.51033">
        <ele>504.9</ele>
        <time>2021-03-21T09:19:12Z</time>
      </trkpt>
      <trkpt lat="42.89337" lon="2.51029">
        <ele>505.1</ele>
        <time>2021-03-21T09:19:13Z</time>
      </trkpt>
      <trkpt lat="42.89336" lon="2.51023">
        <ele>505.4</ele>
        <time>2021-03-21T09:19:14Z</time>
      </trkpt>
      <trkpt lat="42.89334" lon="2.51015">
        <ele>505.9</ele>
        <time>2021-03-21T09:19:16Z</time>
      </trkpt>
      <trkpt lat="42.89333" lon="2.51011">
        <ele>506.1</ele>
        <time>2021-03-21T09:19:17Z</time>
      </trkpt>
      <trkpt lat="42.89332" lon="2.51006">
        <ele>506.4</ele>
        <time>2021-03-21T09:19:18Z</time>
      </trkpt>
      <trkpt lat="42.89331" lon="2.51003">
        <ele>506.6</ele>
        <time>2021-03-21T09:19:19Z</time>
      </trkpt>
      <trkpt lat="42.89329" lon="2.50999">
        <ele>506.8</ele>
        <time>2021-03-21T09:19:20Z</time>
      </trkpt>
      <trkpt lat="42.89328" lon="2.50995">
        <ele>507</ele>
        <time>2021-03-21T09:19:21Z</time>
      </trkpt>
      <trkpt lat="42.89326" lon="2.5099">
        <ele>507.3</ele>
        <time>2021-03-21T09:19:22Z</time>
      </trkpt>
      <trkpt lat="42.89323" lon="2.50985">
        <ele>507.6</ele>
        <time>2021-03-21T09:19:24Z</time>
      </trkpt>
      <trkpt lat="42.89322" lon="2.50982">
        <ele>507.8</ele>
        <time>2021-03-21T09:19:25Z</time>
      </trkpt>
      <trkpt lat="42.8932" lon="2.50979">
        <ele>507.9</ele>
        <time>2021-03-21T09:19:26Z</time>
      </trkpt>
      <trkpt lat="42.89317" lon="2.50973">
        <ele>508.3</ele>
        <time>2021-03-21T09:19:27Z</time>
      </trkpt>
      <trkpt lat="42.89316" lon="2.5097">
        <ele>508.4</ele>
        <time>2021-03-21T09:19:28Z</time>
      </trkpt>
      <trkpt lat="42.89316" lon="2.50963">
        <ele>508.8</ele>
        <time>2021-03-21T09:19:30Z</time>
      </trkpt>
      <trkpt lat="42.89317" lon="2.50959">
        <ele>509</ele>
        <time>2021-03-21T09:19:31Z</time>
      </trkpt>
      <trkpt lat="42.8932" lon="2.50954">
        <ele>509.3</ele>
        <time>2021-03-21T09:19:32Z</time>
      </trkpt>
      <trkpt lat="42.89324" lon="2.50948">
        <ele>509.8</ele>
        <time>2021-03-21T09:19:34Z</time>
      </trkpt>
      <trkpt lat="42.89327" lon="2.50947">
        <ele>510</ele>
        <time>2021-03-21T09:19:35Z</time>
      </trkpt>
      <trkpt lat="42.89332" lon="2.50946">
        <ele>510.4</ele>
        <time>2021-03-21T09:19:37Z</time>
      </trkpt>
      <trkpt lat="42.89335" lon="2.50946">
        <ele>510.6</ele>
        <time>2021-03-21T09:19:38Z</time>
      </trkpt>
      <trkpt lat="42.89338" lon="2.50948">
        <ele>510.8</ele>
        <time>2021-03-21T09:19:39Z</time>
      </trkpt>
      <trkpt lat="42.8934" lon="2.5095">
        <ele>511</ele>
        <time>2021-03-21T09:19:40Z</time>
      </trkpt>
      <trkpt lat="42.89343" lon="2.50958">
        <ele>511.5</ele>
        <time>2021-03-21T09:19:42Z</time>
      </trkpt>
      <trkpt lat="42.89343" lon="2.50964">
        <ele>511.9</ele>
        <time>2021-03-21T09:19:44Z</time>
      </trkpt>
      <trkpt lat="42.89343" lon="2.50965">
        <ele>512</ele>
        <time>2021-03-21T09:19:45Z</time>
      </trkpt>
      <trkpt lat="42.89343" lon="2.50967">
        <ele>512.1</ele>
        <time>2021-03-21T09:19:46Z</time>
      </trkpt>
      <trkpt lat="42.89343" lon="2.50973">
        <ele>512.4</ele>
        <time>2021-03-21T09:19:48Z</time>
      </trkpt>
      <trkpt lat="42.89344" lon="2.50974">
        <ele>512.5</ele>
        <time>2021-03-21T09:19:49Z</time>
      </trkpt>
      <trkpt lat="42.89344" lon="2.50977">
        <ele>512.7</ele>
        <time>2021-03-21T09:19:50Z</time>
      </trkpt>
      <trkpt lat="42.89345" lon="2.5098">
        <ele>512.8</ele>
        <time>2021-03-21T09:19:51Z</time>
      </trkpt>
      <trkpt lat="42.89346" lon="2.50984">
        <ele>513.1</ele>
        <time>2021-03-21T09:19:53Z</time>
      </trkpt>
      <trkpt lat="42.89348" lon="2.50988">
        <ele>513.4</ele>
        <time>2021-03-21T09:19:54Z</time>
      </trkpt>
      <trkpt lat="42.89349" lon="2.50992">
        <ele>513.7</ele>
        <time>2021-03-21T09:19:55Z</time>
      </trkpt>
      <trkpt lat="42.8935" lon="2.50994">
        <ele>513.7</ele>
        <time>2021-03-21T09:19:56Z</time>
      </trkpt>
      <trkpt lat="42.89351" lon="2.50999">
        <ele>514.1</ele>
        <time>2021-03-21T09:19:58Z</time>
      </trkpt>
      <trkpt lat="42.89352" lon="2.51003">
        <ele>514.3</ele>
        <time>2021-03-21T09:19:59Z</time>
      </trkpt>
      <trkpt lat="42.89354" lon="2.51009">
        <ele>514.7</ele>
        <time>2021-03-21T09:20:00Z</time>
      </trkpt>
      <trkpt lat="42.89355" lon="2.51015">
        <ele>515.1</ele>
        <time>2021-03-21T09:20:02Z</time>
      </trkpt>
      <trkpt lat="42.89359" lon="2.51028">
        <ele>515.8</ele>
        <time>2021-03-21T09:20:04Z</time>
      </trkpt>
      <trkpt lat="42.8936" lon="2.51033">
        <ele>516.1</ele>
        <time>2021-03-21T09:20:05Z</time>
      </trkpt>
      <trkpt lat="42.89361" lon="2.51038">
        <ele>516.4</ele>
        <time>2021-03-21T09:20:06Z</time>
      </trkpt>
      <trkpt lat="42.89363" lon="2.51046">
        <ele>516.8</ele>
        <time>2021-03-21T09:20:07Z</time>
      </trkpt>
      <trkpt lat="42.89364" lon="2.51052">
        <ele>517.1</ele>
        <time>2021-03-21T09:20:08Z</time>
      </trkpt>
      <trkpt lat="42.89367" lon="2.51059">
        <ele>517.5</ele>
        <time>2021-03-21T09:20:10Z</time>
      </trkpt>
      <trkpt lat="42.89369" lon="2.51064">
        <ele>517.8</ele>
        <time>2021-03-21T09:20:11Z</time>
      </trkpt>
      <trkpt lat="42.89372" lon="2.51068">
        <ele>518</ele>
        <time>2021-03-21T09:20:12Z</time>
      </trkpt>
      <trkpt lat="42.89376" lon="2.51072">
        <ele>518.4</ele>
        <time>2021-03-21T09:20:14Z</time>
      </trkpt>
      <trkpt lat="42.8938" lon="2.51074">
        <ele>518.7</ele>
        <time>2021-03-21T09:20:15Z</time>
      </trkpt>
      <trkpt lat="42.89386" lon="2.51076">
        <ele>519.2</ele>
        <time>2021-03-21T09:20:17Z</time>
      </trkpt>
      <trkpt lat="42.8939" lon="2.51076">
        <ele>519.5</ele>
        <time>2021-03-21T09:20:18Z</time>
      </trkpt>
      <trkpt lat="42.89392" lon="2.51077">
        <ele>519.7</ele>
        <time>2021-03-21T09:20:19Z</time>
      </trkpt>
      <trkpt lat="42.89397" lon="2.51077">
        <ele>520.1</ele>
        <time>2021-03-21T09:20:21Z</time>
      </trkpt>
      <trkpt lat="42.89401" lon="2.51078">
        <ele>520.5</ele>
        <time>2021-03-21T09:20:22Z</time>
      </trkpt>
      <trkpt lat="42.89403" lon="2.51079">
        <ele>520.7</ele>
        <time>2021-03-21T09:20:23Z</time>
      </trkpt>
      <trkpt lat="42.89406" lon="2.5108">
        <ele>520.9</ele>
        <time>2021-03-21T09:20:25Z</time>
      </trkpt>
      <trkpt lat="42.89409" lon="2.51082">
        <ele>521.2</ele>
        <time>2021-03-21T09:20:26Z</time>
      </trkpt>
      <trkpt lat="42.89413" lon="2.51088">
        <ele>521.7</ele>
        <time>2021-03-21T09:20:27Z</time>
      </trkpt>
      <trkpt lat="42.89414" lon="2.51092">
        <ele>521.9</ele>
        <time>2021-03-21T09:20:29Z</time>
      </trkpt>
      <trkpt lat="42.89415" lon="2.51097">
        <ele>522.2</ele>
        <time>2021-03-21T09:20:30Z</time>
      </trkpt>
      <trkpt lat="42.89415" lon="2.511">
        <ele>522.4</ele>
        <time>2021-03-21T09:20:31Z</time>
      </trkpt>
      <trkpt lat="42.89414" lon="2.51105">
        <ele>522.6</ele>
        <time>2021-03-21T09:20:32Z</time>
      </trkpt>
      <trkpt lat="42.89413" lon="2.51109">
        <ele>522.9</ele>
        <time>2021-03-21T09:20:33Z</time>
      </trkpt>
      <trkpt lat="42.89412" lon="2.51113">
        <ele>523.1</ele>
        <time>2021-03-21T09:20:34Z</time>
      </trkpt>
      <trkpt lat="42.89411" lon="2.51118">
        <ele>523.4</ele>
        <time>2021-03-21T09:20:36Z</time>
      </trkpt>
      <trkpt lat="42.89408" lon="2.51125">
        <ele>523.7</ele>
        <time>2021-03-21T09:20:38Z</time>
      </trkpt>
      <trkpt lat="42.89406" lon="2.5113">
        <ele>524</ele>
        <time>2021-03-21T09:20:39Z</time>
      </trkpt>
      <trkpt lat="42.89403" lon="2.51137">
        <ele>524.5</ele>
        <time>2021-03-21T09:20:41Z</time>
      </trkpt>
      <trkpt lat="42.89399" lon="2.51145">
        <ele>524.9</ele>
        <time>2021-03-21T09:20:42Z</time>
      </trkpt>
      <trkpt lat="42.89396" lon="2.51151">
        <ele>525.2</ele>
        <time>2021-03-21T09:20:44Z</time>
      </trkpt>
      <trkpt lat="42.89394" lon="2.51154">
        <ele>525.5</ele>
        <time>2021-03-21T09:20:45Z</time>
      </trkpt>
      <trkpt lat="42.89391" lon="2.51159">
        <ele>525.7</ele>
        <time>2021-03-21T09:20:46Z</time>
      </trkpt>
      <trkpt lat="42.89389" lon="2.51163">
        <ele>525.9</ele>
        <time>2021-03-21T09:20:48Z</time>
      </trkpt>
      <trkpt lat="42.89386" lon="2.51168">
        <ele>526.2</ele>
        <time>2021-03-21T09:20:49Z</time>
      </trkpt>
      <trkpt lat="42.89384" lon="2.51173">
        <ele>526.5</ele>
        <time>2021-03-21T09:20:50Z</time>
      </trkpt>
      <trkpt lat="42.89382" lon="2.51178">
        <ele>526.8</ele>
        <time>2021-03-21T09:20:51Z</time>
      </trkpt>
      <trkpt lat="42.89379" lon="2.51187">
        <ele>527.2</ele>
        <time>2021-03-21T09:20:53Z</time>
      </trkpt>
      <trkpt lat="42.89377" lon="2.51192">
        <ele>527.6</ele>
        <time>2021-03-21T09:20:55Z</time>
      </trkpt>
      <trkpt lat="42.89375" lon="2.51198">
        <ele>527.9</ele>
        <time>2021-03-21T09:20:56Z</time>
      </trkpt>
      <trkpt lat="42.89373" lon="2.51202">
        <ele>528.2</ele>
        <time>2021-03-21T09:20:57Z</time>
      </trkpt>
      <trkpt lat="42.89372" lon="2.51206">
        <ele>528.4</ele>
        <time>2021-03-21T09:20:58Z</time>
      </trkpt>
      <trkpt lat="42.89371" lon="2.51211">
        <ele>528.7</ele>
        <time>2021-03-21T09:21:00Z</time>
      </trkpt>
      <trkpt lat="42.89369" lon="2.51216">
        <ele>529</ele>
        <time>2021-03-21T09:21:01Z</time>
      </trkpt>
      <trkpt lat="42.89369" lon="2.51217">
        <ele>529.1</ele>
        <time>2021-03-21T09:21:02Z</time>
      </trkpt>
      <trkpt lat="42.89369" lon="2.5122">
        <ele>529.3</ele>
        <time>2021-03-21T09:21:04Z</time>
      </trkpt>
      <trkpt lat="42.89369" lon="2.51221">
        <ele>529.4</ele>
        <time>2021-03-21T09:21:05Z</time>
      </trkpt>
      <trkpt lat="42.89369" lon="2.51222">
        <ele>529.4</ele>
        <time>2021-03-21T09:21:06Z</time>
      </trkpt>
      <trkpt lat="42.89368" lon="2.51222">
        <ele>529.4</ele>
        <time>2021-03-21T09:21:07Z</time>
      </trkpt>
      <trkpt lat="42.89367" lon="2.51228">
        <ele>529.8</ele>
        <time>2021-03-21T09:21:09Z</time>
      </trkpt>
      <trkpt lat="42.89365" lon="2.51235">
        <ele>530.2</ele>
        <time>2021-03-21T09:21:11Z</time>
      </trkpt>
      <trkpt lat="42.89363" lon="2.5124">
        <ele>530.5</ele>
        <time>2021-03-21T09:21:12Z</time>
      </trkpt>
      <trkpt lat="42.89362" lon="2.51246">
        <ele>530.9</ele>
        <time>2021-03-21T09:21:13Z</time>
      </trkpt>
      <trkpt lat="42.8936" lon="2.51253">
        <ele>531.3</ele>
        <time>2021-03-21T09:21:14Z</time>
      </trkpt>
      <trkpt lat="42.89358" lon="2.51261">
        <ele>531.7</ele>
        <time>2021-03-21T09:21:15Z</time>
      </trkpt>
      <trkpt lat="42.89356" lon="2.51273">
        <ele>532.4</ele>
        <time>2021-03-21T09:21:17Z</time>
      </trkpt>
      <trkpt lat="42.89356" lon="2.51278">
        <ele>532.7</ele>
        <time>2021-03-21T09:21:18Z</time>
      </trkpt>
      <trkpt lat="42.89355" lon="2.51287">
        <ele>533.1</ele>
        <time>2021-03-21T09:21:20Z</time>
      </trkpt>
      <trkpt lat="42.89355" lon="2.51292">
        <ele>533.4</ele>
        <time>2021-03-21T09:21:21Z</time>
      </trkpt>
      <trkpt lat="42.89355" lon="2.51299">
        <ele>533.8</ele>
        <time>2021-03-21T09:21:22Z</time>
      </trkpt>
      <trkpt lat="42.89355" lon="2.51306">
        <ele>534.2</ele>
        <time>2021-03-21T09:21:24Z</time>
      </trkpt>
      <trkpt lat="42.89355" lon="2.51311">
        <ele>534.5</ele>
        <time>2021-03-21T09:21:25Z</time>
      </trkpt>
      <trkpt lat="42.89355" lon="2.51316">
        <ele>534.8</ele>
        <time>2021-03-21T09:21:26Z</time>
      </trkpt>
      <trkpt lat="42.89356" lon="2.51323">
        <ele>535.2</ele>
        <time>2021-03-21T09:21:28Z</time>
      </trkpt>
      <trkpt lat="42.89358" lon="2.5133">
        <ele>535.6</ele>
        <time>2021-03-21T09:21:29Z</time>
      </trkpt>
      <trkpt lat="42.89359" lon="2.51334">
        <ele>535.9</ele>
        <time>2021-03-21T09:21:30Z</time>
      </trkpt>
      <trkpt lat="42.8936" lon="2.51339">
        <ele>536.2</ele>
        <time>2021-03-21T09:21:31Z</time>
      </trkpt>
      <trkpt lat="42.89361" lon="2.51343">
        <ele>536.5</ele>
        <time>2021-03-21T09:21:33Z</time>
      </trkpt>
      <trkpt lat="42.89362" lon="2.51348">
        <ele>536.8</ele>
        <time>2021-03-21T09:21:34Z</time>
      </trkpt>
      <trkpt lat="42.89363" lon="2.51352">
        <ele>537.1</ele>
        <time>2021-03-21T09:21:35Z</time>
      </trkpt>
      <trkpt lat="42.89365" lon="2.51356">
        <ele>537.4</ele>
        <time>2021-03-21T09:21:36Z</time>
      </trkpt>
      <trkpt lat="42.89367" lon="2.5136">
        <ele>537.7</ele>
        <time>2021-03-21T09:21:37Z</time>
      </trkpt>
      <trkpt lat="42.8937" lon="2.51367">
        <ele>538.2</ele>
        <time>2021-03-21T09:21:39Z</time>
      </trkpt>
      <trkpt lat="42.89371" lon="2.5137">
        <ele>538.4</ele>
        <time>2021-03-21T09:21:40Z</time>
      </trkpt>
      <trkpt lat="42.89375" lon="2.51377">
        <ele>538.9</ele>
        <time>2021-03-21T09:21:42Z</time>
      </trkpt>
      <trkpt lat="42.89376" lon="2.5138">
        <ele>539.2</ele>
        <time>2021-03-21T09:21:43Z</time>
      </trkpt>
      <trkpt lat="42.89378" lon="2.51383">
        <ele>539.4</ele>
        <time>2021-03-21T09:21:44Z</time>
      </trkpt>
      <trkpt lat="42.89381" lon="2.51387">
        <ele>539.7</ele>
        <time>2021-03-21T09:21:45Z</time>
      </trkpt>
      <trkpt lat="42.89384" lon="2.51391">
        <ele>540.1</ele>
        <time>2021-03-21T09:21:47Z</time>
      </trkpt>
      <trkpt lat="42.89386" lon="2.51395">
        <ele>540.4</ele>
        <time>2021-03-21T09:21:48Z</time>
      </trkpt>
      <trkpt lat="42.89388" lon="2.514">
        <ele>540.8</ele>
        <time>2021-03-21T09:21:50Z</time>
      </trkpt>
      <trkpt lat="42.8939" lon="2.51404">
        <ele>541.1</ele>
        <time>2021-03-21T09:21:51Z</time>
      </trkpt>
      <trkpt lat="42.89393" lon="2.51408">
        <ele>541.4</ele>
        <time>2021-03-21T09:21:52Z</time>
      </trkpt>
      <trkpt lat="42.89395" lon="2.51411">
        <ele>541.7</ele>
        <time>2021-03-21T09:21:53Z</time>
      </trkpt>
      <trkpt lat="42.89399" lon="2.51416">
        <ele>542.1</ele>
        <time>2021-03-21T09:21:55Z</time>
      </trkpt>
      <trkpt lat="42.89401" lon="2.5142">
        <ele>542.4</ele>
        <time>2021-03-21T09:21:56Z</time>
      </trkpt>
      <trkpt lat="42.89403" lon="2.51425">
        <ele>542.8</ele>
        <time>2021-03-21T09:21:58Z</time>
      </trkpt>
      <trkpt lat="42.89405" lon="2.51428">
        <ele>543.1</ele>
        <time>2021-03-21T09:21:59Z</time>
      </trkpt>
      <trkpt lat="42.89407" lon="2.51433">
        <ele>543.4</ele>
        <time>2021-03-21T09:22:00Z</time>
      </trkpt>
      <trkpt lat="42.89411" lon="2.51439">
        <ele>543.9</ele>
        <time>2021-03-21T09:22:02Z</time>
      </trkpt>
      <trkpt lat="42.89413" lon="2.51442">
        <ele>544.2</ele>
        <time>2021-03-21T09:22:03Z</time>
      </trkpt>
      <trkpt lat="42.89415" lon="2.51445">
        <ele>544.4</ele>
        <time>2021-03-21T09:22:04Z</time>
      </trkpt>
      <trkpt lat="42.89417" lon="2.51448">
        <ele>544.6</ele>
        <time>2021-03-21T09:22:05Z</time>
      </trkpt>
      <trkpt lat="42.89421" lon="2.51451">
        <ele>544.9</ele>
        <time>2021-03-21T09:22:07Z</time>
      </trkpt>
      <trkpt lat="42.89425" lon="2.51451">
        <ele>545.2</ele>
        <time>2021-03-21T09:22:08Z</time>
      </trkpt>
      <trkpt lat="42.89428" lon="2.51451">
        <ele>545.5</ele>
        <time>2021-03-21T09:22:09Z</time>
      </trkpt>
      <trkpt lat="42.89433" lon="2.51448">
        <ele>545.9</ele>
        <time>2021-03-21T09:22:11Z</time>
      </trkpt>
      <trkpt lat="42.89436" lon="2.51447">
        <ele>546.2</ele>
        <time>2021-03-21T09:22:12Z</time>
      </trkpt>
      <trkpt lat="42.89438" lon="2.51445">
        <ele>546.4</ele>
        <time>2021-03-21T09:22:13Z</time>
      </trkpt>
      <trkpt lat="42.8944" lon="2.51444">
        <ele>546.5</ele>
        <time>2021-03-21T09:22:15Z</time>
      </trkpt>
      <trkpt lat="42.89441" lon="2.51443">
        <ele>546.6</ele>
        <time>2021-03-21T09:22:16Z</time>
      </trkpt>
      <trkpt lat="42.89442" lon="2.5144">
        <ele>546.8</ele>
        <time>2021-03-21T09:22:17Z</time>
      </trkpt>
      <trkpt lat="42.89444" lon="2.51437">
        <ele>547</ele>
        <time>2021-03-21T09:22:18Z</time>
      </trkpt>
      <trkpt lat="42.89445" lon="2.51436">
        <ele>547.1</ele>
        <time>2021-03-21T09:22:19Z</time>
      </trkpt>
      <trkpt lat="42.89447" lon="2.51432">
        <ele>547.5</ele>
        <time>2021-03-21T09:22:21Z</time>
      </trkpt>
      <trkpt lat="42.89448" lon="2.5143">
        <ele>547.6</ele>
        <time>2021-03-21T09:22:22Z</time>
      </trkpt>
      <trkpt lat="42.89452" lon="2.51425">
        <ele>548</ele>
        <time>2021-03-21T09:22:23Z</time>
      </trkpt>
      <trkpt lat="42.89453" lon="2.51423">
        <ele>548.2</ele>
        <time>2021-03-21T09:22:24Z</time>
      </trkpt>
      <trkpt lat="42.89457" lon="2.51419">
        <ele>548.5</ele>
        <time>2021-03-21T09:22:26Z</time>
      </trkpt>
      <trkpt lat="42.89458" lon="2.51417">
        <ele>548.7</ele>
        <time>2021-03-21T09:22:27Z</time>
      </trkpt>
      <trkpt lat="42.89459" lon="2.51416">
        <ele>548.8</ele>
        <time>2021-03-21T09:22:28Z</time>
      </trkpt>
      <trkpt lat="42.89464" lon="2.51411">
        <ele>549.3</ele>
        <time>2021-03-21T09:22:29Z</time>
      </trkpt>
      <trkpt lat="42.89467" lon="2.51409">
        <ele>549.6</ele>
        <time>2021-03-21T09:22:30Z</time>
      </trkpt>
      <trkpt lat="42.89471" lon="2.51406">
        <ele>549.9</ele>
        <time>2021-03-21T09:22:32Z</time>
      </trkpt>
      <trkpt lat="42.89474" lon="2.51402">
        <ele>550.3</ele>
        <time>2021-03-21T09:22:33Z</time>
      </trkpt>
      <trkpt lat="42.89479" lon="2.51398">
        <ele>550.8</ele>
        <time>2021-03-21T09:22:34Z</time>
      </trkpt>
      <trkpt lat="42.89481" lon="2.51397">
        <ele>551</ele>
        <time>2021-03-21T09:22:35Z</time>
      </trkpt>
      <trkpt lat="42.89485" lon="2.51394">
        <ele>551.4</ele>
        <time>2021-03-21T09:22:37Z</time>
      </trkpt>
      <trkpt lat="42.89488" lon="2.51391">
        <ele>551.7</ele>
        <time>2021-03-21T09:22:38Z</time>
      </trkpt>
      <trkpt lat="42.89492" lon="2.51388">
        <ele>552</ele>
        <time>2021-03-21T09:22:39Z</time>
      </trkpt>
      <trkpt lat="42.89496" lon="2.51385">
        <ele>552.5</ele>
        <time>2021-03-21T09:22:41Z</time>
      </trkpt>
      <trkpt lat="42.89498" lon="2.51383">
        <ele>552.6</ele>
        <time>2021-03-21T09:22:42Z</time>
      </trkpt>
      <trkpt lat="42.895" lon="2.51381">
        <ele>552.8</ele>
        <time>2021-03-21T09:22:43Z</time>
      </trkpt>
      <trkpt lat="42.89504" lon="2.51378">
        <ele>553.3</ele>
        <time>2021-03-21T09:22:45Z</time>
      </trkpt>
      <trkpt lat="42.89507" lon="2.51376">
        <ele>553.6</ele>
        <time>2021-03-21T09:22:46Z</time>
      </trkpt>
      <trkpt lat="42.89508" lon="2.51375">
        <ele>553.7</ele>
        <time>2021-03-21T09:22:47Z</time>
      </trkpt>
      <trkpt lat="42.89511" lon="2.51372">
        <ele>554</ele>
        <time>2021-03-21T09:22:48Z</time>
      </trkpt>
      <trkpt lat="42.89514" lon="2.51369">
        <ele>554.4</ele>
        <time>2021-03-21T09:22:49Z</time>
      </trkpt>
      <trkpt lat="42.89517" lon="2.51366">
        <ele>554.8</ele>
        <time>2021-03-21T09:22:50Z</time>
      </trkpt>
      <trkpt lat="42.89521" lon="2.51363">
        <ele>555.2</ele>
        <time>2021-03-21T09:22:52Z</time>
      </trkpt>
      <trkpt lat="42.89525" lon="2.5136">
        <ele>555.6</ele>
        <time>2021-03-21T09:22:53Z</time>
      </trkpt>
      <trkpt lat="42.89529" lon="2.51356">
        <ele>556.1</ele>
        <time>2021-03-21T09:22:54Z</time>
      </trkpt>
      <trkpt lat="42.89532" lon="2.51353">
        <ele>556.5</ele>
        <time>2021-03-21T09:22:56Z</time>
      </trkpt>
      <trkpt lat="42.89534" lon="2.51351">
        <ele>556.7</ele>
        <time>2021-03-21T09:22:57Z</time>
      </trkpt>
      <trkpt lat="42.89537" lon="2.51349">
        <ele>557</ele>
        <time>2021-03-21T09:22:58Z</time>
      </trkpt>
      <trkpt lat="42.89541" lon="2.51345">
        <ele>557.5</ele>
        <time>2021-03-21T09:22:59Z</time>
      </trkpt>
      <trkpt lat="42.89543" lon="2.51344">
        <ele>557.7</ele>
        <time>2021-03-21T09:23:00Z</time>
      </trkpt>
      <trkpt lat="42.89546" lon="2.51342">
        <ele>558</ele>
        <time>2021-03-21T09:23:02Z</time>
      </trkpt>
      <trkpt lat="42.8955" lon="2.51341">
        <ele>558.3</ele>
        <time>2021-03-21T09:23:03Z</time>
      </trkpt>
      <trkpt lat="42.89553" lon="2.51339">
        <ele>558.7</ele>
        <time>2021-03-21T09:23:04Z</time>
      </trkpt>
      <trkpt lat="42.89554" lon="2.51338">
        <ele>558.8</ele>
        <time>2021-03-21T09:23:05Z</time>
      </trkpt>
      <trkpt lat="42.89556" lon="2.51337">
        <ele>559</ele>
        <time>2021-03-21T09:23:07Z</time>
      </trkpt>
      <trkpt lat="42.8956" lon="2.51335">
        <ele>559.4</ele>
        <time>2021-03-21T09:23:08Z</time>
      </trkpt>
      <trkpt lat="42.89561" lon="2.51335">
        <ele>559.6</ele>
        <time>2021-03-21T09:23:09Z</time>
      </trkpt>
      <trkpt lat="42.89565" lon="2.51333">
        <ele>559.9</ele>
        <time>2021-03-21T09:23:10Z</time>
      </trkpt>
      <trkpt lat="42.89565" lon="2.51332">
        <ele>560</ele>
        <time>2021-03-21T09:23:11Z</time>
      </trkpt>
      <trkpt lat="42.89569" lon="2.5133">
        <ele>560.4</ele>
        <time>2021-03-21T09:23:12Z</time>
      </trkpt>
      <trkpt lat="42.8957" lon="2.5133">
        <ele>560.5</ele>
        <time>2021-03-21T09:23:13Z</time>
      </trkpt>
      <trkpt lat="42.89575" lon="2.51328">
        <ele>561</ele>
        <time>2021-03-21T09:23:14Z</time>
      </trkpt>
      <trkpt lat="42.89578" lon="2.51327">
        <ele>561.2</ele>
        <time>2021-03-21T09:23:16Z</time>
      </trkpt>
      <trkpt lat="42.89581" lon="2.51326">
        <ele>561.5</ele>
        <time>2021-03-21T09:23:17Z</time>
      </trkpt>
      <trkpt lat="42.89585" lon="2.51325">
        <ele>561.9</ele>
        <time>2021-03-21T09:23:18Z</time>
      </trkpt>
      <trkpt lat="42.8959" lon="2.51324">
        <ele>562.4</ele>
        <time>2021-03-21T09:23:19Z</time>
      </trkpt>
      <trkpt lat="42.89594" lon="2.51324">
        <ele>562.8</ele>
        <time>2021-03-21T09:23:21Z</time>
      </trkpt>
      <trkpt lat="42.89597" lon="2.51325">
        <ele>563</ele>
        <time>2021-03-21T09:23:22Z</time>
      </trkpt>
      <trkpt lat="42.89604" lon="2.51326">
        <ele>563.7</ele>
        <time>2021-03-21T09:23:24Z</time>
      </trkpt>
      <trkpt lat="42.89607" lon="2.51327">
        <ele>564</ele>
        <time>2021-03-21T09:23:26Z</time>
      </trkpt>
      <trkpt lat="42.89611" lon="2.51328">
        <ele>564.3</ele>
        <time>2021-03-21T09:23:27Z</time>
      </trkpt>
      <trkpt lat="42.89614" lon="2.51328">
        <ele>564.6</ele>
        <time>2021-03-21T09:23:28Z</time>
      </trkpt>
      <trkpt lat="42.89618" lon="2.5133">
        <ele>565.1</ele>
        <time>2021-03-21T09:23:29Z</time>
      </trkpt>
      <trkpt lat="42.89621" lon="2.5133">
        <ele>565.3</ele>
        <time>2021-03-21T09:23:31Z</time>
      </trkpt>
      <trkpt lat="42.89624" lon="2.51331">
        <ele>565.6</ele>
        <time>2021-03-21T09:23:32Z</time>
      </trkpt>
      <trkpt lat="42.89629" lon="2.51331">
        <ele>566.1</ele>
        <time>2021-03-21T09:23:34Z</time>
      </trkpt>
      <trkpt lat="42.89632" lon="2.51331">
        <ele>566.3</ele>
        <time>2021-03-21T09:23:36Z</time>
      </trkpt>
      <trkpt lat="42.89635" lon="2.51331">
        <ele>566.6</ele>
        <time>2021-03-21T09:23:37Z</time>
      </trkpt>
      <trkpt lat="42.89638" lon="2.5133">
        <ele>566.9</ele>
        <time>2021-03-21T09:23:39Z</time>
      </trkpt>
      <trkpt lat="42.89643" lon="2.51329">
        <ele>567.3</ele>
        <time>2021-03-21T09:23:40Z</time>
      </trkpt>
      <trkpt lat="42.89645" lon="2.51328">
        <ele>567.4</ele>
        <time>2021-03-21T09:23:41Z</time>
      </trkpt>
      <trkpt lat="42.89648" lon="2.51328">
        <ele>567.7</ele>
        <time>2021-03-21T09:23:43Z</time>
      </trkpt>
      <trkpt lat="42.89653" lon="2.51328">
        <ele>568.2</ele>
        <time>2021-03-21T09:23:45Z</time>
      </trkpt>
      <trkpt lat="42.89656" lon="2.51328">
        <ele>568.4</ele>
        <time>2021-03-21T09:23:46Z</time>
      </trkpt>
      <trkpt lat="42.8966" lon="2.51328">
        <ele>568.8</ele>
        <time>2021-03-21T09:23:47Z</time>
      </trkpt>
      <trkpt lat="42.89662" lon="2.51328">
        <ele>568.9</ele>
        <time>2021-03-21T09:23:48Z</time>
      </trkpt>
      <trkpt lat="42.89667" lon="2.51327">
        <ele>569.3</ele>
        <time>2021-03-21T09:23:49Z</time>
      </trkpt>
      <trkpt lat="42.89671" lon="2.51327">
        <ele>569.6</ele>
        <time>2021-03-21T09:23:51Z</time>
      </trkpt>
      <trkpt lat="42.89676" lon="2.51326">
        <ele>570.1</ele>
        <time>2021-03-21T09:23:52Z</time>
      </trkpt>
      <trkpt lat="42.8968" lon="2.51326">
        <ele>570.3</ele>
        <time>2021-03-21T09:23:53Z</time>
      </trkpt>
      <trkpt lat="42.89686" lon="2.51324">
        <ele>570.9</ele>
        <time>2021-03-21T09:23:55Z</time>
      </trkpt>
      <trkpt lat="42.8969" lon="2.51322">
        <ele>571.3</ele>
        <time>2021-03-21T09:23:56Z</time>
      </trkpt>
      <trkpt lat="42.89694" lon="2.5132">
        <ele>571.6</ele>
        <time>2021-03-21T09:23:57Z</time>
      </trkpt>
      <trkpt lat="42.89702" lon="2.51316">
        <ele>572.3</ele>
        <time>2021-03-21T09:23:59Z</time>
      </trkpt>
      <trkpt lat="42.89706" lon="2.51314">
        <ele>572.8</ele>
        <time>2021-03-21T09:24:00Z</time>
      </trkpt>
      <trkpt lat="42.8971" lon="2.51311">
        <ele>573.2</ele>
        <time>2021-03-21T09:24:01Z</time>
      </trkpt>
      <trkpt lat="42.89713" lon="2.5131">
        <ele>573.6</ele>
        <time>2021-03-21T09:24:02Z</time>
      </trkpt>
      <trkpt lat="42.8972" lon="2.51305">
        <ele>574.4</ele>
        <time>2021-03-21T09:24:04Z</time>
      </trkpt>
      <trkpt lat="42.89724" lon="2.51303">
        <ele>574.8</ele>
        <time>2021-03-21T09:24:06Z</time>
      </trkpt>
      <trkpt lat="42.89728" lon="2.513">
        <ele>575.3</ele>
        <time>2021-03-21T09:24:07Z</time>
      </trkpt>
      <trkpt lat="42.89732" lon="2.51298">
        <ele>575.7</ele>
        <time>2021-03-21T09:24:09Z</time>
      </trkpt>
      <trkpt lat="42.89737" lon="2.51294">
        <ele>576.2</ele>
        <time>2021-03-21T09:24:10Z</time>
      </trkpt>
      <trkpt lat="42.8974" lon="2.51291">
        <ele>576.6</ele>
        <time>2021-03-21T09:24:12Z</time>
      </trkpt>
      <trkpt lat="42.89742" lon="2.51288">
        <ele>576.9</ele>
        <time>2021-03-21T09:24:13Z</time>
      </trkpt>
      <trkpt lat="42.89746" lon="2.51284">
        <ele>577.3</ele>
        <time>2021-03-21T09:24:15Z</time>
      </trkpt>
      <trkpt lat="42.89749" lon="2.51282">
        <ele>577.6</ele>
        <time>2021-03-21T09:24:16Z</time>
      </trkpt>
      <trkpt lat="42.89752" lon="2.5128">
        <ele>577.9</ele>
        <time>2021-03-21T09:24:18Z</time>
      </trkpt>
      <trkpt lat="42.89754" lon="2.51279">
        <ele>578</ele>
        <time>2021-03-21T09:24:19Z</time>
      </trkpt>
      <trkpt lat="42.89755" lon="2.51278">
        <ele>578.2</ele>
        <time>2021-03-21T09:24:20Z</time>
      </trkpt>
      <trkpt lat="42.89758" lon="2.51277">
        <ele>578.4</ele>
        <time>2021-03-21T09:24:22Z</time>
      </trkpt>
      <trkpt lat="42.89761" lon="2.51275">
        <ele>578.7</ele>
        <time>2021-03-21T09:24:23Z</time>
      </trkpt>
      <trkpt lat="42.89763" lon="2.51273">
        <ele>578.9</ele>
        <time>2021-03-21T09:24:24Z</time>
      </trkpt>
      <trkpt lat="42.89767" lon="2.51272">
        <ele>579.2</ele>
        <time>2021-03-21T09:24:26Z</time>
      </trkpt>
      <trkpt lat="42.8977" lon="2.5127">
        <ele>579.5</ele>
        <time>2021-03-21T09:24:27Z</time>
      </trkpt>
      <trkpt lat="42.89774" lon="2.51267">
        <ele>579.9</ele>
        <time>2021-03-21T09:24:29Z</time>
      </trkpt>
      <trkpt lat="42.89778" lon="2.51264">
        <ele>580.3</ele>
        <time>2021-03-21T09:24:30Z</time>
      </trkpt>
      <trkpt lat="42.89782" lon="2.51262">
        <ele>580.6</ele>
        <time>2021-03-21T09:24:31Z</time>
      </trkpt>
      <trkpt lat="42.89784" lon="2.5126">
        <ele>580.9</ele>
        <time>2021-03-21T09:24:32Z</time>
      </trkpt>
      <trkpt lat="42.89788" lon="2.51257">
        <ele>581.2</ele>
        <time>2021-03-21T09:24:33Z</time>
      </trkpt>
      <trkpt lat="42.89791" lon="2.51254">
        <ele>581.5</ele>
        <time>2021-03-21T09:24:35Z</time>
      </trkpt>
      <trkpt lat="42.89794" lon="2.51251">
        <ele>581.9</ele>
        <time>2021-03-21T09:24:36Z</time>
      </trkpt>
      <trkpt lat="42.89797" lon="2.51248">
        <ele>582.2</ele>
        <time>2021-03-21T09:24:37Z</time>
      </trkpt>
      <trkpt lat="42.89798" lon="2.51247">
        <ele>582.3</ele>
        <time>2021-03-21T09:24:38Z</time>
      </trkpt>
      <trkpt lat="42.89802" lon="2.51244">
        <ele>582.6</ele>
        <time>2021-03-21T09:24:40Z</time>
      </trkpt>
      <trkpt lat="42.89804" lon="2.51242">
        <ele>582.9</ele>
        <time>2021-03-21T09:24:41Z</time>
      </trkpt>
      <trkpt lat="42.89806" lon="2.5124">
        <ele>583.1</ele>
        <time>2021-03-21T09:24:42Z</time>
      </trkpt>
      <trkpt lat="42.89809" lon="2.51238">
        <ele>583.4</ele>
        <time>2021-03-21T09:24:43Z</time>
      </trkpt>
      <trkpt lat="42.89811" lon="2.51236">
        <ele>583.6</ele>
        <time>2021-03-21T09:24:44Z</time>
      </trkpt>
      <trkpt lat="42.89815" lon="2.51233">
        <ele>584</ele>
        <time>2021-03-21T09:24:46Z</time>
      </trkpt>
      <trkpt lat="42.89819" lon="2.5123">
        <ele>584.3</ele>
        <time>2021-03-21T09:24:47Z</time>
      </trkpt>
      <trkpt lat="42.89822" lon="2.51228">
        <ele>584.6</ele>
        <time>2021-03-21T09:24:48Z</time>
      </trkpt>
      <trkpt lat="42.89826" lon="2.51224">
        <ele>585.1</ele>
        <time>2021-03-21T09:24:50Z</time>
      </trkpt>
      <trkpt lat="42.8983" lon="2.51221">
        <ele>585.4</ele>
        <time>2021-03-21T09:24:51Z</time>
      </trkpt>
      <trkpt lat="42.89834" lon="2.51217">
        <ele>585.8</ele>
        <time>2021-03-21T09:24:53Z</time>
      </trkpt>
      <trkpt lat="42.89837" lon="2.51214">
        <ele>586.1</ele>
        <time>2021-03-21T09:24:54Z</time>
      </trkpt>
      <trkpt lat="42.89841" lon="2.51209">
        <ele>586.5</ele>
        <time>2021-03-21T09:24:56Z</time>
      </trkpt>
      <trkpt lat="42.89846" lon="2.51205">
        <ele>586.9</ele>
        <time>2021-03-21T09:24:58Z</time>
      </trkpt>
      <trkpt lat="42.89849" lon="2.51202">
        <ele>587.2</ele>
        <time>2021-03-21T09:24:59Z</time>
      </trkpt>
      <trkpt lat="42.89853" lon="2.51198">
        <ele>587.5</ele>
        <time>2021-03-21T09:25:00Z</time>
      </trkpt>
      <trkpt lat="42.89856" lon="2.51196">
        <ele>587.8</ele>
        <time>2021-03-21T09:25:01Z</time>
      </trkpt>
      <trkpt lat="42.89859" lon="2.51192">
        <ele>588.1</ele>
        <time>2021-03-21T09:25:03Z</time>
      </trkpt>
      <trkpt lat="42.89862" lon="2.51188">
        <ele>588.4</ele>
        <time>2021-03-21T09:25:04Z</time>
      </trkpt>
      <trkpt lat="42.89864" lon="2.51185">
        <ele>588.7</ele>
        <time>2021-03-21T09:25:05Z</time>
      </trkpt>
      <trkpt lat="42.89869" lon="2.5118">
        <ele>589.1</ele>
        <time>2021-03-21T09:25:07Z</time>
      </trkpt>
      <trkpt lat="42.89872" lon="2.51177">
        <ele>589.3</ele>
        <time>2021-03-21T09:25:08Z</time>
      </trkpt>
      <trkpt lat="42.89874" lon="2.51175">
        <ele>589.5</ele>
        <time>2021-03-21T09:25:09Z</time>
      </trkpt>
      <trkpt lat="42.89878" lon="2.51172">
        <ele>589.8</ele>
        <time>2021-03-21T09:25:11Z</time>
      </trkpt>
      <trkpt lat="42.89883" lon="2.5117">
        <ele>590.2</ele>
        <time>2021-03-21T09:25:12Z</time>
      </trkpt>
      <trkpt lat="42.89886" lon="2.51168">
        <ele>590.4</ele>
        <time>2021-03-21T09:25:13Z</time>
      </trkpt>
      <trkpt lat="42.8989" lon="2.51166">
        <ele>590.8</ele>
        <time>2021-03-21T09:25:14Z</time>
      </trkpt>
      <trkpt lat="42.89893" lon="2.51165">
        <ele>591</ele>
        <time>2021-03-21T09:25:16Z</time>
      </trkpt>
      <trkpt lat="42.89897" lon="2.51164">
        <ele>591.3</ele>
        <time>2021-03-21T09:25:17Z</time>
      </trkpt>
      <trkpt lat="42.899" lon="2.51163">
        <ele>591.6</ele>
        <time>2021-03-21T09:25:18Z</time>
      </trkpt>
      <trkpt lat="42.89904" lon="2.51162">
        <ele>591.9</ele>
        <time>2021-03-21T09:25:19Z</time>
      </trkpt>
      <trkpt lat="42.89908" lon="2.51161">
        <ele>592.2</ele>
        <time>2021-03-21T09:25:20Z</time>
      </trkpt>
      <trkpt lat="42.89912" lon="2.5116">
        <ele>592.6</ele>
        <time>2021-03-21T09:25:22Z</time>
      </trkpt>
      <trkpt lat="42.89916" lon="2.51159">
        <ele>593</ele>
        <time>2021-03-21T09:25:23Z</time>
      </trkpt>
      <trkpt lat="42.89921" lon="2.51157">
        <ele>593.4</ele>
        <time>2021-03-21T09:25:24Z</time>
      </trkpt>
      <trkpt lat="42.89925" lon="2.51155">
        <ele>593.8</ele>
        <time>2021-03-21T09:25:25Z</time>
      </trkpt>
      <trkpt lat="42.89929" lon="2.51152">
        <ele>594.3</ele>
        <time>2021-03-21T09:25:27Z</time>
      </trkpt>
      <trkpt lat="42.89933" lon="2.51148">
        <ele>594.8</ele>
        <time>2021-03-21T09:25:29Z</time>
      </trkpt>
      <trkpt lat="42.89936" lon="2.51146">
        <ele>595</ele>
        <time>2021-03-21T09:25:30Z</time>
      </trkpt>
      <trkpt lat="42.89938" lon="2.51145">
        <ele>595.3</ele>
        <time>2021-03-21T09:25:31Z</time>
      </trkpt>
      <trkpt lat="42.89942" lon="2.51142">
        <ele>595.6</ele>
        <time>2021-03-21T09:25:33Z</time>
      </trkpt>
      <trkpt lat="42.89944" lon="2.51142">
        <ele>595.8</ele>
        <time>2021-03-21T09:25:34Z</time>
      </trkpt>
      <trkpt lat="42.89943" lon="2.51142">
        <ele>595.9</ele>
        <time>2021-03-21T09:25:36Z</time>
      </trkpt>
      <trkpt lat="42.89943" lon="2.51142">
        <ele>595.9</ele>
        <time>2021-03-21T09:25:37Z</time>
      </trkpt>
      <trkpt lat="42.89946" lon="2.51141">
        <ele>596.2</ele>
        <time>2021-03-21T09:25:39Z</time>
      </trkpt>
      <trkpt lat="42.89954" lon="2.51138">
        <ele>596.8</ele>
        <time>2021-03-21T09:25:40Z</time>
      </trkpt>
      <trkpt lat="42.89958" lon="2.51137">
        <ele>597.2</ele>
        <time>2021-03-21T09:25:42Z</time>
      </trkpt>
      <trkpt lat="42.89962" lon="2.51136">
        <ele>597.5</ele>
        <time>2021-03-21T09:25:43Z</time>
      </trkpt>
      <trkpt lat="42.89965" lon="2.51135">
        <ele>597.8</ele>
        <time>2021-03-21T09:25:45Z</time>
      </trkpt>
      <trkpt lat="42.89971" lon="2.51134">
        <ele>598.3</ele>
        <time>2021-03-21T09:25:46Z</time>
      </trkpt>
      <trkpt lat="42.89973" lon="2.51133">
        <ele>598.5</ele>
        <time>2021-03-21T09:25:47Z</time>
      </trkpt>
      <trkpt lat="42.89975" lon="2.51133">
        <ele>598.7</ele>
        <time>2021-03-21T09:25:48Z</time>
      </trkpt>
      <trkpt lat="42.8998" lon="2.51132">
        <ele>599.1</ele>
        <time>2021-03-21T09:25:50Z</time>
      </trkpt>
      <trkpt lat="42.89981" lon="2.51131">
        <ele>599.2</ele>
        <time>2021-03-21T09:25:51Z</time>
      </trkpt>
      <trkpt lat="42.89983" lon="2.51131">
        <ele>599.4</ele>
        <time>2021-03-21T09:25:52Z</time>
      </trkpt>
      <trkpt lat="42.89987" lon="2.51131">
        <ele>599.7</ele>
        <time>2021-03-21T09:25:54Z</time>
      </trkpt>
      <trkpt lat="42.89989" lon="2.51131">
        <ele>599.9</ele>
        <time>2021-03-21T09:25:55Z</time>
      </trkpt>
      <trkpt lat="42.89992" lon="2.5113">
        <ele>600.2</ele>
        <time>2021-03-21T09:25:57Z</time>
      </trkpt>
      <trkpt lat="42.89994" lon="2.5113">
        <ele>600.3</ele>
        <time>2021-03-21T09:25:58Z</time>
      </trkpt>
      <trkpt lat="42.89997" lon="2.5113">
        <ele>600.6</ele>
        <time>2021-03-21T09:26:00Z</time>
      </trkpt>
      <trkpt lat="42.90002" lon="2.51128">
        <ele>601</ele>
        <time>2021-03-21T09:26:01Z</time>
      </trkpt>
      <trkpt lat="42.90006" lon="2.51127">
        <ele>601.4</ele>
        <time>2021-03-21T09:26:02Z</time>
      </trkpt>
      <trkpt lat="42.90008" lon="2.51126">
        <ele>601.6</ele>
        <time>2021-03-21T09:26:03Z</time>
      </trkpt>
      <trkpt lat="42.90012" lon="2.51123">
        <ele>602</ele>
        <time>2021-03-21T09:26:05Z</time>
      </trkpt>
      <trkpt lat="42.90015" lon="2.51121">
        <ele>602.4</ele>
        <time>2021-03-21T09:26:06Z</time>
      </trkpt>
      <trkpt lat="42.90018" lon="2.5112">
        <ele>602.7</ele>
        <time>2021-03-21T09:26:07Z</time>
      </trkpt>
      <trkpt lat="42.9002" lon="2.51118">
        <ele>603</ele>
        <time>2021-03-21T09:26:08Z</time>
      </trkpt>
      <trkpt lat="42.90024" lon="2.51116">
        <ele>603.3</ele>
        <time>2021-03-21T09:26:10Z</time>
      </trkpt>
      <trkpt lat="42.90027" lon="2.51115">
        <ele>603.7</ele>
        <time>2021-03-21T09:26:11Z</time>
      </trkpt>
      <trkpt lat="42.90031" lon="2.51113">
        <ele>604</ele>
        <time>2021-03-21T09:26:12Z</time>
      </trkpt>
      <trkpt lat="42.90036" lon="2.51112">
        <ele>604.5</ele>
        <time>2021-03-21T09:26:14Z</time>
      </trkpt>
      <trkpt lat="42.90042" lon="2.51111">
        <ele>605.2</ele>
        <time>2021-03-21T09:26:15Z</time>
      </trkpt>
      <trkpt lat="42.90046" lon="2.51111">
        <ele>605.6</ele>
        <time>2021-03-21T09:26:16Z</time>
      </trkpt>
      <trkpt lat="42.90049" lon="2.51112">
        <ele>606</ele>
        <time>2021-03-21T09:26:17Z</time>
      </trkpt>
      <trkpt lat="42.90053" lon="2.51113">
        <ele>606.4</ele>
        <time>2021-03-21T09:26:18Z</time>
      </trkpt>
      <trkpt lat="42.90058" lon="2.51113">
        <ele>607</ele>
        <time>2021-03-21T09:26:20Z</time>
      </trkpt>
      <trkpt lat="42.90061" lon="2.51113">
        <ele>607.3</ele>
        <time>2021-03-21T09:26:21Z</time>
      </trkpt>
      <trkpt lat="42.90065" lon="2.51113">
        <ele>607.6</ele>
        <time>2021-03-21T09:26:22Z</time>
      </trkpt>
      <trkpt lat="42.90066" lon="2.51112">
        <ele>607.8</ele>
        <time>2021-03-21T09:26:23Z</time>
      </trkpt>
      <trkpt lat="42.90069" lon="2.51112">
        <ele>608.1</ele>
        <time>2021-03-21T09:26:25Z</time>
      </trkpt>
      <trkpt lat="42.90072" lon="2.51111">
        <ele>608.4</ele>
        <time>2021-03-21T09:26:26Z</time>
      </trkpt>
      <trkpt lat="42.90075" lon="2.51109">
        <ele>608.7</ele>
        <time>2021-03-21T09:26:28Z</time>
      </trkpt>
      <trkpt lat="42.90077" lon="2.51107">
        <ele>609</ele>
        <time>2021-03-21T09:26:29Z</time>
      </trkpt>
      <trkpt lat="42.9008" lon="2.51105">
        <ele>609.4</ele>
        <time>2021-03-21T09:26:30Z</time>
      </trkpt>
      <trkpt lat="42.90082" lon="2.51104">
        <ele>609.6</ele>
        <time>2021-03-21T09:26:31Z</time>
      </trkpt>
      <trkpt lat="42.90085" lon="2.51102">
        <ele>609.9</ele>
        <time>2021-03-21T09:26:33Z</time>
      </trkpt>
      <trkpt lat="42.90088" lon="2.51099">
        <ele>610.3</ele>
        <time>2021-03-21T09:26:34Z</time>
      </trkpt>
      <trkpt lat="42.90091" lon="2.51097">
        <ele>610.6</ele>
        <time>2021-03-21T09:26:35Z</time>
      </trkpt>
      <trkpt lat="42.90093" lon="2.51096">
        <ele>610.8</ele>
        <time>2021-03-21T09:26:36Z</time>
      </trkpt>
      <trkpt lat="42.90097" lon="2.51093">
        <ele>611.3</ele>
        <time>2021-03-21T09:26:38Z</time>
      </trkpt>
      <trkpt lat="42.90101" lon="2.5109">
        <ele>611.7</ele>
        <time>2021-03-21T09:26:40Z</time>
      </trkpt>
      <trkpt lat="42.90105" lon="2.51087">
        <ele>612.2</ele>
        <time>2021-03-21T09:26:41Z</time>
      </trkpt>
      <trkpt lat="42.90109" lon="2.51085">
        <ele>612.7</ele>
        <time>2021-03-21T09:26:43Z</time>
      </trkpt>
      <trkpt lat="42.90113" lon="2.51083">
        <ele>613.1</ele>
        <time>2021-03-21T09:26:44Z</time>
      </trkpt>
      <trkpt lat="42.90114" lon="2.51083">
        <ele>613.2</ele>
        <time>2021-03-21T09:26:45Z</time>
      </trkpt>
      <trkpt lat="42.90117" lon="2.51081">
        <ele>613.6</ele>
        <time>2021-03-21T09:26:47Z</time>
      </trkpt>
      <trkpt lat="42.90119" lon="2.51081">
        <ele>613.8</ele>
        <time>2021-03-21T09:26:48Z</time>
      </trkpt>
      <trkpt lat="42.90123" lon="2.51079">
        <ele>614.3</ele>
        <time>2021-03-21T09:26:49Z</time>
      </trkpt>
      <trkpt lat="42.90125" lon="2.51079">
        <ele>614.5</ele>
        <time>2021-03-21T09:26:50Z</time>
      </trkpt>
      <trkpt lat="42.90127" lon="2.51078">
        <ele>614.7</ele>
        <time>2021-03-21T09:26:51Z</time>
      </trkpt>
      <trkpt lat="42.9013" lon="2.51077">
        <ele>615.1</ele>
        <time>2021-03-21T09:26:53Z</time>
      </trkpt>
      <trkpt lat="42.90133" lon="2.51076">
        <ele>615.4</ele>
        <time>2021-03-21T09:26:54Z</time>
      </trkpt>
      <trkpt lat="42.90136" lon="2.51074">
        <ele>615.8</ele>
        <time>2021-03-21T09:26:55Z</time>
      </trkpt>
      <trkpt lat="42.9014" lon="2.51072">
        <ele>616.3</ele>
        <time>2021-03-21T09:26:57Z</time>
      </trkpt>
      <trkpt lat="42.90147" lon="2.51067">
        <ele>617.2</ele>
        <time>2021-03-21T09:26:58Z</time>
      </trkpt>
      <trkpt lat="42.90164" lon="2.51059">
        <ele>619.2</ele>
        <time>2021-03-21T09:27:01Z</time>
      </trkpt>
      <trkpt lat="42.90171" lon="2.51057">
        <ele>620</ele>
        <time>2021-03-21T09:27:02Z</time>
      </trkpt>
      <trkpt lat="42.90177" lon="2.51057">
        <ele>620.6</ele>
        <time>2021-03-21T09:27:04Z</time>
      </trkpt>
      <trkpt lat="42.90179" lon="2.51056">
        <ele>620.8</ele>
        <time>2021-03-21T09:27:05Z</time>
      </trkpt>
      <trkpt lat="42.90182" lon="2.51056">
        <ele>621.1</ele>
        <time>2021-03-21T09:27:07Z</time>
      </trkpt>
      <trkpt lat="42.90184" lon="2.51055">
        <ele>621.4</ele>
        <time>2021-03-21T09:27:08Z</time>
      </trkpt>
      <trkpt lat="42.90187" lon="2.51053">
        <ele>621.7</ele>
        <time>2021-03-21T09:27:10Z</time>
      </trkpt>
      <trkpt lat="42.90189" lon="2.51052">
        <ele>622</ele>
        <time>2021-03-21T09:27:11Z</time>
      </trkpt>
      <trkpt lat="42.9019" lon="2.51051">
        <ele>622.1</ele>
        <time>2021-03-21T09:27:12Z</time>
      </trkpt>
      <trkpt lat="42.90192" lon="2.5105">
        <ele>622.2</ele>
        <time>2021-03-21T09:27:13Z</time>
      </trkpt>
      <trkpt lat="42.90193" lon="2.51049">
        <ele>622.4</ele>
        <time>2021-03-21T09:27:14Z</time>
      </trkpt>
      <trkpt lat="42.90196" lon="2.51046">
        <ele>622.8</ele>
        <time>2021-03-21T09:27:15Z</time>
      </trkpt>
      <trkpt lat="42.90198" lon="2.51043">
        <ele>623.1</ele>
        <time>2021-03-21T09:27:17Z</time>
      </trkpt>
      <trkpt lat="42.90201" lon="2.51039">
        <ele>623.6</ele>
        <time>2021-03-21T09:27:18Z</time>
      </trkpt>
      <trkpt lat="42.90206" lon="2.51034">
        <ele>624.2</ele>
        <time>2021-03-21T09:27:21Z</time>
      </trkpt>
      <trkpt lat="42.90208" lon="2.51031">
        <ele>624.6</ele>
        <time>2021-03-21T09:27:22Z</time>
      </trkpt>
      <trkpt lat="42.90211" lon="2.51029">
        <ele>624.9</ele>
        <time>2021-03-21T09:27:23Z</time>
      </trkpt>
      <trkpt lat="42.90215" lon="2.51027">
        <ele>625.3</ele>
        <time>2021-03-21T09:27:25Z</time>
      </trkpt>
      <trkpt lat="42.90218" lon="2.51023">
        <ele>625.7</ele>
        <time>2021-03-21T09:27:26Z</time>
      </trkpt>
      <trkpt lat="42.90219" lon="2.51022">
        <ele>625.8</ele>
        <time>2021-03-21T09:27:27Z</time>
      </trkpt>
      <trkpt lat="42.90221" lon="2.51018">
        <ele>626.2</ele>
        <time>2021-03-21T09:27:29Z</time>
      </trkpt>
      <trkpt lat="42.90224" lon="2.51015">
        <ele>626.6</ele>
        <time>2021-03-21T09:27:31Z</time>
      </trkpt>
      <trkpt lat="42.90227" lon="2.51012">
        <ele>626.9</ele>
        <time>2021-03-21T09:27:33Z</time>
      </trkpt>
      <trkpt lat="42.9023" lon="2.51008">
        <ele>627.2</ele>
        <time>2021-03-21T09:27:34Z</time>
      </trkpt>
      <trkpt lat="42.90235" lon="2.51003">
        <ele>627.7</ele>
        <time>2021-03-21T09:27:36Z</time>
      </trkpt>
      <trkpt lat="42.90237" lon="2.51">
        <ele>627.9</ele>
        <time>2021-03-21T09:27:37Z</time>
      </trkpt>
      <trkpt lat="42.90239" lon="2.50996">
        <ele>628.2</ele>
        <time>2021-03-21T09:27:38Z</time>
      </trkpt>
      <trkpt lat="42.90242" lon="2.50993">
        <ele>628.5</ele>
        <time>2021-03-21T09:27:39Z</time>
      </trkpt>
      <trkpt lat="42.90246" lon="2.50985">
        <ele>629.2</ele>
        <time>2021-03-21T09:27:40Z</time>
      </trkpt>
      <trkpt lat="42.90249" lon="2.50982">
        <ele>629.6</ele>
        <time>2021-03-21T09:27:42Z</time>
      </trkpt>
      <trkpt lat="42.9025" lon="2.5098">
        <ele>629.7</ele>
        <time>2021-03-21T09:27:43Z</time>
      </trkpt>
      <trkpt lat="42.90252" lon="2.50977">
        <ele>630.1</ele>
        <time>2021-03-21T09:27:44Z</time>
      </trkpt>
      <trkpt lat="42.90252" lon="2.50975">
        <ele>630.2</ele>
        <time>2021-03-21T09:27:45Z</time>
      </trkpt>
      <trkpt lat="42.90255" lon="2.5097">
        <ele>630.7</ele>
        <time>2021-03-21T09:27:47Z</time>
      </trkpt>
      <trkpt lat="42.90257" lon="2.50968">
        <ele>631</ele>
        <time>2021-03-21T09:27:48Z</time>
      </trkpt>
      <trkpt lat="42.90259" lon="2.50964">
        <ele>631.4</ele>
        <time>2021-03-21T09:27:50Z</time>
      </trkpt>
      <trkpt lat="42.9026" lon="2.5096">
        <ele>631.7</ele>
        <time>2021-03-21T09:27:51Z</time>
      </trkpt>
      <trkpt lat="42.90261" lon="2.50957">
        <ele>632</ele>
        <time>2021-03-21T09:27:52Z</time>
      </trkpt>
      <trkpt lat="42.90262" lon="2.50952">
        <ele>632.4</ele>
        <time>2021-03-21T09:27:54Z</time>
      </trkpt>
      <trkpt lat="42.90263" lon="2.50947">
        <ele>632.8</ele>
        <time>2021-03-21T09:27:55Z</time>
      </trkpt>
      <trkpt lat="42.90263" lon="2.50939">
        <ele>633.5</ele>
        <time>2021-03-21T09:27:57Z</time>
      </trkpt>
      <trkpt lat="42.90264" lon="2.50932">
        <ele>634.1</ele>
        <time>2021-03-21T09:27:59Z</time>
      </trkpt>
      <trkpt lat="42.90264" lon="2.50929">
        <ele>634.3</ele>
        <time>2021-03-21T09:28:00Z</time>
      </trkpt>
      <trkpt lat="42.90264" lon="2.50926">
        <ele>634.5</ele>
        <time>2021-03-21T09:28:01Z</time>
      </trkpt>
      <trkpt lat="42.90264" lon="2.50923">
        <ele>634.9</ele>
        <time>2021-03-21T09:28:03Z</time>
      </trkpt>
      <trkpt lat="42.90264" lon="2.5092">
        <ele>635.1</ele>
        <time>2021-03-21T09:28:04Z</time>
      </trkpt>
      <trkpt lat="42.90264" lon="2.50918">
        <ele>635.3</ele>
        <time>2021-03-21T09:28:05Z</time>
      </trkpt>
      <trkpt lat="42.90264" lon="2.50913">
        <ele>635.7</ele>
        <time>2021-03-21T09:28:06Z</time>
      </trkpt>
      <trkpt lat="42.90264" lon="2.50912">
        <ele>635.8</ele>
        <time>2021-03-21T09:28:07Z</time>
      </trkpt>
      <trkpt lat="42.90265" lon="2.50908">
        <ele>636.2</ele>
        <time>2021-03-21T09:28:08Z</time>
      </trkpt>
      <trkpt lat="42.90265" lon="2.50906">
        <ele>636.3</ele>
        <time>2021-03-21T09:28:09Z</time>
      </trkpt>
      <trkpt lat="42.90265" lon="2.50902">
        <ele>636.7</ele>
        <time>2021-03-21T09:28:10Z</time>
      </trkpt>
      <trkpt lat="42.90266" lon="2.50901">
        <ele>636.8</ele>
        <time>2021-03-21T09:28:11Z</time>
      </trkpt>
      <trkpt lat="42.90267" lon="2.50895">
        <ele>637.3</ele>
        <time>2021-03-21T09:28:13Z</time>
      </trkpt>
      <trkpt lat="42.90269" lon="2.50891">
        <ele>637.6</ele>
        <time>2021-03-21T09:28:14Z</time>
      </trkpt>
      <trkpt lat="42.9027" lon="2.50888">
        <ele>637.9</ele>
        <time>2021-03-21T09:28:15Z</time>
      </trkpt>
      <trkpt lat="42.90273" lon="2.50883">
        <ele>638.4</ele>
        <time>2021-03-21T09:28:16Z</time>
      </trkpt>
      <trkpt lat="42.90276" lon="2.5088">
        <ele>638.8</ele>
        <time>2021-03-21T09:28:18Z</time>
      </trkpt>
      <trkpt lat="42.90277" lon="2.50879">
        <ele>638.9</ele>
        <time>2021-03-21T09:28:19Z</time>
      </trkpt>
      <trkpt lat="42.90282" lon="2.50875">
        <ele>639.5</ele>
        <time>2021-03-21T09:28:21Z</time>
      </trkpt>
      <trkpt lat="42.90283" lon="2.50874">
        <ele>639.6</ele>
        <time>2021-03-21T09:28:22Z</time>
      </trkpt>
      <trkpt lat="42.90284" lon="2.50873">
        <ele>639.8</ele>
        <time>2021-03-21T09:28:23Z</time>
      </trkpt>
      <trkpt lat="42.90288" lon="2.5087">
        <ele>640.2</ele>
        <time>2021-03-21T09:28:25Z</time>
      </trkpt>
      <trkpt lat="42.90289" lon="2.50869">
        <ele>640.3</ele>
        <time>2021-03-21T09:28:26Z</time>
      </trkpt>
      <trkpt lat="42.90291" lon="2.50867">
        <ele>640.6</ele>
        <time>2021-03-21T09:28:28Z</time>
      </trkpt>
      <trkpt lat="42.90294" lon="2.50864">
        <ele>640.9</ele>
        <time>2021-03-21T09:28:29Z</time>
      </trkpt>
      <trkpt lat="42.90297" lon="2.50861">
        <ele>641.2</ele>
        <time>2021-03-21T09:28:30Z</time>
      </trkpt>
      <trkpt lat="42.903" lon="2.50859">
        <ele>641.5</ele>
        <time>2021-03-21T09:28:32Z</time>
      </trkpt>
      <trkpt lat="42.90302" lon="2.50858">
        <ele>641.8</ele>
        <time>2021-03-21T09:28:33Z</time>
      </trkpt>
      <trkpt lat="42.90305" lon="2.50856">
        <ele>642</ele>
        <time>2021-03-21T09:28:34Z</time>
      </trkpt>
      <trkpt lat="42.90308" lon="2.50855">
        <ele>642.4</ele>
        <time>2021-03-21T09:28:36Z</time>
      </trkpt>
      <trkpt lat="42.9031" lon="2.50854">
        <ele>642.5</ele>
        <time>2021-03-21T09:28:37Z</time>
      </trkpt>
      <trkpt lat="42.90311" lon="2.50854">
        <ele>642.7</ele>
        <time>2021-03-21T09:28:38Z</time>
      </trkpt>
      <trkpt lat="42.90314" lon="2.50853">
        <ele>643</ele>
        <time>2021-03-21T09:28:40Z</time>
      </trkpt>
      <trkpt lat="42.90317" lon="2.50851">
        <ele>643.3</ele>
        <time>2021-03-21T09:28:41Z</time>
      </trkpt>
      <trkpt lat="42.90319" lon="2.5085">
        <ele>643.5</ele>
        <time>2021-03-21T09:28:43Z</time>
      </trkpt>
      <trkpt lat="42.90322" lon="2.50847">
        <ele>643.8</ele>
        <time>2021-03-21T09:28:45Z</time>
      </trkpt>
      <trkpt lat="42.90325" lon="2.50845">
        <ele>644.2</ele>
        <time>2021-03-21T09:28:46Z</time>
      </trkpt>
      <trkpt lat="42.90326" lon="2.50844">
        <ele>644.3</ele>
        <time>2021-03-21T09:28:47Z</time>
      </trkpt>
      <trkpt lat="42.90329" lon="2.50842">
        <ele>644.7</ele>
        <time>2021-03-21T09:28:48Z</time>
      </trkpt>
      <trkpt lat="42.9033" lon="2.50841">
        <ele>644.9</ele>
        <time>2021-03-21T09:28:49Z</time>
      </trkpt>
      <trkpt lat="42.90334" lon="2.50838">
        <ele>645.3</ele>
        <time>2021-03-21T09:28:51Z</time>
      </trkpt>
      <trkpt lat="42.90337" lon="2.50835">
        <ele>645.7</ele>
        <time>2021-03-21T09:28:53Z</time>
      </trkpt>
      <trkpt lat="42.9034" lon="2.50832">
        <ele>646.1</ele>
        <time>2021-03-21T09:28:54Z</time>
      </trkpt>
      <trkpt lat="42.90343" lon="2.50829">
        <ele>646.5</ele>
        <time>2021-03-21T09:28:56Z</time>
      </trkpt>
      <trkpt lat="42.90349" lon="2.50824">
        <ele>647.1</ele>
        <time>2021-03-21T09:28:57Z</time>
      </trkpt>
      <trkpt lat="42.90352" lon="2.50822">
        <ele>647.5</ele>
        <time>2021-03-21T09:28:58Z</time>
      </trkpt>
      <trkpt lat="42.90356" lon="2.50819">
        <ele>647.9</ele>
        <time>2021-03-21T09:28:59Z</time>
      </trkpt>
      <trkpt lat="42.9036" lon="2.50815">
        <ele>648.4</ele>
        <time>2021-03-21T09:29:00Z</time>
      </trkpt>
      <trkpt lat="42.90365" lon="2.50809">
        <ele>649</ele>
        <time>2021-03-21T09:29:01Z</time>
      </trkpt>
      <trkpt lat="42.90369" lon="2.50804">
        <ele>649.6</ele>
        <time>2021-03-21T09:29:03Z</time>
      </trkpt>
      <trkpt lat="42.90371" lon="2.50801">
        <ele>649.9</ele>
        <time>2021-03-21T09:29:04Z</time>
      </trkpt>
      <trkpt lat="42.90373" lon="2.50797">
        <ele>650.3</ele>
        <time>2021-03-21T09:29:05Z</time>
      </trkpt>
      <trkpt lat="42.90376" lon="2.50793">
        <ele>650.6</ele>
        <time>2021-03-21T09:29:07Z</time>
      </trkpt>
      <trkpt lat="42.90379" lon="2.5079">
        <ele>651</ele>
        <time>2021-03-21T09:29:08Z</time>
      </trkpt>
      <trkpt lat="42.90382" lon="2.50787">
        <ele>651.4</ele>
        <time>2021-03-21T09:29:09Z</time>
      </trkpt>
      <trkpt lat="42.90386" lon="2.50782">
        <ele>651.9</ele>
        <time>2021-03-21T09:29:11Z</time>
      </trkpt>
      <trkpt lat="42.90388" lon="2.50779">
        <ele>652.2</ele>
        <time>2021-03-21T09:29:12Z</time>
      </trkpt>
      <trkpt lat="42.90391" lon="2.50775">
        <ele>652.6</ele>
        <time>2021-03-21T09:29:13Z</time>
      </trkpt>
      <trkpt lat="42.90392" lon="2.50774">
        <ele>652.7</ele>
        <time>2021-03-21T09:29:14Z</time>
      </trkpt>
      <trkpt lat="42.90394" lon="2.50771">
        <ele>653</ele>
        <time>2021-03-21T09:29:16Z</time>
      </trkpt>
      <trkpt lat="42.90397" lon="2.50765">
        <ele>653.4</ele>
        <time>2021-03-21T09:29:17Z</time>
      </trkpt>
      <trkpt lat="42.90399" lon="2.50762">
        <ele>653.7</ele>
        <time>2021-03-21T09:29:18Z</time>
      </trkpt>
      <trkpt lat="42.90401" lon="2.50759">
        <ele>654</ele>
        <time>2021-03-21T09:29:19Z</time>
      </trkpt>
      <trkpt lat="42.90403" lon="2.50754">
        <ele>654.4</ele>
        <time>2021-03-21T09:29:21Z</time>
      </trkpt>
      <trkpt lat="42.90406" lon="2.5075">
        <ele>654.8</ele>
        <time>2021-03-21T09:29:22Z</time>
      </trkpt>
      <trkpt lat="42.90409" lon="2.50747">
        <ele>655.2</ele>
        <time>2021-03-21T09:29:24Z</time>
      </trkpt>
      <trkpt lat="42.90411" lon="2.50744">
        <ele>655.4</ele>
        <time>2021-03-21T09:29:25Z</time>
      </trkpt>
      <trkpt lat="42.90414" lon="2.5074">
        <ele>655.8</ele>
        <time>2021-03-21T09:29:26Z</time>
      </trkpt>
      <trkpt lat="42.90415" lon="2.50739">
        <ele>655.9</ele>
        <time>2021-03-21T09:29:27Z</time>
      </trkpt>
      <trkpt lat="42.90417" lon="2.50736">
        <ele>656.2</ele>
        <time>2021-03-21T09:29:28Z</time>
      </trkpt>
      <trkpt lat="42.9042" lon="2.50732">
        <ele>656.6</ele>
        <time>2021-03-21T09:29:29Z</time>
      </trkpt>
      <trkpt lat="42.90421" lon="2.50731">
        <ele>656.7</ele>
        <time>2021-03-21T09:29:30Z</time>
      </trkpt>
      <trkpt lat="42.90423" lon="2.50727">
        <ele>656.9</ele>
        <time>2021-03-21T09:29:32Z</time>
      </trkpt>
      <trkpt lat="42.90425" lon="2.50724">
        <ele>657.2</ele>
        <time>2021-03-21T09:29:33Z</time>
      </trkpt>
      <trkpt lat="42.90427" lon="2.50721">
        <ele>657.4</ele>
        <time>2021-03-21T09:29:34Z</time>
      </trkpt>
      <trkpt lat="42.9043" lon="2.50718">
        <ele>657.7</ele>
        <time>2021-03-21T09:29:36Z</time>
      </trkpt>
      <trkpt lat="42.90433" lon="2.50715">
        <ele>658</ele>
        <time>2021-03-21T09:29:37Z</time>
      </trkpt>
      <trkpt lat="42.90436" lon="2.50712">
        <ele>658.2</ele>
        <time>2021-03-21T09:29:39Z</time>
      </trkpt>
      <trkpt lat="42.9044" lon="2.5071">
        <ele>658.5</ele>
        <time>2021-03-21T09:29:40Z</time>
      </trkpt>
      <trkpt lat="42.90446" lon="2.50704">
        <ele>659</ele>
        <time>2021-03-21T09:29:42Z</time>
      </trkpt>
      <trkpt lat="42.90448" lon="2.50702">
        <ele>659.2</ele>
        <time>2021-03-21T09:29:43Z</time>
      </trkpt>
      <trkpt lat="42.90449" lon="2.50701">
        <ele>659.3</ele>
        <time>2021-03-21T09:29:44Z</time>
      </trkpt>
      <trkpt lat="42.90452" lon="2.50697">
        <ele>659.6</ele>
        <time>2021-03-21T09:29:46Z</time>
      </trkpt>
      <trkpt lat="42.90455" lon="2.50693">
        <ele>659.8</ele>
        <time>2021-03-21T09:29:47Z</time>
      </trkpt>
      <trkpt lat="42.90457" lon="2.5069">
        <ele>660</ele>
        <time>2021-03-21T09:29:48Z</time>
      </trkpt>
      <trkpt lat="42.9046" lon="2.50686">
        <ele>660.3</ele>
        <time>2021-03-21T09:29:50Z</time>
      </trkpt>
      <trkpt lat="42.90462" lon="2.50681">
        <ele>660.6</ele>
        <time>2021-03-21T09:29:51Z</time>
      </trkpt>
      <trkpt lat="42.90464" lon="2.50678">
        <ele>660.8</ele>
        <time>2021-03-21T09:29:52Z</time>
      </trkpt>
      <trkpt lat="42.90467" lon="2.50675">
        <ele>661</ele>
        <time>2021-03-21T09:29:53Z</time>
      </trkpt>
      <trkpt lat="42.90471" lon="2.50669">
        <ele>661.3</ele>
        <time>2021-03-21T09:29:55Z</time>
      </trkpt>
      <trkpt lat="42.90473" lon="2.50665">
        <ele>661.4</ele>
        <time>2021-03-21T09:29:56Z</time>
      </trkpt>
      <trkpt lat="42.90475" lon="2.50662">
        <ele>661.6</ele>
        <time>2021-03-21T09:29:57Z</time>
      </trkpt>
      <trkpt lat="42.90478" lon="2.50657">
        <ele>661.8</ele>
        <time>2021-03-21T09:29:59Z</time>
      </trkpt>
      <trkpt lat="42.90481" lon="2.50654">
        <ele>662</ele>
        <time>2021-03-21T09:30:00Z</time>
      </trkpt>
      <trkpt lat="42.90483" lon="2.50651">
        <ele>662.2</ele>
        <time>2021-03-21T09:30:01Z</time>
      </trkpt>
      <trkpt lat="42.90486" lon="2.50645">
        <ele>662.4</ele>
        <time>2021-03-21T09:30:03Z</time>
      </trkpt>
      <trkpt lat="42.90489" lon="2.50642">
        <ele>662.6</ele>
        <time>2021-03-21T09:30:04Z</time>
      </trkpt>
      <trkpt lat="42.90492" lon="2.50639">
        <ele>662.8</ele>
        <time>2021-03-21T09:30:05Z</time>
      </trkpt>
      <trkpt lat="42.90496" lon="2.50634">
        <ele>663.1</ele>
        <time>2021-03-21T09:30:07Z</time>
      </trkpt>
      <trkpt lat="42.90499" lon="2.5063">
        <ele>663.2</ele>
        <time>2021-03-21T09:30:08Z</time>
      </trkpt>
      <trkpt lat="42.90502" lon="2.50626">
        <ele>663.4</ele>
        <time>2021-03-21T09:30:10Z</time>
      </trkpt>
      <trkpt lat="42.90504" lon="2.50623">
        <ele>663.6</ele>
        <time>2021-03-21T09:30:11Z</time>
      </trkpt>
      <trkpt lat="42.90507" lon="2.5062">
        <ele>663.8</ele>
        <time>2021-03-21T09:30:12Z</time>
      </trkpt>
      <trkpt lat="42.90511" lon="2.50616">
        <ele>664</ele>
        <time>2021-03-21T09:30:14Z</time>
      </trkpt>
      <trkpt lat="42.90513" lon="2.50614">
        <ele>664.2</ele>
        <time>2021-03-21T09:30:15Z</time>
      </trkpt>
      <trkpt lat="42.90516" lon="2.50611">
        <ele>664.3</ele>
        <time>2021-03-21T09:30:16Z</time>
      </trkpt>
      <trkpt lat="42.90519" lon="2.50608">
        <ele>664.5</ele>
        <time>2021-03-21T09:30:18Z</time>
      </trkpt>
      <trkpt lat="42.90522" lon="2.50605">
        <ele>664.8</ele>
        <time>2021-03-21T09:30:19Z</time>
      </trkpt>
      <trkpt lat="42.90526" lon="2.50602">
        <ele>665</ele>
        <time>2021-03-21T09:30:20Z</time>
      </trkpt>
      <trkpt lat="42.90532" lon="2.50598">
        <ele>665.3</ele>
        <time>2021-03-21T09:30:22Z</time>
      </trkpt>
      <trkpt lat="42.90536" lon="2.50596">
        <ele>665.6</ele>
        <time>2021-03-21T09:30:24Z</time>
      </trkpt>
      <trkpt lat="42.90539" lon="2.50594">
        <ele>665.8</ele>
        <time>2021-03-21T09:30:25Z</time>
      </trkpt>
      <trkpt lat="42.90542" lon="2.50592">
        <ele>665.9</ele>
        <time>2021-03-21T09:30:26Z</time>
      </trkpt>
      <trkpt lat="42.90545" lon="2.50591">
        <ele>666.1</ele>
        <time>2021-03-21T09:30:27Z</time>
      </trkpt>
      <trkpt lat="42.90549" lon="2.50589">
        <ele>666.3</ele>
        <time>2021-03-21T09:30:29Z</time>
      </trkpt>
      <trkpt lat="42.90552" lon="2.50588">
        <ele>666.5</ele>
        <time>2021-03-21T09:30:30Z</time>
      </trkpt>
      <trkpt lat="42.90556" lon="2.50588">
        <ele>666.6</ele>
        <time>2021-03-21T09:30:31Z</time>
      </trkpt>
      <trkpt lat="42.9056" lon="2.50587">
        <ele>666.9</ele>
        <time>2021-03-21T09:30:33Z</time>
      </trkpt>
      <trkpt lat="42.90564" lon="2.50586">
        <ele>667.1</ele>
        <time>2021-03-21T09:30:34Z</time>
      </trkpt>
      <trkpt lat="42.90568" lon="2.50585">
        <ele>667.3</ele>
        <time>2021-03-21T09:30:35Z</time>
      </trkpt>
      <trkpt lat="42.90572" lon="2.50585">
        <ele>667.5</ele>
        <time>2021-03-21T09:30:37Z</time>
      </trkpt>
      <trkpt lat="42.90576" lon="2.50585">
        <ele>667.7</ele>
        <time>2021-03-21T09:30:38Z</time>
      </trkpt>
      <trkpt lat="42.90582" lon="2.50586">
        <ele>668</ele>
        <time>2021-03-21T09:30:40Z</time>
      </trkpt>
      <trkpt lat="42.90587" lon="2.50587">
        <ele>668.2</ele>
        <time>2021-03-21T09:30:41Z</time>
      </trkpt>
      <trkpt lat="42.90592" lon="2.50587">
        <ele>668.4</ele>
        <time>2021-03-21T09:30:42Z</time>
      </trkpt>
      <trkpt lat="42.90596" lon="2.50588">
        <ele>668.6</ele>
        <time>2021-03-21T09:30:44Z</time>
      </trkpt>
      <trkpt lat="42.906" lon="2.50589">
        <ele>668.8</ele>
        <time>2021-03-21T09:30:45Z</time>
      </trkpt>
      <trkpt lat="42.90604" lon="2.5059">
        <ele>669</ele>
        <time>2021-03-21T09:30:46Z</time>
      </trkpt>
      <trkpt lat="42.90608" lon="2.50592">
        <ele>669.2</ele>
        <time>2021-03-21T09:30:47Z</time>
      </trkpt>
      <trkpt lat="42.90613" lon="2.50594">
        <ele>669.5</ele>
        <time>2021-03-21T09:30:49Z</time>
      </trkpt>
      <trkpt lat="42.90617" lon="2.50597">
        <ele>669.7</ele>
        <time>2021-03-21T09:30:50Z</time>
      </trkpt>
      <trkpt lat="42.9062" lon="2.506">
        <ele>669.9</ele>
        <time>2021-03-21T09:30:51Z</time>
      </trkpt>
      <trkpt lat="42.90623" lon="2.50602">
        <ele>670</ele>
        <time>2021-03-21T09:30:52Z</time>
      </trkpt>
      <trkpt lat="42.90627" lon="2.50606">
        <ele>670.2</ele>
        <time>2021-03-21T09:30:53Z</time>
      </trkpt>
      <trkpt lat="42.90632" lon="2.50612">
        <ele>670.5</ele>
        <time>2021-03-21T09:30:55Z</time>
      </trkpt>
      <trkpt lat="42.90636" lon="2.50616">
        <ele>670.7</ele>
        <time>2021-03-21T09:30:56Z</time>
      </trkpt>
      <trkpt lat="42.90641" lon="2.50623">
        <ele>671</ele>
        <time>2021-03-21T09:30:58Z</time>
      </trkpt>
      <trkpt lat="42.90643" lon="2.50626">
        <ele>671.1</ele>
        <time>2021-03-21T09:30:59Z</time>
      </trkpt>
      <trkpt lat="42.90647" lon="2.50633">
        <ele>671.4</ele>
        <time>2021-03-21T09:31:01Z</time>
      </trkpt>
      <trkpt lat="42.90651" lon="2.50639">
        <ele>671.7</ele>
        <time>2021-03-21T09:31:03Z</time>
      </trkpt>
      <trkpt lat="42.90654" lon="2.50645">
        <ele>672</ele>
        <time>2021-03-21T09:31:04Z</time>
      </trkpt>
      <trkpt lat="42.90657" lon="2.50649">
        <ele>672.1</ele>
        <time>2021-03-21T09:31:05Z</time>
      </trkpt>
      <trkpt lat="42.9066" lon="2.50656">
        <ele>672.4</ele>
        <time>2021-03-21T09:31:07Z</time>
      </trkpt>
      <trkpt lat="42.90664" lon="2.50662">
        <ele>672.7</ele>
        <time>2021-03-21T09:31:08Z</time>
      </trkpt>
      <trkpt lat="42.90666" lon="2.50667">
        <ele>672.9</ele>
        <time>2021-03-21T09:31:09Z</time>
      </trkpt>
      <trkpt lat="42.90669" lon="2.50674">
        <ele>673.2</ele>
        <time>2021-03-21T09:31:11Z</time>
      </trkpt>
      <trkpt lat="42.90672" lon="2.50681">
        <ele>673.5</ele>
        <time>2021-03-21T09:31:12Z</time>
      </trkpt>
      <trkpt lat="42.90674" lon="2.50687">
        <ele>673.7</ele>
        <time>2021-03-21T09:31:13Z</time>
      </trkpt>
      <trkpt lat="42.90677" lon="2.50694">
        <ele>674</ele>
        <time>2021-03-21T09:31:15Z</time>
      </trkpt>
      <trkpt lat="42.9068" lon="2.50701">
        <ele>674.3</ele>
        <time>2021-03-21T09:31:16Z</time>
      </trkpt>
      <trkpt lat="42.90682" lon="2.50707">
        <ele>674.5</ele>
        <time>2021-03-21T09:31:17Z</time>
      </trkpt>
      <trkpt lat="42.90685" lon="2.50714">
        <ele>674.8</ele>
        <time>2021-03-21T09:31:19Z</time>
      </trkpt>
      <trkpt lat="42.90687" lon="2.50719">
        <ele>675</ele>
        <time>2021-03-21T09:31:20Z</time>
      </trkpt>
      <trkpt lat="42.90689" lon="2.50724">
        <ele>675.2</ele>
        <time>2021-03-21T09:31:21Z</time>
      </trkpt>
      <trkpt lat="42.90691" lon="2.5073">
        <ele>675.4</ele>
        <time>2021-03-21T09:31:23Z</time>
      </trkpt>
      <trkpt lat="42.90693" lon="2.50737">
        <ele>675.7</ele>
        <time>2021-03-21T09:31:24Z</time>
      </trkpt>
      <trkpt lat="42.90696" lon="2.50743">
        <ele>675.9</ele>
        <time>2021-03-21T09:31:25Z</time>
      </trkpt>
      <trkpt lat="42.90699" lon="2.50752">
        <ele>676.2</ele>
        <time>2021-03-21T09:31:27Z</time>
      </trkpt>
      <trkpt lat="42.907" lon="2.50757">
        <ele>676.4</ele>
        <time>2021-03-21T09:31:28Z</time>
      </trkpt>
      <trkpt lat="42.90702" lon="2.50764">
        <ele>676.6</ele>
        <time>2021-03-21T09:31:29Z</time>
      </trkpt>
      <trkpt lat="42.90704" lon="2.5077">
        <ele>676.8</ele>
        <time>2021-03-21T09:31:31Z</time>
      </trkpt>
      <trkpt lat="42.90706" lon="2.50775">
        <ele>677</ele>
        <time>2021-03-21T09:31:32Z</time>
      </trkpt>
      <trkpt lat="42.90708" lon="2.5078">
        <ele>677.2</ele>
        <time>2021-03-21T09:31:33Z</time>
      </trkpt>
      <trkpt lat="42.9071" lon="2.50785">
        <ele>677.4</ele>
        <time>2021-03-21T09:31:34Z</time>
      </trkpt>
      <trkpt lat="42.90712" lon="2.5079">
        <ele>677.7</ele>
        <time>2021-03-21T09:31:35Z</time>
      </trkpt>
      <trkpt lat="42.90714" lon="2.50797">
        <ele>677.9</ele>
        <time>2021-03-21T09:31:37Z</time>
      </trkpt>
      <trkpt lat="42.90716" lon="2.50802">
        <ele>678.1</ele>
        <time>2021-03-21T09:31:38Z</time>
      </trkpt>
      <trkpt lat="42.90718" lon="2.50809">
        <ele>678.4</ele>
        <time>2021-03-21T09:31:39Z</time>
      </trkpt>
      <trkpt lat="42.9072" lon="2.50813">
        <ele>678.6</ele>
        <time>2021-03-21T09:31:40Z</time>
      </trkpt>
      <trkpt lat="42.90722" lon="2.5082">
        <ele>678.9</ele>
        <time>2021-03-21T09:31:42Z</time>
      </trkpt>
      <trkpt lat="42.90724" lon="2.50827">
        <ele>679.1</ele>
        <time>2021-03-21T09:31:43Z</time>
      </trkpt>
      <trkpt lat="42.90725" lon="2.50832">
        <ele>679.4</ele>
        <time>2021-03-21T09:31:44Z</time>
      </trkpt>
      <trkpt lat="42.90727" lon="2.50839">
        <ele>679.7</ele>
        <time>2021-03-21T09:31:46Z</time>
      </trkpt>
      <trkpt lat="42.9073" lon="2.50846">
        <ele>680.1</ele>
        <time>2021-03-21T09:31:48Z</time>
      </trkpt>
      <trkpt lat="42.90731" lon="2.50852">
        <ele>680.4</ele>
        <time>2021-03-21T09:31:49Z</time>
      </trkpt>
      <trkpt lat="42.90732" lon="2.50858">
        <ele>680.8</ele>
        <time>2021-03-21T09:31:50Z</time>
      </trkpt>
      <trkpt lat="42.90733" lon="2.50862">
        <ele>681</ele>
        <time>2021-03-21T09:31:51Z</time>
      </trkpt>
      <trkpt lat="42.90734" lon="2.50868">
        <ele>681.4</ele>
        <time>2021-03-21T09:31:53Z</time>
      </trkpt>
      <trkpt lat="42.90735" lon="2.50873">
        <ele>681.7</ele>
        <time>2021-03-21T09:31:54Z</time>
      </trkpt>
      <trkpt lat="42.90737" lon="2.50879">
        <ele>682</ele>
        <time>2021-03-21T09:31:56Z</time>
      </trkpt>
      <trkpt lat="42.90737" lon="2.50884">
        <ele>682.3</ele>
        <time>2021-03-21T09:31:57Z</time>
      </trkpt>
      <trkpt lat="42.90738" lon="2.50889">
        <ele>682.6</ele>
        <time>2021-03-21T09:31:58Z</time>
      </trkpt>
      <trkpt lat="42.90739" lon="2.50894">
        <ele>683</ele>
        <time>2021-03-21T09:31:59Z</time>
      </trkpt>
      <trkpt lat="42.90741" lon="2.50902">
        <ele>683.5</ele>
        <time>2021-03-21T09:32:01Z</time>
      </trkpt>
      <trkpt lat="42.90743" lon="2.5091">
        <ele>684</ele>
        <time>2021-03-21T09:32:03Z</time>
      </trkpt>
      <trkpt lat="42.90745" lon="2.50918">
        <ele>684.6</ele>
        <time>2021-03-21T09:32:05Z</time>
      </trkpt>
      <trkpt lat="42.90747" lon="2.50923">
        <ele>684.9</ele>
        <time>2021-03-21T09:32:06Z</time>
      </trkpt>
      <trkpt lat="42.90751" lon="2.50931">
        <ele>685.5</ele>
        <time>2021-03-21T09:32:08Z</time>
      </trkpt>
      <trkpt lat="42.90755" lon="2.50935">
        <ele>685.8</ele>
        <time>2021-03-21T09:32:10Z</time>
      </trkpt>
      <trkpt lat="42.90759" lon="2.50938">
        <ele>686.3</ele>
        <time>2021-03-21T09:32:11Z</time>
      </trkpt>
      <trkpt lat="42.90763" lon="2.50939">
        <ele>686.6</ele>
        <time>2021-03-21T09:32:12Z</time>
      </trkpt>
      <trkpt lat="42.90768" lon="2.50938">
        <ele>687</ele>
        <time>2021-03-21T09:32:14Z</time>
      </trkpt>
      <trkpt lat="42.90772" lon="2.50937">
        <ele>687.3</ele>
        <time>2021-03-21T09:32:15Z</time>
      </trkpt>
      <trkpt lat="42.90775" lon="2.50933">
        <ele>687.6</ele>
        <time>2021-03-21T09:32:16Z</time>
      </trkpt>
      <trkpt lat="42.90778" lon="2.50929">
        <ele>687.9</ele>
        <time>2021-03-21T09:32:17Z</time>
      </trkpt>
      <trkpt lat="42.9078" lon="2.50922">
        <ele>688.2</ele>
        <time>2021-03-21T09:32:19Z</time>
      </trkpt>
      <trkpt lat="42.9078" lon="2.50916">
        <ele>688.5</ele>
        <time>2021-03-21T09:32:20Z</time>
      </trkpt>
      <trkpt lat="42.90781" lon="2.50907">
        <ele>688.8</ele>
        <time>2021-03-21T09:32:22Z</time>
      </trkpt>
      <trkpt lat="42.9078" lon="2.50899">
        <ele>689.1</ele>
        <time>2021-03-21T09:32:24Z</time>
      </trkpt>
      <trkpt lat="42.90778" lon="2.50893">
        <ele>689.4</ele>
        <time>2021-03-21T09:32:26Z</time>
      </trkpt>
      <trkpt lat="42.90778" lon="2.50888">
        <ele>689.6</ele>
        <time>2021-03-21T09:32:27Z</time>
      </trkpt>
      <trkpt lat="42.90777" lon="2.50883">
        <ele>689.8</ele>
        <time>2021-03-21T09:32:28Z</time>
      </trkpt>
      <trkpt lat="42.90775" lon="2.50876">
        <ele>690</ele>
        <time>2021-03-21T09:32:30Z</time>
      </trkpt>
      <trkpt lat="42.90774" lon="2.5087">
        <ele>690.3</ele>
        <time>2021-03-21T09:32:31Z</time>
      </trkpt>
      <trkpt lat="42.90773" lon="2.50866">
        <ele>690.5</ele>
        <time>2021-03-21T09:32:32Z</time>
      </trkpt>
      <trkpt lat="42.90771" lon="2.50857">
        <ele>690.9</ele>
        <time>2021-03-21T09:32:34Z</time>
      </trkpt>
      <trkpt lat="42.9077" lon="2.50848">
        <ele>691.2</ele>
        <time>2021-03-21T09:32:36Z</time>
      </trkpt>
      <trkpt lat="42.9077" lon="2.50843">
        <ele>691.4</ele>
        <time>2021-03-21T09:32:37Z</time>
      </trkpt>
      <trkpt lat="42.90769" lon="2.50839">
        <ele>691.6</ele>
        <time>2021-03-21T09:32:38Z</time>
      </trkpt>
      <trkpt lat="42.90769" lon="2.50833">
        <ele>691.8</ele>
        <time>2021-03-21T09:32:40Z</time>
      </trkpt>
      <trkpt lat="42.90769" lon="2.50825">
        <ele>692.1</ele>
        <time>2021-03-21T09:32:41Z</time>
      </trkpt>
      <trkpt lat="42.90769" lon="2.50821">
        <ele>692.3</ele>
        <time>2021-03-21T09:32:42Z</time>
      </trkpt>
      <trkpt lat="42.90769" lon="2.50815">
        <ele>692.6</ele>
        <time>2021-03-21T09:32:44Z</time>
      </trkpt>
      <trkpt lat="42.90769" lon="2.50808">
        <ele>692.9</ele>
        <time>2021-03-21T09:32:45Z</time>
      </trkpt>
      <trkpt lat="42.90769" lon="2.50803">
        <ele>693.1</ele>
        <time>2021-03-21T09:32:46Z</time>
      </trkpt>
      <trkpt lat="42.90769" lon="2.50798">
        <ele>693.4</ele>
        <time>2021-03-21T09:32:47Z</time>
      </trkpt>
      <trkpt lat="42.90769" lon="2.50792">
        <ele>693.7</ele>
        <time>2021-03-21T09:32:49Z</time>
      </trkpt>
      <trkpt lat="42.90769" lon="2.50787">
        <ele>693.9</ele>
        <time>2021-03-21T09:32:50Z</time>
      </trkpt>
      <trkpt lat="42.90769" lon="2.5078">
        <ele>694.2</ele>
        <time>2021-03-21T09:32:51Z</time>
      </trkpt>
      <trkpt lat="42.90768" lon="2.50775">
        <ele>694.5</ele>
        <time>2021-03-21T09:32:52Z</time>
      </trkpt>
      <trkpt lat="42.90768" lon="2.50768">
        <ele>694.8</ele>
        <time>2021-03-21T09:32:54Z</time>
      </trkpt>
      <trkpt lat="42.90766" lon="2.50761">
        <ele>695.1</ele>
        <time>2021-03-21T09:32:55Z</time>
      </trkpt>
      <trkpt lat="42.90765" lon="2.50755">
        <ele>695.3</ele>
        <time>2021-03-21T09:32:57Z</time>
      </trkpt>
      <trkpt lat="42.90764" lon="2.5075">
        <ele>695.5</ele>
        <time>2021-03-21T09:32:58Z</time>
      </trkpt>
      <trkpt lat="42.90763" lon="2.50745">
        <ele>695.7</ele>
        <time>2021-03-21T09:32:59Z</time>
      </trkpt>
      <trkpt lat="42.90762" lon="2.50739">
        <ele>696</ele>
        <time>2021-03-21T09:33:00Z</time>
      </trkpt>
      <trkpt lat="42.90761" lon="2.50735">
        <ele>696.1</ele>
        <time>2021-03-21T09:33:01Z</time>
      </trkpt>
      <trkpt lat="42.9076" lon="2.50728">
        <ele>696.5</ele>
        <time>2021-03-21T09:33:03Z</time>
      </trkpt>
      <trkpt lat="42.90759" lon="2.50721">
        <ele>696.7</ele>
        <time>2021-03-21T09:33:04Z</time>
      </trkpt>
      <trkpt lat="42.90759" lon="2.50715">
        <ele>697</ele>
        <time>2021-03-21T09:33:05Z</time>
      </trkpt>
      <trkpt lat="42.90759" lon="2.5071">
        <ele>697.2</ele>
        <time>2021-03-21T09:33:06Z</time>
      </trkpt>
      <trkpt lat="42.90761" lon="2.50706">
        <ele>697.4</ele>
        <time>2021-03-21T09:33:07Z</time>
      </trkpt>
      <trkpt lat="42.90763" lon="2.50702">
        <ele>697.6</ele>
        <time>2021-03-21T09:33:08Z</time>
      </trkpt>
      <trkpt lat="42.90769" lon="2.50699">
        <ele>697.9</ele>
        <time>2021-03-21T09:33:10Z</time>
      </trkpt>
      <trkpt lat="42.90774" lon="2.50701">
        <ele>698.1</ele>
        <time>2021-03-21T09:33:12Z</time>
      </trkpt>
      <trkpt lat="42.90778" lon="2.50704">
        <ele>698.2</ele>
        <time>2021-03-21T09:33:13Z</time>
      </trkpt>
      <trkpt lat="42.90781" lon="2.50709">
        <ele>698.3</ele>
        <time>2021-03-21T09:33:14Z</time>
      </trkpt>
      <trkpt lat="42.90784" lon="2.50714">
        <ele>698.3</ele>
        <time>2021-03-21T09:33:15Z</time>
      </trkpt>
      <trkpt lat="42.90786" lon="2.50719">
        <ele>698.3</ele>
        <time>2021-03-21T09:33:16Z</time>
      </trkpt>
      <trkpt lat="42.90787" lon="2.50731">
        <ele>698.3</ele>
        <time>2021-03-21T09:33:18Z</time>
      </trkpt>
      <trkpt lat="42.9079" lon="2.50741">
        <ele>698.3</ele>
        <time>2021-03-21T09:33:20Z</time>
      </trkpt>
      <trkpt lat="42.90793" lon="2.50746">
        <ele>698.4</ele>
        <time>2021-03-21T09:33:22Z</time>
      </trkpt>
      <trkpt lat="42.90794" lon="2.50748">
        <ele>698.4</ele>
        <time>2021-03-21T09:33:23Z</time>
      </trkpt>
      <trkpt lat="42.90795" lon="2.50749">
        <ele>698.4</ele>
        <time>2021-03-21T09:33:25Z</time>
      </trkpt>
      <trkpt lat="42.90795" lon="2.5075">
        <ele>698.4</ele>
        <time>2021-03-21T09:33:26Z</time>
      </trkpt>
      <trkpt lat="42.90795" lon="2.50751">
        <ele>698.4</ele>
        <time>2021-03-21T09:33:28Z</time>
      </trkpt>
      <trkpt lat="42.90795" lon="2.50752">
        <ele>698.4</ele>
        <time>2021-03-21T09:33:29Z</time>
      </trkpt>
      <trkpt lat="42.90796" lon="2.50753">
        <ele>698.4</ele>
        <time>2021-03-21T09:33:30Z</time>
      </trkpt>
      <trkpt lat="42.90796" lon="2.50754">
        <ele>698.4</ele>
        <time>2021-03-21T09:33:31Z</time>
      </trkpt>
      <trkpt lat="42.90796" lon="2.50755">
        <ele>698.4</ele>
        <time>2021-03-21T09:33:33Z</time>
      </trkpt>
      <trkpt lat="42.90796" lon="2.50756">
        <ele>698.4</ele>
        <time>2021-03-21T09:33:34Z</time>
      </trkpt>
      <trkpt lat="42.90797" lon="2.50757">
        <ele>698.4</ele>
        <time>2021-03-21T09:33:36Z</time>
      </trkpt>
      <trkpt lat="42.90797" lon="2.50758">
        <ele>698.3</ele>
        <time>2021-03-21T09:38:45Z</time>
      </trkpt>
      <trkpt lat="42.90797" lon="2.50759">
        <ele>698.3</ele>
        <time>2021-03-21T09:38:46Z</time>
      </trkpt>
      <trkpt lat="42.90801" lon="2.50765">
        <ele>698.2</ele>
        <time>2021-03-21T09:38:47Z</time>
      </trkpt>
      <trkpt lat="42.9081" lon="2.50775">
        <ele>697.8</ele>
        <time>2021-03-21T09:38:49Z</time>
      </trkpt>
      <trkpt lat="42.90821" lon="2.50781">
        <ele>697.3</ele>
        <time>2021-03-21T09:38:51Z</time>
      </trkpt>
      <trkpt lat="42.90833" lon="2.50783">
        <ele>696.9</ele>
        <time>2021-03-21T09:38:53Z</time>
      </trkpt>
      <trkpt lat="42.90839" lon="2.50784">
        <ele>696.6</ele>
        <time>2021-03-21T09:38:54Z</time>
      </trkpt>
      <trkpt lat="42.90852" lon="2.50785">
        <ele>695.9</ele>
        <time>2021-03-21T09:38:56Z</time>
      </trkpt>
      <trkpt lat="42.90866" lon="2.50787">
        <ele>695.2</ele>
        <time>2021-03-21T09:38:58Z</time>
      </trkpt>
      <trkpt lat="42.90879" lon="2.50792">
        <ele>694.5</ele>
        <time>2021-03-21T09:39:00Z</time>
      </trkpt>
      <trkpt lat="42.90892" lon="2.50798">
        <ele>693.7</ele>
        <time>2021-03-21T09:39:02Z</time>
      </trkpt>
      <trkpt lat="42.90903" lon="2.5081">
        <ele>692.6</ele>
        <time>2021-03-21T09:39:04Z</time>
      </trkpt>
      <trkpt lat="42.90909" lon="2.50828">
        <ele>691.6</ele>
        <time>2021-03-21T09:39:06Z</time>
      </trkpt>
      <trkpt lat="42.9091" lon="2.50839">
        <ele>691.1</ele>
        <time>2021-03-21T09:39:07Z</time>
      </trkpt>
      <trkpt lat="42.90908" lon="2.50862">
        <ele>690.1</ele>
        <time>2021-03-21T09:39:09Z</time>
      </trkpt>
      <trkpt lat="42.90906" lon="2.50873">
        <ele>689.6</ele>
        <time>2021-03-21T09:39:10Z</time>
      </trkpt>
      <trkpt lat="42.90903" lon="2.50885">
        <ele>689.1</ele>
        <time>2021-03-21T09:39:11Z</time>
      </trkpt>
      <trkpt lat="42.90896" lon="2.50907">
        <ele>688.3</ele>
        <time>2021-03-21T09:39:13Z</time>
      </trkpt>
      <trkpt lat="42.90894" lon="2.50918">
        <ele>688</ele>
        <time>2021-03-21T09:39:14Z</time>
      </trkpt>
      <trkpt lat="42.90892" lon="2.5093">
        <ele>687.8</ele>
        <time>2021-03-21T09:39:15Z</time>
      </trkpt>
      <trkpt lat="42.90893" lon="2.50942">
        <ele>687.7</ele>
        <time>2021-03-21T09:39:16Z</time>
      </trkpt>
      <trkpt lat="42.90901" lon="2.50964">
        <ele>687.2</ele>
        <time>2021-03-21T09:39:18Z</time>
      </trkpt>
      <trkpt lat="42.90917" lon="2.50973">
        <ele>685.4</ele>
        <time>2021-03-21T09:39:20Z</time>
      </trkpt>
      <trkpt lat="42.90926" lon="2.5097">
        <ele>684.2</ele>
        <time>2021-03-21T09:39:21Z</time>
      </trkpt>
      <trkpt lat="42.90934" lon="2.50964">
        <ele>683.1</ele>
        <time>2021-03-21T09:39:22Z</time>
      </trkpt>
      <trkpt lat="42.90947" lon="2.5095">
        <ele>681.4</ele>
        <time>2021-03-21T09:39:24Z</time>
      </trkpt>
      <trkpt lat="42.90953" lon="2.50944">
        <ele>680.9</ele>
        <time>2021-03-21T09:39:25Z</time>
      </trkpt>
      <trkpt lat="42.90965" lon="2.50933">
        <ele>680.2</ele>
        <time>2021-03-21T09:39:27Z</time>
      </trkpt>
      <trkpt lat="42.90975" lon="2.50924">
        <ele>679.5</ele>
        <time>2021-03-21T09:39:29Z</time>
      </trkpt>
      <trkpt lat="42.90981" lon="2.50921">
        <ele>679</ele>
        <time>2021-03-21T09:39:30Z</time>
      </trkpt>
      <trkpt lat="42.90987" lon="2.50917">
        <ele>678.5</ele>
        <time>2021-03-21T09:39:31Z</time>
      </trkpt>
      <trkpt lat="42.91" lon="2.50911">
        <ele>677.4</ele>
        <time>2021-03-21T09:39:33Z</time>
      </trkpt>
      <trkpt lat="42.91007" lon="2.50907">
        <ele>676.7</ele>
        <time>2021-03-21T09:39:34Z</time>
      </trkpt>
      <trkpt lat="42.91021" lon="2.50899">
        <ele>675.4</ele>
        <time>2021-03-21T09:39:36Z</time>
      </trkpt>
      <trkpt lat="42.91029" lon="2.50894">
        <ele>674.8</ele>
        <time>2021-03-21T09:39:37Z</time>
      </trkpt>
      <trkpt lat="42.91036" lon="2.50889">
        <ele>674.2</ele>
        <time>2021-03-21T09:39:38Z</time>
      </trkpt>
      <trkpt lat="42.91044" lon="2.50883">
        <ele>673.6</ele>
        <time>2021-03-21T09:39:39Z</time>
      </trkpt>
      <trkpt lat="42.91059" lon="2.5087">
        <ele>672.2</ele>
        <time>2021-03-21T09:39:41Z</time>
      </trkpt>
      <trkpt lat="42.91073" lon="2.50856">
        <ele>671</ele>
        <time>2021-03-21T09:39:43Z</time>
      </trkpt>
      <trkpt lat="42.91085" lon="2.50844">
        <ele>669.7</ele>
        <time>2021-03-21T09:39:45Z</time>
      </trkpt>
      <trkpt lat="42.91098" lon="2.50834">
        <ele>668.7</ele>
        <time>2021-03-21T09:39:47Z</time>
      </trkpt>
      <trkpt lat="42.91106" lon="2.50829">
        <ele>668.3</ele>
        <time>2021-03-21T09:39:48Z</time>
      </trkpt>
      <trkpt lat="42.91113" lon="2.50825">
        <ele>668.1</ele>
        <time>2021-03-21T09:39:49Z</time>
      </trkpt>
      <trkpt lat="42.9112" lon="2.50821">
        <ele>667.9</ele>
        <time>2021-03-21T09:39:50Z</time>
      </trkpt>
      <trkpt lat="42.91127" lon="2.50817">
        <ele>667.7</ele>
        <time>2021-03-21T09:39:51Z</time>
      </trkpt>
      <trkpt lat="42.91143" lon="2.50809">
        <ele>667.2</ele>
        <time>2021-03-21T09:39:53Z</time>
      </trkpt>
      <trkpt lat="42.9115" lon="2.50804">
        <ele>666.7</ele>
        <time>2021-03-21T09:39:54Z</time>
      </trkpt>
      <trkpt lat="42.9116" lon="2.50786">
        <ele>665.4</ele>
        <time>2021-03-21T09:39:56Z</time>
      </trkpt>
      <trkpt lat="42.91161" lon="2.50774">
        <ele>664.5</ele>
        <time>2021-03-21T09:39:57Z</time>
      </trkpt>
      <trkpt lat="42.91156" lon="2.50748">
        <ele>662.8</ele>
        <time>2021-03-21T09:39:59Z</time>
      </trkpt>
      <trkpt lat="42.91156" lon="2.50723">
        <ele>661.4</ele>
        <time>2021-03-21T09:40:01Z</time>
      </trkpt>
      <trkpt lat="42.91166" lon="2.50702">
        <ele>660.1</ele>
        <time>2021-03-21T09:40:03Z</time>
      </trkpt>
      <trkpt lat="42.91183" lon="2.50688">
        <ele>658.9</ele>
        <time>2021-03-21T09:40:05Z</time>
      </trkpt>
      <trkpt lat="42.91192" lon="2.50684">
        <ele>658.3</ele>
        <time>2021-03-21T09:40:06Z</time>
      </trkpt>
      <trkpt lat="42.91209" lon="2.50676">
        <ele>656.7</ele>
        <time>2021-03-21T09:40:08Z</time>
      </trkpt>
      <trkpt lat="42.91225" lon="2.50672">
        <ele>655.1</ele>
        <time>2021-03-21T09:40:10Z</time>
      </trkpt>
      <trkpt lat="42.91242" lon="2.50669">
        <ele>654</ele>
        <time>2021-03-21T09:40:12Z</time>
      </trkpt>
      <trkpt lat="42.9125" lon="2.50668">
        <ele>653.5</ele>
        <time>2021-03-21T09:40:13Z</time>
      </trkpt>
      <trkpt lat="42.91267" lon="2.50669">
        <ele>652</ele>
        <time>2021-03-21T09:40:15Z</time>
      </trkpt>
      <trkpt lat="42.91276" lon="2.50672">
        <ele>651.3</ele>
        <time>2021-03-21T09:40:16Z</time>
      </trkpt>
      <trkpt lat="42.91293" lon="2.50679">
        <ele>650.1</ele>
        <time>2021-03-21T09:40:18Z</time>
      </trkpt>
      <trkpt lat="42.91301" lon="2.50683">
        <ele>649.7</ele>
        <time>2021-03-21T09:40:19Z</time>
      </trkpt>
      <trkpt lat="42.91317" lon="2.50692">
        <ele>648.6</ele>
        <time>2021-03-21T09:40:21Z</time>
      </trkpt>
      <trkpt lat="42.91326" lon="2.50696">
        <ele>648</ele>
        <time>2021-03-21T09:40:22Z</time>
      </trkpt>
      <trkpt lat="42.91335" lon="2.507">
        <ele>647.2</ele>
        <time>2021-03-21T09:40:23Z</time>
      </trkpt>
      <trkpt lat="42.91352" lon="2.50706">
        <ele>645.7</ele>
        <time>2021-03-21T09:40:25Z</time>
      </trkpt>
      <trkpt lat="42.91371" lon="2.5071">
        <ele>644.5</ele>
        <time>2021-03-21T09:40:27Z</time>
      </trkpt>
      <trkpt lat="42.91381" lon="2.50711">
        <ele>644.1</ele>
        <time>2021-03-21T09:40:28Z</time>
      </trkpt>
      <trkpt lat="42.91401" lon="2.50709">
        <ele>643.3</ele>
        <time>2021-03-21T09:40:30Z</time>
      </trkpt>
      <trkpt lat="42.91417" lon="2.50698">
        <ele>642.4</ele>
        <time>2021-03-21T09:40:32Z</time>
      </trkpt>
      <trkpt lat="42.91423" lon="2.50686">
        <ele>641.7</ele>
        <time>2021-03-21T09:40:33Z</time>
      </trkpt>
      <trkpt lat="42.91426" lon="2.50653">
        <ele>640</ele>
        <time>2021-03-21T09:40:35Z</time>
      </trkpt>
      <trkpt lat="42.91425" lon="2.50638">
        <ele>639.2</ele>
        <time>2021-03-21T09:40:36Z</time>
      </trkpt>
      <trkpt lat="42.91425" lon="2.50624">
        <ele>638.5</ele>
        <time>2021-03-21T09:40:37Z</time>
      </trkpt>
      <trkpt lat="42.91434" lon="2.50602">
        <ele>637</ele>
        <time>2021-03-21T09:40:39Z</time>
      </trkpt>
      <trkpt lat="42.91442" lon="2.50598">
        <ele>636.2</ele>
        <time>2021-03-21T09:40:40Z</time>
      </trkpt>
      <trkpt lat="42.91453" lon="2.50601">
        <ele>635.3</ele>
        <time>2021-03-21T09:40:41Z</time>
      </trkpt>
      <trkpt lat="42.91472" lon="2.50614">
        <ele>633.7</ele>
        <time>2021-03-21T09:40:43Z</time>
      </trkpt>
      <trkpt lat="42.91491" lon="2.5062">
        <ele>632.4</ele>
        <time>2021-03-21T09:40:45Z</time>
      </trkpt>
      <trkpt lat="42.91508" lon="2.50615">
        <ele>631.1</ele>
        <time>2021-03-21T09:40:47Z</time>
      </trkpt>
      <trkpt lat="42.91524" lon="2.50606">
        <ele>629.8</ele>
        <time>2021-03-21T09:40:49Z</time>
      </trkpt>
      <trkpt lat="42.91532" lon="2.50602">
        <ele>629.1</ele>
        <time>2021-03-21T09:40:50Z</time>
      </trkpt>
      <trkpt lat="42.9155" lon="2.50594">
        <ele>627.8</ele>
        <time>2021-03-21T09:40:52Z</time>
      </trkpt>
      <trkpt lat="42.91558" lon="2.5059">
        <ele>627.3</ele>
        <time>2021-03-21T09:40:53Z</time>
      </trkpt>
      <trkpt lat="42.91567" lon="2.50585">
        <ele>626.7</ele>
        <time>2021-03-21T09:40:54Z</time>
      </trkpt>
      <trkpt lat="42.91584" lon="2.50576">
        <ele>625.5</ele>
        <time>2021-03-21T09:40:56Z</time>
      </trkpt>
      <trkpt lat="42.91593" lon="2.50571">
        <ele>624.9</ele>
        <time>2021-03-21T09:40:57Z</time>
      </trkpt>
      <trkpt lat="42.91602" lon="2.50567">
        <ele>624.4</ele>
        <time>2021-03-21T09:40:58Z</time>
      </trkpt>
      <trkpt lat="42.9162" lon="2.50558">
        <ele>623.4</ele>
        <time>2021-03-21T09:41:00Z</time>
      </trkpt>
      <trkpt lat="42.91637" lon="2.50547">
        <ele>622.7</ele>
        <time>2021-03-21T09:41:02Z</time>
      </trkpt>
      <trkpt lat="42.91645" lon="2.50539">
        <ele>622.4</ele>
        <time>2021-03-21T09:41:03Z</time>
      </trkpt>
      <trkpt lat="42.91658" lon="2.50518">
        <ele>621.2</ele>
        <time>2021-03-21T09:41:05Z</time>
      </trkpt>
      <trkpt lat="42.9166" lon="2.50492">
        <ele>619.4</ele>
        <time>2021-03-21T09:41:07Z</time>
      </trkpt>
      <trkpt lat="42.91658" lon="2.50477">
        <ele>618.5</ele>
        <time>2021-03-21T09:41:08Z</time>
      </trkpt>
      <trkpt lat="42.91654" lon="2.50463">
        <ele>617.8</ele>
        <time>2021-03-21T09:41:09Z</time>
      </trkpt>
      <trkpt lat="42.91648" lon="2.50435">
        <ele>616.6</ele>
        <time>2021-03-21T09:41:11Z</time>
      </trkpt>
      <trkpt lat="42.91645" lon="2.50421">
        <ele>616.1</ele>
        <time>2021-03-21T09:41:12Z</time>
      </trkpt>
      <trkpt lat="42.91642" lon="2.50406">
        <ele>615.6</ele>
        <time>2021-03-21T09:41:13Z</time>
      </trkpt>
      <trkpt lat="42.91637" lon="2.50377">
        <ele>614.9</ele>
        <time>2021-03-21T09:41:15Z</time>
      </trkpt>
      <trkpt lat="42.91634" lon="2.50348">
        <ele>614.4</ele>
        <time>2021-03-21T09:41:17Z</time>
      </trkpt>
      <trkpt lat="42.91637" lon="2.50322">
        <ele>613.9</ele>
        <time>2021-03-21T09:41:19Z</time>
      </trkpt>
      <trkpt lat="42.91644" lon="2.50312">
        <ele>613.3</ele>
        <time>2021-03-21T09:41:20Z</time>
      </trkpt>
      <trkpt lat="42.91653" lon="2.50305">
        <ele>612.5</ele>
        <time>2021-03-21T09:41:21Z</time>
      </trkpt>
      <trkpt lat="42.91675" lon="2.50307">
        <ele>610.6</ele>
        <time>2021-03-21T09:41:23Z</time>
      </trkpt>
      <trkpt lat="42.91685" lon="2.50316">
        <ele>609.6</ele>
        <time>2021-03-21T09:41:24Z</time>
      </trkpt>
      <trkpt lat="42.91695" lon="2.50329">
        <ele>608.8</ele>
        <time>2021-03-21T09:41:25Z</time>
      </trkpt>
      <trkpt lat="42.91702" lon="2.50343">
        <ele>608.1</ele>
        <time>2021-03-21T09:41:26Z</time>
      </trkpt>
      <trkpt lat="42.91712" lon="2.50371">
        <ele>606.9</ele>
        <time>2021-03-21T09:41:28Z</time>
      </trkpt>
      <trkpt lat="42.91722" lon="2.50396">
        <ele>605.6</ele>
        <time>2021-03-21T09:41:30Z</time>
      </trkpt>
      <trkpt lat="42.91729" lon="2.50408">
        <ele>604.8</ele>
        <time>2021-03-21T09:41:31Z</time>
      </trkpt>
      <trkpt lat="42.91744" lon="2.50426">
        <ele>603.5</ele>
        <time>2021-03-21T09:41:33Z</time>
      </trkpt>
      <trkpt lat="42.91753" lon="2.50433">
        <ele>602.9</ele>
        <time>2021-03-21T09:41:34Z</time>
      </trkpt>
      <trkpt lat="42.91774" lon="2.50441">
        <ele>601.7</ele>
        <time>2021-03-21T09:41:36Z</time>
      </trkpt>
      <trkpt lat="42.91784" lon="2.50442">
        <ele>601.1</ele>
        <time>2021-03-21T09:41:37Z</time>
      </trkpt>
      <trkpt lat="42.91795" lon="2.50444">
        <ele>600.5</ele>
        <time>2021-03-21T09:41:38Z</time>
      </trkpt>
      <trkpt lat="42.91815" lon="2.50447">
        <ele>599.2</ele>
        <time>2021-03-21T09:41:40Z</time>
      </trkpt>
      <trkpt lat="42.91835" lon="2.50456">
        <ele>598</ele>
        <time>2021-03-21T09:41:42Z</time>
      </trkpt>
      <trkpt lat="42.91845" lon="2.50462">
        <ele>597.3</ele>
        <time>2021-03-21T09:41:43Z</time>
      </trkpt>
      <trkpt lat="42.91865" lon="2.50475">
        <ele>596.2</ele>
        <time>2021-03-21T09:41:45Z</time>
      </trkpt>
      <trkpt lat="42.91885" lon="2.50491">
        <ele>595.1</ele>
        <time>2021-03-21T09:41:47Z</time>
      </trkpt>
      <trkpt lat="42.91894" lon="2.50498">
        <ele>594.5</ele>
        <time>2021-03-21T09:41:48Z</time>
      </trkpt>
      <trkpt lat="42.91912" lon="2.50514">
        <ele>593.5</ele>
        <time>2021-03-21T09:41:50Z</time>
      </trkpt>
      <trkpt lat="42.9193" lon="2.50531">
        <ele>592.6</ele>
        <time>2021-03-21T09:41:52Z</time>
      </trkpt>
      <trkpt lat="42.91948" lon="2.50544">
        <ele>591.7</ele>
        <time>2021-03-21T09:41:54Z</time>
      </trkpt>
      <trkpt lat="42.91957" lon="2.50549">
        <ele>591.1</ele>
        <time>2021-03-21T09:41:55Z</time>
      </trkpt>
      <trkpt lat="42.91978" lon="2.50553">
        <ele>590</ele>
        <time>2021-03-21T09:41:57Z</time>
      </trkpt>
      <trkpt lat="42.9199" lon="2.50552">
        <ele>589.5</ele>
        <time>2021-03-21T09:41:58Z</time>
      </trkpt>
      <trkpt lat="42.9201" lon="2.50543">
        <ele>588.4</ele>
        <time>2021-03-21T09:42:00Z</time>
      </trkpt>
      <trkpt lat="42.9202" lon="2.50538">
        <ele>588</ele>
        <time>2021-03-21T09:42:01Z</time>
      </trkpt>
      <trkpt lat="42.9204" lon="2.50532">
        <ele>587</ele>
        <time>2021-03-21T09:42:03Z</time>
      </trkpt>
      <trkpt lat="42.9205" lon="2.50531">
        <ele>586.4</ele>
        <time>2021-03-21T09:42:04Z</time>
      </trkpt>
      <trkpt lat="42.92071" lon="2.50531">
        <ele>585.1</ele>
        <time>2021-03-21T09:42:06Z</time>
      </trkpt>
      <trkpt lat="42.92081" lon="2.50531">
        <ele>584.6</ele>
        <time>2021-03-21T09:42:07Z</time>
      </trkpt>
      <trkpt lat="42.92091" lon="2.50529">
        <ele>584.1</ele>
        <time>2021-03-21T09:42:08Z</time>
      </trkpt>
      <trkpt lat="42.92108" lon="2.50523">
        <ele>583.2</ele>
        <time>2021-03-21T09:42:10Z</time>
      </trkpt>
      <trkpt lat="42.92116" lon="2.50516">
        <ele>582.7</ele>
        <time>2021-03-21T09:42:11Z</time>
      </trkpt>
      <trkpt lat="42.92122" lon="2.50505">
        <ele>582.2</ele>
        <time>2021-03-21T09:42:12Z</time>
      </trkpt>
      <trkpt lat="42.92126" lon="2.50493">
        <ele>581.7</ele>
        <time>2021-03-21T09:42:13Z</time>
      </trkpt>
      <trkpt lat="42.92129" lon="2.50466">
        <ele>580.4</ele>
        <time>2021-03-21T09:42:15Z</time>
      </trkpt>
      <trkpt lat="42.92132" lon="2.50454">
        <ele>579.8</ele>
        <time>2021-03-21T09:42:16Z</time>
      </trkpt>
      <trkpt lat="42.92147" lon="2.50438">
        <ele>578.6</ele>
        <time>2021-03-21T09:42:18Z</time>
      </trkpt>
      <trkpt lat="42.92156" lon="2.50432">
        <ele>577.9</ele>
        <time>2021-03-21T09:42:19Z</time>
      </trkpt>
      <trkpt lat="42.92164" lon="2.50424">
        <ele>577.3</ele>
        <time>2021-03-21T09:42:20Z</time>
      </trkpt>
      <trkpt lat="42.92172" lon="2.50414">
        <ele>576.6</ele>
        <time>2021-03-21T09:42:21Z</time>
      </trkpt>
      <trkpt lat="42.92184" lon="2.5039">
        <ele>575.2</ele>
        <time>2021-03-21T09:42:23Z</time>
      </trkpt>
      <trkpt lat="42.92189" lon="2.50377">
        <ele>574.5</ele>
        <time>2021-03-21T09:42:24Z</time>
      </trkpt>
      <trkpt lat="42.92194" lon="2.50363">
        <ele>573.9</ele>
        <time>2021-03-21T09:42:25Z</time>
      </trkpt>
      <trkpt lat="42.92203" lon="2.50338">
        <ele>572.5</ele>
        <time>2021-03-21T09:42:27Z</time>
      </trkpt>
      <trkpt lat="42.92207" lon="2.50325">
        <ele>571.9</ele>
        <time>2021-03-21T09:42:28Z</time>
      </trkpt>
      <trkpt lat="42.92211" lon="2.50301">
        <ele>570.7</ele>
        <time>2021-03-21T09:42:30Z</time>
      </trkpt>
      <trkpt lat="42.92212" lon="2.5028">
        <ele>569.8</ele>
        <time>2021-03-21T09:42:32Z</time>
      </trkpt>
      <trkpt lat="42.92212" lon="2.50271">
        <ele>569.4</ele>
        <time>2021-03-21T09:42:33Z</time>
      </trkpt>
      <trkpt lat="42.9221" lon="2.50252">
        <ele>568.6</ele>
        <time>2021-03-21T09:42:35Z</time>
      </trkpt>
      <trkpt lat="42.9221" lon="2.50242">
        <ele>568.1</ele>
        <time>2021-03-21T09:42:36Z</time>
      </trkpt>
      <trkpt lat="42.92212" lon="2.5022">
        <ele>567.1</ele>
        <time>2021-03-21T09:42:38Z</time>
      </trkpt>
      <trkpt lat="42.92215" lon="2.50198">
        <ele>566.1</ele>
        <time>2021-03-21T09:42:40Z</time>
      </trkpt>
      <trkpt lat="42.92218" lon="2.50177">
        <ele>565.1</ele>
        <time>2021-03-21T09:42:42Z</time>
      </trkpt>
      <trkpt lat="42.92219" lon="2.50157">
        <ele>564.2</ele>
        <time>2021-03-21T09:42:44Z</time>
      </trkpt>
      <trkpt lat="42.92217" lon="2.50137">
        <ele>563.3</ele>
        <time>2021-03-21T09:42:46Z</time>
      </trkpt>
      <trkpt lat="42.92213" lon="2.50115">
        <ele>562.2</ele>
        <time>2021-03-21T09:42:48Z</time>
      </trkpt>
      <trkpt lat="42.92206" lon="2.50092">
        <ele>561.4</ele>
        <time>2021-03-21T09:42:50Z</time>
      </trkpt>
      <trkpt lat="42.92203" lon="2.50081">
        <ele>561</ele>
        <time>2021-03-21T09:42:51Z</time>
      </trkpt>
      <trkpt lat="42.92205" lon="2.50058">
        <ele>560.4</ele>
        <time>2021-03-21T09:42:53Z</time>
      </trkpt>
      <trkpt lat="42.9222" lon="2.50042">
        <ele>559.5</ele>
        <time>2021-03-21T09:42:55Z</time>
      </trkpt>
      <trkpt lat="42.92242" lon="2.50038">
        <ele>558.5</ele>
        <time>2021-03-21T09:42:57Z</time>
      </trkpt>
      <trkpt lat="42.92261" lon="2.50034">
        <ele>557.6</ele>
        <time>2021-03-21T09:42:59Z</time>
      </trkpt>
      <trkpt lat="42.92276" lon="2.50021">
        <ele>556.8</ele>
        <time>2021-03-21T09:43:01Z</time>
      </trkpt>
      <trkpt lat="42.92282" lon="2.50012">
        <ele>556.4</ele>
        <time>2021-03-21T09:43:02Z</time>
      </trkpt>
      <trkpt lat="42.92295" lon="2.49994">
        <ele>555.4</ele>
        <time>2021-03-21T09:43:04Z</time>
      </trkpt>
      <trkpt lat="42.92301" lon="2.49984">
        <ele>554.9</ele>
        <time>2021-03-21T09:43:05Z</time>
      </trkpt>
      <trkpt lat="42.92306" lon="2.49974">
        <ele>554.2</ele>
        <time>2021-03-21T09:43:06Z</time>
      </trkpt>
      <trkpt lat="42.9231" lon="2.49962">
        <ele>553.5</ele>
        <time>2021-03-21T09:43:07Z</time>
      </trkpt>
      <trkpt lat="42.92311" lon="2.4995">
        <ele>552.9</ele>
        <time>2021-03-21T09:43:08Z</time>
      </trkpt>
      <trkpt lat="42.92311" lon="2.49938">
        <ele>552.2</ele>
        <time>2021-03-21T09:43:09Z</time>
      </trkpt>
      <trkpt lat="42.92311" lon="2.49914">
        <ele>550.9</ele>
        <time>2021-03-21T09:43:11Z</time>
      </trkpt>
      <trkpt lat="42.9231" lon="2.49902">
        <ele>550.3</ele>
        <time>2021-03-21T09:43:12Z</time>
      </trkpt>
      <trkpt lat="42.92309" lon="2.4989">
        <ele>549.7</ele>
        <time>2021-03-21T09:43:13Z</time>
      </trkpt>
      <trkpt lat="42.92309" lon="2.49878">
        <ele>549.2</ele>
        <time>2021-03-21T09:43:14Z</time>
      </trkpt>
      <trkpt lat="42.92311" lon="2.49855">
        <ele>547.9</ele>
        <time>2021-03-21T09:43:16Z</time>
      </trkpt>
      <trkpt lat="42.92314" lon="2.49844">
        <ele>547.2</ele>
        <time>2021-03-21T09:43:17Z</time>
      </trkpt>
      <trkpt lat="42.92325" lon="2.49824">
        <ele>545.9</ele>
        <time>2021-03-21T09:43:19Z</time>
      </trkpt>
      <trkpt lat="42.92343" lon="2.49808">
        <ele>544.4</ele>
        <time>2021-03-21T09:43:21Z</time>
      </trkpt>
      <trkpt lat="42.92353" lon="2.49801">
        <ele>543.7</ele>
        <time>2021-03-21T09:43:22Z</time>
      </trkpt>
      <trkpt lat="42.92362" lon="2.49794">
        <ele>542.9</ele>
        <time>2021-03-21T09:43:23Z</time>
      </trkpt>
      <trkpt lat="42.92371" lon="2.49787">
        <ele>542.2</ele>
        <time>2021-03-21T09:43:24Z</time>
      </trkpt>
      <trkpt lat="42.92387" lon="2.49774">
        <ele>540.8</ele>
        <time>2021-03-21T09:43:26Z</time>
      </trkpt>
      <trkpt lat="42.92394" lon="2.49766">
        <ele>540.2</ele>
        <time>2021-03-21T09:43:27Z</time>
      </trkpt>
      <trkpt lat="42.92402" lon="2.49758">
        <ele>539.6</ele>
        <time>2021-03-21T09:43:28Z</time>
      </trkpt>
      <trkpt lat="42.92421" lon="2.49748">
        <ele>538.6</ele>
        <time>2021-03-21T09:43:30Z</time>
      </trkpt>
      <trkpt lat="42.92431" lon="2.49746">
        <ele>537.9</ele>
        <time>2021-03-21T09:43:31Z</time>
      </trkpt>
      <trkpt lat="42.9244" lon="2.49745">
        <ele>537.4</ele>
        <time>2021-03-21T09:43:32Z</time>
      </trkpt>
      <trkpt lat="42.92458" lon="2.49739">
        <ele>536.5</ele>
        <time>2021-03-21T09:43:34Z</time>
      </trkpt>
      <trkpt lat="42.92464" lon="2.4973">
        <ele>536.1</ele>
        <time>2021-03-21T09:43:35Z</time>
      </trkpt>
      <trkpt lat="42.92474" lon="2.4971">
        <ele>535.2</ele>
        <time>2021-03-21T09:43:37Z</time>
      </trkpt>
      <trkpt lat="42.9248" lon="2.497">
        <ele>534.8</ele>
        <time>2021-03-21T09:43:38Z</time>
      </trkpt>
      <trkpt lat="42.92489" lon="2.49682">
        <ele>534</ele>
        <time>2021-03-21T09:43:40Z</time>
      </trkpt>
      <trkpt lat="42.92494" lon="2.49661">
        <ele>532.8</ele>
        <time>2021-03-21T09:43:42Z</time>
      </trkpt>
      <trkpt lat="42.92488" lon="2.49637">
        <ele>531.5</ele>
        <time>2021-03-21T09:43:44Z</time>
      </trkpt>
      <trkpt lat="42.92484" lon="2.49625">
        <ele>530.9</ele>
        <time>2021-03-21T09:43:45Z</time>
      </trkpt>
      <trkpt lat="42.9248" lon="2.49613">
        <ele>530.2</ele>
        <time>2021-03-21T09:43:46Z</time>
      </trkpt>
      <trkpt lat="42.92474" lon="2.4959">
        <ele>529</ele>
        <time>2021-03-21T09:43:48Z</time>
      </trkpt>
      <trkpt lat="42.92471" lon="2.49578">
        <ele>528.4</ele>
        <time>2021-03-21T09:43:49Z</time>
      </trkpt>
      <trkpt lat="42.92469" lon="2.49567">
        <ele>527.9</ele>
        <time>2021-03-21T09:43:50Z</time>
      </trkpt>
      <trkpt lat="42.92464" lon="2.49545">
        <ele>526.8</ele>
        <time>2021-03-21T09:43:52Z</time>
      </trkpt>
      <trkpt lat="42.92463" lon="2.49533">
        <ele>526.2</ele>
        <time>2021-03-21T09:43:53Z</time>
      </trkpt>
      <trkpt lat="42.92463" lon="2.49521">
        <ele>525.6</ele>
        <time>2021-03-21T09:43:54Z</time>
      </trkpt>
      <trkpt lat="42.92467" lon="2.49497">
        <ele>524.4</ele>
        <time>2021-03-21T09:43:56Z</time>
      </trkpt>
      <trkpt lat="42.92472" lon="2.49485">
        <ele>523.8</ele>
        <time>2021-03-21T09:43:57Z</time>
      </trkpt>
      <trkpt lat="42.92482" lon="2.49462">
        <ele>522.6</ele>
        <time>2021-03-21T09:43:59Z</time>
      </trkpt>
      <trkpt lat="42.92487" lon="2.4945">
        <ele>522.1</ele>
        <time>2021-03-21T09:44:00Z</time>
      </trkpt>
      <trkpt lat="42.92492" lon="2.49437">
        <ele>521.6</ele>
        <time>2021-03-21T09:44:01Z</time>
      </trkpt>
      <trkpt lat="42.92497" lon="2.4941">
        <ele>520.3</ele>
        <time>2021-03-21T09:44:03Z</time>
      </trkpt>
      <trkpt lat="42.92491" lon="2.49382">
        <ele>518.8</ele>
        <time>2021-03-21T09:44:05Z</time>
      </trkpt>
      <trkpt lat="42.92484" lon="2.49368">
        <ele>518</ele>
        <time>2021-03-21T09:44:06Z</time>
      </trkpt>
      <trkpt lat="42.9247" lon="2.4934">
        <ele>516.4</ele>
        <time>2021-03-21T09:44:08Z</time>
      </trkpt>
      <trkpt lat="42.92464" lon="2.49327">
        <ele>515.9</ele>
        <time>2021-03-21T09:44:09Z</time>
      </trkpt>
      <trkpt lat="42.92458" lon="2.49314">
        <ele>515.4</ele>
        <time>2021-03-21T09:44:10Z</time>
      </trkpt>
      <trkpt lat="42.92445" lon="2.49291">
        <ele>514.5</ele>
        <time>2021-03-21T09:44:12Z</time>
      </trkpt>
      <trkpt lat="42.92437" lon="2.49282">
        <ele>514.1</ele>
        <time>2021-03-21T09:44:13Z</time>
      </trkpt>
      <trkpt lat="42.92418" lon="2.49271">
        <ele>513.4</ele>
        <time>2021-03-21T09:44:15Z</time>
      </trkpt>
      <trkpt lat="42.924" lon="2.49264">
        <ele>512.8</ele>
        <time>2021-03-21T09:44:17Z</time>
      </trkpt>
      <trkpt lat="42.92392" lon="2.49257">
        <ele>512.5</ele>
        <time>2021-03-21T09:44:18Z</time>
      </trkpt>
      <trkpt lat="42.92388" lon="2.49249">
        <ele>512.1</ele>
        <time>2021-03-21T09:44:19Z</time>
      </trkpt>
      <trkpt lat="42.92387" lon="2.49239">
        <ele>511.8</ele>
        <time>2021-03-21T09:44:20Z</time>
      </trkpt>
      <trkpt lat="42.9239" lon="2.49229">
        <ele>511.5</ele>
        <time>2021-03-21T09:44:21Z</time>
      </trkpt>
      <trkpt lat="42.92405" lon="2.49213">
        <ele>510.9</ele>
        <time>2021-03-21T09:44:23Z</time>
      </trkpt>
      <trkpt lat="42.92423" lon="2.49213">
        <ele>509.9</ele>
        <time>2021-03-21T09:44:25Z</time>
      </trkpt>
      <trkpt lat="42.92431" lon="2.49218">
        <ele>509.4</ele>
        <time>2021-03-21T09:44:26Z</time>
      </trkpt>
      <trkpt lat="42.92447" lon="2.49228">
        <ele>508.4</ele>
        <time>2021-03-21T09:44:28Z</time>
      </trkpt>
      <trkpt lat="42.92463" lon="2.49239">
        <ele>507.5</ele>
        <time>2021-03-21T09:44:30Z</time>
      </trkpt>
      <trkpt lat="42.9247" lon="2.49243">
        <ele>507.2</ele>
        <time>2021-03-21T09:44:31Z</time>
      </trkpt>
      <trkpt lat="42.92484" lon="2.49247">
        <ele>506.7</ele>
        <time>2021-03-21T09:44:33Z</time>
      </trkpt>
      <trkpt lat="42.92492" lon="2.49248">
        <ele>506.4</ele>
        <time>2021-03-21T09:44:34Z</time>
      </trkpt>
      <trkpt lat="42.925" lon="2.49249">
        <ele>506.2</ele>
        <time>2021-03-21T09:44:35Z</time>
      </trkpt>
      <trkpt lat="42.92508" lon="2.49251">
        <ele>506</ele>
        <time>2021-03-21T09:44:36Z</time>
      </trkpt>
      <trkpt lat="42.92515" lon="2.49252">
        <ele>505.8</ele>
        <time>2021-03-21T09:44:37Z</time>
      </trkpt>
      <trkpt lat="42.92523" lon="2.49253">
        <ele>505.7</ele>
        <time>2021-03-21T09:44:38Z</time>
      </trkpt>
      <trkpt lat="42.92536" lon="2.49255">
        <ele>505.4</ele>
        <time>2021-03-21T09:44:40Z</time>
      </trkpt>
      <trkpt lat="42.92551" lon="2.49255">
        <ele>505.2</ele>
        <time>2021-03-21T09:44:42Z</time>
      </trkpt>
      <trkpt lat="42.92558" lon="2.49256">
        <ele>505.1</ele>
        <time>2021-03-21T09:44:43Z</time>
      </trkpt>
      <trkpt lat="42.92573" lon="2.49257">
        <ele>504.8</ele>
        <time>2021-03-21T09:44:45Z</time>
      </trkpt>
      <trkpt lat="42.92581" lon="2.49257">
        <ele>504.6</ele>
        <time>2021-03-21T09:44:46Z</time>
      </trkpt>
      <trkpt lat="42.92588" lon="2.49257">
        <ele>504.4</ele>
        <time>2021-03-21T09:44:47Z</time>
      </trkpt>
      <trkpt lat="42.92596" lon="2.49257">
        <ele>504.3</ele>
        <time>2021-03-21T09:44:48Z</time>
      </trkpt>
      <trkpt lat="42.9261" lon="2.49259">
        <ele>504</ele>
        <time>2021-03-21T09:44:50Z</time>
      </trkpt>
      <trkpt lat="42.92624" lon="2.49264">
        <ele>503.8</ele>
        <time>2021-03-21T09:44:52Z</time>
      </trkpt>
      <trkpt lat="42.92631" lon="2.49266">
        <ele>503.8</ele>
        <time>2021-03-21T09:44:53Z</time>
      </trkpt>
      <trkpt lat="42.92638" lon="2.49268">
        <ele>503.8</ele>
        <time>2021-03-21T09:44:54Z</time>
      </trkpt>
      <trkpt lat="42.92645" lon="2.49271">
        <ele>503.8</ele>
        <time>2021-03-21T09:44:55Z</time>
      </trkpt>
      <trkpt lat="42.92658" lon="2.49278">
        <ele>504</ele>
        <time>2021-03-21T09:44:57Z</time>
      </trkpt>
      <trkpt lat="42.92665" lon="2.49282">
        <ele>504</ele>
        <time>2021-03-21T09:44:58Z</time>
      </trkpt>
      <trkpt lat="42.92675" lon="2.49291">
        <ele>504.1</ele>
        <time>2021-03-21T09:45:00Z</time>
      </trkpt>
      <trkpt lat="42.9268" lon="2.49295">
        <ele>504.1</ele>
        <time>2021-03-21T09:45:01Z</time>
      </trkpt>
      <trkpt lat="42.92684" lon="2.49299">
        <ele>504.1</ele>
        <time>2021-03-21T09:45:02Z</time>
      </trkpt>
      <trkpt lat="42.92693" lon="2.49308">
        <ele>504.2</ele>
        <time>2021-03-21T09:45:04Z</time>
      </trkpt>
      <trkpt lat="42.92697" lon="2.49313">
        <ele>504.2</ele>
        <time>2021-03-21T09:45:05Z</time>
      </trkpt>
      <trkpt lat="42.92706" lon="2.49323">
        <ele>504.2</ele>
        <time>2021-03-21T09:45:07Z</time>
      </trkpt>
      <trkpt lat="42.92711" lon="2.49327">
        <ele>504.3</ele>
        <time>2021-03-21T09:45:08Z</time>
      </trkpt>
      <trkpt lat="42.92716" lon="2.49332">
        <ele>504.5</ele>
        <time>2021-03-21T09:45:09Z</time>
      </trkpt>
      <trkpt lat="42.92726" lon="2.49342">
        <ele>504.9</ele>
        <time>2021-03-21T09:45:11Z</time>
      </trkpt>
      <trkpt lat="42.92731" lon="2.49347">
        <ele>505.2</ele>
        <time>2021-03-21T09:45:12Z</time>
      </trkpt>
      <trkpt lat="42.92735" lon="2.49353">
        <ele>505.4</ele>
        <time>2021-03-21T09:45:13Z</time>
      </trkpt>
      <trkpt lat="42.92744" lon="2.49362">
        <ele>505.9</ele>
        <time>2021-03-21T09:45:15Z</time>
      </trkpt>
      <trkpt lat="42.92752" lon="2.4937">
        <ele>506.4</ele>
        <time>2021-03-21T09:45:17Z</time>
      </trkpt>
      <trkpt lat="42.92759" lon="2.49378">
        <ele>507</ele>
        <time>2021-03-21T09:45:19Z</time>
      </trkpt>
      <trkpt lat="42.92765" lon="2.49388">
        <ele>507.6</ele>
        <time>2021-03-21T09:45:21Z</time>
      </trkpt>
      <trkpt lat="42.92768" lon="2.49393">
        <ele>507.9</ele>
        <time>2021-03-21T09:45:22Z</time>
      </trkpt>
      <trkpt lat="42.9277" lon="2.494">
        <ele>508.2</ele>
        <time>2021-03-21T09:45:23Z</time>
      </trkpt>
      <trkpt lat="42.92774" lon="2.49413">
        <ele>509</ele>
        <time>2021-03-21T09:45:25Z</time>
      </trkpt>
      <trkpt lat="42.92777" lon="2.49426">
        <ele>509.8</ele>
        <time>2021-03-21T09:45:27Z</time>
      </trkpt>
      <trkpt lat="42.92778" lon="2.49432">
        <ele>510.2</ele>
        <time>2021-03-21T09:45:28Z</time>
      </trkpt>
      <trkpt lat="42.9278" lon="2.49438">
        <ele>510.7</ele>
        <time>2021-03-21T09:45:29Z</time>
      </trkpt>
      <trkpt lat="42.92783" lon="2.49443">
        <ele>511.1</ele>
        <time>2021-03-21T09:45:30Z</time>
      </trkpt>
      <trkpt lat="42.92788" lon="2.49454">
        <ele>511.8</ele>
        <time>2021-03-21T09:45:32Z</time>
      </trkpt>
      <trkpt lat="42.92791" lon="2.49458">
        <ele>512.2</ele>
        <time>2021-03-21T09:45:33Z</time>
      </trkpt>
      <trkpt lat="42.92798" lon="2.49467">
        <ele>512.9</ele>
        <time>2021-03-21T09:45:35Z</time>
      </trkpt>
      <trkpt lat="42.92802" lon="2.4947">
        <ele>513.2</ele>
        <time>2021-03-21T09:45:36Z</time>
      </trkpt>
      <trkpt lat="42.92805" lon="2.49471">
        <ele>513.5</ele>
        <time>2021-03-21T09:45:37Z</time>
      </trkpt>
      <trkpt lat="42.92813" lon="2.49475">
        <ele>514</ele>
        <time>2021-03-21T09:45:39Z</time>
      </trkpt>
      <trkpt lat="42.92817" lon="2.49476">
        <ele>514.2</ele>
        <time>2021-03-21T09:45:40Z</time>
      </trkpt>
      <trkpt lat="42.92821" lon="2.49478">
        <ele>514.5</ele>
        <time>2021-03-21T09:45:41Z</time>
      </trkpt>
      <trkpt lat="42.9283" lon="2.49481">
        <ele>515.1</ele>
        <time>2021-03-21T09:45:43Z</time>
      </trkpt>
      <trkpt lat="42.92828" lon="2.49481">
        <ele>515.3</ele>
        <time>2021-03-21T09:45:44Z</time>
      </trkpt>
      <trkpt lat="42.92833" lon="2.49483">
        <ele>515.6</ele>
        <time>2021-03-21T09:45:46Z</time>
      </trkpt>
      <trkpt lat="42.9284" lon="2.49487">
        <ele>516.1</ele>
        <time>2021-03-21T09:45:48Z</time>
      </trkpt>
      <trkpt lat="42.92846" lon="2.4949">
        <ele>516.6</ele>
        <time>2021-03-21T09:45:49Z</time>
      </trkpt>
      <trkpt lat="42.92851" lon="2.49493">
        <ele>517</ele>
        <time>2021-03-21T09:45:50Z</time>
      </trkpt>
      <trkpt lat="42.92858" lon="2.49496">
        <ele>517.7</ele>
        <time>2021-03-21T09:45:52Z</time>
      </trkpt>
      <trkpt lat="42.92865" lon="2.49498">
        <ele>518.3</ele>
        <time>2021-03-21T09:45:53Z</time>
      </trkpt>
      <trkpt lat="42.9287" lon="2.49499">
        <ele>518.8</ele>
        <time>2021-03-21T09:45:54Z</time>
      </trkpt>
      <trkpt lat="42.92875" lon="2.49494">
        <ele>519.3</ele>
        <time>2021-03-21T09:45:56Z</time>
      </trkpt>
      <trkpt lat="42.9288" lon="2.49492">
        <ele>519.8</ele>
        <time>2021-03-21T09:45:57Z</time>
      </trkpt>
      <trkpt lat="42.92886" lon="2.49492">
        <ele>520.3</ele>
        <time>2021-03-21T09:45:58Z</time>
      </trkpt>
      <trkpt lat="42.92891" lon="2.49494">
        <ele>520.7</ele>
        <time>2021-03-21T09:45:59Z</time>
      </trkpt>
      <trkpt lat="42.92896" lon="2.49498">
        <ele>521.3</ele>
        <time>2021-03-21T09:46:01Z</time>
      </trkpt>
      <trkpt lat="42.92901" lon="2.495">
        <ele>521.8</ele>
        <time>2021-03-21T09:46:03Z</time>
      </trkpt>
      <trkpt lat="42.92903" lon="2.495">
        <ele>522</ele>
        <time>2021-03-21T09:46:04Z</time>
      </trkpt>
      <trkpt lat="42.92905" lon="2.49501">
        <ele>522.2</ele>
        <time>2021-03-21T09:46:05Z</time>
      </trkpt>
      <trkpt lat="42.92906" lon="2.49501">
        <ele>522.2</ele>
        <time>2021-03-21T09:46:06Z</time>
      </trkpt>
      <trkpt lat="42.92908" lon="2.49502">
        <ele>522.5</ele>
        <time>2021-03-21T09:46:08Z</time>
      </trkpt>
      <trkpt lat="42.92911" lon="2.49503">
        <ele>522.7</ele>
        <time>2021-03-21T09:46:09Z</time>
      </trkpt>
      <trkpt lat="42.92916" lon="2.49504">
        <ele>523.2</ele>
        <time>2021-03-21T09:46:10Z</time>
      </trkpt>
      <trkpt lat="42.9292" lon="2.49505">
        <ele>523.5</ele>
        <time>2021-03-21T09:46:12Z</time>
      </trkpt>
      <trkpt lat="42.92926" lon="2.49503">
        <ele>524</ele>
        <time>2021-03-21T09:46:14Z</time>
      </trkpt>
      <trkpt lat="42.92929" lon="2.49502">
        <ele>524.2</ele>
        <time>2021-03-21T09:46:15Z</time>
      </trkpt>
      <trkpt lat="42.92932" lon="2.49499">
        <ele>524.5</ele>
        <time>2021-03-21T09:46:17Z</time>
      </trkpt>
      <trkpt lat="42.92935" lon="2.49497">
        <ele>524.8</ele>
        <time>2021-03-21T09:46:18Z</time>
      </trkpt>
      <trkpt lat="42.92944" lon="2.49495">
        <ele>525.2</ele>
        <time>2021-03-21T09:46:19Z</time>
      </trkpt>
      <trkpt lat="42.92952" lon="2.49487">
        <ele>525.5</ele>
        <time>2021-03-21T09:46:21Z</time>
      </trkpt>
      <trkpt lat="42.92955" lon="2.49482">
        <ele>525.7</ele>
        <time>2021-03-21T09:46:22Z</time>
      </trkpt>
      <trkpt lat="42.9296" lon="2.49477">
        <ele>525.9</ele>
        <time>2021-03-21T09:46:24Z</time>
      </trkpt>
      <trkpt lat="42.92963" lon="2.49469">
        <ele>526.1</ele>
        <time>2021-03-21T09:46:25Z</time>
      </trkpt>
      <trkpt lat="42.92966" lon="2.49464">
        <ele>526.3</ele>
        <time>2021-03-21T09:46:26Z</time>
      </trkpt>
      <trkpt lat="42.92967" lon="2.49459">
        <ele>526.5</ele>
        <time>2021-03-21T09:46:28Z</time>
      </trkpt>
      <trkpt lat="42.9297" lon="2.49452">
        <ele>526.8</ele>
        <time>2021-03-21T09:46:29Z</time>
      </trkpt>
      <trkpt lat="42.92973" lon="2.49443">
        <ele>527.3</ele>
        <time>2021-03-21T09:46:31Z</time>
      </trkpt>
      <trkpt lat="42.92975" lon="2.49436">
        <ele>527.6</ele>
        <time>2021-03-21T09:46:32Z</time>
      </trkpt>
      <trkpt lat="42.92978" lon="2.49429">
        <ele>528</ele>
        <time>2021-03-21T09:46:34Z</time>
      </trkpt>
      <trkpt lat="42.92981" lon="2.49423">
        <ele>528.3</ele>
        <time>2021-03-21T09:46:35Z</time>
      </trkpt>
      <trkpt lat="42.92982" lon="2.49419">
        <ele>528.5</ele>
        <time>2021-03-21T09:46:36Z</time>
      </trkpt>
      <trkpt lat="42.92985" lon="2.49413">
        <ele>528.9</ele>
        <time>2021-03-21T09:46:38Z</time>
      </trkpt>
      <trkpt lat="42.92988" lon="2.49408">
        <ele>529.1</ele>
        <time>2021-03-21T09:46:39Z</time>
      </trkpt>
      <trkpt lat="42.92992" lon="2.49399">
        <ele>529.6</ele>
        <time>2021-03-21T09:46:41Z</time>
      </trkpt>
      <trkpt lat="42.92995" lon="2.49395">
        <ele>529.9</ele>
        <time>2021-03-21T09:46:42Z</time>
      </trkpt>
      <trkpt lat="42.92999" lon="2.49388">
        <ele>530.3</ele>
        <time>2021-03-21T09:46:44Z</time>
      </trkpt>
      <trkpt lat="42.93003" lon="2.49382">
        <ele>530.7</ele>
        <time>2021-03-21T09:46:45Z</time>
      </trkpt>
      <trkpt lat="42.93005" lon="2.49379">
        <ele>530.9</ele>
        <time>2021-03-21T09:46:46Z</time>
      </trkpt>
      <trkpt lat="42.93009" lon="2.49375">
        <ele>531.3</ele>
        <time>2021-03-21T09:46:48Z</time>
      </trkpt>
      <trkpt lat="42.93013" lon="2.49369">
        <ele>531.7</ele>
        <time>2021-03-21T09:46:49Z</time>
      </trkpt>
      <trkpt lat="42.93017" lon="2.49363">
        <ele>532.2</ele>
        <time>2021-03-21T09:46:51Z</time>
      </trkpt>
      <trkpt lat="42.9302" lon="2.49359">
        <ele>532.5</ele>
        <time>2021-03-21T09:46:52Z</time>
      </trkpt>
      <trkpt lat="42.93023" lon="2.49354">
        <ele>532.9</ele>
        <time>2021-03-21T09:46:53Z</time>
      </trkpt>
      <trkpt lat="42.93029" lon="2.49344">
        <ele>533.7</ele>
        <time>2021-03-21T09:46:55Z</time>
      </trkpt>
      <trkpt lat="42.93031" lon="2.4934">
        <ele>534.1</ele>
        <time>2021-03-21T09:46:56Z</time>
      </trkpt>
      <trkpt lat="42.93032" lon="2.49335">
        <ele>534.4</ele>
        <time>2021-03-21T09:46:57Z</time>
      </trkpt>
      <trkpt lat="42.93034" lon="2.4933">
        <ele>534.8</ele>
        <time>2021-03-21T09:46:59Z</time>
      </trkpt>
      <trkpt lat="42.93037" lon="2.49321">
        <ele>535.5</ele>
        <time>2021-03-21T09:47:00Z</time>
      </trkpt>
      <trkpt lat="42.93038" lon="2.49315">
        <ele>535.9</ele>
        <time>2021-03-21T09:47:02Z</time>
      </trkpt>
      <trkpt lat="42.9304" lon="2.4931">
        <ele>536.4</ele>
        <time>2021-03-21T09:47:03Z</time>
      </trkpt>
      <trkpt lat="42.93046" lon="2.493">
        <ele>537.2</ele>
        <time>2021-03-21T09:47:05Z</time>
      </trkpt>
      <trkpt lat="42.93048" lon="2.49297">
        <ele>537.5</ele>
        <time>2021-03-21T09:47:06Z</time>
      </trkpt>
      <trkpt lat="42.9305" lon="2.49294">
        <ele>537.8</ele>
        <time>2021-03-21T09:47:07Z</time>
      </trkpt>
      <trkpt lat="42.93053" lon="2.49289">
        <ele>538.2</ele>
        <time>2021-03-21T09:47:09Z</time>
      </trkpt>
      <trkpt lat="42.93058" lon="2.49283">
        <ele>538.7</ele>
        <time>2021-03-21T09:47:11Z</time>
      </trkpt>
      <trkpt lat="42.93061" lon="2.4928">
        <ele>539.1</ele>
        <time>2021-03-21T09:47:12Z</time>
      </trkpt>
      <trkpt lat="42.93064" lon="2.49276">
        <ele>539.4</ele>
        <time>2021-03-21T09:47:13Z</time>
      </trkpt>
      <trkpt lat="42.93068" lon="2.49272">
        <ele>539.8</ele>
        <time>2021-03-21T09:47:14Z</time>
      </trkpt>
      <trkpt lat="42.93072" lon="2.49266">
        <ele>540.4</ele>
        <time>2021-03-21T09:47:16Z</time>
      </trkpt>
      <trkpt lat="42.93076" lon="2.49261">
        <ele>540.8</ele>
        <time>2021-03-21T09:47:17Z</time>
      </trkpt>
      <trkpt lat="42.93078" lon="2.49257">
        <ele>541.1</ele>
        <time>2021-03-21T09:47:18Z</time>
      </trkpt>
      <trkpt lat="42.93082" lon="2.49253">
        <ele>541.5</ele>
        <time>2021-03-21T09:47:20Z</time>
      </trkpt>
      <trkpt lat="42.93087" lon="2.49247">
        <ele>542.1</ele>
        <time>2021-03-21T09:47:21Z</time>
      </trkpt>
      <trkpt lat="42.9309" lon="2.49244">
        <ele>542.5</ele>
        <time>2021-03-21T09:47:22Z</time>
      </trkpt>
      <trkpt lat="42.93096" lon="2.4924">
        <ele>543</ele>
        <time>2021-03-21T09:47:24Z</time>
      </trkpt>
      <trkpt lat="42.93101" lon="2.49237">
        <ele>543.4</ele>
        <time>2021-03-21T09:47:25Z</time>
      </trkpt>
      <trkpt lat="42.93107" lon="2.49235">
        <ele>544</ele>
        <time>2021-03-21T09:47:27Z</time>
      </trkpt>
      <trkpt lat="42.93113" lon="2.49235">
        <ele>544.3</ele>
        <time>2021-03-21T09:47:28Z</time>
      </trkpt>
      <trkpt lat="42.93119" lon="2.49236">
        <ele>544.5</ele>
        <time>2021-03-21T09:47:30Z</time>
      </trkpt>
      <trkpt lat="42.93123" lon="2.49237">
        <ele>544.6</ele>
        <time>2021-03-21T09:47:31Z</time>
      </trkpt>
      <trkpt lat="42.93127" lon="2.49238">
        <ele>544.8</ele>
        <time>2021-03-21T09:47:32Z</time>
      </trkpt>
      <trkpt lat="42.93131" lon="2.49239">
        <ele>544.9</ele>
        <time>2021-03-21T09:47:33Z</time>
      </trkpt>
      <trkpt lat="42.93138" lon="2.49243">
        <ele>545.2</ele>
        <time>2021-03-21T09:47:35Z</time>
      </trkpt>
      <trkpt lat="42.93144" lon="2.49246">
        <ele>545.6</ele>
        <time>2021-03-21T09:47:37Z</time>
      </trkpt>
      <trkpt lat="42.93149" lon="2.49249">
        <ele>545.9</ele>
        <time>2021-03-21T09:47:39Z</time>
      </trkpt>
      <trkpt lat="42.93154" lon="2.49252">
        <ele>546.1</ele>
        <time>2021-03-21T09:47:40Z</time>
      </trkpt>
      <trkpt lat="42.93159" lon="2.49253">
        <ele>546.4</ele>
        <time>2021-03-21T09:47:42Z</time>
      </trkpt>
      <trkpt lat="42.93163" lon="2.49253">
        <ele>546.5</ele>
        <time>2021-03-21T09:47:43Z</time>
      </trkpt>
      <trkpt lat="42.93167" lon="2.49252">
        <ele>546.6</ele>
        <time>2021-03-21T09:47:44Z</time>
      </trkpt>
      <trkpt lat="42.9317" lon="2.49249">
        <ele>546.7</ele>
        <time>2021-03-21T09:47:45Z</time>
      </trkpt>
      <trkpt lat="42.93173" lon="2.49244">
        <ele>546.7</ele>
        <time>2021-03-21T09:47:47Z</time>
      </trkpt>
      <trkpt lat="42.93176" lon="2.4924">
        <ele>546.6</ele>
        <time>2021-03-21T09:47:48Z</time>
      </trkpt>
      <trkpt lat="42.93179" lon="2.49235">
        <ele>546.5</ele>
        <time>2021-03-21T09:47:50Z</time>
      </trkpt>
      <trkpt lat="42.93182" lon="2.49231">
        <ele>546.4</ele>
        <time>2021-03-21T09:47:51Z</time>
      </trkpt>
      <trkpt lat="42.93186" lon="2.49225">
        <ele>546.1</ele>
        <time>2021-03-21T09:47:52Z</time>
      </trkpt>
      <trkpt lat="42.93194" lon="2.49214">
        <ele>545.5</ele>
        <time>2021-03-21T09:47:54Z</time>
      </trkpt>
      <trkpt lat="42.93197" lon="2.49208">
        <ele>545.1</ele>
        <time>2021-03-21T09:47:55Z</time>
      </trkpt>
      <trkpt lat="42.93203" lon="2.49193">
        <ele>544.2</ele>
        <time>2021-03-21T09:47:57Z</time>
      </trkpt>
      <trkpt lat="42.93206" lon="2.49186">
        <ele>543.7</ele>
        <time>2021-03-21T09:47:58Z</time>
      </trkpt>
      <trkpt lat="42.93209" lon="2.49178">
        <ele>543.2</ele>
        <time>2021-03-21T09:47:59Z</time>
      </trkpt>
      <trkpt lat="42.93216" lon="2.49161">
        <ele>542.1</ele>
        <time>2021-03-21T09:48:01Z</time>
      </trkpt>
      <trkpt lat="42.93222" lon="2.49144">
        <ele>541.1</ele>
        <time>2021-03-21T09:48:03Z</time>
      </trkpt>
      <trkpt lat="42.93225" lon="2.49135">
        <ele>540.5</ele>
        <time>2021-03-21T09:48:04Z</time>
      </trkpt>
      <trkpt lat="42.93228" lon="2.49126">
        <ele>540</ele>
        <time>2021-03-21T09:48:05Z</time>
      </trkpt>
      <trkpt lat="42.93231" lon="2.49118">
        <ele>539.5</ele>
        <time>2021-03-21T09:48:06Z</time>
      </trkpt>
      <trkpt lat="42.93234" lon="2.49109">
        <ele>539</ele>
        <time>2021-03-21T09:48:07Z</time>
      </trkpt>
      <trkpt lat="42.93238" lon="2.49101">
        <ele>538.5</ele>
        <time>2021-03-21T09:48:08Z</time>
      </trkpt>
      <trkpt lat="42.93246" lon="2.49086">
        <ele>537.7</ele>
        <time>2021-03-21T09:48:10Z</time>
      </trkpt>
      <trkpt lat="42.93251" lon="2.4908">
        <ele>537.3</ele>
        <time>2021-03-21T09:48:11Z</time>
      </trkpt>
      <trkpt lat="42.93263" lon="2.49068">
        <ele>536.5</ele>
        <time>2021-03-21T09:48:13Z</time>
      </trkpt>
      <trkpt lat="42.93267" lon="2.49062">
        <ele>536.1</ele>
        <time>2021-03-21T09:48:14Z</time>
      </trkpt>
      <trkpt lat="42.93269" lon="2.49047">
        <ele>535.2</ele>
        <time>2021-03-21T09:48:16Z</time>
      </trkpt>
      <trkpt lat="42.93265" lon="2.49039">
        <ele>534.7</ele>
        <time>2021-03-21T09:48:17Z</time>
      </trkpt>
      <trkpt lat="42.9326" lon="2.49034">
        <ele>534.2</ele>
        <time>2021-03-21T09:48:18Z</time>
      </trkpt>
      <trkpt lat="42.93244" lon="2.49028">
        <ele>533</ele>
        <time>2021-03-21T09:48:20Z</time>
      </trkpt>
      <trkpt lat="42.93228" lon="2.49024">
        <ele>531.9</ele>
        <time>2021-03-21T09:48:22Z</time>
      </trkpt>
      <trkpt lat="42.93212" lon="2.49017">
        <ele>530.7</ele>
        <time>2021-03-21T09:48:24Z</time>
      </trkpt>
      <trkpt lat="42.93204" lon="2.49012">
        <ele>530.1</ele>
        <time>2021-03-21T09:48:25Z</time>
      </trkpt>
      <trkpt lat="42.93196" lon="2.49007">
        <ele>529.5</ele>
        <time>2021-03-21T09:48:26Z</time>
      </trkpt>
      <trkpt lat="42.93188" lon="2.49002">
        <ele>528.9</ele>
        <time>2021-03-21T09:48:27Z</time>
      </trkpt>
      <trkpt lat="42.93171" lon="2.48995">
        <ele>527.7</ele>
        <time>2021-03-21T09:48:29Z</time>
      </trkpt>
      <trkpt lat="42.93154" lon="2.4899">
        <ele>526.7</ele>
        <time>2021-03-21T09:48:31Z</time>
      </trkpt>
      <trkpt lat="42.93145" lon="2.48989">
        <ele>526.1</ele>
        <time>2021-03-21T09:48:32Z</time>
      </trkpt>
      <trkpt lat="42.93128" lon="2.48984">
        <ele>525.1</ele>
        <time>2021-03-21T09:48:34Z</time>
      </trkpt>
      <trkpt lat="42.93119" lon="2.48982">
        <ele>524.6</ele>
        <time>2021-03-21T09:48:35Z</time>
      </trkpt>
      <trkpt lat="42.93101" lon="2.48977">
        <ele>523.7</ele>
        <time>2021-03-21T09:48:37Z</time>
      </trkpt>
      <trkpt lat="42.93092" lon="2.48975">
        <ele>523.2</ele>
        <time>2021-03-21T09:48:38Z</time>
      </trkpt>
      <trkpt lat="42.93076" lon="2.48974">
        <ele>522.3</ele>
        <time>2021-03-21T09:48:40Z</time>
      </trkpt>
      <trkpt lat="42.9306" lon="2.48982">
        <ele>521.4</ele>
        <time>2021-03-21T09:48:42Z</time>
      </trkpt>
      <trkpt lat="42.93045" lon="2.48995">
        <ele>520.5</ele>
        <time>2021-03-21T09:48:44Z</time>
      </trkpt>
      <trkpt lat="42.93028" lon="2.49006">
        <ele>519.6</ele>
        <time>2021-03-21T09:48:46Z</time>
      </trkpt>
      <trkpt lat="42.93009" lon="2.49006">
        <ele>518.6</ele>
        <time>2021-03-21T09:48:48Z</time>
      </trkpt>
      <trkpt lat="42.9299" lon="2.48994">
        <ele>517.5</ele>
        <time>2021-03-21T09:48:50Z</time>
      </trkpt>
      <trkpt lat="42.92981" lon="2.48987">
        <ele>516.9</ele>
        <time>2021-03-21T09:48:51Z</time>
      </trkpt>
      <trkpt lat="42.92962" lon="2.48973">
        <ele>515.8</ele>
        <time>2021-03-21T09:48:53Z</time>
      </trkpt>
      <trkpt lat="42.92953" lon="2.48966">
        <ele>515.2</ele>
        <time>2021-03-21T09:48:54Z</time>
      </trkpt>
      <trkpt lat="42.92935" lon="2.48953">
        <ele>514.3</ele>
        <time>2021-03-21T09:48:56Z</time>
      </trkpt>
      <trkpt lat="42.92927" lon="2.48946">
        <ele>513.8</ele>
        <time>2021-03-21T09:48:57Z</time>
      </trkpt>
      <trkpt lat="42.92911" lon="2.48932">
        <ele>513</ele>
        <time>2021-03-21T09:48:59Z</time>
      </trkpt>
      <trkpt lat="42.92903" lon="2.48925">
        <ele>512.6</ele>
        <time>2021-03-21T09:49:00Z</time>
      </trkpt>
      <trkpt lat="42.92895" lon="2.48918">
        <ele>512.2</ele>
        <time>2021-03-21T09:49:01Z</time>
      </trkpt>
      <trkpt lat="42.92881" lon="2.48903">
        <ele>511.3</ele>
        <time>2021-03-21T09:49:03Z</time>
      </trkpt>
      <trkpt lat="42.92875" lon="2.48895">
        <ele>510.8</ele>
        <time>2021-03-21T09:49:04Z</time>
      </trkpt>
      <trkpt lat="42.92868" lon="2.48887">
        <ele>510.3</ele>
        <time>2021-03-21T09:49:05Z</time>
      </trkpt>
      <trkpt lat="42.92861" lon="2.48878">
        <ele>509.8</ele>
        <time>2021-03-21T09:49:06Z</time>
      </trkpt>
      <trkpt lat="42.92855" lon="2.48869">
        <ele>509.4</ele>
        <time>2021-03-21T09:49:07Z</time>
      </trkpt>
      <trkpt lat="42.92841" lon="2.48852">
        <ele>508.6</ele>
        <time>2021-03-21T09:49:09Z</time>
      </trkpt>
      <trkpt lat="42.92835" lon="2.48844">
        <ele>508.1</ele>
        <time>2021-03-21T09:49:10Z</time>
      </trkpt>
      <trkpt lat="42.92828" lon="2.48835">
        <ele>507.7</ele>
        <time>2021-03-21T09:49:11Z</time>
      </trkpt>
      <trkpt lat="42.92821" lon="2.48826">
        <ele>507.2</ele>
        <time>2021-03-21T09:49:12Z</time>
      </trkpt>
      <trkpt lat="42.92814" lon="2.48817">
        <ele>506.7</ele>
        <time>2021-03-21T09:49:13Z</time>
      </trkpt>
      <trkpt lat="42.92801" lon="2.48799">
        <ele>505.8</ele>
        <time>2021-03-21T09:49:15Z</time>
      </trkpt>
      <trkpt lat="42.92788" lon="2.48781">
        <ele>504.8</ele>
        <time>2021-03-21T09:49:17Z</time>
      </trkpt>
      <trkpt lat="42.92781" lon="2.48772">
        <ele>504.3</ele>
        <time>2021-03-21T09:49:18Z</time>
      </trkpt>
      <trkpt lat="42.92767" lon="2.48756">
        <ele>503.4</ele>
        <time>2021-03-21T09:49:20Z</time>
      </trkpt>
      <trkpt lat="42.92753" lon="2.48743">
        <ele>502.7</ele>
        <time>2021-03-21T09:49:22Z</time>
      </trkpt>
      <trkpt lat="42.92739" lon="2.48732">
        <ele>502</ele>
        <time>2021-03-21T09:49:24Z</time>
      </trkpt>
      <trkpt lat="42.92727" lon="2.48721">
        <ele>501.4</ele>
        <time>2021-03-21T09:49:26Z</time>
      </trkpt>
      <trkpt lat="42.92721" lon="2.48714">
        <ele>501</ele>
        <time>2021-03-21T09:49:27Z</time>
      </trkpt>
      <trkpt lat="42.92713" lon="2.48696">
        <ele>500.3</ele>
        <time>2021-03-21T09:49:29Z</time>
      </trkpt>
      <trkpt lat="42.9271" lon="2.48686">
        <ele>499.9</ele>
        <time>2021-03-21T09:49:30Z</time>
      </trkpt>
      <trkpt lat="42.92704" lon="2.48665">
        <ele>499.2</ele>
        <time>2021-03-21T09:49:32Z</time>
      </trkpt>
      <trkpt lat="42.92702" lon="2.48654">
        <ele>498.8</ele>
        <time>2021-03-21T09:49:33Z</time>
      </trkpt>
      <trkpt lat="42.92697" lon="2.48631">
        <ele>498</ele>
        <time>2021-03-21T09:49:35Z</time>
      </trkpt>
      <trkpt lat="42.92694" lon="2.4862">
        <ele>497.6</ele>
        <time>2021-03-21T09:49:36Z</time>
      </trkpt>
      <trkpt lat="42.92689" lon="2.48595">
        <ele>496.7</ele>
        <time>2021-03-21T09:49:38Z</time>
      </trkpt>
      <trkpt lat="42.92685" lon="2.48583">
        <ele>496.3</ele>
        <time>2021-03-21T09:49:39Z</time>
      </trkpt>
      <trkpt lat="42.9268" lon="2.48571">
        <ele>495.8</ele>
        <time>2021-03-21T09:49:40Z</time>
      </trkpt>
      <trkpt lat="42.92671" lon="2.48549">
        <ele>494.9</ele>
        <time>2021-03-21T09:49:42Z</time>
      </trkpt>
      <trkpt lat="42.92666" lon="2.48538">
        <ele>494.5</ele>
        <time>2021-03-21T09:49:43Z</time>
      </trkpt>
      <trkpt lat="42.92661" lon="2.48527">
        <ele>494.1</ele>
        <time>2021-03-21T09:49:44Z</time>
      </trkpt>
      <trkpt lat="42.92651" lon="2.48505">
        <ele>493.2</ele>
        <time>2021-03-21T09:49:46Z</time>
      </trkpt>
      <trkpt lat="42.9264" lon="2.48485">
        <ele>492.2</ele>
        <time>2021-03-21T09:49:48Z</time>
      </trkpt>
      <trkpt lat="42.92633" lon="2.48476">
        <ele>491.7</ele>
        <time>2021-03-21T09:49:49Z</time>
      </trkpt>
      <trkpt lat="42.92626" lon="2.48468">
        <ele>491.3</ele>
        <time>2021-03-21T09:49:50Z</time>
      </trkpt>
      <trkpt lat="42.92618" lon="2.48461">
        <ele>490.8</ele>
        <time>2021-03-21T09:49:51Z</time>
      </trkpt>
      <trkpt lat="42.92603" lon="2.48445">
        <ele>489.9</ele>
        <time>2021-03-21T09:49:53Z</time>
      </trkpt>
      <trkpt lat="42.92591" lon="2.48424">
        <ele>489.1</ele>
        <time>2021-03-21T09:49:55Z</time>
      </trkpt>
      <trkpt lat="42.92588" lon="2.4841">
        <ele>488.6</ele>
        <time>2021-03-21T09:49:56Z</time>
      </trkpt>
      <trkpt lat="42.92589" lon="2.48381">
        <ele>487.7</ele>
        <time>2021-03-21T09:49:58Z</time>
      </trkpt>
      <trkpt lat="42.92592" lon="2.48356">
        <ele>486.9</ele>
        <time>2021-03-21T09:50:00Z</time>
      </trkpt>
      <trkpt lat="42.92591" lon="2.48346">
        <ele>486.5</ele>
        <time>2021-03-21T09:50:01Z</time>
      </trkpt>
      <trkpt lat="42.92586" lon="2.48337">
        <ele>486</ele>
        <time>2021-03-21T09:50:02Z</time>
      </trkpt>
      <trkpt lat="42.92579" lon="2.4833">
        <ele>485.5</ele>
        <time>2021-03-21T09:50:03Z</time>
      </trkpt>
      <trkpt lat="42.92561" lon="2.48322">
        <ele>484.5</ele>
        <time>2021-03-21T09:50:05Z</time>
      </trkpt>
      <trkpt lat="42.92552" lon="2.48319">
        <ele>484</ele>
        <time>2021-03-21T09:50:06Z</time>
      </trkpt>
      <trkpt lat="42.92539" lon="2.48306">
        <ele>483.1</ele>
        <time>2021-03-21T09:50:08Z</time>
      </trkpt>
      <trkpt lat="42.92536" lon="2.48295">
        <ele>482.5</ele>
        <time>2021-03-21T09:50:09Z</time>
      </trkpt>
      <trkpt lat="42.92536" lon="2.4827">
        <ele>481.3</ele>
        <time>2021-03-21T09:50:11Z</time>
      </trkpt>
      <trkpt lat="42.92538" lon="2.48257">
        <ele>480.7</ele>
        <time>2021-03-21T09:50:12Z</time>
      </trkpt>
      <trkpt lat="42.92542" lon="2.48243">
        <ele>480.1</ele>
        <time>2021-03-21T09:50:13Z</time>
      </trkpt>
      <trkpt lat="42.92546" lon="2.4823">
        <ele>479.4</ele>
        <time>2021-03-21T09:50:14Z</time>
      </trkpt>
      <trkpt lat="42.9255" lon="2.48216">
        <ele>478.8</ele>
        <time>2021-03-21T09:50:15Z</time>
      </trkpt>
      <trkpt lat="42.92554" lon="2.48191">
        <ele>477.4</ele>
        <time>2021-03-21T09:50:17Z</time>
      </trkpt>
      <trkpt lat="42.92554" lon="2.48179">
        <ele>476.8</ele>
        <time>2021-03-21T09:50:18Z</time>
      </trkpt>
      <trkpt lat="42.92544" lon="2.48155">
        <ele>475.4</ele>
        <time>2021-03-21T09:50:20Z</time>
      </trkpt>
      <trkpt lat="42.92528" lon="2.48134">
        <ele>473.8</ele>
        <time>2021-03-21T09:50:22Z</time>
      </trkpt>
      <trkpt lat="42.92512" lon="2.48112">
        <ele>472.3</ele>
        <time>2021-03-21T09:50:24Z</time>
      </trkpt>
      <trkpt lat="42.92505" lon="2.481">
        <ele>471.6</ele>
        <time>2021-03-21T09:50:25Z</time>
      </trkpt>
      <trkpt lat="42.92492" lon="2.48074">
        <ele>470.5</ele>
        <time>2021-03-21T09:50:27Z</time>
      </trkpt>
      <trkpt lat="42.92486" lon="2.48062">
        <ele>470</ele>
        <time>2021-03-21T09:50:28Z</time>
      </trkpt>
      <trkpt lat="42.92471" lon="2.48045">
        <ele>469</ele>
        <time>2021-03-21T09:50:30Z</time>
      </trkpt>
      <trkpt lat="42.92455" lon="2.48035">
        <ele>468</ele>
        <time>2021-03-21T09:50:32Z</time>
      </trkpt>
      <trkpt lat="42.92448" lon="2.48027">
        <ele>467.5</ele>
        <time>2021-03-21T09:50:33Z</time>
      </trkpt>
      <trkpt lat="42.92445" lon="2.48016">
        <ele>466.9</ele>
        <time>2021-03-21T09:50:34Z</time>
      </trkpt>
      <trkpt lat="42.92442" lon="2.48004">
        <ele>466.2</ele>
        <time>2021-03-21T09:50:35Z</time>
      </trkpt>
      <trkpt lat="42.92438" lon="2.47992">
        <ele>465.6</ele>
        <time>2021-03-21T09:50:36Z</time>
      </trkpt>
      <trkpt lat="42.92424" lon="2.47977">
        <ele>464.4</ele>
        <time>2021-03-21T09:50:38Z</time>
      </trkpt>
      <trkpt lat="42.92415" lon="2.47975">
        <ele>463.8</ele>
        <time>2021-03-21T09:50:39Z</time>
      </trkpt>
      <trkpt lat="42.92397" lon="2.47972">
        <ele>462.7</ele>
        <time>2021-03-21T09:50:41Z</time>
      </trkpt>
      <trkpt lat="42.92389" lon="2.47968">
        <ele>462.2</ele>
        <time>2021-03-21T09:50:42Z</time>
      </trkpt>
      <trkpt lat="42.92382" lon="2.47962">
        <ele>461.8</ele>
        <time>2021-03-21T09:50:43Z</time>
      </trkpt>
      <trkpt lat="42.92367" lon="2.47947">
        <ele>460.8</ele>
        <time>2021-03-21T09:50:45Z</time>
      </trkpt>
      <trkpt lat="42.92359" lon="2.47941">
        <ele>460.4</ele>
        <time>2021-03-21T09:50:46Z</time>
      </trkpt>
      <trkpt lat="42.9235" lon="2.47938">
        <ele>459.9</ele>
        <time>2021-03-21T09:50:47Z</time>
      </trkpt>
      <trkpt lat="42.92331" lon="2.47942">
        <ele>459.1</ele>
        <time>2021-03-21T09:50:49Z</time>
      </trkpt>
      <trkpt lat="42.92312" lon="2.47948">
        <ele>458</ele>
        <time>2021-03-21T09:50:51Z</time>
      </trkpt>
      <trkpt lat="42.923" lon="2.47935">
        <ele>457.1</ele>
        <time>2021-03-21T09:50:53Z</time>
      </trkpt>
      <trkpt lat="42.92295" lon="2.4791">
        <ele>455.7</ele>
        <time>2021-03-21T09:50:55Z</time>
      </trkpt>
      <trkpt lat="42.92291" lon="2.47897">
        <ele>454.9</ele>
        <time>2021-03-21T09:50:56Z</time>
      </trkpt>
      <trkpt lat="42.92277" lon="2.47875">
        <ele>453.5</ele>
        <time>2021-03-21T09:50:58Z</time>
      </trkpt>
      <trkpt lat="42.92267" lon="2.47868">
        <ele>452.9</ele>
        <time>2021-03-21T09:50:59Z</time>
      </trkpt>
      <trkpt lat="42.92247" lon="2.47856">
        <ele>451.7</ele>
        <time>2021-03-21T09:51:01Z</time>
      </trkpt>
      <trkpt lat="42.92236" lon="2.47851">
        <ele>451.1</ele>
        <time>2021-03-21T09:51:02Z</time>
      </trkpt>
      <trkpt lat="42.92215" lon="2.47843">
        <ele>449.7</ele>
        <time>2021-03-21T09:51:04Z</time>
      </trkpt>
      <trkpt lat="42.92205" lon="2.47838">
        <ele>449.1</ele>
        <time>2021-03-21T09:51:05Z</time>
      </trkpt>
      <trkpt lat="42.92195" lon="2.47834">
        <ele>448.5</ele>
        <time>2021-03-21T09:51:06Z</time>
      </trkpt>
      <trkpt lat="42.92175" lon="2.47821">
        <ele>447.2</ele>
        <time>2021-03-21T09:51:08Z</time>
      </trkpt>
      <trkpt lat="42.92165" lon="2.47814">
        <ele>446.7</ele>
        <time>2021-03-21T09:51:09Z</time>
      </trkpt>
      <trkpt lat="42.92156" lon="2.47807">
        <ele>446.2</ele>
        <time>2021-03-21T09:51:10Z</time>
      </trkpt>
      <trkpt lat="42.92147" lon="2.47803">
        <ele>445.7</ele>
        <time>2021-03-21T09:51:11Z</time>
      </trkpt>
      <trkpt lat="42.92138" lon="2.47801">
        <ele>445.2</ele>
        <time>2021-03-21T09:51:12Z</time>
      </trkpt>
      <trkpt lat="42.92118" lon="2.47805">
        <ele>444.1</ele>
        <time>2021-03-21T09:51:14Z</time>
      </trkpt>
      <trkpt lat="42.92101" lon="2.47812">
        <ele>443</ele>
        <time>2021-03-21T09:51:16Z</time>
      </trkpt>
      <trkpt lat="42.92093" lon="2.47811">
        <ele>442.5</ele>
        <time>2021-03-21T09:51:17Z</time>
      </trkpt>
      <trkpt lat="42.9208" lon="2.47797">
        <ele>441.6</ele>
        <time>2021-03-21T09:51:19Z</time>
      </trkpt>
      <trkpt lat="42.92077" lon="2.47778">
        <ele>440.8</ele>
        <time>2021-03-21T09:51:21Z</time>
      </trkpt>
      <trkpt lat="42.92082" lon="2.47769">
        <ele>440.3</ele>
        <time>2021-03-21T09:51:22Z</time>
      </trkpt>
      <trkpt lat="42.92099" lon="2.47757">
        <ele>439</ele>
        <time>2021-03-21T09:51:24Z</time>
      </trkpt>
      <trkpt lat="42.9211" lon="2.47754">
        <ele>438.2</ele>
        <time>2021-03-21T09:51:25Z</time>
      </trkpt>
      <trkpt lat="42.92131" lon="2.47755">
        <ele>437.1</ele>
        <time>2021-03-21T09:51:27Z</time>
      </trkpt>
      <trkpt lat="42.92141" lon="2.47756">
        <ele>436.7</ele>
        <time>2021-03-21T09:51:28Z</time>
      </trkpt>
      <trkpt lat="42.9216" lon="2.47757">
        <ele>435.9</ele>
        <time>2021-03-21T09:51:30Z</time>
      </trkpt>
      <trkpt lat="42.92169" lon="2.47758">
        <ele>435.4</ele>
        <time>2021-03-21T09:51:31Z</time>
      </trkpt>
      <trkpt lat="42.92178" lon="2.47759">
        <ele>435</ele>
        <time>2021-03-21T09:51:32Z</time>
      </trkpt>
      <trkpt lat="42.92195" lon="2.47763">
        <ele>434.3</ele>
        <time>2021-03-21T09:51:34Z</time>
      </trkpt>
      <trkpt lat="42.92203" lon="2.47767">
        <ele>434</ele>
        <time>2021-03-21T09:51:35Z</time>
      </trkpt>
      <trkpt lat="42.9222" lon="2.47774">
        <ele>433.3</ele>
        <time>2021-03-21T09:51:37Z</time>
      </trkpt>
      <trkpt lat="42.92238" lon="2.47779">
        <ele>432.7</ele>
        <time>2021-03-21T09:51:39Z</time>
      </trkpt>
      <trkpt lat="42.92246" lon="2.47781">
        <ele>432.4</ele>
        <time>2021-03-21T09:51:40Z</time>
      </trkpt>
      <trkpt lat="42.92264" lon="2.47782">
        <ele>431.7</ele>
        <time>2021-03-21T09:51:42Z</time>
      </trkpt>
      <trkpt lat="42.92273" lon="2.47782">
        <ele>431.3</ele>
        <time>2021-03-21T09:51:43Z</time>
      </trkpt>
      <trkpt lat="42.92282" lon="2.47782">
        <ele>430.9</ele>
        <time>2021-03-21T09:51:44Z</time>
      </trkpt>
      <trkpt lat="42.92291" lon="2.47783">
        <ele>430.5</ele>
        <time>2021-03-21T09:51:45Z</time>
      </trkpt>
      <trkpt lat="42.92309" lon="2.47784">
        <ele>429.7</ele>
        <time>2021-03-21T09:51:47Z</time>
      </trkpt>
      <trkpt lat="42.92327" lon="2.47786">
        <ele>428.9</ele>
        <time>2021-03-21T09:51:49Z</time>
      </trkpt>
      <trkpt lat="42.92345" lon="2.47788">
        <ele>428</ele>
        <time>2021-03-21T09:51:51Z</time>
      </trkpt>
      <trkpt lat="42.92364" lon="2.47791">
        <ele>427</ele>
        <time>2021-03-21T09:51:53Z</time>
      </trkpt>
      <trkpt lat="42.92373" lon="2.47793">
        <ele>426.5</ele>
        <time>2021-03-21T09:51:54Z</time>
      </trkpt>
      <trkpt lat="42.92383" lon="2.47796">
        <ele>426</ele>
        <time>2021-03-21T09:51:55Z</time>
      </trkpt>
      <trkpt lat="42.92402" lon="2.47801">
        <ele>424.9</ele>
        <time>2021-03-21T09:51:57Z</time>
      </trkpt>
      <trkpt lat="42.92421" lon="2.47807">
        <ele>423.9</ele>
        <time>2021-03-21T09:51:59Z</time>
      </trkpt>
      <trkpt lat="42.9244" lon="2.47812">
        <ele>422.9</ele>
        <time>2021-03-21T09:52:01Z</time>
      </trkpt>
      <trkpt lat="42.92449" lon="2.47814">
        <ele>422.4</ele>
        <time>2021-03-21T09:52:02Z</time>
      </trkpt>
      <trkpt lat="42.92459" lon="2.47815">
        <ele>421.9</ele>
        <time>2021-03-21T09:52:03Z</time>
      </trkpt>
      <trkpt lat="42.92477" lon="2.47812">
        <ele>421</ele>
        <time>2021-03-21T09:52:05Z</time>
      </trkpt>
      <trkpt lat="42.92486" lon="2.47808">
        <ele>420.7</ele>
        <time>2021-03-21T09:52:06Z</time>
      </trkpt>
      <trkpt lat="42.92501" lon="2.47794">
        <ele>420.4</ele>
        <time>2021-03-21T09:52:08Z</time>
      </trkpt>
      <trkpt lat="42.92509" lon="2.47788">
        <ele>420.4</ele>
        <time>2021-03-21T09:52:09Z</time>
      </trkpt>
      <trkpt lat="42.92524" lon="2.47776">
        <ele>420.5</ele>
        <time>2021-03-21T09:52:11Z</time>
      </trkpt>
      <trkpt lat="42.92537" lon="2.47766">
        <ele>420.6</ele>
        <time>2021-03-21T09:52:13Z</time>
      </trkpt>
      <trkpt lat="42.92543" lon="2.47761">
        <ele>420.7</ele>
        <time>2021-03-21T09:52:14Z</time>
      </trkpt>
      <trkpt lat="42.92553" lon="2.47752">
        <ele>421.1</ele>
        <time>2021-03-21T09:52:16Z</time>
      </trkpt>
      <trkpt lat="42.92557" lon="2.47743">
        <ele>421</ele>
        <time>2021-03-21T09:52:18Z</time>
      </trkpt>
      <trkpt lat="42.92557" lon="2.47737">
        <ele>420.9</ele>
        <time>2021-03-21T09:52:19Z</time>
      </trkpt>
      <trkpt lat="42.92555" lon="2.4773">
        <ele>420.9</ele>
        <time>2021-03-21T09:52:20Z</time>
      </trkpt>
      <trkpt lat="42.92551" lon="2.47723">
        <ele>420.8</ele>
        <time>2021-03-21T09:52:21Z</time>
      </trkpt>
      <trkpt lat="42.9254" lon="2.4771">
        <ele>420.8</ele>
        <time>2021-03-21T09:52:23Z</time>
      </trkpt>
      <trkpt lat="42.92531" lon="2.47696">
        <ele>420.8</ele>
        <time>2021-03-21T09:52:25Z</time>
      </trkpt>
      <trkpt lat="42.92524" lon="2.4768">
        <ele>420.9</ele>
        <time>2021-03-21T09:52:27Z</time>
      </trkpt>
      <trkpt lat="42.92517" lon="2.47664">
        <ele>421.1</ele>
        <time>2021-03-21T09:52:29Z</time>
      </trkpt>
      <trkpt lat="42.92514" lon="2.47656">
        <ele>421.2</ele>
        <time>2021-03-21T09:52:30Z</time>
      </trkpt>
      <trkpt lat="42.92511" lon="2.47637">
        <ele>421.5</ele>
        <time>2021-03-21T09:52:32Z</time>
      </trkpt>
      <trkpt lat="42.9251" lon="2.47628">
        <ele>421.7</ele>
        <time>2021-03-21T09:52:33Z</time>
      </trkpt>
      <trkpt lat="42.92509" lon="2.47619">
        <ele>421.9</ele>
        <time>2021-03-21T09:52:34Z</time>
      </trkpt>
      <trkpt lat="42.92506" lon="2.47603">
        <ele>422.2</ele>
        <time>2021-03-21T09:52:36Z</time>
      </trkpt>
      <trkpt lat="42.92505" lon="2.47596">
        <ele>422.4</ele>
        <time>2021-03-21T09:52:37Z</time>
      </trkpt>
      <trkpt lat="42.92504" lon="2.47588">
        <ele>422.6</ele>
        <time>2021-03-21T09:52:38Z</time>
      </trkpt>
      <trkpt lat="42.92502" lon="2.47581">
        <ele>422.8</ele>
        <time>2021-03-21T09:52:39Z</time>
      </trkpt>
      <trkpt lat="42.92499" lon="2.47567">
        <ele>423.3</ele>
        <time>2021-03-21T09:52:41Z</time>
      </trkpt>
      <trkpt lat="42.92496" lon="2.47555">
        <ele>423.7</ele>
        <time>2021-03-21T09:52:43Z</time>
      </trkpt>
      <trkpt lat="42.92492" lon="2.47543">
        <ele>424.2</ele>
        <time>2021-03-21T09:52:45Z</time>
      </trkpt>
      <trkpt lat="42.92489" lon="2.4753">
        <ele>424.7</ele>
        <time>2021-03-21T09:52:47Z</time>
      </trkpt>
      <trkpt lat="42.92488" lon="2.47524">
        <ele>425</ele>
        <time>2021-03-21T09:52:48Z</time>
      </trkpt>
      <trkpt lat="42.92488" lon="2.47519">
        <ele>425.1</ele>
        <time>2021-03-21T09:52:49Z</time>
      </trkpt>
      <trkpt lat="42.92487" lon="2.47513">
        <ele>425.4</ele>
        <time>2021-03-21T09:52:50Z</time>
      </trkpt>
      <trkpt lat="42.92486" lon="2.475">
        <ele>425.8</ele>
        <time>2021-03-21T09:52:52Z</time>
      </trkpt>
      <trkpt lat="42.92486" lon="2.47486">
        <ele>426.3</ele>
        <time>2021-03-21T09:52:54Z</time>
      </trkpt>
      <trkpt lat="42.92486" lon="2.47479">
        <ele>426.6</ele>
        <time>2021-03-21T09:52:55Z</time>
      </trkpt>
      <trkpt lat="42.92486" lon="2.47472">
        <ele>426.9</ele>
        <time>2021-03-21T09:52:56Z</time>
      </trkpt>
      <trkpt lat="42.92484" lon="2.47458">
        <ele>427.3</ele>
        <time>2021-03-21T09:52:58Z</time>
      </trkpt>
      <trkpt lat="42.92482" lon="2.47444">
        <ele>427.7</ele>
        <time>2021-03-21T09:53:00Z</time>
      </trkpt>
      <trkpt lat="42.92478" lon="2.47431">
        <ele>428.1</ele>
        <time>2021-03-21T09:53:02Z</time>
      </trkpt>
      <trkpt lat="42.92477" lon="2.47424">
        <ele>428.3</ele>
        <time>2021-03-21T09:53:03Z</time>
      </trkpt>
      <trkpt lat="42.92474" lon="2.4741">
        <ele>428.5</ele>
        <time>2021-03-21T09:53:05Z</time>
      </trkpt>
      <trkpt lat="42.92472" lon="2.47396">
        <ele>428.8</ele>
        <time>2021-03-21T09:53:07Z</time>
      </trkpt>
      <trkpt lat="42.92468" lon="2.47382">
        <ele>429</ele>
        <time>2021-03-21T09:53:09Z</time>
      </trkpt>
      <trkpt lat="42.92467" lon="2.47375">
        <ele>429.2</ele>
        <time>2021-03-21T09:53:10Z</time>
      </trkpt>
      <trkpt lat="42.92463" lon="2.47361">
        <ele>429.6</ele>
        <time>2021-03-21T09:53:12Z</time>
      </trkpt>
      <trkpt lat="42.92458" lon="2.47349">
        <ele>430</ele>
        <time>2021-03-21T09:53:14Z</time>
      </trkpt>
      <trkpt lat="42.92456" lon="2.47343">
        <ele>430.2</ele>
        <time>2021-03-21T09:53:15Z</time>
      </trkpt>
      <trkpt lat="42.9245" lon="2.47332">
        <ele>430.6</ele>
        <time>2021-03-21T09:53:17Z</time>
      </trkpt>
      <trkpt lat="42.92448" lon="2.47328">
        <ele>430.7</ele>
        <time>2021-03-21T09:53:18Z</time>
      </trkpt>
      <trkpt lat="42.92442" lon="2.47318">
        <ele>431</ele>
        <time>2021-03-21T09:53:20Z</time>
      </trkpt>
      <trkpt lat="42.92439" lon="2.47313">
        <ele>431.2</ele>
        <time>2021-03-21T09:53:21Z</time>
      </trkpt>
      <trkpt lat="42.92433" lon="2.47302">
        <ele>431.5</ele>
        <time>2021-03-21T09:53:23Z</time>
      </trkpt>
      <trkpt lat="42.92426" lon="2.47292">
        <ele>431.7</ele>
        <time>2021-03-21T09:53:25Z</time>
      </trkpt>
      <trkpt lat="42.92419" lon="2.47281">
        <ele>432</ele>
        <time>2021-03-21T09:53:27Z</time>
      </trkpt>
      <trkpt lat="42.92412" lon="2.4727">
        <ele>432.2</ele>
        <time>2021-03-21T09:53:29Z</time>
      </trkpt>
      <trkpt lat="42.92405" lon="2.47259">
        <ele>432.5</ele>
        <time>2021-03-21T09:53:31Z</time>
      </trkpt>
      <trkpt lat="42.92402" lon="2.47253">
        <ele>432.7</ele>
        <time>2021-03-21T09:53:32Z</time>
      </trkpt>
      <trkpt lat="42.92398" lon="2.47247">
        <ele>432.9</ele>
        <time>2021-03-21T09:53:33Z</time>
      </trkpt>
      <trkpt lat="42.9239" lon="2.47236">
        <ele>433.4</ele>
        <time>2021-03-21T09:53:35Z</time>
      </trkpt>
      <trkpt lat="42.92382" lon="2.47225">
        <ele>433.9</ele>
        <time>2021-03-21T09:53:37Z</time>
      </trkpt>
      <trkpt lat="42.92376" lon="2.47215">
        <ele>434.4</ele>
        <time>2021-03-21T09:53:39Z</time>
      </trkpt>
      <trkpt lat="42.92372" lon="2.4721">
        <ele>434.6</ele>
        <time>2021-03-21T09:53:40Z</time>
      </trkpt>
      <trkpt lat="42.9237" lon="2.47206">
        <ele>434.8</ele>
        <time>2021-03-21T09:53:41Z</time>
      </trkpt>
      <trkpt lat="42.92367" lon="2.47202">
        <ele>435</ele>
        <time>2021-03-21T09:53:42Z</time>
      </trkpt>
      <trkpt lat="42.92364" lon="2.47198">
        <ele>435.3</ele>
        <time>2021-03-21T09:53:43Z</time>
      </trkpt>
      <trkpt lat="42.92358" lon="2.47189">
        <ele>435.8</ele>
        <time>2021-03-21T09:53:45Z</time>
      </trkpt>
      <trkpt lat="42.92352" lon="2.47177">
        <ele>436.5</ele>
        <time>2021-03-21T09:53:47Z</time>
      </trkpt>
      <trkpt lat="42.92349" lon="2.47173">
        <ele>436.8</ele>
        <time>2021-03-21T09:53:48Z</time>
      </trkpt>
      <trkpt lat="42.92348" lon="2.47169">
        <ele>437.1</ele>
        <time>2021-03-21T09:53:49Z</time>
      </trkpt>
      <trkpt lat="42.92345" lon="2.47164">
        <ele>437.4</ele>
        <time>2021-03-21T09:53:50Z</time>
      </trkpt>
      <trkpt lat="42.92342" lon="2.47156">
        <ele>437.8</ele>
        <time>2021-03-21T09:53:52Z</time>
      </trkpt>
      <trkpt lat="42.9234" lon="2.47151">
        <ele>438.1</ele>
        <time>2021-03-21T09:53:53Z</time>
      </trkpt>
      <trkpt lat="42.92338" lon="2.4714">
        <ele>438.6</ele>
        <time>2021-03-21T09:53:55Z</time>
      </trkpt>
      <trkpt lat="42.92338" lon="2.47135">
        <ele>438.8</ele>
        <time>2021-03-21T09:53:57Z</time>
      </trkpt>
      <trkpt lat="42.92336" lon="2.47127">
        <ele>439.2</ele>
        <time>2021-03-21T09:53:59Z</time>
      </trkpt>
      <trkpt lat="42.92333" lon="2.47118">
        <ele>439.5</ele>
        <time>2021-03-21T09:54:00Z</time>
      </trkpt>
      <trkpt lat="42.92331" lon="2.47113">
        <ele>439.8</ele>
        <time>2021-03-21T09:54:01Z</time>
      </trkpt>
      <trkpt lat="42.92328" lon="2.47107">
        <ele>440</ele>
        <time>2021-03-21T09:54:02Z</time>
      </trkpt>
      <trkpt lat="42.92325" lon="2.47099">
        <ele>440.4</ele>
        <time>2021-03-21T09:54:04Z</time>
      </trkpt>
      <trkpt lat="42.92321" lon="2.47092">
        <ele>440.8</ele>
        <time>2021-03-21T09:54:05Z</time>
      </trkpt>
      <trkpt lat="42.92316" lon="2.47084">
        <ele>441.2</ele>
        <time>2021-03-21T09:54:07Z</time>
      </trkpt>
      <trkpt lat="42.92312" lon="2.47079">
        <ele>441.5</ele>
        <time>2021-03-21T09:54:08Z</time>
      </trkpt>
      <trkpt lat="42.92309" lon="2.47072">
        <ele>441.9</ele>
        <time>2021-03-21T09:54:09Z</time>
      </trkpt>
      <trkpt lat="42.92304" lon="2.47064">
        <ele>442.3</ele>
        <time>2021-03-21T09:54:11Z</time>
      </trkpt>
      <trkpt lat="42.923" lon="2.47058">
        <ele>442.5</ele>
        <time>2021-03-21T09:54:12Z</time>
      </trkpt>
      <trkpt lat="42.92296" lon="2.47052">
        <ele>442.8</ele>
        <time>2021-03-21T09:54:13Z</time>
      </trkpt>
      <trkpt lat="42.92292" lon="2.47044">
        <ele>443.1</ele>
        <time>2021-03-21T09:54:15Z</time>
      </trkpt>
      <trkpt lat="42.92288" lon="2.47037">
        <ele>443.4</ele>
        <time>2021-03-21T09:54:16Z</time>
      </trkpt>
      <trkpt lat="42.92285" lon="2.47027">
        <ele>443.9</ele>
        <time>2021-03-21T09:54:17Z</time>
      </trkpt>
      <trkpt lat="42.92281" lon="2.47014">
        <ele>444.4</ele>
        <time>2021-03-21T09:54:19Z</time>
      </trkpt>
      <trkpt lat="42.92279" lon="2.47011">
        <ele>444.5</ele>
        <time>2021-03-21T09:54:21Z</time>
      </trkpt>
      <trkpt lat="42.92278" lon="2.47005">
        <ele>444.7</ele>
        <time>2021-03-21T09:54:22Z</time>
      </trkpt>
      <trkpt lat="42.92277" lon="2.46997">
        <ele>445</ele>
        <time>2021-03-21T09:54:23Z</time>
      </trkpt>
      <trkpt lat="42.92275" lon="2.46988">
        <ele>445.1</ele>
        <time>2021-03-21T09:54:25Z</time>
      </trkpt>
      <trkpt lat="42.92272" lon="2.46981">
        <ele>445.2</ele>
        <time>2021-03-21T09:54:26Z</time>
      </trkpt>
      <trkpt lat="42.92269" lon="2.46971">
        <ele>445.1</ele>
        <time>2021-03-21T09:54:28Z</time>
      </trkpt>
      <trkpt lat="42.92264" lon="2.46961">
        <ele>444.9</ele>
        <time>2021-03-21T09:54:29Z</time>
      </trkpt>
      <trkpt lat="42.9226" lon="2.46955">
        <ele>444.7</ele>
        <time>2021-03-21T09:54:30Z</time>
      </trkpt>
      <trkpt lat="42.92256" lon="2.4695">
        <ele>444.5</ele>
        <time>2021-03-21T09:54:31Z</time>
      </trkpt>
      <trkpt lat="42.92247" lon="2.46939">
        <ele>443.8</ele>
        <time>2021-03-21T09:54:33Z</time>
      </trkpt>
      <trkpt lat="42.92239" lon="2.46924">
        <ele>443.1</ele>
        <time>2021-03-21T09:54:35Z</time>
      </trkpt>
      <trkpt lat="42.92235" lon="2.46916">
        <ele>442.8</ele>
        <time>2021-03-21T09:54:36Z</time>
      </trkpt>
      <trkpt lat="42.92227" lon="2.46898">
        <ele>442.2</ele>
        <time>2021-03-21T09:54:38Z</time>
      </trkpt>
      <trkpt lat="42.92222" lon="2.46889">
        <ele>442</ele>
        <time>2021-03-21T09:54:39Z</time>
      </trkpt>
      <trkpt lat="42.92212" lon="2.46874">
        <ele>441.8</ele>
        <time>2021-03-21T09:54:41Z</time>
      </trkpt>
      <trkpt lat="42.92207" lon="2.46867">
        <ele>441.9</ele>
        <time>2021-03-21T09:54:42Z</time>
      </trkpt>
      <trkpt lat="42.92197" lon="2.46854">
        <ele>442.1</ele>
        <time>2021-03-21T09:54:44Z</time>
      </trkpt>
      <trkpt lat="42.92193" lon="2.46847">
        <ele>442.2</ele>
        <time>2021-03-21T09:54:45Z</time>
      </trkpt>
      <trkpt lat="42.9219" lon="2.46841">
        <ele>442.3</ele>
        <time>2021-03-21T09:54:46Z</time>
      </trkpt>
      <trkpt lat="42.92185" lon="2.46827">
        <ele>442.6</ele>
        <time>2021-03-21T09:54:48Z</time>
      </trkpt>
      <trkpt lat="42.92184" lon="2.4682">
        <ele>442.8</ele>
        <time>2021-03-21T09:54:49Z</time>
      </trkpt>
      <trkpt lat="42.92183" lon="2.46812">
        <ele>442.9</ele>
        <time>2021-03-21T09:54:50Z</time>
      </trkpt>
      <trkpt lat="42.92182" lon="2.46797">
        <ele>443.3</ele>
        <time>2021-03-21T09:54:52Z</time>
      </trkpt>
      <trkpt lat="42.92181" lon="2.4679">
        <ele>443.5</ele>
        <time>2021-03-21T09:54:53Z</time>
      </trkpt>
      <trkpt lat="42.92181" lon="2.46783">
        <ele>443.7</ele>
        <time>2021-03-21T09:54:54Z</time>
      </trkpt>
      <trkpt lat="42.92179" lon="2.46769">
        <ele>444.1</ele>
        <time>2021-03-21T09:54:56Z</time>
      </trkpt>
      <trkpt lat="42.92179" lon="2.46762">
        <ele>444.3</ele>
        <time>2021-03-21T09:54:57Z</time>
      </trkpt>
      <trkpt lat="42.92179" lon="2.46747">
        <ele>444.8</ele>
        <time>2021-03-21T09:54:59Z</time>
      </trkpt>
      <trkpt lat="42.92179" lon="2.46733">
        <ele>445.3</ele>
        <time>2021-03-21T09:55:01Z</time>
      </trkpt>
      <trkpt lat="42.9218" lon="2.46719">
        <ele>445.7</ele>
        <time>2021-03-21T09:55:03Z</time>
      </trkpt>
      <trkpt lat="42.92181" lon="2.46705">
        <ele>446.1</ele>
        <time>2021-03-21T09:55:05Z</time>
      </trkpt>
      <trkpt lat="42.92182" lon="2.46698">
        <ele>446.3</ele>
        <time>2021-03-21T09:55:06Z</time>
      </trkpt>
      <trkpt lat="42.92185" lon="2.46685">
        <ele>446.5</ele>
        <time>2021-03-21T09:55:08Z</time>
      </trkpt>
      <trkpt lat="42.92186" lon="2.46678">
        <ele>446.6</ele>
        <time>2021-03-21T09:55:09Z</time>
      </trkpt>
      <trkpt lat="42.9219" lon="2.46663">
        <ele>446.8</ele>
        <time>2021-03-21T09:55:11Z</time>
      </trkpt>
      <trkpt lat="42.92193" lon="2.46649">
        <ele>446.9</ele>
        <time>2021-03-21T09:55:13Z</time>
      </trkpt>
      <trkpt lat="42.92195" lon="2.46642">
        <ele>447</ele>
        <time>2021-03-21T09:55:14Z</time>
      </trkpt>
      <trkpt lat="42.92198" lon="2.46629">
        <ele>447.2</ele>
        <time>2021-03-21T09:55:16Z</time>
      </trkpt>
      <trkpt lat="42.922" lon="2.46622">
        <ele>447.3</ele>
        <time>2021-03-21T09:55:17Z</time>
      </trkpt>
      <trkpt lat="42.92204" lon="2.46608">
        <ele>447.4</ele>
        <time>2021-03-21T09:55:19Z</time>
      </trkpt>
      <trkpt lat="42.92206" lon="2.46602">
        <ele>447.4</ele>
        <time>2021-03-21T09:55:20Z</time>
      </trkpt>
      <trkpt lat="42.9221" lon="2.46589">
        <ele>447.5</ele>
        <time>2021-03-21T09:55:22Z</time>
      </trkpt>
      <trkpt lat="42.92212" lon="2.46582">
        <ele>447.6</ele>
        <time>2021-03-21T09:55:23Z</time>
      </trkpt>
      <trkpt lat="42.92217" lon="2.46569">
        <ele>447.7</ele>
        <time>2021-03-21T09:55:25Z</time>
      </trkpt>
      <trkpt lat="42.92221" lon="2.46555">
        <ele>447.9</ele>
        <time>2021-03-21T09:55:27Z</time>
      </trkpt>
      <trkpt lat="42.92224" lon="2.46542">
        <ele>448.1</ele>
        <time>2021-03-21T09:55:29Z</time>
      </trkpt>
      <trkpt lat="42.92227" lon="2.46528">
        <ele>448.2</ele>
        <time>2021-03-21T09:55:31Z</time>
      </trkpt>
      <trkpt lat="42.92228" lon="2.46515">
        <ele>448.2</ele>
        <time>2021-03-21T09:55:33Z</time>
      </trkpt>
      <trkpt lat="42.92228" lon="2.46507">
        <ele>448.2</ele>
        <time>2021-03-21T09:55:34Z</time>
      </trkpt>
      <trkpt lat="42.92228" lon="2.46492">
        <ele>448.1</ele>
        <time>2021-03-21T09:55:36Z</time>
      </trkpt>
      <trkpt lat="42.92226" lon="2.46475">
        <ele>447.8</ele>
        <time>2021-03-21T09:55:38Z</time>
      </trkpt>
      <trkpt lat="42.92222" lon="2.46456">
        <ele>447.4</ele>
        <time>2021-03-21T09:55:40Z</time>
      </trkpt>
      <trkpt lat="42.9222" lon="2.46446">
        <ele>447.1</ele>
        <time>2021-03-21T09:55:41Z</time>
      </trkpt>
      <trkpt lat="42.92215" lon="2.46428">
        <ele>446.5</ele>
        <time>2021-03-21T09:55:43Z</time>
      </trkpt>
      <trkpt lat="42.92211" lon="2.46411">
        <ele>445.9</ele>
        <time>2021-03-21T09:55:45Z</time>
      </trkpt>
      <trkpt lat="42.92208" lon="2.46403">
        <ele>445.6</ele>
        <time>2021-03-21T09:55:46Z</time>
      </trkpt>
      <trkpt lat="42.92205" lon="2.46387">
        <ele>445</ele>
        <time>2021-03-21T09:55:48Z</time>
      </trkpt>
      <trkpt lat="42.92204" lon="2.46379">
        <ele>444.6</ele>
        <time>2021-03-21T09:55:49Z</time>
      </trkpt>
      <trkpt lat="42.92201" lon="2.46363">
        <ele>444</ele>
        <time>2021-03-21T09:55:51Z</time>
      </trkpt>
      <trkpt lat="42.92199" lon="2.46346">
        <ele>443.4</ele>
        <time>2021-03-21T09:55:53Z</time>
      </trkpt>
      <trkpt lat="42.92199" lon="2.46337">
        <ele>443.1</ele>
        <time>2021-03-21T09:55:54Z</time>
      </trkpt>
      <trkpt lat="42.92202" lon="2.46319">
        <ele>442.5</ele>
        <time>2021-03-21T09:55:56Z</time>
      </trkpt>
      <trkpt lat="42.92204" lon="2.4631">
        <ele>442.3</ele>
        <time>2021-03-21T09:55:57Z</time>
      </trkpt>
      <trkpt lat="42.92206" lon="2.46302">
        <ele>442</ele>
        <time>2021-03-21T09:55:58Z</time>
      </trkpt>
      <trkpt lat="42.92214" lon="2.46287">
        <ele>441.5</ele>
        <time>2021-03-21T09:56:00Z</time>
      </trkpt>
      <trkpt lat="42.92218" lon="2.4628">
        <ele>441.2</ele>
        <time>2021-03-21T09:56:01Z</time>
      </trkpt>
      <trkpt lat="42.92223" lon="2.46273">
        <ele>441</ele>
        <time>2021-03-21T09:56:02Z</time>
      </trkpt>
      <trkpt lat="42.92233" lon="2.4626">
        <ele>440.7</ele>
        <time>2021-03-21T09:56:04Z</time>
      </trkpt>
      <trkpt lat="42.92237" lon="2.46253">
        <ele>440.6</ele>
        <time>2021-03-21T09:56:05Z</time>
      </trkpt>
      <trkpt lat="42.92243" lon="2.46236">
        <ele>440.6</ele>
        <time>2021-03-21T09:56:07Z</time>
      </trkpt>
      <trkpt lat="42.92244" lon="2.46227">
        <ele>440.6</ele>
        <time>2021-03-21T09:56:08Z</time>
      </trkpt>
      <trkpt lat="42.92245" lon="2.46218">
        <ele>440.7</ele>
        <time>2021-03-21T09:56:09Z</time>
      </trkpt>
      <trkpt lat="42.92247" lon="2.46201">
        <ele>441</ele>
        <time>2021-03-21T09:56:11Z</time>
      </trkpt>
      <trkpt lat="42.92247" lon="2.46186">
        <ele>441.3</ele>
        <time>2021-03-21T09:56:13Z</time>
      </trkpt>
      <trkpt lat="42.92249" lon="2.46173">
        <ele>441.7</ele>
        <time>2021-03-21T09:56:15Z</time>
      </trkpt>
      <trkpt lat="42.9225" lon="2.46167">
        <ele>441.9</ele>
        <time>2021-03-21T09:56:16Z</time>
      </trkpt>
      <trkpt lat="42.92251" lon="2.46161">
        <ele>442.1</ele>
        <time>2021-03-21T09:56:17Z</time>
      </trkpt>
      <trkpt lat="42.92252" lon="2.46154">
        <ele>442.4</ele>
        <time>2021-03-21T09:56:18Z</time>
      </trkpt>
      <trkpt lat="42.92254" lon="2.46141">
        <ele>442.9</ele>
        <time>2021-03-21T09:56:20Z</time>
      </trkpt>
      <trkpt lat="42.92256" lon="2.46135">
        <ele>443.1</ele>
        <time>2021-03-21T09:56:21Z</time>
      </trkpt>
      <trkpt lat="42.92258" lon="2.46122">
        <ele>443.6</ele>
        <time>2021-03-21T09:56:23Z</time>
      </trkpt>
      <trkpt lat="42.9226" lon="2.46115">
        <ele>443.8</ele>
        <time>2021-03-21T09:56:24Z</time>
      </trkpt>
      <trkpt lat="42.92261" lon="2.46102">
        <ele>444.3</ele>
        <time>2021-03-21T09:56:26Z</time>
      </trkpt>
      <trkpt lat="42.92262" lon="2.46089">
        <ele>444.8</ele>
        <time>2021-03-21T09:56:28Z</time>
      </trkpt>
      <trkpt lat="42.92263" lon="2.46082">
        <ele>445</ele>
        <time>2021-03-21T09:56:29Z</time>
      </trkpt>
      <trkpt lat="42.92263" lon="2.46069">
        <ele>445.4</ele>
        <time>2021-03-21T09:56:31Z</time>
      </trkpt>
      <trkpt lat="42.92264" lon="2.46062">
        <ele>445.7</ele>
        <time>2021-03-21T09:56:32Z</time>
      </trkpt>
      <trkpt lat="42.92263" lon="2.46055">
        <ele>445.9</ele>
        <time>2021-03-21T09:56:33Z</time>
      </trkpt>
      <trkpt lat="42.92261" lon="2.46042">
        <ele>446.3</ele>
        <time>2021-03-21T09:56:35Z</time>
      </trkpt>
      <trkpt lat="42.9226" lon="2.46036">
        <ele>446.5</ele>
        <time>2021-03-21T09:56:36Z</time>
      </trkpt>
      <trkpt lat="42.92258" lon="2.46024">
        <ele>446.9</ele>
        <time>2021-03-21T09:56:38Z</time>
      </trkpt>
      <trkpt lat="42.92257" lon="2.46012">
        <ele>447.2</ele>
        <time>2021-03-21T09:56:40Z</time>
      </trkpt>
      <trkpt lat="42.92256" lon="2.46006">
        <ele>447.3</ele>
        <time>2021-03-21T09:56:41Z</time>
      </trkpt>
      <trkpt lat="42.92255" lon="2.45992">
        <ele>447.6</ele>
        <time>2021-03-21T09:56:43Z</time>
      </trkpt>
      <trkpt lat="42.92255" lon="2.45984">
        <ele>447.8</ele>
        <time>2021-03-21T09:56:45Z</time>
      </trkpt>
      <trkpt lat="42.92255" lon="2.45974">
        <ele>448</ele>
        <time>2021-03-21T09:56:46Z</time>
      </trkpt>
      <trkpt lat="42.92255" lon="2.45961">
        <ele>448.3</ele>
        <time>2021-03-21T09:56:48Z</time>
      </trkpt>
      <trkpt lat="42.92256" lon="2.45948">
        <ele>448.6</ele>
        <time>2021-03-21T09:56:50Z</time>
      </trkpt>
      <trkpt lat="42.92256" lon="2.45935">
        <ele>448.8</ele>
        <time>2021-03-21T09:56:52Z</time>
      </trkpt>
      <trkpt lat="42.92255" lon="2.45928">
        <ele>449</ele>
        <time>2021-03-21T09:56:53Z</time>
      </trkpt>
      <trkpt lat="42.92255" lon="2.45915">
        <ele>449.3</ele>
        <time>2021-03-21T09:56:55Z</time>
      </trkpt>
      <trkpt lat="42.9226" lon="2.45904">
        <ele>449.5</ele>
        <time>2021-03-21T09:56:57Z</time>
      </trkpt>
      <trkpt lat="42.9226" lon="2.459">
        <ele>449.6</ele>
        <time>2021-03-21T09:56:58Z</time>
      </trkpt>
      <trkpt lat="42.92258" lon="2.45889">
        <ele>449.9</ele>
        <time>2021-03-21T09:57:00Z</time>
      </trkpt>
      <trkpt lat="42.92259" lon="2.45893">
        <ele>450</ele>
        <time>2021-03-21T09:57:02Z</time>
      </trkpt>
      <trkpt lat="42.9226" lon="2.4589">
        <ele>450.1</ele>
        <time>2021-03-21T09:57:03Z</time>
      </trkpt>
      <trkpt lat="42.92262" lon="2.4588">
        <ele>450.3</ele>
        <time>2021-03-21T09:57:04Z</time>
      </trkpt>
      <trkpt lat="42.92263" lon="2.45871">
        <ele>450.5</ele>
        <time>2021-03-21T09:57:06Z</time>
      </trkpt>
      <trkpt lat="42.92267" lon="2.45859">
        <ele>450.8</ele>
        <time>2021-03-21T09:57:07Z</time>
      </trkpt>
      <trkpt lat="42.92271" lon="2.45851">
        <ele>451</ele>
        <time>2021-03-21T09:57:08Z</time>
      </trkpt>
      <trkpt lat="42.92273" lon="2.45847">
        <ele>451.1</ele>
        <time>2021-03-21T09:57:09Z</time>
      </trkpt>
      <trkpt lat="42.92276" lon="2.45845">
        <ele>451.2</ele>
        <time>2021-03-21T09:57:11Z</time>
      </trkpt>
      <trkpt lat="42.92279" lon="2.45842">
        <ele>451.3</ele>
        <time>2021-03-21T09:57:12Z</time>
      </trkpt>
      <trkpt lat="42.92285" lon="2.45837">
        <ele>451.4</ele>
        <time>2021-03-21T09:57:14Z</time>
      </trkpt>
      <trkpt lat="42.92291" lon="2.45833">
        <ele>451.5</ele>
        <time>2021-03-21T09:57:15Z</time>
      </trkpt>
      <trkpt lat="42.92299" lon="2.45829">
        <ele>451.7</ele>
        <time>2021-03-21T09:57:16Z</time>
      </trkpt>
      <trkpt lat="42.92304" lon="2.45828">
        <ele>451.7</ele>
        <time>2021-03-21T09:57:17Z</time>
      </trkpt>
      <trkpt lat="42.92315" lon="2.45826">
        <ele>451.9</ele>
        <time>2021-03-21T09:57:19Z</time>
      </trkpt>
      <trkpt lat="42.92325" lon="2.45822">
        <ele>452.1</ele>
        <time>2021-03-21T09:57:21Z</time>
      </trkpt>
      <trkpt lat="42.92328" lon="2.45818">
        <ele>452.2</ele>
        <time>2021-03-21T09:57:23Z</time>
      </trkpt>
      <trkpt lat="42.92334" lon="2.45819">
        <ele>452.3</ele>
        <time>2021-03-21T09:57:24Z</time>
      </trkpt>
      <trkpt lat="42.92339" lon="2.45819">
        <ele>452.4</ele>
        <time>2021-03-21T09:57:25Z</time>
      </trkpt>
      <trkpt lat="42.92342" lon="2.4582">
        <ele>452.5</ele>
        <time>2021-03-21T09:57:27Z</time>
      </trkpt>
      <trkpt lat="42.92346" lon="2.45819">
        <ele>452.6</ele>
        <time>2021-03-21T09:57:28Z</time>
      </trkpt>
      <trkpt lat="42.92355" lon="2.45817">
        <ele>452.8</ele>
        <time>2021-03-21T09:57:29Z</time>
      </trkpt>
      <trkpt lat="42.92363" lon="2.45813">
        <ele>453</ele>
        <time>2021-03-21T09:57:31Z</time>
      </trkpt>
      <trkpt lat="42.92369" lon="2.45809">
        <ele>453.1</ele>
        <time>2021-03-21T09:57:32Z</time>
      </trkpt>
      <trkpt lat="42.92375" lon="2.45809">
        <ele>453.1</ele>
        <time>2021-03-21T09:57:33Z</time>
      </trkpt>
      <trkpt lat="42.92377" lon="2.45811">
        <ele>453.1</ele>
        <time>2021-03-21T09:57:34Z</time>
      </trkpt>
      <trkpt lat="42.92381" lon="2.4581">
        <ele>453.2</ele>
        <time>2021-03-21T09:57:36Z</time>
      </trkpt>
      <trkpt lat="42.92386" lon="2.45807">
        <ele>453.2</ele>
        <time>2021-03-21T09:57:37Z</time>
      </trkpt>
      <trkpt lat="42.92394" lon="2.45799">
        <ele>453.4</ele>
        <time>2021-03-21T09:57:39Z</time>
      </trkpt>
      <trkpt lat="42.92398" lon="2.45793">
        <ele>453.5</ele>
        <time>2021-03-21T09:57:40Z</time>
      </trkpt>
      <trkpt lat="42.92405" lon="2.45784">
        <ele>453.7</ele>
        <time>2021-03-21T09:57:42Z</time>
      </trkpt>
      <trkpt lat="42.92409" lon="2.45778">
        <ele>453.8</ele>
        <time>2021-03-21T09:57:44Z</time>
      </trkpt>
      <trkpt lat="42.92416" lon="2.45768">
        <ele>454.1</ele>
        <time>2021-03-21T09:57:45Z</time>
      </trkpt>
      <trkpt lat="42.92424" lon="2.45753">
        <ele>454.4</ele>
        <time>2021-03-21T09:57:47Z</time>
      </trkpt>
      <trkpt lat="42.92426" lon="2.45749">
        <ele>454.5</ele>
        <time>2021-03-21T09:57:48Z</time>
      </trkpt>
      <trkpt lat="42.92428" lon="2.45744">
        <ele>454.7</ele>
        <time>2021-03-21T09:57:49Z</time>
      </trkpt>
      <trkpt lat="42.92429" lon="2.45741">
        <ele>454.7</ele>
        <time>2021-03-21T09:57:50Z</time>
      </trkpt>
      <trkpt lat="42.92433" lon="2.45728">
        <ele>455.1</ele>
        <time>2021-03-21T09:57:52Z</time>
      </trkpt>
      <trkpt lat="42.92435" lon="2.45719">
        <ele>455.3</ele>
        <time>2021-03-21T09:57:53Z</time>
      </trkpt>
      <trkpt lat="42.92439" lon="2.457">
        <ele>455.8</ele>
        <time>2021-03-21T09:57:55Z</time>
      </trkpt>
      <trkpt lat="42.9244" lon="2.45695">
        <ele>455.9</ele>
        <time>2021-03-21T09:57:56Z</time>
      </trkpt>
      <trkpt lat="42.92443" lon="2.4568">
        <ele>456.4</ele>
        <time>2021-03-21T09:57:58Z</time>
      </trkpt>
      <trkpt lat="42.92445" lon="2.4567">
        <ele>456.7</ele>
        <time>2021-03-21T09:57:59Z</time>
      </trkpt>
      <trkpt lat="42.92449" lon="2.45653">
        <ele>457.3</ele>
        <time>2021-03-21T09:58:01Z</time>
      </trkpt>
      <trkpt lat="42.92451" lon="2.45648">
        <ele>457.5</ele>
        <time>2021-03-21T09:58:02Z</time>
      </trkpt>
      <trkpt lat="42.92456" lon="2.45629">
        <ele>458.2</ele>
        <time>2021-03-21T09:58:04Z</time>
      </trkpt>
      <trkpt lat="42.92459" lon="2.45621">
        <ele>458.5</ele>
        <time>2021-03-21T09:58:05Z</time>
      </trkpt>
      <trkpt lat="42.9246" lon="2.45612">
        <ele>458.8</ele>
        <time>2021-03-21T09:58:06Z</time>
      </trkpt>
      <trkpt lat="42.92461" lon="2.456">
        <ele>459.2</ele>
        <time>2021-03-21T09:58:08Z</time>
      </trkpt>
      <trkpt lat="42.92462" lon="2.45587">
        <ele>459.7</ele>
        <time>2021-03-21T09:58:10Z</time>
      </trkpt>
      <trkpt lat="42.92463" lon="2.45586">
        <ele>459.8</ele>
        <time>2021-03-21T09:58:11Z</time>
      </trkpt>
      <trkpt lat="42.92462" lon="2.45583">
        <ele>459.9</ele>
        <time>2021-03-21T09:58:12Z</time>
      </trkpt>
      <trkpt lat="42.92462" lon="2.45579">
        <ele>460.1</ele>
        <time>2021-03-21T09:58:13Z</time>
      </trkpt>
      <trkpt lat="42.92461" lon="2.45565">
        <ele>460.7</ele>
        <time>2021-03-21T09:58:15Z</time>
      </trkpt>
      <trkpt lat="42.92459" lon="2.45555">
        <ele>461</ele>
        <time>2021-03-21T09:58:16Z</time>
      </trkpt>
      <trkpt lat="42.92458" lon="2.45545">
        <ele>461.4</ele>
        <time>2021-03-21T09:58:17Z</time>
      </trkpt>
      <trkpt lat="42.92458" lon="2.45536">
        <ele>461.7</ele>
        <time>2021-03-21T09:58:18Z</time>
      </trkpt>
      <trkpt lat="42.92458" lon="2.45527">
        <ele>462</ele>
        <time>2021-03-21T09:58:19Z</time>
      </trkpt>
      <trkpt lat="42.92459" lon="2.4551">
        <ele>462.5</ele>
        <time>2021-03-21T09:58:21Z</time>
      </trkpt>
      <trkpt lat="42.92461" lon="2.45503">
        <ele>462.8</ele>
        <time>2021-03-21T09:58:22Z</time>
      </trkpt>
      <trkpt lat="42.92462" lon="2.45495">
        <ele>463</ele>
        <time>2021-03-21T09:58:23Z</time>
      </trkpt>
      <trkpt lat="42.92465" lon="2.45482">
        <ele>463.4</ele>
        <time>2021-03-21T09:58:25Z</time>
      </trkpt>
      <trkpt lat="42.92466" lon="2.45475">
        <ele>463.7</ele>
        <time>2021-03-21T09:58:26Z</time>
      </trkpt>
      <trkpt lat="42.92466" lon="2.45469">
        <ele>463.9</ele>
        <time>2021-03-21T09:58:27Z</time>
      </trkpt>
      <trkpt lat="42.92466" lon="2.45465">
        <ele>464</ele>
        <time>2021-03-21T09:58:28Z</time>
      </trkpt>
      <trkpt lat="42.92465" lon="2.45459">
        <ele>464.2</ele>
        <time>2021-03-21T09:58:30Z</time>
      </trkpt>
      <trkpt lat="42.92465" lon="2.45454">
        <ele>464.4</ele>
        <time>2021-03-21T09:58:31Z</time>
      </trkpt>
      <trkpt lat="42.92465" lon="2.45448">
        <ele>464.7</ele>
        <time>2021-03-21T09:58:32Z</time>
      </trkpt>
      <trkpt lat="42.92465" lon="2.45442">
        <ele>464.9</ele>
        <time>2021-03-21T09:58:33Z</time>
      </trkpt>
      <trkpt lat="42.92464" lon="2.45431">
        <ele>465.3</ele>
        <time>2021-03-21T09:58:35Z</time>
      </trkpt>
      <trkpt lat="42.92462" lon="2.45423">
        <ele>465.6</ele>
        <time>2021-03-21T09:58:36Z</time>
      </trkpt>
      <trkpt lat="42.9246" lon="2.45417">
        <ele>465.8</ele>
        <time>2021-03-21T09:58:38Z</time>
      </trkpt>
      <trkpt lat="42.92455" lon="2.45404">
        <ele>466.3</ele>
        <time>2021-03-21T09:58:39Z</time>
      </trkpt>
      <trkpt lat="42.92452" lon="2.45399">
        <ele>466.5</ele>
        <time>2021-03-21T09:58:40Z</time>
      </trkpt>
      <trkpt lat="42.92449" lon="2.45393">
        <ele>466.8</ele>
        <time>2021-03-21T09:58:41Z</time>
      </trkpt>
      <trkpt lat="42.92446" lon="2.45387">
        <ele>467</ele>
        <time>2021-03-21T09:58:43Z</time>
      </trkpt>
      <trkpt lat="42.92442" lon="2.45377">
        <ele>467.4</ele>
        <time>2021-03-21T09:58:44Z</time>
      </trkpt>
      <trkpt lat="42.9244" lon="2.4537">
        <ele>467.6</ele>
        <time>2021-03-21T09:58:45Z</time>
      </trkpt>
      <trkpt lat="42.92438" lon="2.45362">
        <ele>467.9</ele>
        <time>2021-03-21T09:58:46Z</time>
      </trkpt>
      <trkpt lat="42.92437" lon="2.45357">
        <ele>468.1</ele>
        <time>2021-03-21T09:58:47Z</time>
      </trkpt>
      <trkpt lat="42.92438" lon="2.45351">
        <ele>468.3</ele>
        <time>2021-03-21T09:58:48Z</time>
      </trkpt>
      <trkpt lat="42.92433" lon="2.4535">
        <ele>468.5</ele>
        <time>2021-03-21T09:58:50Z</time>
      </trkpt>
      <trkpt lat="42.92433" lon="2.45345">
        <ele>468.7</ele>
        <time>2021-03-21T09:58:51Z</time>
      </trkpt>
      <trkpt lat="42.92431" lon="2.45338">
        <ele>469</ele>
        <time>2021-03-21T09:58:52Z</time>
      </trkpt>
      <trkpt lat="42.92429" lon="2.4533">
        <ele>469.3</ele>
        <time>2021-03-21T09:58:54Z</time>
      </trkpt>
      <trkpt lat="42.92425" lon="2.45317">
        <ele>469.9</ele>
        <time>2021-03-21T09:58:55Z</time>
      </trkpt>
      <trkpt lat="42.92424" lon="2.45312">
        <ele>470.1</ele>
        <time>2021-03-21T09:58:56Z</time>
      </trkpt>
      <trkpt lat="42.9242" lon="2.45302">
        <ele>470.5</ele>
        <time>2021-03-21T09:58:58Z</time>
      </trkpt>
      <trkpt lat="42.92416" lon="2.45292">
        <ele>471</ele>
        <time>2021-03-21T09:58:59Z</time>
      </trkpt>
      <trkpt lat="42.92414" lon="2.45287">
        <ele>471.2</ele>
        <time>2021-03-21T09:59:00Z</time>
      </trkpt>
      <trkpt lat="42.92412" lon="2.45282">
        <ele>471.4</ele>
        <time>2021-03-21T09:59:01Z</time>
      </trkpt>
      <trkpt lat="42.92409" lon="2.45275">
        <ele>471.8</ele>
        <time>2021-03-21T09:59:03Z</time>
      </trkpt>
      <trkpt lat="42.92405" lon="2.45265">
        <ele>472.2</ele>
        <time>2021-03-21T09:59:04Z</time>
      </trkpt>
      <trkpt lat="42.92403" lon="2.45258">
        <ele>472.5</ele>
        <time>2021-03-21T09:59:06Z</time>
      </trkpt>
      <trkpt lat="42.92401" lon="2.45252">
        <ele>472.7</ele>
        <time>2021-03-21T09:59:07Z</time>
      </trkpt>
      <trkpt lat="42.924" lon="2.45247">
        <ele>472.9</ele>
        <time>2021-03-21T09:59:08Z</time>
      </trkpt>
      <trkpt lat="42.92396" lon="2.45236">
        <ele>473.3</ele>
        <time>2021-03-21T09:59:09Z</time>
      </trkpt>
      <trkpt lat="42.92392" lon="2.4523">
        <ele>473.6</ele>
        <time>2021-03-21T09:59:11Z</time>
      </trkpt>
      <trkpt lat="42.92387" lon="2.45228">
        <ele>473.8</ele>
        <time>2021-03-21T09:59:12Z</time>
      </trkpt>
      <trkpt lat="42.92382" lon="2.45227">
        <ele>474</ele>
        <time>2021-03-21T09:59:13Z</time>
      </trkpt>
      <trkpt lat="42.92375" lon="2.45229">
        <ele>474.4</ele>
        <time>2021-03-21T09:59:15Z</time>
      </trkpt>
      <trkpt lat="42.92371" lon="2.45232">
        <ele>474.7</ele>
        <time>2021-03-21T09:59:16Z</time>
      </trkpt>
      <trkpt lat="42.92369" lon="2.45235">
        <ele>474.9</ele>
        <time>2021-03-21T09:59:17Z</time>
      </trkpt>
      <trkpt lat="42.92366" lon="2.45241">
        <ele>475.1</ele>
        <time>2021-03-21T09:59:19Z</time>
      </trkpt>
      <trkpt lat="42.92363" lon="2.45248">
        <ele>475.4</ele>
        <time>2021-03-21T09:59:20Z</time>
      </trkpt>
      <trkpt lat="42.92362" lon="2.45253">
        <ele>475.6</ele>
        <time>2021-03-21T09:59:22Z</time>
      </trkpt>
      <trkpt lat="42.92361" lon="2.45258">
        <ele>475.8</ele>
        <time>2021-03-21T09:59:23Z</time>
      </trkpt>
      <trkpt lat="42.92361" lon="2.45264">
        <ele>475.9</ele>
        <time>2021-03-21T09:59:24Z</time>
      </trkpt>
      <trkpt lat="42.92362" lon="2.45271">
        <ele>476.2</ele>
        <time>2021-03-21T09:59:25Z</time>
      </trkpt>
      <trkpt lat="42.92362" lon="2.45277">
        <ele>476.3</ele>
        <time>2021-03-21T09:59:27Z</time>
      </trkpt>
      <trkpt lat="42.92363" lon="2.45283">
        <ele>476.6</ele>
        <time>2021-03-21T09:59:28Z</time>
      </trkpt>
      <trkpt lat="42.92365" lon="2.45291">
        <ele>476.8</ele>
        <time>2021-03-21T09:59:29Z</time>
      </trkpt>
      <trkpt lat="42.92366" lon="2.45296">
        <ele>477</ele>
        <time>2021-03-21T09:59:30Z</time>
      </trkpt>
      <trkpt lat="42.92367" lon="2.45302">
        <ele>477.2</ele>
        <time>2021-03-21T09:59:32Z</time>
      </trkpt>
      <trkpt lat="42.9237" lon="2.45309">
        <ele>477.4</ele>
        <time>2021-03-21T09:59:33Z</time>
      </trkpt>
      <trkpt lat="42.92372" lon="2.45319">
        <ele>477.8</ele>
        <time>2021-03-21T09:59:35Z</time>
      </trkpt>
      <trkpt lat="42.92374" lon="2.45325">
        <ele>478.1</ele>
        <time>2021-03-21T09:59:36Z</time>
      </trkpt>
      <trkpt lat="42.92375" lon="2.4533">
        <ele>478.3</ele>
        <time>2021-03-21T09:59:37Z</time>
      </trkpt>
      <trkpt lat="42.92376" lon="2.45339">
        <ele>478.7</ele>
        <time>2021-03-21T09:59:39Z</time>
      </trkpt>
      <trkpt lat="42.92378" lon="2.45348">
        <ele>479</ele>
        <time>2021-03-21T09:59:40Z</time>
      </trkpt>
      <trkpt lat="42.92378" lon="2.45352">
        <ele>479.2</ele>
        <time>2021-03-21T09:59:41Z</time>
      </trkpt>
      <trkpt lat="42.92379" lon="2.45357">
        <ele>479.4</ele>
        <time>2021-03-21T09:59:43Z</time>
      </trkpt>
      <trkpt lat="42.92381" lon="2.45365">
        <ele>479.8</ele>
        <time>2021-03-21T09:59:44Z</time>
      </trkpt>
      <trkpt lat="42.92383" lon="2.45375">
        <ele>480.2</ele>
        <time>2021-03-21T09:59:45Z</time>
      </trkpt>
      <trkpt lat="42.92384" lon="2.4538">
        <ele>480.4</ele>
        <time>2021-03-21T09:59:47Z</time>
      </trkpt>
      <trkpt lat="42.92384" lon="2.45385">
        <ele>480.6</ele>
        <time>2021-03-21T09:59:48Z</time>
      </trkpt>
      <trkpt lat="42.92384" lon="2.45393">
        <ele>480.9</ele>
        <time>2021-03-21T09:59:49Z</time>
      </trkpt>
      <trkpt lat="42.92382" lon="2.454">
        <ele>481.2</ele>
        <time>2021-03-21T09:59:51Z</time>
      </trkpt>
      <trkpt lat="42.92379" lon="2.45406">
        <ele>481.4</ele>
        <time>2021-03-21T09:59:52Z</time>
      </trkpt>
      <trkpt lat="42.92376" lon="2.45409">
        <ele>481.5</ele>
        <time>2021-03-21T09:59:53Z</time>
      </trkpt>
      <trkpt lat="42.92372" lon="2.45412">
        <ele>481.7</ele>
        <time>2021-03-21T09:59:54Z</time>
      </trkpt>
      <trkpt lat="42.92365" lon="2.45415">
        <ele>482</ele>
        <time>2021-03-21T09:59:56Z</time>
      </trkpt>
      <trkpt lat="42.9236" lon="2.45417">
        <ele>482.2</ele>
        <time>2021-03-21T09:59:57Z</time>
      </trkpt>
      <trkpt lat="42.92356" lon="2.45418">
        <ele>482.4</ele>
        <time>2021-03-21T09:59:59Z</time>
      </trkpt>
      <trkpt lat="42.92351" lon="2.4542">
        <ele>482.6</ele>
        <time>2021-03-21T10:00:00Z</time>
      </trkpt>
      <trkpt lat="42.92347" lon="2.45421">
        <ele>482.8</ele>
        <time>2021-03-21T10:00:01Z</time>
      </trkpt>
      <trkpt lat="42.92343" lon="2.45422">
        <ele>483</ele>
        <time>2021-03-21T10:00:02Z</time>
      </trkpt>
      <trkpt lat="42.92339" lon="2.45423">
        <ele>483.1</ele>
        <time>2021-03-21T10:00:03Z</time>
      </trkpt>
      <trkpt lat="42.92335" lon="2.45425">
        <ele>483.4</ele>
        <time>2021-03-21T10:00:04Z</time>
      </trkpt>
      <trkpt lat="42.92328" lon="2.45428">
        <ele>483.7</ele>
        <time>2021-03-21T10:00:06Z</time>
      </trkpt>
      <trkpt lat="42.9232" lon="2.45432">
        <ele>484.2</ele>
        <time>2021-03-21T10:00:08Z</time>
      </trkpt>
      <trkpt lat="42.92316" lon="2.45433">
        <ele>484.3</ele>
        <time>2021-03-21T10:00:09Z</time>
      </trkpt>
      <trkpt lat="42.92313" lon="2.45434">
        <ele>484.5</ele>
        <time>2021-03-21T10:00:10Z</time>
      </trkpt>
      <trkpt lat="42.92307" lon="2.45437">
        <ele>484.9</ele>
        <time>2021-03-21T10:00:12Z</time>
      </trkpt>
      <trkpt lat="42.92303" lon="2.45438">
        <ele>485.1</ele>
        <time>2021-03-21T10:00:13Z</time>
      </trkpt>
      <trkpt lat="42.92299" lon="2.4544">
        <ele>485.4</ele>
        <time>2021-03-21T10:00:14Z</time>
      </trkpt>
      <trkpt lat="42.92293" lon="2.45442">
        <ele>485.8</ele>
        <time>2021-03-21T10:00:16Z</time>
      </trkpt>
      <trkpt lat="42.9229" lon="2.45443">
        <ele>486</ele>
        <time>2021-03-21T10:00:17Z</time>
      </trkpt>
      <trkpt lat="42.92283" lon="2.45445">
        <ele>486.4</ele>
        <time>2021-03-21T10:00:19Z</time>
      </trkpt>
      <trkpt lat="42.9228" lon="2.45446">
        <ele>486.6</ele>
        <time>2021-03-21T10:00:20Z</time>
      </trkpt>
      <trkpt lat="42.92278" lon="2.45447">
        <ele>486.7</ele>
        <time>2021-03-21T10:00:21Z</time>
      </trkpt>
      <trkpt lat="42.92274" lon="2.45448">
        <ele>487</ele>
        <time>2021-03-21T10:00:23Z</time>
      </trkpt>
      <trkpt lat="42.92268" lon="2.45451">
        <ele>487.4</ele>
        <time>2021-03-21T10:00:24Z</time>
      </trkpt>
      <trkpt lat="42.92264" lon="2.45452">
        <ele>487.7</ele>
        <time>2021-03-21T10:00:25Z</time>
      </trkpt>
      <trkpt lat="42.92259" lon="2.45453">
        <ele>488</ele>
        <time>2021-03-21T10:00:26Z</time>
      </trkpt>
      <trkpt lat="42.92255" lon="2.45454">
        <ele>488.2</ele>
        <time>2021-03-21T10:00:27Z</time>
      </trkpt>
      <trkpt lat="42.92246" lon="2.45452">
        <ele>488.7</ele>
        <time>2021-03-21T10:00:29Z</time>
      </trkpt>
      <trkpt lat="42.92243" lon="2.4545">
        <ele>488.9</ele>
        <time>2021-03-21T10:00:30Z</time>
      </trkpt>
      <trkpt lat="42.92239" lon="2.45445">
        <ele>489.3</ele>
        <time>2021-03-21T10:00:32Z</time>
      </trkpt>
      <trkpt lat="42.92236" lon="2.4544">
        <ele>489.5</ele>
        <time>2021-03-21T10:00:33Z</time>
      </trkpt>
      <trkpt lat="42.92235" lon="2.45435">
        <ele>489.7</ele>
        <time>2021-03-21T10:00:34Z</time>
      </trkpt>
      <trkpt lat="42.92235" lon="2.45428">
        <ele>490.1</ele>
        <time>2021-03-21T10:00:36Z</time>
      </trkpt>
      <trkpt lat="42.92235" lon="2.45423">
        <ele>490.3</ele>
        <time>2021-03-21T10:00:37Z</time>
      </trkpt>
      <trkpt lat="42.92236" lon="2.45416">
        <ele>490.6</ele>
        <time>2021-03-21T10:00:38Z</time>
      </trkpt>
      <trkpt lat="42.92237" lon="2.45409">
        <ele>490.9</ele>
        <time>2021-03-21T10:00:40Z</time>
      </trkpt>
      <trkpt lat="42.92238" lon="2.45403">
        <ele>491.2</ele>
        <time>2021-03-21T10:00:41Z</time>
      </trkpt>
      <trkpt lat="42.92239" lon="2.45396">
        <ele>491.5</ele>
        <time>2021-03-21T10:00:42Z</time>
      </trkpt>
      <trkpt lat="42.92239" lon="2.45391">
        <ele>491.8</ele>
        <time>2021-03-21T10:00:44Z</time>
      </trkpt>
      <trkpt lat="42.9224" lon="2.45385">
        <ele>492.1</ele>
        <time>2021-03-21T10:00:45Z</time>
      </trkpt>
      <trkpt lat="42.92241" lon="2.45379">
        <ele>492.4</ele>
        <time>2021-03-21T10:00:46Z</time>
      </trkpt>
      <trkpt lat="42.92241" lon="2.45374">
        <ele>492.7</ele>
        <time>2021-03-21T10:00:47Z</time>
      </trkpt>
      <trkpt lat="42.92242" lon="2.4537">
        <ele>492.9</ele>
        <time>2021-03-21T10:00:48Z</time>
      </trkpt>
      <trkpt lat="42.92243" lon="2.45362">
        <ele>493.3</ele>
        <time>2021-03-21T10:00:50Z</time>
      </trkpt>
      <trkpt lat="42.92244" lon="2.45357">
        <ele>493.6</ele>
        <time>2021-03-21T10:00:51Z</time>
      </trkpt>
      <trkpt lat="42.92244" lon="2.45352">
        <ele>493.8</ele>
        <time>2021-03-21T10:00:52Z</time>
      </trkpt>
      <trkpt lat="42.92246" lon="2.45346">
        <ele>494.2</ele>
        <time>2021-03-21T10:00:54Z</time>
      </trkpt>
      <trkpt lat="42.92247" lon="2.45341">
        <ele>494.4</ele>
        <time>2021-03-21T10:00:55Z</time>
      </trkpt>
      <trkpt lat="42.92247" lon="2.45335">
        <ele>494.7</ele>
        <time>2021-03-21T10:00:56Z</time>
      </trkpt>
      <trkpt lat="42.92247" lon="2.45331">
        <ele>494.9</ele>
        <time>2021-03-21T10:00:57Z</time>
      </trkpt>
      <trkpt lat="42.92247" lon="2.45323">
        <ele>495.3</ele>
        <time>2021-03-21T10:00:59Z</time>
      </trkpt>
      <trkpt lat="42.92247" lon="2.45318">
        <ele>495.5</ele>
        <time>2021-03-21T10:01:00Z</time>
      </trkpt>
      <trkpt lat="42.92248" lon="2.45309">
        <ele>496</ele>
        <time>2021-03-21T10:01:02Z</time>
      </trkpt>
      <trkpt lat="42.92248" lon="2.45304">
        <ele>496.2</ele>
        <time>2021-03-21T10:01:03Z</time>
      </trkpt>
      <trkpt lat="42.9225" lon="2.45295">
        <ele>496.6</ele>
        <time>2021-03-21T10:01:05Z</time>
      </trkpt>
      <trkpt lat="42.92251" lon="2.45287">
        <ele>496.9</ele>
        <time>2021-03-21T10:01:07Z</time>
      </trkpt>
      <trkpt lat="42.92252" lon="2.4528">
        <ele>497.2</ele>
        <time>2021-03-21T10:01:08Z</time>
      </trkpt>
      <trkpt lat="42.92254" lon="2.4527">
        <ele>497.6</ele>
        <time>2021-03-21T10:01:10Z</time>
      </trkpt>
      <trkpt lat="42.92254" lon="2.45265">
        <ele>497.9</ele>
        <time>2021-03-21T10:01:11Z</time>
      </trkpt>
      <trkpt lat="42.92255" lon="2.45259">
        <ele>498.2</ele>
        <time>2021-03-21T10:01:12Z</time>
      </trkpt>
      <trkpt lat="42.92255" lon="2.45254">
        <ele>498.4</ele>
        <time>2021-03-21T10:01:13Z</time>
      </trkpt>
      <trkpt lat="42.92256" lon="2.45246">
        <ele>498.8</ele>
        <time>2021-03-21T10:01:15Z</time>
      </trkpt>
      <trkpt lat="42.92257" lon="2.45238">
        <ele>499.2</ele>
        <time>2021-03-21T10:01:17Z</time>
      </trkpt>
      <trkpt lat="42.92258" lon="2.45233">
        <ele>499.5</ele>
        <time>2021-03-21T10:01:18Z</time>
      </trkpt>
      <trkpt lat="42.92258" lon="2.45228">
        <ele>499.7</ele>
        <time>2021-03-21T10:01:19Z</time>
      </trkpt>
      <trkpt lat="42.92259" lon="2.45222">
        <ele>500</ele>
        <time>2021-03-21T10:01:20Z</time>
      </trkpt>
      <trkpt lat="42.92259" lon="2.45217">
        <ele>500.3</ele>
        <time>2021-03-21T10:01:22Z</time>
      </trkpt>
      <trkpt lat="42.92259" lon="2.45212">
        <ele>500.5</ele>
        <time>2021-03-21T10:01:23Z</time>
      </trkpt>
      <trkpt lat="42.92258" lon="2.45207">
        <ele>500.7</ele>
        <time>2021-03-21T10:01:24Z</time>
      </trkpt>
      <trkpt lat="42.92256" lon="2.45203">
        <ele>501</ele>
        <time>2021-03-21T10:01:25Z</time>
      </trkpt>
      <trkpt lat="42.92253" lon="2.45199">
        <ele>501.2</ele>
        <time>2021-03-21T10:01:26Z</time>
      </trkpt>
      <trkpt lat="42.92249" lon="2.45196">
        <ele>501.4</ele>
        <time>2021-03-21T10:01:27Z</time>
      </trkpt>
      <trkpt lat="42.92245" lon="2.45195">
        <ele>501.6</ele>
        <time>2021-03-21T10:01:29Z</time>
      </trkpt>
      <trkpt lat="42.9224" lon="2.45194">
        <ele>502.1</ele>
        <time>2021-03-21T10:01:30Z</time>
      </trkpt>
      <trkpt lat="42.92234" lon="2.45194">
        <ele>502.3</ele>
        <time>2021-03-21T10:01:31Z</time>
      </trkpt>
      <trkpt lat="42.9223" lon="2.45197">
        <ele>502.5</ele>
        <time>2021-03-21T10:01:33Z</time>
      </trkpt>
      <trkpt lat="42.92227" lon="2.45201">
        <ele>502.6</ele>
        <time>2021-03-21T10:01:34Z</time>
      </trkpt>
      <trkpt lat="42.92225" lon="2.45206">
        <ele>502.8</ele>
        <time>2021-03-21T10:01:35Z</time>
      </trkpt>
      <trkpt lat="42.92223" lon="2.45212">
        <ele>502.9</ele>
        <time>2021-03-21T10:01:36Z</time>
      </trkpt>
      <trkpt lat="42.92223" lon="2.45215">
        <ele>503</ele>
        <time>2021-03-21T10:01:37Z</time>
      </trkpt>
      <trkpt lat="42.92222" lon="2.4522">
        <ele>503.1</ele>
        <time>2021-03-21T10:01:39Z</time>
      </trkpt>
      <trkpt lat="42.9222" lon="2.45227">
        <ele>503.3</ele>
        <time>2021-03-21T10:01:41Z</time>
      </trkpt>
      <trkpt lat="42.92219" lon="2.45232">
        <ele>503.5</ele>
        <time>2021-03-21T10:01:42Z</time>
      </trkpt>
      <trkpt lat="42.92218" lon="2.45234">
        <ele>503.6</ele>
        <time>2021-03-21T10:01:43Z</time>
      </trkpt>
      <trkpt lat="42.92216" lon="2.4524">
        <ele>503.7</ele>
        <time>2021-03-21T10:01:45Z</time>
      </trkpt>
      <trkpt lat="42.92213" lon="2.45247">
        <ele>504</ele>
        <time>2021-03-21T10:01:46Z</time>
      </trkpt>
      <trkpt lat="42.92211" lon="2.4525">
        <ele>504.2</ele>
        <time>2021-03-21T10:01:47Z</time>
      </trkpt>
      <trkpt lat="42.92209" lon="2.45255">
        <ele>504.4</ele>
        <time>2021-03-21T10:01:48Z</time>
      </trkpt>
      <trkpt lat="42.92205" lon="2.45261">
        <ele>504.7</ele>
        <time>2021-03-21T10:01:50Z</time>
      </trkpt>
      <trkpt lat="42.92201" lon="2.45268">
        <ele>505.1</ele>
        <time>2021-03-21T10:01:51Z</time>
      </trkpt>
      <trkpt lat="42.92199" lon="2.45271">
        <ele>505.3</ele>
        <time>2021-03-21T10:01:52Z</time>
      </trkpt>
      <trkpt lat="42.92197" lon="2.45275">
        <ele>505.5</ele>
        <time>2021-03-21T10:01:53Z</time>
      </trkpt>
      <trkpt lat="42.92194" lon="2.45281">
        <ele>505.9</ele>
        <time>2021-03-21T10:01:55Z</time>
      </trkpt>
      <trkpt lat="42.9219" lon="2.45288">
        <ele>506.3</ele>
        <time>2021-03-21T10:01:56Z</time>
      </trkpt>
      <trkpt lat="42.92188" lon="2.45291">
        <ele>506.5</ele>
        <time>2021-03-21T10:01:57Z</time>
      </trkpt>
      <trkpt lat="42.92185" lon="2.45296">
        <ele>506.9</ele>
        <time>2021-03-21T10:01:59Z</time>
      </trkpt>
      <trkpt lat="42.92181" lon="2.45301">
        <ele>507.2</ele>
        <time>2021-03-21T10:02:00Z</time>
      </trkpt>
      <trkpt lat="42.92178" lon="2.45305">
        <ele>507.5</ele>
        <time>2021-03-21T10:02:01Z</time>
      </trkpt>
      <trkpt lat="42.92174" lon="2.45309">
        <ele>507.9</ele>
        <time>2021-03-21T10:02:03Z</time>
      </trkpt>
      <trkpt lat="42.92168" lon="2.45313">
        <ele>508.3</ele>
        <time>2021-03-21T10:02:04Z</time>
      </trkpt>
      <trkpt lat="42.92164" lon="2.45314">
        <ele>508.6</ele>
        <time>2021-03-21T10:02:06Z</time>
      </trkpt>
      <trkpt lat="42.92159" lon="2.45314">
        <ele>508.9</ele>
        <time>2021-03-21T10:02:07Z</time>
      </trkpt>
      <trkpt lat="42.92155" lon="2.45312">
        <ele>509.2</ele>
        <time>2021-03-21T10:02:08Z</time>
      </trkpt>
      <trkpt lat="42.9215" lon="2.4531">
        <ele>509.5</ele>
        <time>2021-03-21T10:02:09Z</time>
      </trkpt>
      <trkpt lat="42.92143" lon="2.45307">
        <ele>509.9</ele>
        <time>2021-03-21T10:02:11Z</time>
      </trkpt>
      <trkpt lat="42.92139" lon="2.45305">
        <ele>510.2</ele>
        <time>2021-03-21T10:02:12Z</time>
      </trkpt>
      <trkpt lat="42.92136" lon="2.45303">
        <ele>510.4</ele>
        <time>2021-03-21T10:02:13Z</time>
      </trkpt>
      <trkpt lat="42.92131" lon="2.45301">
        <ele>510.8</ele>
        <time>2021-03-21T10:02:14Z</time>
      </trkpt>
      <trkpt lat="42.92127" lon="2.453">
        <ele>511.1</ele>
        <time>2021-03-21T10:02:16Z</time>
      </trkpt>
      <trkpt lat="42.92123" lon="2.45298">
        <ele>511.3</ele>
        <time>2021-03-21T10:02:17Z</time>
      </trkpt>
      <trkpt lat="42.9212" lon="2.45295">
        <ele>511.6</ele>
        <time>2021-03-21T10:02:18Z</time>
      </trkpt>
      <trkpt lat="42.92117" lon="2.45294">
        <ele>511.8</ele>
        <time>2021-03-21T10:02:19Z</time>
      </trkpt>
      <trkpt lat="42.92112" lon="2.45289">
        <ele>512.1</ele>
        <time>2021-03-21T10:02:21Z</time>
      </trkpt>
      <trkpt lat="42.9211" lon="2.45287">
        <ele>512.3</ele>
        <time>2021-03-21T10:02:22Z</time>
      </trkpt>
      <trkpt lat="42.92106" lon="2.45282">
        <ele>512.5</ele>
        <time>2021-03-21T10:02:24Z</time>
      </trkpt>
      <trkpt lat="42.92103" lon="2.45277">
        <ele>512.8</ele>
        <time>2021-03-21T10:02:25Z</time>
      </trkpt>
      <trkpt lat="42.92101" lon="2.45275">
        <ele>512.9</ele>
        <time>2021-03-21T10:02:26Z</time>
      </trkpt>
      <trkpt lat="42.92099" lon="2.45273">
        <ele>513.1</ele>
        <time>2021-03-21T10:02:27Z</time>
      </trkpt>
      <trkpt lat="42.92097" lon="2.45268">
        <ele>513.3</ele>
        <time>2021-03-21T10:02:29Z</time>
      </trkpt>
      <trkpt lat="42.92094" lon="2.45263">
        <ele>513.6</ele>
        <time>2021-03-21T10:02:30Z</time>
      </trkpt>
      <trkpt lat="42.9209" lon="2.45257">
        <ele>513.9</ele>
        <time>2021-03-21T10:02:31Z</time>
      </trkpt>
      <trkpt lat="42.92087" lon="2.45252">
        <ele>514.2</ele>
        <time>2021-03-21T10:02:32Z</time>
      </trkpt>
      <trkpt lat="42.92083" lon="2.45246">
        <ele>514.5</ele>
        <time>2021-03-21T10:02:34Z</time>
      </trkpt>
      <trkpt lat="42.9208" lon="2.4524">
        <ele>514.8</ele>
        <time>2021-03-21T10:02:35Z</time>
      </trkpt>
      <trkpt lat="42.92076" lon="2.45234">
        <ele>515.1</ele>
        <time>2021-03-21T10:02:36Z</time>
      </trkpt>
      <trkpt lat="42.92072" lon="2.45229">
        <ele>515.4</ele>
        <time>2021-03-21T10:02:38Z</time>
      </trkpt>
      <trkpt lat="42.92069" lon="2.45225">
        <ele>515.6</ele>
        <time>2021-03-21T10:02:39Z</time>
      </trkpt>
      <trkpt lat="42.92066" lon="2.45222">
        <ele>515.8</ele>
        <time>2021-03-21T10:02:40Z</time>
      </trkpt>
      <trkpt lat="42.92062" lon="2.45217">
        <ele>516.1</ele>
        <time>2021-03-21T10:02:41Z</time>
      </trkpt>
      <trkpt lat="42.92059" lon="2.45214">
        <ele>516.2</ele>
        <time>2021-03-21T10:02:42Z</time>
      </trkpt>
      <trkpt lat="42.92055" lon="2.4521">
        <ele>516.5</ele>
        <time>2021-03-21T10:02:44Z</time>
      </trkpt>
      <trkpt lat="42.92051" lon="2.45205">
        <ele>516.7</ele>
        <time>2021-03-21T10:02:45Z</time>
      </trkpt>
      <trkpt lat="42.92045" lon="2.45198">
        <ele>517.1</ele>
        <time>2021-03-21T10:02:47Z</time>
      </trkpt>
      <trkpt lat="42.92043" lon="2.45195">
        <ele>517.3</ele>
        <time>2021-03-21T10:02:48Z</time>
      </trkpt>
      <trkpt lat="42.9204" lon="2.45191">
        <ele>517.5</ele>
        <time>2021-03-21T10:02:49Z</time>
      </trkpt>
      <trkpt lat="42.92038" lon="2.45188">
        <ele>517.7</ele>
        <time>2021-03-21T10:02:50Z</time>
      </trkpt>
      <trkpt lat="42.92033" lon="2.45181">
        <ele>518.1</ele>
        <time>2021-03-21T10:02:52Z</time>
      </trkpt>
      <trkpt lat="42.92029" lon="2.45177">
        <ele>518.3</ele>
        <time>2021-03-21T10:02:53Z</time>
      </trkpt>
      <trkpt lat="42.92025" lon="2.45171">
        <ele>518.7</ele>
        <time>2021-03-21T10:02:55Z</time>
      </trkpt>
      <trkpt lat="42.92021" lon="2.45165">
        <ele>519.1</ele>
        <time>2021-03-21T10:02:56Z</time>
      </trkpt>
      <trkpt lat="42.92017" lon="2.4516">
        <ele>519.4</ele>
        <time>2021-03-21T10:02:58Z</time>
      </trkpt>
      <trkpt lat="42.92014" lon="2.45157">
        <ele>519.6</ele>
        <time>2021-03-21T10:02:59Z</time>
      </trkpt>
      <trkpt lat="42.9201" lon="2.45155">
        <ele>519.9</ele>
        <time>2021-03-21T10:03:00Z</time>
      </trkpt>
      <trkpt lat="42.92003" lon="2.45152">
        <ele>520.4</ele>
        <time>2021-03-21T10:03:02Z</time>
      </trkpt>
      <trkpt lat="42.91999" lon="2.45153">
        <ele>520.6</ele>
        <time>2021-03-21T10:03:03Z</time>
      </trkpt>
      <trkpt lat="42.91998" lon="2.45154">
        <ele>520.7</ele>
        <time>2021-03-21T10:03:04Z</time>
      </trkpt>
      <trkpt lat="42.91994" lon="2.45158">
        <ele>520.9</ele>
        <time>2021-03-21T10:03:06Z</time>
      </trkpt>
      <trkpt lat="42.91993" lon="2.45162">
        <ele>521.1</ele>
        <time>2021-03-21T10:03:07Z</time>
      </trkpt>
      <trkpt lat="42.91992" lon="2.45163">
        <ele>521.1</ele>
        <time>2021-03-21T10:03:08Z</time>
      </trkpt>
      <trkpt lat="42.91992" lon="2.45165">
        <ele>521.2</ele>
        <time>2021-03-21T10:03:09Z</time>
      </trkpt>
      <trkpt lat="42.91993" lon="2.4517">
        <ele>521.4</ele>
        <time>2021-03-21T10:03:11Z</time>
      </trkpt>
      <trkpt lat="42.91994" lon="2.45177">
        <ele>521.6</ele>
        <time>2021-03-21T10:03:12Z</time>
      </trkpt>
      <trkpt lat="42.91996" lon="2.45182">
        <ele>521.8</ele>
        <time>2021-03-21T10:03:13Z</time>
      </trkpt>
      <trkpt lat="42.92" lon="2.45188">
        <ele>522</ele>
        <time>2021-03-21T10:03:15Z</time>
      </trkpt>
      <trkpt lat="42.92002" lon="2.45192">
        <ele>522.1</ele>
        <time>2021-03-21T10:03:16Z</time>
      </trkpt>
      <trkpt lat="42.92003" lon="2.45193">
        <ele>522.2</ele>
        <time>2021-03-21T10:03:17Z</time>
      </trkpt>
      <trkpt lat="42.92005" lon="2.45197">
        <ele>522.3</ele>
        <time>2021-03-21T10:03:19Z</time>
      </trkpt>
      <trkpt lat="42.92007" lon="2.452">
        <ele>522.4</ele>
        <time>2021-03-21T10:03:20Z</time>
      </trkpt>
      <trkpt lat="42.9201" lon="2.45205">
        <ele>522.6</ele>
        <time>2021-03-21T10:03:22Z</time>
      </trkpt>
      <trkpt lat="42.92012" lon="2.45208">
        <ele>522.8</ele>
        <time>2021-03-21T10:03:23Z</time>
      </trkpt>
      <trkpt lat="42.92016" lon="2.45214">
        <ele>523</ele>
        <time>2021-03-21T10:03:25Z</time>
      </trkpt>
      <trkpt lat="42.92017" lon="2.45217">
        <ele>523.2</ele>
        <time>2021-03-21T10:03:26Z</time>
      </trkpt>
      <trkpt lat="42.92019" lon="2.45222">
        <ele>523.3</ele>
        <time>2021-03-21T10:03:27Z</time>
      </trkpt>
      <trkpt lat="42.92021" lon="2.45226">
        <ele>523.5</ele>
        <time>2021-03-21T10:03:28Z</time>
      </trkpt>
      <trkpt lat="42.92023" lon="2.45232">
        <ele>523.7</ele>
        <time>2021-03-21T10:03:29Z</time>
      </trkpt>
      <trkpt lat="42.92025" lon="2.45242">
        <ele>524</ele>
        <time>2021-03-21T10:03:31Z</time>
      </trkpt>
      <trkpt lat="42.92027" lon="2.45255">
        <ele>524.5</ele>
        <time>2021-03-21T10:03:32Z</time>
      </trkpt>
      <trkpt lat="42.92025" lon="2.4527">
        <ele>525</ele>
        <time>2021-03-21T10:03:34Z</time>
      </trkpt>
      <trkpt lat="42.92022" lon="2.45277">
        <ele>525.3</ele>
        <time>2021-03-21T10:03:35Z</time>
      </trkpt>
      <trkpt lat="42.92014" lon="2.45292">
        <ele>525.9</ele>
        <time>2021-03-21T10:03:37Z</time>
      </trkpt>
      <trkpt lat="42.92009" lon="2.45298">
        <ele>526.2</ele>
        <time>2021-03-21T10:03:38Z</time>
      </trkpt>
      <trkpt lat="42.92004" lon="2.45303">
        <ele>526.5</ele>
        <time>2021-03-21T10:03:39Z</time>
      </trkpt>
      <trkpt lat="42.92" lon="2.45308">
        <ele>526.7</ele>
        <time>2021-03-21T10:03:41Z</time>
      </trkpt>
      <trkpt lat="42.91993" lon="2.45314">
        <ele>527.1</ele>
        <time>2021-03-21T10:03:42Z</time>
      </trkpt>
      <trkpt lat="42.91989" lon="2.45318">
        <ele>527.3</ele>
        <time>2021-03-21T10:03:43Z</time>
      </trkpt>
      <trkpt lat="42.91987" lon="2.45321">
        <ele>527.4</ele>
        <time>2021-03-21T10:03:44Z</time>
      </trkpt>
      <trkpt lat="42.91982" lon="2.45328">
        <ele>527.7</ele>
        <time>2021-03-21T10:03:46Z</time>
      </trkpt>
      <trkpt lat="42.9198" lon="2.45331">
        <ele>527.8</ele>
        <time>2021-03-21T10:03:47Z</time>
      </trkpt>
      <trkpt lat="42.91978" lon="2.45335">
        <ele>527.9</ele>
        <time>2021-03-21T10:03:48Z</time>
      </trkpt>
      <trkpt lat="42.91976" lon="2.4534">
        <ele>528.1</ele>
        <time>2021-03-21T10:03:49Z</time>
      </trkpt>
      <trkpt lat="42.91971" lon="2.45349">
        <ele>528.4</ele>
        <time>2021-03-21T10:03:51Z</time>
      </trkpt>
      <trkpt lat="42.91969" lon="2.45355">
        <ele>528.7</ele>
        <time>2021-03-21T10:03:52Z</time>
      </trkpt>
      <trkpt lat="42.91966" lon="2.45364">
        <ele>529</ele>
        <time>2021-03-21T10:03:54Z</time>
      </trkpt>
      <trkpt lat="42.91965" lon="2.45369">
        <ele>529.2</ele>
        <time>2021-03-21T10:03:55Z</time>
      </trkpt>
      <trkpt lat="42.91962" lon="2.45376">
        <ele>529.5</ele>
        <time>2021-03-21T10:03:56Z</time>
      </trkpt>
      <trkpt lat="42.91962" lon="2.4538">
        <ele>529.7</ele>
        <time>2021-03-21T10:03:57Z</time>
      </trkpt>
      <trkpt lat="42.9196" lon="2.45385">
        <ele>529.9</ele>
        <time>2021-03-21T10:03:59Z</time>
      </trkpt>
      <trkpt lat="42.91958" lon="2.45391">
        <ele>530.2</ele>
        <time>2021-03-21T10:04:00Z</time>
      </trkpt>
      <trkpt lat="42.91955" lon="2.45398">
        <ele>530.5</ele>
        <time>2021-03-21T10:04:01Z</time>
      </trkpt>
      <trkpt lat="42.91953" lon="2.45403">
        <ele>530.7</ele>
        <time>2021-03-21T10:04:03Z</time>
      </trkpt>
      <trkpt lat="42.91951" lon="2.45407">
        <ele>530.9</ele>
        <time>2021-03-21T10:04:04Z</time>
      </trkpt>
      <trkpt lat="42.9195" lon="2.45408">
        <ele>531</ele>
        <time>2021-03-21T10:04:05Z</time>
      </trkpt>
      <trkpt lat="42.91948" lon="2.45413">
        <ele>531.2</ele>
        <time>2021-03-21T10:04:07Z</time>
      </trkpt>
      <trkpt lat="42.91946" lon="2.45416">
        <ele>531.4</ele>
        <time>2021-03-21T10:04:08Z</time>
      </trkpt>
      <trkpt lat="42.91943" lon="2.45419">
        <ele>531.6</ele>
        <time>2021-03-21T10:04:09Z</time>
      </trkpt>
      <trkpt lat="42.91941" lon="2.45422">
        <ele>531.8</ele>
        <time>2021-03-21T10:04:10Z</time>
      </trkpt>
      <trkpt lat="42.91937" lon="2.45426">
        <ele>532</ele>
        <time>2021-03-21T10:04:11Z</time>
      </trkpt>
      <trkpt lat="42.91934" lon="2.45429">
        <ele>532.2</ele>
        <time>2021-03-21T10:04:12Z</time>
      </trkpt>
      <trkpt lat="42.9193" lon="2.45431">
        <ele>532.4</ele>
        <time>2021-03-21T10:04:14Z</time>
      </trkpt>
      <trkpt lat="42.91926" lon="2.45434">
        <ele>532.7</ele>
        <time>2021-03-21T10:04:15Z</time>
      </trkpt>
      <trkpt lat="42.91922" lon="2.45436">
        <ele>532.9</ele>
        <time>2021-03-21T10:04:16Z</time>
      </trkpt>
      <trkpt lat="42.91917" lon="2.45439">
        <ele>533.2</ele>
        <time>2021-03-21T10:04:17Z</time>
      </trkpt>
      <trkpt lat="42.91914" lon="2.4544">
        <ele>533.4</ele>
        <time>2021-03-21T10:04:18Z</time>
      </trkpt>
      <trkpt lat="42.91908" lon="2.45441">
        <ele>533.7</ele>
        <time>2021-03-21T10:04:20Z</time>
      </trkpt>
      <trkpt lat="42.919" lon="2.45443">
        <ele>534.1</ele>
        <time>2021-03-21T10:04:21Z</time>
      </trkpt>
      <trkpt lat="42.91896" lon="2.45444">
        <ele>534.3</ele>
        <time>2021-03-21T10:04:22Z</time>
      </trkpt>
      <trkpt lat="42.91891" lon="2.45445">
        <ele>534.6</ele>
        <time>2021-03-21T10:04:24Z</time>
      </trkpt>
      <trkpt lat="42.91887" lon="2.45446">
        <ele>534.8</ele>
        <time>2021-03-21T10:04:25Z</time>
      </trkpt>
      <trkpt lat="42.91878" lon="2.45447">
        <ele>535.2</ele>
        <time>2021-03-21T10:04:27Z</time>
      </trkpt>
      <trkpt lat="42.91873" lon="2.45448">
        <ele>535.5</ele>
        <time>2021-03-21T10:04:28Z</time>
      </trkpt>
      <trkpt lat="42.91869" lon="2.45448">
        <ele>535.7</ele>
        <time>2021-03-21T10:04:29Z</time>
      </trkpt>
      <trkpt lat="42.91866" lon="2.45448">
        <ele>535.8</ele>
        <time>2021-03-21T10:04:30Z</time>
      </trkpt>
      <trkpt lat="42.91857" lon="2.45448">
        <ele>536.2</ele>
        <time>2021-03-21T10:04:32Z</time>
      </trkpt>
      <trkpt lat="42.91852" lon="2.45447">
        <ele>536.5</ele>
        <time>2021-03-21T10:04:34Z</time>
      </trkpt>
      <trkpt lat="42.91849" lon="2.45445">
        <ele>536.7</ele>
        <time>2021-03-21T10:04:35Z</time>
      </trkpt>
      <trkpt lat="42.91846" lon="2.45443">
        <ele>536.9</ele>
        <time>2021-03-21T10:04:36Z</time>
      </trkpt>
      <trkpt lat="42.9184" lon="2.45437">
        <ele>537.3</ele>
        <time>2021-03-21T10:04:37Z</time>
      </trkpt>
      <trkpt lat="42.91837" lon="2.45432">
        <ele>537.6</ele>
        <time>2021-03-21T10:04:39Z</time>
      </trkpt>
      <trkpt lat="42.91834" lon="2.45425">
        <ele>537.9</ele>
        <time>2021-03-21T10:04:40Z</time>
      </trkpt>
      <trkpt lat="42.91831" lon="2.45417">
        <ele>538.4</ele>
        <time>2021-03-21T10:04:42Z</time>
      </trkpt>
      <trkpt lat="42.9183" lon="2.45413">
        <ele>538.6</ele>
        <time>2021-03-21T10:04:43Z</time>
      </trkpt>
      <trkpt lat="42.91828" lon="2.45408">
        <ele>538.8</ele>
        <time>2021-03-21T10:04:44Z</time>
      </trkpt>
      <trkpt lat="42.91826" lon="2.45403">
        <ele>539</ele>
        <time>2021-03-21T10:04:45Z</time>
      </trkpt>
      <trkpt lat="42.91823" lon="2.45395">
        <ele>539.4</ele>
        <time>2021-03-21T10:04:47Z</time>
      </trkpt>
      <trkpt lat="42.91822" lon="2.45391">
        <ele>539.6</ele>
        <time>2021-03-21T10:04:48Z</time>
      </trkpt>
      <trkpt lat="42.91821" lon="2.45386">
        <ele>539.8</ele>
        <time>2021-03-21T10:04:49Z</time>
      </trkpt>
      <trkpt lat="42.9182" lon="2.4538">
        <ele>540.1</ele>
        <time>2021-03-21T10:04:50Z</time>
      </trkpt>
      <trkpt lat="42.9182" lon="2.45376">
        <ele>540.3</ele>
        <time>2021-03-21T10:04:51Z</time>
      </trkpt>
      <trkpt lat="42.91819" lon="2.45369">
        <ele>540.6</ele>
        <time>2021-03-21T10:04:52Z</time>
      </trkpt>
      <trkpt lat="42.91819" lon="2.45365">
        <ele>540.8</ele>
        <time>2021-03-21T10:04:53Z</time>
      </trkpt>
      <trkpt lat="42.91818" lon="2.45359">
        <ele>541.2</ele>
        <time>2021-03-21T10:04:55Z</time>
      </trkpt>
      <trkpt lat="42.91818" lon="2.45355">
        <ele>541.4</ele>
        <time>2021-03-21T10:04:56Z</time>
      </trkpt>
      <trkpt lat="42.91817" lon="2.45346">
        <ele>541.9</ele>
        <time>2021-03-21T10:04:58Z</time>
      </trkpt>
      <trkpt lat="42.91816" lon="2.45341">
        <ele>542.1</ele>
        <time>2021-03-21T10:04:59Z</time>
      </trkpt>
      <trkpt lat="42.91815" lon="2.45337">
        <ele>542.4</ele>
        <time>2021-03-21T10:05:00Z</time>
      </trkpt>
      <trkpt lat="42.91813" lon="2.45328">
        <ele>542.8</ele>
        <time>2021-03-21T10:05:02Z</time>
      </trkpt>
      <trkpt lat="42.91811" lon="2.45324">
        <ele>543.1</ele>
        <time>2021-03-21T10:05:03Z</time>
      </trkpt>
      <trkpt lat="42.91809" lon="2.4532">
        <ele>543.3</ele>
        <time>2021-03-21T10:05:04Z</time>
      </trkpt>
      <trkpt lat="42.91806" lon="2.45317">
        <ele>543.6</ele>
        <time>2021-03-21T10:05:06Z</time>
      </trkpt>
      <trkpt lat="42.918" lon="2.45314">
        <ele>544</ele>
        <time>2021-03-21T10:05:07Z</time>
      </trkpt>
      <trkpt lat="42.91797" lon="2.45314">
        <ele>544.2</ele>
        <time>2021-03-21T10:05:08Z</time>
      </trkpt>
      <trkpt lat="42.91793" lon="2.45314">
        <ele>544.4</ele>
        <time>2021-03-21T10:05:09Z</time>
      </trkpt>
      <trkpt lat="42.91791" lon="2.45315">
        <ele>544.5</ele>
        <time>2021-03-21T10:05:10Z</time>
      </trkpt>
      <trkpt lat="42.91784" lon="2.45318">
        <ele>544.9</ele>
        <time>2021-03-21T10:05:12Z</time>
      </trkpt>
      <trkpt lat="42.9178" lon="2.4532">
        <ele>545.1</ele>
        <time>2021-03-21T10:05:13Z</time>
      </trkpt>
      <trkpt lat="42.91779" lon="2.45321">
        <ele>545.2</ele>
        <time>2021-03-21T10:05:14Z</time>
      </trkpt>
      <trkpt lat="42.91774" lon="2.45321">
        <ele>545.5</ele>
        <time>2021-03-21T10:05:16Z</time>
      </trkpt>
      <trkpt lat="42.91768" lon="2.45319">
        <ele>545.8</ele>
        <time>2021-03-21T10:05:17Z</time>
      </trkpt>
      <trkpt lat="42.91764" lon="2.45317">
        <ele>546</ele>
        <time>2021-03-21T10:05:18Z</time>
      </trkpt>
      <trkpt lat="42.91761" lon="2.45314">
        <ele>546.2</ele>
        <time>2021-03-21T10:05:19Z</time>
      </trkpt>
      <trkpt lat="42.91757" lon="2.4531">
        <ele>546.4</ele>
        <time>2021-03-21T10:05:20Z</time>
      </trkpt>
      <trkpt lat="42.91752" lon="2.45304">
        <ele>546.7</ele>
        <time>2021-03-21T10:05:21Z</time>
      </trkpt>
      <trkpt lat="42.91749" lon="2.45299">
        <ele>546.9</ele>
        <time>2021-03-21T10:05:23Z</time>
      </trkpt>
      <trkpt lat="42.91747" lon="2.45295">
        <ele>547.1</ele>
        <time>2021-03-21T10:05:24Z</time>
      </trkpt>
      <trkpt lat="42.91745" lon="2.4529">
        <ele>547.3</ele>
        <time>2021-03-21T10:05:25Z</time>
      </trkpt>
      <trkpt lat="42.9174" lon="2.45281">
        <ele>547.5</ele>
        <time>2021-03-21T10:05:27Z</time>
      </trkpt>
      <trkpt lat="42.91738" lon="2.45277">
        <ele>547.7</ele>
        <time>2021-03-21T10:05:28Z</time>
      </trkpt>
      <trkpt lat="42.91737" lon="2.45272">
        <ele>547.8</ele>
        <time>2021-03-21T10:05:29Z</time>
      </trkpt>
      <trkpt lat="42.91735" lon="2.45265">
        <ele>548</ele>
        <time>2021-03-21T10:05:31Z</time>
      </trkpt>
      <trkpt lat="42.91732" lon="2.45257">
        <ele>548.3</ele>
        <time>2021-03-21T10:05:32Z</time>
      </trkpt>
      <trkpt lat="42.91731" lon="2.45254">
        <ele>548.5</ele>
        <time>2021-03-21T10:05:33Z</time>
      </trkpt>
      <trkpt lat="42.91729" lon="2.45249">
        <ele>548.7</ele>
        <time>2021-03-21T10:05:35Z</time>
      </trkpt>
      <trkpt lat="42.91726" lon="2.45243">
        <ele>549</ele>
        <time>2021-03-21T10:05:36Z</time>
      </trkpt>
      <trkpt lat="42.91722" lon="2.45233">
        <ele>549.5</ele>
        <time>2021-03-21T10:05:38Z</time>
      </trkpt>
      <trkpt lat="42.91721" lon="2.45229">
        <ele>549.7</ele>
        <time>2021-03-21T10:05:39Z</time>
      </trkpt>
      <trkpt lat="42.91718" lon="2.45223">
        <ele>550.1</ele>
        <time>2021-03-21T10:05:41Z</time>
      </trkpt>
      <trkpt lat="42.91715" lon="2.45216">
        <ele>550.4</ele>
        <time>2021-03-21T10:05:42Z</time>
      </trkpt>
      <trkpt lat="42.91712" lon="2.4521">
        <ele>550.8</ele>
        <time>2021-03-21T10:05:44Z</time>
      </trkpt>
      <trkpt lat="42.9171" lon="2.45207">
        <ele>551</ele>
        <time>2021-03-21T10:05:45Z</time>
      </trkpt>
      <trkpt lat="42.91705" lon="2.452">
        <ele>551.4</ele>
        <time>2021-03-21T10:05:47Z</time>
      </trkpt>
      <trkpt lat="42.91702" lon="2.45197">
        <ele>551.6</ele>
        <time>2021-03-21T10:05:48Z</time>
      </trkpt>
      <trkpt lat="42.91699" lon="2.45195">
        <ele>551.8</ele>
        <time>2021-03-21T10:05:49Z</time>
      </trkpt>
      <trkpt lat="42.91696" lon="2.45194">
        <ele>552</ele>
        <time>2021-03-21T10:05:50Z</time>
      </trkpt>
      <trkpt lat="42.91693" lon="2.45192">
        <ele>552.2</ele>
        <time>2021-03-21T10:05:51Z</time>
      </trkpt>
      <trkpt lat="42.91685" lon="2.45189">
        <ele>552.6</ele>
        <time>2021-03-21T10:05:53Z</time>
      </trkpt>
      <trkpt lat="42.91681" lon="2.45188">
        <ele>552.8</ele>
        <time>2021-03-21T10:05:54Z</time>
      </trkpt>
      <trkpt lat="42.91677" lon="2.45187">
        <ele>553</ele>
        <time>2021-03-21T10:05:55Z</time>
      </trkpt>
      <trkpt lat="42.91673" lon="2.45187">
        <ele>553.3</ele>
        <time>2021-03-21T10:05:56Z</time>
      </trkpt>
      <trkpt lat="42.91666" lon="2.45184">
        <ele>553.7</ele>
        <time>2021-03-21T10:05:58Z</time>
      </trkpt>
      <trkpt lat="42.91663" lon="2.45182">
        <ele>553.9</ele>
        <time>2021-03-21T10:05:59Z</time>
      </trkpt>
      <trkpt lat="42.9166" lon="2.4518">
        <ele>554.1</ele>
        <time>2021-03-21T10:06:00Z</time>
      </trkpt>
      <trkpt lat="42.91656" lon="2.45176">
        <ele>554.4</ele>
        <time>2021-03-21T10:06:01Z</time>
      </trkpt>
      <trkpt lat="42.91651" lon="2.45171">
        <ele>554.8</ele>
        <time>2021-03-21T10:06:02Z</time>
      </trkpt>
      <trkpt lat="42.91649" lon="2.45168">
        <ele>555.1</ele>
        <time>2021-03-21T10:06:04Z</time>
      </trkpt>
      <trkpt lat="42.91645" lon="2.45166">
        <ele>555.4</ele>
        <time>2021-03-21T10:06:05Z</time>
      </trkpt>
      <trkpt lat="42.9164" lon="2.45165">
        <ele>555.7</ele>
        <time>2021-03-21T10:06:07Z</time>
      </trkpt>
      <trkpt lat="42.91633" lon="2.45165">
        <ele>556.3</ele>
        <time>2021-03-21T10:06:08Z</time>
      </trkpt>
      <trkpt lat="42.91629" lon="2.45166">
        <ele>556.5</ele>
        <time>2021-03-21T10:06:09Z</time>
      </trkpt>
      <trkpt lat="42.91624" lon="2.45168">
        <ele>556.9</ele>
        <time>2021-03-21T10:06:11Z</time>
      </trkpt>
      <trkpt lat="42.91617" lon="2.4517">
        <ele>557.3</ele>
        <time>2021-03-21T10:06:12Z</time>
      </trkpt>
      <trkpt lat="42.91614" lon="2.45171">
        <ele>557.6</ele>
        <time>2021-03-21T10:06:13Z</time>
      </trkpt>
      <trkpt lat="42.91608" lon="2.45173">
        <ele>557.9</ele>
        <time>2021-03-21T10:06:15Z</time>
      </trkpt>
      <trkpt lat="42.91604" lon="2.45175">
        <ele>558.2</ele>
        <time>2021-03-21T10:06:17Z</time>
      </trkpt>
      <trkpt lat="42.91597" lon="2.45177">
        <ele>558.7</ele>
        <time>2021-03-21T10:06:18Z</time>
      </trkpt>
      <trkpt lat="42.9159" lon="2.45179">
        <ele>559.2</ele>
        <time>2021-03-21T10:06:20Z</time>
      </trkpt>
      <trkpt lat="42.91585" lon="2.4518">
        <ele>559.5</ele>
        <time>2021-03-21T10:06:21Z</time>
      </trkpt>
      <trkpt lat="42.91577" lon="2.45182">
        <ele>560</ele>
        <time>2021-03-21T10:06:23Z</time>
      </trkpt>
      <trkpt lat="42.91571" lon="2.45182">
        <ele>560.3</ele>
        <time>2021-03-21T10:06:24Z</time>
      </trkpt>
      <trkpt lat="42.91564" lon="2.45181">
        <ele>560.8</ele>
        <time>2021-03-21T10:06:26Z</time>
      </trkpt>
      <trkpt lat="42.91557" lon="2.45177">
        <ele>561.2</ele>
        <time>2021-03-21T10:06:27Z</time>
      </trkpt>
      <trkpt lat="42.91555" lon="2.45174">
        <ele>561.4</ele>
        <time>2021-03-21T10:06:28Z</time>
      </trkpt>
      <trkpt lat="42.91552" lon="2.45167">
        <ele>561.7</ele>
        <time>2021-03-21T10:06:30Z</time>
      </trkpt>
      <trkpt lat="42.91547" lon="2.45155">
        <ele>562.3</ele>
        <time>2021-03-21T10:06:32Z</time>
      </trkpt>
      <trkpt lat="42.91545" lon="2.45149">
        <ele>562.5</ele>
        <time>2021-03-21T10:06:34Z</time>
      </trkpt>
      <trkpt lat="42.91541" lon="2.45142">
        <ele>562.8</ele>
        <time>2021-03-21T10:06:36Z</time>
      </trkpt>
      <trkpt lat="42.91535" lon="2.45135">
        <ele>563.2</ele>
        <time>2021-03-21T10:06:38Z</time>
      </trkpt>
      <trkpt lat="42.91531" lon="2.45132">
        <ele>563.4</ele>
        <time>2021-03-21T10:06:39Z</time>
      </trkpt>
      <trkpt lat="42.91528" lon="2.4513">
        <ele>563.6</ele>
        <time>2021-03-21T10:06:40Z</time>
      </trkpt>
      <trkpt lat="42.91525" lon="2.45126">
        <ele>563.8</ele>
        <time>2021-03-21T10:06:42Z</time>
      </trkpt>
      <trkpt lat="42.9152" lon="2.4512">
        <ele>564</ele>
        <time>2021-03-21T10:06:43Z</time>
      </trkpt>
      <trkpt lat="42.91516" lon="2.45114">
        <ele>564.3</ele>
        <time>2021-03-21T10:06:45Z</time>
      </trkpt>
      <trkpt lat="42.91514" lon="2.45108">
        <ele>564.5</ele>
        <time>2021-03-21T10:06:46Z</time>
      </trkpt>
      <trkpt lat="42.91512" lon="2.45099">
        <ele>564.8</ele>
        <time>2021-03-21T10:06:48Z</time>
      </trkpt>
      <trkpt lat="42.91511" lon="2.45093">
        <ele>565</ele>
        <time>2021-03-21T10:06:49Z</time>
      </trkpt>
      <trkpt lat="42.91511" lon="2.45084">
        <ele>565.3</ele>
        <time>2021-03-21T10:06:51Z</time>
      </trkpt>
      <trkpt lat="42.9151" lon="2.45074">
        <ele>565.6</ele>
        <time>2021-03-21T10:06:52Z</time>
      </trkpt>
      <trkpt lat="42.91509" lon="2.4507">
        <ele>565.8</ele>
        <time>2021-03-21T10:06:53Z</time>
      </trkpt>
      <trkpt lat="42.91507" lon="2.45063">
        <ele>566</ele>
        <time>2021-03-21T10:06:55Z</time>
      </trkpt>
      <trkpt lat="42.91505" lon="2.45058">
        <ele>566.3</ele>
        <time>2021-03-21T10:06:56Z</time>
      </trkpt>
      <trkpt lat="42.91501" lon="2.45051">
        <ele>566.6</ele>
        <time>2021-03-21T10:06:57Z</time>
      </trkpt>
      <trkpt lat="42.91498" lon="2.45048">
        <ele>566.8</ele>
        <time>2021-03-21T10:06:59Z</time>
      </trkpt>
      <trkpt lat="42.91495" lon="2.45045">
        <ele>567</ele>
        <time>2021-03-21T10:07:00Z</time>
      </trkpt>
      <trkpt lat="42.91491" lon="2.45042">
        <ele>567.2</ele>
        <time>2021-03-21T10:07:01Z</time>
      </trkpt>
      <trkpt lat="42.91484" lon="2.4504">
        <ele>567.5</ele>
        <time>2021-03-21T10:07:02Z</time>
      </trkpt>
      <trkpt lat="42.91481" lon="2.45039">
        <ele>567.7</ele>
        <time>2021-03-21T10:07:04Z</time>
      </trkpt>
      <trkpt lat="42.91478" lon="2.45037">
        <ele>567.8</ele>
        <time>2021-03-21T10:07:05Z</time>
      </trkpt>
      <trkpt lat="42.91475" lon="2.45035">
        <ele>568</ele>
        <time>2021-03-21T10:07:06Z</time>
      </trkpt>
      <trkpt lat="42.9147" lon="2.45031">
        <ele>568.2</ele>
        <time>2021-03-21T10:07:07Z</time>
      </trkpt>
      <trkpt lat="42.91465" lon="2.45026">
        <ele>568.5</ele>
        <time>2021-03-21T10:07:09Z</time>
      </trkpt>
      <trkpt lat="42.91461" lon="2.45021">
        <ele>568.8</ele>
        <time>2021-03-21T10:07:11Z</time>
      </trkpt>
      <trkpt lat="42.91457" lon="2.45015">
        <ele>569.1</ele>
        <time>2021-03-21T10:07:12Z</time>
      </trkpt>
      <trkpt lat="42.91455" lon="2.45012">
        <ele>569.2</ele>
        <time>2021-03-21T10:07:13Z</time>
      </trkpt>
      <trkpt lat="42.91453" lon="2.45008">
        <ele>569.4</ele>
        <time>2021-03-21T10:07:14Z</time>
      </trkpt>
      <trkpt lat="42.91451" lon="2.45003">
        <ele>569.6</ele>
        <time>2021-03-21T10:07:16Z</time>
      </trkpt>
      <trkpt lat="42.91448" lon="2.44999">
        <ele>569.8</ele>
        <time>2021-03-21T10:07:17Z</time>
      </trkpt>
      <trkpt lat="42.91444" lon="2.44994">
        <ele>570.1</ele>
        <time>2021-03-21T10:07:18Z</time>
      </trkpt>
      <trkpt lat="42.91441" lon="2.44992">
        <ele>570.3</ele>
        <time>2021-03-21T10:07:20Z</time>
      </trkpt>
      <trkpt lat="42.91438" lon="2.44988">
        <ele>570.5</ele>
        <time>2021-03-21T10:07:21Z</time>
      </trkpt>
      <trkpt lat="42.91434" lon="2.44983">
        <ele>570.8</ele>
        <time>2021-03-21T10:07:22Z</time>
      </trkpt>
      <trkpt lat="42.91432" lon="2.44981">
        <ele>571</ele>
        <time>2021-03-21T10:07:23Z</time>
      </trkpt>
      <trkpt lat="42.9143" lon="2.44977">
        <ele>571.2</ele>
        <time>2021-03-21T10:07:25Z</time>
      </trkpt>
      <trkpt lat="42.91427" lon="2.44974">
        <ele>571.5</ele>
        <time>2021-03-21T10:07:26Z</time>
      </trkpt>
      <trkpt lat="42.91422" lon="2.44966">
        <ele>572</ele>
        <time>2021-03-21T10:07:28Z</time>
      </trkpt>
      <trkpt lat="42.91419" lon="2.44963">
        <ele>572.3</ele>
        <time>2021-03-21T10:07:29Z</time>
      </trkpt>
      <trkpt lat="42.91417" lon="2.4496">
        <ele>572.6</ele>
        <time>2021-03-21T10:07:30Z</time>
      </trkpt>
      <trkpt lat="42.91412" lon="2.44955">
        <ele>573.1</ele>
        <time>2021-03-21T10:07:32Z</time>
      </trkpt>
      <trkpt lat="42.91407" lon="2.44949">
        <ele>573.7</ele>
        <time>2021-03-21T10:07:33Z</time>
      </trkpt>
      <trkpt lat="42.91403" lon="2.44946">
        <ele>574.1</ele>
        <time>2021-03-21T10:07:34Z</time>
      </trkpt>
      <trkpt lat="42.91399" lon="2.44942">
        <ele>574.5</ele>
        <time>2021-03-21T10:07:35Z</time>
      </trkpt>
      <trkpt lat="42.91395" lon="2.44938">
        <ele>574.9</ele>
        <time>2021-03-21T10:07:36Z</time>
      </trkpt>
      <trkpt lat="42.9139" lon="2.44934">
        <ele>575.4</ele>
        <time>2021-03-21T10:07:37Z</time>
      </trkpt>
      <trkpt lat="42.91384" lon="2.44929">
        <ele>576</ele>
        <time>2021-03-21T10:07:39Z</time>
      </trkpt>
      <trkpt lat="42.9138" lon="2.44926">
        <ele>576.4</ele>
        <time>2021-03-21T10:07:40Z</time>
      </trkpt>
      <trkpt lat="42.91376" lon="2.44923">
        <ele>576.7</ele>
        <time>2021-03-21T10:07:41Z</time>
      </trkpt>
      <trkpt lat="42.91369" lon="2.44918">
        <ele>577.5</ele>
        <time>2021-03-21T10:07:42Z</time>
      </trkpt>
      <trkpt lat="42.91364" lon="2.44916">
        <ele>577.9</ele>
        <time>2021-03-21T10:07:44Z</time>
      </trkpt>
      <trkpt lat="42.91359" lon="2.44914">
        <ele>578.4</ele>
        <time>2021-03-21T10:07:45Z</time>
      </trkpt>
      <trkpt lat="42.91354" lon="2.44912">
        <ele>578.9</ele>
        <time>2021-03-21T10:07:47Z</time>
      </trkpt>
      <trkpt lat="42.91346" lon="2.4491">
        <ele>579.5</ele>
        <time>2021-03-21T10:07:48Z</time>
      </trkpt>
      <trkpt lat="42.91341" lon="2.4491">
        <ele>580</ele>
        <time>2021-03-21T10:07:50Z</time>
      </trkpt>
      <trkpt lat="42.91336" lon="2.44909">
        <ele>580.4</ele>
        <time>2021-03-21T10:07:51Z</time>
      </trkpt>
      <trkpt lat="42.91329" lon="2.44908">
        <ele>580.9</ele>
        <time>2021-03-21T10:07:52Z</time>
      </trkpt>
      <trkpt lat="42.91325" lon="2.44908">
        <ele>581.2</ele>
        <time>2021-03-21T10:07:54Z</time>
      </trkpt>
      <trkpt lat="42.91321" lon="2.44907">
        <ele>581.6</ele>
        <time>2021-03-21T10:07:55Z</time>
      </trkpt>
      <trkpt lat="42.91318" lon="2.44906">
        <ele>581.9</ele>
        <time>2021-03-21T10:07:56Z</time>
      </trkpt>
      <trkpt lat="42.91312" lon="2.44904">
        <ele>582.4</ele>
        <time>2021-03-21T10:07:57Z</time>
      </trkpt>
      <trkpt lat="42.91308" lon="2.44903">
        <ele>582.7</ele>
        <time>2021-03-21T10:07:59Z</time>
      </trkpt>
      <trkpt lat="42.91305" lon="2.44902">
        <ele>583</ele>
        <time>2021-03-21T10:08:00Z</time>
      </trkpt>
      <trkpt lat="42.91302" lon="2.449">
        <ele>583.2</ele>
        <time>2021-03-21T10:08:01Z</time>
      </trkpt>
      <trkpt lat="42.91299" lon="2.44898">
        <ele>583.5</ele>
        <time>2021-03-21T10:08:02Z</time>
      </trkpt>
      <trkpt lat="42.91294" lon="2.44895">
        <ele>584</ele>
        <time>2021-03-21T10:08:03Z</time>
      </trkpt>
      <trkpt lat="42.91291" lon="2.44893">
        <ele>584.3</ele>
        <time>2021-03-21T10:08:05Z</time>
      </trkpt>
      <trkpt lat="42.91288" lon="2.44891">
        <ele>584.5</ele>
        <time>2021-03-21T10:08:06Z</time>
      </trkpt>
      <trkpt lat="42.91282" lon="2.44885">
        <ele>585.1</ele>
        <time>2021-03-21T10:08:08Z</time>
      </trkpt>
      <trkpt lat="42.91279" lon="2.44881">
        <ele>585.4</ele>
        <time>2021-03-21T10:08:10Z</time>
      </trkpt>
      <trkpt lat="42.91276" lon="2.44878">
        <ele>585.7</ele>
        <time>2021-03-21T10:08:12Z</time>
      </trkpt>
      <trkpt lat="42.91271" lon="2.44872">
        <ele>586.1</ele>
        <time>2021-03-21T10:08:13Z</time>
      </trkpt>
      <trkpt lat="42.91268" lon="2.44868">
        <ele>586.4</ele>
        <time>2021-03-21T10:08:15Z</time>
      </trkpt>
      <trkpt lat="42.91266" lon="2.44864">
        <ele>586.7</ele>
        <time>2021-03-21T10:08:17Z</time>
      </trkpt>
      <trkpt lat="42.91262" lon="2.44858">
        <ele>587.1</ele>
        <time>2021-03-21T10:08:18Z</time>
      </trkpt>
      <trkpt lat="42.91258" lon="2.44854">
        <ele>587.4</ele>
        <time>2021-03-21T10:08:19Z</time>
      </trkpt>
      <trkpt lat="42.91257" lon="2.44853">
        <ele>587.5</ele>
        <time>2021-03-21T10:08:20Z</time>
      </trkpt>
      <trkpt lat="42.91254" lon="2.44849">
        <ele>587.9</ele>
        <time>2021-03-21T10:08:22Z</time>
      </trkpt>
      <trkpt lat="42.91248" lon="2.44843">
        <ele>588.4</ele>
        <time>2021-03-21T10:08:23Z</time>
      </trkpt>
      <trkpt lat="42.91246" lon="2.4484">
        <ele>588.6</ele>
        <time>2021-03-21T10:08:24Z</time>
      </trkpt>
      <trkpt lat="42.91241" lon="2.44835">
        <ele>589.1</ele>
        <time>2021-03-21T10:08:26Z</time>
      </trkpt>
      <trkpt lat="42.91237" lon="2.44833">
        <ele>589.4</ele>
        <time>2021-03-21T10:08:27Z</time>
      </trkpt>
      <trkpt lat="42.91231" lon="2.44828">
        <ele>589.9</ele>
        <time>2021-03-21T10:08:28Z</time>
      </trkpt>
      <trkpt lat="42.91228" lon="2.44826">
        <ele>590.1</ele>
        <time>2021-03-21T10:08:29Z</time>
      </trkpt>
      <trkpt lat="42.91226" lon="2.44824">
        <ele>590.3</ele>
        <time>2021-03-21T10:08:30Z</time>
      </trkpt>
      <trkpt lat="42.91223" lon="2.44823">
        <ele>590.6</ele>
        <time>2021-03-21T10:08:31Z</time>
      </trkpt>
      <trkpt lat="42.91216" lon="2.44819">
        <ele>591.1</ele>
        <time>2021-03-21T10:08:33Z</time>
      </trkpt>
      <trkpt lat="42.91213" lon="2.44817">
        <ele>591.3</ele>
        <time>2021-03-21T10:08:34Z</time>
      </trkpt>
      <trkpt lat="42.91212" lon="2.44816">
        <ele>591.4</ele>
        <time>2021-03-21T10:08:35Z</time>
      </trkpt>
      <trkpt lat="42.91209" lon="2.44813">
        <ele>591.7</ele>
        <time>2021-03-21T10:08:37Z</time>
      </trkpt>
      <trkpt lat="42.91204" lon="2.44808">
        <ele>592.1</ele>
        <time>2021-03-21T10:08:38Z</time>
      </trkpt>
      <trkpt lat="42.912" lon="2.44806">
        <ele>592.5</ele>
        <time>2021-03-21T10:08:39Z</time>
      </trkpt>
      <trkpt lat="42.91198" lon="2.44805">
        <ele>592.6</ele>
        <time>2021-03-21T10:08:40Z</time>
      </trkpt>
      <trkpt lat="42.91195" lon="2.44803">
        <ele>592.9</ele>
        <time>2021-03-21T10:08:42Z</time>
      </trkpt>
      <trkpt lat="42.9119" lon="2.44799">
        <ele>593.2</ele>
        <time>2021-03-21T10:08:43Z</time>
      </trkpt>
      <trkpt lat="42.91187" lon="2.44797">
        <ele>593.5</ele>
        <time>2021-03-21T10:08:44Z</time>
      </trkpt>
      <trkpt lat="42.91185" lon="2.44797">
        <ele>593.6</ele>
        <time>2021-03-21T10:08:45Z</time>
      </trkpt>
      <trkpt lat="42.91183" lon="2.44794">
        <ele>593.8</ele>
        <time>2021-03-21T10:08:46Z</time>
      </trkpt>
      <trkpt lat="42.91178" lon="2.4479">
        <ele>594.2</ele>
        <time>2021-03-21T10:08:48Z</time>
      </trkpt>
      <trkpt lat="42.91175" lon="2.44787">
        <ele>594.4</ele>
        <time>2021-03-21T10:08:49Z</time>
      </trkpt>
      <trkpt lat="42.91174" lon="2.44786">
        <ele>594.5</ele>
        <time>2021-03-21T10:08:50Z</time>
      </trkpt>
      <trkpt lat="42.9117" lon="2.44782">
        <ele>594.9</ele>
        <time>2021-03-21T10:08:52Z</time>
      </trkpt>
      <trkpt lat="42.91168" lon="2.44779">
        <ele>595.1</ele>
        <time>2021-03-21T10:08:53Z</time>
      </trkpt>
      <trkpt lat="42.91164" lon="2.44776">
        <ele>595.4</ele>
        <time>2021-03-21T10:08:54Z</time>
      </trkpt>
      <trkpt lat="42.91162" lon="2.44774">
        <ele>595.6</ele>
        <time>2021-03-21T10:08:55Z</time>
      </trkpt>
      <trkpt lat="42.91159" lon="2.44771">
        <ele>595.8</ele>
        <time>2021-03-21T10:08:56Z</time>
      </trkpt>
      <trkpt lat="42.91155" lon="2.44768">
        <ele>596.1</ele>
        <time>2021-03-21T10:08:57Z</time>
      </trkpt>
      <trkpt lat="42.91149" lon="2.44762">
        <ele>596.6</ele>
        <time>2021-03-21T10:08:58Z</time>
      </trkpt>
      <trkpt lat="42.91145" lon="2.44757">
        <ele>597</ele>
        <time>2021-03-21T10:09:00Z</time>
      </trkpt>
      <trkpt lat="42.91141" lon="2.44752">
        <ele>597.3</ele>
        <time>2021-03-21T10:09:02Z</time>
      </trkpt>
      <trkpt lat="42.91136" lon="2.44746">
        <ele>597.8</ele>
        <time>2021-03-21T10:09:03Z</time>
      </trkpt>
      <trkpt lat="42.91133" lon="2.44741">
        <ele>598.2</ele>
        <time>2021-03-21T10:09:05Z</time>
      </trkpt>
      <trkpt lat="42.91131" lon="2.44738">
        <ele>598.4</ele>
        <time>2021-03-21T10:09:06Z</time>
      </trkpt>
      <trkpt lat="42.91129" lon="2.44734">
        <ele>598.6</ele>
        <time>2021-03-21T10:09:08Z</time>
      </trkpt>
      <trkpt lat="42.91125" lon="2.44727">
        <ele>599.1</ele>
        <time>2021-03-21T10:09:09Z</time>
      </trkpt>
      <trkpt lat="42.91122" lon="2.44724">
        <ele>599.3</ele>
        <time>2021-03-21T10:09:10Z</time>
      </trkpt>
      <trkpt lat="42.91121" lon="2.44723">
        <ele>599.4</ele>
        <time>2021-03-21T10:09:11Z</time>
      </trkpt>
      <trkpt lat="42.91119" lon="2.4472">
        <ele>599.6</ele>
        <time>2021-03-21T10:09:12Z</time>
      </trkpt>
      <trkpt lat="42.91115" lon="2.44715">
        <ele>600</ele>
        <time>2021-03-21T10:09:13Z</time>
      </trkpt>
      <trkpt lat="42.91112" lon="2.44711">
        <ele>600.4</ele>
        <time>2021-03-21T10:09:15Z</time>
      </trkpt>
      <trkpt lat="42.9111" lon="2.44708">
        <ele>600.6</ele>
        <time>2021-03-21T10:09:16Z</time>
      </trkpt>
      <trkpt lat="42.91107" lon="2.44703">
        <ele>601.1</ele>
        <time>2021-03-21T10:09:17Z</time>
      </trkpt>
      <trkpt lat="42.91103" lon="2.44696">
        <ele>601.6</ele>
        <time>2021-03-21T10:09:19Z</time>
      </trkpt>
      <trkpt lat="42.91101" lon="2.44692">
        <ele>601.9</ele>
        <time>2021-03-21T10:09:20Z</time>
      </trkpt>
      <trkpt lat="42.911" lon="2.44689">
        <ele>602.1</ele>
        <time>2021-03-21T10:09:21Z</time>
      </trkpt>
      <trkpt lat="42.91099" lon="2.44686">
        <ele>602.3</ele>
        <time>2021-03-21T10:09:22Z</time>
      </trkpt>
      <trkpt lat="42.91095" lon="2.44679">
        <ele>602.8</ele>
        <time>2021-03-21T10:09:24Z</time>
      </trkpt>
      <trkpt lat="42.91094" lon="2.44675">
        <ele>603.1</ele>
        <time>2021-03-21T10:09:25Z</time>
      </trkpt>
      <trkpt lat="42.91093" lon="2.44674">
        <ele>603.2</ele>
        <time>2021-03-21T10:09:26Z</time>
      </trkpt>
      <trkpt lat="42.91092" lon="2.44671">
        <ele>603.4</ele>
        <time>2021-03-21T10:09:28Z</time>
      </trkpt>
      <trkpt lat="42.9109" lon="2.44665">
        <ele>603.8</ele>
        <time>2021-03-21T10:09:29Z</time>
      </trkpt>
      <trkpt lat="42.91088" lon="2.44662">
        <ele>604</ele>
        <time>2021-03-21T10:09:30Z</time>
      </trkpt>
      <trkpt lat="42.91088" lon="2.44661">
        <ele>604.1</ele>
        <time>2021-03-21T10:09:31Z</time>
      </trkpt>
      <trkpt lat="42.91085" lon="2.44655">
        <ele>604.5</ele>
        <time>2021-03-21T10:09:32Z</time>
      </trkpt>
      <trkpt lat="42.91083" lon="2.44652">
        <ele>604.7</ele>
        <time>2021-03-21T10:09:33Z</time>
      </trkpt>
      <trkpt lat="42.91081" lon="2.44648">
        <ele>605</ele>
        <time>2021-03-21T10:09:35Z</time>
      </trkpt>
      <trkpt lat="42.91079" lon="2.44645">
        <ele>605.3</ele>
        <time>2021-03-21T10:09:36Z</time>
      </trkpt>
      <trkpt lat="42.91077" lon="2.44641">
        <ele>605.5</ele>
        <time>2021-03-21T10:09:37Z</time>
      </trkpt>
      <trkpt lat="42.91074" lon="2.44634">
        <ele>606</ele>
        <time>2021-03-21T10:09:38Z</time>
      </trkpt>
      <trkpt lat="42.91073" lon="2.44631">
        <ele>606.2</ele>
        <time>2021-03-21T10:09:40Z</time>
      </trkpt>
      <trkpt lat="42.91071" lon="2.44628">
        <ele>606.4</ele>
        <time>2021-03-21T10:09:41Z</time>
      </trkpt>
      <trkpt lat="42.91068" lon="2.44621">
        <ele>606.8</ele>
        <time>2021-03-21T10:09:44Z</time>
      </trkpt>
      <trkpt lat="42.91066" lon="2.44618">
        <ele>607.1</ele>
        <time>2021-03-21T10:09:45Z</time>
      </trkpt>
      <trkpt lat="42.91064" lon="2.44615">
        <ele>607.3</ele>
        <time>2021-03-21T10:09:46Z</time>
      </trkpt>
      <trkpt lat="42.9106" lon="2.4461">
        <ele>607.7</ele>
        <time>2021-03-21T10:09:48Z</time>
      </trkpt>
      <trkpt lat="42.91058" lon="2.44606">
        <ele>608</ele>
        <time>2021-03-21T10:09:49Z</time>
      </trkpt>
      <trkpt lat="42.91054" lon="2.446">
        <ele>608.5</ele>
        <time>2021-03-21T10:09:51Z</time>
      </trkpt>
      <trkpt lat="42.91052" lon="2.44597">
        <ele>608.7</ele>
        <time>2021-03-21T10:09:52Z</time>
      </trkpt>
      <trkpt lat="42.91046" lon="2.44589">
        <ele>609.3</ele>
        <time>2021-03-21T10:09:54Z</time>
      </trkpt>
      <trkpt lat="42.91043" lon="2.44585">
        <ele>609.7</ele>
        <time>2021-03-21T10:09:56Z</time>
      </trkpt>
      <trkpt lat="42.91041" lon="2.44582">
        <ele>609.9</ele>
        <time>2021-03-21T10:09:57Z</time>
      </trkpt>
      <trkpt lat="42.91037" lon="2.44576">
        <ele>610.4</ele>
        <time>2021-03-21T10:09:59Z</time>
      </trkpt>
      <trkpt lat="42.91035" lon="2.44573">
        <ele>610.7</ele>
        <time>2021-03-21T10:10:00Z</time>
      </trkpt>
      <trkpt lat="42.91031" lon="2.44568">
        <ele>611.1</ele>
        <time>2021-03-21T10:10:01Z</time>
      </trkpt>
      <trkpt lat="42.91028" lon="2.44562">
        <ele>611.5</ele>
        <time>2021-03-21T10:10:03Z</time>
      </trkpt>
      <trkpt lat="42.91025" lon="2.44556">
        <ele>611.9</ele>
        <time>2021-03-21T10:10:04Z</time>
      </trkpt>
      <trkpt lat="42.91023" lon="2.44552">
        <ele>612.2</ele>
        <time>2021-03-21T10:10:05Z</time>
      </trkpt>
      <trkpt lat="42.91021" lon="2.44548">
        <ele>612.5</ele>
        <time>2021-03-21T10:10:06Z</time>
      </trkpt>
      <trkpt lat="42.91018" lon="2.44543">
        <ele>612.8</ele>
        <time>2021-03-21T10:10:08Z</time>
      </trkpt>
      <trkpt lat="42.91014" lon="2.44535">
        <ele>613.3</ele>
        <time>2021-03-21T10:10:09Z</time>
      </trkpt>
      <trkpt lat="42.91011" lon="2.44529">
        <ele>613.7</ele>
        <time>2021-03-21T10:10:10Z</time>
      </trkpt>
      <trkpt lat="42.91008" lon="2.44523">
        <ele>614.2</ele>
        <time>2021-03-21T10:10:12Z</time>
      </trkpt>
      <trkpt lat="42.91005" lon="2.44518">
        <ele>614.5</ele>
        <time>2021-03-21T10:10:13Z</time>
      </trkpt>
      <trkpt lat="42.91001" lon="2.44511">
        <ele>615</ele>
        <time>2021-03-21T10:10:14Z</time>
      </trkpt>
      <trkpt lat="42.90999" lon="2.44509">
        <ele>615.2</ele>
        <time>2021-03-21T10:10:15Z</time>
      </trkpt>
      <trkpt lat="42.90997" lon="2.44504">
        <ele>615.6</ele>
        <time>2021-03-21T10:10:17Z</time>
      </trkpt>
      <trkpt lat="42.90995" lon="2.44502">
        <ele>615.8</ele>
        <time>2021-03-21T10:10:18Z</time>
      </trkpt>
      <trkpt lat="42.90992" lon="2.44498">
        <ele>616.1</ele>
        <time>2021-03-21T10:10:19Z</time>
      </trkpt>
      <trkpt lat="42.90989" lon="2.44495">
        <ele>616.4</ele>
        <time>2021-03-21T10:10:20Z</time>
      </trkpt>
      <trkpt lat="42.90989" lon="2.44494">
        <ele>616.5</ele>
        <time>2021-03-21T10:10:21Z</time>
      </trkpt>
      <trkpt lat="42.90986" lon="2.44492">
        <ele>616.7</ele>
        <time>2021-03-21T10:10:23Z</time>
      </trkpt>
      <trkpt lat="42.90983" lon="2.44489">
        <ele>617.1</ele>
        <time>2021-03-21T10:10:24Z</time>
      </trkpt>
      <trkpt lat="42.9098" lon="2.44486">
        <ele>617.3</ele>
        <time>2021-03-21T10:10:25Z</time>
      </trkpt>
      <trkpt lat="42.90977" lon="2.44485">
        <ele>617.6</ele>
        <time>2021-03-21T10:10:26Z</time>
      </trkpt>
      <trkpt lat="42.90974" lon="2.44483">
        <ele>617.8</ele>
        <time>2021-03-21T10:10:27Z</time>
      </trkpt>
      <trkpt lat="42.9097" lon="2.4448">
        <ele>618.2</ele>
        <time>2021-03-21T10:10:28Z</time>
      </trkpt>
      <trkpt lat="42.90968" lon="2.44478">
        <ele>618.4</ele>
        <time>2021-03-21T10:10:29Z</time>
      </trkpt>
      <trkpt lat="42.90963" lon="2.44474">
        <ele>618.8</ele>
        <time>2021-03-21T10:10:31Z</time>
      </trkpt>
      <trkpt lat="42.90959" lon="2.44472">
        <ele>619.1</ele>
        <time>2021-03-21T10:10:32Z</time>
      </trkpt>
      <trkpt lat="42.90953" lon="2.44468">
        <ele>619.5</ele>
        <time>2021-03-21T10:10:34Z</time>
      </trkpt>
      <trkpt lat="42.90948" lon="2.44465">
        <ele>619.9</ele>
        <time>2021-03-21T10:10:36Z</time>
      </trkpt>
      <trkpt lat="42.90945" lon="2.44462">
        <ele>620.1</ele>
        <time>2021-03-21T10:10:37Z</time>
      </trkpt>
      <trkpt lat="42.90942" lon="2.4446">
        <ele>620.4</ele>
        <time>2021-03-21T10:10:38Z</time>
      </trkpt>
      <trkpt lat="42.90936" lon="2.44455">
        <ele>620.8</ele>
        <time>2021-03-21T10:10:39Z</time>
      </trkpt>
      <trkpt lat="42.90931" lon="2.44451">
        <ele>621.2</ele>
        <time>2021-03-21T10:10:41Z</time>
      </trkpt>
      <trkpt lat="42.90928" lon="2.44448">
        <ele>621.4</ele>
        <time>2021-03-21T10:10:42Z</time>
      </trkpt>
      <trkpt lat="42.90919" lon="2.44442">
        <ele>622.1</ele>
        <time>2021-03-21T10:10:44Z</time>
      </trkpt>
      <trkpt lat="42.90915" lon="2.44439">
        <ele>622.3</ele>
        <time>2021-03-21T10:10:45Z</time>
      </trkpt>
      <trkpt lat="42.90909" lon="2.44437">
        <ele>622.7</ele>
        <time>2021-03-21T10:10:46Z</time>
      </trkpt>
      <trkpt lat="42.90904" lon="2.44434">
        <ele>623.1</ele>
        <time>2021-03-21T10:10:48Z</time>
      </trkpt>
      <trkpt lat="42.90897" lon="2.44429">
        <ele>623.5</ele>
        <time>2021-03-21T10:10:49Z</time>
      </trkpt>
      <trkpt lat="42.90891" lon="2.44426">
        <ele>623.9</ele>
        <time>2021-03-21T10:10:51Z</time>
      </trkpt>
      <trkpt lat="42.90886" lon="2.44424">
        <ele>624.2</ele>
        <time>2021-03-21T10:10:52Z</time>
      </trkpt>
      <trkpt lat="42.90877" lon="2.44422">
        <ele>624.7</ele>
        <time>2021-03-21T10:10:54Z</time>
      </trkpt>
      <trkpt lat="42.90874" lon="2.4442">
        <ele>624.9</ele>
        <time>2021-03-21T10:10:55Z</time>
      </trkpt>
      <trkpt lat="42.90871" lon="2.44419">
        <ele>625.2</ele>
        <time>2021-03-21T10:10:56Z</time>
      </trkpt>
      <trkpt lat="42.90866" lon="2.44417">
        <ele>625.5</ele>
        <time>2021-03-21T10:10:57Z</time>
      </trkpt>
      <trkpt lat="42.90859" lon="2.44412">
        <ele>626.1</ele>
        <time>2021-03-21T10:10:59Z</time>
      </trkpt>
      <trkpt lat="42.90855" lon="2.44408">
        <ele>626.5</ele>
        <time>2021-03-21T10:11:01Z</time>
      </trkpt>
      <trkpt lat="42.90852" lon="2.44405">
        <ele>626.7</ele>
        <time>2021-03-21T10:11:02Z</time>
      </trkpt>
      <trkpt lat="42.9085" lon="2.44403">
        <ele>627</ele>
        <time>2021-03-21T10:11:03Z</time>
      </trkpt>
      <trkpt lat="42.90846" lon="2.44398">
        <ele>627.4</ele>
        <time>2021-03-21T10:11:04Z</time>
      </trkpt>
      <trkpt lat="42.90845" lon="2.44395">
        <ele>627.5</ele>
        <time>2021-03-21T10:11:05Z</time>
      </trkpt>
      <trkpt lat="42.90843" lon="2.44392">
        <ele>627.8</ele>
        <time>2021-03-21T10:11:07Z</time>
      </trkpt>
      <trkpt lat="42.90841" lon="2.44387">
        <ele>628.1</ele>
        <time>2021-03-21T10:11:08Z</time>
      </trkpt>
      <trkpt lat="42.9084" lon="2.44382">
        <ele>628.4</ele>
        <time>2021-03-21T10:11:09Z</time>
      </trkpt>
      <trkpt lat="42.90839" lon="2.44378">
        <ele>628.7</ele>
        <time>2021-03-21T10:11:11Z</time>
      </trkpt>
      <trkpt lat="42.90837" lon="2.44374">
        <ele>628.9</ele>
        <time>2021-03-21T10:11:12Z</time>
      </trkpt>
      <trkpt lat="42.90834" lon="2.44366">
        <ele>629.5</ele>
        <time>2021-03-21T10:11:14Z</time>
      </trkpt>
      <trkpt lat="42.90833" lon="2.44362">
        <ele>629.7</ele>
        <time>2021-03-21T10:11:15Z</time>
      </trkpt>
      <trkpt lat="42.90832" lon="2.44358">
        <ele>630</ele>
        <time>2021-03-21T10:11:16Z</time>
      </trkpt>
      <trkpt lat="42.9083" lon="2.44352">
        <ele>630.3</ele>
        <time>2021-03-21T10:11:18Z</time>
      </trkpt>
      <trkpt lat="42.9083" lon="2.44343">
        <ele>631.4</ele>
        <time>2021-03-21T10:11:19Z</time>
      </trkpt>
      <trkpt lat="42.9083" lon="2.44338">
        <ele>631.6</ele>
        <time>2021-03-21T10:11:20Z</time>
      </trkpt>
      <trkpt lat="42.9083" lon="2.44334">
        <ele>631.8</ele>
        <time>2021-03-21T10:11:21Z</time>
      </trkpt>
      <trkpt lat="42.90831" lon="2.4433">
        <ele>632</ele>
        <time>2021-03-21T10:11:22Z</time>
      </trkpt>
      <trkpt lat="42.90831" lon="2.44325">
        <ele>632.2</ele>
        <time>2021-03-21T10:11:23Z</time>
      </trkpt>
      <trkpt lat="42.90832" lon="2.44317">
        <ele>632.6</ele>
        <time>2021-03-21T10:11:25Z</time>
      </trkpt>
      <trkpt lat="42.90832" lon="2.44311">
        <ele>632.9</ele>
        <time>2021-03-21T10:11:26Z</time>
      </trkpt>
      <trkpt lat="42.90833" lon="2.44305">
        <ele>633.2</ele>
        <time>2021-03-21T10:11:27Z</time>
      </trkpt>
      <trkpt lat="42.90835" lon="2.44295">
        <ele>633.6</ele>
        <time>2021-03-21T10:11:29Z</time>
      </trkpt>
      <trkpt lat="42.90835" lon="2.4429">
        <ele>633.8</ele>
        <time>2021-03-21T10:11:30Z</time>
      </trkpt>
      <trkpt lat="42.90836" lon="2.44285">
        <ele>634</ele>
        <time>2021-03-21T10:11:31Z</time>
      </trkpt>
      <trkpt lat="42.90836" lon="2.44279">
        <ele>634.3</ele>
        <time>2021-03-21T10:11:33Z</time>
      </trkpt>
      <trkpt lat="42.90837" lon="2.4427">
        <ele>634.7</ele>
        <time>2021-03-21T10:11:34Z</time>
      </trkpt>
      <trkpt lat="42.90838" lon="2.44266">
        <ele>634.9</ele>
        <time>2021-03-21T10:11:35Z</time>
      </trkpt>
      <trkpt lat="42.90838" lon="2.44259">
        <ele>635.2</ele>
        <time>2021-03-21T10:11:37Z</time>
      </trkpt>
      <trkpt lat="42.90838" lon="2.44251">
        <ele>635.5</ele>
        <time>2021-03-21T10:11:39Z</time>
      </trkpt>
      <trkpt lat="42.90837" lon="2.44245">
        <ele>635.8</ele>
        <time>2021-03-21T10:11:40Z</time>
      </trkpt>
      <trkpt lat="42.90837" lon="2.44242">
        <ele>635.9</ele>
        <time>2021-03-21T10:11:41Z</time>
      </trkpt>
      <trkpt lat="42.90836" lon="2.44237">
        <ele>636.2</ele>
        <time>2021-03-21T10:11:43Z</time>
      </trkpt>
      <trkpt lat="42.90833" lon="2.44229">
        <ele>636.5</ele>
        <time>2021-03-21T10:11:44Z</time>
      </trkpt>
      <trkpt lat="42.90832" lon="2.44227">
        <ele>636.7</ele>
        <time>2021-03-21T10:11:45Z</time>
      </trkpt>
      <trkpt lat="42.90831" lon="2.44221">
        <ele>637</ele>
        <time>2021-03-21T10:11:47Z</time>
      </trkpt>
      <trkpt lat="42.9083" lon="2.44216">
        <ele>637.2</ele>
        <time>2021-03-21T10:11:48Z</time>
      </trkpt>
      <trkpt lat="42.9083" lon="2.44209">
        <ele>637.5</ele>
        <time>2021-03-21T10:11:50Z</time>
      </trkpt>
      <trkpt lat="42.90829" lon="2.44203">
        <ele>637.7</ele>
        <time>2021-03-21T10:11:51Z</time>
      </trkpt>
      <trkpt lat="42.90828" lon="2.44201">
        <ele>637.8</ele>
        <time>2021-03-21T10:11:52Z</time>
      </trkpt>
      <trkpt lat="42.90828" lon="2.44197">
        <ele>638</ele>
        <time>2021-03-21T10:11:53Z</time>
      </trkpt>
      <trkpt lat="42.90826" lon="2.44186">
        <ele>638.3</ele>
        <time>2021-03-21T10:11:55Z</time>
      </trkpt>
      <trkpt lat="42.90825" lon="2.44178">
        <ele>638.5</ele>
        <time>2021-03-21T10:11:57Z</time>
      </trkpt>
      <trkpt lat="42.90824" lon="2.44172">
        <ele>638.6</ele>
        <time>2021-03-21T10:11:58Z</time>
      </trkpt>
      <trkpt lat="42.90821" lon="2.44163">
        <ele>638.8</ele>
        <time>2021-03-21T10:11:59Z</time>
      </trkpt>
      <trkpt lat="42.90819" lon="2.44156">
        <ele>639</ele>
        <time>2021-03-21T10:12:01Z</time>
      </trkpt>
      <trkpt lat="42.90816" lon="2.44152">
        <ele>639.1</ele>
        <time>2021-03-21T10:12:02Z</time>
      </trkpt>
      <trkpt lat="42.90813" lon="2.44146">
        <ele>639.2</ele>
        <time>2021-03-21T10:12:03Z</time>
      </trkpt>
      <trkpt lat="42.90809" lon="2.44137">
        <ele>639.4</ele>
        <time>2021-03-21T10:12:05Z</time>
      </trkpt>
      <trkpt lat="42.90808" lon="2.44132">
        <ele>639.5</ele>
        <time>2021-03-21T10:12:06Z</time>
      </trkpt>
      <trkpt lat="42.90806" lon="2.44126">
        <ele>639.6</ele>
        <time>2021-03-21T10:12:07Z</time>
      </trkpt>
      <trkpt lat="42.90804" lon="2.44115">
        <ele>639.8</ele>
        <time>2021-03-21T10:12:09Z</time>
      </trkpt>
      <trkpt lat="42.90804" lon="2.4411">
        <ele>639.9</ele>
        <time>2021-03-21T10:12:10Z</time>
      </trkpt>
      <trkpt lat="42.90804" lon="2.44103">
        <ele>640</ele>
        <time>2021-03-21T10:12:11Z</time>
      </trkpt>
      <trkpt lat="42.90805" lon="2.44093">
        <ele>640.1</ele>
        <time>2021-03-21T10:12:13Z</time>
      </trkpt>
      <trkpt lat="42.90806" lon="2.44081">
        <ele>640.2</ele>
        <time>2021-03-21T10:12:15Z</time>
      </trkpt>
      <trkpt lat="42.90807" lon="2.44074">
        <ele>640.3</ele>
        <time>2021-03-21T10:12:16Z</time>
      </trkpt>
      <trkpt lat="42.90807" lon="2.44069">
        <ele>640.4</ele>
        <time>2021-03-21T10:12:17Z</time>
      </trkpt>
      <trkpt lat="42.90807" lon="2.44061">
        <ele>640.5</ele>
        <time>2021-03-21T10:12:19Z</time>
      </trkpt>
      <trkpt lat="42.90806" lon="2.44051">
        <ele>640.6</ele>
        <time>2021-03-21T10:12:20Z</time>
      </trkpt>
      <trkpt lat="42.90806" lon="2.44045">
        <ele>640.6</ele>
        <time>2021-03-21T10:12:21Z</time>
      </trkpt>
      <trkpt lat="42.90805" lon="2.44039">
        <ele>640.7</ele>
        <time>2021-03-21T10:12:22Z</time>
      </trkpt>
      <trkpt lat="42.90804" lon="2.44034">
        <ele>640.7</ele>
        <time>2021-03-21T10:12:23Z</time>
      </trkpt>
      <trkpt lat="42.90802" lon="2.44028">
        <ele>640.8</ele>
        <time>2021-03-21T10:12:25Z</time>
      </trkpt>
      <trkpt lat="42.90801" lon="2.44022">
        <ele>640.8</ele>
        <time>2021-03-21T10:12:26Z</time>
      </trkpt>
      <trkpt lat="42.908" lon="2.44015">
        <ele>640.8</ele>
        <time>2021-03-21T10:12:27Z</time>
      </trkpt>
      <trkpt lat="42.90799" lon="2.44007">
        <ele>640.9</ele>
        <time>2021-03-21T10:12:29Z</time>
      </trkpt>
      <trkpt lat="42.90797" lon="2.43998">
        <ele>640.9</ele>
        <time>2021-03-21T10:12:30Z</time>
      </trkpt>
      <trkpt lat="42.90796" lon="2.4399">
        <ele>640.9</ele>
        <time>2021-03-21T10:12:32Z</time>
      </trkpt>
      <trkpt lat="42.90795" lon="2.43983">
        <ele>640.9</ele>
        <time>2021-03-21T10:12:33Z</time>
      </trkpt>
      <trkpt lat="42.90795" lon="2.43974">
        <ele>640.9</ele>
        <time>2021-03-21T10:12:34Z</time>
      </trkpt>
      <trkpt lat="42.90798" lon="2.4397">
        <ele>640.9</ele>
        <time>2021-03-21T10:12:36Z</time>
      </trkpt>
      <trkpt lat="42.908" lon="2.43966">
        <ele>640.9</ele>
        <time>2021-03-21T10:12:37Z</time>
      </trkpt>
      <trkpt lat="42.908" lon="2.43958">
        <ele>640.9</ele>
        <time>2021-03-21T10:12:38Z</time>
      </trkpt>
      <trkpt lat="42.90799" lon="2.43952">
        <ele>640.9</ele>
        <time>2021-03-21T10:12:39Z</time>
      </trkpt>
      <trkpt lat="42.90797" lon="2.43942">
        <ele>640.9</ele>
        <time>2021-03-21T10:12:41Z</time>
      </trkpt>
      <trkpt lat="42.90795" lon="2.43936">
        <ele>640.9</ele>
        <time>2021-03-21T10:12:42Z</time>
      </trkpt>
      <trkpt lat="42.90793" lon="2.43929">
        <ele>640.9</ele>
        <time>2021-03-21T10:12:43Z</time>
      </trkpt>
      <trkpt lat="42.90791" lon="2.4392">
        <ele>640.9</ele>
        <time>2021-03-21T10:12:45Z</time>
      </trkpt>
      <trkpt lat="42.9079" lon="2.43914">
        <ele>640.9</ele>
        <time>2021-03-21T10:12:47Z</time>
      </trkpt>
      <trkpt lat="42.90789" lon="2.43906">
        <ele>640.9</ele>
        <time>2021-03-21T10:12:48Z</time>
      </trkpt>
      <trkpt lat="42.90788" lon="2.43898">
        <ele>640.9</ele>
        <time>2021-03-21T10:12:49Z</time>
      </trkpt>
      <trkpt lat="42.90788" lon="2.4389">
        <ele>640.9</ele>
        <time>2021-03-21T10:12:51Z</time>
      </trkpt>
      <trkpt lat="42.90787" lon="2.43883">
        <ele>640.9</ele>
        <time>2021-03-21T10:12:52Z</time>
      </trkpt>
      <trkpt lat="42.90787" lon="2.43877">
        <ele>640.9</ele>
        <time>2021-03-21T10:12:53Z</time>
      </trkpt>
      <trkpt lat="42.90787" lon="2.4387">
        <ele>640.9</ele>
        <time>2021-03-21T10:12:54Z</time>
      </trkpt>
      <trkpt lat="42.90787" lon="2.43861">
        <ele>641</ele>
        <time>2021-03-21T10:12:56Z</time>
      </trkpt>
      <trkpt lat="42.90786" lon="2.43854">
        <ele>641</ele>
        <time>2021-03-21T10:12:57Z</time>
      </trkpt>
      <trkpt lat="42.90786" lon="2.43843">
        <ele>641</ele>
        <time>2021-03-21T10:12:59Z</time>
      </trkpt>
      <trkpt lat="42.90785" lon="2.43837">
        <ele>641.1</ele>
        <time>2021-03-21T10:13:00Z</time>
      </trkpt>
      <trkpt lat="42.90784" lon="2.43829">
        <ele>641.2</ele>
        <time>2021-03-21T10:13:01Z</time>
      </trkpt>
      <trkpt lat="42.90783" lon="2.43823">
        <ele>641.3</ele>
        <time>2021-03-21T10:13:02Z</time>
      </trkpt>
      <trkpt lat="42.90782" lon="2.43815">
        <ele>641.4</ele>
        <time>2021-03-21T10:13:04Z</time>
      </trkpt>
      <trkpt lat="42.90782" lon="2.43808">
        <ele>641.4</ele>
        <time>2021-03-21T10:13:05Z</time>
      </trkpt>
      <trkpt lat="42.90781" lon="2.43801">
        <ele>641.5</ele>
        <time>2021-03-21T10:13:06Z</time>
      </trkpt>
      <trkpt lat="42.90781" lon="2.43794">
        <ele>641.6</ele>
        <time>2021-03-21T10:13:07Z</time>
      </trkpt>
      <trkpt lat="42.9078" lon="2.43785">
        <ele>641.7</ele>
        <time>2021-03-21T10:13:08Z</time>
      </trkpt>
      <trkpt lat="42.9078" lon="2.43778">
        <ele>641.9</ele>
        <time>2021-03-21T10:13:09Z</time>
      </trkpt>
      <trkpt lat="42.90779" lon="2.43766">
        <ele>642.1</ele>
        <time>2021-03-21T10:13:11Z</time>
      </trkpt>
      <trkpt lat="42.90778" lon="2.43757">
        <ele>642.4</ele>
        <time>2021-03-21T10:13:13Z</time>
      </trkpt>
      <trkpt lat="42.90777" lon="2.4375">
        <ele>642.5</ele>
        <time>2021-03-21T10:13:14Z</time>
      </trkpt>
      <trkpt lat="42.90776" lon="2.43743">
        <ele>642.7</ele>
        <time>2021-03-21T10:13:15Z</time>
      </trkpt>
      <trkpt lat="42.90775" lon="2.43737">
        <ele>642.9</ele>
        <time>2021-03-21T10:13:16Z</time>
      </trkpt>
      <trkpt lat="42.90773" lon="2.43731">
        <ele>643</ele>
        <time>2021-03-21T10:13:17Z</time>
      </trkpt>
      <trkpt lat="42.9077" lon="2.43723">
        <ele>643.2</ele>
        <time>2021-03-21T10:13:19Z</time>
      </trkpt>
      <trkpt lat="42.90767" lon="2.43718">
        <ele>643.4</ele>
        <time>2021-03-21T10:13:20Z</time>
      </trkpt>
      <trkpt lat="42.90763" lon="2.43714">
        <ele>643.5</ele>
        <time>2021-03-21T10:13:21Z</time>
      </trkpt>
      <trkpt lat="42.90757" lon="2.43709">
        <ele>643.7</ele>
        <time>2021-03-21T10:13:23Z</time>
      </trkpt>
      <trkpt lat="42.90753" lon="2.43705">
        <ele>643.9</ele>
        <time>2021-03-21T10:13:24Z</time>
      </trkpt>
      <trkpt lat="42.90748" lon="2.43702">
        <ele>644.1</ele>
        <time>2021-03-21T10:13:25Z</time>
      </trkpt>
      <trkpt lat="42.90744" lon="2.43699">
        <ele>644.3</ele>
        <time>2021-03-21T10:13:26Z</time>
      </trkpt>
      <trkpt lat="42.9074" lon="2.43695">
        <ele>644.5</ele>
        <time>2021-03-21T10:13:27Z</time>
      </trkpt>
      <trkpt lat="42.90734" lon="2.43691">
        <ele>644.8</ele>
        <time>2021-03-21T10:13:29Z</time>
      </trkpt>
      <trkpt lat="42.9073" lon="2.43689">
        <ele>645</ele>
        <time>2021-03-21T10:13:30Z</time>
      </trkpt>
      <trkpt lat="42.90727" lon="2.43686">
        <ele>645.2</ele>
        <time>2021-03-21T10:13:31Z</time>
      </trkpt>
      <trkpt lat="42.90722" lon="2.43684">
        <ele>645.5</ele>
        <time>2021-03-21T10:13:33Z</time>
      </trkpt>
      <trkpt lat="42.90719" lon="2.43681">
        <ele>645.7</ele>
        <time>2021-03-21T10:13:34Z</time>
      </trkpt>
      <trkpt lat="42.90715" lon="2.43678">
        <ele>646</ele>
        <time>2021-03-21T10:13:35Z</time>
      </trkpt>
      <trkpt lat="42.90711" lon="2.43674">
        <ele>646.3</ele>
        <time>2021-03-21T10:13:37Z</time>
      </trkpt>
      <trkpt lat="42.90707" lon="2.43672">
        <ele>646.5</ele>
        <time>2021-03-21T10:13:38Z</time>
      </trkpt>
      <trkpt lat="42.90702" lon="2.43669">
        <ele>646.9</ele>
        <time>2021-03-21T10:13:39Z</time>
      </trkpt>
      <trkpt lat="42.90698" lon="2.43666">
        <ele>647.2</ele>
        <time>2021-03-21T10:13:41Z</time>
      </trkpt>
      <trkpt lat="42.90693" lon="2.43664">
        <ele>647.5</ele>
        <time>2021-03-21T10:13:42Z</time>
      </trkpt>
      <trkpt lat="42.90689" lon="2.43662">
        <ele>647.8</ele>
        <time>2021-03-21T10:13:44Z</time>
      </trkpt>
      <trkpt lat="42.90686" lon="2.4366">
        <ele>648</ele>
        <time>2021-03-21T10:13:45Z</time>
      </trkpt>
      <trkpt lat="42.90682" lon="2.43659">
        <ele>648.2</ele>
        <time>2021-03-21T10:13:46Z</time>
      </trkpt>
      <trkpt lat="42.90678" lon="2.43658">
        <ele>648.4</ele>
        <time>2021-03-21T10:13:47Z</time>
      </trkpt>
      <trkpt lat="42.90675" lon="2.43656">
        <ele>648.6</ele>
        <time>2021-03-21T10:13:48Z</time>
      </trkpt>
      <trkpt lat="42.90671" lon="2.43653">
        <ele>648.8</ele>
        <time>2021-03-21T10:13:49Z</time>
      </trkpt>
      <trkpt lat="42.90664" lon="2.43648">
        <ele>649.3</ele>
        <time>2021-03-21T10:13:51Z</time>
      </trkpt>
      <trkpt lat="42.9066" lon="2.43644">
        <ele>649.5</ele>
        <time>2021-03-21T10:13:52Z</time>
      </trkpt>
      <trkpt lat="42.90657" lon="2.4364">
        <ele>649.7</ele>
        <time>2021-03-21T10:13:53Z</time>
      </trkpt>
      <trkpt lat="42.90654" lon="2.43635">
        <ele>649.8</ele>
        <time>2021-03-21T10:13:54Z</time>
      </trkpt>
      <trkpt lat="42.90651" lon="2.43631">
        <ele>650</ele>
        <time>2021-03-21T10:13:55Z</time>
      </trkpt>
      <trkpt lat="42.90648" lon="2.43622">
        <ele>650.3</ele>
        <time>2021-03-21T10:13:57Z</time>
      </trkpt>
      <trkpt lat="42.90645" lon="2.43612">
        <ele>650.5</ele>
        <time>2021-03-21T10:13:59Z</time>
      </trkpt>
      <trkpt lat="42.90645" lon="2.43605">
        <ele>650.7</ele>
        <time>2021-03-21T10:14:01Z</time>
      </trkpt>
      <trkpt lat="42.90644" lon="2.43597">
        <ele>650.9</ele>
        <time>2021-03-21T10:14:02Z</time>
      </trkpt>
      <trkpt lat="42.90644" lon="2.43591">
        <ele>651</ele>
        <time>2021-03-21T10:14:03Z</time>
      </trkpt>
      <trkpt lat="42.90645" lon="2.43584">
        <ele>651.2</ele>
        <time>2021-03-21T10:14:04Z</time>
      </trkpt>
      <trkpt lat="42.90645" lon="2.43578">
        <ele>651.3</ele>
        <time>2021-03-21T10:14:05Z</time>
      </trkpt>
      <trkpt lat="42.90646" lon="2.43571">
        <ele>651.5</ele>
        <time>2021-03-21T10:14:07Z</time>
      </trkpt>
      <trkpt lat="42.90648" lon="2.43564">
        <ele>651.7</ele>
        <time>2021-03-21T10:14:08Z</time>
      </trkpt>
      <trkpt lat="42.90649" lon="2.43556">
        <ele>651.9</ele>
        <time>2021-03-21T10:14:09Z</time>
      </trkpt>
      <trkpt lat="42.90652" lon="2.43547">
        <ele>652.1</ele>
        <time>2021-03-21T10:14:11Z</time>
      </trkpt>
      <trkpt lat="42.90653" lon="2.43542">
        <ele>652.2</ele>
        <time>2021-03-21T10:14:12Z</time>
      </trkpt>
      <trkpt lat="42.90654" lon="2.43537">
        <ele>652.4</ele>
        <time>2021-03-21T10:14:13Z</time>
      </trkpt>
      <trkpt lat="42.90656" lon="2.4353">
        <ele>652.5</ele>
        <time>2021-03-21T10:14:15Z</time>
      </trkpt>
      <trkpt lat="42.90657" lon="2.43525">
        <ele>652.7</ele>
        <time>2021-03-21T10:14:16Z</time>
      </trkpt>
      <trkpt lat="42.90659" lon="2.4352">
        <ele>652.9</ele>
        <time>2021-03-21T10:14:17Z</time>
      </trkpt>
      <trkpt lat="42.9066" lon="2.43515">
        <ele>653.1</ele>
        <time>2021-03-21T10:14:18Z</time>
      </trkpt>
      <trkpt lat="42.90661" lon="2.43509">
        <ele>653.3</ele>
        <time>2021-03-21T10:14:20Z</time>
      </trkpt>
      <trkpt lat="42.90662" lon="2.43504">
        <ele>653.5</ele>
        <time>2021-03-21T10:14:21Z</time>
      </trkpt>
      <trkpt lat="42.90664" lon="2.43497">
        <ele>653.7</ele>
        <time>2021-03-21T10:14:22Z</time>
      </trkpt>
      <trkpt lat="42.90665" lon="2.43492">
        <ele>653.9</ele>
        <time>2021-03-21T10:14:23Z</time>
      </trkpt>
      <trkpt lat="42.90668" lon="2.43485">
        <ele>654.2</ele>
        <time>2021-03-21T10:14:25Z</time>
      </trkpt>
      <trkpt lat="42.90669" lon="2.4348">
        <ele>654.4</ele>
        <time>2021-03-21T10:14:26Z</time>
      </trkpt>
      <trkpt lat="42.90671" lon="2.43474">
        <ele>654.6</ele>
        <time>2021-03-21T10:14:28Z</time>
      </trkpt>
      <trkpt lat="42.90673" lon="2.43469">
        <ele>654.8</ele>
        <time>2021-03-21T10:14:29Z</time>
      </trkpt>
      <trkpt lat="42.90675" lon="2.43464">
        <ele>655</ele>
        <time>2021-03-21T10:14:30Z</time>
      </trkpt>
      <trkpt lat="42.90678" lon="2.43458">
        <ele>655.3</ele>
        <time>2021-03-21T10:14:32Z</time>
      </trkpt>
      <trkpt lat="42.9068" lon="2.43453">
        <ele>655.5</ele>
        <time>2021-03-21T10:14:33Z</time>
      </trkpt>
      <trkpt lat="42.90682" lon="2.4345">
        <ele>655.7</ele>
        <time>2021-03-21T10:14:34Z</time>
      </trkpt>
      <trkpt lat="42.90686" lon="2.43446">
        <ele>655.9</ele>
        <time>2021-03-21T10:14:36Z</time>
      </trkpt>
      <trkpt lat="42.90689" lon="2.43442">
        <ele>656.2</ele>
        <time>2021-03-21T10:14:37Z</time>
      </trkpt>
      <trkpt lat="42.90693" lon="2.43438">
        <ele>656.4</ele>
        <time>2021-03-21T10:14:38Z</time>
      </trkpt>
      <trkpt lat="42.90698" lon="2.43431">
        <ele>656.7</ele>
        <time>2021-03-21T10:14:40Z</time>
      </trkpt>
      <trkpt lat="42.90703" lon="2.43424">
        <ele>657</ele>
        <time>2021-03-21T10:14:42Z</time>
      </trkpt>
      <trkpt lat="42.90706" lon="2.4342">
        <ele>657.2</ele>
        <time>2021-03-21T10:14:43Z</time>
      </trkpt>
      <trkpt lat="42.9071" lon="2.43413">
        <ele>657.5</ele>
        <time>2021-03-21T10:14:45Z</time>
      </trkpt>
      <trkpt lat="42.90713" lon="2.43408">
        <ele>657.7</ele>
        <time>2021-03-21T10:14:46Z</time>
      </trkpt>
      <trkpt lat="42.90716" lon="2.43402">
        <ele>657.9</ele>
        <time>2021-03-21T10:14:48Z</time>
      </trkpt>
      <trkpt lat="42.90718" lon="2.43398">
        <ele>658</ele>
        <time>2021-03-21T10:14:49Z</time>
      </trkpt>
      <trkpt lat="42.90721" lon="2.43392">
        <ele>658.3</ele>
        <time>2021-03-21T10:14:50Z</time>
      </trkpt>
      <trkpt lat="42.90726" lon="2.43384">
        <ele>658.5</ele>
        <time>2021-03-21T10:14:52Z</time>
      </trkpt>
      <trkpt lat="42.90728" lon="2.4338">
        <ele>658.7</ele>
        <time>2021-03-21T10:14:53Z</time>
      </trkpt>
      <trkpt lat="42.90731" lon="2.43375">
        <ele>658.9</ele>
        <time>2021-03-21T10:14:55Z</time>
      </trkpt>
      <trkpt lat="42.90734" lon="2.43371">
        <ele>659.1</ele>
        <time>2021-03-21T10:14:56Z</time>
      </trkpt>
      <trkpt lat="42.90738" lon="2.43365">
        <ele>659.3</ele>
        <time>2021-03-21T10:14:57Z</time>
      </trkpt>
      <trkpt lat="42.90741" lon="2.43358">
        <ele>659.5</ele>
        <time>2021-03-21T10:14:59Z</time>
      </trkpt>
      <trkpt lat="42.90743" lon="2.43354">
        <ele>659.7</ele>
        <time>2021-03-21T10:15:00Z</time>
      </trkpt>
      <trkpt lat="42.90746" lon="2.43349">
        <ele>659.9</ele>
        <time>2021-03-21T10:15:01Z</time>
      </trkpt>
      <trkpt lat="42.90749" lon="2.43344">
        <ele>660.1</ele>
        <time>2021-03-21T10:15:03Z</time>
      </trkpt>
      <trkpt lat="42.90752" lon="2.43338">
        <ele>660.2</ele>
        <time>2021-03-21T10:15:04Z</time>
      </trkpt>
      <trkpt lat="42.90755" lon="2.43334">
        <ele>660.4</ele>
        <time>2021-03-21T10:15:05Z</time>
      </trkpt>
      <trkpt lat="42.90758" lon="2.43329">
        <ele>660.5</ele>
        <time>2021-03-21T10:15:06Z</time>
      </trkpt>
      <trkpt lat="42.90761" lon="2.43324">
        <ele>660.6</ele>
        <time>2021-03-21T10:15:08Z</time>
      </trkpt>
      <trkpt lat="42.90764" lon="2.4332">
        <ele>660.8</ele>
        <time>2021-03-21T10:15:09Z</time>
      </trkpt>
      <trkpt lat="42.90767" lon="2.43315">
        <ele>660.9</ele>
        <time>2021-03-21T10:15:11Z</time>
      </trkpt>
      <trkpt lat="42.90769" lon="2.43311">
        <ele>661</ele>
        <time>2021-03-21T10:15:12Z</time>
      </trkpt>
      <trkpt lat="42.90772" lon="2.43307">
        <ele>661.1</ele>
        <time>2021-03-21T10:15:13Z</time>
      </trkpt>
      <trkpt lat="42.90775" lon="2.433">
        <ele>661.3</ele>
        <time>2021-03-21T10:15:15Z</time>
      </trkpt>
      <trkpt lat="42.90778" lon="2.43293">
        <ele>661.4</ele>
        <time>2021-03-21T10:15:16Z</time>
      </trkpt>
      <trkpt lat="42.90782" lon="2.43285">
        <ele>661.7</ele>
        <time>2021-03-21T10:15:18Z</time>
      </trkpt>
      <trkpt lat="42.90784" lon="2.4328">
        <ele>661.8</ele>
        <time>2021-03-21T10:15:19Z</time>
      </trkpt>
      <trkpt lat="42.90786" lon="2.43276">
        <ele>661.9</ele>
        <time>2021-03-21T10:15:20Z</time>
      </trkpt>
      <trkpt lat="42.90787" lon="2.43272">
        <ele>662</ele>
        <time>2021-03-21T10:15:21Z</time>
      </trkpt>
      <trkpt lat="42.90789" lon="2.43266">
        <ele>662.1</ele>
        <time>2021-03-21T10:15:23Z</time>
      </trkpt>
      <trkpt lat="42.90792" lon="2.4326">
        <ele>662.2</ele>
        <time>2021-03-21T10:15:24Z</time>
      </trkpt>
      <trkpt lat="42.90794" lon="2.43255">
        <ele>662.3</ele>
        <time>2021-03-21T10:15:25Z</time>
      </trkpt>
      <trkpt lat="42.90797" lon="2.43249">
        <ele>662.5</ele>
        <time>2021-03-21T10:15:27Z</time>
      </trkpt>
      <trkpt lat="42.90799" lon="2.43242">
        <ele>662.6</ele>
        <time>2021-03-21T10:15:28Z</time>
      </trkpt>
      <trkpt lat="42.90801" lon="2.43237">
        <ele>662.7</ele>
        <time>2021-03-21T10:15:29Z</time>
      </trkpt>
      <trkpt lat="42.90803" lon="2.43231">
        <ele>662.9</ele>
        <time>2021-03-21T10:15:31Z</time>
      </trkpt>
      <trkpt lat="42.90806" lon="2.43222">
        <ele>663</ele>
        <time>2021-03-21T10:15:32Z</time>
      </trkpt>
      <trkpt lat="42.90808" lon="2.43216">
        <ele>663.2</ele>
        <time>2021-03-21T10:15:33Z</time>
      </trkpt>
      <trkpt lat="42.90811" lon="2.43207">
        <ele>663.4</ele>
        <time>2021-03-21T10:15:35Z</time>
      </trkpt>
      <trkpt lat="42.90813" lon="2.432">
        <ele>663.5</ele>
        <time>2021-03-21T10:15:36Z</time>
      </trkpt>
      <trkpt lat="42.90816" lon="2.43194">
        <ele>663.6</ele>
        <time>2021-03-21T10:15:37Z</time>
      </trkpt>
      <trkpt lat="42.90818" lon="2.43186">
        <ele>663.8</ele>
        <time>2021-03-21T10:15:39Z</time>
      </trkpt>
      <trkpt lat="42.90822" lon="2.43178">
        <ele>663.9</ele>
        <time>2021-03-21T10:15:41Z</time>
      </trkpt>
      <trkpt lat="42.90824" lon="2.43169">
        <ele>664.1</ele>
        <time>2021-03-21T10:15:42Z</time>
      </trkpt>
      <trkpt lat="42.90826" lon="2.43162">
        <ele>664.2</ele>
        <time>2021-03-21T10:15:44Z</time>
      </trkpt>
      <trkpt lat="42.90828" lon="2.43156">
        <ele>664.4</ele>
        <time>2021-03-21T10:15:45Z</time>
      </trkpt>
      <trkpt lat="42.90831" lon="2.43149">
        <ele>664.5</ele>
        <time>2021-03-21T10:15:46Z</time>
      </trkpt>
      <trkpt lat="42.90833" lon="2.43142">
        <ele>664.6</ele>
        <time>2021-03-21T10:15:48Z</time>
      </trkpt>
      <trkpt lat="42.90834" lon="2.43136">
        <ele>664.7</ele>
        <time>2021-03-21T10:15:49Z</time>
      </trkpt>
      <trkpt lat="42.90834" lon="2.43125">
        <ele>664.8</ele>
        <time>2021-03-21T10:15:50Z</time>
      </trkpt>
      <trkpt lat="42.90832" lon="2.43118">
        <ele>664.9</ele>
        <time>2021-03-21T10:15:51Z</time>
      </trkpt>
      <trkpt lat="42.90826" lon="2.43107">
        <ele>665</ele>
        <time>2021-03-21T10:15:53Z</time>
      </trkpt>
      <trkpt lat="42.90822" lon="2.43103">
        <ele>665</ele>
        <time>2021-03-21T10:15:54Z</time>
      </trkpt>
      <trkpt lat="42.90814" lon="2.43094">
        <ele>665.2</ele>
        <time>2021-03-21T10:15:56Z</time>
      </trkpt>
      <trkpt lat="42.9081" lon="2.43089">
        <ele>665.3</ele>
        <time>2021-03-21T10:15:57Z</time>
      </trkpt>
      <trkpt lat="42.90807" lon="2.43084">
        <ele>665.5</ele>
        <time>2021-03-21T10:15:58Z</time>
      </trkpt>
      <trkpt lat="42.90801" lon="2.43075">
        <ele>665.8</ele>
        <time>2021-03-21T10:16:00Z</time>
      </trkpt>
      <trkpt lat="42.90798" lon="2.43071">
        <ele>666</ele>
        <time>2021-03-21T10:16:01Z</time>
      </trkpt>
      <trkpt lat="42.90793" lon="2.43064">
        <ele>666.3</ele>
        <time>2021-03-21T10:16:03Z</time>
      </trkpt>
      <trkpt lat="42.9079" lon="2.4306">
        <ele>666.5</ele>
        <time>2021-03-21T10:16:04Z</time>
      </trkpt>
      <trkpt lat="42.90787" lon="2.43055">
        <ele>666.7</ele>
        <time>2021-03-21T10:16:05Z</time>
      </trkpt>
      <trkpt lat="42.90784" lon="2.43052">
        <ele>666.8</ele>
        <time>2021-03-21T10:16:06Z</time>
      </trkpt>
      <trkpt lat="42.9078" lon="2.43048">
        <ele>667</ele>
        <time>2021-03-21T10:16:07Z</time>
      </trkpt>
      <trkpt lat="42.90777" lon="2.43045">
        <ele>667.1</ele>
        <time>2021-03-21T10:16:08Z</time>
      </trkpt>
      <trkpt lat="42.90774" lon="2.43038">
        <ele>667.3</ele>
        <time>2021-03-21T10:16:10Z</time>
      </trkpt>
      <trkpt lat="42.90774" lon="2.43028">
        <ele>667.5</ele>
        <time>2021-03-21T10:16:11Z</time>
      </trkpt>
      <trkpt lat="42.9078" lon="2.43022">
        <ele>667.7</ele>
        <time>2021-03-21T10:16:13Z</time>
      </trkpt>
      <trkpt lat="42.90782" lon="2.43017">
        <ele>667.8</ele>
        <time>2021-03-21T10:16:14Z</time>
      </trkpt>
      <trkpt lat="42.90782" lon="2.43009">
        <ele>667.9</ele>
        <time>2021-03-21T10:16:15Z</time>
      </trkpt>
      <trkpt lat="42.90782" lon="2.43">
        <ele>668.1</ele>
        <time>2021-03-21T10:16:17Z</time>
      </trkpt>
      <trkpt lat="42.90782" lon="2.42995">
        <ele>668.1</ele>
        <time>2021-03-21T10:16:18Z</time>
      </trkpt>
      <trkpt lat="42.90782" lon="2.42992">
        <ele>668.2</ele>
        <time>2021-03-21T10:16:19Z</time>
      </trkpt>
      <trkpt lat="42.90781" lon="2.42989">
        <ele>668.3</ele>
        <time>2021-03-21T10:16:21Z</time>
      </trkpt>
      <trkpt lat="42.90778" lon="2.42987">
        <ele>668.4</ele>
        <time>2021-03-21T10:16:23Z</time>
      </trkpt>
      <trkpt lat="42.90778" lon="2.42987">
        <ele>668.4</ele>
        <time>2021-03-21T10:16:24Z</time>
      </trkpt>
      <trkpt lat="42.90778" lon="2.42986">
        <ele>668.4</ele>
        <time>2021-03-21T10:16:26Z</time>
      </trkpt>
      <trkpt lat="42.90779" lon="2.42986">
        <ele>668.4</ele>
        <time>2021-03-21T10:16:27Z</time>
      </trkpt>
      <trkpt lat="42.90779" lon="2.42986">
        <ele>668.4</ele>
        <time>2021-03-21T10:16:29Z</time>
      </trkpt>
      <trkpt lat="42.90776" lon="2.42981">
        <ele>668.6</ele>
        <time>2021-03-21T10:16:54Z</time>
      </trkpt>
      <trkpt lat="42.90775" lon="2.42977">
        <ele>668.7</ele>
        <time>2021-03-21T10:16:55Z</time>
      </trkpt>
      <trkpt lat="42.90774" lon="2.42969">
        <ele>668.9</ele>
        <time>2021-03-21T10:16:57Z</time>
      </trkpt>
      <trkpt lat="42.90772" lon="2.42962">
        <ele>669.2</ele>
        <time>2021-03-21T10:16:59Z</time>
      </trkpt>
      <trkpt lat="42.90771" lon="2.42955">
        <ele>669.3</ele>
        <time>2021-03-21T10:17:00Z</time>
      </trkpt>
      <trkpt lat="42.90769" lon="2.42947">
        <ele>669.4</ele>
        <time>2021-03-21T10:17:01Z</time>
      </trkpt>
      <trkpt lat="42.90767" lon="2.42938">
        <ele>669.6</ele>
        <time>2021-03-21T10:17:02Z</time>
      </trkpt>
      <trkpt lat="42.90765" lon="2.42931">
        <ele>669.7</ele>
        <time>2021-03-21T10:17:03Z</time>
      </trkpt>
      <trkpt lat="42.90764" lon="2.42924">
        <ele>669.8</ele>
        <time>2021-03-21T10:17:04Z</time>
      </trkpt>
      <trkpt lat="42.90762" lon="2.42918">
        <ele>669.9</ele>
        <time>2021-03-21T10:17:05Z</time>
      </trkpt>
      <trkpt lat="42.90758" lon="2.42904">
        <ele>670.1</ele>
        <time>2021-03-21T10:17:07Z</time>
      </trkpt>
      <trkpt lat="42.90759" lon="2.42897">
        <ele>670.2</ele>
        <time>2021-03-21T10:17:08Z</time>
      </trkpt>
      <trkpt lat="42.90761" lon="2.42883">
        <ele>670.4</ele>
        <time>2021-03-21T10:17:10Z</time>
      </trkpt>
      <trkpt lat="42.9076" lon="2.42877">
        <ele>670.4</ele>
        <time>2021-03-21T10:17:11Z</time>
      </trkpt>
      <trkpt lat="42.90757" lon="2.42872">
        <ele>670.5</ele>
        <time>2021-03-21T10:17:13Z</time>
      </trkpt>
      <trkpt lat="42.9076" lon="2.42861">
        <ele>670.6</ele>
        <time>2021-03-21T10:17:14Z</time>
      </trkpt>
      <trkpt lat="42.90762" lon="2.42852">
        <ele>670.7</ele>
        <time>2021-03-21T10:17:15Z</time>
      </trkpt>
      <trkpt lat="42.90764" lon="2.42835">
        <ele>670.9</ele>
        <time>2021-03-21T10:17:17Z</time>
      </trkpt>
      <trkpt lat="42.90765" lon="2.42828">
        <ele>671.1</ele>
        <time>2021-03-21T10:17:18Z</time>
      </trkpt>
      <trkpt lat="42.90765" lon="2.4282">
        <ele>671.2</ele>
        <time>2021-03-21T10:17:19Z</time>
      </trkpt>
      <trkpt lat="42.90765" lon="2.42806">
        <ele>671.6</ele>
        <time>2021-03-21T10:17:21Z</time>
      </trkpt>
      <trkpt lat="42.90765" lon="2.428">
        <ele>671.7</ele>
        <time>2021-03-21T10:17:22Z</time>
      </trkpt>
      <trkpt lat="42.90769" lon="2.42793">
        <ele>671.9</ele>
        <time>2021-03-21T10:17:24Z</time>
      </trkpt>
      <trkpt lat="42.9077" lon="2.42785">
        <ele>672.1</ele>
        <time>2021-03-21T10:17:25Z</time>
      </trkpt>
      <trkpt lat="42.90769" lon="2.42778">
        <ele>672.3</ele>
        <time>2021-03-21T10:17:27Z</time>
      </trkpt>
      <trkpt lat="42.90768" lon="2.42773">
        <ele>672.4</ele>
        <time>2021-03-21T10:17:28Z</time>
      </trkpt>
      <trkpt lat="42.90768" lon="2.42765">
        <ele>672.5</ele>
        <time>2021-03-21T10:17:29Z</time>
      </trkpt>
      <trkpt lat="42.90767" lon="2.42755">
        <ele>672.7</ele>
        <time>2021-03-21T10:17:30Z</time>
      </trkpt>
      <trkpt lat="42.90768" lon="2.42748">
        <ele>672.8</ele>
        <time>2021-03-21T10:17:31Z</time>
      </trkpt>
      <trkpt lat="42.90769" lon="2.42733">
        <ele>672.8</ele>
        <time>2021-03-21T10:17:33Z</time>
      </trkpt>
      <trkpt lat="42.90769" lon="2.42727">
        <ele>672.8</ele>
        <time>2021-03-21T10:17:34Z</time>
      </trkpt>
      <trkpt lat="42.90768" lon="2.42718">
        <ele>672.8</ele>
        <time>2021-03-21T10:17:35Z</time>
      </trkpt>
      <trkpt lat="42.90769" lon="2.4271">
        <ele>672.8</ele>
        <time>2021-03-21T10:17:37Z</time>
      </trkpt>
      <trkpt lat="42.90769" lon="2.42703">
        <ele>672.7</ele>
        <time>2021-03-21T10:17:38Z</time>
      </trkpt>
      <trkpt lat="42.9077" lon="2.42697">
        <ele>672.6</ele>
        <time>2021-03-21T10:17:39Z</time>
      </trkpt>
      <trkpt lat="42.90772" lon="2.42688">
        <ele>672.5</ele>
        <time>2021-03-21T10:17:41Z</time>
      </trkpt>
      <trkpt lat="42.90774" lon="2.42675">
        <ele>672.4</ele>
        <time>2021-03-21T10:17:42Z</time>
      </trkpt>
      <trkpt lat="42.90776" lon="2.42659">
        <ele>672.2</ele>
        <time>2021-03-21T10:17:44Z</time>
      </trkpt>
      <trkpt lat="42.90776" lon="2.42642">
        <ele>672</ele>
        <time>2021-03-21T10:17:46Z</time>
      </trkpt>
      <trkpt lat="42.90776" lon="2.42634">
        <ele>672</ele>
        <time>2021-03-21T10:17:47Z</time>
      </trkpt>
      <trkpt lat="42.90776" lon="2.42627">
        <ele>672</ele>
        <time>2021-03-21T10:17:48Z</time>
      </trkpt>
      <trkpt lat="42.90776" lon="2.42611">
        <ele>672</ele>
        <time>2021-03-21T10:17:50Z</time>
      </trkpt>
      <trkpt lat="42.90775" lon="2.42596">
        <ele>671.9</ele>
        <time>2021-03-21T10:17:52Z</time>
      </trkpt>
      <trkpt lat="42.90774" lon="2.42589">
        <ele>671.9</ele>
        <time>2021-03-21T10:17:53Z</time>
      </trkpt>
      <trkpt lat="42.90772" lon="2.42575">
        <ele>671.8</ele>
        <time>2021-03-21T10:17:55Z</time>
      </trkpt>
      <trkpt lat="42.90769" lon="2.42562">
        <ele>671.7</ele>
        <time>2021-03-21T10:17:57Z</time>
      </trkpt>
      <trkpt lat="42.90768" lon="2.42549">
        <ele>671.6</ele>
        <time>2021-03-21T10:17:59Z</time>
      </trkpt>
      <trkpt lat="42.90767" lon="2.42542">
        <ele>671.6</ele>
        <time>2021-03-21T10:18:00Z</time>
      </trkpt>
      <trkpt lat="42.90767" lon="2.42535">
        <ele>671.6</ele>
        <time>2021-03-21T10:18:01Z</time>
      </trkpt>
      <trkpt lat="42.90766" lon="2.42528">
        <ele>671.6</ele>
        <time>2021-03-21T10:18:02Z</time>
      </trkpt>
      <trkpt lat="42.90765" lon="2.42521">
        <ele>671.7</ele>
        <time>2021-03-21T10:18:03Z</time>
      </trkpt>
      <trkpt lat="42.90764" lon="2.42515">
        <ele>671.7</ele>
        <time>2021-03-21T10:18:04Z</time>
      </trkpt>
      <trkpt lat="42.90762" lon="2.42502">
        <ele>671.8</ele>
        <time>2021-03-21T10:18:06Z</time>
      </trkpt>
      <trkpt lat="42.90761" lon="2.4249">
        <ele>671.7</ele>
        <time>2021-03-21T10:18:08Z</time>
      </trkpt>
      <trkpt lat="42.9076" lon="2.42485">
        <ele>671.6</ele>
        <time>2021-03-21T10:18:09Z</time>
      </trkpt>
      <trkpt lat="42.90758" lon="2.42474">
        <ele>671.5</ele>
        <time>2021-03-21T10:18:11Z</time>
      </trkpt>
      <trkpt lat="42.90756" lon="2.42463">
        <ele>671.8</ele>
        <time>2021-03-21T10:18:13Z</time>
      </trkpt>
      <trkpt lat="42.90755" lon="2.42456">
        <ele>671.9</ele>
        <time>2021-03-21T10:18:14Z</time>
      </trkpt>
      <trkpt lat="42.90753" lon="2.4245">
        <ele>672.1</ele>
        <time>2021-03-21T10:18:15Z</time>
      </trkpt>
      <trkpt lat="42.90751" lon="2.42439">
        <ele>672.5</ele>
        <time>2021-03-21T10:18:17Z</time>
      </trkpt>
      <trkpt lat="42.90751" lon="2.42437">
        <ele>672.6</ele>
        <time>2021-03-21T10:18:18Z</time>
      </trkpt>
      <trkpt lat="42.90747" lon="2.42429">
        <ele>672.9</ele>
        <time>2021-03-21T10:18:20Z</time>
      </trkpt>
      <trkpt lat="42.90744" lon="2.42424">
        <ele>673.1</ele>
        <time>2021-03-21T10:18:21Z</time>
      </trkpt>
      <trkpt lat="42.90741" lon="2.42418">
        <ele>673.4</ele>
        <time>2021-03-21T10:18:22Z</time>
      </trkpt>
      <trkpt lat="42.90738" lon="2.42413">
        <ele>673.6</ele>
        <time>2021-03-21T10:18:23Z</time>
      </trkpt>
      <trkpt lat="42.90735" lon="2.42405">
        <ele>673.9</ele>
        <time>2021-03-21T10:18:25Z</time>
      </trkpt>
      <trkpt lat="42.90728" lon="2.42393">
        <ele>674.4</ele>
        <time>2021-03-21T10:18:26Z</time>
      </trkpt>
      <trkpt lat="42.90726" lon="2.42386">
        <ele>674.7</ele>
        <time>2021-03-21T10:18:27Z</time>
      </trkpt>
      <trkpt lat="42.90721" lon="2.42374">
        <ele>675.2</ele>
        <time>2021-03-21T10:18:29Z</time>
      </trkpt>
      <trkpt lat="42.90718" lon="2.42368">
        <ele>675.4</ele>
        <time>2021-03-21T10:18:30Z</time>
      </trkpt>
      <trkpt lat="42.90716" lon="2.42364">
        <ele>675.6</ele>
        <time>2021-03-21T10:18:31Z</time>
      </trkpt>
      <trkpt lat="42.90713" lon="2.42359">
        <ele>675.8</ele>
        <time>2021-03-21T10:18:33Z</time>
      </trkpt>
      <trkpt lat="42.90709" lon="2.42349">
        <ele>676.2</ele>
        <time>2021-03-21T10:18:35Z</time>
      </trkpt>
      <trkpt lat="42.90707" lon="2.42341">
        <ele>676.5</ele>
        <time>2021-03-21T10:18:36Z</time>
      </trkpt>
      <trkpt lat="42.90704" lon="2.42334">
        <ele>676.7</ele>
        <time>2021-03-21T10:18:37Z</time>
      </trkpt>
      <trkpt lat="42.90702" lon="2.42328">
        <ele>676.9</ele>
        <time>2021-03-21T10:18:38Z</time>
      </trkpt>
      <trkpt lat="42.90699" lon="2.42319">
        <ele>677.2</ele>
        <time>2021-03-21T10:18:40Z</time>
      </trkpt>
      <trkpt lat="42.90698" lon="2.42306">
        <ele>677.5</ele>
        <time>2021-03-21T10:18:41Z</time>
      </trkpt>
      <trkpt lat="42.90696" lon="2.42292">
        <ele>677.8</ele>
        <time>2021-03-21T10:18:43Z</time>
      </trkpt>
      <trkpt lat="42.90698" lon="2.42282">
        <ele>678</ele>
        <time>2021-03-21T10:18:45Z</time>
      </trkpt>
      <trkpt lat="42.90698" lon="2.42273">
        <ele>678.1</ele>
        <time>2021-03-21T10:18:46Z</time>
      </trkpt>
      <trkpt lat="42.90697" lon="2.42266">
        <ele>678.3</ele>
        <time>2021-03-21T10:18:47Z</time>
      </trkpt>
      <trkpt lat="42.90697" lon="2.4226">
        <ele>678.4</ele>
        <time>2021-03-21T10:18:48Z</time>
      </trkpt>
      <trkpt lat="42.90694" lon="2.42254">
        <ele>678.5</ele>
        <time>2021-03-21T10:18:49Z</time>
      </trkpt>
      <trkpt lat="42.90692" lon="2.42243">
        <ele>678.7</ele>
        <time>2021-03-21T10:18:51Z</time>
      </trkpt>
      <trkpt lat="42.90691" lon="2.42236">
        <ele>678.9</ele>
        <time>2021-03-21T10:18:52Z</time>
      </trkpt>
      <trkpt lat="42.9069" lon="2.42231">
        <ele>679.1</ele>
        <time>2021-03-21T10:18:53Z</time>
      </trkpt>
      <trkpt lat="42.90688" lon="2.4222">
        <ele>679.4</ele>
        <time>2021-03-21T10:18:55Z</time>
      </trkpt>
      <trkpt lat="42.90687" lon="2.42214">
        <ele>679.6</ele>
        <time>2021-03-21T10:18:56Z</time>
      </trkpt>
      <trkpt lat="42.90686" lon="2.42207">
        <ele>679.8</ele>
        <time>2021-03-21T10:18:58Z</time>
      </trkpt>
      <trkpt lat="42.90684" lon="2.422">
        <ele>680.1</ele>
        <time>2021-03-21T10:18:59Z</time>
      </trkpt>
      <trkpt lat="42.90683" lon="2.42196">
        <ele>680.3</ele>
        <time>2021-03-21T10:19:00Z</time>
      </trkpt>
      <trkpt lat="42.90682" lon="2.4219">
        <ele>680.5</ele>
        <time>2021-03-21T10:19:02Z</time>
      </trkpt>
      <trkpt lat="42.9068" lon="2.42185">
        <ele>680.7</ele>
        <time>2021-03-21T10:19:03Z</time>
      </trkpt>
      <trkpt lat="42.90679" lon="2.42177">
        <ele>680.9</ele>
        <time>2021-03-21T10:19:04Z</time>
      </trkpt>
      <trkpt lat="42.90677" lon="2.42171">
        <ele>681.1</ele>
        <time>2021-03-21T10:19:06Z</time>
      </trkpt>
      <trkpt lat="42.90677" lon="2.42166">
        <ele>681.3</ele>
        <time>2021-03-21T10:19:07Z</time>
      </trkpt>
      <trkpt lat="42.90676" lon="2.42159">
        <ele>681.5</ele>
        <time>2021-03-21T10:19:08Z</time>
      </trkpt>
      <trkpt lat="42.90675" lon="2.42148">
        <ele>681.9</ele>
        <time>2021-03-21T10:19:10Z</time>
      </trkpt>
      <trkpt lat="42.90675" lon="2.42139">
        <ele>682.3</ele>
        <time>2021-03-21T10:19:11Z</time>
      </trkpt>
      <trkpt lat="42.90673" lon="2.42135">
        <ele>682.4</ele>
        <time>2021-03-21T10:19:12Z</time>
      </trkpt>
      <trkpt lat="42.9067" lon="2.42128">
        <ele>682.7</ele>
        <time>2021-03-21T10:19:13Z</time>
      </trkpt>
      <trkpt lat="42.90669" lon="2.42124">
        <ele>682.9</ele>
        <time>2021-03-21T10:19:14Z</time>
      </trkpt>
      <trkpt lat="42.90668" lon="2.42118">
        <ele>683.2</ele>
        <time>2021-03-21T10:19:16Z</time>
      </trkpt>
      <trkpt lat="42.90666" lon="2.42112">
        <ele>683.4</ele>
        <time>2021-03-21T10:19:17Z</time>
      </trkpt>
      <trkpt lat="42.90664" lon="2.42106">
        <ele>683.6</ele>
        <time>2021-03-21T10:19:18Z</time>
      </trkpt>
      <trkpt lat="42.9066" lon="2.42096">
        <ele>684.1</ele>
        <time>2021-03-21T10:19:20Z</time>
      </trkpt>
      <trkpt lat="42.90657" lon="2.42089">
        <ele>684.3</ele>
        <time>2021-03-21T10:19:21Z</time>
      </trkpt>
      <trkpt lat="42.90655" lon="2.42085">
        <ele>684.4</ele>
        <time>2021-03-21T10:19:22Z</time>
      </trkpt>
      <trkpt lat="42.90646" lon="2.42072">
        <ele>684.9</ele>
        <time>2021-03-21T10:19:24Z</time>
      </trkpt>
      <trkpt lat="42.90643" lon="2.42068">
        <ele>685</ele>
        <time>2021-03-21T10:19:25Z</time>
      </trkpt>
      <trkpt lat="42.90643" lon="2.42061">
        <ele>685.1</ele>
        <time>2021-03-21T10:19:27Z</time>
      </trkpt>
      <trkpt lat="42.9064" lon="2.42056">
        <ele>685.3</ele>
        <time>2021-03-21T10:19:28Z</time>
      </trkpt>
      <trkpt lat="42.90633" lon="2.42046">
        <ele>685.7</ele>
        <time>2021-03-21T10:19:30Z</time>
      </trkpt>
      <trkpt lat="42.90629" lon="2.4204">
        <ele>685.9</ele>
        <time>2021-03-21T10:19:31Z</time>
      </trkpt>
      <trkpt lat="42.90626" lon="2.42032">
        <ele>686.2</ele>
        <time>2021-03-21T10:19:32Z</time>
      </trkpt>
      <trkpt lat="42.90623" lon="2.42022">
        <ele>686.6</ele>
        <time>2021-03-21T10:19:33Z</time>
      </trkpt>
      <trkpt lat="42.9062" lon="2.42011">
        <ele>687.1</ele>
        <time>2021-03-21T10:19:35Z</time>
      </trkpt>
      <trkpt lat="42.90619" lon="2.42006">
        <ele>687.3</ele>
        <time>2021-03-21T10:19:36Z</time>
      </trkpt>
      <trkpt lat="42.90618" lon="2.41999">
        <ele>687.6</ele>
        <time>2021-03-21T10:19:37Z</time>
      </trkpt>
      <trkpt lat="42.90615" lon="2.41987">
        <ele>688.1</ele>
        <time>2021-03-21T10:19:39Z</time>
      </trkpt>
      <trkpt lat="42.90614" lon="2.41979">
        <ele>688.5</ele>
        <time>2021-03-21T10:19:41Z</time>
      </trkpt>
      <trkpt lat="42.90614" lon="2.41973">
        <ele>688.7</ele>
        <time>2021-03-21T10:19:42Z</time>
      </trkpt>
      <trkpt lat="42.90614" lon="2.41968">
        <ele>689</ele>
        <time>2021-03-21T10:19:43Z</time>
      </trkpt>
      <trkpt lat="42.90615" lon="2.41962">
        <ele>689.2</ele>
        <time>2021-03-21T10:19:44Z</time>
      </trkpt>
      <trkpt lat="42.90616" lon="2.41956">
        <ele>689.5</ele>
        <time>2021-03-21T10:19:45Z</time>
      </trkpt>
      <trkpt lat="42.90617" lon="2.4195">
        <ele>689.8</ele>
        <time>2021-03-21T10:19:47Z</time>
      </trkpt>
      <trkpt lat="42.90618" lon="2.41946">
        <ele>690</ele>
        <time>2021-03-21T10:19:48Z</time>
      </trkpt>
      <trkpt lat="42.9062" lon="2.41938">
        <ele>690.4</ele>
        <time>2021-03-21T10:19:50Z</time>
      </trkpt>
      <trkpt lat="42.90622" lon="2.41932">
        <ele>690.7</ele>
        <time>2021-03-21T10:19:51Z</time>
      </trkpt>
      <trkpt lat="42.90624" lon="2.41928">
        <ele>690.9</ele>
        <time>2021-03-21T10:19:53Z</time>
      </trkpt>
      <trkpt lat="42.90626" lon="2.41923">
        <ele>691.2</ele>
        <time>2021-03-21T10:19:54Z</time>
      </trkpt>
      <trkpt lat="42.90628" lon="2.41919">
        <ele>691.4</ele>
        <time>2021-03-21T10:19:55Z</time>
      </trkpt>
      <trkpt lat="42.90629" lon="2.41915">
        <ele>691.6</ele>
        <time>2021-03-21T10:19:56Z</time>
      </trkpt>
      <trkpt lat="42.90631" lon="2.41911">
        <ele>691.9</ele>
        <time>2021-03-21T10:19:57Z</time>
      </trkpt>
      <trkpt lat="42.90634" lon="2.41903">
        <ele>692.3</ele>
        <time>2021-03-21T10:19:59Z</time>
      </trkpt>
      <trkpt lat="42.90637" lon="2.41897">
        <ele>692.7</ele>
        <time>2021-03-21T10:20:01Z</time>
      </trkpt>
      <trkpt lat="42.9064" lon="2.4189">
        <ele>693</ele>
        <time>2021-03-21T10:20:02Z</time>
      </trkpt>
      <trkpt lat="42.90642" lon="2.41887">
        <ele>693.2</ele>
        <time>2021-03-21T10:20:03Z</time>
      </trkpt>
      <trkpt lat="42.90646" lon="2.41881">
        <ele>693.6</ele>
        <time>2021-03-21T10:20:05Z</time>
      </trkpt>
      <trkpt lat="42.90648" lon="2.41877">
        <ele>693.9</ele>
        <time>2021-03-21T10:20:06Z</time>
      </trkpt>
      <trkpt lat="42.90651" lon="2.41874">
        <ele>694.1</ele>
        <time>2021-03-21T10:20:07Z</time>
      </trkpt>
      <trkpt lat="42.90654" lon="2.41871">
        <ele>694.3</ele>
        <time>2021-03-21T10:20:08Z</time>
      </trkpt>
      <trkpt lat="42.90658" lon="2.41868">
        <ele>694.6</ele>
        <time>2021-03-21T10:20:10Z</time>
      </trkpt>
      <trkpt lat="42.90664" lon="2.41866">
        <ele>695</ele>
        <time>2021-03-21T10:20:11Z</time>
      </trkpt>
      <trkpt lat="42.90669" lon="2.41864">
        <ele>695.2</ele>
        <time>2021-03-21T10:20:13Z</time>
      </trkpt>
      <trkpt lat="42.90675" lon="2.41863">
        <ele>695.6</ele>
        <time>2021-03-21T10:20:14Z</time>
      </trkpt>
      <trkpt lat="42.9068" lon="2.41863">
        <ele>695.8</ele>
        <time>2021-03-21T10:20:15Z</time>
      </trkpt>
      <trkpt lat="42.90684" lon="2.41864">
        <ele>696</ele>
        <time>2021-03-21T10:20:16Z</time>
      </trkpt>
      <trkpt lat="42.90688" lon="2.41864">
        <ele>696.2</ele>
        <time>2021-03-21T10:20:18Z</time>
      </trkpt>
      <trkpt lat="42.90693" lon="2.41864">
        <ele>696.5</ele>
        <time>2021-03-21T10:20:19Z</time>
      </trkpt>
      <trkpt lat="42.90698" lon="2.41865">
        <ele>696.7</ele>
        <time>2021-03-21T10:20:21Z</time>
      </trkpt>
      <trkpt lat="42.90702" lon="2.41866">
        <ele>696.9</ele>
        <time>2021-03-21T10:20:22Z</time>
      </trkpt>
      <trkpt lat="42.90707" lon="2.41866">
        <ele>697.2</ele>
        <time>2021-03-21T10:20:23Z</time>
      </trkpt>
      <trkpt lat="42.9071" lon="2.41866">
        <ele>697.3</ele>
        <time>2021-03-21T10:20:24Z</time>
      </trkpt>
      <trkpt lat="42.90714" lon="2.41864">
        <ele>697.5</ele>
        <time>2021-03-21T10:20:25Z</time>
      </trkpt>
      <trkpt lat="42.90718" lon="2.41862">
        <ele>697.7</ele>
        <time>2021-03-21T10:20:27Z</time>
      </trkpt>
      <trkpt lat="42.90721" lon="2.41858">
        <ele>697.8</ele>
        <time>2021-03-21T10:20:28Z</time>
      </trkpt>
      <trkpt lat="42.90724" lon="2.41855">
        <ele>698</ele>
        <time>2021-03-21T10:20:29Z</time>
      </trkpt>
      <trkpt lat="42.90728" lon="2.41851">
        <ele>698.2</ele>
        <time>2021-03-21T10:20:30Z</time>
      </trkpt>
      <trkpt lat="42.90733" lon="2.41844">
        <ele>698.6</ele>
        <time>2021-03-21T10:20:32Z</time>
      </trkpt>
      <trkpt lat="42.90736" lon="2.41838">
        <ele>698.8</ele>
        <time>2021-03-21T10:20:34Z</time>
      </trkpt>
      <trkpt lat="42.90741" lon="2.41832">
        <ele>699.1</ele>
        <time>2021-03-21T10:20:35Z</time>
      </trkpt>
      <trkpt lat="42.90745" lon="2.41825">
        <ele>699.4</ele>
        <time>2021-03-21T10:20:37Z</time>
      </trkpt>
      <trkpt lat="42.90748" lon="2.41819">
        <ele>699.6</ele>
        <time>2021-03-21T10:20:38Z</time>
      </trkpt>
      <trkpt lat="42.90751" lon="2.41814">
        <ele>699.9</ele>
        <time>2021-03-21T10:20:40Z</time>
      </trkpt>
      <trkpt lat="42.90755" lon="2.41807">
        <ele>700.2</ele>
        <time>2021-03-21T10:20:41Z</time>
      </trkpt>
      <trkpt lat="42.90759" lon="2.41801">
        <ele>700.5</ele>
        <time>2021-03-21T10:20:43Z</time>
      </trkpt>
      <trkpt lat="42.90761" lon="2.41796">
        <ele>700.7</ele>
        <time>2021-03-21T10:20:44Z</time>
      </trkpt>
      <trkpt lat="42.90765" lon="2.4179">
        <ele>701</ele>
        <time>2021-03-21T10:20:45Z</time>
      </trkpt>
      <trkpt lat="42.90769" lon="2.41783">
        <ele>701.3</ele>
        <time>2021-03-21T10:20:47Z</time>
      </trkpt>
      <trkpt lat="42.90772" lon="2.41778">
        <ele>701.5</ele>
        <time>2021-03-21T10:20:48Z</time>
      </trkpt>
      <trkpt lat="42.90775" lon="2.41772">
        <ele>701.8</ele>
        <time>2021-03-21T10:20:49Z</time>
      </trkpt>
      <trkpt lat="42.90778" lon="2.41763">
        <ele>702.1</ele>
        <time>2021-03-21T10:20:51Z</time>
      </trkpt>
      <trkpt lat="42.9078" lon="2.41756">
        <ele>702.4</ele>
        <time>2021-03-21T10:20:52Z</time>
      </trkpt>
      <trkpt lat="42.90781" lon="2.4175">
        <ele>702.6</ele>
        <time>2021-03-21T10:20:53Z</time>
      </trkpt>
      <trkpt lat="42.90782" lon="2.41741">
        <ele>703</ele>
        <time>2021-03-21T10:20:55Z</time>
      </trkpt>
      <trkpt lat="42.90781" lon="2.41731">
        <ele>703.2</ele>
        <time>2021-03-21T10:20:56Z</time>
      </trkpt>
      <trkpt lat="42.90779" lon="2.41722">
        <ele>703.5</ele>
        <time>2021-03-21T10:20:58Z</time>
      </trkpt>
      <trkpt lat="42.90776" lon="2.41713">
        <ele>703.7</ele>
        <time>2021-03-21T10:20:59Z</time>
      </trkpt>
      <trkpt lat="42.90773" lon="2.41708">
        <ele>703.8</ele>
        <time>2021-03-21T10:21:00Z</time>
      </trkpt>
      <trkpt lat="42.90768" lon="2.41702">
        <ele>704.1</ele>
        <time>2021-03-21T10:21:02Z</time>
      </trkpt>
      <trkpt lat="42.90763" lon="2.41697">
        <ele>704.3</ele>
        <time>2021-03-21T10:21:03Z</time>
      </trkpt>
      <trkpt lat="42.9076" lon="2.41693">
        <ele>704.5</ele>
        <time>2021-03-21T10:21:04Z</time>
      </trkpt>
      <trkpt lat="42.90753" lon="2.41688">
        <ele>704.7</ele>
        <time>2021-03-21T10:21:06Z</time>
      </trkpt>
      <trkpt lat="42.90747" lon="2.41682">
        <ele>705</ele>
        <time>2021-03-21T10:21:07Z</time>
      </trkpt>
      <trkpt lat="42.9074" lon="2.41679">
        <ele>705.3</ele>
        <time>2021-03-21T10:21:09Z</time>
      </trkpt>
      <trkpt lat="42.90736" lon="2.41675">
        <ele>705.5</ele>
        <time>2021-03-21T10:21:10Z</time>
      </trkpt>
      <trkpt lat="42.90731" lon="2.41671">
        <ele>705.7</ele>
        <time>2021-03-21T10:21:11Z</time>
      </trkpt>
      <trkpt lat="42.90723" lon="2.41664">
        <ele>706.1</ele>
        <time>2021-03-21T10:21:13Z</time>
      </trkpt>
      <trkpt lat="42.90715" lon="2.41658">
        <ele>706.5</ele>
        <time>2021-03-21T10:21:15Z</time>
      </trkpt>
      <trkpt lat="42.90711" lon="2.41655">
        <ele>706.7</ele>
        <time>2021-03-21T10:21:16Z</time>
      </trkpt>
      <trkpt lat="42.90709" lon="2.41651">
        <ele>706.8</ele>
        <time>2021-03-21T10:21:18Z</time>
      </trkpt>
      <trkpt lat="42.90707" lon="2.41649">
        <ele>706.9</ele>
        <time>2021-03-21T10:21:19Z</time>
      </trkpt>
      <trkpt lat="42.90702" lon="2.41645">
        <ele>707.1</ele>
        <time>2021-03-21T10:21:20Z</time>
      </trkpt>
      <trkpt lat="42.90697" lon="2.41641">
        <ele>707.4</ele>
        <time>2021-03-21T10:21:21Z</time>
      </trkpt>
      <trkpt lat="42.90691" lon="2.41637">
        <ele>707.7</ele>
        <time>2021-03-21T10:21:23Z</time>
      </trkpt>
      <trkpt lat="42.90687" lon="2.41634">
        <ele>707.9</ele>
        <time>2021-03-21T10:21:24Z</time>
      </trkpt>
      <trkpt lat="42.90681" lon="2.4163">
        <ele>708.2</ele>
        <time>2021-03-21T10:21:25Z</time>
      </trkpt>
      <trkpt lat="42.90677" lon="2.41627">
        <ele>708.5</ele>
        <time>2021-03-21T10:21:26Z</time>
      </trkpt>
      <trkpt lat="42.90671" lon="2.41623">
        <ele>708.8</ele>
        <time>2021-03-21T10:21:28Z</time>
      </trkpt>
      <trkpt lat="42.90666" lon="2.41622">
        <ele>709</ele>
        <time>2021-03-21T10:21:29Z</time>
      </trkpt>
      <trkpt lat="42.90661" lon="2.41621">
        <ele>709.2</ele>
        <time>2021-03-21T10:21:30Z</time>
      </trkpt>
      <trkpt lat="42.90655" lon="2.4162">
        <ele>709.5</ele>
        <time>2021-03-21T10:21:31Z</time>
      </trkpt>
      <trkpt lat="42.90647" lon="2.4162">
        <ele>709.8</ele>
        <time>2021-03-21T10:21:33Z</time>
      </trkpt>
      <trkpt lat="42.90642" lon="2.4162">
        <ele>710</ele>
        <time>2021-03-21T10:21:34Z</time>
      </trkpt>
      <trkpt lat="42.90635" lon="2.41622">
        <ele>710.4</ele>
        <time>2021-03-21T10:21:36Z</time>
      </trkpt>
      <trkpt lat="42.9063" lon="2.41624">
        <ele>710.6</ele>
        <time>2021-03-21T10:21:37Z</time>
      </trkpt>
      <trkpt lat="42.90623" lon="2.41627">
        <ele>710.9</ele>
        <time>2021-03-21T10:21:39Z</time>
      </trkpt>
      <trkpt lat="42.90615" lon="2.41628">
        <ele>711.2</ele>
        <time>2021-03-21T10:21:41Z</time>
      </trkpt>
      <trkpt lat="42.90608" lon="2.4163">
        <ele>711.5</ele>
        <time>2021-03-21T10:21:42Z</time>
      </trkpt>
      <trkpt lat="42.90604" lon="2.41631">
        <ele>711.7</ele>
        <time>2021-03-21T10:21:43Z</time>
      </trkpt>
      <trkpt lat="42.90599" lon="2.41632">
        <ele>711.9</ele>
        <time>2021-03-21T10:21:44Z</time>
      </trkpt>
      <trkpt lat="42.90595" lon="2.41633">
        <ele>712</ele>
        <time>2021-03-21T10:21:45Z</time>
      </trkpt>
      <trkpt lat="42.90588" lon="2.41635">
        <ele>712.3</ele>
        <time>2021-03-21T10:21:47Z</time>
      </trkpt>
      <trkpt lat="42.90582" lon="2.41637">
        <ele>712.5</ele>
        <time>2021-03-21T10:21:48Z</time>
      </trkpt>
      <trkpt lat="42.90575" lon="2.41638">
        <ele>712.8</ele>
        <time>2021-03-21T10:21:49Z</time>
      </trkpt>
      <trkpt lat="42.9057" lon="2.41638">
        <ele>713</ele>
        <time>2021-03-21T10:21:50Z</time>
      </trkpt>
      <trkpt lat="42.90564" lon="2.41637">
        <ele>713.2</ele>
        <time>2021-03-21T10:21:52Z</time>
      </trkpt>
      <trkpt lat="42.9056" lon="2.41637">
        <ele>713.3</ele>
        <time>2021-03-21T10:21:53Z</time>
      </trkpt>
      <trkpt lat="42.90555" lon="2.41637">
        <ele>713.5</ele>
        <time>2021-03-21T10:21:54Z</time>
      </trkpt>
      <trkpt lat="42.9055" lon="2.41637">
        <ele>713.7</ele>
        <time>2021-03-21T10:21:55Z</time>
      </trkpt>
      <trkpt lat="42.90545" lon="2.41636">
        <ele>713.9</ele>
        <time>2021-03-21T10:21:56Z</time>
      </trkpt>
      <trkpt lat="42.9054" lon="2.41636">
        <ele>714.1</ele>
        <time>2021-03-21T10:21:57Z</time>
      </trkpt>
      <trkpt lat="42.90533" lon="2.41637">
        <ele>714.3</ele>
        <time>2021-03-21T10:21:59Z</time>
      </trkpt>
      <trkpt lat="42.90527" lon="2.41636">
        <ele>714.6</ele>
        <time>2021-03-21T10:22:00Z</time>
      </trkpt>
      <trkpt lat="42.90517" lon="2.41636">
        <ele>714.9</ele>
        <time>2021-03-21T10:22:02Z</time>
      </trkpt>
      <trkpt lat="42.90511" lon="2.41633">
        <ele>715.1</ele>
        <time>2021-03-21T10:22:04Z</time>
      </trkpt>
      <trkpt lat="42.90505" lon="2.4163">
        <ele>715.3</ele>
        <time>2021-03-21T10:22:05Z</time>
      </trkpt>
      <trkpt lat="42.90501" lon="2.41627">
        <ele>715.5</ele>
        <time>2021-03-21T10:22:06Z</time>
      </trkpt>
      <trkpt lat="42.90498" lon="2.41624">
        <ele>715.6</ele>
        <time>2021-03-21T10:22:07Z</time>
      </trkpt>
      <trkpt lat="42.90493" lon="2.41617">
        <ele>715.9</ele>
        <time>2021-03-21T10:22:09Z</time>
      </trkpt>
      <trkpt lat="42.9049" lon="2.41612">
        <ele>716.1</ele>
        <time>2021-03-21T10:22:10Z</time>
      </trkpt>
      <trkpt lat="42.90486" lon="2.41607">
        <ele>716.3</ele>
        <time>2021-03-21T10:22:11Z</time>
      </trkpt>
      <trkpt lat="42.90483" lon="2.416">
        <ele>716.5</ele>
        <time>2021-03-21T10:22:12Z</time>
      </trkpt>
      <trkpt lat="42.9048" lon="2.41595">
        <ele>716.7</ele>
        <time>2021-03-21T10:22:14Z</time>
      </trkpt>
      <trkpt lat="42.90476" lon="2.41587">
        <ele>716.9</ele>
        <time>2021-03-21T10:22:15Z</time>
      </trkpt>
      <trkpt lat="42.90472" lon="2.41582">
        <ele>717.1</ele>
        <time>2021-03-21T10:22:16Z</time>
      </trkpt>
      <trkpt lat="42.90469" lon="2.41578">
        <ele>717.3</ele>
        <time>2021-03-21T10:22:18Z</time>
      </trkpt>
      <trkpt lat="42.90465" lon="2.41574">
        <ele>717.4</ele>
        <time>2021-03-21T10:22:19Z</time>
      </trkpt>
      <trkpt lat="42.9046" lon="2.4157">
        <ele>717.7</ele>
        <time>2021-03-21T10:22:20Z</time>
      </trkpt>
      <trkpt lat="42.90455" lon="2.41565">
        <ele>718</ele>
        <time>2021-03-21T10:22:22Z</time>
      </trkpt>
      <trkpt lat="42.90451" lon="2.41562">
        <ele>718.2</ele>
        <time>2021-03-21T10:22:23Z</time>
      </trkpt>
      <trkpt lat="42.90445" lon="2.41558">
        <ele>718.4</ele>
        <time>2021-03-21T10:22:24Z</time>
      </trkpt>
      <trkpt lat="42.9044" lon="2.41555">
        <ele>718.7</ele>
        <time>2021-03-21T10:22:26Z</time>
      </trkpt>
      <trkpt lat="42.90436" lon="2.41553">
        <ele>718.9</ele>
        <time>2021-03-21T10:22:27Z</time>
      </trkpt>
      <trkpt lat="42.9043" lon="2.41551">
        <ele>719.1</ele>
        <time>2021-03-21T10:22:28Z</time>
      </trkpt>
      <trkpt lat="42.90424" lon="2.41549">
        <ele>719.4</ele>
        <time>2021-03-21T10:22:29Z</time>
      </trkpt>
      <trkpt lat="42.90416" lon="2.41548">
        <ele>719.7</ele>
        <time>2021-03-21T10:22:31Z</time>
      </trkpt>
      <trkpt lat="42.90411" lon="2.41548">
        <ele>719.9</ele>
        <time>2021-03-21T10:22:32Z</time>
      </trkpt>
      <trkpt lat="42.90405" lon="2.41547">
        <ele>720.2</ele>
        <time>2021-03-21T10:22:34Z</time>
      </trkpt>
      <trkpt lat="42.904" lon="2.41546">
        <ele>720.4</ele>
        <time>2021-03-21T10:22:35Z</time>
      </trkpt>
      <trkpt lat="42.90395" lon="2.41545">
        <ele>720.7</ele>
        <time>2021-03-21T10:22:36Z</time>
      </trkpt>
      <trkpt lat="42.9039" lon="2.41544">
        <ele>721</ele>
        <time>2021-03-21T10:22:38Z</time>
      </trkpt>
      <trkpt lat="42.90384" lon="2.41543">
        <ele>721.3</ele>
        <time>2021-03-21T10:22:39Z</time>
      </trkpt>
      <trkpt lat="42.9038" lon="2.41542">
        <ele>721.4</ele>
        <time>2021-03-21T10:22:40Z</time>
      </trkpt>
      <trkpt lat="42.90374" lon="2.41539">
        <ele>721.8</ele>
        <time>2021-03-21T10:22:42Z</time>
      </trkpt>
      <trkpt lat="42.90365" lon="2.41533">
        <ele>722.3</ele>
        <time>2021-03-21T10:22:44Z</time>
      </trkpt>
      <trkpt lat="42.90361" lon="2.4153">
        <ele>722.5</ele>
        <time>2021-03-21T10:22:45Z</time>
      </trkpt>
      <trkpt lat="42.90357" lon="2.41526">
        <ele>722.8</ele>
        <time>2021-03-21T10:22:46Z</time>
      </trkpt>
      <trkpt lat="42.90351" lon="2.4152">
        <ele>723.2</ele>
        <time>2021-03-21T10:22:48Z</time>
      </trkpt>
      <trkpt lat="42.90345" lon="2.41514">
        <ele>723.6</ele>
        <time>2021-03-21T10:22:49Z</time>
      </trkpt>
      <trkpt lat="42.90339" lon="2.41509">
        <ele>723.9</ele>
        <time>2021-03-21T10:22:51Z</time>
      </trkpt>
      <trkpt lat="42.90335" lon="2.41506">
        <ele>724.2</ele>
        <time>2021-03-21T10:22:52Z</time>
      </trkpt>
      <trkpt lat="42.90329" lon="2.41501">
        <ele>724.5</ele>
        <time>2021-03-21T10:22:54Z</time>
      </trkpt>
      <trkpt lat="42.90325" lon="2.41498">
        <ele>724.7</ele>
        <time>2021-03-21T10:22:55Z</time>
      </trkpt>
      <trkpt lat="42.90321" lon="2.41495">
        <ele>725</ele>
        <time>2021-03-21T10:22:56Z</time>
      </trkpt>
      <trkpt lat="42.90317" lon="2.41492">
        <ele>725.2</ele>
        <time>2021-03-21T10:22:57Z</time>
      </trkpt>
      <trkpt lat="42.90312" lon="2.41488">
        <ele>725.5</ele>
        <time>2021-03-21T10:22:58Z</time>
      </trkpt>
      <trkpt lat="42.90305" lon="2.41484">
        <ele>726</ele>
        <time>2021-03-21T10:23:00Z</time>
      </trkpt>
      <trkpt lat="42.90301" lon="2.41482">
        <ele>726.3</ele>
        <time>2021-03-21T10:23:01Z</time>
      </trkpt>
      <trkpt lat="42.90296" lon="2.41479">
        <ele>726.7</ele>
        <time>2021-03-21T10:23:03Z</time>
      </trkpt>
      <trkpt lat="42.90291" lon="2.41476">
        <ele>727</ele>
        <time>2021-03-21T10:23:04Z</time>
      </trkpt>
      <trkpt lat="42.90285" lon="2.41473">
        <ele>727.4</ele>
        <time>2021-03-21T10:23:06Z</time>
      </trkpt>
      <trkpt lat="42.9028" lon="2.41471">
        <ele>727.7</ele>
        <time>2021-03-21T10:23:07Z</time>
      </trkpt>
      <trkpt lat="42.90276" lon="2.41468">
        <ele>728</ele>
        <time>2021-03-21T10:23:08Z</time>
      </trkpt>
      <trkpt lat="42.90273" lon="2.41464">
        <ele>728.3</ele>
        <time>2021-03-21T10:23:09Z</time>
      </trkpt>
      <trkpt lat="42.90269" lon="2.41461">
        <ele>728.6</ele>
        <time>2021-03-21T10:23:10Z</time>
      </trkpt>
      <trkpt lat="42.90264" lon="2.41454">
        <ele>729</ele>
        <time>2021-03-21T10:23:12Z</time>
      </trkpt>
      <trkpt lat="42.9026" lon="2.41449">
        <ele>729.2</ele>
        <time>2021-03-21T10:23:13Z</time>
      </trkpt>
      <trkpt lat="42.90256" lon="2.41444">
        <ele>729.5</ele>
        <time>2021-03-21T10:23:14Z</time>
      </trkpt>
      <trkpt lat="42.90252" lon="2.41437">
        <ele>729.7</ele>
        <time>2021-03-21T10:23:16Z</time>
      </trkpt>
      <trkpt lat="42.90249" lon="2.41432">
        <ele>729.9</ele>
        <time>2021-03-21T10:23:17Z</time>
      </trkpt>
      <trkpt lat="42.90247" lon="2.41427">
        <ele>729.9</ele>
        <time>2021-03-21T10:23:18Z</time>
      </trkpt>
      <trkpt lat="42.90244" lon="2.41422">
        <ele>729.9</ele>
        <time>2021-03-21T10:23:19Z</time>
      </trkpt>
      <trkpt lat="42.90238" lon="2.41406">
        <ele>729.7</ele>
        <time>2021-03-21T10:23:21Z</time>
      </trkpt>
      <trkpt lat="42.90236" lon="2.41391">
        <ele>728.9</ele>
        <time>2021-03-21T10:23:23Z</time>
      </trkpt>
      <trkpt lat="42.90239" lon="2.41383">
        <ele>728.6</ele>
        <time>2021-03-21T10:23:24Z</time>
      </trkpt>
      <trkpt lat="42.90244" lon="2.41377">
        <ele>728.2</ele>
        <time>2021-03-21T10:23:25Z</time>
      </trkpt>
      <trkpt lat="42.90258" lon="2.41371">
        <ele>727.6</ele>
        <time>2021-03-21T10:23:27Z</time>
      </trkpt>
      <trkpt lat="42.90264" lon="2.41372">
        <ele>727.3</ele>
        <time>2021-03-21T10:23:28Z</time>
      </trkpt>
      <trkpt lat="42.90277" lon="2.4138">
        <ele>726.7</ele>
        <time>2021-03-21T10:23:30Z</time>
      </trkpt>
      <trkpt lat="42.90291" lon="2.41387">
        <ele>726</ele>
        <time>2021-03-21T10:23:32Z</time>
      </trkpt>
      <trkpt lat="42.90305" lon="2.41391">
        <ele>725.4</ele>
        <time>2021-03-21T10:23:34Z</time>
      </trkpt>
      <trkpt lat="42.90311" lon="2.41391">
        <ele>725</ele>
        <time>2021-03-21T10:23:35Z</time>
      </trkpt>
      <trkpt lat="42.90326" lon="2.41383">
        <ele>724.2</ele>
        <time>2021-03-21T10:23:37Z</time>
      </trkpt>
      <trkpt lat="42.90333" lon="2.41377">
        <ele>723.6</ele>
        <time>2021-03-21T10:23:38Z</time>
      </trkpt>
      <trkpt lat="42.90349" lon="2.41361">
        <ele>722.4</ele>
        <time>2021-03-21T10:23:40Z</time>
      </trkpt>
      <trkpt lat="42.90357" lon="2.4135">
        <ele>721.8</ele>
        <time>2021-03-21T10:23:41Z</time>
      </trkpt>
      <trkpt lat="42.90373" lon="2.41327">
        <ele>720.6</ele>
        <time>2021-03-21T10:23:43Z</time>
      </trkpt>
      <trkpt lat="42.90379" lon="2.41316">
        <ele>719.9</ele>
        <time>2021-03-21T10:23:44Z</time>
      </trkpt>
      <trkpt lat="42.9039" lon="2.41291">
        <ele>718.7</ele>
        <time>2021-03-21T10:23:46Z</time>
      </trkpt>
      <trkpt lat="42.90398" lon="2.41267">
        <ele>717.5</ele>
        <time>2021-03-21T10:23:48Z</time>
      </trkpt>
      <trkpt lat="42.90406" lon="2.41245">
        <ele>716.3</ele>
        <time>2021-03-21T10:23:50Z</time>
      </trkpt>
      <trkpt lat="42.90414" lon="2.41223">
        <ele>715.2</ele>
        <time>2021-03-21T10:23:52Z</time>
      </trkpt>
      <trkpt lat="42.90422" lon="2.41201">
        <ele>714.3</ele>
        <time>2021-03-21T10:23:54Z</time>
      </trkpt>
      <trkpt lat="42.90426" lon="2.4119">
        <ele>713.7</ele>
        <time>2021-03-21T10:23:55Z</time>
      </trkpt>
      <trkpt lat="42.90431" lon="2.41179">
        <ele>713.2</ele>
        <time>2021-03-21T10:23:56Z</time>
      </trkpt>
      <trkpt lat="42.90436" lon="2.41169">
        <ele>712.6</ele>
        <time>2021-03-21T10:23:57Z</time>
      </trkpt>
      <trkpt lat="42.90447" lon="2.41151">
        <ele>711.3</ele>
        <time>2021-03-21T10:23:59Z</time>
      </trkpt>
      <trkpt lat="42.90453" lon="2.41143">
        <ele>710.7</ele>
        <time>2021-03-21T10:24:00Z</time>
      </trkpt>
      <trkpt lat="42.90466" lon="2.41126">
        <ele>709.5</ele>
        <time>2021-03-21T10:24:02Z</time>
      </trkpt>
      <trkpt lat="42.90472" lon="2.41117">
        <ele>709</ele>
        <time>2021-03-21T10:24:03Z</time>
      </trkpt>
      <trkpt lat="42.90484" lon="2.41099">
        <ele>707.8</ele>
        <time>2021-03-21T10:24:05Z</time>
      </trkpt>
      <trkpt lat="42.90495" lon="2.41079">
        <ele>706.7</ele>
        <time>2021-03-21T10:24:07Z</time>
      </trkpt>
      <trkpt lat="42.90508" lon="2.41062">
        <ele>705.7</ele>
        <time>2021-03-21T10:24:09Z</time>
      </trkpt>
      <trkpt lat="42.90516" lon="2.41056">
        <ele>705.1</ele>
        <time>2021-03-21T10:24:10Z</time>
      </trkpt>
      <trkpt lat="42.90526" lon="2.41055">
        <ele>704.6</ele>
        <time>2021-03-21T10:24:11Z</time>
      </trkpt>
      <trkpt lat="42.90544" lon="2.41063">
        <ele>703.5</ele>
        <time>2021-03-21T10:24:13Z</time>
      </trkpt>
      <trkpt lat="42.9056" lon="2.41078">
        <ele>702.4</ele>
        <time>2021-03-21T10:24:15Z</time>
      </trkpt>
      <trkpt lat="42.90569" lon="2.41085">
        <ele>701.8</ele>
        <time>2021-03-21T10:24:16Z</time>
      </trkpt>
      <trkpt lat="42.90587" lon="2.41098">
        <ele>700.7</ele>
        <time>2021-03-21T10:24:18Z</time>
      </trkpt>
      <trkpt lat="42.90596" lon="2.41104">
        <ele>700.1</ele>
        <time>2021-03-21T10:24:19Z</time>
      </trkpt>
      <trkpt lat="42.90605" lon="2.41108">
        <ele>699.5</ele>
        <time>2021-03-21T10:24:20Z</time>
      </trkpt>
      <trkpt lat="42.90613" lon="2.41108">
        <ele>698.9</ele>
        <time>2021-03-21T10:24:21Z</time>
      </trkpt>
      <trkpt lat="42.90626" lon="2.4109">
        <ele>697.4</ele>
        <time>2021-03-21T10:24:23Z</time>
      </trkpt>
      <trkpt lat="42.90628" lon="2.41062">
        <ele>695.8</ele>
        <time>2021-03-21T10:24:25Z</time>
      </trkpt>
      <trkpt lat="42.90624" lon="2.41049">
        <ele>695.1</ele>
        <time>2021-03-21T10:24:26Z</time>
      </trkpt>
      <trkpt lat="42.90608" lon="2.41027">
        <ele>693.5</ele>
        <time>2021-03-21T10:24:28Z</time>
      </trkpt>
      <trkpt lat="42.90584" lon="2.41014">
        <ele>691.9</ele>
        <time>2021-03-21T10:24:30Z</time>
      </trkpt>
      <trkpt lat="42.9057" lon="2.41009">
        <ele>691.1</ele>
        <time>2021-03-21T10:24:31Z</time>
      </trkpt>
      <trkpt lat="42.90559" lon="2.41003">
        <ele>690.3</ele>
        <time>2021-03-21T10:24:32Z</time>
      </trkpt>
      <trkpt lat="42.90548" lon="2.40998">
        <ele>689.6</ele>
        <time>2021-03-21T10:24:33Z</time>
      </trkpt>
      <trkpt lat="42.90528" lon="2.40984">
        <ele>688.3</ele>
        <time>2021-03-21T10:24:35Z</time>
      </trkpt>
      <trkpt lat="42.90517" lon="2.40976">
        <ele>687.7</ele>
        <time>2021-03-21T10:24:36Z</time>
      </trkpt>
      <trkpt lat="42.90508" lon="2.40966">
        <ele>686.9</ele>
        <time>2021-03-21T10:24:37Z</time>
      </trkpt>
      <trkpt lat="42.90494" lon="2.4094">
        <ele>685.5</ele>
        <time>2021-03-21T10:24:39Z</time>
      </trkpt>
      <trkpt lat="42.90486" lon="2.4091">
        <ele>684.2</ele>
        <time>2021-03-21T10:24:41Z</time>
      </trkpt>
      <trkpt lat="42.90486" lon="2.40878">
        <ele>683</ele>
        <time>2021-03-21T10:24:43Z</time>
      </trkpt>
      <trkpt lat="42.90487" lon="2.40861">
        <ele>682.3</ele>
        <time>2021-03-21T10:24:44Z</time>
      </trkpt>
      <trkpt lat="42.90486" lon="2.4083">
        <ele>680.7</ele>
        <time>2021-03-21T10:24:46Z</time>
      </trkpt>
      <trkpt lat="42.90476" lon="2.40805">
        <ele>679.3</ele>
        <time>2021-03-21T10:24:48Z</time>
      </trkpt>
      <trkpt lat="42.9047" lon="2.40793">
        <ele>678.6</ele>
        <time>2021-03-21T10:24:49Z</time>
      </trkpt>
      <trkpt lat="42.90457" lon="2.4077">
        <ele>677.3</ele>
        <time>2021-03-21T10:24:51Z</time>
      </trkpt>
      <trkpt lat="42.90447" lon="2.40744">
        <ele>675.8</ele>
        <time>2021-03-21T10:24:53Z</time>
      </trkpt>
      <trkpt lat="42.90445" lon="2.4073">
        <ele>675</ele>
        <time>2021-03-21T10:24:54Z</time>
      </trkpt>
      <trkpt lat="42.90444" lon="2.407">
        <ele>673.8</ele>
        <time>2021-03-21T10:24:56Z</time>
      </trkpt>
      <trkpt lat="42.90463" lon="2.40673">
        <ele>672.5</ele>
        <time>2021-03-21T10:24:58Z</time>
      </trkpt>
      <trkpt lat="42.90489" lon="2.40655">
        <ele>671.3</ele>
        <time>2021-03-21T10:25:00Z</time>
      </trkpt>
      <trkpt lat="42.90501" lon="2.40648">
        <ele>670.7</ele>
        <time>2021-03-21T10:25:01Z</time>
      </trkpt>
      <trkpt lat="42.90512" lon="2.40641">
        <ele>670.2</ele>
        <time>2021-03-21T10:25:02Z</time>
      </trkpt>
      <trkpt lat="42.90521" lon="2.40634">
        <ele>669.7</ele>
        <time>2021-03-21T10:25:03Z</time>
      </trkpt>
      <trkpt lat="42.90535" lon="2.40617">
        <ele>668.8</ele>
        <time>2021-03-21T10:25:05Z</time>
      </trkpt>
      <trkpt lat="42.90541" lon="2.40607">
        <ele>668.3</ele>
        <time>2021-03-21T10:25:06Z</time>
      </trkpt>
      <trkpt lat="42.9055" lon="2.40586">
        <ele>667.2</ele>
        <time>2021-03-21T10:25:08Z</time>
      </trkpt>
      <trkpt lat="42.90558" lon="2.40564">
        <ele>666</ele>
        <time>2021-03-21T10:25:10Z</time>
      </trkpt>
      <trkpt lat="42.90565" lon="2.40542">
        <ele>664.8</ele>
        <time>2021-03-21T10:25:12Z</time>
      </trkpt>
      <trkpt lat="42.90568" lon="2.4053">
        <ele>664.2</ele>
        <time>2021-03-21T10:25:13Z</time>
      </trkpt>
      <trkpt lat="42.90571" lon="2.40518">
        <ele>663.5</ele>
        <time>2021-03-21T10:25:14Z</time>
      </trkpt>
      <trkpt lat="42.90575" lon="2.40493">
        <ele>662.1</ele>
        <time>2021-03-21T10:25:16Z</time>
      </trkpt>
      <trkpt lat="42.90578" lon="2.4048">
        <ele>661.5</ele>
        <time>2021-03-21T10:25:17Z</time>
      </trkpt>
      <trkpt lat="42.9058" lon="2.40468">
        <ele>660.9</ele>
        <time>2021-03-21T10:25:18Z</time>
      </trkpt>
      <trkpt lat="42.90585" lon="2.40442">
        <ele>659.7</ele>
        <time>2021-03-21T10:25:20Z</time>
      </trkpt>
      <trkpt lat="42.90587" lon="2.40429">
        <ele>659.1</ele>
        <time>2021-03-21T10:25:21Z</time>
      </trkpt>
      <trkpt lat="42.9059" lon="2.40416">
        <ele>658.5</ele>
        <time>2021-03-21T10:25:22Z</time>
      </trkpt>
      <trkpt lat="42.90593" lon="2.40403">
        <ele>657.9</ele>
        <time>2021-03-21T10:25:23Z</time>
      </trkpt>
      <trkpt lat="42.90598" lon="2.40377">
        <ele>656.7</ele>
        <time>2021-03-21T10:25:25Z</time>
      </trkpt>
      <trkpt lat="42.90601" lon="2.40364">
        <ele>656.1</ele>
        <time>2021-03-21T10:25:26Z</time>
      </trkpt>
      <trkpt lat="42.90604" lon="2.40337">
        <ele>654.9</ele>
        <time>2021-03-21T10:25:28Z</time>
      </trkpt>
      <trkpt lat="42.90607" lon="2.40309">
        <ele>653.7</ele>
        <time>2021-03-21T10:25:30Z</time>
      </trkpt>
      <trkpt lat="42.90608" lon="2.40296">
        <ele>653.2</ele>
        <time>2021-03-21T10:25:31Z</time>
      </trkpt>
      <trkpt lat="42.90611" lon="2.40269">
        <ele>652</ele>
        <time>2021-03-21T10:25:33Z</time>
      </trkpt>
      <trkpt lat="42.90613" lon="2.40242">
        <ele>650.8</ele>
        <time>2021-03-21T10:25:35Z</time>
      </trkpt>
      <trkpt lat="42.90616" lon="2.40216">
        <ele>649.7</ele>
        <time>2021-03-21T10:25:37Z</time>
      </trkpt>
      <trkpt lat="42.90618" lon="2.40204">
        <ele>649.2</ele>
        <time>2021-03-21T10:25:38Z</time>
      </trkpt>
      <trkpt lat="42.90625" lon="2.4018">
        <ele>648</ele>
        <time>2021-03-21T10:25:40Z</time>
      </trkpt>
      <trkpt lat="42.90631" lon="2.4017">
        <ele>647.3</ele>
        <time>2021-03-21T10:25:41Z</time>
      </trkpt>
      <trkpt lat="42.90636" lon="2.40159">
        <ele>646.7</ele>
        <time>2021-03-21T10:25:42Z</time>
      </trkpt>
      <trkpt lat="42.90647" lon="2.40136">
        <ele>645.4</ele>
        <time>2021-03-21T10:25:44Z</time>
      </trkpt>
      <trkpt lat="42.90652" lon="2.40124">
        <ele>644.8</ele>
        <time>2021-03-21T10:25:45Z</time>
      </trkpt>
      <trkpt lat="42.90661" lon="2.401">
        <ele>643.6</ele>
        <time>2021-03-21T10:25:47Z</time>
      </trkpt>
      <trkpt lat="42.90664" lon="2.40088">
        <ele>643</ele>
        <time>2021-03-21T10:25:48Z</time>
      </trkpt>
      <trkpt lat="42.90664" lon="2.40074">
        <ele>642.4</ele>
        <time>2021-03-21T10:25:49Z</time>
      </trkpt>
      <trkpt lat="42.90653" lon="2.40049">
        <ele>641.6</ele>
        <time>2021-03-21T10:25:51Z</time>
      </trkpt>
      <trkpt lat="42.90644" lon="2.40038">
        <ele>641.3</ele>
        <time>2021-03-21T10:25:52Z</time>
      </trkpt>
      <trkpt lat="42.90634" lon="2.40029">
        <ele>641.1</ele>
        <time>2021-03-21T10:25:53Z</time>
      </trkpt>
      <trkpt lat="42.90622" lon="2.40008">
        <ele>640.7</ele>
        <time>2021-03-21T10:25:55Z</time>
      </trkpt>
      <trkpt lat="42.90621" lon="2.39996">
        <ele>640.5</ele>
        <time>2021-03-21T10:25:56Z</time>
      </trkpt>
      <trkpt lat="42.90623" lon="2.39986">
        <ele>640.3</ele>
        <time>2021-03-21T10:25:57Z</time>
      </trkpt>
      <trkpt lat="42.90626" lon="2.39975">
        <ele>640.1</ele>
        <time>2021-03-21T10:25:58Z</time>
      </trkpt>
      <trkpt lat="42.9063" lon="2.39965">
        <ele>639.8</ele>
        <time>2021-03-21T10:25:59Z</time>
      </trkpt>
      <trkpt lat="42.90638" lon="2.39944">
        <ele>639.1</ele>
        <time>2021-03-21T10:26:01Z</time>
      </trkpt>
      <trkpt lat="42.90645" lon="2.39921">
        <ele>638.4</ele>
        <time>2021-03-21T10:26:03Z</time>
      </trkpt>
      <trkpt lat="42.90649" lon="2.3991">
        <ele>638.1</ele>
        <time>2021-03-21T10:26:04Z</time>
      </trkpt>
      <trkpt lat="42.90654" lon="2.39888">
        <ele>637.3</ele>
        <time>2021-03-21T10:26:06Z</time>
      </trkpt>
      <trkpt lat="42.90653" lon="2.39877">
        <ele>636.8</ele>
        <time>2021-03-21T10:26:07Z</time>
      </trkpt>
      <trkpt lat="42.90643" lon="2.39859">
        <ele>635.8</ele>
        <time>2021-03-21T10:26:09Z</time>
      </trkpt>
      <trkpt lat="42.90636" lon="2.39852">
        <ele>635.2</ele>
        <time>2021-03-21T10:26:10Z</time>
      </trkpt>
      <trkpt lat="42.9062" lon="2.39839">
        <ele>634.1</ele>
        <time>2021-03-21T10:26:12Z</time>
      </trkpt>
      <trkpt lat="42.90604" lon="2.39825">
        <ele>633</ele>
        <time>2021-03-21T10:26:14Z</time>
      </trkpt>
      <trkpt lat="42.90589" lon="2.39806">
        <ele>631.7</ele>
        <time>2021-03-21T10:26:16Z</time>
      </trkpt>
      <trkpt lat="42.90583" lon="2.39795">
        <ele>631</ele>
        <time>2021-03-21T10:26:17Z</time>
      </trkpt>
      <trkpt lat="42.90579" lon="2.39782">
        <ele>630.3</ele>
        <time>2021-03-21T10:26:18Z</time>
      </trkpt>
      <trkpt lat="42.90575" lon="2.3977">
        <ele>629.7</ele>
        <time>2021-03-21T10:26:19Z</time>
      </trkpt>
      <trkpt lat="42.9057" lon="2.39757">
        <ele>629</ele>
        <time>2021-03-21T10:26:20Z</time>
      </trkpt>
      <trkpt lat="42.90565" lon="2.39746">
        <ele>628.4</ele>
        <time>2021-03-21T10:26:21Z</time>
      </trkpt>
      <trkpt lat="42.90551" lon="2.39728">
        <ele>627.1</ele>
        <time>2021-03-21T10:26:23Z</time>
      </trkpt>
      <trkpt lat="42.90543" lon="2.3972">
        <ele>626.5</ele>
        <time>2021-03-21T10:26:24Z</time>
      </trkpt>
      <trkpt lat="42.90528" lon="2.39705">
        <ele>625.3</ele>
        <time>2021-03-21T10:26:26Z</time>
      </trkpt>
      <trkpt lat="42.90521" lon="2.39697">
        <ele>624.6</ele>
        <time>2021-03-21T10:26:27Z</time>
      </trkpt>
      <trkpt lat="42.90507" lon="2.39684">
        <ele>623.7</ele>
        <time>2021-03-21T10:26:29Z</time>
      </trkpt>
      <trkpt lat="42.90492" lon="2.39673">
        <ele>622.9</ele>
        <time>2021-03-21T10:26:31Z</time>
      </trkpt>
      <trkpt lat="42.90485" lon="2.39669">
        <ele>622.5</ele>
        <time>2021-03-21T10:26:32Z</time>
      </trkpt>
      <trkpt lat="42.90478" lon="2.39665">
        <ele>622.1</ele>
        <time>2021-03-21T10:26:33Z</time>
      </trkpt>
      <trkpt lat="42.90465" lon="2.39654">
        <ele>621.2</ele>
        <time>2021-03-21T10:26:35Z</time>
      </trkpt>
      <trkpt lat="42.90453" lon="2.39639">
        <ele>620.2</ele>
        <time>2021-03-21T10:26:37Z</time>
      </trkpt>
      <trkpt lat="42.90442" lon="2.39619">
        <ele>619.1</ele>
        <time>2021-03-21T10:26:39Z</time>
      </trkpt>
      <trkpt lat="42.90436" lon="2.39608">
        <ele>618.6</ele>
        <time>2021-03-21T10:26:40Z</time>
      </trkpt>
      <trkpt lat="42.90425" lon="2.39585">
        <ele>617.5</ele>
        <time>2021-03-21T10:26:42Z</time>
      </trkpt>
      <trkpt lat="42.90419" lon="2.39573">
        <ele>616.9</ele>
        <time>2021-03-21T10:26:43Z</time>
      </trkpt>
      <trkpt lat="42.90409" lon="2.39549">
        <ele>615.8</ele>
        <time>2021-03-21T10:26:45Z</time>
      </trkpt>
      <trkpt lat="42.904" lon="2.39522">
        <ele>614.7</ele>
        <time>2021-03-21T10:26:47Z</time>
      </trkpt>
      <trkpt lat="42.90396" lon="2.39509">
        <ele>614.1</ele>
        <time>2021-03-21T10:26:48Z</time>
      </trkpt>
      <trkpt lat="42.90393" lon="2.39495">
        <ele>613.4</ele>
        <time>2021-03-21T10:26:49Z</time>
      </trkpt>
      <trkpt lat="42.90386" lon="2.39465">
        <ele>612</ele>
        <time>2021-03-21T10:26:51Z</time>
      </trkpt>
      <trkpt lat="42.90379" lon="2.39436">
        <ele>610.6</ele>
        <time>2021-03-21T10:26:53Z</time>
      </trkpt>
      <trkpt lat="42.90374" lon="2.39421">
        <ele>609.9</ele>
        <time>2021-03-21T10:26:54Z</time>
      </trkpt>
      <trkpt lat="42.90361" lon="2.39396">
        <ele>608.5</ele>
        <time>2021-03-21T10:26:56Z</time>
      </trkpt>
      <trkpt lat="42.90344" lon="2.39376">
        <ele>607.1</ele>
        <time>2021-03-21T10:26:58Z</time>
      </trkpt>
      <trkpt lat="42.90335" lon="2.39368">
        <ele>606.5</ele>
        <time>2021-03-21T10:26:59Z</time>
      </trkpt>
      <trkpt lat="42.90325" lon="2.3936">
        <ele>605.8</ele>
        <time>2021-03-21T10:27:00Z</time>
      </trkpt>
      <trkpt lat="42.90304" lon="2.39343">
        <ele>604.4</ele>
        <time>2021-03-21T10:27:02Z</time>
      </trkpt>
      <trkpt lat="42.90294" lon="2.39335">
        <ele>603.8</ele>
        <time>2021-03-21T10:27:03Z</time>
      </trkpt>
      <trkpt lat="42.90275" lon="2.39318">
        <ele>602.5</ele>
        <time>2021-03-21T10:27:05Z</time>
      </trkpt>
      <trkpt lat="42.90265" lon="2.3931">
        <ele>601.8</ele>
        <time>2021-03-21T10:27:06Z</time>
      </trkpt>
      <trkpt lat="42.90256" lon="2.39301">
        <ele>601.2</ele>
        <time>2021-03-21T10:27:07Z</time>
      </trkpt>
      <trkpt lat="42.90236" lon="2.39285">
        <ele>599.8</ele>
        <time>2021-03-21T10:27:09Z</time>
      </trkpt>
      <trkpt lat="42.90226" lon="2.39279">
        <ele>599.1</ele>
        <time>2021-03-21T10:27:10Z</time>
      </trkpt>
      <trkpt lat="42.90205" lon="2.39269">
        <ele>597.8</ele>
        <time>2021-03-21T10:27:12Z</time>
      </trkpt>
      <trkpt lat="42.90195" lon="2.39264">
        <ele>597.1</ele>
        <time>2021-03-21T10:27:13Z</time>
      </trkpt>
      <trkpt lat="42.90174" lon="2.39252">
        <ele>595.9</ele>
        <time>2021-03-21T10:27:15Z</time>
      </trkpt>
      <trkpt lat="42.90155" lon="2.39238">
        <ele>594.7</ele>
        <time>2021-03-21T10:27:17Z</time>
      </trkpt>
      <trkpt lat="42.90145" lon="2.39231">
        <ele>594</ele>
        <time>2021-03-21T10:27:18Z</time>
      </trkpt>
      <trkpt lat="42.90134" lon="2.39224">
        <ele>593.4</ele>
        <time>2021-03-21T10:27:19Z</time>
      </trkpt>
      <trkpt lat="42.90115" lon="2.39211">
        <ele>591.9</ele>
        <time>2021-03-21T10:27:21Z</time>
      </trkpt>
      <trkpt lat="42.90105" lon="2.39207">
        <ele>591.3</ele>
        <time>2021-03-21T10:27:22Z</time>
      </trkpt>
      <trkpt lat="42.90086" lon="2.39218">
        <ele>590</ele>
        <time>2021-03-21T10:27:24Z</time>
      </trkpt>
      <trkpt lat="42.90078" lon="2.39229">
        <ele>589.3</ele>
        <time>2021-03-21T10:27:25Z</time>
      </trkpt>
      <trkpt lat="42.90067" lon="2.39254">
        <ele>588</ele>
        <time>2021-03-21T10:27:27Z</time>
      </trkpt>
      <trkpt lat="42.90056" lon="2.39271">
        <ele>587</ele>
        <time>2021-03-21T10:27:29Z</time>
      </trkpt>
      <trkpt lat="42.90042" lon="2.39273">
        <ele>586.3</ele>
        <time>2021-03-21T10:27:31Z</time>
      </trkpt>
      <trkpt lat="42.90034" lon="2.39265">
        <ele>585.9</ele>
        <time>2021-03-21T10:27:32Z</time>
      </trkpt>
      <trkpt lat="42.90026" lon="2.3924">
        <ele>585.1</ele>
        <time>2021-03-21T10:27:34Z</time>
      </trkpt>
      <trkpt lat="42.90025" lon="2.39225">
        <ele>584.7</ele>
        <time>2021-03-21T10:27:35Z</time>
      </trkpt>
      <trkpt lat="42.90027" lon="2.39198">
        <ele>583.9</ele>
        <time>2021-03-21T10:27:37Z</time>
      </trkpt>
      <trkpt lat="42.90029" lon="2.39185">
        <ele>583.4</ele>
        <time>2021-03-21T10:27:38Z</time>
      </trkpt>
      <trkpt lat="42.90034" lon="2.39159">
        <ele>582.5</ele>
        <time>2021-03-21T10:27:40Z</time>
      </trkpt>
      <trkpt lat="42.90045" lon="2.39133">
        <ele>581.5</ele>
        <time>2021-03-21T10:27:42Z</time>
      </trkpt>
      <trkpt lat="42.90053" lon="2.39122">
        <ele>581</ele>
        <time>2021-03-21T10:27:43Z</time>
      </trkpt>
      <trkpt lat="42.90071" lon="2.39104">
        <ele>580.1</ele>
        <time>2021-03-21T10:27:45Z</time>
      </trkpt>
      <trkpt lat="42.9008" lon="2.39098">
        <ele>579.5</ele>
        <time>2021-03-21T10:27:46Z</time>
      </trkpt>
      <trkpt lat="42.901" lon="2.39086">
        <ele>578.2</ele>
        <time>2021-03-21T10:27:48Z</time>
      </trkpt>
      <trkpt lat="42.90113" lon="2.39062">
        <ele>576.7</ele>
        <time>2021-03-21T10:27:50Z</time>
      </trkpt>
      <trkpt lat="42.90108" lon="2.39035">
        <ele>577.1</ele>
        <time>2021-03-21T10:27:52Z</time>
      </trkpt>
      <trkpt lat="42.90088" lon="2.39022">
        <ele>575.5</ele>
        <time>2021-03-21T10:27:54Z</time>
      </trkpt>
      <trkpt lat="42.90064" lon="2.39022">
        <ele>573.7</ele>
        <time>2021-03-21T10:27:56Z</time>
      </trkpt>
      <trkpt lat="42.90053" lon="2.39021">
        <ele>572.8</ele>
        <time>2021-03-21T10:27:57Z</time>
      </trkpt>
      <trkpt lat="42.90043" lon="2.39019">
        <ele>572</ele>
        <time>2021-03-21T10:27:58Z</time>
      </trkpt>
      <trkpt lat="42.90023" lon="2.39007">
        <ele>570.3</ele>
        <time>2021-03-21T10:28:00Z</time>
      </trkpt>
      <trkpt lat="42.90013" lon="2.38998">
        <ele>569.4</ele>
        <time>2021-03-21T10:28:01Z</time>
      </trkpt>
      <trkpt lat="42.89995" lon="2.38976">
        <ele>567.5</ele>
        <time>2021-03-21T10:28:03Z</time>
      </trkpt>
      <trkpt lat="42.89986" lon="2.38965">
        <ele>566.7</ele>
        <time>2021-03-21T10:28:04Z</time>
      </trkpt>
      <trkpt lat="42.89968" lon="2.38943">
        <ele>565</ele>
        <time>2021-03-21T10:28:06Z</time>
      </trkpt>
      <trkpt lat="42.89949" lon="2.38923">
        <ele>563.1</ele>
        <time>2021-03-21T10:28:08Z</time>
      </trkpt>
      <trkpt lat="42.89939" lon="2.38913">
        <ele>562.2</ele>
        <time>2021-03-21T10:28:09Z</time>
      </trkpt>
      <trkpt lat="42.89921" lon="2.38892">
        <ele>560.5</ele>
        <time>2021-03-21T10:28:11Z</time>
      </trkpt>
      <trkpt lat="42.89906" lon="2.3887">
        <ele>558.9</ele>
        <time>2021-03-21T10:28:13Z</time>
      </trkpt>
      <trkpt lat="42.89893" lon="2.38844">
        <ele>557.1</ele>
        <time>2021-03-21T10:28:15Z</time>
      </trkpt>
      <trkpt lat="42.89887" lon="2.3883">
        <ele>556.1</ele>
        <time>2021-03-21T10:28:16Z</time>
      </trkpt>
      <trkpt lat="42.89874" lon="2.38802">
        <ele>554.1</ele>
        <time>2021-03-21T10:28:18Z</time>
      </trkpt>
      <trkpt lat="42.89867" lon="2.38788">
        <ele>553.1</ele>
        <time>2021-03-21T10:28:19Z</time>
      </trkpt>
      <trkpt lat="42.89852" lon="2.38762">
        <ele>551.3</ele>
        <time>2021-03-21T10:28:21Z</time>
      </trkpt>
      <trkpt lat="42.89846" lon="2.38749">
        <ele>550.5</ele>
        <time>2021-03-21T10:28:22Z</time>
      </trkpt>
      <trkpt lat="42.89833" lon="2.38724">
        <ele>548.9</ele>
        <time>2021-03-21T10:28:24Z</time>
      </trkpt>
      <trkpt lat="42.89818" lon="2.38702">
        <ele>547.5</ele>
        <time>2021-03-21T10:28:26Z</time>
      </trkpt>
      <trkpt lat="42.8981" lon="2.38695">
        <ele>546.7</ele>
        <time>2021-03-21T10:28:27Z</time>
      </trkpt>
      <trkpt lat="42.89791" lon="2.38684">
        <ele>545.4</ele>
        <time>2021-03-21T10:28:29Z</time>
      </trkpt>
      <trkpt lat="42.89782" lon="2.38678">
        <ele>544.8</ele>
        <time>2021-03-21T10:28:30Z</time>
      </trkpt>
      <trkpt lat="42.89765" lon="2.38665">
        <ele>543.5</ele>
        <time>2021-03-21T10:28:32Z</time>
      </trkpt>
      <trkpt lat="42.89757" lon="2.38659">
        <ele>543.1</ele>
        <time>2021-03-21T10:28:33Z</time>
      </trkpt>
      <trkpt lat="42.89739" lon="2.38646">
        <ele>542.1</ele>
        <time>2021-03-21T10:28:35Z</time>
      </trkpt>
      <trkpt lat="42.89722" lon="2.38637">
        <ele>541.1</ele>
        <time>2021-03-21T10:28:37Z</time>
      </trkpt>
      <trkpt lat="42.89714" lon="2.38632">
        <ele>540.7</ele>
        <time>2021-03-21T10:28:38Z</time>
      </trkpt>
      <trkpt lat="42.89706" lon="2.38617">
        <ele>540.3</ele>
        <time>2021-03-21T10:28:40Z</time>
      </trkpt>
      <trkpt lat="42.89709" lon="2.38596">
        <ele>539.9</ele>
        <time>2021-03-21T10:28:42Z</time>
      </trkpt>
      <trkpt lat="42.89717" lon="2.38589">
        <ele>539.4</ele>
        <time>2021-03-21T10:28:43Z</time>
      </trkpt>
      <trkpt lat="42.89738" lon="2.38584">
        <ele>538</ele>
        <time>2021-03-21T10:28:45Z</time>
      </trkpt>
      <trkpt lat="42.89749" lon="2.38584">
        <ele>537.2</ele>
        <time>2021-03-21T10:28:46Z</time>
      </trkpt>
      <trkpt lat="42.8976" lon="2.38585">
        <ele>536.4</ele>
        <time>2021-03-21T10:28:47Z</time>
      </trkpt>
      <trkpt lat="42.89769" lon="2.38586">
        <ele>535.7</ele>
        <time>2021-03-21T10:28:48Z</time>
      </trkpt>
      <trkpt lat="42.89778" lon="2.38589">
        <ele>535.1</ele>
        <time>2021-03-21T10:28:49Z</time>
      </trkpt>
      <trkpt lat="42.89787" lon="2.38591">
        <ele>534.6</ele>
        <time>2021-03-21T10:28:50Z</time>
      </trkpt>
      <trkpt lat="42.89795" lon="2.3859">
        <ele>534</ele>
        <time>2021-03-21T10:28:51Z</time>
      </trkpt>
      <trkpt lat="42.8981" lon="2.38577">
        <ele>532.8</ele>
        <time>2021-03-21T10:28:53Z</time>
      </trkpt>
      <trkpt lat="42.89814" lon="2.38566">
        <ele>532.2</ele>
        <time>2021-03-21T10:28:54Z</time>
      </trkpt>
      <trkpt lat="42.89819" lon="2.38543">
        <ele>531.1</ele>
        <time>2021-03-21T10:28:56Z</time>
      </trkpt>
      <trkpt lat="42.89821" lon="2.38531">
        <ele>530.5</ele>
        <time>2021-03-21T10:28:57Z</time>
      </trkpt>
      <trkpt lat="42.89827" lon="2.38507">
        <ele>529.4</ele>
        <time>2021-03-21T10:28:59Z</time>
      </trkpt>
      <trkpt lat="42.89834" lon="2.38482">
        <ele>528.4</ele>
        <time>2021-03-21T10:29:01Z</time>
      </trkpt>
      <trkpt lat="42.89836" lon="2.38469">
        <ele>527.9</ele>
        <time>2021-03-21T10:29:02Z</time>
      </trkpt>
      <trkpt lat="42.89837" lon="2.38456">
        <ele>527.4</ele>
        <time>2021-03-21T10:29:03Z</time>
      </trkpt>
      <trkpt lat="42.89837" lon="2.38431">
        <ele>526.4</ele>
        <time>2021-03-21T10:29:05Z</time>
      </trkpt>
      <trkpt lat="42.89836" lon="2.38407">
        <ele>525.5</ele>
        <time>2021-03-21T10:29:07Z</time>
      </trkpt>
      <trkpt lat="42.89835" lon="2.38395">
        <ele>524.9</ele>
        <time>2021-03-21T10:29:08Z</time>
      </trkpt>
      <trkpt lat="42.89835" lon="2.38383">
        <ele>524.4</ele>
        <time>2021-03-21T10:29:09Z</time>
      </trkpt>
      <trkpt lat="42.89835" lon="2.38359">
        <ele>523.2</ele>
        <time>2021-03-21T10:29:11Z</time>
      </trkpt>
      <trkpt lat="42.89835" lon="2.38347">
        <ele>522.7</ele>
        <time>2021-03-21T10:29:12Z</time>
      </trkpt>
      <trkpt lat="42.89835" lon="2.38324">
        <ele>521.6</ele>
        <time>2021-03-21T10:29:14Z</time>
      </trkpt>
      <trkpt lat="42.89835" lon="2.383">
        <ele>520.5</ele>
        <time>2021-03-21T10:29:16Z</time>
      </trkpt>
      <trkpt lat="42.89835" lon="2.38288">
        <ele>520</ele>
        <time>2021-03-21T10:29:17Z</time>
      </trkpt>
      <trkpt lat="42.89835" lon="2.38262">
        <ele>518.7</ele>
        <time>2021-03-21T10:29:19Z</time>
      </trkpt>
      <trkpt lat="42.89835" lon="2.38237">
        <ele>517.3</ele>
        <time>2021-03-21T10:29:21Z</time>
      </trkpt>
      <trkpt lat="42.89835" lon="2.38211">
        <ele>516</ele>
        <time>2021-03-21T10:29:23Z</time>
      </trkpt>
      <trkpt lat="42.89833" lon="2.38186">
        <ele>514.7</ele>
        <time>2021-03-21T10:29:25Z</time>
      </trkpt>
      <trkpt lat="42.89831" lon="2.38174">
        <ele>514.1</ele>
        <time>2021-03-21T10:29:26Z</time>
      </trkpt>
      <trkpt lat="42.89827" lon="2.38162">
        <ele>513.5</ele>
        <time>2021-03-21T10:29:27Z</time>
      </trkpt>
      <trkpt lat="42.89817" lon="2.38138">
        <ele>512.6</ele>
        <time>2021-03-21T10:29:29Z</time>
      </trkpt>
      <trkpt lat="42.89809" lon="2.38113">
        <ele>512.1</ele>
        <time>2021-03-21T10:29:31Z</time>
      </trkpt>
      <trkpt lat="42.89808" lon="2.381">
        <ele>511.9</ele>
        <time>2021-03-21T10:29:32Z</time>
      </trkpt>
      <trkpt lat="42.89815" lon="2.38076">
        <ele>511.7</ele>
        <time>2021-03-21T10:29:34Z</time>
      </trkpt>
      <trkpt lat="42.89822" lon="2.38068">
        <ele>511.6</ele>
        <time>2021-03-21T10:29:35Z</time>
      </trkpt>
      <trkpt lat="42.89841" lon="2.38059">
        <ele>511.1</ele>
        <time>2021-03-21T10:29:37Z</time>
      </trkpt>
      <trkpt lat="42.89849" lon="2.38056">
        <ele>510.8</ele>
        <time>2021-03-21T10:29:38Z</time>
      </trkpt>
      <trkpt lat="42.89862" lon="2.38045">
        <ele>509.9</ele>
        <time>2021-03-21T10:29:40Z</time>
      </trkpt>
      <trkpt lat="42.89868" lon="2.38037">
        <ele>509.4</ele>
        <time>2021-03-21T10:29:41Z</time>
      </trkpt>
      <trkpt lat="42.89878" lon="2.38015">
        <ele>508.2</ele>
        <time>2021-03-21T10:29:43Z</time>
      </trkpt>
      <trkpt lat="42.89883" lon="2.38003">
        <ele>507.6</ele>
        <time>2021-03-21T10:29:44Z</time>
      </trkpt>
      <trkpt lat="42.89894" lon="2.3798">
        <ele>506.3</ele>
        <time>2021-03-21T10:29:46Z</time>
      </trkpt>
      <trkpt lat="42.899" lon="2.37969">
        <ele>505.7</ele>
        <time>2021-03-21T10:29:47Z</time>
      </trkpt>
      <trkpt lat="42.89916" lon="2.37952">
        <ele>504.5</ele>
        <time>2021-03-21T10:29:49Z</time>
      </trkpt>
      <trkpt lat="42.89926" lon="2.37946">
        <ele>503.9</ele>
        <time>2021-03-21T10:29:50Z</time>
      </trkpt>
      <trkpt lat="42.89936" lon="2.3794">
        <ele>503.4</ele>
        <time>2021-03-21T10:29:51Z</time>
      </trkpt>
      <trkpt lat="42.89944" lon="2.37931">
        <ele>502.9</ele>
        <time>2021-03-21T10:29:52Z</time>
      </trkpt>
      <trkpt lat="42.8995" lon="2.37919">
        <ele>502.3</ele>
        <time>2021-03-21T10:29:53Z</time>
      </trkpt>
      <trkpt lat="42.89952" lon="2.37892">
        <ele>501</ele>
        <time>2021-03-21T10:29:55Z</time>
      </trkpt>
      <trkpt lat="42.89941" lon="2.37867">
        <ele>499.6</ele>
        <time>2021-03-21T10:29:57Z</time>
      </trkpt>
      <trkpt lat="42.89936" lon="2.37854">
        <ele>498.9</ele>
        <time>2021-03-21T10:29:58Z</time>
      </trkpt>
      <trkpt lat="42.89934" lon="2.37826">
        <ele>497.5</ele>
        <time>2021-03-21T10:30:00Z</time>
      </trkpt>
      <trkpt lat="42.89946" lon="2.37801">
        <ele>495.9</ele>
        <time>2021-03-21T10:30:02Z</time>
      </trkpt>
      <trkpt lat="42.89956" lon="2.37792">
        <ele>495.1</ele>
        <time>2021-03-21T10:30:03Z</time>
      </trkpt>
      <trkpt lat="42.89966" lon="2.37786">
        <ele>494.3</ele>
        <time>2021-03-21T10:30:04Z</time>
      </trkpt>
      <trkpt lat="42.89987" lon="2.37777">
        <ele>492.8</ele>
        <time>2021-03-21T10:30:06Z</time>
      </trkpt>
      <trkpt lat="42.89997" lon="2.37773">
        <ele>492</ele>
        <time>2021-03-21T10:30:07Z</time>
      </trkpt>
      <trkpt lat="42.90016" lon="2.37763">
        <ele>490.6</ele>
        <time>2021-03-21T10:30:09Z</time>
      </trkpt>
      <trkpt lat="42.90026" lon="2.37758">
        <ele>489.9</ele>
        <time>2021-03-21T10:30:10Z</time>
      </trkpt>
      <trkpt lat="42.90045" lon="2.37747">
        <ele>488.5</ele>
        <time>2021-03-21T10:30:12Z</time>
      </trkpt>
      <trkpt lat="42.90064" lon="2.37736">
        <ele>487.1</ele>
        <time>2021-03-21T10:30:14Z</time>
      </trkpt>
      <trkpt lat="42.90083" lon="2.37726">
        <ele>485.7</ele>
        <time>2021-03-21T10:30:16Z</time>
      </trkpt>
      <trkpt lat="42.90092" lon="2.37721">
        <ele>485</ele>
        <time>2021-03-21T10:30:17Z</time>
      </trkpt>
      <trkpt lat="42.9011" lon="2.37709">
        <ele>483.6</ele>
        <time>2021-03-21T10:30:19Z</time>
      </trkpt>
      <trkpt lat="42.90118" lon="2.37701">
        <ele>482.9</ele>
        <time>2021-03-21T10:30:20Z</time>
      </trkpt>
      <trkpt lat="42.90131" lon="2.37681">
        <ele>481.7</ele>
        <time>2021-03-21T10:30:22Z</time>
      </trkpt>
      <trkpt lat="42.90137" lon="2.3767">
        <ele>481</ele>
        <time>2021-03-21T10:30:23Z</time>
      </trkpt>
      <trkpt lat="42.90143" lon="2.37658">
        <ele>480.4</ele>
        <time>2021-03-21T10:30:24Z</time>
      </trkpt>
      <trkpt lat="42.90148" lon="2.37646">
        <ele>479.7</ele>
        <time>2021-03-21T10:30:25Z</time>
      </trkpt>
      <trkpt lat="42.90156" lon="2.37621">
        <ele>478.3</ele>
        <time>2021-03-21T10:30:27Z</time>
      </trkpt>
      <trkpt lat="42.90158" lon="2.37608">
        <ele>477.7</ele>
        <time>2021-03-21T10:30:28Z</time>
      </trkpt>
      <trkpt lat="42.9016" lon="2.37595">
        <ele>477.1</ele>
        <time>2021-03-21T10:30:29Z</time>
      </trkpt>
      <trkpt lat="42.90159" lon="2.3757">
        <ele>475.9</ele>
        <time>2021-03-21T10:30:31Z</time>
      </trkpt>
      <trkpt lat="42.90159" lon="2.37557">
        <ele>475.3</ele>
        <time>2021-03-21T10:30:32Z</time>
      </trkpt>
      <trkpt lat="42.90161" lon="2.37531">
        <ele>474.2</ele>
        <time>2021-03-21T10:30:34Z</time>
      </trkpt>
      <trkpt lat="42.90164" lon="2.37505">
        <ele>473.1</ele>
        <time>2021-03-21T10:30:36Z</time>
      </trkpt>
      <trkpt lat="42.90171" lon="2.3748">
        <ele>471.9</ele>
        <time>2021-03-21T10:30:38Z</time>
      </trkpt>
      <trkpt lat="42.90175" lon="2.37468">
        <ele>471.3</ele>
        <time>2021-03-21T10:30:39Z</time>
      </trkpt>
      <trkpt lat="42.90185" lon="2.37444">
        <ele>469.9</ele>
        <time>2021-03-21T10:30:41Z</time>
      </trkpt>
      <trkpt lat="42.90193" lon="2.37421">
        <ele>468.6</ele>
        <time>2021-03-21T10:30:43Z</time>
      </trkpt>
      <trkpt lat="42.90195" lon="2.37401">
        <ele>467.6</ele>
        <time>2021-03-21T10:30:45Z</time>
      </trkpt>
      <trkpt lat="42.90187" lon="2.37384">
        <ele>466.7</ele>
        <time>2021-03-21T10:30:47Z</time>
      </trkpt>
      <trkpt lat="42.90173" lon="2.37369">
        <ele>465.7</ele>
        <time>2021-03-21T10:30:49Z</time>
      </trkpt>
      <trkpt lat="42.90166" lon="2.37361">
        <ele>465.2</ele>
        <time>2021-03-21T10:30:50Z</time>
      </trkpt>
      <trkpt lat="42.90155" lon="2.37343">
        <ele>464.2</ele>
        <time>2021-03-21T10:30:52Z</time>
      </trkpt>
      <trkpt lat="42.90152" lon="2.37333">
        <ele>463.6</ele>
        <time>2021-03-21T10:30:53Z</time>
      </trkpt>
      <trkpt lat="42.9015" lon="2.37309">
        <ele>462.4</ele>
        <time>2021-03-21T10:30:55Z</time>
      </trkpt>
      <trkpt lat="42.90152" lon="2.37285">
        <ele>461.2</ele>
        <time>2021-03-21T10:30:57Z</time>
      </trkpt>
      <trkpt lat="42.90153" lon="2.37261">
        <ele>460</ele>
        <time>2021-03-21T10:30:59Z</time>
      </trkpt>
      <trkpt lat="42.90153" lon="2.37249">
        <ele>459.4</ele>
        <time>2021-03-21T10:31:00Z</time>
      </trkpt>
      <trkpt lat="42.90152" lon="2.37237">
        <ele>458.9</ele>
        <time>2021-03-21T10:31:01Z</time>
      </trkpt>
      <trkpt lat="42.9015" lon="2.37225">
        <ele>458.4</ele>
        <time>2021-03-21T10:31:02Z</time>
      </trkpt>
      <trkpt lat="42.90148" lon="2.37213">
        <ele>457.8</ele>
        <time>2021-03-21T10:31:03Z</time>
      </trkpt>
      <trkpt lat="42.90144" lon="2.3719">
        <ele>456.8</ele>
        <time>2021-03-21T10:31:05Z</time>
      </trkpt>
      <trkpt lat="42.90139" lon="2.37166">
        <ele>455.7</ele>
        <time>2021-03-21T10:31:07Z</time>
      </trkpt>
      <trkpt lat="42.90135" lon="2.37154">
        <ele>455.1</ele>
        <time>2021-03-21T10:31:08Z</time>
      </trkpt>
      <trkpt lat="42.90127" lon="2.3713">
        <ele>454</ele>
        <time>2021-03-21T10:31:10Z</time>
      </trkpt>
      <trkpt lat="42.90118" lon="2.37107">
        <ele>452.9</ele>
        <time>2021-03-21T10:31:12Z</time>
      </trkpt>
      <trkpt lat="42.90114" lon="2.37094">
        <ele>452.4</ele>
        <time>2021-03-21T10:31:13Z</time>
      </trkpt>
      <trkpt lat="42.90107" lon="2.37068">
        <ele>451.4</ele>
        <time>2021-03-21T10:31:15Z</time>
      </trkpt>
      <trkpt lat="42.90106" lon="2.37055">
        <ele>450.9</ele>
        <time>2021-03-21T10:31:16Z</time>
      </trkpt>
      <trkpt lat="42.90107" lon="2.37041">
        <ele>450.3</ele>
        <time>2021-03-21T10:31:17Z</time>
      </trkpt>
      <trkpt lat="42.9011" lon="2.37027">
        <ele>449.7</ele>
        <time>2021-03-21T10:31:18Z</time>
      </trkpt>
      <trkpt lat="42.90118" lon="2.36999">
        <ele>448.3</ele>
        <time>2021-03-21T10:31:20Z</time>
      </trkpt>
      <trkpt lat="42.90124" lon="2.36985">
        <ele>447.6</ele>
        <time>2021-03-21T10:31:21Z</time>
      </trkpt>
      <trkpt lat="42.90141" lon="2.36965">
        <ele>446.2</ele>
        <time>2021-03-21T10:31:23Z</time>
      </trkpt>
      <trkpt lat="42.90164" lon="2.36959">
        <ele>444.6</ele>
        <time>2021-03-21T10:31:25Z</time>
      </trkpt>
      <trkpt lat="42.90187" lon="2.3696">
        <ele>443</ele>
        <time>2021-03-21T10:31:27Z</time>
      </trkpt>
      <trkpt lat="42.90199" lon="2.3696">
        <ele>442.2</ele>
        <time>2021-03-21T10:31:28Z</time>
      </trkpt>
      <trkpt lat="42.90223" lon="2.36956">
        <ele>440.9</ele>
        <time>2021-03-21T10:31:30Z</time>
      </trkpt>
      <trkpt lat="42.90234" lon="2.36952">
        <ele>440.5</ele>
        <time>2021-03-21T10:31:31Z</time>
      </trkpt>
      <trkpt lat="42.90254" lon="2.36942">
        <ele>439.7</ele>
        <time>2021-03-21T10:31:33Z</time>
      </trkpt>
      <trkpt lat="42.90265" lon="2.36924">
        <ele>439</ele>
        <time>2021-03-21T10:31:35Z</time>
      </trkpt>
      <trkpt lat="42.90262" lon="2.36903">
        <ele>438.2</ele>
        <time>2021-03-21T10:31:37Z</time>
      </trkpt>
      <trkpt lat="42.90245" lon="2.36889">
        <ele>436.9</ele>
        <time>2021-03-21T10:31:39Z</time>
      </trkpt>
      <trkpt lat="42.90235" lon="2.36887">
        <ele>436.2</ele>
        <time>2021-03-21T10:31:40Z</time>
      </trkpt>
      <trkpt lat="42.90218" lon="2.36882">
        <ele>434.9</ele>
        <time>2021-03-21T10:31:42Z</time>
      </trkpt>
      <trkpt lat="42.9021" lon="2.36876">
        <ele>434.3</ele>
        <time>2021-03-21T10:31:43Z</time>
      </trkpt>
      <trkpt lat="42.90208" lon="2.36868">
        <ele>433.9</ele>
        <time>2021-03-21T10:31:44Z</time>
      </trkpt>
      <trkpt lat="42.90218" lon="2.36851">
        <ele>432.8</ele>
        <time>2021-03-21T10:31:46Z</time>
      </trkpt>
      <trkpt lat="42.9023" lon="2.36844">
        <ele>431.9</ele>
        <time>2021-03-21T10:31:47Z</time>
      </trkpt>
      <trkpt lat="42.90253" lon="2.36833">
        <ele>430.1</ele>
        <time>2021-03-21T10:31:49Z</time>
      </trkpt>
      <trkpt lat="42.90265" lon="2.36828">
        <ele>429.2</ele>
        <time>2021-03-21T10:31:50Z</time>
      </trkpt>
      <trkpt lat="42.90287" lon="2.36811">
        <ele>427.3</ele>
        <time>2021-03-21T10:31:52Z</time>
      </trkpt>
      <trkpt lat="42.90295" lon="2.36798">
        <ele>426.4</ele>
        <time>2021-03-21T10:31:53Z</time>
      </trkpt>
      <trkpt lat="42.90301" lon="2.36766">
        <ele>424.9</ele>
        <time>2021-03-21T10:31:55Z</time>
      </trkpt>
      <trkpt lat="42.90297" lon="2.3675">
        <ele>424.7</ele>
        <time>2021-03-21T10:31:56Z</time>
      </trkpt>
      <trkpt lat="42.90284" lon="2.36721">
        <ele>424.1</ele>
        <time>2021-03-21T10:31:58Z</time>
      </trkpt>
      <trkpt lat="42.90277" lon="2.36707">
        <ele>423.2</ele>
        <time>2021-03-21T10:31:59Z</time>
      </trkpt>
      <trkpt lat="42.90266" lon="2.36677">
        <ele>421.5</ele>
        <time>2021-03-21T10:32:01Z</time>
      </trkpt>
      <trkpt lat="42.90265" lon="2.36662">
        <ele>420.7</ele>
        <time>2021-03-21T10:32:02Z</time>
      </trkpt>
      <trkpt lat="42.9027" lon="2.3663">
        <ele>419.5</ele>
        <time>2021-03-21T10:32:04Z</time>
      </trkpt>
      <trkpt lat="42.90274" lon="2.36614">
        <ele>419.4</ele>
        <time>2021-03-21T10:32:05Z</time>
      </trkpt>
      <trkpt lat="42.9028" lon="2.36585">
        <ele>419.3</ele>
        <time>2021-03-21T10:32:07Z</time>
      </trkpt>
      <trkpt lat="42.90283" lon="2.36572">
        <ele>419.3</ele>
        <time>2021-03-21T10:32:08Z</time>
      </trkpt>
      <trkpt lat="42.90286" lon="2.36547">
        <ele>419.3</ele>
        <time>2021-03-21T10:32:10Z</time>
      </trkpt>
      <trkpt lat="42.90288" lon="2.36535">
        <ele>419.3</ele>
        <time>2021-03-21T10:32:11Z</time>
      </trkpt>
      <trkpt lat="42.90288" lon="2.3651">
        <ele>419.3</ele>
        <time>2021-03-21T10:32:13Z</time>
      </trkpt>
      <trkpt lat="42.90287" lon="2.36499">
        <ele>419.2</ele>
        <time>2021-03-21T10:32:14Z</time>
      </trkpt>
      <trkpt lat="42.90285" lon="2.36475">
        <ele>419</ele>
        <time>2021-03-21T10:32:16Z</time>
      </trkpt>
      <trkpt lat="42.90284" lon="2.36464">
        <ele>418.9</ele>
        <time>2021-03-21T10:32:17Z</time>
      </trkpt>
      <trkpt lat="42.90281" lon="2.36442">
        <ele>418.6</ele>
        <time>2021-03-21T10:32:19Z</time>
      </trkpt>
      <trkpt lat="42.90279" lon="2.36432">
        <ele>418.4</ele>
        <time>2021-03-21T10:32:20Z</time>
      </trkpt>
      <trkpt lat="42.90276" lon="2.36422">
        <ele>418.1</ele>
        <time>2021-03-21T10:32:21Z</time>
      </trkpt>
      <trkpt lat="42.9027" lon="2.36403">
        <ele>417.7</ele>
        <time>2021-03-21T10:32:23Z</time>
      </trkpt>
      <trkpt lat="42.90264" lon="2.36383">
        <ele>417.1</ele>
        <time>2021-03-21T10:32:25Z</time>
      </trkpt>
      <trkpt lat="42.9026" lon="2.36364">
        <ele>416.6</ele>
        <time>2021-03-21T10:32:27Z</time>
      </trkpt>
      <trkpt lat="42.9026" lon="2.36354">
        <ele>416.3</ele>
        <time>2021-03-21T10:32:28Z</time>
      </trkpt>
      <trkpt lat="42.90261" lon="2.36333">
        <ele>415.5</ele>
        <time>2021-03-21T10:32:30Z</time>
      </trkpt>
      <trkpt lat="42.90261" lon="2.36311">
        <ele>414.7</ele>
        <time>2021-03-21T10:32:32Z</time>
      </trkpt>
      <trkpt lat="42.90261" lon="2.36289">
        <ele>413.7</ele>
        <time>2021-03-21T10:32:34Z</time>
      </trkpt>
      <trkpt lat="42.9026" lon="2.36277">
        <ele>413.2</ele>
        <time>2021-03-21T10:32:35Z</time>
      </trkpt>
      <trkpt lat="42.9026" lon="2.36265">
        <ele>412.6</ele>
        <time>2021-03-21T10:32:36Z</time>
      </trkpt>
      <trkpt lat="42.90259" lon="2.36253">
        <ele>411.9</ele>
        <time>2021-03-21T10:32:37Z</time>
      </trkpt>
      <trkpt lat="42.90259" lon="2.3624">
        <ele>411.2</ele>
        <time>2021-03-21T10:32:38Z</time>
      </trkpt>
      <trkpt lat="42.90257" lon="2.36214">
        <ele>409.7</ele>
        <time>2021-03-21T10:32:40Z</time>
      </trkpt>
      <trkpt lat="42.90255" lon="2.36187">
        <ele>408.2</ele>
        <time>2021-03-21T10:32:42Z</time>
      </trkpt>
      <trkpt lat="42.90252" lon="2.3616">
        <ele>406.9</ele>
        <time>2021-03-21T10:32:44Z</time>
      </trkpt>
      <trkpt lat="42.90251" lon="2.36146">
        <ele>406.4</ele>
        <time>2021-03-21T10:32:45Z</time>
      </trkpt>
      <trkpt lat="42.90249" lon="2.36119">
        <ele>406</ele>
        <time>2021-03-21T10:32:47Z</time>
      </trkpt>
      <trkpt lat="42.90249" lon="2.36105">
        <ele>406.1</ele>
        <time>2021-03-21T10:32:48Z</time>
      </trkpt>
      <trkpt lat="42.90252" lon="2.36079">
        <ele>406.8</ele>
        <time>2021-03-21T10:32:50Z</time>
      </trkpt>
      <trkpt lat="42.90255" lon="2.36056">
        <ele>407.6</ele>
        <time>2021-03-21T10:32:52Z</time>
      </trkpt>
      <trkpt lat="42.90254" lon="2.36045">
        <ele>407.9</ele>
        <time>2021-03-21T10:32:53Z</time>
      </trkpt>
      <trkpt lat="42.9025" lon="2.36026">
        <ele>408.4</ele>
        <time>2021-03-21T10:32:55Z</time>
      </trkpt>
      <trkpt lat="42.90242" lon="2.3601">
        <ele>408.7</ele>
        <time>2021-03-21T10:32:57Z</time>
      </trkpt>
      <trkpt lat="42.90238" lon="2.36002">
        <ele>408.7</ele>
        <time>2021-03-21T10:32:58Z</time>
      </trkpt>
      <trkpt lat="42.90232" lon="2.35985">
        <ele>408.5</ele>
        <time>2021-03-21T10:33:00Z</time>
      </trkpt>
      <trkpt lat="42.90229" lon="2.35975">
        <ele>408.3</ele>
        <time>2021-03-21T10:33:01Z</time>
      </trkpt>
      <trkpt lat="42.90227" lon="2.35965">
        <ele>408</ele>
        <time>2021-03-21T10:33:02Z</time>
      </trkpt>
      <trkpt lat="42.90225" lon="2.35944">
        <ele>407.4</ele>
        <time>2021-03-21T10:33:04Z</time>
      </trkpt>
      <trkpt lat="42.90224" lon="2.35934">
        <ele>407.1</ele>
        <time>2021-03-21T10:33:05Z</time>
      </trkpt>
      <trkpt lat="42.90221" lon="2.35913">
        <ele>406.5</ele>
        <time>2021-03-21T10:33:07Z</time>
      </trkpt>
      <trkpt lat="42.90219" lon="2.35903">
        <ele>406.2</ele>
        <time>2021-03-21T10:33:08Z</time>
      </trkpt>
      <trkpt lat="42.90214" lon="2.35883">
        <ele>405.7</ele>
        <time>2021-03-21T10:33:10Z</time>
      </trkpt>
      <trkpt lat="42.90209" lon="2.35863">
        <ele>405.4</ele>
        <time>2021-03-21T10:33:12Z</time>
      </trkpt>
      <trkpt lat="42.90207" lon="2.35853">
        <ele>405.3</ele>
        <time>2021-03-21T10:33:13Z</time>
      </trkpt>
      <trkpt lat="42.90204" lon="2.35832">
        <ele>405.2</ele>
        <time>2021-03-21T10:33:15Z</time>
      </trkpt>
      <trkpt lat="42.90203" lon="2.35822">
        <ele>405.1</ele>
        <time>2021-03-21T10:33:16Z</time>
      </trkpt>
      <trkpt lat="42.90203" lon="2.358">
        <ele>405</ele>
        <time>2021-03-21T10:33:18Z</time>
      </trkpt>
      <trkpt lat="42.90206" lon="2.3578">
        <ele>405.1</ele>
        <time>2021-03-21T10:33:20Z</time>
      </trkpt>
      <trkpt lat="42.90211" lon="2.35761">
        <ele>405.1</ele>
        <time>2021-03-21T10:33:22Z</time>
      </trkpt>
      <trkpt lat="42.90217" lon="2.35742">
        <ele>405.3</ele>
        <time>2021-03-21T10:33:24Z</time>
      </trkpt>
      <trkpt lat="42.90223" lon="2.35725">
        <ele>405.6</ele>
        <time>2021-03-21T10:33:26Z</time>
      </trkpt>
      <trkpt lat="42.90229" lon="2.35708">
        <ele>406</ele>
        <time>2021-03-21T10:33:28Z</time>
      </trkpt>
      <trkpt lat="42.90235" lon="2.35693">
        <ele>406.4</ele>
        <time>2021-03-21T10:33:30Z</time>
      </trkpt>
      <trkpt lat="42.90238" lon="2.35686">
        <ele>406.6</ele>
        <time>2021-03-21T10:33:31Z</time>
      </trkpt>
      <trkpt lat="42.9024" lon="2.35678">
        <ele>406.8</ele>
        <time>2021-03-21T10:33:32Z</time>
      </trkpt>
      <trkpt lat="42.90244" lon="2.35661">
        <ele>407.3</ele>
        <time>2021-03-21T10:33:34Z</time>
      </trkpt>
      <trkpt lat="42.90246" lon="2.35652">
        <ele>407.5</ele>
        <time>2021-03-21T10:33:35Z</time>
      </trkpt>
      <trkpt lat="42.90246" lon="2.35634">
        <ele>407.9</ele>
        <time>2021-03-21T10:33:37Z</time>
      </trkpt>
      <trkpt lat="42.90244" lon="2.35625">
        <ele>408.1</ele>
        <time>2021-03-21T10:33:38Z</time>
      </trkpt>
      <trkpt lat="42.90241" lon="2.35617">
        <ele>408.3</ele>
        <time>2021-03-21T10:33:39Z</time>
      </trkpt>
      <trkpt lat="42.90235" lon="2.35602">
        <ele>408.4</ele>
        <time>2021-03-21T10:33:41Z</time>
      </trkpt>
      <trkpt lat="42.90227" lon="2.35589">
        <ele>408.3</ele>
        <time>2021-03-21T10:33:43Z</time>
      </trkpt>
      <trkpt lat="42.90223" lon="2.35583">
        <ele>408</ele>
        <time>2021-03-21T10:33:44Z</time>
      </trkpt>
      <trkpt lat="42.90211" lon="2.35572">
        <ele>407.2</ele>
        <time>2021-03-21T10:33:46Z</time>
      </trkpt>
      <trkpt lat="42.90196" lon="2.35567">
        <ele>406.2</ele>
        <time>2021-03-21T10:33:48Z</time>
      </trkpt>
      <trkpt lat="42.90188" lon="2.35565">
        <ele>405.6</ele>
        <time>2021-03-21T10:33:49Z</time>
      </trkpt>
      <trkpt lat="42.90172" lon="2.3556">
        <ele>404.7</ele>
        <time>2021-03-21T10:33:51Z</time>
      </trkpt>
      <trkpt lat="42.90159" lon="2.35548">
        <ele>404</ele>
        <time>2021-03-21T10:33:53Z</time>
      </trkpt>
      <trkpt lat="42.90154" lon="2.35539">
        <ele>403.8</ele>
        <time>2021-03-21T10:33:54Z</time>
      </trkpt>
      <trkpt lat="42.90149" lon="2.3553">
        <ele>403.8</ele>
        <time>2021-03-21T10:33:55Z</time>
      </trkpt>
      <trkpt lat="42.90138" lon="2.35513">
        <ele>403.7</ele>
        <time>2021-03-21T10:33:57Z</time>
      </trkpt>
      <trkpt lat="42.90128" lon="2.355">
        <ele>403.7</ele>
        <time>2021-03-21T10:33:59Z</time>
      </trkpt>
      <trkpt lat="42.90123" lon="2.35495">
        <ele>403.6</ele>
        <time>2021-03-21T10:34:00Z</time>
      </trkpt>
      <trkpt lat="42.90117" lon="2.35492">
        <ele>403.5</ele>
        <time>2021-03-21T10:34:01Z</time>
      </trkpt>
      <trkpt lat="42.90104" lon="2.35489">
        <ele>403.1</ele>
        <time>2021-03-21T10:34:03Z</time>
      </trkpt>
      <trkpt lat="42.90091" lon="2.35485">
        <ele>402.8</ele>
        <time>2021-03-21T10:34:05Z</time>
      </trkpt>
      <trkpt lat="42.90085" lon="2.35481">
        <ele>402.5</ele>
        <time>2021-03-21T10:34:06Z</time>
      </trkpt>
      <trkpt lat="42.90077" lon="2.35469">
        <ele>402</ele>
        <time>2021-03-21T10:34:08Z</time>
      </trkpt>
      <trkpt lat="42.90075" lon="2.35461">
        <ele>401.8</ele>
        <time>2021-03-21T10:34:09Z</time>
      </trkpt>
      <trkpt lat="42.90077" lon="2.35442">
        <ele>400.9</ele>
        <time>2021-03-21T10:34:11Z</time>
      </trkpt>
      <trkpt lat="42.90086" lon="2.35425">
        <ele>400</ele>
        <time>2021-03-21T10:34:13Z</time>
      </trkpt>
      <trkpt lat="42.90092" lon="2.35417">
        <ele>399.6</ele>
        <time>2021-03-21T10:34:14Z</time>
      </trkpt>
      <trkpt lat="42.90102" lon="2.35399">
        <ele>399.1</ele>
        <time>2021-03-21T10:34:16Z</time>
      </trkpt>
      <trkpt lat="42.90105" lon="2.35389">
        <ele>398.8</ele>
        <time>2021-03-21T10:34:17Z</time>
      </trkpt>
      <trkpt lat="42.90109" lon="2.35379">
        <ele>398.6</ele>
        <time>2021-03-21T10:34:18Z</time>
      </trkpt>
      <trkpt lat="42.90114" lon="2.3536">
        <ele>398.2</ele>
        <time>2021-03-21T10:34:20Z</time>
      </trkpt>
      <trkpt lat="42.90117" lon="2.3535">
        <ele>398</ele>
        <time>2021-03-21T10:34:21Z</time>
      </trkpt>
      <trkpt lat="42.9012" lon="2.35341">
        <ele>397.8</ele>
        <time>2021-03-21T10:34:22Z</time>
      </trkpt>
      <trkpt lat="42.90123" lon="2.35331">
        <ele>397.7</ele>
        <time>2021-03-21T10:34:23Z</time>
      </trkpt>
      <trkpt lat="42.90129" lon="2.35313">
        <ele>397.6</ele>
        <time>2021-03-21T10:34:25Z</time>
      </trkpt>
      <trkpt lat="42.90132" lon="2.35304">
        <ele>397.5</ele>
        <time>2021-03-21T10:34:26Z</time>
      </trkpt>
      <trkpt lat="42.90139" lon="2.35288">
        <ele>397.3</ele>
        <time>2021-03-21T10:34:28Z</time>
      </trkpt>
      <trkpt lat="42.90142" lon="2.35279">
        <ele>397.2</ele>
        <time>2021-03-21T10:34:29Z</time>
      </trkpt>
      <trkpt lat="42.90149" lon="2.35263">
        <ele>397</ele>
        <time>2021-03-21T10:34:31Z</time>
      </trkpt>
      <trkpt lat="42.90156" lon="2.35247">
        <ele>396.8</ele>
        <time>2021-03-21T10:34:33Z</time>
      </trkpt>
      <trkpt lat="42.90163" lon="2.3523">
        <ele>396.6</ele>
        <time>2021-03-21T10:34:35Z</time>
      </trkpt>
      <trkpt lat="42.90167" lon="2.35221">
        <ele>396.4</ele>
        <time>2021-03-21T10:34:36Z</time>
      </trkpt>
      <trkpt lat="42.90172" lon="2.35212">
        <ele>396.2</ele>
        <time>2021-03-21T10:34:37Z</time>
      </trkpt>
      <trkpt lat="42.90179" lon="2.35195">
        <ele>396</ele>
        <time>2021-03-21T10:34:39Z</time>
      </trkpt>
      <trkpt lat="42.90183" lon="2.35186">
        <ele>396</ele>
        <time>2021-03-21T10:34:40Z</time>
      </trkpt>
      <trkpt lat="42.90189" lon="2.3517">
        <ele>395.9</ele>
        <time>2021-03-21T10:34:42Z</time>
      </trkpt>
      <trkpt lat="42.90196" lon="2.35154">
        <ele>396</ele>
        <time>2021-03-21T10:34:44Z</time>
      </trkpt>
      <trkpt lat="42.90199" lon="2.35145">
        <ele>396.1</ele>
        <time>2021-03-21T10:34:45Z</time>
      </trkpt>
      <trkpt lat="42.90201" lon="2.35136">
        <ele>396.2</ele>
        <time>2021-03-21T10:34:46Z</time>
      </trkpt>
      <trkpt lat="42.90199" lon="2.35116">
        <ele>396.6</ele>
        <time>2021-03-21T10:34:48Z</time>
      </trkpt>
      <trkpt lat="42.90192" lon="2.35098">
        <ele>397</ele>
        <time>2021-03-21T10:34:50Z</time>
      </trkpt>
      <trkpt lat="42.90189" lon="2.3509">
        <ele>397.2</ele>
        <time>2021-03-21T10:34:51Z</time>
      </trkpt>
      <trkpt lat="42.90183" lon="2.35075">
        <ele>397.5</ele>
        <time>2021-03-21T10:34:53Z</time>
      </trkpt>
      <trkpt lat="42.90181" lon="2.3506">
        <ele>397.8</ele>
        <time>2021-03-21T10:34:55Z</time>
      </trkpt>
      <trkpt lat="42.90181" lon="2.35052">
        <ele>397.9</ele>
        <time>2021-03-21T10:34:56Z</time>
      </trkpt>
      <trkpt lat="42.90183" lon="2.35035">
        <ele>398.1</ele>
        <time>2021-03-21T10:34:58Z</time>
      </trkpt>
      <trkpt lat="42.90188" lon="2.35019">
        <ele>398.3</ele>
        <time>2021-03-21T10:35:00Z</time>
      </trkpt>
      <trkpt lat="42.9019" lon="2.3501">
        <ele>398.3</ele>
        <time>2021-03-21T10:35:01Z</time>
      </trkpt>
      <trkpt lat="42.90192" lon="2.35001">
        <ele>398.5</ele>
        <time>2021-03-21T10:35:02Z</time>
      </trkpt>
      <trkpt lat="42.90189" lon="2.34984">
        <ele>398.7</ele>
        <time>2021-03-21T10:35:04Z</time>
      </trkpt>
      <trkpt lat="42.90181" lon="2.34969">
        <ele>398.9</ele>
        <time>2021-03-21T10:35:06Z</time>
      </trkpt>
      <trkpt lat="42.90175" lon="2.34964">
        <ele>399</ele>
        <time>2021-03-21T10:35:07Z</time>
      </trkpt>
      <trkpt lat="42.90169" lon="2.34959">
        <ele>399.1</ele>
        <time>2021-03-21T10:35:08Z</time>
      </trkpt>
      <trkpt lat="42.90164" lon="2.34954">
        <ele>399.2</ele>
        <time>2021-03-21T10:35:09Z</time>
      </trkpt>
      <trkpt lat="42.90154" lon="2.34943">
        <ele>399.6</ele>
        <time>2021-03-21T10:35:11Z</time>
      </trkpt>
      <trkpt lat="42.9015" lon="2.34937">
        <ele>399.8</ele>
        <time>2021-03-21T10:35:12Z</time>
      </trkpt>
      <trkpt lat="42.90142" lon="2.34923">
        <ele>400.3</ele>
        <time>2021-03-21T10:35:14Z</time>
      </trkpt>
      <trkpt lat="42.9014" lon="2.34916">
        <ele>400.5</ele>
        <time>2021-03-21T10:35:15Z</time>
      </trkpt>
      <trkpt lat="42.90136" lon="2.34901">
        <ele>401</ele>
        <time>2021-03-21T10:35:17Z</time>
      </trkpt>
      <trkpt lat="42.90135" lon="2.34894">
        <ele>401.2</ele>
        <time>2021-03-21T10:35:18Z</time>
      </trkpt>
      <trkpt lat="42.90132" lon="2.34878">
        <ele>401.8</ele>
        <time>2021-03-21T10:35:20Z</time>
      </trkpt>
      <trkpt lat="42.90131" lon="2.34862">
        <ele>402.3</ele>
        <time>2021-03-21T10:35:22Z</time>
      </trkpt>
      <trkpt lat="42.90128" lon="2.34846">
        <ele>402.6</ele>
        <time>2021-03-21T10:35:24Z</time>
      </trkpt>
      <trkpt lat="42.90126" lon="2.34838">
        <ele>402.7</ele>
        <time>2021-03-21T10:35:25Z</time>
      </trkpt>
      <trkpt lat="42.90124" lon="2.34822">
        <ele>402.8</ele>
        <time>2021-03-21T10:35:27Z</time>
      </trkpt>
      <trkpt lat="42.90121" lon="2.34807">
        <ele>402.8</ele>
        <time>2021-03-21T10:35:29Z</time>
      </trkpt>
      <trkpt lat="42.9012" lon="2.34799">
        <ele>402.7</ele>
        <time>2021-03-21T10:35:30Z</time>
      </trkpt>
      <trkpt lat="42.90118" lon="2.34791">
        <ele>402.7</ele>
        <time>2021-03-21T10:35:31Z</time>
      </trkpt>
      <trkpt lat="42.90117" lon="2.34783">
        <ele>402.6</ele>
        <time>2021-03-21T10:35:32Z</time>
      </trkpt>
      <trkpt lat="42.90115" lon="2.34775">
        <ele>402.6</ele>
        <time>2021-03-21T10:35:33Z</time>
      </trkpt>
      <trkpt lat="42.90112" lon="2.34758">
        <ele>402.4</ele>
        <time>2021-03-21T10:35:35Z</time>
      </trkpt>
      <trkpt lat="42.9011" lon="2.3475">
        <ele>402.4</ele>
        <time>2021-03-21T10:35:36Z</time>
      </trkpt>
      <trkpt lat="42.90107" lon="2.34733">
        <ele>402.2</ele>
        <time>2021-03-21T10:35:38Z</time>
      </trkpt>
      <trkpt lat="42.90107" lon="2.34716">
        <ele>401.9</ele>
        <time>2021-03-21T10:35:40Z</time>
      </trkpt>
      <trkpt lat="42.90112" lon="2.347">
        <ele>401.4</ele>
        <time>2021-03-21T10:35:42Z</time>
      </trkpt>
      <trkpt lat="42.90116" lon="2.34692">
        <ele>401</ele>
        <time>2021-03-21T10:35:43Z</time>
      </trkpt>
      <trkpt lat="42.90124" lon="2.34675">
        <ele>400</ele>
        <time>2021-03-21T10:35:45Z</time>
      </trkpt>
      <trkpt lat="42.90127" lon="2.34664">
        <ele>399.6</ele>
        <time>2021-03-21T10:35:46Z</time>
      </trkpt>
      <trkpt lat="42.90128" lon="2.34653">
        <ele>399.1</ele>
        <time>2021-03-21T10:35:47Z</time>
      </trkpt>
      <trkpt lat="42.90126" lon="2.34629">
        <ele>398.2</ele>
        <time>2021-03-21T10:35:49Z</time>
      </trkpt>
      <trkpt lat="42.90122" lon="2.34608">
        <ele>397.2</ele>
        <time>2021-03-21T10:35:51Z</time>
      </trkpt>
      <trkpt lat="42.9012" lon="2.34597">
        <ele>396.8</ele>
        <time>2021-03-21T10:35:52Z</time>
      </trkpt>
      <trkpt lat="42.90115" lon="2.34573">
        <ele>395.9</ele>
        <time>2021-03-21T10:35:54Z</time>
      </trkpt>
      <trkpt lat="42.90113" lon="2.34562">
        <ele>395.5</ele>
        <time>2021-03-21T10:35:55Z</time>
      </trkpt>
      <trkpt lat="42.90107" lon="2.34541">
        <ele>394.7</ele>
        <time>2021-03-21T10:35:57Z</time>
      </trkpt>
      <trkpt lat="42.90102" lon="2.3452">
        <ele>393.9</ele>
        <time>2021-03-21T10:35:59Z</time>
      </trkpt>
      <trkpt lat="42.901" lon="2.34508">
        <ele>393.5</ele>
        <time>2021-03-21T10:36:00Z</time>
      </trkpt>
      <trkpt lat="42.90096" lon="2.34486">
        <ele>392.8</ele>
        <time>2021-03-21T10:36:02Z</time>
      </trkpt>
      <trkpt lat="42.90093" lon="2.34463">
        <ele>392.1</ele>
        <time>2021-03-21T10:36:04Z</time>
      </trkpt>
      <trkpt lat="42.90092" lon="2.34442">
        <ele>391.6</ele>
        <time>2021-03-21T10:36:06Z</time>
      </trkpt>
      <trkpt lat="42.90092" lon="2.3443">
        <ele>391.3</ele>
        <time>2021-03-21T10:36:07Z</time>
      </trkpt>
      <trkpt lat="42.90092" lon="2.34408">
        <ele>390.9</ele>
        <time>2021-03-21T10:36:09Z</time>
      </trkpt>
      <trkpt lat="42.90094" lon="2.34385">
        <ele>390.4</ele>
        <time>2021-03-21T10:36:11Z</time>
      </trkpt>
      <trkpt lat="42.90096" lon="2.34362">
        <ele>390</ele>
        <time>2021-03-21T10:36:13Z</time>
      </trkpt>
      <trkpt lat="42.90099" lon="2.34338">
        <ele>389.6</ele>
        <time>2021-03-21T10:36:15Z</time>
      </trkpt>
      <trkpt lat="42.901" lon="2.34326">
        <ele>389.3</ele>
        <time>2021-03-21T10:36:16Z</time>
      </trkpt>
      <trkpt lat="42.90101" lon="2.34313">
        <ele>389.1</ele>
        <time>2021-03-21T10:36:17Z</time>
      </trkpt>
      <trkpt lat="42.901" lon="2.34289">
        <ele>388.6</ele>
        <time>2021-03-21T10:36:19Z</time>
      </trkpt>
      <trkpt lat="42.90098" lon="2.34277">
        <ele>388.4</ele>
        <time>2021-03-21T10:36:20Z</time>
      </trkpt>
      <trkpt lat="42.90096" lon="2.34266">
        <ele>388.2</ele>
        <time>2021-03-21T10:36:21Z</time>
      </trkpt>
      <trkpt lat="42.90091" lon="2.34244">
        <ele>387.9</ele>
        <time>2021-03-21T10:36:23Z</time>
      </trkpt>
      <trkpt lat="42.90084" lon="2.34223">
        <ele>387.5</ele>
        <time>2021-03-21T10:36:25Z</time>
      </trkpt>
      <trkpt lat="42.90075" lon="2.34203">
        <ele>387.2</ele>
        <time>2021-03-21T10:36:27Z</time>
      </trkpt>
      <trkpt lat="42.90072" lon="2.34193">
        <ele>387.1</ele>
        <time>2021-03-21T10:36:28Z</time>
      </trkpt>
      <trkpt lat="42.90066" lon="2.34171">
        <ele>386.8</ele>
        <time>2021-03-21T10:36:30Z</time>
      </trkpt>
      <trkpt lat="42.90064" lon="2.3415">
        <ele>386.5</ele>
        <time>2021-03-21T10:36:32Z</time>
      </trkpt>
      <trkpt lat="42.90064" lon="2.34139">
        <ele>386.3</ele>
        <time>2021-03-21T10:36:33Z</time>
      </trkpt>
      <trkpt lat="42.90066" lon="2.34116">
        <ele>386</ele>
        <time>2021-03-21T10:36:35Z</time>
      </trkpt>
      <trkpt lat="42.90071" lon="2.34096">
        <ele>385.6</ele>
        <time>2021-03-21T10:36:37Z</time>
      </trkpt>
      <trkpt lat="42.90075" lon="2.34087">
        <ele>385.3</ele>
        <time>2021-03-21T10:36:38Z</time>
      </trkpt>
      <trkpt lat="42.90086" lon="2.34069">
        <ele>384.7</ele>
        <time>2021-03-21T10:36:40Z</time>
      </trkpt>
      <trkpt lat="42.90093" lon="2.34061">
        <ele>384.3</ele>
        <time>2021-03-21T10:36:41Z</time>
      </trkpt>
      <trkpt lat="42.90107" lon="2.34048">
        <ele>383.3</ele>
        <time>2021-03-21T10:36:43Z</time>
      </trkpt>
      <trkpt lat="42.90115" lon="2.34045">
        <ele>382.9</ele>
        <time>2021-03-21T10:36:44Z</time>
      </trkpt>
      <trkpt lat="42.90124" lon="2.34046">
        <ele>382.4</ele>
        <time>2021-03-21T10:36:45Z</time>
      </trkpt>
      <trkpt lat="42.90133" lon="2.34049">
        <ele>381.9</ele>
        <time>2021-03-21T10:36:46Z</time>
      </trkpt>
      <trkpt lat="42.90152" lon="2.34051">
        <ele>381</ele>
        <time>2021-03-21T10:36:48Z</time>
      </trkpt>
      <trkpt lat="42.90166" lon="2.34034">
        <ele>380.4</ele>
        <time>2021-03-21T10:36:50Z</time>
      </trkpt>
      <trkpt lat="42.90165" lon="2.34008">
        <ele>380.1</ele>
        <time>2021-03-21T10:36:52Z</time>
      </trkpt>
      <trkpt lat="42.90163" lon="2.33996">
        <ele>379.9</ele>
        <time>2021-03-21T10:36:53Z</time>
      </trkpt>
      <trkpt lat="42.90162" lon="2.33984">
        <ele>379.8</ele>
        <time>2021-03-21T10:36:54Z</time>
      </trkpt>
      <trkpt lat="42.90164" lon="2.33961">
        <ele>379.5</ele>
        <time>2021-03-21T10:36:56Z</time>
      </trkpt>
      <trkpt lat="42.90166" lon="2.33949">
        <ele>379.4</ele>
        <time>2021-03-21T10:36:57Z</time>
      </trkpt>
      <trkpt lat="42.90171" lon="2.33928">
        <ele>379.2</ele>
        <time>2021-03-21T10:36:59Z</time>
      </trkpt>
      <trkpt lat="42.90174" lon="2.33917">
        <ele>379.1</ele>
        <time>2021-03-21T10:37:00Z</time>
      </trkpt>
      <trkpt lat="42.90181" lon="2.33898">
        <ele>378.8</ele>
        <time>2021-03-21T10:37:02Z</time>
      </trkpt>
      <trkpt lat="42.90189" lon="2.33879">
        <ele>378.5</ele>
        <time>2021-03-21T10:37:04Z</time>
      </trkpt>
      <trkpt lat="42.90193" lon="2.3387">
        <ele>378.3</ele>
        <time>2021-03-21T10:37:05Z</time>
      </trkpt>
      <trkpt lat="42.90201" lon="2.33851">
        <ele>378</ele>
        <time>2021-03-21T10:37:07Z</time>
      </trkpt>
      <trkpt lat="42.90205" lon="2.33842">
        <ele>377.9</ele>
        <time>2021-03-21T10:37:08Z</time>
      </trkpt>
      <trkpt lat="42.90213" lon="2.33824">
        <ele>377.5</ele>
        <time>2021-03-21T10:37:10Z</time>
      </trkpt>
      <trkpt lat="42.90218" lon="2.33816">
        <ele>377.3</ele>
        <time>2021-03-21T10:37:11Z</time>
      </trkpt>
      <trkpt lat="42.90229" lon="2.33804">
        <ele>377</ele>
        <time>2021-03-21T10:37:13Z</time>
      </trkpt>
      <trkpt lat="42.90235" lon="2.338">
        <ele>376.7</ele>
        <time>2021-03-21T10:37:14Z</time>
      </trkpt>
      <trkpt lat="42.90249" lon="2.33791">
        <ele>376.1</ele>
        <time>2021-03-21T10:37:16Z</time>
      </trkpt>
      <trkpt lat="42.90255" lon="2.33785">
        <ele>375.7</ele>
        <time>2021-03-21T10:37:17Z</time>
      </trkpt>
      <trkpt lat="42.90268" lon="2.3377">
        <ele>374.8</ele>
        <time>2021-03-21T10:37:19Z</time>
      </trkpt>
      <trkpt lat="42.9028" lon="2.33752">
        <ele>373.9</ele>
        <time>2021-03-21T10:37:21Z</time>
      </trkpt>
      <trkpt lat="42.90286" lon="2.33743">
        <ele>373.4</ele>
        <time>2021-03-21T10:37:22Z</time>
      </trkpt>
      <trkpt lat="42.90292" lon="2.33733">
        <ele>373</ele>
        <time>2021-03-21T10:37:23Z</time>
      </trkpt>
      <trkpt lat="42.90298" lon="2.33723">
        <ele>372.5</ele>
        <time>2021-03-21T10:37:24Z</time>
      </trkpt>
      <trkpt lat="42.90308" lon="2.33702">
        <ele>371.5</ele>
        <time>2021-03-21T10:37:26Z</time>
      </trkpt>
      <trkpt lat="42.90312" lon="2.33691">
        <ele>370.9</ele>
        <time>2021-03-21T10:37:27Z</time>
      </trkpt>
      <trkpt lat="42.90314" lon="2.33678">
        <ele>370.3</ele>
        <time>2021-03-21T10:37:28Z</time>
      </trkpt>
      <trkpt lat="42.90311" lon="2.33664">
        <ele>369.7</ele>
        <time>2021-03-21T10:37:29Z</time>
      </trkpt>
      <trkpt lat="42.90304" lon="2.33637">
        <ele>368.5</ele>
        <time>2021-03-21T10:37:31Z</time>
      </trkpt>
      <trkpt lat="42.90302" lon="2.3361">
        <ele>367.3</ele>
        <time>2021-03-21T10:37:33Z</time>
      </trkpt>
      <trkpt lat="42.90305" lon="2.33584">
        <ele>366.2</ele>
        <time>2021-03-21T10:37:35Z</time>
      </trkpt>
      <trkpt lat="42.90312" lon="2.3356">
        <ele>365.1</ele>
        <time>2021-03-21T10:37:37Z</time>
      </trkpt>
      <trkpt lat="42.90318" lon="2.33548">
        <ele>364.6</ele>
        <time>2021-03-21T10:37:38Z</time>
      </trkpt>
      <trkpt lat="42.90327" lon="2.33538">
        <ele>363.9</ele>
        <time>2021-03-21T10:37:39Z</time>
      </trkpt>
      <trkpt lat="42.90336" lon="2.33528">
        <ele>363.4</ele>
        <time>2021-03-21T10:37:40Z</time>
      </trkpt>
      <trkpt lat="42.90354" lon="2.33512">
        <ele>362.4</ele>
        <time>2021-03-21T10:37:42Z</time>
      </trkpt>
      <trkpt lat="42.90363" lon="2.33504">
        <ele>362.1</ele>
        <time>2021-03-21T10:37:43Z</time>
      </trkpt>
      <trkpt lat="42.90379" lon="2.3349">
        <ele>361.5</ele>
        <time>2021-03-21T10:37:45Z</time>
      </trkpt>
      <trkpt lat="42.90386" lon="2.33483">
        <ele>361.3</ele>
        <time>2021-03-21T10:37:46Z</time>
      </trkpt>
      <trkpt lat="42.90393" lon="2.33475">
        <ele>361.1</ele>
        <time>2021-03-21T10:37:47Z</time>
      </trkpt>
      <trkpt lat="42.90404" lon="2.33459">
        <ele>360.8</ele>
        <time>2021-03-21T10:37:49Z</time>
      </trkpt>
      <trkpt lat="42.9041" lon="2.3345">
        <ele>360.5</ele>
        <time>2021-03-21T10:37:50Z</time>
      </trkpt>
      <trkpt lat="42.90414" lon="2.33441">
        <ele>360.3</ele>
        <time>2021-03-21T10:37:51Z</time>
      </trkpt>
      <trkpt lat="42.9042" lon="2.33418">
        <ele>360</ele>
        <time>2021-03-21T10:37:53Z</time>
      </trkpt>
      <trkpt lat="42.9042" lon="2.33406">
        <ele>359.8</ele>
        <time>2021-03-21T10:37:54Z</time>
      </trkpt>
      <trkpt lat="42.90419" lon="2.33395">
        <ele>359.6</ele>
        <time>2021-03-21T10:37:55Z</time>
      </trkpt>
      <trkpt lat="42.90416" lon="2.33373">
        <ele>359.3</ele>
        <time>2021-03-21T10:37:57Z</time>
      </trkpt>
      <trkpt lat="42.90414" lon="2.33363">
        <ele>359.2</ele>
        <time>2021-03-21T10:37:58Z</time>
      </trkpt>
      <trkpt lat="42.90411" lon="2.33342">
        <ele>358.7</ele>
        <time>2021-03-21T10:38:00Z</time>
      </trkpt>
      <trkpt lat="42.90409" lon="2.33332">
        <ele>358.4</ele>
        <time>2021-03-21T10:38:01Z</time>
      </trkpt>
      <trkpt lat="42.90404" lon="2.33311">
        <ele>357.8</ele>
        <time>2021-03-21T10:38:03Z</time>
      </trkpt>
      <trkpt lat="42.90398" lon="2.33289">
        <ele>357.4</ele>
        <time>2021-03-21T10:38:05Z</time>
      </trkpt>
      <trkpt lat="42.90395" lon="2.33268">
        <ele>357</ele>
        <time>2021-03-21T10:38:07Z</time>
      </trkpt>
      <trkpt lat="42.90395" lon="2.33257">
        <ele>356.8</ele>
        <time>2021-03-21T10:38:08Z</time>
      </trkpt>
      <trkpt lat="42.90401" lon="2.33238">
        <ele>356.4</ele>
        <time>2021-03-21T10:38:10Z</time>
      </trkpt>
      <trkpt lat="42.90406" lon="2.33229">
        <ele>356.3</ele>
        <time>2021-03-21T10:38:11Z</time>
      </trkpt>
      <trkpt lat="42.9042" lon="2.33213">
        <ele>355.9</ele>
        <time>2021-03-21T10:38:13Z</time>
      </trkpt>
      <trkpt lat="42.90427" lon="2.33205">
        <ele>355.7</ele>
        <time>2021-03-21T10:38:14Z</time>
      </trkpt>
      <trkpt lat="42.90434" lon="2.33198">
        <ele>355.5</ele>
        <time>2021-03-21T10:38:15Z</time>
      </trkpt>
      <trkpt lat="42.90441" lon="2.33191">
        <ele>355.3</ele>
        <time>2021-03-21T10:38:16Z</time>
      </trkpt>
      <trkpt lat="42.90453" lon="2.33174">
        <ele>354.9</ele>
        <time>2021-03-21T10:38:18Z</time>
      </trkpt>
      <trkpt lat="42.90458" lon="2.33153">
        <ele>354.7</ele>
        <time>2021-03-21T10:38:20Z</time>
      </trkpt>
      <trkpt lat="42.90458" lon="2.33141">
        <ele>354.5</ele>
        <time>2021-03-21T10:38:21Z</time>
      </trkpt>
      <trkpt lat="42.90457" lon="2.3313">
        <ele>354.3</ele>
        <time>2021-03-21T10:38:22Z</time>
      </trkpt>
      <trkpt lat="42.90456" lon="2.33109">
        <ele>354</ele>
        <time>2021-03-21T10:38:24Z</time>
      </trkpt>
      <trkpt lat="42.90456" lon="2.33088">
        <ele>353.6</ele>
        <time>2021-03-21T10:38:26Z</time>
      </trkpt>
      <trkpt lat="42.90456" lon="2.33078">
        <ele>353.3</ele>
        <time>2021-03-21T10:38:27Z</time>
      </trkpt>
      <trkpt lat="42.90459" lon="2.33058">
        <ele>352.9</ele>
        <time>2021-03-21T10:38:29Z</time>
      </trkpt>
      <trkpt lat="42.90465" lon="2.33038">
        <ele>352.4</ele>
        <time>2021-03-21T10:38:31Z</time>
      </trkpt>
      <trkpt lat="42.90472" lon="2.3302">
        <ele>352.1</ele>
        <time>2021-03-21T10:38:33Z</time>
      </trkpt>
      <trkpt lat="42.90477" lon="2.33011">
        <ele>351.9</ele>
        <time>2021-03-21T10:38:34Z</time>
      </trkpt>
      <trkpt lat="42.90486" lon="2.32994">
        <ele>351.6</ele>
        <time>2021-03-21T10:38:36Z</time>
      </trkpt>
      <trkpt lat="42.90498" lon="2.3298">
        <ele>351.2</ele>
        <time>2021-03-21T10:38:38Z</time>
      </trkpt>
      <trkpt lat="42.9051" lon="2.3297">
        <ele>350.8</ele>
        <time>2021-03-21T10:38:40Z</time>
      </trkpt>
      <trkpt lat="42.90518" lon="2.32964">
        <ele>350.6</ele>
        <time>2021-03-21T10:38:41Z</time>
      </trkpt>
      <trkpt lat="42.90525" lon="2.32958">
        <ele>350.4</ele>
        <time>2021-03-21T10:38:42Z</time>
      </trkpt>
      <trkpt lat="42.9054" lon="2.32945">
        <ele>350</ele>
        <time>2021-03-21T10:38:44Z</time>
      </trkpt>
      <trkpt lat="42.90555" lon="2.32929">
        <ele>349.6</ele>
        <time>2021-03-21T10:38:46Z</time>
      </trkpt>
      <trkpt lat="42.90569" lon="2.32914">
        <ele>349.1</ele>
        <time>2021-03-21T10:38:48Z</time>
      </trkpt>
      <trkpt lat="42.90577" lon="2.32906">
        <ele>348.9</ele>
        <time>2021-03-21T10:38:49Z</time>
      </trkpt>
      <trkpt lat="42.90583" lon="2.32899">
        <ele>348.6</ele>
        <time>2021-03-21T10:38:50Z</time>
      </trkpt>
      <trkpt lat="42.90595" lon="2.32886">
        <ele>348.3</ele>
        <time>2021-03-21T10:38:52Z</time>
      </trkpt>
      <trkpt lat="42.90601" lon="2.3288">
        <ele>348.1</ele>
        <time>2021-03-21T10:38:53Z</time>
      </trkpt>
      <trkpt lat="42.90615" lon="2.32874">
        <ele>347.7</ele>
        <time>2021-03-21T10:38:55Z</time>
      </trkpt>
      <trkpt lat="42.90623" lon="2.32874">
        <ele>347.5</ele>
        <time>2021-03-21T10:38:56Z</time>
      </trkpt>
      <trkpt lat="42.90638" lon="2.32872">
        <ele>347.1</ele>
        <time>2021-03-21T10:38:58Z</time>
      </trkpt>
      <trkpt lat="42.90652" lon="2.32868">
        <ele>346.7</ele>
        <time>2021-03-21T10:39:00Z</time>
      </trkpt>
      <trkpt lat="42.9066" lon="2.32865">
        <ele>346.5</ele>
        <time>2021-03-21T10:39:01Z</time>
      </trkpt>
      <trkpt lat="42.90667" lon="2.32861">
        <ele>346.3</ele>
        <time>2021-03-21T10:39:02Z</time>
      </trkpt>
      <trkpt lat="42.90681" lon="2.32851">
        <ele>346</ele>
        <time>2021-03-21T10:39:04Z</time>
      </trkpt>
      <trkpt lat="42.90688" lon="2.32845">
        <ele>345.8</ele>
        <time>2021-03-21T10:39:05Z</time>
      </trkpt>
      <trkpt lat="42.90696" lon="2.3284">
        <ele>345.6</ele>
        <time>2021-03-21T10:39:06Z</time>
      </trkpt>
      <trkpt lat="42.90711" lon="2.32832">
        <ele>345.2</ele>
        <time>2021-03-21T10:39:08Z</time>
      </trkpt>
      <trkpt lat="42.90719" lon="2.32828">
        <ele>345</ele>
        <time>2021-03-21T10:39:09Z</time>
      </trkpt>
      <trkpt lat="42.90726" lon="2.32825">
        <ele>344.8</ele>
        <time>2021-03-21T10:39:10Z</time>
      </trkpt>
      <trkpt lat="42.9074" lon="2.3282">
        <ele>344.4</ele>
        <time>2021-03-21T10:39:12Z</time>
      </trkpt>
      <trkpt lat="42.90748" lon="2.32817">
        <ele>344.2</ele>
        <time>2021-03-21T10:39:13Z</time>
      </trkpt>
      <trkpt lat="42.90762" lon="2.32811">
        <ele>343.9</ele>
        <time>2021-03-21T10:39:15Z</time>
      </trkpt>
      <trkpt lat="42.9077" lon="2.32808">
        <ele>343.7</ele>
        <time>2021-03-21T10:39:16Z</time>
      </trkpt>
      <trkpt lat="42.90784" lon="2.32801">
        <ele>343.6</ele>
        <time>2021-03-21T10:39:18Z</time>
      </trkpt>
      <trkpt lat="42.90792" lon="2.32798">
        <ele>343.5</ele>
        <time>2021-03-21T10:39:19Z</time>
      </trkpt>
      <trkpt lat="42.908" lon="2.32795">
        <ele>343.4</ele>
        <time>2021-03-21T10:39:20Z</time>
      </trkpt>
      <trkpt lat="42.90814" lon="2.32789">
        <ele>343.2</ele>
        <time>2021-03-21T10:39:22Z</time>
      </trkpt>
      <trkpt lat="42.90822" lon="2.32787">
        <ele>343</ele>
        <time>2021-03-21T10:39:23Z</time>
      </trkpt>
      <trkpt lat="42.9083" lon="2.32787">
        <ele>342.8</ele>
        <time>2021-03-21T10:39:24Z</time>
      </trkpt>
      <trkpt lat="42.90838" lon="2.32789">
        <ele>342.7</ele>
        <time>2021-03-21T10:39:25Z</time>
      </trkpt>
      <trkpt lat="42.90854" lon="2.32794">
        <ele>342.2</ele>
        <time>2021-03-21T10:39:27Z</time>
      </trkpt>
      <trkpt lat="42.90861" lon="2.32798">
        <ele>342.1</ele>
        <time>2021-03-21T10:39:28Z</time>
      </trkpt>
      <trkpt lat="42.90876" lon="2.32806">
        <ele>341.7</ele>
        <time>2021-03-21T10:39:30Z</time>
      </trkpt>
      <trkpt lat="42.90884" lon="2.32809">
        <ele>341.6</ele>
        <time>2021-03-21T10:39:31Z</time>
      </trkpt>
      <trkpt lat="42.90901" lon="2.32814">
        <ele>341.3</ele>
        <time>2021-03-21T10:39:33Z</time>
      </trkpt>
      <trkpt lat="42.90909" lon="2.32814">
        <ele>341.1</ele>
        <time>2021-03-21T10:39:34Z</time>
      </trkpt>
      <trkpt lat="42.90926" lon="2.32815">
        <ele>340.8</ele>
        <time>2021-03-21T10:39:36Z</time>
      </trkpt>
      <trkpt lat="42.90943" lon="2.32815">
        <ele>340.4</ele>
        <time>2021-03-21T10:39:38Z</time>
      </trkpt>
      <trkpt lat="42.90961" lon="2.32811">
        <ele>340.1</ele>
        <time>2021-03-21T10:39:40Z</time>
      </trkpt>
      <trkpt lat="42.9097" lon="2.32806">
        <ele>339.9</ele>
        <time>2021-03-21T10:39:41Z</time>
      </trkpt>
      <trkpt lat="42.90987" lon="2.32794">
        <ele>339.6</ele>
        <time>2021-03-21T10:39:43Z</time>
      </trkpt>
      <trkpt lat="42.90996" lon="2.32787">
        <ele>339.4</ele>
        <time>2021-03-21T10:39:44Z</time>
      </trkpt>
      <trkpt lat="42.91004" lon="2.32781">
        <ele>339.2</ele>
        <time>2021-03-21T10:39:45Z</time>
      </trkpt>
      <trkpt lat="42.9102" lon="2.3277">
        <ele>338.9</ele>
        <time>2021-03-21T10:39:47Z</time>
      </trkpt>
      <trkpt lat="42.91028" lon="2.32764">
        <ele>338.7</ele>
        <time>2021-03-21T10:39:48Z</time>
      </trkpt>
      <trkpt lat="42.91035" lon="2.32758">
        <ele>338.5</ele>
        <time>2021-03-21T10:39:49Z</time>
      </trkpt>
      <trkpt lat="42.91048" lon="2.32742">
        <ele>338.2</ele>
        <time>2021-03-21T10:39:51Z</time>
      </trkpt>
      <trkpt lat="42.91054" lon="2.32732">
        <ele>338.1</ele>
        <time>2021-03-21T10:39:52Z</time>
      </trkpt>
      <trkpt lat="42.9106" lon="2.3271">
        <ele>337.9</ele>
        <time>2021-03-21T10:39:54Z</time>
      </trkpt>
      <trkpt lat="42.91061" lon="2.32698">
        <ele>337.7</ele>
        <time>2021-03-21T10:39:55Z</time>
      </trkpt>
      <trkpt lat="42.91057" lon="2.32675">
        <ele>337.4</ele>
        <time>2021-03-21T10:39:57Z</time>
      </trkpt>
      <trkpt lat="42.91052" lon="2.32665">
        <ele>337.2</ele>
        <time>2021-03-21T10:39:58Z</time>
      </trkpt>
      <trkpt lat="42.91042" lon="2.32646">
        <ele>336.8</ele>
        <time>2021-03-21T10:40:00Z</time>
      </trkpt>
      <trkpt lat="42.91033" lon="2.32628">
        <ele>336.5</ele>
        <time>2021-03-21T10:40:02Z</time>
      </trkpt>
      <trkpt lat="42.91028" lon="2.32618">
        <ele>336.4</ele>
        <time>2021-03-21T10:40:03Z</time>
      </trkpt>
      <trkpt lat="42.91022" lon="2.32599">
        <ele>336.1</ele>
        <time>2021-03-21T10:40:05Z</time>
      </trkpt>
      <trkpt lat="42.91019" lon="2.32589">
        <ele>335.9</ele>
        <time>2021-03-21T10:40:06Z</time>
      </trkpt>
      <trkpt lat="42.91017" lon="2.32579">
        <ele>335.8</ele>
        <time>2021-03-21T10:40:07Z</time>
      </trkpt>
      <trkpt lat="42.91016" lon="2.32558">
        <ele>335.4</ele>
        <time>2021-03-21T10:40:09Z</time>
      </trkpt>
      <trkpt lat="42.91017" lon="2.32548">
        <ele>335.3</ele>
        <time>2021-03-21T10:40:10Z</time>
      </trkpt>
      <trkpt lat="42.91019" lon="2.32537">
        <ele>335.1</ele>
        <time>2021-03-21T10:40:11Z</time>
      </trkpt>
      <trkpt lat="42.91023" lon="2.32517">
        <ele>334.8</ele>
        <time>2021-03-21T10:40:13Z</time>
      </trkpt>
      <trkpt lat="42.91026" lon="2.32495">
        <ele>334.5</ele>
        <time>2021-03-21T10:40:15Z</time>
      </trkpt>
      <trkpt lat="42.91028" lon="2.32473">
        <ele>334.3</ele>
        <time>2021-03-21T10:40:17Z</time>
      </trkpt>
      <trkpt lat="42.91029" lon="2.32462">
        <ele>334.2</ele>
        <time>2021-03-21T10:40:18Z</time>
      </trkpt>
      <trkpt lat="42.91031" lon="2.32439">
        <ele>334</ele>
        <time>2021-03-21T10:40:20Z</time>
      </trkpt>
      <trkpt lat="42.91032" lon="2.32428">
        <ele>333.9</ele>
        <time>2021-03-21T10:40:21Z</time>
      </trkpt>
      <trkpt lat="42.91032" lon="2.32416">
        <ele>333.8</ele>
        <time>2021-03-21T10:40:22Z</time>
      </trkpt>
      <trkpt lat="42.91029" lon="2.32395">
        <ele>333.6</ele>
        <time>2021-03-21T10:40:24Z</time>
      </trkpt>
      <trkpt lat="42.91027" lon="2.32384">
        <ele>333.5</ele>
        <time>2021-03-21T10:40:25Z</time>
      </trkpt>
      <trkpt lat="42.91019" lon="2.32364">
        <ele>333.2</ele>
        <time>2021-03-21T10:40:27Z</time>
      </trkpt>
      <trkpt lat="42.9101" lon="2.32345">
        <ele>333</ele>
        <time>2021-03-21T10:40:29Z</time>
      </trkpt>
      <trkpt lat="42.91006" lon="2.32337">
        <ele>332.9</ele>
        <time>2021-03-21T10:40:30Z</time>
      </trkpt>
      <trkpt lat="42.90997" lon="2.3232">
        <ele>332.7</ele>
        <time>2021-03-21T10:40:32Z</time>
      </trkpt>
      <trkpt lat="42.90989" lon="2.32304">
        <ele>332.4</ele>
        <time>2021-03-21T10:40:34Z</time>
      </trkpt>
      <trkpt lat="42.90985" lon="2.32295">
        <ele>332.3</ele>
        <time>2021-03-21T10:40:35Z</time>
      </trkpt>
      <trkpt lat="42.9098" lon="2.32276">
        <ele>332</ele>
        <time>2021-03-21T10:40:37Z</time>
      </trkpt>
      <trkpt lat="42.90979" lon="2.32266">
        <ele>331.8</ele>
        <time>2021-03-21T10:40:38Z</time>
      </trkpt>
      <trkpt lat="42.90977" lon="2.32256">
        <ele>331.7</ele>
        <time>2021-03-21T10:40:39Z</time>
      </trkpt>
      <trkpt lat="42.90975" lon="2.32235">
        <ele>331.6</ele>
        <time>2021-03-21T10:40:41Z</time>
      </trkpt>
      <trkpt lat="42.90974" lon="2.32225">
        <ele>331.5</ele>
        <time>2021-03-21T10:40:42Z</time>
      </trkpt>
      <trkpt lat="42.90974" lon="2.32214">
        <ele>331.4</ele>
        <time>2021-03-21T10:40:43Z</time>
      </trkpt>
      <trkpt lat="42.90975" lon="2.32193">
        <ele>331.2</ele>
        <time>2021-03-21T10:40:45Z</time>
      </trkpt>
      <trkpt lat="42.90977" lon="2.32183">
        <ele>331.1</ele>
        <time>2021-03-21T10:40:46Z</time>
      </trkpt>
      <trkpt lat="42.9098" lon="2.32173">
        <ele>331</ele>
        <time>2021-03-21T10:40:47Z</time>
      </trkpt>
      <trkpt lat="42.90984" lon="2.32152">
        <ele>330.8</ele>
        <time>2021-03-21T10:40:49Z</time>
      </trkpt>
      <trkpt lat="42.90986" lon="2.3213">
        <ele>330.5</ele>
        <time>2021-03-21T10:40:51Z</time>
      </trkpt>
      <trkpt lat="42.90982" lon="2.32108">
        <ele>330.2</ele>
        <time>2021-03-21T10:40:53Z</time>
      </trkpt>
      <trkpt lat="42.90975" lon="2.32087">
        <ele>329.8</ele>
        <time>2021-03-21T10:40:55Z</time>
      </trkpt>
      <trkpt lat="42.90971" lon="2.32076">
        <ele>329.7</ele>
        <time>2021-03-21T10:40:56Z</time>
      </trkpt>
      <trkpt lat="42.90969" lon="2.32066">
        <ele>329.6</ele>
        <time>2021-03-21T10:40:57Z</time>
      </trkpt>
      <trkpt lat="42.90965" lon="2.32045">
        <ele>329.4</ele>
        <time>2021-03-21T10:40:59Z</time>
      </trkpt>
      <trkpt lat="42.90964" lon="2.32034">
        <ele>329.2</ele>
        <time>2021-03-21T10:41:00Z</time>
      </trkpt>
      <trkpt lat="42.90965" lon="2.32013">
        <ele>328.9</ele>
        <time>2021-03-21T10:41:02Z</time>
      </trkpt>
      <trkpt lat="42.90966" lon="2.32002">
        <ele>328.8</ele>
        <time>2021-03-21T10:41:03Z</time>
      </trkpt>
      <trkpt lat="42.90966" lon="2.31991">
        <ele>328.7</ele>
        <time>2021-03-21T10:41:04Z</time>
      </trkpt>
      <trkpt lat="42.90963" lon="2.31971">
        <ele>328.2</ele>
        <time>2021-03-21T10:41:06Z</time>
      </trkpt>
      <trkpt lat="42.90956" lon="2.31953">
        <ele>327.7</ele>
        <time>2021-03-21T10:41:08Z</time>
      </trkpt>
      <trkpt lat="42.90953" lon="2.31943">
        <ele>327.5</ele>
        <time>2021-03-21T10:41:09Z</time>
      </trkpt>
      <trkpt lat="42.90955" lon="2.31925">
        <ele>327</ele>
        <time>2021-03-21T10:41:11Z</time>
      </trkpt>
      <trkpt lat="42.90961" lon="2.31919">
        <ele>326.8</ele>
        <time>2021-03-21T10:41:12Z</time>
      </trkpt>
      <trkpt lat="42.90969" lon="2.31914">
        <ele>326.5</ele>
        <time>2021-03-21T10:41:13Z</time>
      </trkpt>
      <trkpt lat="42.90984" lon="2.31908">
        <ele>326.1</ele>
        <time>2021-03-21T10:41:15Z</time>
      </trkpt>
      <trkpt lat="42.90992" lon="2.31905">
        <ele>325.9</ele>
        <time>2021-03-21T10:41:16Z</time>
      </trkpt>
      <trkpt lat="42.91008" lon="2.31896">
        <ele>325.4</ele>
        <time>2021-03-21T10:41:18Z</time>
      </trkpt>
      <trkpt lat="42.91025" lon="2.31887">
        <ele>324.8</ele>
        <time>2021-03-21T10:41:20Z</time>
      </trkpt>
      <trkpt lat="42.91033" lon="2.31881">
        <ele>324.5</ele>
        <time>2021-03-21T10:41:21Z</time>
      </trkpt>
      <trkpt lat="42.91047" lon="2.31869">
        <ele>324.1</ele>
        <time>2021-03-21T10:41:23Z</time>
      </trkpt>
      <trkpt lat="42.91053" lon="2.31862">
        <ele>323.8</ele>
        <time>2021-03-21T10:41:24Z</time>
      </trkpt>
      <trkpt lat="42.91065" lon="2.31846">
        <ele>323.4</ele>
        <time>2021-03-21T10:41:26Z</time>
      </trkpt>
      <trkpt lat="42.91076" lon="2.3183">
        <ele>323</ele>
        <time>2021-03-21T10:41:28Z</time>
      </trkpt>
      <trkpt lat="42.91082" lon="2.31821">
        <ele>322.7</ele>
        <time>2021-03-21T10:41:29Z</time>
      </trkpt>
      <trkpt lat="42.91087" lon="2.31812">
        <ele>322.5</ele>
        <time>2021-03-21T10:41:30Z</time>
      </trkpt>
      <trkpt lat="42.91093" lon="2.31803">
        <ele>322.2</ele>
        <time>2021-03-21T10:41:31Z</time>
      </trkpt>
      <trkpt lat="42.91099" lon="2.31795">
        <ele>322</ele>
        <time>2021-03-21T10:41:32Z</time>
      </trkpt>
      <trkpt lat="42.91111" lon="2.31779">
        <ele>321.5</ele>
        <time>2021-03-21T10:41:34Z</time>
      </trkpt>
      <trkpt lat="42.91124" lon="2.31766">
        <ele>321.1</ele>
        <time>2021-03-21T10:41:36Z</time>
      </trkpt>
      <trkpt lat="42.91131" lon="2.3176">
        <ele>320.9</ele>
        <time>2021-03-21T10:41:37Z</time>
      </trkpt>
      <trkpt lat="42.91146" lon="2.3175">
        <ele>320.4</ele>
        <time>2021-03-21T10:41:39Z</time>
      </trkpt>
      <trkpt lat="42.91153" lon="2.31746">
        <ele>320.2</ele>
        <time>2021-03-21T10:41:40Z</time>
      </trkpt>
      <trkpt lat="42.9116" lon="2.31742">
        <ele>320</ele>
        <time>2021-03-21T10:41:41Z</time>
      </trkpt>
      <trkpt lat="42.91175" lon="2.31735">
        <ele>319.5</ele>
        <time>2021-03-21T10:41:43Z</time>
      </trkpt>
      <trkpt lat="42.9119" lon="2.31729">
        <ele>319.1</ele>
        <time>2021-03-21T10:41:45Z</time>
      </trkpt>
      <trkpt lat="42.91205" lon="2.31723">
        <ele>318.6</ele>
        <time>2021-03-21T10:41:47Z</time>
      </trkpt>
      <trkpt lat="42.91214" lon="2.31721">
        <ele>318.4</ele>
        <time>2021-03-21T10:41:48Z</time>
      </trkpt>
      <trkpt lat="42.91231" lon="2.31719">
        <ele>317.9</ele>
        <time>2021-03-21T10:41:50Z</time>
      </trkpt>
      <trkpt lat="42.9124" lon="2.31721">
        <ele>317.5</ele>
        <time>2021-03-21T10:41:51Z</time>
      </trkpt>
      <trkpt lat="42.91249" lon="2.31726">
        <ele>317</ele>
        <time>2021-03-21T10:41:52Z</time>
      </trkpt>
      <trkpt lat="42.91265" lon="2.31738">
        <ele>316.5</ele>
        <time>2021-03-21T10:41:54Z</time>
      </trkpt>
      <trkpt lat="42.91282" lon="2.3175">
        <ele>316.4</ele>
        <time>2021-03-21T10:41:56Z</time>
      </trkpt>
      <trkpt lat="42.9129" lon="2.31755">
        <ele>316.4</ele>
        <time>2021-03-21T10:41:57Z</time>
      </trkpt>
      <trkpt lat="42.91298" lon="2.3176">
        <ele>316.6</ele>
        <time>2021-03-21T10:41:58Z</time>
      </trkpt>
      <trkpt lat="42.91312" lon="2.31767">
        <ele>316.9</ele>
        <time>2021-03-21T10:42:00Z</time>
      </trkpt>
      <trkpt lat="42.91319" lon="2.31771">
        <ele>317</ele>
        <time>2021-03-21T10:42:01Z</time>
      </trkpt>
      <trkpt lat="42.91332" lon="2.31776">
        <ele>317.2</ele>
        <time>2021-03-21T10:42:03Z</time>
      </trkpt>
      <trkpt lat="42.91343" lon="2.31784">
        <ele>317.3</ele>
        <time>2021-03-21T10:42:05Z</time>
      </trkpt>
      <trkpt lat="42.91353" lon="2.31795">
        <ele>317.2</ele>
        <time>2021-03-21T10:42:07Z</time>
      </trkpt>
      <trkpt lat="42.91358" lon="2.31802">
        <ele>317.2</ele>
        <time>2021-03-21T10:42:08Z</time>
      </trkpt>
      <trkpt lat="42.91368" lon="2.31815">
        <ele>317.1</ele>
        <time>2021-03-21T10:42:10Z</time>
      </trkpt>
      <trkpt lat="42.91373" lon="2.31821">
        <ele>317</ele>
        <time>2021-03-21T10:42:11Z</time>
      </trkpt>
      <trkpt lat="42.91384" lon="2.31832">
        <ele>316.9</ele>
        <time>2021-03-21T10:42:13Z</time>
      </trkpt>
      <trkpt lat="42.91397" lon="2.31842">
        <ele>316.8</ele>
        <time>2021-03-21T10:42:15Z</time>
      </trkpt>
      <trkpt lat="42.91404" lon="2.31846">
        <ele>316.7</ele>
        <time>2021-03-21T10:42:16Z</time>
      </trkpt>
      <trkpt lat="42.91418" lon="2.31849">
        <ele>316.6</ele>
        <time>2021-03-21T10:42:18Z</time>
      </trkpt>
      <trkpt lat="42.91426" lon="2.31848">
        <ele>316.6</ele>
        <time>2021-03-21T10:42:19Z</time>
      </trkpt>
      <trkpt lat="42.91433" lon="2.31845">
        <ele>316.6</ele>
        <time>2021-03-21T10:42:20Z</time>
      </trkpt>
      <trkpt lat="42.91446" lon="2.31837">
        <ele>316.6</ele>
        <time>2021-03-21T10:42:22Z</time>
      </trkpt>
      <trkpt lat="42.91453" lon="2.31831">
        <ele>316.6</ele>
        <time>2021-03-21T10:42:23Z</time>
      </trkpt>
      <trkpt lat="42.91459" lon="2.31825">
        <ele>316.6</ele>
        <time>2021-03-21T10:42:24Z</time>
      </trkpt>
      <trkpt lat="42.91472" lon="2.31814">
        <ele>316.7</ele>
        <time>2021-03-21T10:42:26Z</time>
      </trkpt>
      <trkpt lat="42.91484" lon="2.31803">
        <ele>316.7</ele>
        <time>2021-03-21T10:42:28Z</time>
      </trkpt>
      <trkpt lat="42.91497" lon="2.31794">
        <ele>316.7</ele>
        <time>2021-03-21T10:42:30Z</time>
      </trkpt>
      <trkpt lat="42.9151" lon="2.31787">
        <ele>316.6</ele>
        <time>2021-03-21T10:42:32Z</time>
      </trkpt>
      <trkpt lat="42.91517" lon="2.31784">
        <ele>316.5</ele>
        <time>2021-03-21T10:42:33Z</time>
      </trkpt>
      <trkpt lat="42.91532" lon="2.31779">
        <ele>316.4</ele>
        <time>2021-03-21T10:42:35Z</time>
      </trkpt>
      <trkpt lat="42.91545" lon="2.31775">
        <ele>316.4</ele>
        <time>2021-03-21T10:42:37Z</time>
      </trkpt>
      <trkpt lat="42.91551" lon="2.31773">
        <ele>316.4</ele>
        <time>2021-03-21T10:42:38Z</time>
      </trkpt>
      <trkpt lat="42.91563" lon="2.3177">
        <ele>316.3</ele>
        <time>2021-03-21T10:42:40Z</time>
      </trkpt>
      <trkpt lat="42.91577" lon="2.31769">
        <ele>316.3</ele>
        <time>2021-03-21T10:42:42Z</time>
      </trkpt>
      <trkpt lat="42.91591" lon="2.31765">
        <ele>316.2</ele>
        <time>2021-03-21T10:42:44Z</time>
      </trkpt>
      <trkpt lat="42.91598" lon="2.31763">
        <ele>316.1</ele>
        <time>2021-03-21T10:42:45Z</time>
      </trkpt>
      <trkpt lat="42.91612" lon="2.31758">
        <ele>316.1</ele>
        <time>2021-03-21T10:42:47Z</time>
      </trkpt>
      <trkpt lat="42.91619" lon="2.31756">
        <ele>316.1</ele>
        <time>2021-03-21T10:42:48Z</time>
      </trkpt>
      <trkpt lat="42.91627" lon="2.31755">
        <ele>316.1</ele>
        <time>2021-03-21T10:42:49Z</time>
      </trkpt>
      <trkpt lat="42.91641" lon="2.31758">
        <ele>316.1</ele>
        <time>2021-03-21T10:42:51Z</time>
      </trkpt>
      <trkpt lat="42.91647" lon="2.31763">
        <ele>316</ele>
        <time>2021-03-21T10:42:52Z</time>
      </trkpt>
      <trkpt lat="42.91659" lon="2.31778">
        <ele>315.9</ele>
        <time>2021-03-21T10:42:54Z</time>
      </trkpt>
      <trkpt lat="42.91667" lon="2.31796">
        <ele>315.8</ele>
        <time>2021-03-21T10:42:56Z</time>
      </trkpt>
      <trkpt lat="42.9167" lon="2.31805">
        <ele>315.9</ele>
        <time>2021-03-21T10:42:57Z</time>
      </trkpt>
      <trkpt lat="42.91679" lon="2.31821">
        <ele>315.9</ele>
        <time>2021-03-21T10:42:59Z</time>
      </trkpt>
      <trkpt lat="42.91691" lon="2.31833">
        <ele>316</ele>
        <time>2021-03-21T10:43:01Z</time>
      </trkpt>
      <trkpt lat="42.91698" lon="2.31837">
        <ele>316</ele>
        <time>2021-03-21T10:43:02Z</time>
      </trkpt>
      <trkpt lat="42.91712" lon="2.31842">
        <ele>316</ele>
        <time>2021-03-21T10:43:04Z</time>
      </trkpt>
      <trkpt lat="42.9172" lon="2.31845">
        <ele>315.9</ele>
        <time>2021-03-21T10:43:05Z</time>
      </trkpt>
      <trkpt lat="42.91726" lon="2.31849">
        <ele>315.8</ele>
        <time>2021-03-21T10:43:06Z</time>
      </trkpt>
      <trkpt lat="42.91739" lon="2.31855">
        <ele>315.7</ele>
        <time>2021-03-21T10:43:08Z</time>
      </trkpt>
      <trkpt lat="42.91745" lon="2.3186">
        <ele>315.6</ele>
        <time>2021-03-21T10:43:09Z</time>
      </trkpt>
      <trkpt lat="42.91758" lon="2.31874">
        <ele>315.3</ele>
        <time>2021-03-21T10:43:11Z</time>
      </trkpt>
      <trkpt lat="42.91771" lon="2.31885">
        <ele>315</ele>
        <time>2021-03-21T10:43:13Z</time>
      </trkpt>
      <trkpt lat="42.91786" lon="2.31894">
        <ele>314.6</ele>
        <time>2021-03-21T10:43:15Z</time>
      </trkpt>
      <trkpt lat="42.91794" lon="2.31897">
        <ele>314.5</ele>
        <time>2021-03-21T10:43:16Z</time>
      </trkpt>
      <trkpt lat="42.91809" lon="2.31901">
        <ele>314.1</ele>
        <time>2021-03-21T10:43:18Z</time>
      </trkpt>
      <trkpt lat="42.91823" lon="2.31905">
        <ele>313.8</ele>
        <time>2021-03-21T10:43:20Z</time>
      </trkpt>
      <trkpt lat="42.9183" lon="2.31908">
        <ele>313.6</ele>
        <time>2021-03-21T10:43:21Z</time>
      </trkpt>
      <trkpt lat="42.91846" lon="2.31913">
        <ele>313.2</ele>
        <time>2021-03-21T10:43:23Z</time>
      </trkpt>
      <trkpt lat="42.91859" lon="2.31919">
        <ele>312.9</ele>
        <time>2021-03-21T10:43:25Z</time>
      </trkpt>
      <trkpt lat="42.91868" lon="2.31924">
        <ele>312.7</ele>
        <time>2021-03-21T10:43:27Z</time>
      </trkpt>
      <trkpt lat="42.91874" lon="2.31927">
        <ele>312.5</ele>
        <time>2021-03-21T10:43:28Z</time>
      </trkpt>
      <trkpt lat="42.91887" lon="2.31934">
        <ele>312.2</ele>
        <time>2021-03-21T10:43:30Z</time>
      </trkpt>
      <trkpt lat="42.919" lon="2.31942">
        <ele>311.8</ele>
        <time>2021-03-21T10:43:32Z</time>
      </trkpt>
      <trkpt lat="42.91913" lon="2.31948">
        <ele>311.3</ele>
        <time>2021-03-21T10:43:34Z</time>
      </trkpt>
      <trkpt lat="42.9192" lon="2.31951">
        <ele>311.1</ele>
        <time>2021-03-21T10:43:35Z</time>
      </trkpt>
      <trkpt lat="42.91927" lon="2.31955">
        <ele>311</ele>
        <time>2021-03-21T10:43:36Z</time>
      </trkpt>
      <trkpt lat="42.91935" lon="2.31958">
        <ele>310.9</ele>
        <time>2021-03-21T10:43:37Z</time>
      </trkpt>
      <trkpt lat="42.91951" lon="2.31967">
        <ele>310.8</ele>
        <time>2021-03-21T10:43:39Z</time>
      </trkpt>
      <trkpt lat="42.91967" lon="2.31977">
        <ele>310.8</ele>
        <time>2021-03-21T10:43:41Z</time>
      </trkpt>
      <trkpt lat="42.91974" lon="2.31981">
        <ele>310.9</ele>
        <time>2021-03-21T10:43:42Z</time>
      </trkpt>
      <trkpt lat="42.91988" lon="2.3199">
        <ele>311</ele>
        <time>2021-03-21T10:43:44Z</time>
      </trkpt>
      <trkpt lat="42.92001" lon="2.31998">
        <ele>311.2</ele>
        <time>2021-03-21T10:43:46Z</time>
      </trkpt>
      <trkpt lat="42.92015" lon="2.32005">
        <ele>311.4</ele>
        <time>2021-03-21T10:43:48Z</time>
      </trkpt>
      <trkpt lat="42.92028" lon="2.32014">
        <ele>311.6</ele>
        <time>2021-03-21T10:43:50Z</time>
      </trkpt>
      <trkpt lat="42.92042" lon="2.32024">
        <ele>311.9</ele>
        <time>2021-03-21T10:43:52Z</time>
      </trkpt>
      <trkpt lat="42.92048" lon="2.32029">
        <ele>312</ele>
        <time>2021-03-21T10:43:53Z</time>
      </trkpt>
      <trkpt lat="42.92062" lon="2.32037">
        <ele>312.1</ele>
        <time>2021-03-21T10:43:55Z</time>
      </trkpt>
      <trkpt lat="42.92069" lon="2.3204">
        <ele>312.2</ele>
        <time>2021-03-21T10:43:56Z</time>
      </trkpt>
      <trkpt lat="42.92082" lon="2.32047">
        <ele>312.3</ele>
        <time>2021-03-21T10:43:58Z</time>
      </trkpt>
      <trkpt lat="42.92095" lon="2.32055">
        <ele>312.3</ele>
        <time>2021-03-21T10:44:00Z</time>
      </trkpt>
      <trkpt lat="42.92101" lon="2.32059">
        <ele>312.3</ele>
        <time>2021-03-21T10:44:01Z</time>
      </trkpt>
      <trkpt lat="42.92114" lon="2.32068">
        <ele>312.3</ele>
        <time>2021-03-21T10:44:03Z</time>
      </trkpt>
      <trkpt lat="42.92126" lon="2.32077">
        <ele>312.1</ele>
        <time>2021-03-21T10:44:05Z</time>
      </trkpt>
      <trkpt lat="42.92133" lon="2.32082">
        <ele>312</ele>
        <time>2021-03-21T10:44:06Z</time>
      </trkpt>
      <trkpt lat="42.92139" lon="2.32085">
        <ele>311.9</ele>
        <time>2021-03-21T10:44:07Z</time>
      </trkpt>
      <trkpt lat="42.92146" lon="2.32088">
        <ele>311.8</ele>
        <time>2021-03-21T10:44:08Z</time>
      </trkpt>
      <trkpt lat="42.92158" lon="2.32088">
        <ele>311.6</ele>
        <time>2021-03-21T10:44:10Z</time>
      </trkpt>
      <trkpt lat="42.92169" lon="2.32077">
        <ele>311.4</ele>
        <time>2021-03-21T10:44:12Z</time>
      </trkpt>
      <trkpt lat="42.92173" lon="2.32067">
        <ele>311.2</ele>
        <time>2021-03-21T10:44:13Z</time>
      </trkpt>
      <trkpt lat="42.92178" lon="2.32044">
        <ele>310.9</ele>
        <time>2021-03-21T10:44:15Z</time>
      </trkpt>
      <trkpt lat="42.92179" lon="2.32034">
        <ele>310.8</ele>
        <time>2021-03-21T10:44:16Z</time>
      </trkpt>
      <trkpt lat="42.92179" lon="2.32024">
        <ele>310.6</ele>
        <time>2021-03-21T10:44:17Z</time>
      </trkpt>
      <trkpt lat="42.92176" lon="2.32006">
        <ele>310.2</ele>
        <time>2021-03-21T10:44:19Z</time>
      </trkpt>
      <trkpt lat="42.92174" lon="2.3199">
        <ele>309.8</ele>
        <time>2021-03-21T10:44:21Z</time>
      </trkpt>
      <trkpt lat="42.92172" lon="2.31982">
        <ele>309.6</ele>
        <time>2021-03-21T10:44:22Z</time>
      </trkpt>
      <trkpt lat="42.92171" lon="2.31974">
        <ele>309.3</ele>
        <time>2021-03-21T10:44:23Z</time>
      </trkpt>
      <trkpt lat="42.92169" lon="2.31958">
        <ele>308.8</ele>
        <time>2021-03-21T10:44:25Z</time>
      </trkpt>
      <trkpt lat="42.92167" lon="2.3194">
        <ele>308.2</ele>
        <time>2021-03-21T10:44:27Z</time>
      </trkpt>
      <trkpt lat="42.92166" lon="2.31931">
        <ele>307.8</ele>
        <time>2021-03-21T10:44:28Z</time>
      </trkpt>
      <trkpt lat="42.92163" lon="2.31912">
        <ele>307</ele>
        <time>2021-03-21T10:44:30Z</time>
      </trkpt>
      <trkpt lat="42.92162" lon="2.31902">
        <ele>306.6</ele>
        <time>2021-03-21T10:44:31Z</time>
      </trkpt>
      <trkpt lat="42.9216" lon="2.31892">
        <ele>306.2</ele>
        <time>2021-03-21T10:44:32Z</time>
      </trkpt>
      <trkpt lat="42.92159" lon="2.31882">
        <ele>305.7</ele>
        <time>2021-03-21T10:44:33Z</time>
      </trkpt>
      <trkpt lat="42.92155" lon="2.3186">
        <ele>304.5</ele>
        <time>2021-03-21T10:44:35Z</time>
      </trkpt>
      <trkpt lat="42.92155" lon="2.31837">
        <ele>303.3</ele>
        <time>2021-03-21T10:44:37Z</time>
      </trkpt>
      <trkpt lat="42.92156" lon="2.31824">
        <ele>302.6</ele>
        <time>2021-03-21T10:44:38Z</time>
      </trkpt>
      <trkpt lat="42.92158" lon="2.31811">
        <ele>302</ele>
        <time>2021-03-21T10:44:39Z</time>
      </trkpt>
      <trkpt lat="42.92168" lon="2.31785">
        <ele>300.9</ele>
        <time>2021-03-21T10:44:41Z</time>
      </trkpt>
      <trkpt lat="42.92186" lon="2.31766">
        <ele>300.2</ele>
        <time>2021-03-21T10:44:43Z</time>
      </trkpt>
      <trkpt lat="42.92207" lon="2.31755">
        <ele>300</ele>
        <time>2021-03-21T10:44:45Z</time>
      </trkpt>
      <trkpt lat="42.92218" lon="2.31751">
        <ele>300</ele>
        <time>2021-03-21T10:44:46Z</time>
      </trkpt>
      <trkpt lat="42.9224" lon="2.31748">
        <ele>300.3</ele>
        <time>2021-03-21T10:44:48Z</time>
      </trkpt>
      <trkpt lat="42.92261" lon="2.31749">
        <ele>300.6</ele>
        <time>2021-03-21T10:44:50Z</time>
      </trkpt>
      <trkpt lat="42.92282" lon="2.31753">
        <ele>300.9</ele>
        <time>2021-03-21T10:44:52Z</time>
      </trkpt>
      <trkpt lat="42.92291" lon="2.31756">
        <ele>301</ele>
        <time>2021-03-21T10:44:53Z</time>
      </trkpt>
      <trkpt lat="42.923" lon="2.3176">
        <ele>301.1</ele>
        <time>2021-03-21T10:44:54Z</time>
      </trkpt>
      <trkpt lat="42.92315" lon="2.31767">
        <ele>301</ele>
        <time>2021-03-21T10:44:56Z</time>
      </trkpt>
      <trkpt lat="42.92324" lon="2.3177">
        <ele>300.9</ele>
        <time>2021-03-21T10:44:57Z</time>
      </trkpt>
      <trkpt lat="42.92332" lon="2.31774">
        <ele>300.7</ele>
        <time>2021-03-21T10:44:58Z</time>
      </trkpt>
      <trkpt lat="42.92349" lon="2.3178">
        <ele>300.2</ele>
        <time>2021-03-21T10:45:00Z</time>
      </trkpt>
      <trkpt lat="42.92358" lon="2.31782">
        <ele>299.9</ele>
        <time>2021-03-21T10:45:01Z</time>
      </trkpt>
      <trkpt lat="42.92376" lon="2.31785">
        <ele>299.2</ele>
        <time>2021-03-21T10:45:03Z</time>
      </trkpt>
      <trkpt lat="42.92395" lon="2.31783">
        <ele>298.5</ele>
        <time>2021-03-21T10:45:05Z</time>
      </trkpt>
      <trkpt lat="42.92413" lon="2.31774">
        <ele>297.8</ele>
        <time>2021-03-21T10:45:07Z</time>
      </trkpt>
      <trkpt lat="42.9243" lon="2.31759">
        <ele>297</ele>
        <time>2021-03-21T10:45:09Z</time>
      </trkpt>
      <trkpt lat="42.92438" lon="2.31751">
        <ele>296.6</ele>
        <time>2021-03-21T10:45:10Z</time>
      </trkpt>
      <trkpt lat="42.92452" lon="2.31733">
        <ele>295.7</ele>
        <time>2021-03-21T10:45:12Z</time>
      </trkpt>
      <trkpt lat="42.92459" lon="2.31723">
        <ele>295.2</ele>
        <time>2021-03-21T10:45:13Z</time>
      </trkpt>
      <trkpt lat="42.9247" lon="2.31701">
        <ele>294.1</ele>
        <time>2021-03-21T10:45:15Z</time>
      </trkpt>
      <trkpt lat="42.92476" lon="2.31677">
        <ele>292.9</ele>
        <time>2021-03-21T10:45:17Z</time>
      </trkpt>
      <trkpt lat="42.92479" lon="2.31651">
        <ele>291.6</ele>
        <time>2021-03-21T10:45:19Z</time>
      </trkpt>
      <trkpt lat="42.9248" lon="2.31638">
        <ele>291.1</ele>
        <time>2021-03-21T10:45:20Z</time>
      </trkpt>
      <trkpt lat="42.9248" lon="2.31624">
        <ele>290.5</ele>
        <time>2021-03-21T10:45:21Z</time>
      </trkpt>
      <trkpt lat="42.92481" lon="2.31598">
        <ele>289.7</ele>
        <time>2021-03-21T10:45:23Z</time>
      </trkpt>
      <trkpt lat="42.92482" lon="2.31584">
        <ele>289.2</ele>
        <time>2021-03-21T10:45:24Z</time>
      </trkpt>
      <trkpt lat="42.92484" lon="2.31571">
        <ele>288.8</ele>
        <time>2021-03-21T10:45:25Z</time>
      </trkpt>
      <trkpt lat="42.92489" lon="2.31545">
        <ele>288.2</ele>
        <time>2021-03-21T10:45:27Z</time>
      </trkpt>
      <trkpt lat="42.92497" lon="2.31521">
        <ele>287.8</ele>
        <time>2021-03-21T10:45:29Z</time>
      </trkpt>
      <trkpt lat="42.92508" lon="2.31498">
        <ele>287.6</ele>
        <time>2021-03-21T10:45:31Z</time>
      </trkpt>
      <trkpt lat="42.9252" lon="2.31478">
        <ele>287.5</ele>
        <time>2021-03-21T10:45:33Z</time>
      </trkpt>
      <trkpt lat="42.92536" lon="2.31462">
        <ele>287.3</ele>
        <time>2021-03-21T10:45:35Z</time>
      </trkpt>
      <trkpt lat="42.92555" lon="2.31452">
        <ele>287</ele>
        <time>2021-03-21T10:45:37Z</time>
      </trkpt>
      <trkpt lat="42.92564" lon="2.3145">
        <ele>286.9</ele>
        <time>2021-03-21T10:45:38Z</time>
      </trkpt>
      <trkpt lat="42.92574" lon="2.3145">
        <ele>286.7</ele>
        <time>2021-03-21T10:45:39Z</time>
      </trkpt>
      <trkpt lat="42.92584" lon="2.31452">
        <ele>286.5</ele>
        <time>2021-03-21T10:45:40Z</time>
      </trkpt>
      <trkpt lat="42.92603" lon="2.31458">
        <ele>286.1</ele>
        <time>2021-03-21T10:45:42Z</time>
      </trkpt>
      <trkpt lat="42.92623" lon="2.31464">
        <ele>285.6</ele>
        <time>2021-03-21T10:45:44Z</time>
      </trkpt>
      <trkpt lat="42.92632" lon="2.31468">
        <ele>285.4</ele>
        <time>2021-03-21T10:45:45Z</time>
      </trkpt>
      <trkpt lat="42.92642" lon="2.31473">
        <ele>285.2</ele>
        <time>2021-03-21T10:45:46Z</time>
      </trkpt>
      <trkpt lat="42.92651" lon="2.31479">
        <ele>285.1</ele>
        <time>2021-03-21T10:45:47Z</time>
      </trkpt>
      <trkpt lat="42.92669" lon="2.31492">
        <ele>285</ele>
        <time>2021-03-21T10:45:49Z</time>
      </trkpt>
      <trkpt lat="42.92685" lon="2.31509">
        <ele>284.7</ele>
        <time>2021-03-21T10:45:51Z</time>
      </trkpt>
      <trkpt lat="42.92691" lon="2.31518">
        <ele>284.7</ele>
        <time>2021-03-21T10:45:52Z</time>
      </trkpt>
      <trkpt lat="42.92704" lon="2.31538">
        <ele>284.5</ele>
        <time>2021-03-21T10:45:54Z</time>
      </trkpt>
      <trkpt lat="42.92709" lon="2.31548">
        <ele>284.4</ele>
        <time>2021-03-21T10:45:55Z</time>
      </trkpt>
      <trkpt lat="42.92714" lon="2.31558">
        <ele>284.3</ele>
        <time>2021-03-21T10:45:56Z</time>
      </trkpt>
      <trkpt lat="42.9272" lon="2.31568">
        <ele>284.3</ele>
        <time>2021-03-21T10:45:57Z</time>
      </trkpt>
      <trkpt lat="42.92731" lon="2.31587">
        <ele>284.1</ele>
        <time>2021-03-21T10:45:59Z</time>
      </trkpt>
      <trkpt lat="42.92737" lon="2.31596">
        <ele>284</ele>
        <time>2021-03-21T10:46:00Z</time>
      </trkpt>
      <trkpt lat="42.92751" lon="2.31612">
        <ele>284</ele>
        <time>2021-03-21T10:46:02Z</time>
      </trkpt>
      <trkpt lat="42.92759" lon="2.31618">
        <ele>284</ele>
        <time>2021-03-21T10:46:03Z</time>
      </trkpt>
      <trkpt lat="42.92775" lon="2.31624">
        <ele>284.2</ele>
        <time>2021-03-21T10:46:05Z</time>
      </trkpt>
      <trkpt lat="42.92792" lon="2.31624">
        <ele>284.3</ele>
        <time>2021-03-21T10:46:07Z</time>
      </trkpt>
      <trkpt lat="42.92808" lon="2.31621">
        <ele>284.3</ele>
        <time>2021-03-21T10:46:09Z</time>
      </trkpt>
      <trkpt lat="42.92816" lon="2.31619">
        <ele>284.2</ele>
        <time>2021-03-21T10:46:10Z</time>
      </trkpt>
      <trkpt lat="42.92824" lon="2.31617">
        <ele>284.1</ele>
        <time>2021-03-21T10:46:11Z</time>
      </trkpt>
      <trkpt lat="42.92832" lon="2.31615">
        <ele>284</ele>
        <time>2021-03-21T10:46:12Z</time>
      </trkpt>
      <trkpt lat="42.92848" lon="2.31613">
        <ele>283.9</ele>
        <time>2021-03-21T10:46:14Z</time>
      </trkpt>
      <trkpt lat="42.92856" lon="2.31612">
        <ele>283.9</ele>
        <time>2021-03-21T10:46:15Z</time>
      </trkpt>
      <trkpt lat="42.92873" lon="2.31611">
        <ele>283.9</ele>
        <time>2021-03-21T10:46:17Z</time>
      </trkpt>
      <trkpt lat="42.92881" lon="2.31611">
        <ele>283.9</ele>
        <time>2021-03-21T10:46:18Z</time>
      </trkpt>
      <trkpt lat="42.92898" lon="2.3161">
        <ele>284</ele>
        <time>2021-03-21T10:46:20Z</time>
      </trkpt>
      <trkpt lat="42.92914" lon="2.31608">
        <ele>284</ele>
        <time>2021-03-21T10:46:22Z</time>
      </trkpt>
      <trkpt lat="42.92921" lon="2.31606">
        <ele>284.1</ele>
        <time>2021-03-21T10:46:23Z</time>
      </trkpt>
      <trkpt lat="42.92936" lon="2.31603">
        <ele>284.3</ele>
        <time>2021-03-21T10:46:25Z</time>
      </trkpt>
      <trkpt lat="42.92951" lon="2.31601">
        <ele>284.6</ele>
        <time>2021-03-21T10:46:27Z</time>
      </trkpt>
      <trkpt lat="42.92966" lon="2.316">
        <ele>284.9</ele>
        <time>2021-03-21T10:46:29Z</time>
      </trkpt>
      <trkpt lat="42.92973" lon="2.31599">
        <ele>285</ele>
        <time>2021-03-21T10:46:30Z</time>
      </trkpt>
      <trkpt lat="42.92981" lon="2.31599">
        <ele>285</ele>
        <time>2021-03-21T10:46:31Z</time>
      </trkpt>
      <trkpt lat="42.92988" lon="2.31598">
        <ele>285.1</ele>
        <time>2021-03-21T10:46:32Z</time>
      </trkpt>
      <trkpt lat="42.92995" lon="2.31598">
        <ele>285.1</ele>
        <time>2021-03-21T10:46:33Z</time>
      </trkpt>
      <trkpt lat="42.93001" lon="2.31597">
        <ele>285.1</ele>
        <time>2021-03-21T10:46:34Z</time>
      </trkpt>
      <trkpt lat="42.93008" lon="2.31596">
        <ele>285.1</ele>
        <time>2021-03-21T10:46:35Z</time>
      </trkpt>
      <trkpt lat="42.93021" lon="2.31594">
        <ele>285.2</ele>
        <time>2021-03-21T10:46:37Z</time>
      </trkpt>
      <trkpt lat="42.93035" lon="2.31592">
        <ele>285.3</ele>
        <time>2021-03-21T10:46:39Z</time>
      </trkpt>
      <trkpt lat="42.93041" lon="2.31592">
        <ele>285.3</ele>
        <time>2021-03-21T10:46:40Z</time>
      </trkpt>
      <trkpt lat="42.93055" lon="2.31591">
        <ele>285.4</ele>
        <time>2021-03-21T10:46:42Z</time>
      </trkpt>
      <trkpt lat="42.93068" lon="2.31589">
        <ele>285.6</ele>
        <time>2021-03-21T10:46:44Z</time>
      </trkpt>
      <trkpt lat="42.93076" lon="2.31588">
        <ele>285.7</ele>
        <time>2021-03-21T10:46:45Z</time>
      </trkpt>
      <trkpt lat="42.93089" lon="2.31587">
        <ele>285.9</ele>
        <time>2021-03-21T10:46:47Z</time>
      </trkpt>
      <trkpt lat="42.93096" lon="2.31586">
        <ele>286</ele>
        <time>2021-03-21T10:46:48Z</time>
      </trkpt>
      <trkpt lat="42.93109" lon="2.31584">
        <ele>286.3</ele>
        <time>2021-03-21T10:46:50Z</time>
      </trkpt>
      <trkpt lat="42.93123" lon="2.31583">
        <ele>286.6</ele>
        <time>2021-03-21T10:46:52Z</time>
      </trkpt>
      <trkpt lat="42.93136" lon="2.31583">
        <ele>287</ele>
        <time>2021-03-21T10:46:54Z</time>
      </trkpt>
      <trkpt lat="42.9315" lon="2.31581">
        <ele>287.4</ele>
        <time>2021-03-21T10:46:56Z</time>
      </trkpt>
      <trkpt lat="42.93157" lon="2.31581">
        <ele>287.7</ele>
        <time>2021-03-21T10:46:57Z</time>
      </trkpt>
      <trkpt lat="42.93164" lon="2.3158">
        <ele>288</ele>
        <time>2021-03-21T10:46:58Z</time>
      </trkpt>
      <trkpt lat="42.93177" lon="2.31579">
        <ele>288.5</ele>
        <time>2021-03-21T10:47:00Z</time>
      </trkpt>
      <trkpt lat="42.9319" lon="2.3158">
        <ele>289.1</ele>
        <time>2021-03-21T10:47:02Z</time>
      </trkpt>
      <trkpt lat="42.93203" lon="2.31582">
        <ele>289.8</ele>
        <time>2021-03-21T10:47:04Z</time>
      </trkpt>
      <trkpt lat="42.93215" lon="2.31585">
        <ele>290.4</ele>
        <time>2021-03-21T10:47:06Z</time>
      </trkpt>
      <trkpt lat="42.93221" lon="2.31586">
        <ele>290.7</ele>
        <time>2021-03-21T10:47:07Z</time>
      </trkpt>
      <trkpt lat="42.93227" lon="2.31588">
        <ele>291</ele>
        <time>2021-03-21T10:47:08Z</time>
      </trkpt>
      <trkpt lat="42.93238" lon="2.31592">
        <ele>291.5</ele>
        <time>2021-03-21T10:47:10Z</time>
      </trkpt>
      <trkpt lat="42.93249" lon="2.31594">
        <ele>291.9</ele>
        <time>2021-03-21T10:47:12Z</time>
      </trkpt>
      <trkpt lat="42.93259" lon="2.31596">
        <ele>292.2</ele>
        <time>2021-03-21T10:47:14Z</time>
      </trkpt>
      <trkpt lat="42.9327" lon="2.31598">
        <ele>292.3</ele>
        <time>2021-03-21T10:47:16Z</time>
      </trkpt>
      <trkpt lat="42.93275" lon="2.31598">
        <ele>292.3</ele>
        <time>2021-03-21T10:47:17Z</time>
      </trkpt>
      <trkpt lat="42.9328" lon="2.31599">
        <ele>292.2</ele>
        <time>2021-03-21T10:47:18Z</time>
      </trkpt>
      <trkpt lat="42.93291" lon="2.316">
        <ele>291.8</ele>
        <time>2021-03-21T10:47:20Z</time>
      </trkpt>
      <trkpt lat="42.93303" lon="2.31601">
        <ele>291.3</ele>
        <time>2021-03-21T10:47:22Z</time>
      </trkpt>
      <trkpt lat="42.93316" lon="2.31602">
        <ele>290.6</ele>
        <time>2021-03-21T10:47:24Z</time>
      </trkpt>
      <trkpt lat="42.93323" lon="2.31603">
        <ele>290.3</ele>
        <time>2021-03-21T10:47:25Z</time>
      </trkpt>
      <trkpt lat="42.93339" lon="2.31605">
        <ele>289.5</ele>
        <time>2021-03-21T10:47:27Z</time>
      </trkpt>
      <trkpt lat="42.93355" lon="2.31606">
        <ele>288.7</ele>
        <time>2021-03-21T10:47:29Z</time>
      </trkpt>
      <trkpt lat="42.93363" lon="2.31607">
        <ele>288.3</ele>
        <time>2021-03-21T10:47:30Z</time>
      </trkpt>
      <trkpt lat="42.93371" lon="2.31607">
        <ele>287.9</ele>
        <time>2021-03-21T10:47:31Z</time>
      </trkpt>
      <trkpt lat="42.93388" lon="2.31607">
        <ele>286.9</ele>
        <time>2021-03-21T10:47:33Z</time>
      </trkpt>
      <trkpt lat="42.93396" lon="2.31607">
        <ele>286.3</ele>
        <time>2021-03-21T10:47:34Z</time>
      </trkpt>
      <trkpt lat="42.93412" lon="2.31605">
        <ele>285.2</ele>
        <time>2021-03-21T10:47:36Z</time>
      </trkpt>
      <trkpt lat="42.93429" lon="2.31603">
        <ele>284</ele>
        <time>2021-03-21T10:47:38Z</time>
      </trkpt>
      <trkpt lat="42.93437" lon="2.31602">
        <ele>283.4</ele>
        <time>2021-03-21T10:47:39Z</time>
      </trkpt>
      <trkpt lat="42.93453" lon="2.31601">
        <ele>282.2</ele>
        <time>2021-03-21T10:47:41Z</time>
      </trkpt>
      <trkpt lat="42.9346" lon="2.316">
        <ele>281.6</ele>
        <time>2021-03-21T10:47:42Z</time>
      </trkpt>
      <trkpt lat="42.93475" lon="2.31597">
        <ele>280.6</ele>
        <time>2021-03-21T10:47:44Z</time>
      </trkpt>
      <trkpt lat="42.93483" lon="2.31596">
        <ele>280</ele>
        <time>2021-03-21T10:47:45Z</time>
      </trkpt>
      <trkpt lat="42.93499" lon="2.31593">
        <ele>279.2</ele>
        <time>2021-03-21T10:47:47Z</time>
      </trkpt>
      <trkpt lat="42.93515" lon="2.31591">
        <ele>278.7</ele>
        <time>2021-03-21T10:47:49Z</time>
      </trkpt>
      <trkpt lat="42.93523" lon="2.31591">
        <ele>278.6</ele>
        <time>2021-03-21T10:47:50Z</time>
      </trkpt>
      <trkpt lat="42.93538" lon="2.31592">
        <ele>278.5</ele>
        <time>2021-03-21T10:47:52Z</time>
      </trkpt>
      <trkpt lat="42.93553" lon="2.31593">
        <ele>278.4</ele>
        <time>2021-03-21T10:47:54Z</time>
      </trkpt>
      <trkpt lat="42.93568" lon="2.31593">
        <ele>278.3</ele>
        <time>2021-03-21T10:47:56Z</time>
      </trkpt>
      <trkpt lat="42.93575" lon="2.31591">
        <ele>278.2</ele>
        <time>2021-03-21T10:47:57Z</time>
      </trkpt>
      <trkpt lat="42.93583" lon="2.31588">
        <ele>278.1</ele>
        <time>2021-03-21T10:47:58Z</time>
      </trkpt>
      <trkpt lat="42.93598" lon="2.31581">
        <ele>277.9</ele>
        <time>2021-03-21T10:48:00Z</time>
      </trkpt>
      <trkpt lat="42.93605" lon="2.31578">
        <ele>277.7</ele>
        <time>2021-03-21T10:48:01Z</time>
      </trkpt>
      <trkpt lat="42.93613" lon="2.31574">
        <ele>277.6</ele>
        <time>2021-03-21T10:48:02Z</time>
      </trkpt>
      <trkpt lat="42.9362" lon="2.31572">
        <ele>277.4</ele>
        <time>2021-03-21T10:48:03Z</time>
      </trkpt>
      <trkpt lat="42.93635" lon="2.31569">
        <ele>277.1</ele>
        <time>2021-03-21T10:48:05Z</time>
      </trkpt>
      <trkpt lat="42.93642" lon="2.31569">
        <ele>276.9</ele>
        <time>2021-03-21T10:48:06Z</time>
      </trkpt>
      <trkpt lat="42.93658" lon="2.31574">
        <ele>276.4</ele>
        <time>2021-03-21T10:48:08Z</time>
      </trkpt>
      <trkpt lat="42.93672" lon="2.31581">
        <ele>276</ele>
        <time>2021-03-21T10:48:10Z</time>
      </trkpt>
      <trkpt lat="42.93686" lon="2.31589">
        <ele>275.6</ele>
        <time>2021-03-21T10:48:12Z</time>
      </trkpt>
      <trkpt lat="42.937" lon="2.31597">
        <ele>275.2</ele>
        <time>2021-03-21T10:48:14Z</time>
      </trkpt>
      <trkpt lat="42.93713" lon="2.31605">
        <ele>275</ele>
        <time>2021-03-21T10:48:16Z</time>
      </trkpt>
      <trkpt lat="42.93727" lon="2.31612">
        <ele>274.7</ele>
        <time>2021-03-21T10:48:18Z</time>
      </trkpt>
      <trkpt lat="42.93734" lon="2.31615">
        <ele>274.5</ele>
        <time>2021-03-21T10:48:19Z</time>
      </trkpt>
      <trkpt lat="42.93747" lon="2.31621">
        <ele>274.2</ele>
        <time>2021-03-21T10:48:21Z</time>
      </trkpt>
      <trkpt lat="42.93759" lon="2.31627">
        <ele>273.8</ele>
        <time>2021-03-21T10:48:23Z</time>
      </trkpt>
      <trkpt lat="42.93765" lon="2.3163">
        <ele>273.7</ele>
        <time>2021-03-21T10:48:24Z</time>
      </trkpt>
      <trkpt lat="42.93772" lon="2.31633">
        <ele>273.4</ele>
        <time>2021-03-21T10:48:25Z</time>
      </trkpt>
      <trkpt lat="42.93786" lon="2.31639">
        <ele>273</ele>
        <time>2021-03-21T10:48:27Z</time>
      </trkpt>
      <trkpt lat="42.93794" lon="2.31643">
        <ele>272.8</ele>
        <time>2021-03-21T10:48:28Z</time>
      </trkpt>
      <trkpt lat="42.93803" lon="2.31645">
        <ele>272.6</ele>
        <time>2021-03-21T10:48:29Z</time>
      </trkpt>
      <trkpt lat="42.9382" lon="2.31649">
        <ele>272.2</ele>
        <time>2021-03-21T10:48:31Z</time>
      </trkpt>
      <trkpt lat="42.93829" lon="2.31649">
        <ele>272</ele>
        <time>2021-03-21T10:48:32Z</time>
      </trkpt>
      <trkpt lat="42.93846" lon="2.31648">
        <ele>271.6</ele>
        <time>2021-03-21T10:48:34Z</time>
      </trkpt>
      <trkpt lat="42.93854" lon="2.31647">
        <ele>271.4</ele>
        <time>2021-03-21T10:48:35Z</time>
      </trkpt>
      <trkpt lat="42.9387" lon="2.31643">
        <ele>271</ele>
        <time>2021-03-21T10:48:37Z</time>
      </trkpt>
      <trkpt lat="42.93879" lon="2.31641">
        <ele>270.8</ele>
        <time>2021-03-21T10:48:38Z</time>
      </trkpt>
      <trkpt lat="42.93895" lon="2.31637">
        <ele>270.4</ele>
        <time>2021-03-21T10:48:40Z</time>
      </trkpt>
      <trkpt lat="42.93903" lon="2.31635">
        <ele>270.2</ele>
        <time>2021-03-21T10:48:41Z</time>
      </trkpt>
      <trkpt lat="42.93911" lon="2.31633">
        <ele>270</ele>
        <time>2021-03-21T10:48:42Z</time>
      </trkpt>
      <trkpt lat="42.93919" lon="2.31631">
        <ele>269.8</ele>
        <time>2021-03-21T10:48:43Z</time>
      </trkpt>
      <trkpt lat="42.93935" lon="2.31627">
        <ele>269.4</ele>
        <time>2021-03-21T10:48:45Z</time>
      </trkpt>
      <trkpt lat="42.93951" lon="2.31623">
        <ele>269</ele>
        <time>2021-03-21T10:48:47Z</time>
      </trkpt>
      <trkpt lat="42.9396" lon="2.31621">
        <ele>268.9</ele>
        <time>2021-03-21T10:48:48Z</time>
      </trkpt>
      <trkpt lat="42.93976" lon="2.31616">
        <ele>268.6</ele>
        <time>2021-03-21T10:48:50Z</time>
      </trkpt>
      <trkpt lat="42.93992" lon="2.31611">
        <ele>268.3</ele>
        <time>2021-03-21T10:48:52Z</time>
      </trkpt>
      <trkpt lat="42.94008" lon="2.31606">
        <ele>268</ele>
        <time>2021-03-21T10:48:54Z</time>
      </trkpt>
      <trkpt lat="42.94016" lon="2.31603">
        <ele>267.9</ele>
        <time>2021-03-21T10:48:55Z</time>
      </trkpt>
      <trkpt lat="42.94023" lon="2.31599">
        <ele>267.8</ele>
        <time>2021-03-21T10:48:56Z</time>
      </trkpt>
      <trkpt lat="42.94029" lon="2.31595">
        <ele>267.7</ele>
        <time>2021-03-21T10:48:57Z</time>
      </trkpt>
      <trkpt lat="42.94036" lon="2.3159">
        <ele>267.6</ele>
        <time>2021-03-21T10:48:58Z</time>
      </trkpt>
      <trkpt lat="42.94049" lon="2.31579">
        <ele>267.4</ele>
        <time>2021-03-21T10:49:00Z</time>
      </trkpt>
      <trkpt lat="42.94056" lon="2.31573">
        <ele>267.3</ele>
        <time>2021-03-21T10:49:01Z</time>
      </trkpt>
      <trkpt lat="42.94069" lon="2.31559">
        <ele>267</ele>
        <time>2021-03-21T10:49:03Z</time>
      </trkpt>
      <trkpt lat="42.94081" lon="2.31544">
        <ele>266.9</ele>
        <time>2021-03-21T10:49:05Z</time>
      </trkpt>
      <trkpt lat="42.94092" lon="2.31527">
        <ele>266.7</ele>
        <time>2021-03-21T10:49:07Z</time>
      </trkpt>
      <trkpt lat="42.94097" lon="2.31519">
        <ele>266.6</ele>
        <time>2021-03-21T10:49:08Z</time>
      </trkpt>
      <trkpt lat="42.94109" lon="2.31505">
        <ele>266.6</ele>
        <time>2021-03-21T10:49:10Z</time>
      </trkpt>
      <trkpt lat="42.94116" lon="2.31501">
        <ele>266.6</ele>
        <time>2021-03-21T10:49:11Z</time>
      </trkpt>
      <trkpt lat="42.9413" lon="2.31496">
        <ele>266.5</ele>
        <time>2021-03-21T10:49:13Z</time>
      </trkpt>
      <trkpt lat="42.94143" lon="2.31498">
        <ele>266.3</ele>
        <time>2021-03-21T10:49:15Z</time>
      </trkpt>
      <trkpt lat="42.94149" lon="2.31503">
        <ele>266.3</ele>
        <time>2021-03-21T10:49:16Z</time>
      </trkpt>
      <trkpt lat="42.94157" lon="2.31519">
        <ele>266.5</ele>
        <time>2021-03-21T10:49:18Z</time>
      </trkpt>
      <trkpt lat="42.94158" lon="2.31539">
        <ele>266.7</ele>
        <time>2021-03-21T10:49:20Z</time>
      </trkpt>
      <trkpt lat="42.94158" lon="2.3156">
        <ele>266.9</ele>
        <time>2021-03-21T10:49:22Z</time>
      </trkpt>
      <trkpt lat="42.94158" lon="2.31571">
        <ele>266.9</ele>
        <time>2021-03-21T10:49:23Z</time>
      </trkpt>
      <trkpt lat="42.94162" lon="2.31592">
        <ele>266.9</ele>
        <time>2021-03-21T10:49:25Z</time>
      </trkpt>
      <trkpt lat="42.94164" lon="2.31602">
        <ele>266.9</ele>
        <time>2021-03-21T10:49:26Z</time>
      </trkpt>
      <trkpt lat="42.9417" lon="2.31622">
        <ele>266.9</ele>
        <time>2021-03-21T10:49:28Z</time>
      </trkpt>
      <trkpt lat="42.94176" lon="2.31641">
        <ele>266.8</ele>
        <time>2021-03-21T10:49:30Z</time>
      </trkpt>
      <trkpt lat="42.94179" lon="2.3165">
        <ele>266.8</ele>
        <time>2021-03-21T10:49:31Z</time>
      </trkpt>
      <trkpt lat="42.94186" lon="2.31668">
        <ele>266.8</ele>
        <time>2021-03-21T10:49:33Z</time>
      </trkpt>
      <trkpt lat="42.94189" lon="2.31676">
        <ele>266.8</ele>
        <time>2021-03-21T10:49:34Z</time>
      </trkpt>
      <trkpt lat="42.94197" lon="2.31692">
        <ele>266.7</ele>
        <time>2021-03-21T10:49:36Z</time>
      </trkpt>
      <trkpt lat="42.94202" lon="2.317">
        <ele>266.7</ele>
        <time>2021-03-21T10:49:37Z</time>
      </trkpt>
      <trkpt lat="42.94211" lon="2.31716">
        <ele>266.6</ele>
        <time>2021-03-21T10:49:39Z</time>
      </trkpt>
      <trkpt lat="42.9422" lon="2.31731">
        <ele>266.6</ele>
        <time>2021-03-21T10:49:41Z</time>
      </trkpt>
      <trkpt lat="42.94225" lon="2.31737">
        <ele>266.6</ele>
        <time>2021-03-21T10:49:42Z</time>
      </trkpt>
      <trkpt lat="42.9423" lon="2.31744">
        <ele>266.6</ele>
        <time>2021-03-21T10:49:43Z</time>
      </trkpt>
      <trkpt lat="42.94243" lon="2.31754">
        <ele>266.6</ele>
        <time>2021-03-21T10:49:45Z</time>
      </trkpt>
      <trkpt lat="42.94257" lon="2.31761">
        <ele>266.6</ele>
        <time>2021-03-21T10:49:47Z</time>
      </trkpt>
      <trkpt lat="42.94272" lon="2.31764">
        <ele>266.6</ele>
        <time>2021-03-21T10:49:49Z</time>
      </trkpt>
      <trkpt lat="42.94286" lon="2.31765">
        <ele>266.7</ele>
        <time>2021-03-21T10:49:51Z</time>
      </trkpt>
      <trkpt lat="42.94299" lon="2.31763">
        <ele>266.8</ele>
        <time>2021-03-21T10:49:53Z</time>
      </trkpt>
      <trkpt lat="42.94312" lon="2.31765">
        <ele>266.9</ele>
        <time>2021-03-21T10:49:55Z</time>
      </trkpt>
      <trkpt lat="42.94318" lon="2.31767">
        <ele>267</ele>
        <time>2021-03-21T10:49:56Z</time>
      </trkpt>
      <trkpt lat="42.94325" lon="2.3177">
        <ele>267.1</ele>
        <time>2021-03-21T10:49:57Z</time>
      </trkpt>
      <trkpt lat="42.94331" lon="2.31773">
        <ele>267.2</ele>
        <time>2021-03-21T10:49:58Z</time>
      </trkpt>
      <trkpt lat="42.94343" lon="2.31779">
        <ele>267.3</ele>
        <time>2021-03-21T10:50:00Z</time>
      </trkpt>
      <trkpt lat="42.9435" lon="2.31782">
        <ele>267.5</ele>
        <time>2021-03-21T10:50:01Z</time>
      </trkpt>
      <trkpt lat="42.94362" lon="2.31787">
        <ele>267.7</ele>
        <time>2021-03-21T10:50:03Z</time>
      </trkpt>
      <trkpt lat="42.94368" lon="2.3179">
        <ele>267.8</ele>
        <time>2021-03-21T10:50:04Z</time>
      </trkpt>
      <trkpt lat="42.94381" lon="2.31796">
        <ele>268</ele>
        <time>2021-03-21T10:50:06Z</time>
      </trkpt>
      <trkpt lat="42.94387" lon="2.31799">
        <ele>268.1</ele>
        <time>2021-03-21T10:50:07Z</time>
      </trkpt>
      <trkpt lat="42.94393" lon="2.31803">
        <ele>268.2</ele>
        <time>2021-03-21T10:50:08Z</time>
      </trkpt>
      <trkpt lat="42.94404" lon="2.31814">
        <ele>268.4</ele>
        <time>2021-03-21T10:50:10Z</time>
      </trkpt>
      <trkpt lat="42.94413" lon="2.31828">
        <ele>268.6</ele>
        <time>2021-03-21T10:50:12Z</time>
      </trkpt>
      <trkpt lat="42.9442" lon="2.31843">
        <ele>268.7</ele>
        <time>2021-03-21T10:50:14Z</time>
      </trkpt>
      <trkpt lat="42.94424" lon="2.31851">
        <ele>268.8</ele>
        <time>2021-03-21T10:50:15Z</time>
      </trkpt>
      <trkpt lat="42.94427" lon="2.31859">
        <ele>268.8</ele>
        <time>2021-03-21T10:50:16Z</time>
      </trkpt>
      <trkpt lat="42.94434" lon="2.31875">
        <ele>269</ele>
        <time>2021-03-21T10:50:18Z</time>
      </trkpt>
      <trkpt lat="42.94438" lon="2.31882">
        <ele>269</ele>
        <time>2021-03-21T10:50:19Z</time>
      </trkpt>
      <trkpt lat="42.94445" lon="2.31898">
        <ele>269.2</ele>
        <time>2021-03-21T10:50:21Z</time>
      </trkpt>
      <trkpt lat="42.94449" lon="2.31906">
        <ele>269.3</ele>
        <time>2021-03-21T10:50:22Z</time>
      </trkpt>
      <trkpt lat="42.94457" lon="2.31921">
        <ele>269.5</ele>
        <time>2021-03-21T10:50:24Z</time>
      </trkpt>
      <trkpt lat="42.94465" lon="2.31936">
        <ele>269.6</ele>
        <time>2021-03-21T10:50:26Z</time>
      </trkpt>
      <trkpt lat="42.94471" lon="2.31951">
        <ele>269.8</ele>
        <time>2021-03-21T10:50:28Z</time>
      </trkpt>
      <trkpt lat="42.94478" lon="2.31967">
        <ele>269.9</ele>
        <time>2021-03-21T10:50:30Z</time>
      </trkpt>
      <trkpt lat="42.94482" lon="2.31975">
        <ele>270</ele>
        <time>2021-03-21T10:50:31Z</time>
      </trkpt>
      <trkpt lat="42.94489" lon="2.3199">
        <ele>270.2</ele>
        <time>2021-03-21T10:50:33Z</time>
      </trkpt>
      <trkpt lat="42.94493" lon="2.31997">
        <ele>270.3</ele>
        <time>2021-03-21T10:50:34Z</time>
      </trkpt>
      <trkpt lat="42.94497" lon="2.32005">
        <ele>270.3</ele>
        <time>2021-03-21T10:50:35Z</time>
      </trkpt>
      <trkpt lat="42.94504" lon="2.3202">
        <ele>270.5</ele>
        <time>2021-03-21T10:50:37Z</time>
      </trkpt>
      <trkpt lat="42.94512" lon="2.32035">
        <ele>270.6</ele>
        <time>2021-03-21T10:50:39Z</time>
      </trkpt>
      <trkpt lat="42.9452" lon="2.3205">
        <ele>270.8</ele>
        <time>2021-03-21T10:50:41Z</time>
      </trkpt>
      <trkpt lat="42.94524" lon="2.32058">
        <ele>270.9</ele>
        <time>2021-03-21T10:50:42Z</time>
      </trkpt>
      <trkpt lat="42.94532" lon="2.32073">
        <ele>271</ele>
        <time>2021-03-21T10:50:44Z</time>
      </trkpt>
      <trkpt lat="42.94539" lon="2.32088">
        <ele>271.2</ele>
        <time>2021-03-21T10:50:46Z</time>
      </trkpt>
      <trkpt lat="42.94547" lon="2.32103">
        <ele>271.3</ele>
        <time>2021-03-21T10:50:48Z</time>
      </trkpt>
      <trkpt lat="42.94551" lon="2.3211">
        <ele>271.4</ele>
        <time>2021-03-21T10:50:49Z</time>
      </trkpt>
      <trkpt lat="42.94555" lon="2.32118">
        <ele>271.5</ele>
        <time>2021-03-21T10:50:50Z</time>
      </trkpt>
      <trkpt lat="42.94563" lon="2.32134">
        <ele>271.7</ele>
        <time>2021-03-21T10:50:52Z</time>
      </trkpt>
      <trkpt lat="42.94567" lon="2.32142">
        <ele>271.8</ele>
        <time>2021-03-21T10:50:53Z</time>
      </trkpt>
      <trkpt lat="42.94574" lon="2.32158">
        <ele>272</ele>
        <time>2021-03-21T10:50:55Z</time>
      </trkpt>
      <trkpt lat="42.94581" lon="2.32175">
        <ele>272.2</ele>
        <time>2021-03-21T10:50:57Z</time>
      </trkpt>
      <trkpt lat="42.94584" lon="2.32184">
        <ele>272.2</ele>
        <time>2021-03-21T10:50:58Z</time>
      </trkpt>
      <trkpt lat="42.94591" lon="2.322">
        <ele>272.4</ele>
        <time>2021-03-21T10:51:00Z</time>
      </trkpt>
      <trkpt lat="42.94594" lon="2.32208">
        <ele>272.5</ele>
        <time>2021-03-21T10:51:01Z</time>
      </trkpt>
      <trkpt lat="42.94597" lon="2.32217">
        <ele>272.6</ele>
        <time>2021-03-21T10:51:02Z</time>
      </trkpt>
      <trkpt lat="42.94602" lon="2.32234">
        <ele>272.9</ele>
        <time>2021-03-21T10:51:04Z</time>
      </trkpt>
      <trkpt lat="42.94604" lon="2.32243">
        <ele>273</ele>
        <time>2021-03-21T10:51:05Z</time>
      </trkpt>
      <trkpt lat="42.94606" lon="2.32251">
        <ele>273.1</ele>
        <time>2021-03-21T10:51:06Z</time>
      </trkpt>
      <trkpt lat="42.94611" lon="2.32268">
        <ele>273.2</ele>
        <time>2021-03-21T10:51:08Z</time>
      </trkpt>
      <trkpt lat="42.94615" lon="2.32284">
        <ele>273.3</ele>
        <time>2021-03-21T10:51:10Z</time>
      </trkpt>
      <trkpt lat="42.94619" lon="2.32301">
        <ele>273.3</ele>
        <time>2021-03-21T10:51:12Z</time>
      </trkpt>
      <trkpt lat="42.94621" lon="2.3231">
        <ele>273.4</ele>
        <time>2021-03-21T10:51:13Z</time>
      </trkpt>
      <trkpt lat="42.94624" lon="2.32329">
        <ele>273.4</ele>
        <time>2021-03-21T10:51:15Z</time>
      </trkpt>
      <trkpt lat="42.94626" lon="2.32338">
        <ele>273.5</ele>
        <time>2021-03-21T10:51:16Z</time>
      </trkpt>
      <trkpt lat="42.94627" lon="2.32348">
        <ele>273.5</ele>
        <time>2021-03-21T10:51:17Z</time>
      </trkpt>
      <trkpt lat="42.94628" lon="2.32368">
        <ele>273.6</ele>
        <time>2021-03-21T10:51:19Z</time>
      </trkpt>
      <trkpt lat="42.94629" lon="2.32378">
        <ele>273.6</ele>
        <time>2021-03-21T10:51:20Z</time>
      </trkpt>
      <trkpt lat="42.94632" lon="2.32398">
        <ele>273.7</ele>
        <time>2021-03-21T10:51:22Z</time>
      </trkpt>
      <trkpt lat="42.94634" lon="2.32415">
        <ele>273.8</ele>
        <time>2021-03-21T10:51:24Z</time>
      </trkpt>
      <trkpt lat="42.94635" lon="2.32424">
        <ele>273.8</ele>
        <time>2021-03-21T10:51:25Z</time>
      </trkpt>
      <trkpt lat="42.94636" lon="2.32432">
        <ele>273.8</ele>
        <time>2021-03-21T10:51:26Z</time>
      </trkpt>
      <trkpt lat="42.94638" lon="2.3245">
        <ele>273.8</ele>
        <time>2021-03-21T10:51:28Z</time>
      </trkpt>
      <trkpt lat="42.94639" lon="2.3246">
        <ele>273.8</ele>
        <time>2021-03-21T10:51:29Z</time>
      </trkpt>
      <trkpt lat="42.94639" lon="2.32469">
        <ele>273.8</ele>
        <time>2021-03-21T10:51:30Z</time>
      </trkpt>
      <trkpt lat="42.94639" lon="2.32479">
        <ele>273.8</ele>
        <time>2021-03-21T10:51:31Z</time>
      </trkpt>
      <trkpt lat="42.9464" lon="2.32498">
        <ele>273.9</ele>
        <time>2021-03-21T10:51:33Z</time>
      </trkpt>
      <trkpt lat="42.9464" lon="2.32508">
        <ele>273.9</ele>
        <time>2021-03-21T10:51:34Z</time>
      </trkpt>
      <trkpt lat="42.9464" lon="2.32526">
        <ele>273.9</ele>
        <time>2021-03-21T10:51:36Z</time>
      </trkpt>
      <trkpt lat="42.94641" lon="2.32535">
        <ele>274</ele>
        <time>2021-03-21T10:51:37Z</time>
      </trkpt>
      <trkpt lat="42.94641" lon="2.32545">
        <ele>274</ele>
        <time>2021-03-21T10:51:38Z</time>
      </trkpt>
      <trkpt lat="42.94641" lon="2.32555">
        <ele>274.1</ele>
        <time>2021-03-21T10:51:39Z</time>
      </trkpt>
      <trkpt lat="42.9464" lon="2.32566">
        <ele>274.2</ele>
        <time>2021-03-21T10:51:40Z</time>
      </trkpt>
      <trkpt lat="42.9464" lon="2.32587">
        <ele>274.4</ele>
        <time>2021-03-21T10:51:42Z</time>
      </trkpt>
      <trkpt lat="42.94639" lon="2.32607">
        <ele>274.5</ele>
        <time>2021-03-21T10:51:44Z</time>
      </trkpt>
      <trkpt lat="42.94638" lon="2.32617">
        <ele>274.7</ele>
        <time>2021-03-21T10:51:45Z</time>
      </trkpt>
      <trkpt lat="42.94638" lon="2.32627">
        <ele>274.8</ele>
        <time>2021-03-21T10:51:46Z</time>
      </trkpt>
      <trkpt lat="42.94637" lon="2.32647">
        <ele>275</ele>
        <time>2021-03-21T10:51:48Z</time>
      </trkpt>
      <trkpt lat="42.94637" lon="2.32657">
        <ele>275.1</ele>
        <time>2021-03-21T10:51:49Z</time>
      </trkpt>
      <trkpt lat="42.94636" lon="2.32678">
        <ele>275.3</ele>
        <time>2021-03-21T10:51:51Z</time>
      </trkpt>
      <trkpt lat="42.94635" lon="2.32698">
        <ele>275.4</ele>
        <time>2021-03-21T10:51:53Z</time>
      </trkpt>
      <trkpt lat="42.94634" lon="2.3272">
        <ele>275.7</ele>
        <time>2021-03-21T10:51:55Z</time>
      </trkpt>
      <trkpt lat="42.94634" lon="2.3274">
        <ele>275.9</ele>
        <time>2021-03-21T10:51:57Z</time>
      </trkpt>
      <trkpt lat="42.94633" lon="2.32761">
        <ele>276.1</ele>
        <time>2021-03-21T10:51:59Z</time>
      </trkpt>
      <trkpt lat="42.94632" lon="2.3278">
        <ele>276.3</ele>
        <time>2021-03-21T10:52:01Z</time>
      </trkpt>
      <trkpt lat="42.94632" lon="2.3279">
        <ele>276.4</ele>
        <time>2021-03-21T10:52:02Z</time>
      </trkpt>
      <trkpt lat="42.94631" lon="2.3281">
        <ele>276.6</ele>
        <time>2021-03-21T10:52:04Z</time>
      </trkpt>
      <trkpt lat="42.9463" lon="2.3283">
        <ele>276.7</ele>
        <time>2021-03-21T10:52:06Z</time>
      </trkpt>
      <trkpt lat="42.94628" lon="2.3285">
        <ele>276.9</ele>
        <time>2021-03-21T10:52:08Z</time>
      </trkpt>
      <trkpt lat="42.94627" lon="2.3287">
        <ele>277</ele>
        <time>2021-03-21T10:52:10Z</time>
      </trkpt>
      <trkpt lat="42.94627" lon="2.3288">
        <ele>277</ele>
        <time>2021-03-21T10:52:11Z</time>
      </trkpt>
      <trkpt lat="42.94628" lon="2.32901">
        <ele>277.2</ele>
        <time>2021-03-21T10:52:13Z</time>
      </trkpt>
      <trkpt lat="42.94631" lon="2.32922">
        <ele>277.4</ele>
        <time>2021-03-21T10:52:15Z</time>
      </trkpt>
      <trkpt lat="42.94636" lon="2.32944">
        <ele>277.6</ele>
        <time>2021-03-21T10:52:17Z</time>
      </trkpt>
      <trkpt lat="42.94639" lon="2.32955">
        <ele>277.7</ele>
        <time>2021-03-21T10:52:18Z</time>
      </trkpt>
      <trkpt lat="42.94644" lon="2.32977">
        <ele>277.9</ele>
        <time>2021-03-21T10:52:20Z</time>
      </trkpt>
      <trkpt lat="42.94647" lon="2.32988">
        <ele>278</ele>
        <time>2021-03-21T10:52:21Z</time>
      </trkpt>
      <trkpt lat="42.94652" lon="2.33011">
        <ele>278.1</ele>
        <time>2021-03-21T10:52:23Z</time>
      </trkpt>
      <trkpt lat="42.94656" lon="2.33032">
        <ele>278.3</ele>
        <time>2021-03-21T10:52:25Z</time>
      </trkpt>
      <trkpt lat="42.94658" lon="2.33043">
        <ele>278.4</ele>
        <time>2021-03-21T10:52:26Z</time>
      </trkpt>
      <trkpt lat="42.94662" lon="2.33065">
        <ele>278.5</ele>
        <time>2021-03-21T10:52:28Z</time>
      </trkpt>
      <trkpt lat="42.94667" lon="2.33086">
        <ele>278.7</ele>
        <time>2021-03-21T10:52:30Z</time>
      </trkpt>
      <trkpt lat="42.94669" lon="2.33097">
        <ele>278.8</ele>
        <time>2021-03-21T10:52:31Z</time>
      </trkpt>
      <trkpt lat="42.94674" lon="2.33118">
        <ele>278.9</ele>
        <time>2021-03-21T10:52:33Z</time>
      </trkpt>
      <trkpt lat="42.9468" lon="2.33138">
        <ele>279</ele>
        <time>2021-03-21T10:52:35Z</time>
      </trkpt>
      <trkpt lat="42.94689" lon="2.33157">
        <ele>279.1</ele>
        <time>2021-03-21T10:52:37Z</time>
      </trkpt>
      <trkpt lat="42.94693" lon="2.33167">
        <ele>279.1</ele>
        <time>2021-03-21T10:52:38Z</time>
      </trkpt>
      <trkpt lat="42.94704" lon="2.33185">
        <ele>279.3</ele>
        <time>2021-03-21T10:52:40Z</time>
      </trkpt>
      <trkpt lat="42.94715" lon="2.33202">
        <ele>279.4</ele>
        <time>2021-03-21T10:52:42Z</time>
      </trkpt>
      <trkpt lat="42.9472" lon="2.3321">
        <ele>279.5</ele>
        <time>2021-03-21T10:52:43Z</time>
      </trkpt>
      <trkpt lat="42.94731" lon="2.33226">
        <ele>279.6</ele>
        <time>2021-03-21T10:52:45Z</time>
      </trkpt>
      <trkpt lat="42.94736" lon="2.33235">
        <ele>279.7</ele>
        <time>2021-03-21T10:52:46Z</time>
      </trkpt>
      <trkpt lat="42.94741" lon="2.33243">
        <ele>279.7</ele>
        <time>2021-03-21T10:52:47Z</time>
      </trkpt>
      <trkpt lat="42.94752" lon="2.33259">
        <ele>279.9</ele>
        <time>2021-03-21T10:52:49Z</time>
      </trkpt>
      <trkpt lat="42.94763" lon="2.33276">
        <ele>280.1</ele>
        <time>2021-03-21T10:52:51Z</time>
      </trkpt>
      <trkpt lat="42.94774" lon="2.33293">
        <ele>280.3</ele>
        <time>2021-03-21T10:52:53Z</time>
      </trkpt>
      <trkpt lat="42.94785" lon="2.3331">
        <ele>280.4</ele>
        <time>2021-03-21T10:52:55Z</time>
      </trkpt>
      <trkpt lat="42.94791" lon="2.33318">
        <ele>280.5</ele>
        <time>2021-03-21T10:52:56Z</time>
      </trkpt>
      <trkpt lat="42.948" lon="2.33334">
        <ele>280.6</ele>
        <time>2021-03-21T10:52:58Z</time>
      </trkpt>
      <trkpt lat="42.94805" lon="2.33342">
        <ele>280.7</ele>
        <time>2021-03-21T10:52:59Z</time>
      </trkpt>
      <trkpt lat="42.94815" lon="2.33357">
        <ele>280.8</ele>
        <time>2021-03-21T10:53:01Z</time>
      </trkpt>
      <trkpt lat="42.94824" lon="2.33371">
        <ele>281</ele>
        <time>2021-03-21T10:53:03Z</time>
      </trkpt>
      <trkpt lat="42.94833" lon="2.33385">
        <ele>281.1</ele>
        <time>2021-03-21T10:53:05Z</time>
      </trkpt>
      <trkpt lat="42.94838" lon="2.33391">
        <ele>281.2</ele>
        <time>2021-03-21T10:53:06Z</time>
      </trkpt>
      <trkpt lat="42.94843" lon="2.33398">
        <ele>281.3</ele>
        <time>2021-03-21T10:53:07Z</time>
      </trkpt>
      <trkpt lat="42.94853" lon="2.33411">
        <ele>281.5</ele>
        <time>2021-03-21T10:53:09Z</time>
      </trkpt>
      <trkpt lat="42.94861" lon="2.33425">
        <ele>281.7</ele>
        <time>2021-03-21T10:53:11Z</time>
      </trkpt>
      <trkpt lat="42.94866" lon="2.33433">
        <ele>281.8</ele>
        <time>2021-03-21T10:53:12Z</time>
      </trkpt>
      <trkpt lat="42.94876" lon="2.33447">
        <ele>282</ele>
        <time>2021-03-21T10:53:14Z</time>
      </trkpt>
      <trkpt lat="42.94884" lon="2.33461">
        <ele>282.2</ele>
        <time>2021-03-21T10:53:16Z</time>
      </trkpt>
      <trkpt lat="42.94889" lon="2.33467">
        <ele>282.4</ele>
        <time>2021-03-21T10:53:17Z</time>
      </trkpt>
      <trkpt lat="42.94894" lon="2.33473">
        <ele>282.6</ele>
        <time>2021-03-21T10:53:18Z</time>
      </trkpt>
      <trkpt lat="42.94904" lon="2.33482">
        <ele>282.9</ele>
        <time>2021-03-21T10:53:20Z</time>
      </trkpt>
      <trkpt lat="42.94909" lon="2.33487">
        <ele>283.1</ele>
        <time>2021-03-21T10:53:21Z</time>
      </trkpt>
      <trkpt lat="42.94921" lon="2.33494">
        <ele>283.5</ele>
        <time>2021-03-21T10:53:23Z</time>
      </trkpt>
      <trkpt lat="42.94933" lon="2.33499">
        <ele>283.9</ele>
        <time>2021-03-21T10:53:25Z</time>
      </trkpt>
      <trkpt lat="42.94939" lon="2.33502">
        <ele>284.1</ele>
        <time>2021-03-21T10:53:26Z</time>
      </trkpt>
      <trkpt lat="42.94951" lon="2.33508">
        <ele>284.4</ele>
        <time>2021-03-21T10:53:28Z</time>
      </trkpt>
      <trkpt lat="42.94962" lon="2.33513">
        <ele>284.7</ele>
        <time>2021-03-21T10:53:30Z</time>
      </trkpt>
      <trkpt lat="42.94968" lon="2.33515">
        <ele>284.9</ele>
        <time>2021-03-21T10:53:31Z</time>
      </trkpt>
      <trkpt lat="42.94974" lon="2.33518">
        <ele>285</ele>
        <time>2021-03-21T10:53:32Z</time>
      </trkpt>
      <trkpt lat="42.9498" lon="2.33521">
        <ele>285.2</ele>
        <time>2021-03-21T10:53:33Z</time>
      </trkpt>
      <trkpt lat="42.94987" lon="2.33523">
        <ele>285.3</ele>
        <time>2021-03-21T10:53:34Z</time>
      </trkpt>
      <trkpt lat="42.94994" lon="2.33527">
        <ele>285.5</ele>
        <time>2021-03-21T10:53:35Z</time>
      </trkpt>
      <trkpt lat="42.95007" lon="2.33537">
        <ele>285.8</ele>
        <time>2021-03-21T10:53:37Z</time>
      </trkpt>
      <trkpt lat="42.95013" lon="2.33543">
        <ele>285.9</ele>
        <time>2021-03-21T10:53:38Z</time>
      </trkpt>
      <trkpt lat="42.95019" lon="2.33549">
        <ele>286</ele>
        <time>2021-03-21T10:53:39Z</time>
      </trkpt>
      <trkpt lat="42.95025" lon="2.33556">
        <ele>286.2</ele>
        <time>2021-03-21T10:53:40Z</time>
      </trkpt>
      <trkpt lat="42.95036" lon="2.33572">
        <ele>286.5</ele>
        <time>2021-03-21T10:53:42Z</time>
      </trkpt>
      <trkpt lat="42.95046" lon="2.33589">
        <ele>286.6</ele>
        <time>2021-03-21T10:53:44Z</time>
      </trkpt>
      <trkpt lat="42.95051" lon="2.33598">
        <ele>286.5</ele>
        <time>2021-03-21T10:53:45Z</time>
      </trkpt>
      <trkpt lat="42.95059" lon="2.33616">
        <ele>286.6</ele>
        <time>2021-03-21T10:53:47Z</time>
      </trkpt>
      <trkpt lat="42.95067" lon="2.33633">
        <ele>286.9</ele>
        <time>2021-03-21T10:53:49Z</time>
      </trkpt>
      <trkpt lat="42.9507" lon="2.33642">
        <ele>287.1</ele>
        <time>2021-03-21T10:53:50Z</time>
      </trkpt>
      <trkpt lat="42.95079" lon="2.33659">
        <ele>287.5</ele>
        <time>2021-03-21T10:53:52Z</time>
      </trkpt>
      <trkpt lat="42.95087" lon="2.33676">
        <ele>288</ele>
        <time>2021-03-21T10:53:54Z</time>
      </trkpt>
      <trkpt lat="42.95091" lon="2.33685">
        <ele>288.3</ele>
        <time>2021-03-21T10:53:55Z</time>
      </trkpt>
      <trkpt lat="42.95098" lon="2.33703">
        <ele>288.8</ele>
        <time>2021-03-21T10:53:57Z</time>
      </trkpt>
      <trkpt lat="42.95106" lon="2.3372">
        <ele>289.4</ele>
        <time>2021-03-21T10:53:59Z</time>
      </trkpt>
      <trkpt lat="42.95113" lon="2.33738">
        <ele>290</ele>
        <time>2021-03-21T10:54:01Z</time>
      </trkpt>
      <trkpt lat="42.95117" lon="2.33746">
        <ele>290.3</ele>
        <time>2021-03-21T10:54:02Z</time>
      </trkpt>
      <trkpt lat="42.95119" lon="2.33755">
        <ele>290.6</ele>
        <time>2021-03-21T10:54:03Z</time>
      </trkpt>
      <trkpt lat="42.95122" lon="2.33774">
        <ele>291.3</ele>
        <time>2021-03-21T10:54:05Z</time>
      </trkpt>
      <trkpt lat="42.95122" lon="2.33793">
        <ele>291.9</ele>
        <time>2021-03-21T10:54:07Z</time>
      </trkpt>
      <trkpt lat="42.95121" lon="2.33803">
        <ele>292.2</ele>
        <time>2021-03-21T10:54:08Z</time>
      </trkpt>
      <trkpt lat="42.95116" lon="2.3382">
        <ele>292.8</ele>
        <time>2021-03-21T10:54:10Z</time>
      </trkpt>
      <trkpt lat="42.95112" lon="2.33837">
        <ele>293.3</ele>
        <time>2021-03-21T10:54:12Z</time>
      </trkpt>
      <trkpt lat="42.95111" lon="2.33847">
        <ele>293.6</ele>
        <time>2021-03-21T10:54:13Z</time>
      </trkpt>
      <trkpt lat="42.9511" lon="2.33865">
        <ele>294.1</ele>
        <time>2021-03-21T10:54:15Z</time>
      </trkpt>
      <trkpt lat="42.95109" lon="2.33874">
        <ele>294.4</ele>
        <time>2021-03-21T10:54:16Z</time>
      </trkpt>
      <trkpt lat="42.95108" lon="2.33884">
        <ele>294.6</ele>
        <time>2021-03-21T10:54:17Z</time>
      </trkpt>
      <trkpt lat="42.95105" lon="2.33902">
        <ele>295</ele>
        <time>2021-03-21T10:54:19Z</time>
      </trkpt>
      <trkpt lat="42.951" lon="2.33918">
        <ele>295.3</ele>
        <time>2021-03-21T10:54:21Z</time>
      </trkpt>
      <trkpt lat="42.95096" lon="2.33926">
        <ele>295.5</ele>
        <time>2021-03-21T10:54:22Z</time>
      </trkpt>
      <trkpt lat="42.95089" lon="2.33941">
        <ele>295.8</ele>
        <time>2021-03-21T10:54:24Z</time>
      </trkpt>
      <trkpt lat="42.95082" lon="2.33956">
        <ele>296.2</ele>
        <time>2021-03-21T10:54:26Z</time>
      </trkpt>
      <trkpt lat="42.95079" lon="2.33964">
        <ele>296.4</ele>
        <time>2021-03-21T10:54:27Z</time>
      </trkpt>
      <trkpt lat="42.95077" lon="2.33972">
        <ele>296.6</ele>
        <time>2021-03-21T10:54:28Z</time>
      </trkpt>
      <trkpt lat="42.95075" lon="2.33981">
        <ele>296.8</ele>
        <time>2021-03-21T10:54:29Z</time>
      </trkpt>
      <trkpt lat="42.95072" lon="2.33997">
        <ele>297.2</ele>
        <time>2021-03-21T10:54:31Z</time>
      </trkpt>
      <trkpt lat="42.95071" lon="2.34006">
        <ele>297.4</ele>
        <time>2021-03-21T10:54:32Z</time>
      </trkpt>
      <trkpt lat="42.95071" lon="2.34015">
        <ele>297.6</ele>
        <time>2021-03-21T10:54:33Z</time>
      </trkpt>
      <trkpt lat="42.95072" lon="2.34033">
        <ele>297.9</ele>
        <time>2021-03-21T10:54:35Z</time>
      </trkpt>
      <trkpt lat="42.95072" lon="2.34051">
        <ele>298.2</ele>
        <time>2021-03-21T10:54:37Z</time>
      </trkpt>
      <trkpt lat="42.95072" lon="2.34069">
        <ele>298.6</ele>
        <time>2021-03-21T10:54:39Z</time>
      </trkpt>
      <trkpt lat="42.95072" lon="2.34078">
        <ele>298.8</ele>
        <time>2021-03-21T10:54:40Z</time>
      </trkpt>
      <trkpt lat="42.95072" lon="2.34087">
        <ele>299</ele>
        <time>2021-03-21T10:54:41Z</time>
      </trkpt>
      <trkpt lat="42.95069" lon="2.34104">
        <ele>299.5</ele>
        <time>2021-03-21T10:54:43Z</time>
      </trkpt>
      <trkpt lat="42.95061" lon="2.34118">
        <ele>300</ele>
        <time>2021-03-21T10:54:45Z</time>
      </trkpt>
      <trkpt lat="42.95055" lon="2.34122">
        <ele>300.2</ele>
        <time>2021-03-21T10:54:46Z</time>
      </trkpt>
      <trkpt lat="42.95042" lon="2.34127">
        <ele>300.7</ele>
        <time>2021-03-21T10:54:48Z</time>
      </trkpt>
      <trkpt lat="42.95035" lon="2.34129">
        <ele>301</ele>
        <time>2021-03-21T10:54:49Z</time>
      </trkpt>
      <trkpt lat="42.95023" lon="2.34135">
        <ele>301.6</ele>
        <time>2021-03-21T10:54:51Z</time>
      </trkpt>
      <trkpt lat="42.95014" lon="2.34146">
        <ele>302</ele>
        <time>2021-03-21T10:54:53Z</time>
      </trkpt>
      <trkpt lat="42.9501" lon="2.34153">
        <ele>302.3</ele>
        <time>2021-03-21T10:54:54Z</time>
      </trkpt>
      <trkpt lat="42.95005" lon="2.34169">
        <ele>302.7</ele>
        <time>2021-03-21T10:54:56Z</time>
      </trkpt>
      <trkpt lat="42.95004" lon="2.34177">
        <ele>302.9</ele>
        <time>2021-03-21T10:54:57Z</time>
      </trkpt>
      <trkpt lat="42.95003" lon="2.34195">
        <ele>303.3</ele>
        <time>2021-03-21T10:54:59Z</time>
      </trkpt>
      <trkpt lat="42.95001" lon="2.34212">
        <ele>303.7</ele>
        <time>2021-03-21T10:55:01Z</time>
      </trkpt>
      <trkpt lat="42.95" lon="2.34221">
        <ele>303.9</ele>
        <time>2021-03-21T10:55:02Z</time>
      </trkpt>
      <trkpt lat="42.94996" lon="2.34237">
        <ele>304.2</ele>
        <time>2021-03-21T10:55:04Z</time>
      </trkpt>
      <trkpt lat="42.94994" lon="2.34245">
        <ele>304.4</ele>
        <time>2021-03-21T10:55:05Z</time>
      </trkpt>
      <trkpt lat="42.94992" lon="2.34252">
        <ele>304.6</ele>
        <time>2021-03-21T10:55:06Z</time>
      </trkpt>
      <trkpt lat="42.94989" lon="2.34268">
        <ele>305.1</ele>
        <time>2021-03-21T10:55:08Z</time>
      </trkpt>
      <trkpt lat="42.94987" lon="2.34275">
        <ele>305.3</ele>
        <time>2021-03-21T10:55:09Z</time>
      </trkpt>
      <trkpt lat="42.94986" lon="2.34283">
        <ele>305.5</ele>
        <time>2021-03-21T10:55:10Z</time>
      </trkpt>
      <trkpt lat="42.94985" lon="2.34298">
        <ele>305.9</ele>
        <time>2021-03-21T10:55:12Z</time>
      </trkpt>
      <trkpt lat="42.94984" lon="2.34313">
        <ele>306.3</ele>
        <time>2021-03-21T10:55:14Z</time>
      </trkpt>
      <trkpt lat="42.94985" lon="2.34329">
        <ele>306.7</ele>
        <time>2021-03-21T10:55:16Z</time>
      </trkpt>
      <trkpt lat="42.94985" lon="2.34337">
        <ele>306.9</ele>
        <time>2021-03-21T10:55:17Z</time>
      </trkpt>
      <trkpt lat="42.94985" lon="2.34345">
        <ele>307.1</ele>
        <time>2021-03-21T10:55:18Z</time>
      </trkpt>
      <trkpt lat="42.94985" lon="2.34361">
        <ele>307.5</ele>
        <time>2021-03-21T10:55:20Z</time>
      </trkpt>
      <trkpt lat="42.94985" lon="2.3437">
        <ele>307.7</ele>
        <time>2021-03-21T10:55:21Z</time>
      </trkpt>
      <trkpt lat="42.94985" lon="2.34387">
        <ele>308</ele>
        <time>2021-03-21T10:55:23Z</time>
      </trkpt>
      <trkpt lat="42.94983" lon="2.34395">
        <ele>308.2</ele>
        <time>2021-03-21T10:55:24Z</time>
      </trkpt>
      <trkpt lat="42.94982" lon="2.34403">
        <ele>308.4</ele>
        <time>2021-03-21T10:55:25Z</time>
      </trkpt>
      <trkpt lat="42.94976" lon="2.34417">
        <ele>308.7</ele>
        <time>2021-03-21T10:55:27Z</time>
      </trkpt>
      <trkpt lat="42.94972" lon="2.34424">
        <ele>308.9</ele>
        <time>2021-03-21T10:55:28Z</time>
      </trkpt>
      <trkpt lat="42.94968" lon="2.34431">
        <ele>309.1</ele>
        <time>2021-03-21T10:55:29Z</time>
      </trkpt>
      <trkpt lat="42.94961" lon="2.34445">
        <ele>309.5</ele>
        <time>2021-03-21T10:55:31Z</time>
      </trkpt>
      <trkpt lat="42.94958" lon="2.34452">
        <ele>309.7</ele>
        <time>2021-03-21T10:55:32Z</time>
      </trkpt>
      <trkpt lat="42.94955" lon="2.3446">
        <ele>309.9</ele>
        <time>2021-03-21T10:55:33Z</time>
      </trkpt>
      <trkpt lat="42.94949" lon="2.34475">
        <ele>310.3</ele>
        <time>2021-03-21T10:55:35Z</time>
      </trkpt>
      <trkpt lat="42.94946" lon="2.34483">
        <ele>310.5</ele>
        <time>2021-03-21T10:55:36Z</time>
      </trkpt>
      <trkpt lat="42.94939" lon="2.34497">
        <ele>310.8</ele>
        <time>2021-03-21T10:55:38Z</time>
      </trkpt>
      <trkpt lat="42.94936" lon="2.34504">
        <ele>310.9</ele>
        <time>2021-03-21T10:55:39Z</time>
      </trkpt>
      <trkpt lat="42.94926" lon="2.34516">
        <ele>311.2</ele>
        <time>2021-03-21T10:55:41Z</time>
      </trkpt>
      <trkpt lat="42.9492" lon="2.34518">
        <ele>311.3</ele>
        <time>2021-03-21T10:55:42Z</time>
      </trkpt>
      <trkpt lat="42.94907" lon="2.3452">
        <ele>311.7</ele>
        <time>2021-03-21T10:55:44Z</time>
      </trkpt>
      <trkpt lat="42.94894" lon="2.34521">
        <ele>312.1</ele>
        <time>2021-03-21T10:55:46Z</time>
      </trkpt>
      <trkpt lat="42.94881" lon="2.34522">
        <ele>312.4</ele>
        <time>2021-03-21T10:55:48Z</time>
      </trkpt>
      <trkpt lat="42.9487" lon="2.34525">
        <ele>312.7</ele>
        <time>2021-03-21T10:55:50Z</time>
      </trkpt>
      <trkpt lat="42.94859" lon="2.34532">
        <ele>313.1</ele>
        <time>2021-03-21T10:55:52Z</time>
      </trkpt>
      <trkpt lat="42.94854" lon="2.34537">
        <ele>313.3</ele>
        <time>2021-03-21T10:55:53Z</time>
      </trkpt>
      <trkpt lat="42.94846" lon="2.34549">
        <ele>313.6</ele>
        <time>2021-03-21T10:55:55Z</time>
      </trkpt>
      <trkpt lat="42.94842" lon="2.34556">
        <ele>313.8</ele>
        <time>2021-03-21T10:55:56Z</time>
      </trkpt>
      <trkpt lat="42.94836" lon="2.3457">
        <ele>314.2</ele>
        <time>2021-03-21T10:55:58Z</time>
      </trkpt>
      <trkpt lat="42.94831" lon="2.34585">
        <ele>314.6</ele>
        <time>2021-03-21T10:56:00Z</time>
      </trkpt>
      <trkpt lat="42.94828" lon="2.34592">
        <ele>314.8</ele>
        <time>2021-03-21T10:56:01Z</time>
      </trkpt>
      <trkpt lat="42.94821" lon="2.34606">
        <ele>315.2</ele>
        <time>2021-03-21T10:56:03Z</time>
      </trkpt>
      <trkpt lat="42.94818" lon="2.34613">
        <ele>315.4</ele>
        <time>2021-03-21T10:56:04Z</time>
      </trkpt>
      <trkpt lat="42.94811" lon="2.34627">
        <ele>315.8</ele>
        <time>2021-03-21T10:56:06Z</time>
      </trkpt>
      <trkpt lat="42.94805" lon="2.34641">
        <ele>316.2</ele>
        <time>2021-03-21T10:56:08Z</time>
      </trkpt>
      <trkpt lat="42.94798" lon="2.34655">
        <ele>316.5</ele>
        <time>2021-03-21T10:56:10Z</time>
      </trkpt>
      <trkpt lat="42.94794" lon="2.34662">
        <ele>316.7</ele>
        <time>2021-03-21T10:56:11Z</time>
      </trkpt>
      <trkpt lat="42.94788" lon="2.34676">
        <ele>317</ele>
        <time>2021-03-21T10:56:13Z</time>
      </trkpt>
      <trkpt lat="42.94785" lon="2.34684">
        <ele>317.1</ele>
        <time>2021-03-21T10:56:14Z</time>
      </trkpt>
      <trkpt lat="42.94778" lon="2.34698">
        <ele>317.7</ele>
        <time>2021-03-21T10:56:16Z</time>
      </trkpt>
      <trkpt lat="42.94772" lon="2.34713">
        <ele>318.3</ele>
        <time>2021-03-21T10:56:18Z</time>
      </trkpt>
      <trkpt lat="42.94765" lon="2.34727">
        <ele>318.7</ele>
        <time>2021-03-21T10:56:20Z</time>
      </trkpt>
      <trkpt lat="42.94758" lon="2.34741">
        <ele>319.2</ele>
        <time>2021-03-21T10:56:22Z</time>
      </trkpt>
      <trkpt lat="42.94755" lon="2.34748">
        <ele>319.3</ele>
        <time>2021-03-21T10:56:23Z</time>
      </trkpt>
      <trkpt lat="42.94747" lon="2.34761">
        <ele>319.8</ele>
        <time>2021-03-21T10:56:25Z</time>
      </trkpt>
      <trkpt lat="42.94743" lon="2.34766">
        <ele>320</ele>
        <time>2021-03-21T10:56:26Z</time>
      </trkpt>
      <trkpt lat="42.94732" lon="2.34776">
        <ele>320.4</ele>
        <time>2021-03-21T10:56:28Z</time>
      </trkpt>
      <trkpt lat="42.94726" lon="2.34779">
        <ele>320.6</ele>
        <time>2021-03-21T10:56:29Z</time>
      </trkpt>
      <trkpt lat="42.9472" lon="2.34782">
        <ele>320.9</ele>
        <time>2021-03-21T10:56:30Z</time>
      </trkpt>
      <trkpt lat="42.94708" lon="2.34786">
        <ele>321.3</ele>
        <time>2021-03-21T10:56:32Z</time>
      </trkpt>
      <trkpt lat="42.94695" lon="2.34791">
        <ele>321.8</ele>
        <time>2021-03-21T10:56:34Z</time>
      </trkpt>
      <trkpt lat="42.94683" lon="2.34795">
        <ele>322.4</ele>
        <time>2021-03-21T10:56:36Z</time>
      </trkpt>
      <trkpt lat="42.94678" lon="2.34797">
        <ele>322.6</ele>
        <time>2021-03-21T10:56:37Z</time>
      </trkpt>
      <trkpt lat="42.94667" lon="2.34804">
        <ele>323.1</ele>
        <time>2021-03-21T10:56:39Z</time>
      </trkpt>
      <trkpt lat="42.94659" lon="2.34815">
        <ele>323.6</ele>
        <time>2021-03-21T10:56:41Z</time>
      </trkpt>
      <trkpt lat="42.94655" lon="2.34831">
        <ele>324</ele>
        <time>2021-03-21T10:56:43Z</time>
      </trkpt>
      <trkpt lat="42.94655" lon="2.34839">
        <ele>324.2</ele>
        <time>2021-03-21T10:56:44Z</time>
      </trkpt>
      <trkpt lat="42.94656" lon="2.34848">
        <ele>324.4</ele>
        <time>2021-03-21T10:56:45Z</time>
      </trkpt>
      <trkpt lat="42.94661" lon="2.34865">
        <ele>324.8</ele>
        <time>2021-03-21T10:56:47Z</time>
      </trkpt>
      <trkpt lat="42.94666" lon="2.34881">
        <ele>325.2</ele>
        <time>2021-03-21T10:56:49Z</time>
      </trkpt>
      <trkpt lat="42.9467" lon="2.34897">
        <ele>325.6</ele>
        <time>2021-03-21T10:56:51Z</time>
      </trkpt>
      <trkpt lat="42.94672" lon="2.34904">
        <ele>325.8</ele>
        <time>2021-03-21T10:56:52Z</time>
      </trkpt>
      <trkpt lat="42.94676" lon="2.34919">
        <ele>326.2</ele>
        <time>2021-03-21T10:56:54Z</time>
      </trkpt>
      <trkpt lat="42.94678" lon="2.34927">
        <ele>326.4</ele>
        <time>2021-03-21T10:56:55Z</time>
      </trkpt>
      <trkpt lat="42.94681" lon="2.34942">
        <ele>326.8</ele>
        <time>2021-03-21T10:56:57Z</time>
      </trkpt>
      <trkpt lat="42.94683" lon="2.3495">
        <ele>327</ele>
        <time>2021-03-21T10:56:58Z</time>
      </trkpt>
      <trkpt lat="42.94686" lon="2.34958">
        <ele>327.2</ele>
        <time>2021-03-21T10:56:59Z</time>
      </trkpt>
      <trkpt lat="42.94688" lon="2.34966">
        <ele>327.5</ele>
        <time>2021-03-21T10:57:00Z</time>
      </trkpt>
      <trkpt lat="42.94694" lon="2.3498">
        <ele>327.9</ele>
        <time>2021-03-21T10:57:02Z</time>
      </trkpt>
      <trkpt lat="42.94701" lon="2.34994">
        <ele>328.3</ele>
        <time>2021-03-21T10:57:04Z</time>
      </trkpt>
      <trkpt lat="42.94705" lon="2.35">
        <ele>328.4</ele>
        <time>2021-03-21T10:57:05Z</time>
      </trkpt>
      <trkpt lat="42.94709" lon="2.35007">
        <ele>328.6</ele>
        <time>2021-03-21T10:57:06Z</time>
      </trkpt>
      <trkpt lat="42.94719" lon="2.35017">
        <ele>329</ele>
        <time>2021-03-21T10:57:08Z</time>
      </trkpt>
      <trkpt lat="42.94725" lon="2.35021">
        <ele>329.2</ele>
        <time>2021-03-21T10:57:09Z</time>
      </trkpt>
      <trkpt lat="42.94731" lon="2.35023">
        <ele>329.4</ele>
        <time>2021-03-21T10:57:10Z</time>
      </trkpt>
      <trkpt lat="42.94745" lon="2.35027">
        <ele>329.7</ele>
        <time>2021-03-21T10:57:12Z</time>
      </trkpt>
      <trkpt lat="42.94758" lon="2.3503">
        <ele>330.1</ele>
        <time>2021-03-21T10:57:14Z</time>
      </trkpt>
      <trkpt lat="42.9477" lon="2.35033">
        <ele>330.4</ele>
        <time>2021-03-21T10:57:16Z</time>
      </trkpt>
      <trkpt lat="42.94776" lon="2.35036">
        <ele>330.5</ele>
        <time>2021-03-21T10:57:17Z</time>
      </trkpt>
      <trkpt lat="42.94787" lon="2.35044">
        <ele>330.8</ele>
        <time>2021-03-21T10:57:19Z</time>
      </trkpt>
      <trkpt lat="42.94792" lon="2.35049">
        <ele>330.9</ele>
        <time>2021-03-21T10:57:20Z</time>
      </trkpt>
      <trkpt lat="42.94801" lon="2.35062">
        <ele>331.3</ele>
        <time>2021-03-21T10:57:22Z</time>
      </trkpt>
      <trkpt lat="42.94806" lon="2.35078">
        <ele>331.6</ele>
        <time>2021-03-21T10:57:24Z</time>
      </trkpt>
      <trkpt lat="42.94811" lon="2.35094">
        <ele>332</ele>
        <time>2021-03-21T10:57:26Z</time>
      </trkpt>
      <trkpt lat="42.94813" lon="2.35102">
        <ele>332.2</ele>
        <time>2021-03-21T10:57:27Z</time>
      </trkpt>
      <trkpt lat="42.94816" lon="2.3511">
        <ele>332.3</ele>
        <time>2021-03-21T10:57:28Z</time>
      </trkpt>
      <trkpt lat="42.94822" lon="2.35126">
        <ele>332.6</ele>
        <time>2021-03-21T10:57:30Z</time>
      </trkpt>
      <trkpt lat="42.94827" lon="2.35143">
        <ele>332.8</ele>
        <time>2021-03-21T10:57:32Z</time>
      </trkpt>
      <trkpt lat="42.94827" lon="2.35151">
        <ele>332.9</ele>
        <time>2021-03-21T10:57:33Z</time>
      </trkpt>
      <trkpt lat="42.94826" lon="2.3516">
        <ele>333</ele>
        <time>2021-03-21T10:57:34Z</time>
      </trkpt>
      <trkpt lat="42.94824" lon="2.35169">
        <ele>333.2</ele>
        <time>2021-03-21T10:57:35Z</time>
      </trkpt>
      <trkpt lat="42.94817" lon="2.35185">
        <ele>333.5</ele>
        <time>2021-03-21T10:57:37Z</time>
      </trkpt>
      <trkpt lat="42.94814" lon="2.35193">
        <ele>333.7</ele>
        <time>2021-03-21T10:57:38Z</time>
      </trkpt>
      <trkpt lat="42.94807" lon="2.35209">
        <ele>334</ele>
        <time>2021-03-21T10:57:40Z</time>
      </trkpt>
      <trkpt lat="42.94801" lon="2.35223">
        <ele>334.3</ele>
        <time>2021-03-21T10:57:42Z</time>
      </trkpt>
      <trkpt lat="42.94795" lon="2.35238">
        <ele>334.6</ele>
        <time>2021-03-21T10:57:44Z</time>
      </trkpt>
      <trkpt lat="42.94788" lon="2.35253">
        <ele>334.9</ele>
        <time>2021-03-21T10:57:46Z</time>
      </trkpt>
      <trkpt lat="42.94781" lon="2.35267">
        <ele>335.1</ele>
        <time>2021-03-21T10:57:48Z</time>
      </trkpt>
      <trkpt lat="42.94774" lon="2.3528">
        <ele>335.3</ele>
        <time>2021-03-21T10:57:50Z</time>
      </trkpt>
      <trkpt lat="42.94767" lon="2.35294">
        <ele>335.5</ele>
        <time>2021-03-21T10:57:52Z</time>
      </trkpt>
      <trkpt lat="42.94764" lon="2.35302">
        <ele>335.6</ele>
        <time>2021-03-21T10:57:53Z</time>
      </trkpt>
      <trkpt lat="42.94761" lon="2.35309">
        <ele>335.8</ele>
        <time>2021-03-21T10:57:54Z</time>
      </trkpt>
      <trkpt lat="42.94757" lon="2.35326">
        <ele>336.1</ele>
        <time>2021-03-21T10:57:56Z</time>
      </trkpt>
      <trkpt lat="42.94755" lon="2.35343">
        <ele>336.4</ele>
        <time>2021-03-21T10:57:58Z</time>
      </trkpt>
      <trkpt lat="42.94755" lon="2.35352">
        <ele>336.7</ele>
        <time>2021-03-21T10:57:59Z</time>
      </trkpt>
      <trkpt lat="42.94755" lon="2.3536">
        <ele>336.8</ele>
        <time>2021-03-21T10:58:00Z</time>
      </trkpt>
      <trkpt lat="42.94754" lon="2.35377">
        <ele>337.2</ele>
        <time>2021-03-21T10:58:02Z</time>
      </trkpt>
      <trkpt lat="42.94753" lon="2.35386">
        <ele>337.4</ele>
        <time>2021-03-21T10:58:03Z</time>
      </trkpt>
      <trkpt lat="42.94752" lon="2.35394">
        <ele>337.6</ele>
        <time>2021-03-21T10:58:04Z</time>
      </trkpt>
      <trkpt lat="42.9475" lon="2.35411">
        <ele>337.9</ele>
        <time>2021-03-21T10:58:06Z</time>
      </trkpt>
      <trkpt lat="42.94747" lon="2.35427">
        <ele>338.2</ele>
        <time>2021-03-21T10:58:08Z</time>
      </trkpt>
      <trkpt lat="42.94746" lon="2.35436">
        <ele>338.4</ele>
        <time>2021-03-21T10:58:09Z</time>
      </trkpt>
      <trkpt lat="42.94743" lon="2.35454">
        <ele>338.6</ele>
        <time>2021-03-21T10:58:11Z</time>
      </trkpt>
      <trkpt lat="42.94742" lon="2.35463">
        <ele>338.8</ele>
        <time>2021-03-21T10:58:12Z</time>
      </trkpt>
      <trkpt lat="42.94739" lon="2.35481">
        <ele>339</ele>
        <time>2021-03-21T10:58:14Z</time>
      </trkpt>
      <trkpt lat="42.94737" lon="2.3549">
        <ele>339.1</ele>
        <time>2021-03-21T10:58:15Z</time>
      </trkpt>
      <trkpt lat="42.94736" lon="2.35499">
        <ele>339.2</ele>
        <time>2021-03-21T10:58:16Z</time>
      </trkpt>
      <trkpt lat="42.94735" lon="2.35508">
        <ele>339.3</ele>
        <time>2021-03-21T10:58:17Z</time>
      </trkpt>
      <trkpt lat="42.94733" lon="2.35517">
        <ele>339.4</ele>
        <time>2021-03-21T10:58:18Z</time>
      </trkpt>
      <trkpt lat="42.9473" lon="2.35535">
        <ele>339.6</ele>
        <time>2021-03-21T10:58:20Z</time>
      </trkpt>
      <trkpt lat="42.94728" lon="2.35553">
        <ele>339.8</ele>
        <time>2021-03-21T10:58:22Z</time>
      </trkpt>
      <trkpt lat="42.94727" lon="2.35562">
        <ele>339.9</ele>
        <time>2021-03-21T10:58:23Z</time>
      </trkpt>
      <trkpt lat="42.94726" lon="2.3558">
        <ele>340.2</ele>
        <time>2021-03-21T10:58:25Z</time>
      </trkpt>
      <trkpt lat="42.94727" lon="2.35598">
        <ele>340.4</ele>
        <time>2021-03-21T10:58:27Z</time>
      </trkpt>
      <trkpt lat="42.94731" lon="2.35616">
        <ele>340.6</ele>
        <time>2021-03-21T10:58:29Z</time>
      </trkpt>
      <trkpt lat="42.94734" lon="2.35625">
        <ele>340.8</ele>
        <time>2021-03-21T10:58:30Z</time>
      </trkpt>
      <trkpt lat="42.94743" lon="2.35641">
        <ele>341</ele>
        <time>2021-03-21T10:58:32Z</time>
      </trkpt>
      <trkpt lat="42.94748" lon="2.35648">
        <ele>341.2</ele>
        <time>2021-03-21T10:58:33Z</time>
      </trkpt>
      <trkpt lat="42.94759" lon="2.35661">
        <ele>341.4</ele>
        <time>2021-03-21T10:58:35Z</time>
      </trkpt>
      <trkpt lat="42.9477" lon="2.35674">
        <ele>341.7</ele>
        <time>2021-03-21T10:58:37Z</time>
      </trkpt>
      <trkpt lat="42.94781" lon="2.35686">
        <ele>341.9</ele>
        <time>2021-03-21T10:58:39Z</time>
      </trkpt>
      <trkpt lat="42.94786" lon="2.35693">
        <ele>342</ele>
        <time>2021-03-21T10:58:40Z</time>
      </trkpt>
      <trkpt lat="42.94797" lon="2.35706">
        <ele>342.2</ele>
        <time>2021-03-21T10:58:42Z</time>
      </trkpt>
      <trkpt lat="42.94806" lon="2.3572">
        <ele>342.4</ele>
        <time>2021-03-21T10:58:44Z</time>
      </trkpt>
      <trkpt lat="42.94811" lon="2.35726">
        <ele>342.5</ele>
        <time>2021-03-21T10:58:45Z</time>
      </trkpt>
      <trkpt lat="42.9482" lon="2.35741">
        <ele>342.7</ele>
        <time>2021-03-21T10:58:47Z</time>
      </trkpt>
      <trkpt lat="42.94824" lon="2.35748">
        <ele>342.8</ele>
        <time>2021-03-21T10:58:48Z</time>
      </trkpt>
      <trkpt lat="42.94832" lon="2.35764">
        <ele>343.1</ele>
        <time>2021-03-21T10:58:50Z</time>
      </trkpt>
      <trkpt lat="42.94836" lon="2.35772">
        <ele>343.2</ele>
        <time>2021-03-21T10:58:51Z</time>
      </trkpt>
      <trkpt lat="42.94844" lon="2.35788">
        <ele>343.4</ele>
        <time>2021-03-21T10:58:53Z</time>
      </trkpt>
      <trkpt lat="42.94848" lon="2.35797">
        <ele>343.5</ele>
        <time>2021-03-21T10:58:54Z</time>
      </trkpt>
      <trkpt lat="42.94855" lon="2.35813">
        <ele>343.7</ele>
        <time>2021-03-21T10:58:56Z</time>
      </trkpt>
      <trkpt lat="42.94863" lon="2.35829">
        <ele>343.9</ele>
        <time>2021-03-21T10:58:58Z</time>
      </trkpt>
      <trkpt lat="42.94871" lon="2.35845">
        <ele>344.1</ele>
        <time>2021-03-21T10:59:00Z</time>
      </trkpt>
      <trkpt lat="42.94878" lon="2.3586">
        <ele>344.3</ele>
        <time>2021-03-21T10:59:02Z</time>
      </trkpt>
      <trkpt lat="42.94886" lon="2.35876">
        <ele>344.5</ele>
        <time>2021-03-21T10:59:04Z</time>
      </trkpt>
      <trkpt lat="42.94889" lon="2.35884">
        <ele>344.6</ele>
        <time>2021-03-21T10:59:05Z</time>
      </trkpt>
      <trkpt lat="42.94897" lon="2.35899">
        <ele>344.8</ele>
        <time>2021-03-21T10:59:07Z</time>
      </trkpt>
      <trkpt lat="42.949" lon="2.35907">
        <ele>344.9</ele>
        <time>2021-03-21T10:59:08Z</time>
      </trkpt>
      <trkpt lat="42.94907" lon="2.35923">
        <ele>345</ele>
        <time>2021-03-21T10:59:10Z</time>
      </trkpt>
      <trkpt lat="42.94914" lon="2.3594">
        <ele>345</ele>
        <time>2021-03-21T10:59:12Z</time>
      </trkpt>
      <trkpt lat="42.94921" lon="2.35956">
        <ele>345.1</ele>
        <time>2021-03-21T10:59:14Z</time>
      </trkpt>
      <trkpt lat="42.94928" lon="2.35973">
        <ele>345.2</ele>
        <time>2021-03-21T10:59:16Z</time>
      </trkpt>
      <trkpt lat="42.94932" lon="2.35981">
        <ele>345.2</ele>
        <time>2021-03-21T10:59:17Z</time>
      </trkpt>
      <trkpt lat="42.9494" lon="2.35996">
        <ele>345.2</ele>
        <time>2021-03-21T10:59:19Z</time>
      </trkpt>
      <trkpt lat="42.94944" lon="2.36004">
        <ele>345.2</ele>
        <time>2021-03-21T10:59:20Z</time>
      </trkpt>
      <trkpt lat="42.94948" lon="2.36011">
        <ele>345.2</ele>
        <time>2021-03-21T10:59:21Z</time>
      </trkpt>
      <trkpt lat="42.94956" lon="2.36027">
        <ele>345.3</ele>
        <time>2021-03-21T10:59:23Z</time>
      </trkpt>
      <trkpt lat="42.94964" lon="2.36042">
        <ele>345.3</ele>
        <time>2021-03-21T10:59:25Z</time>
      </trkpt>
      <trkpt lat="42.94968" lon="2.3605">
        <ele>345.3</ele>
        <time>2021-03-21T10:59:26Z</time>
      </trkpt>
      <trkpt lat="42.94976" lon="2.36066">
        <ele>345.3</ele>
        <time>2021-03-21T10:59:28Z</time>
      </trkpt>
      <trkpt lat="42.9498" lon="2.36075">
        <ele>345.4</ele>
        <time>2021-03-21T10:59:29Z</time>
      </trkpt>
      <trkpt lat="42.94984" lon="2.36084">
        <ele>345.4</ele>
        <time>2021-03-21T10:59:30Z</time>
      </trkpt>
      <trkpt lat="42.94992" lon="2.361">
        <ele>345.4</ele>
        <time>2021-03-21T10:59:32Z</time>
      </trkpt>
      <trkpt lat="42.94996" lon="2.36109">
        <ele>345.4</ele>
        <time>2021-03-21T10:59:33Z</time>
      </trkpt>
      <trkpt lat="42.95003" lon="2.36126">
        <ele>345.5</ele>
        <time>2021-03-21T10:59:35Z</time>
      </trkpt>
      <trkpt lat="42.95007" lon="2.36135">
        <ele>345.5</ele>
        <time>2021-03-21T10:59:36Z</time>
      </trkpt>
      <trkpt lat="42.95016" lon="2.36153">
        <ele>345.6</ele>
        <time>2021-03-21T10:59:38Z</time>
      </trkpt>
      <trkpt lat="42.95021" lon="2.36161">
        <ele>345.7</ele>
        <time>2021-03-21T10:59:39Z</time>
      </trkpt>
      <trkpt lat="42.95025" lon="2.36169">
        <ele>345.7</ele>
        <time>2021-03-21T10:59:40Z</time>
      </trkpt>
      <trkpt lat="42.95032" lon="2.36186">
        <ele>345.8</ele>
        <time>2021-03-21T10:59:42Z</time>
      </trkpt>
      <trkpt lat="42.95036" lon="2.36194">
        <ele>345.8</ele>
        <time>2021-03-21T10:59:43Z</time>
      </trkpt>
      <trkpt lat="42.95043" lon="2.3621">
        <ele>345.8</ele>
        <time>2021-03-21T10:59:45Z</time>
      </trkpt>
      <trkpt lat="42.9505" lon="2.36226">
        <ele>345.9</ele>
        <time>2021-03-21T10:59:47Z</time>
      </trkpt>
      <trkpt lat="42.95057" lon="2.36242">
        <ele>345.9</ele>
        <time>2021-03-21T10:59:49Z</time>
      </trkpt>
      <trkpt lat="42.95061" lon="2.3625">
        <ele>346</ele>
        <time>2021-03-21T10:59:50Z</time>
      </trkpt>
      <trkpt lat="42.95064" lon="2.36258">
        <ele>346.1</ele>
        <time>2021-03-21T10:59:51Z</time>
      </trkpt>
      <trkpt lat="42.95072" lon="2.36273">
        <ele>346.2</ele>
        <time>2021-03-21T10:59:53Z</time>
      </trkpt>
      <trkpt lat="42.95079" lon="2.36289">
        <ele>346.3</ele>
        <time>2021-03-21T10:59:55Z</time>
      </trkpt>
      <trkpt lat="42.95083" lon="2.36297">
        <ele>346.4</ele>
        <time>2021-03-21T10:59:56Z</time>
      </trkpt>
      <trkpt lat="42.9509" lon="2.36312">
        <ele>346.5</ele>
        <time>2021-03-21T10:59:58Z</time>
      </trkpt>
      <trkpt lat="42.95096" lon="2.36328">
        <ele>346.6</ele>
        <time>2021-03-21T11:00:00Z</time>
      </trkpt>
      <trkpt lat="42.951" lon="2.36336">
        <ele>346.7</ele>
        <time>2021-03-21T11:00:01Z</time>
      </trkpt>
      <trkpt lat="42.95104" lon="2.36345">
        <ele>346.7</ele>
        <time>2021-03-21T11:00:02Z</time>
      </trkpt>
      <trkpt lat="42.95113" lon="2.36361">
        <ele>346.9</ele>
        <time>2021-03-21T11:00:04Z</time>
      </trkpt>
      <trkpt lat="42.9512" lon="2.36377">
        <ele>347</ele>
        <time>2021-03-21T11:00:06Z</time>
      </trkpt>
      <trkpt lat="42.95128" lon="2.36394">
        <ele>347.1</ele>
        <time>2021-03-21T11:00:08Z</time>
      </trkpt>
      <trkpt lat="42.95131" lon="2.36402">
        <ele>347.1</ele>
        <time>2021-03-21T11:00:09Z</time>
      </trkpt>
      <trkpt lat="42.95137" lon="2.36421">
        <ele>347.2</ele>
        <time>2021-03-21T11:00:11Z</time>
      </trkpt>
      <trkpt lat="42.95142" lon="2.36441">
        <ele>347.2</ele>
        <time>2021-03-21T11:00:13Z</time>
      </trkpt>
      <trkpt lat="42.95146" lon="2.3646">
        <ele>347.3</ele>
        <time>2021-03-21T11:00:15Z</time>
      </trkpt>
      <trkpt lat="42.95148" lon="2.3647">
        <ele>347.3</ele>
        <time>2021-03-21T11:00:16Z</time>
      </trkpt>
      <trkpt lat="42.95149" lon="2.3648">
        <ele>347.3</ele>
        <time>2021-03-21T11:00:17Z</time>
      </trkpt>
      <trkpt lat="42.95149" lon="2.36499">
        <ele>347.4</ele>
        <time>2021-03-21T11:00:19Z</time>
      </trkpt>
      <trkpt lat="42.9515" lon="2.36508">
        <ele>347.4</ele>
        <time>2021-03-21T11:00:20Z</time>
      </trkpt>
      <trkpt lat="42.9515" lon="2.36518">
        <ele>347.4</ele>
        <time>2021-03-21T11:00:21Z</time>
      </trkpt>
      <trkpt lat="42.95151" lon="2.36528">
        <ele>347.4</ele>
        <time>2021-03-21T11:00:22Z</time>
      </trkpt>
      <trkpt lat="42.95154" lon="2.36547">
        <ele>347.5</ele>
        <time>2021-03-21T11:00:24Z</time>
      </trkpt>
      <trkpt lat="42.95156" lon="2.36566">
        <ele>347.5</ele>
        <time>2021-03-21T11:00:26Z</time>
      </trkpt>
      <trkpt lat="42.95159" lon="2.36586">
        <ele>347.6</ele>
        <time>2021-03-21T11:00:28Z</time>
      </trkpt>
      <trkpt lat="42.9516" lon="2.36596">
        <ele>347.7</ele>
        <time>2021-03-21T11:00:29Z</time>
      </trkpt>
      <trkpt lat="42.95162" lon="2.36616">
        <ele>347.9</ele>
        <time>2021-03-21T11:00:31Z</time>
      </trkpt>
      <trkpt lat="42.95163" lon="2.36626">
        <ele>347.9</ele>
        <time>2021-03-21T11:00:32Z</time>
      </trkpt>
      <trkpt lat="42.95164" lon="2.36635">
        <ele>348</ele>
        <time>2021-03-21T11:00:33Z</time>
      </trkpt>
      <trkpt lat="42.95165" lon="2.36645">
        <ele>348</ele>
        <time>2021-03-21T11:00:34Z</time>
      </trkpt>
      <trkpt lat="42.95168" lon="2.36665">
        <ele>348.1</ele>
        <time>2021-03-21T11:00:36Z</time>
      </trkpt>
      <trkpt lat="42.95169" lon="2.36675">
        <ele>348.1</ele>
        <time>2021-03-21T11:00:37Z</time>
      </trkpt>
      <trkpt lat="42.95171" lon="2.36694">
        <ele>348.3</ele>
        <time>2021-03-21T11:00:39Z</time>
      </trkpt>
      <trkpt lat="42.95174" lon="2.36703">
        <ele>348.4</ele>
        <time>2021-03-21T11:00:40Z</time>
      </trkpt>
      <trkpt lat="42.95177" lon="2.36711">
        <ele>348.4</ele>
        <time>2021-03-21T11:00:41Z</time>
      </trkpt>
      <trkpt lat="42.95187" lon="2.36724">
        <ele>348.6</ele>
        <time>2021-03-21T11:00:43Z</time>
      </trkpt>
      <trkpt lat="42.952" lon="2.36731">
        <ele>348.7</ele>
        <time>2021-03-21T11:00:45Z</time>
      </trkpt>
      <trkpt lat="42.95213" lon="2.36736">
        <ele>348.9</ele>
        <time>2021-03-21T11:00:47Z</time>
      </trkpt>
      <trkpt lat="42.9522" lon="2.36738">
        <ele>348.9</ele>
        <time>2021-03-21T11:00:48Z</time>
      </trkpt>
      <trkpt lat="42.95227" lon="2.3674">
        <ele>349</ele>
        <time>2021-03-21T11:00:49Z</time>
      </trkpt>
      <trkpt lat="42.9524" lon="2.36744">
        <ele>349.1</ele>
        <time>2021-03-21T11:00:51Z</time>
      </trkpt>
      <trkpt lat="42.95245" lon="2.36746">
        <ele>349.1</ele>
        <time>2021-03-21T11:00:52Z</time>
      </trkpt>
      <trkpt lat="42.95258" lon="2.3675">
        <ele>349.3</ele>
        <time>2021-03-21T11:00:54Z</time>
      </trkpt>
      <trkpt lat="42.95265" lon="2.36752">
        <ele>349.3</ele>
        <time>2021-03-21T11:00:55Z</time>
      </trkpt>
      <trkpt lat="42.95272" lon="2.36754">
        <ele>349.4</ele>
        <time>2021-03-21T11:00:56Z</time>
      </trkpt>
      <trkpt lat="42.95284" lon="2.36762">
        <ele>349.5</ele>
        <time>2021-03-21T11:00:58Z</time>
      </trkpt>
      <trkpt lat="42.95294" lon="2.36775">
        <ele>349.7</ele>
        <time>2021-03-21T11:01:00Z</time>
      </trkpt>
      <trkpt lat="42.95298" lon="2.36783">
        <ele>349.7</ele>
        <time>2021-03-21T11:01:01Z</time>
      </trkpt>
      <trkpt lat="42.95301" lon="2.36792">
        <ele>349.7</ele>
        <time>2021-03-21T11:01:02Z</time>
      </trkpt>
      <trkpt lat="42.95303" lon="2.36808">
        <ele>349.8</ele>
        <time>2021-03-21T11:01:04Z</time>
      </trkpt>
      <trkpt lat="42.95304" lon="2.36818">
        <ele>349.8</ele>
        <time>2021-03-21T11:01:05Z</time>
      </trkpt>
      <trkpt lat="42.95306" lon="2.36836">
        <ele>349.9</ele>
        <time>2021-03-21T11:01:07Z</time>
      </trkpt>
      <trkpt lat="42.9531" lon="2.36856">
        <ele>350.1</ele>
        <time>2021-03-21T11:01:09Z</time>
      </trkpt>
      <trkpt lat="42.95314" lon="2.36875">
        <ele>350.2</ele>
        <time>2021-03-21T11:01:11Z</time>
      </trkpt>
      <trkpt lat="42.95316" lon="2.36883">
        <ele>350.2</ele>
        <time>2021-03-21T11:01:12Z</time>
      </trkpt>
      <trkpt lat="42.95317" lon="2.36892">
        <ele>350.3</ele>
        <time>2021-03-21T11:01:13Z</time>
      </trkpt>
      <trkpt lat="42.95322" lon="2.36909">
        <ele>350.4</ele>
        <time>2021-03-21T11:01:15Z</time>
      </trkpt>
      <trkpt lat="42.95324" lon="2.36918">
        <ele>350.5</ele>
        <time>2021-03-21T11:01:16Z</time>
      </trkpt>
      <trkpt lat="42.95326" lon="2.36927">
        <ele>350.5</ele>
        <time>2021-03-21T11:01:17Z</time>
      </trkpt>
      <trkpt lat="42.95329" lon="2.36945">
        <ele>350.7</ele>
        <time>2021-03-21T11:01:19Z</time>
      </trkpt>
      <trkpt lat="42.95333" lon="2.36963">
        <ele>350.9</ele>
        <time>2021-03-21T11:01:21Z</time>
      </trkpt>
      <trkpt lat="42.95336" lon="2.36981">
        <ele>351</ele>
        <time>2021-03-21T11:01:23Z</time>
      </trkpt>
      <trkpt lat="42.95338" lon="2.36999">
        <ele>351.3</ele>
        <time>2021-03-21T11:01:25Z</time>
      </trkpt>
      <trkpt lat="42.9534" lon="2.37008">
        <ele>351.4</ele>
        <time>2021-03-21T11:01:26Z</time>
      </trkpt>
      <trkpt lat="42.95341" lon="2.37017">
        <ele>351.5</ele>
        <time>2021-03-21T11:01:27Z</time>
      </trkpt>
      <trkpt lat="42.95344" lon="2.37035">
        <ele>351.7</ele>
        <time>2021-03-21T11:01:29Z</time>
      </trkpt>
      <trkpt lat="42.95346" lon="2.37053">
        <ele>351.9</ele>
        <time>2021-03-21T11:01:31Z</time>
      </trkpt>
      <trkpt lat="42.95347" lon="2.37063">
        <ele>352</ele>
        <time>2021-03-21T11:01:32Z</time>
      </trkpt>
      <trkpt lat="42.95349" lon="2.37072">
        <ele>352.1</ele>
        <time>2021-03-21T11:01:33Z</time>
      </trkpt>
      <trkpt lat="42.9535" lon="2.37082">
        <ele>352.2</ele>
        <time>2021-03-21T11:01:34Z</time>
      </trkpt>
      <trkpt lat="42.95352" lon="2.371">
        <ele>352.4</ele>
        <time>2021-03-21T11:01:36Z</time>
      </trkpt>
      <trkpt lat="42.95353" lon="2.37109">
        <ele>352.5</ele>
        <time>2021-03-21T11:01:37Z</time>
      </trkpt>
      <trkpt lat="42.95355" lon="2.37118">
        <ele>352.6</ele>
        <time>2021-03-21T11:01:38Z</time>
      </trkpt>
      <trkpt lat="42.95356" lon="2.37127">
        <ele>352.7</ele>
        <time>2021-03-21T11:01:39Z</time>
      </trkpt>
      <trkpt lat="42.95358" lon="2.37136">
        <ele>352.8</ele>
        <time>2021-03-21T11:01:40Z</time>
      </trkpt>
      <trkpt lat="42.95361" lon="2.37154">
        <ele>352.9</ele>
        <time>2021-03-21T11:01:42Z</time>
      </trkpt>
      <trkpt lat="42.95363" lon="2.37164">
        <ele>353</ele>
        <time>2021-03-21T11:01:43Z</time>
      </trkpt>
      <trkpt lat="42.95366" lon="2.37182">
        <ele>353.2</ele>
        <time>2021-03-21T11:01:45Z</time>
      </trkpt>
      <trkpt lat="42.95368" lon="2.37191">
        <ele>353.3</ele>
        <time>2021-03-21T11:01:46Z</time>
      </trkpt>
      <trkpt lat="42.9537" lon="2.372">
        <ele>353.4</ele>
        <time>2021-03-21T11:01:47Z</time>
      </trkpt>
      <trkpt lat="42.95374" lon="2.37218">
        <ele>353.5</ele>
        <time>2021-03-21T11:01:49Z</time>
      </trkpt>
      <trkpt lat="42.95376" lon="2.37227">
        <ele>353.6</ele>
        <time>2021-03-21T11:01:50Z</time>
      </trkpt>
      <trkpt lat="42.95377" lon="2.37236">
        <ele>353.7</ele>
        <time>2021-03-21T11:01:51Z</time>
      </trkpt>
      <trkpt lat="42.9538" lon="2.37253">
        <ele>353.8</ele>
        <time>2021-03-21T11:01:53Z</time>
      </trkpt>
      <trkpt lat="42.95379" lon="2.3727">
        <ele>354</ele>
        <time>2021-03-21T11:01:55Z</time>
      </trkpt>
      <trkpt lat="42.95373" lon="2.37287">
        <ele>354.2</ele>
        <time>2021-03-21T11:01:57Z</time>
      </trkpt>
      <trkpt lat="42.95369" lon="2.37295">
        <ele>354.2</ele>
        <time>2021-03-21T11:01:58Z</time>
      </trkpt>
      <trkpt lat="42.95359" lon="2.37308">
        <ele>354.4</ele>
        <time>2021-03-21T11:02:00Z</time>
      </trkpt>
      <trkpt lat="42.95349" lon="2.37318">
        <ele>354.6</ele>
        <time>2021-03-21T11:02:02Z</time>
      </trkpt>
      <trkpt lat="42.95344" lon="2.37323">
        <ele>354.7</ele>
        <time>2021-03-21T11:02:03Z</time>
      </trkpt>
      <trkpt lat="42.95333" lon="2.37331">
        <ele>354.9</ele>
        <time>2021-03-21T11:02:05Z</time>
      </trkpt>
      <trkpt lat="42.95328" lon="2.37335">
        <ele>355.1</ele>
        <time>2021-03-21T11:02:06Z</time>
      </trkpt>
      <trkpt lat="42.95319" lon="2.37344">
        <ele>355.3</ele>
        <time>2021-03-21T11:02:08Z</time>
      </trkpt>
      <trkpt lat="42.95312" lon="2.37352">
        <ele>355.5</ele>
        <time>2021-03-21T11:02:10Z</time>
      </trkpt>
      <trkpt lat="42.95307" lon="2.37356">
        <ele>355.6</ele>
        <time>2021-03-21T11:02:11Z</time>
      </trkpt>
      <trkpt lat="42.95299" lon="2.37365">
        <ele>355.9</ele>
        <time>2021-03-21T11:02:13Z</time>
      </trkpt>
      <trkpt lat="42.9529" lon="2.37373">
        <ele>356.1</ele>
        <time>2021-03-21T11:02:15Z</time>
      </trkpt>
      <trkpt lat="42.95282" lon="2.37382">
        <ele>356.4</ele>
        <time>2021-03-21T11:02:17Z</time>
      </trkpt>
      <trkpt lat="42.95278" lon="2.37386">
        <ele>356.5</ele>
        <time>2021-03-21T11:02:18Z</time>
      </trkpt>
      <trkpt lat="42.95269" lon="2.37396">
        <ele>356.8</ele>
        <time>2021-03-21T11:02:20Z</time>
      </trkpt>
      <trkpt lat="42.95262" lon="2.37409">
        <ele>357</ele>
        <time>2021-03-21T11:02:22Z</time>
      </trkpt>
      <trkpt lat="42.95257" lon="2.37422">
        <ele>357.2</ele>
        <time>2021-03-21T11:02:24Z</time>
      </trkpt>
      <trkpt lat="42.95255" lon="2.37438">
        <ele>357.4</ele>
        <time>2021-03-21T11:02:26Z</time>
      </trkpt>
      <trkpt lat="42.95251" lon="2.37451">
        <ele>357.5</ele>
        <time>2021-03-21T11:02:28Z</time>
      </trkpt>
      <trkpt lat="42.95248" lon="2.3746">
        <ele>357.5</ele>
        <time>2021-03-21T11:02:30Z</time>
      </trkpt>
      <trkpt lat="42.95248" lon="2.37463">
        <ele>357.5</ele>
        <time>2021-03-21T11:02:31Z</time>
      </trkpt>
      <trkpt lat="42.95248" lon="2.37463">
        <ele>358.1</ele>
        <time>2021-03-21T11:02:32Z</time>
      </trkpt>
      <trkpt lat="42.95247" lon="2.37462">
        <ele>358.2</ele>
        <time>2021-03-21T11:02:33Z</time>
      </trkpt>
      <trkpt lat="42.95247" lon="2.37462">
        <ele>358.2</ele>
        <time>2021-03-21T11:02:34Z</time>
      </trkpt>
      <trkpt lat="42.95246" lon="2.37461">
        <ele>358.3</ele>
        <time>2021-03-21T11:02:36Z</time>
      </trkpt>
      <trkpt lat="42.95246" lon="2.37461">
        <ele>358.4</ele>
        <time>2021-03-21T11:02:37Z</time>
      </trkpt>
      <trkpt lat="42.95245" lon="2.3746">
        <ele>358.5</ele>
        <time>2021-03-21T11:02:38Z</time>
      </trkpt>
      <trkpt lat="42.95245" lon="2.37457">
        <ele>358.7</ele>
        <time>2021-03-21T11:02:39Z</time>
      </trkpt>
      <trkpt lat="42.95246" lon="2.37455">
        <ele>358.9</ele>
        <time>2021-03-21T11:02:41Z</time>
      </trkpt>
      <trkpt lat="42.95246" lon="2.37454">
        <ele>358.9</ele>
        <time>2021-03-21T11:02:42Z</time>
      </trkpt>
      <trkpt lat="42.95247" lon="2.37454">
        <ele>359</ele>
        <time>2021-03-21T11:02:43Z</time>
      </trkpt>
      <trkpt lat="42.95249" lon="2.37452">
        <ele>359.3</ele>
        <time>2021-03-21T11:02:45Z</time>
      </trkpt>
      <trkpt lat="42.95253" lon="2.37452">
        <ele>359.6</ele>
        <time>2021-03-21T11:02:46Z</time>
      </trkpt>
      <trkpt lat="42.95255" lon="2.37452">
        <ele>359.8</ele>
        <time>2021-03-21T11:02:47Z</time>
      </trkpt>
      <trkpt lat="42.95259" lon="2.37454">
        <ele>360.2</ele>
        <time>2021-03-21T11:02:48Z</time>
      </trkpt>
      <trkpt lat="42.9526" lon="2.37454">
        <ele>360.3</ele>
        <time>2021-03-21T11:02:49Z</time>
      </trkpt>
      <trkpt lat="42.95264" lon="2.37457">
        <ele>360.7</ele>
        <time>2021-03-21T11:02:50Z</time>
      </trkpt>
      <trkpt lat="42.95268" lon="2.3746">
        <ele>361.4</ele>
        <time>2021-03-21T11:02:52Z</time>
      </trkpt>
      <trkpt lat="42.95274" lon="2.37463">
        <ele>361.5</ele>
        <time>2021-03-21T11:02:53Z</time>
      </trkpt>
      <trkpt lat="42.95279" lon="2.37465">
        <ele>361.7</ele>
        <time>2021-03-21T11:02:54Z</time>
      </trkpt>
      <trkpt lat="42.95284" lon="2.37467">
        <ele>361.8</ele>
        <time>2021-03-21T11:02:55Z</time>
      </trkpt>
      <trkpt lat="42.95287" lon="2.37473">
        <ele>362.1</ele>
        <time>2021-03-21T11:02:57Z</time>
      </trkpt>
      <trkpt lat="42.95288" lon="2.37481">
        <ele>362.2</ele>
        <time>2021-03-21T11:02:58Z</time>
      </trkpt>
      <trkpt lat="42.95287" lon="2.37485">
        <ele>362.2</ele>
        <time>2021-03-21T11:02:59Z</time>
      </trkpt>
      <trkpt lat="42.95287" lon="2.37489">
        <ele>362.2</ele>
        <time>2021-03-21T11:03:00Z</time>
      </trkpt>
      <trkpt lat="42.95289" lon="2.37495">
        <ele>362.3</ele>
        <time>2021-03-21T11:03:02Z</time>
      </trkpt>
      <trkpt lat="42.95291" lon="2.37498">
        <ele>362.3</ele>
        <time>2021-03-21T11:03:03Z</time>
      </trkpt>
      <trkpt lat="42.95295" lon="2.37502">
        <ele>362.3</ele>
        <time>2021-03-21T11:03:05Z</time>
      </trkpt>
      <trkpt lat="42.95294" lon="2.37508">
        <ele>362.3</ele>
        <time>2021-03-21T11:03:07Z</time>
      </trkpt>
      <trkpt lat="42.95293" lon="2.37513">
        <ele>362.2</ele>
        <time>2021-03-21T11:03:08Z</time>
      </trkpt>
      <trkpt lat="42.95292" lon="2.37525">
        <ele>362.1</ele>
        <time>2021-03-21T11:03:09Z</time>
      </trkpt>
      <trkpt lat="42.95292" lon="2.3754">
        <ele>362.2</ele>
        <time>2021-03-21T11:03:11Z</time>
      </trkpt>
      <trkpt lat="42.95292" lon="2.37548">
        <ele>362.2</ele>
        <time>2021-03-21T11:03:12Z</time>
      </trkpt>
      <trkpt lat="42.95292" lon="2.37559">
        <ele>362.8</ele>
        <time>2021-03-21T11:03:14Z</time>
      </trkpt>
      <trkpt lat="42.95293" lon="2.37562">
        <ele>363</ele>
        <time>2021-03-21T11:03:15Z</time>
      </trkpt>
      <trkpt lat="42.95294" lon="2.37565">
        <ele>363.1</ele>
        <time>2021-03-21T11:03:16Z</time>
      </trkpt>
      <trkpt lat="42.95296" lon="2.3757">
        <ele>363.5</ele>
        <time>2021-03-21T11:03:18Z</time>
      </trkpt>
      <trkpt lat="42.95298" lon="2.37575">
        <ele>363.7</ele>
        <time>2021-03-21T11:03:19Z</time>
      </trkpt>
      <trkpt lat="42.95301" lon="2.37579">
        <ele>364</ele>
        <time>2021-03-21T11:03:20Z</time>
      </trkpt>
      <trkpt lat="42.95304" lon="2.37587">
        <ele>364.4</ele>
        <time>2021-03-21T11:03:21Z</time>
      </trkpt>
      <trkpt lat="42.95305" lon="2.37592">
        <ele>364.6</ele>
        <time>2021-03-21T11:03:22Z</time>
      </trkpt>
      <trkpt lat="42.95305" lon="2.37598">
        <ele>364.8</ele>
        <time>2021-03-21T11:03:23Z</time>
      </trkpt>
      <trkpt lat="42.95302" lon="2.37613">
        <ele>365.3</ele>
        <time>2021-03-21T11:03:25Z</time>
      </trkpt>
      <trkpt lat="42.95298" lon="2.37625">
        <ele>365.7</ele>
        <time>2021-03-21T11:03:27Z</time>
      </trkpt>
      <trkpt lat="42.95296" lon="2.3763">
        <ele>365.9</ele>
        <time>2021-03-21T11:03:28Z</time>
      </trkpt>
      <trkpt lat="42.95297" lon="2.37634">
        <ele>366.1</ele>
        <time>2021-03-21T11:03:29Z</time>
      </trkpt>
      <trkpt lat="42.95295" lon="2.37645">
        <ele>366.5</ele>
        <time>2021-03-21T11:03:31Z</time>
      </trkpt>
      <trkpt lat="42.95287" lon="2.37656">
        <ele>367</ele>
        <time>2021-03-21T11:03:33Z</time>
      </trkpt>
      <trkpt lat="42.95285" lon="2.37663">
        <ele>367.1</ele>
        <time>2021-03-21T11:03:35Z</time>
      </trkpt>
      <trkpt lat="42.95284" lon="2.37668">
        <ele>367.1</ele>
        <time>2021-03-21T11:03:36Z</time>
      </trkpt>
      <trkpt lat="42.95283" lon="2.37678">
        <ele>367.5</ele>
        <time>2021-03-21T11:03:37Z</time>
      </trkpt>
      <trkpt lat="42.95284" lon="2.37686">
        <ele>367.8</ele>
        <time>2021-03-21T11:03:38Z</time>
      </trkpt>
      <trkpt lat="42.95289" lon="2.37698">
        <ele>368.3</ele>
        <time>2021-03-21T11:03:40Z</time>
      </trkpt>
      <trkpt lat="42.95294" lon="2.37704">
        <ele>368.6</ele>
        <time>2021-03-21T11:03:42Z</time>
      </trkpt>
      <trkpt lat="42.95299" lon="2.3771">
        <ele>368.9</ele>
        <time>2021-03-21T11:03:43Z</time>
      </trkpt>
      <trkpt lat="42.95303" lon="2.37714">
        <ele>369.1</ele>
        <time>2021-03-21T11:03:44Z</time>
      </trkpt>
      <trkpt lat="42.95307" lon="2.37718">
        <ele>369.3</ele>
        <time>2021-03-21T11:03:46Z</time>
      </trkpt>
      <trkpt lat="42.95311" lon="2.37723">
        <ele>369.6</ele>
        <time>2021-03-21T11:03:47Z</time>
      </trkpt>
      <trkpt lat="42.95316" lon="2.37728">
        <ele>369.9</ele>
        <time>2021-03-21T11:03:48Z</time>
      </trkpt>
      <trkpt lat="42.95321" lon="2.37734">
        <ele>370.2</ele>
        <time>2021-03-21T11:03:50Z</time>
      </trkpt>
      <trkpt lat="42.95325" lon="2.3774">
        <ele>370.5</ele>
        <time>2021-03-21T11:03:51Z</time>
      </trkpt>
      <trkpt lat="42.9533" lon="2.37746">
        <ele>370.8</ele>
        <time>2021-03-21T11:03:53Z</time>
      </trkpt>
      <trkpt lat="42.95337" lon="2.37753">
        <ele>371.2</ele>
        <time>2021-03-21T11:03:55Z</time>
      </trkpt>
      <trkpt lat="42.95341" lon="2.37757">
        <ele>371.4</ele>
        <time>2021-03-21T11:03:56Z</time>
      </trkpt>
      <trkpt lat="42.95344" lon="2.37762">
        <ele>371.6</ele>
        <time>2021-03-21T11:03:57Z</time>
      </trkpt>
      <trkpt lat="42.95351" lon="2.3777">
        <ele>372</ele>
        <time>2021-03-21T11:03:59Z</time>
      </trkpt>
      <trkpt lat="42.95357" lon="2.37776">
        <ele>372.4</ele>
        <time>2021-03-21T11:04:01Z</time>
      </trkpt>
      <trkpt lat="42.95361" lon="2.3778">
        <ele>372.6</ele>
        <time>2021-03-21T11:04:03Z</time>
      </trkpt>
      <trkpt lat="42.95364" lon="2.37783">
        <ele>372.8</ele>
        <time>2021-03-21T11:04:04Z</time>
      </trkpt>
      <trkpt lat="42.95367" lon="2.37787">
        <ele>373</ele>
        <time>2021-03-21T11:04:05Z</time>
      </trkpt>
      <trkpt lat="42.95371" lon="2.3779">
        <ele>373.2</ele>
        <time>2021-03-21T11:04:06Z</time>
      </trkpt>
      <trkpt lat="42.95376" lon="2.37794">
        <ele>373.5</ele>
        <time>2021-03-21T11:04:07Z</time>
      </trkpt>
      <trkpt lat="42.95383" lon="2.37798">
        <ele>373.9</ele>
        <time>2021-03-21T11:04:09Z</time>
      </trkpt>
      <trkpt lat="42.95387" lon="2.37798">
        <ele>374.1</ele>
        <time>2021-03-21T11:04:10Z</time>
      </trkpt>
      <trkpt lat="42.95393" lon="2.37797">
        <ele>374.3</ele>
        <time>2021-03-21T11:04:12Z</time>
      </trkpt>
      <trkpt lat="42.95399" lon="2.37793">
        <ele>374.5</ele>
        <time>2021-03-21T11:04:13Z</time>
      </trkpt>
      <trkpt lat="42.95405" lon="2.37788">
        <ele>374.7</ele>
        <time>2021-03-21T11:04:14Z</time>
      </trkpt>
      <trkpt lat="42.9541" lon="2.37777">
        <ele>374.9</ele>
        <time>2021-03-21T11:04:16Z</time>
      </trkpt>
      <trkpt lat="42.95411" lon="2.37771">
        <ele>374.9</ele>
        <time>2021-03-21T11:04:18Z</time>
      </trkpt>
      <trkpt lat="42.95411" lon="2.37768">
        <ele>375</ele>
        <time>2021-03-21T11:04:19Z</time>
      </trkpt>
      <trkpt lat="42.95411" lon="2.37756">
        <ele>375.1</ele>
        <time>2021-03-21T11:04:20Z</time>
      </trkpt>
      <trkpt lat="42.95414" lon="2.37751">
        <ele>375.2</ele>
        <time>2021-03-21T11:04:21Z</time>
      </trkpt>
      <trkpt lat="42.95416" lon="2.37743">
        <ele>375.3</ele>
        <time>2021-03-21T11:04:23Z</time>
      </trkpt>
      <trkpt lat="42.95418" lon="2.37738">
        <ele>375.4</ele>
        <time>2021-03-21T11:04:24Z</time>
      </trkpt>
      <trkpt lat="42.95421" lon="2.37733">
        <ele>375.6</ele>
        <time>2021-03-21T11:04:25Z</time>
      </trkpt>
      <trkpt lat="42.95424" lon="2.3773">
        <ele>375.7</ele>
        <time>2021-03-21T11:04:26Z</time>
      </trkpt>
      <trkpt lat="42.95429" lon="2.37725">
        <ele>375.9</ele>
        <time>2021-03-21T11:04:28Z</time>
      </trkpt>
      <trkpt lat="42.95432" lon="2.37722">
        <ele>376</ele>
        <time>2021-03-21T11:04:29Z</time>
      </trkpt>
      <trkpt lat="42.95434" lon="2.37718">
        <ele>376.1</ele>
        <time>2021-03-21T11:04:30Z</time>
      </trkpt>
      <trkpt lat="42.95437" lon="2.37715">
        <ele>376.2</ele>
        <time>2021-03-21T11:04:31Z</time>
      </trkpt>
      <trkpt lat="42.9544" lon="2.37709">
        <ele>376.4</ele>
        <time>2021-03-21T11:04:33Z</time>
      </trkpt>
      <trkpt lat="42.95444" lon="2.37702">
        <ele>376.6</ele>
        <time>2021-03-21T11:04:34Z</time>
      </trkpt>
      <trkpt lat="42.95446" lon="2.37697">
        <ele>376.7</ele>
        <time>2021-03-21T11:04:35Z</time>
      </trkpt>
      <trkpt lat="42.95451" lon="2.3769">
        <ele>376.9</ele>
        <time>2021-03-21T11:04:37Z</time>
      </trkpt>
      <trkpt lat="42.95454" lon="2.37684">
        <ele>377.1</ele>
        <time>2021-03-21T11:04:38Z</time>
      </trkpt>
      <trkpt lat="42.95457" lon="2.37679">
        <ele>377.3</ele>
        <time>2021-03-21T11:04:39Z</time>
      </trkpt>
      <trkpt lat="42.95461" lon="2.37673">
        <ele>377.5</ele>
        <time>2021-03-21T11:04:41Z</time>
      </trkpt>
      <trkpt lat="42.95465" lon="2.3767">
        <ele>377.8</ele>
        <time>2021-03-21T11:04:42Z</time>
      </trkpt>
      <trkpt lat="42.95469" lon="2.37667">
        <ele>378</ele>
        <time>2021-03-21T11:04:43Z</time>
      </trkpt>
      <trkpt lat="42.95474" lon="2.37665">
        <ele>378.3</ele>
        <time>2021-03-21T11:04:44Z</time>
      </trkpt>
      <trkpt lat="42.9548" lon="2.37663">
        <ele>378.7</ele>
        <time>2021-03-21T11:04:46Z</time>
      </trkpt>
      <trkpt lat="42.95485" lon="2.37662">
        <ele>379</ele>
        <time>2021-03-21T11:04:47Z</time>
      </trkpt>
      <trkpt lat="42.9549" lon="2.37661">
        <ele>379.3</ele>
        <time>2021-03-21T11:04:48Z</time>
      </trkpt>
      <trkpt lat="42.95496" lon="2.3766">
        <ele>379.7</ele>
        <time>2021-03-21T11:04:50Z</time>
      </trkpt>
      <trkpt lat="42.95501" lon="2.37658">
        <ele>380.1</ele>
        <time>2021-03-21T11:04:51Z</time>
      </trkpt>
      <trkpt lat="42.95508" lon="2.37654">
        <ele>380.6</ele>
        <time>2021-03-21T11:04:53Z</time>
      </trkpt>
      <trkpt lat="42.95513" lon="2.37653">
        <ele>381</ele>
        <time>2021-03-21T11:04:55Z</time>
      </trkpt>
      <trkpt lat="42.95517" lon="2.37651">
        <ele>381.4</ele>
        <time>2021-03-21T11:04:56Z</time>
      </trkpt>
      <trkpt lat="42.95522" lon="2.37648">
        <ele>381.7</ele>
        <time>2021-03-21T11:04:57Z</time>
      </trkpt>
      <trkpt lat="42.95526" lon="2.37648">
        <ele>382</ele>
        <time>2021-03-21T11:04:58Z</time>
      </trkpt>
      <trkpt lat="42.95533" lon="2.37649">
        <ele>382.6</ele>
        <time>2021-03-21T11:05:00Z</time>
      </trkpt>
      <trkpt lat="42.9554" lon="2.37651">
        <ele>383</ele>
        <time>2021-03-21T11:05:02Z</time>
      </trkpt>
      <trkpt lat="42.95544" lon="2.37654">
        <ele>383.3</ele>
        <time>2021-03-21T11:05:03Z</time>
      </trkpt>
      <trkpt lat="42.95548" lon="2.37657">
        <ele>383.6</ele>
        <time>2021-03-21T11:05:04Z</time>
      </trkpt>
      <trkpt lat="42.95553" lon="2.37662">
        <ele>384</ele>
        <time>2021-03-21T11:05:06Z</time>
      </trkpt>
      <trkpt lat="42.95557" lon="2.37667">
        <ele>384.4</ele>
        <time>2021-03-21T11:05:07Z</time>
      </trkpt>
      <trkpt lat="42.9556" lon="2.37672">
        <ele>384.7</ele>
        <time>2021-03-21T11:05:08Z</time>
      </trkpt>
      <trkpt lat="42.95562" lon="2.37678">
        <ele>385.1</ele>
        <time>2021-03-21T11:05:09Z</time>
      </trkpt>
      <trkpt lat="42.95563" lon="2.37684">
        <ele>385.5</ele>
        <time>2021-03-21T11:05:11Z</time>
      </trkpt>
      <trkpt lat="42.95562" lon="2.3769">
        <ele>385.8</ele>
        <time>2021-03-21T11:05:12Z</time>
      </trkpt>
      <trkpt lat="42.95561" lon="2.37696">
        <ele>386.1</ele>
        <time>2021-03-21T11:05:13Z</time>
      </trkpt>
      <trkpt lat="42.95559" lon="2.37704">
        <ele>386.6</ele>
        <time>2021-03-21T11:05:15Z</time>
      </trkpt>
      <trkpt lat="42.95557" lon="2.3771">
        <ele>387</ele>
        <time>2021-03-21T11:05:17Z</time>
      </trkpt>
      <trkpt lat="42.95555" lon="2.37716">
        <ele>387.4</ele>
        <time>2021-03-21T11:05:18Z</time>
      </trkpt>
      <trkpt lat="42.95554" lon="2.3772">
        <ele>387.7</ele>
        <time>2021-03-21T11:05:19Z</time>
      </trkpt>
      <trkpt lat="42.95554" lon="2.37725">
        <ele>388</ele>
        <time>2021-03-21T11:05:20Z</time>
      </trkpt>
      <trkpt lat="42.95553" lon="2.3773">
        <ele>388.3</ele>
        <time>2021-03-21T11:05:21Z</time>
      </trkpt>
      <trkpt lat="42.95552" lon="2.37734">
        <ele>388.6</ele>
        <time>2021-03-21T11:05:22Z</time>
      </trkpt>
      <trkpt lat="42.9555" lon="2.37742">
        <ele>389.2</ele>
        <time>2021-03-21T11:05:24Z</time>
      </trkpt>
      <trkpt lat="42.95549" lon="2.37747">
        <ele>389.5</ele>
        <time>2021-03-21T11:05:25Z</time>
      </trkpt>
      <trkpt lat="42.95549" lon="2.37753">
        <ele>390</ele>
        <time>2021-03-21T11:05:27Z</time>
      </trkpt>
      <trkpt lat="42.95548" lon="2.37759">
        <ele>390.4</ele>
        <time>2021-03-21T11:05:28Z</time>
      </trkpt>
      <trkpt lat="42.95548" lon="2.37764">
        <ele>390.8</ele>
        <time>2021-03-21T11:05:29Z</time>
      </trkpt>
      <trkpt lat="42.95548" lon="2.37771">
        <ele>391.3</ele>
        <time>2021-03-21T11:05:31Z</time>
      </trkpt>
      <trkpt lat="42.95548" lon="2.37777">
        <ele>391.8</ele>
        <time>2021-03-21T11:05:32Z</time>
      </trkpt>
      <trkpt lat="42.95548" lon="2.37782">
        <ele>392.2</ele>
        <time>2021-03-21T11:05:33Z</time>
      </trkpt>
      <trkpt lat="42.95548" lon="2.37787">
        <ele>392.5</ele>
        <time>2021-03-21T11:05:34Z</time>
      </trkpt>
      <trkpt lat="42.95549" lon="2.37792">
        <ele>393</ele>
        <time>2021-03-21T11:05:36Z</time>
      </trkpt>
      <trkpt lat="42.9555" lon="2.37797">
        <ele>393.3</ele>
        <time>2021-03-21T11:05:37Z</time>
      </trkpt>
      <trkpt lat="42.95551" lon="2.37803">
        <ele>393.8</ele>
        <time>2021-03-21T11:05:38Z</time>
      </trkpt>
      <trkpt lat="42.95553" lon="2.37807">
        <ele>394.2</ele>
        <time>2021-03-21T11:05:39Z</time>
      </trkpt>
      <trkpt lat="42.95554" lon="2.37811">
        <ele>394.5</ele>
        <time>2021-03-21T11:05:40Z</time>
      </trkpt>
      <trkpt lat="42.95555" lon="2.37817">
        <ele>394.9</ele>
        <time>2021-03-21T11:05:42Z</time>
      </trkpt>
      <trkpt lat="42.95557" lon="2.3782">
        <ele>395.2</ele>
        <time>2021-03-21T11:05:43Z</time>
      </trkpt>
      <trkpt lat="42.9556" lon="2.37822">
        <ele>395.4</ele>
        <time>2021-03-21T11:05:44Z</time>
      </trkpt>
      <trkpt lat="42.95563" lon="2.37823">
        <ele>395.7</ele>
        <time>2021-03-21T11:05:46Z</time>
      </trkpt>
      <trkpt lat="42.95566" lon="2.37823">
        <ele>396</ele>
        <time>2021-03-21T11:05:47Z</time>
      </trkpt>
      <trkpt lat="42.95572" lon="2.37823">
        <ele>396.4</ele>
        <time>2021-03-21T11:05:48Z</time>
      </trkpt>
      <trkpt lat="42.95575" lon="2.37823">
        <ele>396.7</ele>
        <time>2021-03-21T11:05:49Z</time>
      </trkpt>
      <trkpt lat="42.95581" lon="2.37824">
        <ele>397.1</ele>
        <time>2021-03-21T11:05:51Z</time>
      </trkpt>
      <trkpt lat="42.95585" lon="2.37827">
        <ele>397.5</ele>
        <time>2021-03-21T11:05:52Z</time>
      </trkpt>
      <trkpt lat="42.95589" lon="2.37832">
        <ele>398</ele>
        <time>2021-03-21T11:05:54Z</time>
      </trkpt>
      <trkpt lat="42.95592" lon="2.37837">
        <ele>398.3</ele>
        <time>2021-03-21T11:05:55Z</time>
      </trkpt>
      <trkpt lat="42.95593" lon="2.37843">
        <ele>398.7</ele>
        <time>2021-03-21T11:05:56Z</time>
      </trkpt>
      <trkpt lat="42.95593" lon="2.37848">
        <ele>399</ele>
        <time>2021-03-21T11:05:57Z</time>
      </trkpt>
      <trkpt lat="42.95592" lon="2.37855">
        <ele>399.4</ele>
        <time>2021-03-21T11:05:59Z</time>
      </trkpt>
      <trkpt lat="42.95592" lon="2.3786">
        <ele>399.7</ele>
        <time>2021-03-21T11:06:00Z</time>
      </trkpt>
      <trkpt lat="42.95592" lon="2.37865">
        <ele>400</ele>
        <time>2021-03-21T11:06:01Z</time>
      </trkpt>
      <trkpt lat="42.95592" lon="2.3787">
        <ele>400.3</ele>
        <time>2021-03-21T11:06:02Z</time>
      </trkpt>
      <trkpt lat="42.95594" lon="2.37876">
        <ele>400.7</ele>
        <time>2021-03-21T11:06:04Z</time>
      </trkpt>
      <trkpt lat="42.95596" lon="2.37882">
        <ele>401</ele>
        <time>2021-03-21T11:06:05Z</time>
      </trkpt>
      <trkpt lat="42.95598" lon="2.37886">
        <ele>401.3</ele>
        <time>2021-03-21T11:06:06Z</time>
      </trkpt>
      <trkpt lat="42.95599" lon="2.3789">
        <ele>401.5</ele>
        <time>2021-03-21T11:06:07Z</time>
      </trkpt>
      <trkpt lat="42.95601" lon="2.37896">
        <ele>401.9</ele>
        <time>2021-03-21T11:06:09Z</time>
      </trkpt>
      <trkpt lat="42.95602" lon="2.37901">
        <ele>402.2</ele>
        <time>2021-03-21T11:06:10Z</time>
      </trkpt>
      <trkpt lat="42.95605" lon="2.3791">
        <ele>402.8</ele>
        <time>2021-03-21T11:06:12Z</time>
      </trkpt>
      <trkpt lat="42.95607" lon="2.37914">
        <ele>403.1</ele>
        <time>2021-03-21T11:06:13Z</time>
      </trkpt>
      <trkpt lat="42.95608" lon="2.3792">
        <ele>403.5</ele>
        <time>2021-03-21T11:06:15Z</time>
      </trkpt>
      <trkpt lat="42.95609" lon="2.37925">
        <ele>403.9</ele>
        <time>2021-03-21T11:06:16Z</time>
      </trkpt>
      <trkpt lat="42.95609" lon="2.37928">
        <ele>404.1</ele>
        <time>2021-03-21T11:06:17Z</time>
      </trkpt>
      <trkpt lat="42.9561" lon="2.37933">
        <ele>404.5</ele>
        <time>2021-03-21T11:06:19Z</time>
      </trkpt>
      <trkpt lat="42.95611" lon="2.37939">
        <ele>404.8</ele>
        <time>2021-03-21T11:06:20Z</time>
      </trkpt>
      <trkpt lat="42.95612" lon="2.37944">
        <ele>405.2</ele>
        <time>2021-03-21T11:06:21Z</time>
      </trkpt>
      <trkpt lat="42.95614" lon="2.37948">
        <ele>405.4</ele>
        <time>2021-03-21T11:06:22Z</time>
      </trkpt>
      <trkpt lat="42.95616" lon="2.37954">
        <ele>405.8</ele>
        <time>2021-03-21T11:06:24Z</time>
      </trkpt>
      <trkpt lat="42.95618" lon="2.37957">
        <ele>406</ele>
        <time>2021-03-21T11:06:25Z</time>
      </trkpt>
      <trkpt lat="42.9562" lon="2.37961">
        <ele>406.3</ele>
        <time>2021-03-21T11:06:26Z</time>
      </trkpt>
      <trkpt lat="42.95623" lon="2.37965">
        <ele>406.6</ele>
        <time>2021-03-21T11:06:28Z</time>
      </trkpt>
      <trkpt lat="42.95625" lon="2.37969">
        <ele>406.8</ele>
        <time>2021-03-21T11:06:29Z</time>
      </trkpt>
      <trkpt lat="42.95629" lon="2.37971">
        <ele>407.1</ele>
        <time>2021-03-21T11:06:31Z</time>
      </trkpt>
      <trkpt lat="42.95633" lon="2.37973">
        <ele>407.4</ele>
        <time>2021-03-21T11:06:32Z</time>
      </trkpt>
      <trkpt lat="42.95637" lon="2.37975">
        <ele>407.6</ele>
        <time>2021-03-21T11:06:33Z</time>
      </trkpt>
      <trkpt lat="42.9564" lon="2.37977">
        <ele>407.9</ele>
        <time>2021-03-21T11:06:34Z</time>
      </trkpt>
      <trkpt lat="42.95644" lon="2.37978">
        <ele>408.2</ele>
        <time>2021-03-21T11:06:35Z</time>
      </trkpt>
      <trkpt lat="42.95649" lon="2.37979">
        <ele>408.5</ele>
        <time>2021-03-21T11:06:37Z</time>
      </trkpt>
      <trkpt lat="42.95653" lon="2.3798">
        <ele>408.7</ele>
        <time>2021-03-21T11:06:38Z</time>
      </trkpt>
      <trkpt lat="42.95657" lon="2.3798">
        <ele>409</ele>
        <time>2021-03-21T11:06:39Z</time>
      </trkpt>
      <trkpt lat="42.95662" lon="2.3798">
        <ele>409.2</ele>
        <time>2021-03-21T11:06:40Z</time>
      </trkpt>
      <trkpt lat="42.95665" lon="2.37981">
        <ele>409.5</ele>
        <time>2021-03-21T11:06:41Z</time>
      </trkpt>
      <trkpt lat="42.9567" lon="2.37981">
        <ele>409.8</ele>
        <time>2021-03-21T11:06:43Z</time>
      </trkpt>
      <trkpt lat="42.95674" lon="2.37981">
        <ele>410</ele>
        <time>2021-03-21T11:06:44Z</time>
      </trkpt>
      <trkpt lat="42.95677" lon="2.37981">
        <ele>410.3</ele>
        <time>2021-03-21T11:06:45Z</time>
      </trkpt>
      <trkpt lat="42.95681" lon="2.37981">
        <ele>410.5</ele>
        <time>2021-03-21T11:06:46Z</time>
      </trkpt>
      <trkpt lat="42.95686" lon="2.37981">
        <ele>410.8</ele>
        <time>2021-03-21T11:06:48Z</time>
      </trkpt>
      <trkpt lat="42.9569" lon="2.3798">
        <ele>411</ele>
        <time>2021-03-21T11:06:49Z</time>
      </trkpt>
      <trkpt lat="42.95693" lon="2.3798">
        <ele>411.2</ele>
        <time>2021-03-21T11:06:51Z</time>
      </trkpt>
      <trkpt lat="42.95696" lon="2.37979">
        <ele>411.4</ele>
        <time>2021-03-21T11:06:52Z</time>
      </trkpt>
      <trkpt lat="42.957" lon="2.37978">
        <ele>411.6</ele>
        <time>2021-03-21T11:06:53Z</time>
      </trkpt>
      <trkpt lat="42.95706" lon="2.37976">
        <ele>411.9</ele>
        <time>2021-03-21T11:06:55Z</time>
      </trkpt>
      <trkpt lat="42.95709" lon="2.37974">
        <ele>412.2</ele>
        <time>2021-03-21T11:06:56Z</time>
      </trkpt>
      <trkpt lat="42.95713" lon="2.37972">
        <ele>412.4</ele>
        <time>2021-03-21T11:06:57Z</time>
      </trkpt>
      <trkpt lat="42.95717" lon="2.3797">
        <ele>412.7</ele>
        <time>2021-03-21T11:06:58Z</time>
      </trkpt>
      <trkpt lat="42.95721" lon="2.37969">
        <ele>412.9</ele>
        <time>2021-03-21T11:06:59Z</time>
      </trkpt>
      <trkpt lat="42.95727" lon="2.37968">
        <ele>413.2</ele>
        <time>2021-03-21T11:07:01Z</time>
      </trkpt>
      <trkpt lat="42.95732" lon="2.37968">
        <ele>413.5</ele>
        <time>2021-03-21T11:07:02Z</time>
      </trkpt>
      <trkpt lat="42.95737" lon="2.37967">
        <ele>413.7</ele>
        <time>2021-03-21T11:07:03Z</time>
      </trkpt>
      <trkpt lat="42.95741" lon="2.37966">
        <ele>413.9</ele>
        <time>2021-03-21T11:07:04Z</time>
      </trkpt>
      <trkpt lat="42.95747" lon="2.37964">
        <ele>414.3</ele>
        <time>2021-03-21T11:07:06Z</time>
      </trkpt>
      <trkpt lat="42.95753" lon="2.37961">
        <ele>414.6</ele>
        <time>2021-03-21T11:07:08Z</time>
      </trkpt>
      <trkpt lat="42.95757" lon="2.37958">
        <ele>414.8</ele>
        <time>2021-03-21T11:07:09Z</time>
      </trkpt>
      <trkpt lat="42.9576" lon="2.37956">
        <ele>415</ele>
        <time>2021-03-21T11:07:10Z</time>
      </trkpt>
      <trkpt lat="42.95764" lon="2.37952">
        <ele>415.2</ele>
        <time>2021-03-21T11:07:12Z</time>
      </trkpt>
      <trkpt lat="42.95768" lon="2.37949">
        <ele>415.5</ele>
        <time>2021-03-21T11:07:13Z</time>
      </trkpt>
      <trkpt lat="42.95773" lon="2.37945">
        <ele>415.8</ele>
        <time>2021-03-21T11:07:15Z</time>
      </trkpt>
      <trkpt lat="42.95776" lon="2.37942">
        <ele>416</ele>
        <time>2021-03-21T11:07:16Z</time>
      </trkpt>
      <trkpt lat="42.95778" lon="2.37938">
        <ele>416.2</ele>
        <time>2021-03-21T11:07:17Z</time>
      </trkpt>
      <trkpt lat="42.95781" lon="2.37931">
        <ele>416.5</ele>
        <time>2021-03-21T11:07:19Z</time>
      </trkpt>
      <trkpt lat="42.95783" lon="2.37925">
        <ele>416.8</ele>
        <time>2021-03-21T11:07:21Z</time>
      </trkpt>
      <trkpt lat="42.95785" lon="2.37917">
        <ele>417</ele>
        <time>2021-03-21T11:07:22Z</time>
      </trkpt>
      <trkpt lat="42.95787" lon="2.3791">
        <ele>417.3</ele>
        <time>2021-03-21T11:07:24Z</time>
      </trkpt>
      <trkpt lat="42.95787" lon="2.37903">
        <ele>417.6</ele>
        <time>2021-03-21T11:07:25Z</time>
      </trkpt>
      <trkpt lat="42.95788" lon="2.37897">
        <ele>417.8</ele>
        <time>2021-03-21T11:07:26Z</time>
      </trkpt>
      <trkpt lat="42.95787" lon="2.37889">
        <ele>418</ele>
        <time>2021-03-21T11:07:28Z</time>
      </trkpt>
      <trkpt lat="42.95786" lon="2.37883">
        <ele>418.2</ele>
        <time>2021-03-21T11:07:29Z</time>
      </trkpt>
      <trkpt lat="42.95785" lon="2.37878">
        <ele>418.4</ele>
        <time>2021-03-21T11:07:30Z</time>
      </trkpt>
      <trkpt lat="42.95783" lon="2.37871">
        <ele>418.6</ele>
        <time>2021-03-21T11:07:32Z</time>
      </trkpt>
      <trkpt lat="42.95781" lon="2.37868">
        <ele>418.8</ele>
        <time>2021-03-21T11:07:33Z</time>
      </trkpt>
      <trkpt lat="42.95779" lon="2.37859">
        <ele>419</ele>
        <time>2021-03-21T11:07:35Z</time>
      </trkpt>
      <trkpt lat="42.95778" lon="2.37854">
        <ele>419.2</ele>
        <time>2021-03-21T11:07:36Z</time>
      </trkpt>
      <trkpt lat="42.95777" lon="2.37852">
        <ele>419.3</ele>
        <time>2021-03-21T11:07:37Z</time>
      </trkpt>
      <trkpt lat="42.95775" lon="2.37847">
        <ele>419.5</ele>
        <time>2021-03-21T11:07:38Z</time>
      </trkpt>
      <trkpt lat="42.95773" lon="2.37842">
        <ele>419.7</ele>
        <time>2021-03-21T11:07:39Z</time>
      </trkpt>
      <trkpt lat="42.9577" lon="2.37835">
        <ele>420</ele>
        <time>2021-03-21T11:07:40Z</time>
      </trkpt>
      <trkpt lat="42.95769" lon="2.37829">
        <ele>420.2</ele>
        <time>2021-03-21T11:07:42Z</time>
      </trkpt>
      <trkpt lat="42.95768" lon="2.37823">
        <ele>420.4</ele>
        <time>2021-03-21T11:07:43Z</time>
      </trkpt>
      <trkpt lat="42.95767" lon="2.37817">
        <ele>420.6</ele>
        <time>2021-03-21T11:07:44Z</time>
      </trkpt>
      <trkpt lat="42.95767" lon="2.37812">
        <ele>420.8</ele>
        <time>2021-03-21T11:07:45Z</time>
      </trkpt>
      <trkpt lat="42.95768" lon="2.37804">
        <ele>421</ele>
        <time>2021-03-21T11:07:47Z</time>
      </trkpt>
      <trkpt lat="42.95768" lon="2.37799">
        <ele>421.2</ele>
        <time>2021-03-21T11:07:48Z</time>
      </trkpt>
      <trkpt lat="42.95768" lon="2.37792">
        <ele>421.4</ele>
        <time>2021-03-21T11:07:50Z</time>
      </trkpt>
      <trkpt lat="42.95769" lon="2.37785">
        <ele>421.6</ele>
        <time>2021-03-21T11:07:51Z</time>
      </trkpt>
      <trkpt lat="42.9577" lon="2.37774">
        <ele>422</ele>
        <time>2021-03-21T11:07:53Z</time>
      </trkpt>
      <trkpt lat="42.95771" lon="2.37767">
        <ele>422.2</ele>
        <time>2021-03-21T11:07:55Z</time>
      </trkpt>
      <trkpt lat="42.95772" lon="2.3776">
        <ele>422.5</ele>
        <time>2021-03-21T11:07:56Z</time>
      </trkpt>
      <trkpt lat="42.95775" lon="2.37753">
        <ele>422.8</ele>
        <time>2021-03-21T11:07:57Z</time>
      </trkpt>
      <trkpt lat="42.95778" lon="2.37747">
        <ele>423</ele>
        <time>2021-03-21T11:07:59Z</time>
      </trkpt>
      <trkpt lat="42.95781" lon="2.37742">
        <ele>423.3</ele>
        <time>2021-03-21T11:08:00Z</time>
      </trkpt>
      <trkpt lat="42.95784" lon="2.37739">
        <ele>423.5</ele>
        <time>2021-03-21T11:08:01Z</time>
      </trkpt>
      <trkpt lat="42.95788" lon="2.37737">
        <ele>423.7</ele>
        <time>2021-03-21T11:08:02Z</time>
      </trkpt>
      <trkpt lat="42.95791" lon="2.37735">
        <ele>423.9</ele>
        <time>2021-03-21T11:08:03Z</time>
      </trkpt>
      <trkpt lat="42.95797" lon="2.37731">
        <ele>424.2</ele>
        <time>2021-03-21T11:08:05Z</time>
      </trkpt>
      <trkpt lat="42.95803" lon="2.37729">
        <ele>424.5</ele>
        <time>2021-03-21T11:08:07Z</time>
      </trkpt>
      <trkpt lat="42.95808" lon="2.37727">
        <ele>424.7</ele>
        <time>2021-03-21T11:08:09Z</time>
      </trkpt>
      <trkpt lat="42.95814" lon="2.37728">
        <ele>425</ele>
        <time>2021-03-21T11:08:10Z</time>
      </trkpt>
      <trkpt lat="42.95819" lon="2.37731">
        <ele>425.3</ele>
        <time>2021-03-21T11:08:12Z</time>
      </trkpt>
      <trkpt lat="42.95823" lon="2.37734">
        <ele>425.4</ele>
        <time>2021-03-21T11:08:13Z</time>
      </trkpt>
      <trkpt lat="42.95826" lon="2.37738">
        <ele>425.6</ele>
        <time>2021-03-21T11:08:14Z</time>
      </trkpt>
      <trkpt lat="42.95829" lon="2.37744">
        <ele>425.8</ele>
        <time>2021-03-21T11:08:15Z</time>
      </trkpt>
      <trkpt lat="42.95832" lon="2.37754">
        <ele>426.1</ele>
        <time>2021-03-21T11:08:17Z</time>
      </trkpt>
      <trkpt lat="42.95833" lon="2.37763">
        <ele>426.4</ele>
        <time>2021-03-21T11:08:19Z</time>
      </trkpt>
      <trkpt lat="42.95833" lon="2.37769">
        <ele>426.5</ele>
        <time>2021-03-21T11:08:20Z</time>
      </trkpt>
      <trkpt lat="42.95834" lon="2.37775">
        <ele>426.7</ele>
        <time>2021-03-21T11:08:21Z</time>
      </trkpt>
      <trkpt lat="42.95834" lon="2.37781">
        <ele>426.9</ele>
        <time>2021-03-21T11:08:23Z</time>
      </trkpt>
      <trkpt lat="42.95835" lon="2.37788">
        <ele>427.1</ele>
        <time>2021-03-21T11:08:24Z</time>
      </trkpt>
      <trkpt lat="42.95836" lon="2.37793">
        <ele>427.3</ele>
        <time>2021-03-21T11:08:25Z</time>
      </trkpt>
      <trkpt lat="42.95836" lon="2.378">
        <ele>427.5</ele>
        <time>2021-03-21T11:08:27Z</time>
      </trkpt>
      <trkpt lat="42.95837" lon="2.37807">
        <ele>427.8</ele>
        <time>2021-03-21T11:08:28Z</time>
      </trkpt>
      <trkpt lat="42.95837" lon="2.37812">
        <ele>427.9</ele>
        <time>2021-03-21T11:08:29Z</time>
      </trkpt>
      <trkpt lat="42.95837" lon="2.3782">
        <ele>428.3</ele>
        <time>2021-03-21T11:08:31Z</time>
      </trkpt>
      <trkpt lat="42.95837" lon="2.37825">
        <ele>428.5</ele>
        <time>2021-03-21T11:08:32Z</time>
      </trkpt>
      <trkpt lat="42.95838" lon="2.37832">
        <ele>428.8</ele>
        <time>2021-03-21T11:08:34Z</time>
      </trkpt>
      <trkpt lat="42.95839" lon="2.37838">
        <ele>429.1</ele>
        <time>2021-03-21T11:08:35Z</time>
      </trkpt>
      <trkpt lat="42.95839" lon="2.37843">
        <ele>429.3</ele>
        <time>2021-03-21T11:08:36Z</time>
      </trkpt>
      <trkpt lat="42.95837" lon="2.3785">
        <ele>429.6</ele>
        <time>2021-03-21T11:08:38Z</time>
      </trkpt>
      <trkpt lat="42.95837" lon="2.37856">
        <ele>429.9</ele>
        <time>2021-03-21T11:08:39Z</time>
      </trkpt>
      <trkpt lat="42.95836" lon="2.37863">
        <ele>430.2</ele>
        <time>2021-03-21T11:08:41Z</time>
      </trkpt>
      <trkpt lat="42.95835" lon="2.37869">
        <ele>430.5</ele>
        <time>2021-03-21T11:08:42Z</time>
      </trkpt>
      <trkpt lat="42.95834" lon="2.37875">
        <ele>430.7</ele>
        <time>2021-03-21T11:08:43Z</time>
      </trkpt>
      <trkpt lat="42.95833" lon="2.37882">
        <ele>431</ele>
        <time>2021-03-21T11:08:45Z</time>
      </trkpt>
      <trkpt lat="42.95832" lon="2.37889">
        <ele>431.3</ele>
        <time>2021-03-21T11:08:46Z</time>
      </trkpt>
      <trkpt lat="42.95831" lon="2.37894">
        <ele>431.6</ele>
        <time>2021-03-21T11:08:47Z</time>
      </trkpt>
      <trkpt lat="42.95832" lon="2.37905">
        <ele>432</ele>
        <time>2021-03-21T11:08:49Z</time>
      </trkpt>
      <trkpt lat="42.95832" lon="2.3791">
        <ele>432.2</ele>
        <time>2021-03-21T11:08:50Z</time>
      </trkpt>
      <trkpt lat="42.95834" lon="2.37915">
        <ele>432.5</ele>
        <time>2021-03-21T11:08:51Z</time>
      </trkpt>
      <trkpt lat="42.95838" lon="2.37925">
        <ele>433</ele>
        <time>2021-03-21T11:08:53Z</time>
      </trkpt>
      <trkpt lat="42.95841" lon="2.37929">
        <ele>433.3</ele>
        <time>2021-03-21T11:08:54Z</time>
      </trkpt>
      <trkpt lat="42.95844" lon="2.37933">
        <ele>433.6</ele>
        <time>2021-03-21T11:08:55Z</time>
      </trkpt>
      <trkpt lat="42.95848" lon="2.37938">
        <ele>434</ele>
        <time>2021-03-21T11:08:57Z</time>
      </trkpt>
      <trkpt lat="42.95852" lon="2.37941">
        <ele>434.4</ele>
        <time>2021-03-21T11:08:58Z</time>
      </trkpt>
      <trkpt lat="42.95856" lon="2.37945">
        <ele>434.7</ele>
        <time>2021-03-21T11:08:59Z</time>
      </trkpt>
      <trkpt lat="42.9586" lon="2.37947">
        <ele>435.1</ele>
        <time>2021-03-21T11:09:00Z</time>
      </trkpt>
      <trkpt lat="42.95864" lon="2.37949">
        <ele>435.4</ele>
        <time>2021-03-21T11:09:01Z</time>
      </trkpt>
      <trkpt lat="42.95868" lon="2.37951">
        <ele>435.7</ele>
        <time>2021-03-21T11:09:02Z</time>
      </trkpt>
      <trkpt lat="42.95872" lon="2.37952">
        <ele>436.1</ele>
        <time>2021-03-21T11:09:03Z</time>
      </trkpt>
      <trkpt lat="42.95875" lon="2.37953">
        <ele>436.4</ele>
        <time>2021-03-21T11:09:05Z</time>
      </trkpt>
      <trkpt lat="42.95879" lon="2.37953">
        <ele>436.7</ele>
        <time>2021-03-21T11:09:06Z</time>
      </trkpt>
      <trkpt lat="42.95883" lon="2.37953">
        <ele>437</ele>
        <time>2021-03-21T11:09:07Z</time>
      </trkpt>
      <trkpt lat="42.95887" lon="2.37953">
        <ele>437.3</ele>
        <time>2021-03-21T11:09:08Z</time>
      </trkpt>
      <trkpt lat="42.95892" lon="2.37954">
        <ele>437.8</ele>
        <time>2021-03-21T11:09:10Z</time>
      </trkpt>
      <trkpt lat="42.95895" lon="2.37954">
        <ele>438.1</ele>
        <time>2021-03-21T11:09:11Z</time>
      </trkpt>
      <trkpt lat="42.95899" lon="2.37954">
        <ele>438.5</ele>
        <time>2021-03-21T11:09:12Z</time>
      </trkpt>
      <trkpt lat="42.95902" lon="2.37955">
        <ele>438.8</ele>
        <time>2021-03-21T11:09:13Z</time>
      </trkpt>
      <trkpt lat="42.95906" lon="2.37954">
        <ele>439.1</ele>
        <time>2021-03-21T11:09:14Z</time>
      </trkpt>
      <trkpt lat="42.9591" lon="2.37954">
        <ele>439.5</ele>
        <time>2021-03-21T11:09:16Z</time>
      </trkpt>
      <trkpt lat="42.95914" lon="2.37953">
        <ele>439.8</ele>
        <time>2021-03-21T11:09:17Z</time>
      </trkpt>
      <trkpt lat="42.95918" lon="2.37952">
        <ele>440.2</ele>
        <time>2021-03-21T11:09:18Z</time>
      </trkpt>
      <trkpt lat="42.95923" lon="2.37951">
        <ele>440.5</ele>
        <time>2021-03-21T11:09:19Z</time>
      </trkpt>
      <trkpt lat="42.95927" lon="2.3795">
        <ele>440.9</ele>
        <time>2021-03-21T11:09:20Z</time>
      </trkpt>
      <trkpt lat="42.95932" lon="2.37949">
        <ele>441.4</ele>
        <time>2021-03-21T11:09:22Z</time>
      </trkpt>
      <trkpt lat="42.95935" lon="2.37948">
        <ele>441.7</ele>
        <time>2021-03-21T11:09:23Z</time>
      </trkpt>
      <trkpt lat="42.95939" lon="2.37949">
        <ele>442.1</ele>
        <time>2021-03-21T11:09:24Z</time>
      </trkpt>
      <trkpt lat="42.95944" lon="2.37949">
        <ele>442.5</ele>
        <time>2021-03-21T11:09:26Z</time>
      </trkpt>
      <trkpt lat="42.95948" lon="2.37951">
        <ele>442.9</ele>
        <time>2021-03-21T11:09:27Z</time>
      </trkpt>
      <trkpt lat="42.95953" lon="2.37952">
        <ele>443.3</ele>
        <time>2021-03-21T11:09:28Z</time>
      </trkpt>
      <trkpt lat="42.95956" lon="2.37953">
        <ele>443.6</ele>
        <time>2021-03-21T11:09:29Z</time>
      </trkpt>
      <trkpt lat="42.95961" lon="2.37953">
        <ele>444</ele>
        <time>2021-03-21T11:09:31Z</time>
      </trkpt>
      <trkpt lat="42.95966" lon="2.37952">
        <ele>444.5</ele>
        <time>2021-03-21T11:09:32Z</time>
      </trkpt>
      <trkpt lat="42.9597" lon="2.37951">
        <ele>444.8</ele>
        <time>2021-03-21T11:09:33Z</time>
      </trkpt>
      <trkpt lat="42.95976" lon="2.3795">
        <ele>445.4</ele>
        <time>2021-03-21T11:09:35Z</time>
      </trkpt>
      <trkpt lat="42.95979" lon="2.37949">
        <ele>445.7</ele>
        <time>2021-03-21T11:09:36Z</time>
      </trkpt>
      <trkpt lat="42.95983" lon="2.37948">
        <ele>446.1</ele>
        <time>2021-03-21T11:09:37Z</time>
      </trkpt>
      <trkpt lat="42.95986" lon="2.37948">
        <ele>446.4</ele>
        <time>2021-03-21T11:09:38Z</time>
      </trkpt>
      <trkpt lat="42.95988" lon="2.37949">
        <ele>446.5</ele>
        <time>2021-03-21T11:09:39Z</time>
      </trkpt>
      <trkpt lat="42.95989" lon="2.37949">
        <ele>446.6</ele>
        <time>2021-03-21T11:09:40Z</time>
      </trkpt>
      <trkpt lat="42.9599" lon="2.37949">
        <ele>446.7</ele>
        <time>2021-03-21T11:09:42Z</time>
      </trkpt>
      <trkpt lat="42.95992" lon="2.37952">
        <ele>447</ele>
        <time>2021-03-21T11:09:43Z</time>
      </trkpt>
      <trkpt lat="42.95993" lon="2.37954">
        <ele>447.2</ele>
        <time>2021-03-21T11:09:44Z</time>
      </trkpt>
      <trkpt lat="42.95995" lon="2.37957">
        <ele>447.5</ele>
        <time>2021-03-21T11:09:45Z</time>
      </trkpt>
      <trkpt lat="42.95996" lon="2.37962">
        <ele>447.8</ele>
        <time>2021-03-21T11:09:47Z</time>
      </trkpt>
      <trkpt lat="42.95997" lon="2.37966">
        <ele>448.9</ele>
        <time>2021-03-21T11:09:48Z</time>
      </trkpt>
      <trkpt lat="42.95995" lon="2.37971">
        <ele>449.2</ele>
        <time>2021-03-21T11:09:49Z</time>
      </trkpt>
      <trkpt lat="42.95992" lon="2.37975">
        <ele>449.5</ele>
        <time>2021-03-21T11:09:51Z</time>
      </trkpt>
      <trkpt lat="42.95989" lon="2.37977">
        <ele>449.7</ele>
        <time>2021-03-21T11:09:52Z</time>
      </trkpt>
      <trkpt lat="42.95984" lon="2.37978">
        <ele>450</ele>
        <time>2021-03-21T11:09:53Z</time>
      </trkpt>
      <trkpt lat="42.9598" lon="2.37978">
        <ele>450.2</ele>
        <time>2021-03-21T11:09:54Z</time>
      </trkpt>
      <trkpt lat="42.95975" lon="2.37979">
        <ele>450.4</ele>
        <time>2021-03-21T11:09:56Z</time>
      </trkpt>
      <trkpt lat="42.95969" lon="2.3798">
        <ele>450.7</ele>
        <time>2021-03-21T11:09:58Z</time>
      </trkpt>
      <trkpt lat="42.95966" lon="2.37982">
        <ele>450.9</ele>
        <time>2021-03-21T11:09:59Z</time>
      </trkpt>
      <trkpt lat="42.95963" lon="2.37985">
        <ele>451.1</ele>
        <time>2021-03-21T11:10:01Z</time>
      </trkpt>
      <trkpt lat="42.9596" lon="2.37988">
        <ele>451.2</ele>
        <time>2021-03-21T11:10:02Z</time>
      </trkpt>
      <trkpt lat="42.95958" lon="2.37991">
        <ele>451.4</ele>
        <time>2021-03-21T11:10:03Z</time>
      </trkpt>
      <trkpt lat="42.95955" lon="2.37995">
        <ele>451.6</ele>
        <time>2021-03-21T11:10:04Z</time>
      </trkpt>
      <trkpt lat="42.95952" lon="2.37999">
        <ele>451.8</ele>
        <time>2021-03-21T11:10:05Z</time>
      </trkpt>
      <trkpt lat="42.9595" lon="2.38003">
        <ele>452</ele>
        <time>2021-03-21T11:10:06Z</time>
      </trkpt>
      <trkpt lat="42.95947" lon="2.38007">
        <ele>452.2</ele>
        <time>2021-03-21T11:10:07Z</time>
      </trkpt>
      <trkpt lat="42.95943" lon="2.38013">
        <ele>452.5</ele>
        <time>2021-03-21T11:10:09Z</time>
      </trkpt>
      <trkpt lat="42.9594" lon="2.38017">
        <ele>452.7</ele>
        <time>2021-03-21T11:10:10Z</time>
      </trkpt>
      <trkpt lat="42.95937" lon="2.38022">
        <ele>453</ele>
        <time>2021-03-21T11:10:12Z</time>
      </trkpt>
      <trkpt lat="42.95934" lon="2.38027">
        <ele>453.3</ele>
        <time>2021-03-21T11:10:13Z</time>
      </trkpt>
      <trkpt lat="42.95932" lon="2.38031">
        <ele>453.5</ele>
        <time>2021-03-21T11:10:14Z</time>
      </trkpt>
      <trkpt lat="42.9593" lon="2.38036">
        <ele>453.7</ele>
        <time>2021-03-21T11:10:15Z</time>
      </trkpt>
      <trkpt lat="42.95927" lon="2.38041">
        <ele>454</ele>
        <time>2021-03-21T11:10:16Z</time>
      </trkpt>
      <trkpt lat="42.95924" lon="2.38047">
        <ele>454.4</ele>
        <time>2021-03-21T11:10:18Z</time>
      </trkpt>
      <trkpt lat="42.95921" lon="2.38053">
        <ele>454.7</ele>
        <time>2021-03-21T11:10:20Z</time>
      </trkpt>
      <trkpt lat="42.95917" lon="2.38059">
        <ele>455.1</ele>
        <time>2021-03-21T11:10:21Z</time>
      </trkpt>
      <trkpt lat="42.95915" lon="2.38064">
        <ele>455.4</ele>
        <time>2021-03-21T11:10:22Z</time>
      </trkpt>
      <trkpt lat="42.95912" lon="2.38069">
        <ele>455.7</ele>
        <time>2021-03-21T11:10:24Z</time>
      </trkpt>
      <trkpt lat="42.95909" lon="2.38075">
        <ele>456.1</ele>
        <time>2021-03-21T11:10:25Z</time>
      </trkpt>
      <trkpt lat="42.95907" lon="2.38079">
        <ele>456.3</ele>
        <time>2021-03-21T11:10:26Z</time>
      </trkpt>
      <trkpt lat="42.95905" lon="2.38085">
        <ele>456.6</ele>
        <time>2021-03-21T11:10:28Z</time>
      </trkpt>
      <trkpt lat="42.95902" lon="2.38093">
        <ele>457</ele>
        <time>2021-03-21T11:10:29Z</time>
      </trkpt>
      <trkpt lat="42.959" lon="2.38102">
        <ele>457.5</ele>
        <time>2021-03-21T11:10:31Z</time>
      </trkpt>
      <trkpt lat="42.95899" lon="2.38108">
        <ele>457.7</ele>
        <time>2021-03-21T11:10:32Z</time>
      </trkpt>
      <trkpt lat="42.95899" lon="2.38116">
        <ele>458.1</ele>
        <time>2021-03-21T11:10:34Z</time>
      </trkpt>
      <trkpt lat="42.95898" lon="2.38122">
        <ele>458.4</ele>
        <time>2021-03-21T11:10:35Z</time>
      </trkpt>
      <trkpt lat="42.95896" lon="2.38129">
        <ele>458.8</ele>
        <time>2021-03-21T11:10:37Z</time>
      </trkpt>
      <trkpt lat="42.95895" lon="2.38135">
        <ele>459.1</ele>
        <time>2021-03-21T11:10:38Z</time>
      </trkpt>
      <trkpt lat="42.95893" lon="2.38141">
        <ele>459.4</ele>
        <time>2021-03-21T11:10:39Z</time>
      </trkpt>
      <trkpt lat="42.95891" lon="2.38145">
        <ele>459.6</ele>
        <time>2021-03-21T11:10:40Z</time>
      </trkpt>
      <trkpt lat="42.95888" lon="2.38152">
        <ele>460</ele>
        <time>2021-03-21T11:10:42Z</time>
      </trkpt>
      <trkpt lat="42.95885" lon="2.38156">
        <ele>460.2</ele>
        <time>2021-03-21T11:10:43Z</time>
      </trkpt>
      <trkpt lat="42.95881" lon="2.38162">
        <ele>460.6</ele>
        <time>2021-03-21T11:10:45Z</time>
      </trkpt>
      <trkpt lat="42.95876" lon="2.38168">
        <ele>461</ele>
        <time>2021-03-21T11:10:47Z</time>
      </trkpt>
      <trkpt lat="42.95873" lon="2.38173">
        <ele>461.4</ele>
        <time>2021-03-21T11:10:48Z</time>
      </trkpt>
      <trkpt lat="42.9587" lon="2.38177">
        <ele>461.6</ele>
        <time>2021-03-21T11:10:49Z</time>
      </trkpt>
      <trkpt lat="42.95868" lon="2.38181">
        <ele>461.9</ele>
        <time>2021-03-21T11:10:50Z</time>
      </trkpt>
      <trkpt lat="42.95865" lon="2.38187">
        <ele>462.3</ele>
        <time>2021-03-21T11:10:52Z</time>
      </trkpt>
      <trkpt lat="42.95862" lon="2.38192">
        <ele>462.6</ele>
        <time>2021-03-21T11:10:53Z</time>
      </trkpt>
      <trkpt lat="42.95858" lon="2.38199">
        <ele>463.1</ele>
        <time>2021-03-21T11:10:55Z</time>
      </trkpt>
      <trkpt lat="42.95856" lon="2.38203">
        <ele>463.3</ele>
        <time>2021-03-21T11:10:56Z</time>
      </trkpt>
      <trkpt lat="42.95851" lon="2.3821">
        <ele>463.8</ele>
        <time>2021-03-21T11:10:58Z</time>
      </trkpt>
      <trkpt lat="42.95847" lon="2.38215">
        <ele>464.3</ele>
        <time>2021-03-21T11:10:59Z</time>
      </trkpt>
      <trkpt lat="42.95844" lon="2.38221">
        <ele>464.7</ele>
        <time>2021-03-21T11:11:01Z</time>
      </trkpt>
      <trkpt lat="42.9584" lon="2.38225">
        <ele>465</ele>
        <time>2021-03-21T11:11:02Z</time>
      </trkpt>
      <trkpt lat="42.95837" lon="2.38229">
        <ele>465.3</ele>
        <time>2021-03-21T11:11:03Z</time>
      </trkpt>
      <trkpt lat="42.95835" lon="2.38233">
        <ele>465.5</ele>
        <time>2021-03-21T11:11:04Z</time>
      </trkpt>
      <trkpt lat="42.9583" lon="2.3824">
        <ele>466</ele>
        <time>2021-03-21T11:11:06Z</time>
      </trkpt>
      <trkpt lat="42.95827" lon="2.38243">
        <ele>466.2</ele>
        <time>2021-03-21T11:11:07Z</time>
      </trkpt>
      <trkpt lat="42.95823" lon="2.38248">
        <ele>466.6</ele>
        <time>2021-03-21T11:11:09Z</time>
      </trkpt>
      <trkpt lat="42.9582" lon="2.38252">
        <ele>466.9</ele>
        <time>2021-03-21T11:11:10Z</time>
      </trkpt>
      <trkpt lat="42.95817" lon="2.38257">
        <ele>467.2</ele>
        <time>2021-03-21T11:11:11Z</time>
      </trkpt>
      <trkpt lat="42.95813" lon="2.38261">
        <ele>467.5</ele>
        <time>2021-03-21T11:11:12Z</time>
      </trkpt>
      <trkpt lat="42.95809" lon="2.38267">
        <ele>468</ele>
        <time>2021-03-21T11:11:14Z</time>
      </trkpt>
      <trkpt lat="42.95806" lon="2.38271">
        <ele>468.3</ele>
        <time>2021-03-21T11:11:15Z</time>
      </trkpt>
      <trkpt lat="42.95803" lon="2.38276">
        <ele>468.6</ele>
        <time>2021-03-21T11:11:16Z</time>
      </trkpt>
      <trkpt lat="42.958" lon="2.38281">
        <ele>468.9</ele>
        <time>2021-03-21T11:11:17Z</time>
      </trkpt>
      <trkpt lat="42.95799" lon="2.38285">
        <ele>469.2</ele>
        <time>2021-03-21T11:11:18Z</time>
      </trkpt>
      <trkpt lat="42.95796" lon="2.38293">
        <ele>469.7</ele>
        <time>2021-03-21T11:11:20Z</time>
      </trkpt>
      <trkpt lat="42.95794" lon="2.38299">
        <ele>470</ele>
        <time>2021-03-21T11:11:21Z</time>
      </trkpt>
      <trkpt lat="42.95793" lon="2.38305">
        <ele>470.3</ele>
        <time>2021-03-21T11:11:22Z</time>
      </trkpt>
      <trkpt lat="42.95792" lon="2.38311">
        <ele>470.6</ele>
        <time>2021-03-21T11:11:23Z</time>
      </trkpt>
      <trkpt lat="42.95791" lon="2.38319">
        <ele>471</ele>
        <time>2021-03-21T11:11:25Z</time>
      </trkpt>
      <trkpt lat="42.95791" lon="2.38325">
        <ele>471.3</ele>
        <time>2021-03-21T11:11:26Z</time>
      </trkpt>
      <trkpt lat="42.95792" lon="2.3833">
        <ele>471.5</ele>
        <time>2021-03-21T11:11:27Z</time>
      </trkpt>
      <trkpt lat="42.95793" lon="2.38338">
        <ele>471.9</ele>
        <time>2021-03-21T11:11:28Z</time>
      </trkpt>
      <trkpt lat="42.95795" lon="2.38343">
        <ele>472.1</ele>
        <time>2021-03-21T11:11:29Z</time>
      </trkpt>
      <trkpt lat="42.95797" lon="2.38348">
        <ele>472.4</ele>
        <time>2021-03-21T11:11:30Z</time>
      </trkpt>
      <trkpt lat="42.958" lon="2.38352">
        <ele>472.6</ele>
        <time>2021-03-21T11:11:31Z</time>
      </trkpt>
      <trkpt lat="42.95804" lon="2.38358">
        <ele>472.9</ele>
        <time>2021-03-21T11:11:33Z</time>
      </trkpt>
      <trkpt lat="42.95809" lon="2.38363">
        <ele>473.1</ele>
        <time>2021-03-21T11:11:34Z</time>
      </trkpt>
      <trkpt lat="42.95812" lon="2.38366">
        <ele>473.3</ele>
        <time>2021-03-21T11:11:35Z</time>
      </trkpt>
      <trkpt lat="42.95814" lon="2.3837">
        <ele>473.5</ele>
        <time>2021-03-21T11:11:36Z</time>
      </trkpt>
      <trkpt lat="42.95818" lon="2.38373">
        <ele>473.7</ele>
        <time>2021-03-21T11:11:38Z</time>
      </trkpt>
      <trkpt lat="42.95823" lon="2.38377">
        <ele>474</ele>
        <time>2021-03-21T11:11:39Z</time>
      </trkpt>
      <trkpt lat="42.95826" lon="2.38379">
        <ele>474.2</ele>
        <time>2021-03-21T11:11:40Z</time>
      </trkpt>
      <trkpt lat="42.9583" lon="2.38381">
        <ele>474.4</ele>
        <time>2021-03-21T11:11:41Z</time>
      </trkpt>
      <trkpt lat="42.95836" lon="2.38382">
        <ele>474.6</ele>
        <time>2021-03-21T11:11:43Z</time>
      </trkpt>
      <trkpt lat="42.95839" lon="2.38383">
        <ele>474.9</ele>
        <time>2021-03-21T11:11:44Z</time>
      </trkpt>
      <trkpt lat="42.95844" lon="2.38383">
        <ele>475.1</ele>
        <time>2021-03-21T11:11:45Z</time>
      </trkpt>
      <trkpt lat="42.9585" lon="2.38384">
        <ele>475.4</ele>
        <time>2021-03-21T11:11:47Z</time>
      </trkpt>
      <trkpt lat="42.95853" lon="2.38384">
        <ele>475.6</ele>
        <time>2021-03-21T11:11:48Z</time>
      </trkpt>
      <trkpt lat="42.95856" lon="2.38385">
        <ele>475.8</ele>
        <time>2021-03-21T11:11:49Z</time>
      </trkpt>
      <trkpt lat="42.95859" lon="2.38387">
        <ele>476</ele>
        <time>2021-03-21T11:11:50Z</time>
      </trkpt>
      <trkpt lat="42.95862" lon="2.38388">
        <ele>476.2</ele>
        <time>2021-03-21T11:11:51Z</time>
      </trkpt>
      <trkpt lat="42.95867" lon="2.3839">
        <ele>476.5</ele>
        <time>2021-03-21T11:11:53Z</time>
      </trkpt>
      <trkpt lat="42.95871" lon="2.38391">
        <ele>476.7</ele>
        <time>2021-03-21T11:11:54Z</time>
      </trkpt>
      <trkpt lat="42.95876" lon="2.38393">
        <ele>477</ele>
        <time>2021-03-21T11:11:55Z</time>
      </trkpt>
      <trkpt lat="42.95881" lon="2.38393">
        <ele>477.3</ele>
        <time>2021-03-21T11:11:57Z</time>
      </trkpt>
      <trkpt lat="42.95887" lon="2.38393">
        <ele>477.7</ele>
        <time>2021-03-21T11:11:58Z</time>
      </trkpt>
      <trkpt lat="42.9589" lon="2.38393">
        <ele>477.9</ele>
        <time>2021-03-21T11:11:59Z</time>
      </trkpt>
      <trkpt lat="42.95895" lon="2.38392">
        <ele>478.2</ele>
        <time>2021-03-21T11:12:01Z</time>
      </trkpt>
      <trkpt lat="42.959" lon="2.38391">
        <ele>478.5</ele>
        <time>2021-03-21T11:12:02Z</time>
      </trkpt>
      <trkpt lat="42.95903" lon="2.3839">
        <ele>478.7</ele>
        <time>2021-03-21T11:12:03Z</time>
      </trkpt>
      <trkpt lat="42.95907" lon="2.38389">
        <ele>479</ele>
        <time>2021-03-21T11:12:04Z</time>
      </trkpt>
      <trkpt lat="42.9591" lon="2.38388">
        <ele>479.2</ele>
        <time>2021-03-21T11:12:05Z</time>
      </trkpt>
      <trkpt lat="42.95916" lon="2.38387">
        <ele>479.5</ele>
        <time>2021-03-21T11:12:07Z</time>
      </trkpt>
      <trkpt lat="42.95919" lon="2.38386">
        <ele>479.7</ele>
        <time>2021-03-21T11:12:08Z</time>
      </trkpt>
      <trkpt lat="42.95923" lon="2.38385">
        <ele>480</ele>
        <time>2021-03-21T11:12:09Z</time>
      </trkpt>
      <trkpt lat="42.95927" lon="2.38385">
        <ele>480.3</ele>
        <time>2021-03-21T11:12:10Z</time>
      </trkpt>
      <trkpt lat="42.95932" lon="2.38385">
        <ele>480.6</ele>
        <time>2021-03-21T11:12:12Z</time>
      </trkpt>
      <trkpt lat="42.95936" lon="2.38385">
        <ele>480.9</ele>
        <time>2021-03-21T11:12:13Z</time>
      </trkpt>
      <trkpt lat="42.95941" lon="2.38386">
        <ele>481.3</ele>
        <time>2021-03-21T11:12:14Z</time>
      </trkpt>
      <trkpt lat="42.95947" lon="2.38388">
        <ele>481.7</ele>
        <time>2021-03-21T11:12:16Z</time>
      </trkpt>
      <trkpt lat="42.9595" lon="2.3839">
        <ele>482</ele>
        <time>2021-03-21T11:12:17Z</time>
      </trkpt>
      <trkpt lat="42.95955" lon="2.38393">
        <ele>482.3</ele>
        <time>2021-03-21T11:12:18Z</time>
      </trkpt>
      <trkpt lat="42.9596" lon="2.38396">
        <ele>482.7</ele>
        <time>2021-03-21T11:12:19Z</time>
      </trkpt>
      <trkpt lat="42.95964" lon="2.384">
        <ele>483</ele>
        <time>2021-03-21T11:12:21Z</time>
      </trkpt>
      <trkpt lat="42.95969" lon="2.38404">
        <ele>483.3</ele>
        <time>2021-03-21T11:12:22Z</time>
      </trkpt>
      <trkpt lat="42.95973" lon="2.38407">
        <ele>483.6</ele>
        <time>2021-03-21T11:12:23Z</time>
      </trkpt>
      <trkpt lat="42.95979" lon="2.38411">
        <ele>484</ele>
        <time>2021-03-21T11:12:25Z</time>
      </trkpt>
      <trkpt lat="42.95983" lon="2.38413">
        <ele>484.2</ele>
        <time>2021-03-21T11:12:26Z</time>
      </trkpt>
      <trkpt lat="42.95987" lon="2.38414">
        <ele>484.5</ele>
        <time>2021-03-21T11:12:27Z</time>
      </trkpt>
      <trkpt lat="42.95993" lon="2.38414">
        <ele>484.8</ele>
        <time>2021-03-21T11:12:29Z</time>
      </trkpt>
      <trkpt lat="42.96" lon="2.38413">
        <ele>485.2</ele>
        <time>2021-03-21T11:12:31Z</time>
      </trkpt>
      <trkpt lat="42.96004" lon="2.38412">
        <ele>485.4</ele>
        <time>2021-03-21T11:12:32Z</time>
      </trkpt>
      <trkpt lat="42.96007" lon="2.38412">
        <ele>485.6</ele>
        <time>2021-03-21T11:12:33Z</time>
      </trkpt>
      <trkpt lat="42.96011" lon="2.38412">
        <ele>485.8</ele>
        <time>2021-03-21T11:12:34Z</time>
      </trkpt>
      <trkpt lat="42.96016" lon="2.38411">
        <ele>486</ele>
        <time>2021-03-21T11:12:35Z</time>
      </trkpt>
      <trkpt lat="42.9602" lon="2.3841">
        <ele>486.3</ele>
        <time>2021-03-21T11:12:36Z</time>
      </trkpt>
      <trkpt lat="42.96025" lon="2.38409">
        <ele>486.6</ele>
        <time>2021-03-21T11:12:38Z</time>
      </trkpt>
      <trkpt lat="42.96029" lon="2.38407">
        <ele>486.8</ele>
        <time>2021-03-21T11:12:39Z</time>
      </trkpt>
      <trkpt lat="42.96032" lon="2.38406">
        <ele>487</ele>
        <time>2021-03-21T11:12:40Z</time>
      </trkpt>
      <trkpt lat="42.96036" lon="2.38404">
        <ele>487.2</ele>
        <time>2021-03-21T11:12:41Z</time>
      </trkpt>
      <trkpt lat="42.96041" lon="2.38403">
        <ele>487.6</ele>
        <time>2021-03-21T11:12:43Z</time>
      </trkpt>
      <trkpt lat="42.96045" lon="2.38402">
        <ele>487.8</ele>
        <time>2021-03-21T11:12:44Z</time>
      </trkpt>
      <trkpt lat="42.9605" lon="2.38401">
        <ele>488.2</ele>
        <time>2021-03-21T11:12:46Z</time>
      </trkpt>
      <trkpt lat="42.96054" lon="2.38401">
        <ele>488.4</ele>
        <time>2021-03-21T11:12:47Z</time>
      </trkpt>
      <trkpt lat="42.96057" lon="2.384">
        <ele>488.7</ele>
        <time>2021-03-21T11:12:48Z</time>
      </trkpt>
      <trkpt lat="42.96061" lon="2.38401">
        <ele>488.9</ele>
        <time>2021-03-21T11:12:50Z</time>
      </trkpt>
      <trkpt lat="42.96066" lon="2.38401">
        <ele>489.2</ele>
        <time>2021-03-21T11:12:51Z</time>
      </trkpt>
      <trkpt lat="42.96067" lon="2.38402">
        <ele>489.3</ele>
        <time>2021-03-21T11:12:52Z</time>
      </trkpt>
      <trkpt lat="42.9607" lon="2.38403">
        <ele>489.5</ele>
        <time>2021-03-21T11:12:53Z</time>
      </trkpt>
      <trkpt lat="42.96075" lon="2.38406">
        <ele>489.8</ele>
        <time>2021-03-21T11:12:54Z</time>
      </trkpt>
      <trkpt lat="42.96079" lon="2.38409">
        <ele>490.1</ele>
        <time>2021-03-21T11:12:56Z</time>
      </trkpt>
      <trkpt lat="42.96083" lon="2.38412">
        <ele>490.4</ele>
        <time>2021-03-21T11:12:57Z</time>
      </trkpt>
      <trkpt lat="42.96086" lon="2.38414">
        <ele>490.6</ele>
        <time>2021-03-21T11:12:59Z</time>
      </trkpt>
      <trkpt lat="42.96091" lon="2.38417">
        <ele>490.9</ele>
        <time>2021-03-21T11:13:00Z</time>
      </trkpt>
      <trkpt lat="42.96097" lon="2.38419">
        <ele>491.2</ele>
        <time>2021-03-21T11:13:02Z</time>
      </trkpt>
      <trkpt lat="42.96101" lon="2.38421">
        <ele>491.5</ele>
        <time>2021-03-21T11:13:03Z</time>
      </trkpt>
      <trkpt lat="42.96106" lon="2.38422">
        <ele>491.8</ele>
        <time>2021-03-21T11:13:05Z</time>
      </trkpt>
      <trkpt lat="42.96111" lon="2.38423">
        <ele>492</ele>
        <time>2021-03-21T11:13:06Z</time>
      </trkpt>
      <trkpt lat="42.96116" lon="2.38425">
        <ele>492.3</ele>
        <time>2021-03-21T11:13:08Z</time>
      </trkpt>
      <trkpt lat="42.9612" lon="2.38427">
        <ele>492.6</ele>
        <time>2021-03-21T11:13:09Z</time>
      </trkpt>
      <trkpt lat="42.96124" lon="2.38428">
        <ele>492.8</ele>
        <time>2021-03-21T11:13:10Z</time>
      </trkpt>
      <trkpt lat="42.9613" lon="2.38431">
        <ele>493.2</ele>
        <time>2021-03-21T11:13:12Z</time>
      </trkpt>
      <trkpt lat="42.96135" lon="2.38433">
        <ele>493.6</ele>
        <time>2021-03-21T11:13:14Z</time>
      </trkpt>
      <trkpt lat="42.96139" lon="2.38434">
        <ele>493.9</ele>
        <time>2021-03-21T11:13:15Z</time>
      </trkpt>
      <trkpt lat="42.96142" lon="2.38436">
        <ele>494.2</ele>
        <time>2021-03-21T11:13:16Z</time>
      </trkpt>
      <trkpt lat="42.96145" lon="2.38438">
        <ele>494.5</ele>
        <time>2021-03-21T11:13:17Z</time>
      </trkpt>
      <trkpt lat="42.96149" lon="2.3844">
        <ele>494.9</ele>
        <time>2021-03-21T11:13:19Z</time>
      </trkpt>
      <trkpt lat="42.96153" lon="2.38441">
        <ele>495.2</ele>
        <time>2021-03-21T11:13:20Z</time>
      </trkpt>
      <trkpt lat="42.96156" lon="2.38441">
        <ele>495.5</ele>
        <time>2021-03-21T11:13:21Z</time>
      </trkpt>
      <trkpt lat="42.9616" lon="2.38442">
        <ele>495.8</ele>
        <time>2021-03-21T11:13:22Z</time>
      </trkpt>
      <trkpt lat="42.96163" lon="2.38442">
        <ele>496.1</ele>
        <time>2021-03-21T11:13:23Z</time>
      </trkpt>
      <trkpt lat="42.96168" lon="2.38443">
        <ele>496.5</ele>
        <time>2021-03-21T11:13:24Z</time>
      </trkpt>
      <trkpt lat="42.96171" lon="2.38443">
        <ele>496.8</ele>
        <time>2021-03-21T11:13:25Z</time>
      </trkpt>
      <trkpt lat="42.96176" lon="2.38443">
        <ele>497.2</ele>
        <time>2021-03-21T11:13:27Z</time>
      </trkpt>
      <trkpt lat="42.9618" lon="2.38443">
        <ele>497.5</ele>
        <time>2021-03-21T11:13:28Z</time>
      </trkpt>
      <trkpt lat="42.96185" lon="2.38442">
        <ele>497.9</ele>
        <time>2021-03-21T11:13:30Z</time>
      </trkpt>
      <trkpt lat="42.96188" lon="2.38441">
        <ele>498.2</ele>
        <time>2021-03-21T11:13:31Z</time>
      </trkpt>
      <trkpt lat="42.96192" lon="2.38441">
        <ele>498.4</ele>
        <time>2021-03-21T11:13:32Z</time>
      </trkpt>
      <trkpt lat="42.96196" lon="2.3844">
        <ele>498.7</ele>
        <time>2021-03-21T11:13:34Z</time>
      </trkpt>
      <trkpt lat="42.96203" lon="2.38437">
        <ele>499.1</ele>
        <time>2021-03-21T11:13:35Z</time>
      </trkpt>
      <trkpt lat="42.96207" lon="2.38436">
        <ele>499.3</ele>
        <time>2021-03-21T11:13:36Z</time>
      </trkpt>
      <trkpt lat="42.96215" lon="2.38434">
        <ele>499.8</ele>
        <time>2021-03-21T11:13:38Z</time>
      </trkpt>
      <trkpt lat="42.96221" lon="2.38434">
        <ele>500</ele>
        <time>2021-03-21T11:13:39Z</time>
      </trkpt>
      <trkpt lat="42.9623" lon="2.38432">
        <ele>500.6</ele>
        <time>2021-03-21T11:13:41Z</time>
      </trkpt>
      <trkpt lat="42.96234" lon="2.38432">
        <ele>500.8</ele>
        <time>2021-03-21T11:13:42Z</time>
      </trkpt>
      <trkpt lat="42.96238" lon="2.38432">
        <ele>501.1</ele>
        <time>2021-03-21T11:13:43Z</time>
      </trkpt>
      <trkpt lat="42.96246" lon="2.38433">
        <ele>501.5</ele>
        <time>2021-03-21T11:13:45Z</time>
      </trkpt>
      <trkpt lat="42.9625" lon="2.38434">
        <ele>501.8</ele>
        <time>2021-03-21T11:13:46Z</time>
      </trkpt>
      <trkpt lat="42.96255" lon="2.38435">
        <ele>502.1</ele>
        <time>2021-03-21T11:13:48Z</time>
      </trkpt>
      <trkpt lat="42.96261" lon="2.38438">
        <ele>502.5</ele>
        <time>2021-03-21T11:13:50Z</time>
      </trkpt>
      <trkpt lat="42.96265" lon="2.3844">
        <ele>502.7</ele>
        <time>2021-03-21T11:13:51Z</time>
      </trkpt>
      <trkpt lat="42.96266" lon="2.38441">
        <ele>502.8</ele>
        <time>2021-03-21T11:13:52Z</time>
      </trkpt>
      <trkpt lat="42.96269" lon="2.38442">
        <ele>503</ele>
        <time>2021-03-21T11:13:53Z</time>
      </trkpt>
      <trkpt lat="42.96273" lon="2.38444">
        <ele>503.2</ele>
        <time>2021-03-21T11:13:54Z</time>
      </trkpt>
      <trkpt lat="42.96279" lon="2.38447">
        <ele>503.7</ele>
        <time>2021-03-21T11:13:56Z</time>
      </trkpt>
      <trkpt lat="42.96281" lon="2.38448">
        <ele>503.8</ele>
        <time>2021-03-21T11:13:57Z</time>
      </trkpt>
      <trkpt lat="42.96285" lon="2.3845">
        <ele>504.1</ele>
        <time>2021-03-21T11:13:58Z</time>
      </trkpt>
      <trkpt lat="42.96288" lon="2.38452">
        <ele>504.3</ele>
        <time>2021-03-21T11:13:59Z</time>
      </trkpt>
      <trkpt lat="42.96296" lon="2.38456">
        <ele>504.9</ele>
        <time>2021-03-21T11:14:01Z</time>
      </trkpt>
      <trkpt lat="42.96299" lon="2.38458">
        <ele>505.1</ele>
        <time>2021-03-21T11:14:02Z</time>
      </trkpt>
      <trkpt lat="42.96302" lon="2.3846">
        <ele>505.3</ele>
        <time>2021-03-21T11:14:03Z</time>
      </trkpt>
      <trkpt lat="42.96306" lon="2.38463">
        <ele>505.7</ele>
        <time>2021-03-21T11:14:05Z</time>
      </trkpt>
      <trkpt lat="42.9631" lon="2.38466">
        <ele>506</ele>
        <time>2021-03-21T11:14:06Z</time>
      </trkpt>
      <trkpt lat="42.96315" lon="2.38469">
        <ele>506.3</ele>
        <time>2021-03-21T11:14:07Z</time>
      </trkpt>
      <trkpt lat="42.9632" lon="2.38473">
        <ele>506.7</ele>
        <time>2021-03-21T11:14:09Z</time>
      </trkpt>
      <trkpt lat="42.96324" lon="2.38477">
        <ele>507</ele>
        <time>2021-03-21T11:14:10Z</time>
      </trkpt>
      <trkpt lat="42.96328" lon="2.3848">
        <ele>507.3</ele>
        <time>2021-03-21T11:14:12Z</time>
      </trkpt>
      <trkpt lat="42.9633" lon="2.38483">
        <ele>507.4</ele>
        <time>2021-03-21T11:14:13Z</time>
      </trkpt>
      <trkpt lat="42.96334" lon="2.38486">
        <ele>507.7</ele>
        <time>2021-03-21T11:14:14Z</time>
      </trkpt>
      <trkpt lat="42.96337" lon="2.3849">
        <ele>507.9</ele>
        <time>2021-03-21T11:14:15Z</time>
      </trkpt>
      <trkpt lat="42.9634" lon="2.38495">
        <ele>508.2</ele>
        <time>2021-03-21T11:14:17Z</time>
      </trkpt>
      <trkpt lat="42.96343" lon="2.38498">
        <ele>508.4</ele>
        <time>2021-03-21T11:14:18Z</time>
      </trkpt>
      <trkpt lat="42.96346" lon="2.38501">
        <ele>508.6</ele>
        <time>2021-03-21T11:14:19Z</time>
      </trkpt>
      <trkpt lat="42.9635" lon="2.38507">
        <ele>508.9</ele>
        <time>2021-03-21T11:14:21Z</time>
      </trkpt>
      <trkpt lat="42.96352" lon="2.3851">
        <ele>509.1</ele>
        <time>2021-03-21T11:14:22Z</time>
      </trkpt>
      <trkpt lat="42.96354" lon="2.38513">
        <ele>509.3</ele>
        <time>2021-03-21T11:14:23Z</time>
      </trkpt>
      <trkpt lat="42.96356" lon="2.38517">
        <ele>509.5</ele>
        <time>2021-03-21T11:14:25Z</time>
      </trkpt>
      <trkpt lat="42.96358" lon="2.38521">
        <ele>509.7</ele>
        <time>2021-03-21T11:14:26Z</time>
      </trkpt>
      <trkpt lat="42.9636" lon="2.38524">
        <ele>509.9</ele>
        <time>2021-03-21T11:14:27Z</time>
      </trkpt>
      <trkpt lat="42.96361" lon="2.38527">
        <ele>510.1</ele>
        <time>2021-03-21T11:14:28Z</time>
      </trkpt>
      <trkpt lat="42.96364" lon="2.38531">
        <ele>510.3</ele>
        <time>2021-03-21T11:14:29Z</time>
      </trkpt>
      <trkpt lat="42.96366" lon="2.38536">
        <ele>510.6</ele>
        <time>2021-03-21T11:14:30Z</time>
      </trkpt>
      <trkpt lat="42.96369" lon="2.38542">
        <ele>511.1</ele>
        <time>2021-03-21T11:14:32Z</time>
      </trkpt>
      <trkpt lat="42.96371" lon="2.38547">
        <ele>511.5</ele>
        <time>2021-03-21T11:14:33Z</time>
      </trkpt>
      <trkpt lat="42.96374" lon="2.38554">
        <ele>511.9</ele>
        <time>2021-03-21T11:14:35Z</time>
      </trkpt>
      <trkpt lat="42.96376" lon="2.38559">
        <ele>512.3</ele>
        <time>2021-03-21T11:14:36Z</time>
      </trkpt>
      <trkpt lat="42.9638" lon="2.38565">
        <ele>512.8</ele>
        <time>2021-03-21T11:14:38Z</time>
      </trkpt>
      <trkpt lat="42.96386" lon="2.38571">
        <ele>513.3</ele>
        <time>2021-03-21T11:14:40Z</time>
      </trkpt>
      <trkpt lat="42.96389" lon="2.38573">
        <ele>513.5</ele>
        <time>2021-03-21T11:14:41Z</time>
      </trkpt>
      <trkpt lat="42.96394" lon="2.38576">
        <ele>513.9</ele>
        <time>2021-03-21T11:14:43Z</time>
      </trkpt>
      <trkpt lat="42.96398" lon="2.38578">
        <ele>514.2</ele>
        <time>2021-03-21T11:14:44Z</time>
      </trkpt>
      <trkpt lat="42.96402" lon="2.38579">
        <ele>514.4</ele>
        <time>2021-03-21T11:14:45Z</time>
      </trkpt>
      <trkpt lat="42.96408" lon="2.38581">
        <ele>514.8</ele>
        <time>2021-03-21T11:14:47Z</time>
      </trkpt>
      <trkpt lat="42.96412" lon="2.38582">
        <ele>515</ele>
        <time>2021-03-21T11:14:48Z</time>
      </trkpt>
      <trkpt lat="42.96415" lon="2.38583">
        <ele>515.2</ele>
        <time>2021-03-21T11:14:49Z</time>
      </trkpt>
      <trkpt lat="42.9642" lon="2.38583">
        <ele>515.5</ele>
        <time>2021-03-21T11:14:51Z</time>
      </trkpt>
      <trkpt lat="42.96424" lon="2.38583">
        <ele>515.7</ele>
        <time>2021-03-21T11:14:52Z</time>
      </trkpt>
      <trkpt lat="42.96427" lon="2.38583">
        <ele>515.9</ele>
        <time>2021-03-21T11:14:53Z</time>
      </trkpt>
      <trkpt lat="42.96431" lon="2.38583">
        <ele>516.2</ele>
        <time>2021-03-21T11:14:55Z</time>
      </trkpt>
      <trkpt lat="42.96435" lon="2.38583">
        <ele>516.5</ele>
        <time>2021-03-21T11:14:56Z</time>
      </trkpt>
      <trkpt lat="42.96438" lon="2.38583">
        <ele>516.7</ele>
        <time>2021-03-21T11:14:57Z</time>
      </trkpt>
      <trkpt lat="42.96443" lon="2.38583">
        <ele>517</ele>
        <time>2021-03-21T11:14:59Z</time>
      </trkpt>
      <trkpt lat="42.96448" lon="2.38583">
        <ele>517.4</ele>
        <time>2021-03-21T11:15:00Z</time>
      </trkpt>
      <trkpt lat="42.96455" lon="2.38583">
        <ele>517.8</ele>
        <time>2021-03-21T11:15:02Z</time>
      </trkpt>
      <trkpt lat="42.9646" lon="2.38582">
        <ele>518.2</ele>
        <time>2021-03-21T11:15:04Z</time>
      </trkpt>
      <trkpt lat="42.96464" lon="2.38581">
        <ele>518.4</ele>
        <time>2021-03-21T11:15:05Z</time>
      </trkpt>
      <trkpt lat="42.9647" lon="2.38581">
        <ele>518.8</ele>
        <time>2021-03-21T11:15:06Z</time>
      </trkpt>
      <trkpt lat="42.96473" lon="2.3858">
        <ele>519.1</ele>
        <time>2021-03-21T11:15:07Z</time>
      </trkpt>
      <trkpt lat="42.96478" lon="2.38579">
        <ele>519.4</ele>
        <time>2021-03-21T11:15:09Z</time>
      </trkpt>
      <trkpt lat="42.96482" lon="2.38578">
        <ele>519.7</ele>
        <time>2021-03-21T11:15:10Z</time>
      </trkpt>
      <trkpt lat="42.96486" lon="2.38578">
        <ele>520</ele>
        <time>2021-03-21T11:15:11Z</time>
      </trkpt>
      <trkpt lat="42.96491" lon="2.38578">
        <ele>520.3</ele>
        <time>2021-03-21T11:15:12Z</time>
      </trkpt>
      <trkpt lat="42.96497" lon="2.38577">
        <ele>520.8</ele>
        <time>2021-03-21T11:15:14Z</time>
      </trkpt>
      <trkpt lat="42.96502" lon="2.38578">
        <ele>521.1</ele>
        <time>2021-03-21T11:15:16Z</time>
      </trkpt>
      <trkpt lat="42.96505" lon="2.38578">
        <ele>521.4</ele>
        <time>2021-03-21T11:15:17Z</time>
      </trkpt>
      <trkpt lat="42.9651" lon="2.38578">
        <ele>521.7</ele>
        <time>2021-03-21T11:15:18Z</time>
      </trkpt>
      <trkpt lat="42.96516" lon="2.38577">
        <ele>522.2</ele>
        <time>2021-03-21T11:15:20Z</time>
      </trkpt>
      <trkpt lat="42.9652" lon="2.38578">
        <ele>522.4</ele>
        <time>2021-03-21T11:15:21Z</time>
      </trkpt>
      <trkpt lat="42.96523" lon="2.38578">
        <ele>522.7</ele>
        <time>2021-03-21T11:15:22Z</time>
      </trkpt>
      <trkpt lat="42.96529" lon="2.38579">
        <ele>523</ele>
        <time>2021-03-21T11:15:24Z</time>
      </trkpt>
      <trkpt lat="42.96534" lon="2.38579">
        <ele>523.4</ele>
        <time>2021-03-21T11:15:25Z</time>
      </trkpt>
      <trkpt lat="42.9654" lon="2.38579">
        <ele>523.8</ele>
        <time>2021-03-21T11:15:27Z</time>
      </trkpt>
      <trkpt lat="42.96544" lon="2.38579">
        <ele>524.1</ele>
        <time>2021-03-21T11:15:28Z</time>
      </trkpt>
      <trkpt lat="42.96547" lon="2.38579">
        <ele>524.3</ele>
        <time>2021-03-21T11:15:29Z</time>
      </trkpt>
      <trkpt lat="42.96551" lon="2.38579">
        <ele>524.5</ele>
        <time>2021-03-21T11:15:30Z</time>
      </trkpt>
      <trkpt lat="42.96556" lon="2.38579">
        <ele>524.9</ele>
        <time>2021-03-21T11:15:32Z</time>
      </trkpt>
      <trkpt lat="42.9656" lon="2.38578">
        <ele>525.2</ele>
        <time>2021-03-21T11:15:33Z</time>
      </trkpt>
      <trkpt lat="42.96567" lon="2.38576">
        <ele>525.6</ele>
        <time>2021-03-21T11:15:35Z</time>
      </trkpt>
      <trkpt lat="42.96571" lon="2.38575">
        <ele>525.9</ele>
        <time>2021-03-21T11:15:36Z</time>
      </trkpt>
      <trkpt lat="42.96575" lon="2.38572">
        <ele>526.2</ele>
        <time>2021-03-21T11:15:37Z</time>
      </trkpt>
      <trkpt lat="42.96579" lon="2.38568">
        <ele>526.5</ele>
        <time>2021-03-21T11:15:39Z</time>
      </trkpt>
      <trkpt lat="42.96584" lon="2.38565">
        <ele>526.8</ele>
        <time>2021-03-21T11:15:40Z</time>
      </trkpt>
      <trkpt lat="42.96587" lon="2.38561">
        <ele>527.1</ele>
        <time>2021-03-21T11:15:41Z</time>
      </trkpt>
      <trkpt lat="42.96591" lon="2.38555">
        <ele>527.4</ele>
        <time>2021-03-21T11:15:43Z</time>
      </trkpt>
      <trkpt lat="42.96594" lon="2.3855">
        <ele>527.7</ele>
        <time>2021-03-21T11:15:44Z</time>
      </trkpt>
      <trkpt lat="42.96598" lon="2.38543">
        <ele>528</ele>
        <time>2021-03-21T11:15:46Z</time>
      </trkpt>
      <trkpt lat="42.96601" lon="2.38539">
        <ele>528.3</ele>
        <time>2021-03-21T11:15:47Z</time>
      </trkpt>
      <trkpt lat="42.96604" lon="2.38534">
        <ele>528.6</ele>
        <time>2021-03-21T11:15:48Z</time>
      </trkpt>
      <trkpt lat="42.96608" lon="2.38527">
        <ele>529</ele>
        <time>2021-03-21T11:15:50Z</time>
      </trkpt>
      <trkpt lat="42.9661" lon="2.38522">
        <ele>529.2</ele>
        <time>2021-03-21T11:15:51Z</time>
      </trkpt>
      <trkpt lat="42.96612" lon="2.38517">
        <ele>529.5</ele>
        <time>2021-03-21T11:15:52Z</time>
      </trkpt>
      <trkpt lat="42.96614" lon="2.38511">
        <ele>529.8</ele>
        <time>2021-03-21T11:15:53Z</time>
      </trkpt>
      <trkpt lat="42.96616" lon="2.38505">
        <ele>530.1</ele>
        <time>2021-03-21T11:15:54Z</time>
      </trkpt>
      <trkpt lat="42.96618" lon="2.385">
        <ele>530.4</ele>
        <time>2021-03-21T11:15:55Z</time>
      </trkpt>
      <trkpt lat="42.96621" lon="2.38491">
        <ele>530.8</ele>
        <time>2021-03-21T11:15:57Z</time>
      </trkpt>
      <trkpt lat="42.96624" lon="2.38486">
        <ele>531.1</ele>
        <time>2021-03-21T11:15:58Z</time>
      </trkpt>
      <trkpt lat="42.96628" lon="2.3848">
        <ele>531.5</ele>
        <time>2021-03-21T11:16:00Z</time>
      </trkpt>
      <trkpt lat="42.96631" lon="2.38476">
        <ele>531.8</ele>
        <time>2021-03-21T11:16:01Z</time>
      </trkpt>
      <trkpt lat="42.96634" lon="2.38472">
        <ele>532.1</ele>
        <time>2021-03-21T11:16:02Z</time>
      </trkpt>
      <trkpt lat="42.96638" lon="2.38469">
        <ele>532.5</ele>
        <time>2021-03-21T11:16:03Z</time>
      </trkpt>
      <trkpt lat="42.96643" lon="2.38466">
        <ele>532.9</ele>
        <time>2021-03-21T11:16:05Z</time>
      </trkpt>
      <trkpt lat="42.96646" lon="2.38464">
        <ele>533.2</ele>
        <time>2021-03-21T11:16:06Z</time>
      </trkpt>
      <trkpt lat="42.96649" lon="2.38463">
        <ele>533.4</ele>
        <time>2021-03-21T11:16:07Z</time>
      </trkpt>
      <trkpt lat="42.96653" lon="2.38463">
        <ele>533.7</ele>
        <time>2021-03-21T11:16:09Z</time>
      </trkpt>
      <trkpt lat="42.96655" lon="2.38463">
        <ele>533.9</ele>
        <time>2021-03-21T11:16:10Z</time>
      </trkpt>
      <trkpt lat="42.96661" lon="2.38464">
        <ele>534.3</ele>
        <time>2021-03-21T11:16:12Z</time>
      </trkpt>
      <trkpt lat="42.96665" lon="2.38465">
        <ele>534.6</ele>
        <time>2021-03-21T11:16:14Z</time>
      </trkpt>
      <trkpt lat="42.96667" lon="2.38465">
        <ele>534.7</ele>
        <time>2021-03-21T11:16:15Z</time>
      </trkpt>
      <trkpt lat="42.96674" lon="2.38466">
        <ele>535.3</ele>
        <time>2021-03-21T11:16:17Z</time>
      </trkpt>
      <trkpt lat="42.96678" lon="2.38466">
        <ele>535.6</ele>
        <time>2021-03-21T11:16:18Z</time>
      </trkpt>
      <trkpt lat="42.96682" lon="2.38466">
        <ele>535.8</ele>
        <time>2021-03-21T11:16:19Z</time>
      </trkpt>
      <trkpt lat="42.96686" lon="2.38466">
        <ele>536.2</ele>
        <time>2021-03-21T11:16:21Z</time>
      </trkpt>
      <trkpt lat="42.96691" lon="2.38466">
        <ele>536.6</ele>
        <time>2021-03-21T11:16:22Z</time>
      </trkpt>
      <trkpt lat="42.96695" lon="2.38465">
        <ele>536.9</ele>
        <time>2021-03-21T11:16:23Z</time>
      </trkpt>
      <trkpt lat="42.967" lon="2.38464">
        <ele>537.2</ele>
        <time>2021-03-21T11:16:24Z</time>
      </trkpt>
      <trkpt lat="42.96704" lon="2.38463">
        <ele>537.5</ele>
        <time>2021-03-21T11:16:26Z</time>
      </trkpt>
      <trkpt lat="42.96709" lon="2.38463">
        <ele>537.8</ele>
        <time>2021-03-21T11:16:27Z</time>
      </trkpt>
      <trkpt lat="42.96713" lon="2.38462">
        <ele>538.2</ele>
        <time>2021-03-21T11:16:28Z</time>
      </trkpt>
      <trkpt lat="42.96716" lon="2.38462">
        <ele>538.4</ele>
        <time>2021-03-21T11:16:29Z</time>
      </trkpt>
      <trkpt lat="42.96721" lon="2.38462">
        <ele>538.7</ele>
        <time>2021-03-21T11:16:31Z</time>
      </trkpt>
      <trkpt lat="42.96725" lon="2.38462">
        <ele>539</ele>
        <time>2021-03-21T11:16:32Z</time>
      </trkpt>
      <trkpt lat="42.9673" lon="2.38462">
        <ele>539.4</ele>
        <time>2021-03-21T11:16:33Z</time>
      </trkpt>
      <trkpt lat="42.96735" lon="2.38461">
        <ele>539.9</ele>
        <time>2021-03-21T11:16:35Z</time>
      </trkpt>
      <trkpt lat="42.9674" lon="2.3846">
        <ele>540.4</ele>
        <time>2021-03-21T11:16:36Z</time>
      </trkpt>
      <trkpt lat="42.96744" lon="2.38459">
        <ele>540.9</ele>
        <time>2021-03-21T11:16:37Z</time>
      </trkpt>
      <trkpt lat="42.96747" lon="2.38458">
        <ele>541.3</ele>
        <time>2021-03-21T11:16:38Z</time>
      </trkpt>
      <trkpt lat="42.96752" lon="2.38456">
        <ele>541.8</ele>
        <time>2021-03-21T11:16:40Z</time>
      </trkpt>
      <trkpt lat="42.96756" lon="2.38454">
        <ele>542.3</ele>
        <time>2021-03-21T11:16:41Z</time>
      </trkpt>
      <trkpt lat="42.9676" lon="2.38452">
        <ele>542.7</ele>
        <time>2021-03-21T11:16:42Z</time>
      </trkpt>
      <trkpt lat="42.96764" lon="2.38451">
        <ele>543.2</ele>
        <time>2021-03-21T11:16:43Z</time>
      </trkpt>
      <trkpt lat="42.96767" lon="2.3845">
        <ele>543.6</ele>
        <time>2021-03-21T11:16:44Z</time>
      </trkpt>
      <trkpt lat="42.96772" lon="2.38449">
        <ele>544.2</ele>
        <time>2021-03-21T11:16:46Z</time>
      </trkpt>
      <trkpt lat="42.96775" lon="2.38451">
        <ele>544.6</ele>
        <time>2021-03-21T11:16:47Z</time>
      </trkpt>
      <trkpt lat="42.9678" lon="2.38455">
        <ele>545.2</ele>
        <time>2021-03-21T11:16:49Z</time>
      </trkpt>
      <trkpt lat="42.96784" lon="2.38458">
        <ele>545.7</ele>
        <time>2021-03-21T11:16:50Z</time>
      </trkpt>
      <trkpt lat="42.96789" lon="2.38464">
        <ele>546.5</ele>
        <time>2021-03-21T11:16:52Z</time>
      </trkpt>
      <trkpt lat="42.96792" lon="2.38466">
        <ele>546.8</ele>
        <time>2021-03-21T11:16:53Z</time>
      </trkpt>
      <trkpt lat="42.96796" lon="2.38469">
        <ele>547.3</ele>
        <time>2021-03-21T11:16:55Z</time>
      </trkpt>
      <trkpt lat="42.968" lon="2.3847">
        <ele>547.7</ele>
        <time>2021-03-21T11:16:56Z</time>
      </trkpt>
      <trkpt lat="42.96804" lon="2.38471">
        <ele>548.1</ele>
        <time>2021-03-21T11:16:57Z</time>
      </trkpt>
      <trkpt lat="42.96807" lon="2.38472">
        <ele>548.4</ele>
        <time>2021-03-21T11:16:58Z</time>
      </trkpt>
      <trkpt lat="42.9681" lon="2.38471">
        <ele>548.7</ele>
        <time>2021-03-21T11:16:59Z</time>
      </trkpt>
      <trkpt lat="42.96816" lon="2.38467">
        <ele>549.2</ele>
        <time>2021-03-21T11:17:01Z</time>
      </trkpt>
      <trkpt lat="42.9682" lon="2.38465">
        <ele>549.6</ele>
        <time>2021-03-21T11:17:02Z</time>
      </trkpt>
      <trkpt lat="42.96823" lon="2.38463">
        <ele>549.8</ele>
        <time>2021-03-21T11:17:04Z</time>
      </trkpt>
      <trkpt lat="42.96826" lon="2.38461">
        <ele>550</ele>
        <time>2021-03-21T11:17:05Z</time>
      </trkpt>
      <trkpt lat="42.96829" lon="2.38458">
        <ele>550.3</ele>
        <time>2021-03-21T11:17:06Z</time>
      </trkpt>
      <trkpt lat="42.96834" lon="2.38456">
        <ele>550.6</ele>
        <time>2021-03-21T11:17:08Z</time>
      </trkpt>
      <trkpt lat="42.96837" lon="2.38454">
        <ele>550.7</ele>
        <time>2021-03-21T11:17:09Z</time>
      </trkpt>
      <trkpt lat="42.9684" lon="2.38453">
        <ele>550.9</ele>
        <time>2021-03-21T11:17:10Z</time>
      </trkpt>
      <trkpt lat="42.96844" lon="2.38452">
        <ele>551.1</ele>
        <time>2021-03-21T11:17:12Z</time>
      </trkpt>
      <trkpt lat="42.96849" lon="2.38451">
        <ele>551.3</ele>
        <time>2021-03-21T11:17:13Z</time>
      </trkpt>
      <trkpt lat="42.96852" lon="2.38451">
        <ele>551.5</ele>
        <time>2021-03-21T11:17:14Z</time>
      </trkpt>
      <trkpt lat="42.96857" lon="2.3845">
        <ele>551.7</ele>
        <time>2021-03-21T11:17:16Z</time>
      </trkpt>
      <trkpt lat="42.96859" lon="2.38449">
        <ele>551.8</ele>
        <time>2021-03-21T11:17:17Z</time>
      </trkpt>
      <trkpt lat="42.96863" lon="2.38448">
        <ele>552</ele>
        <time>2021-03-21T11:17:18Z</time>
      </trkpt>
      <trkpt lat="42.96868" lon="2.38447">
        <ele>552.3</ele>
        <time>2021-03-21T11:17:20Z</time>
      </trkpt>
      <trkpt lat="42.96873" lon="2.38446">
        <ele>552.5</ele>
        <time>2021-03-21T11:17:21Z</time>
      </trkpt>
      <trkpt lat="42.96877" lon="2.38445">
        <ele>552.7</ele>
        <time>2021-03-21T11:17:22Z</time>
      </trkpt>
      <trkpt lat="42.96882" lon="2.38444">
        <ele>553</ele>
        <time>2021-03-21T11:17:23Z</time>
      </trkpt>
      <trkpt lat="42.96888" lon="2.38443">
        <ele>553.4</ele>
        <time>2021-03-21T11:17:25Z</time>
      </trkpt>
      <trkpt lat="42.96892" lon="2.38442">
        <ele>553.6</ele>
        <time>2021-03-21T11:17:26Z</time>
      </trkpt>
      <trkpt lat="42.96895" lon="2.38442">
        <ele>553.8</ele>
        <time>2021-03-21T11:17:27Z</time>
      </trkpt>
      <trkpt lat="42.969" lon="2.38443">
        <ele>554.1</ele>
        <time>2021-03-21T11:17:29Z</time>
      </trkpt>
      <trkpt lat="42.96904" lon="2.38446">
        <ele>554.4</ele>
        <time>2021-03-21T11:17:30Z</time>
      </trkpt>
      <trkpt lat="42.96907" lon="2.3845">
        <ele>554.7</ele>
        <time>2021-03-21T11:17:31Z</time>
      </trkpt>
      <trkpt lat="42.96909" lon="2.38454">
        <ele>554.9</ele>
        <time>2021-03-21T11:17:32Z</time>
      </trkpt>
      <trkpt lat="42.96911" lon="2.3846">
        <ele>555.1</ele>
        <time>2021-03-21T11:17:33Z</time>
      </trkpt>
      <trkpt lat="42.96915" lon="2.38469">
        <ele>555.3</ele>
        <time>2021-03-21T11:17:35Z</time>
      </trkpt>
      <trkpt lat="42.96916" lon="2.38474">
        <ele>555.4</ele>
        <time>2021-03-21T11:17:36Z</time>
      </trkpt>
      <trkpt lat="42.96915" lon="2.3848">
        <ele>555.5</ele>
        <time>2021-03-21T11:17:37Z</time>
      </trkpt>
      <trkpt lat="42.96914" lon="2.38484">
        <ele>555.6</ele>
        <time>2021-03-21T11:17:38Z</time>
      </trkpt>
      <trkpt lat="42.96913" lon="2.38488">
        <ele>555.6</ele>
        <time>2021-03-21T11:17:39Z</time>
      </trkpt>
      <trkpt lat="42.96912" lon="2.38492">
        <ele>555.7</ele>
        <time>2021-03-21T11:17:40Z</time>
      </trkpt>
      <trkpt lat="42.9691" lon="2.38496">
        <ele>555.7</ele>
        <time>2021-03-21T11:17:41Z</time>
      </trkpt>
      <trkpt lat="42.96908" lon="2.38503">
        <ele>555.8</ele>
        <time>2021-03-21T11:17:43Z</time>
      </trkpt>
      <trkpt lat="42.96906" lon="2.38508">
        <ele>556</ele>
        <time>2021-03-21T11:17:44Z</time>
      </trkpt>
      <trkpt lat="42.96905" lon="2.38513">
        <ele>556.1</ele>
        <time>2021-03-21T11:17:45Z</time>
      </trkpt>
      <trkpt lat="42.96903" lon="2.38518">
        <ele>556.2</ele>
        <time>2021-03-21T11:17:47Z</time>
      </trkpt>
      <trkpt lat="42.96901" lon="2.38524">
        <ele>556.4</ele>
        <time>2021-03-21T11:17:48Z</time>
      </trkpt>
      <trkpt lat="42.96897" lon="2.38531">
        <ele>556.7</ele>
        <time>2021-03-21T11:17:50Z</time>
      </trkpt>
      <trkpt lat="42.96895" lon="2.38538">
        <ele>556.9</ele>
        <time>2021-03-21T11:17:52Z</time>
      </trkpt>
      <trkpt lat="42.96893" lon="2.38543">
        <ele>557.1</ele>
        <time>2021-03-21T11:17:53Z</time>
      </trkpt>
      <trkpt lat="42.96893" lon="2.38548">
        <ele>557.3</ele>
        <time>2021-03-21T11:17:54Z</time>
      </trkpt>
      <trkpt lat="42.96893" lon="2.38554">
        <ele>557.5</ele>
        <time>2021-03-21T11:17:55Z</time>
      </trkpt>
      <trkpt lat="42.96892" lon="2.38559">
        <ele>557.8</ele>
        <time>2021-03-21T11:17:57Z</time>
      </trkpt>
      <trkpt lat="42.96892" lon="2.38566">
        <ele>558.1</ele>
        <time>2021-03-21T11:17:58Z</time>
      </trkpt>
      <trkpt lat="42.96892" lon="2.38573">
        <ele>558.5</ele>
        <time>2021-03-21T11:17:59Z</time>
      </trkpt>
      <trkpt lat="42.96891" lon="2.38581">
        <ele>558.9</ele>
        <time>2021-03-21T11:18:01Z</time>
      </trkpt>
      <trkpt lat="42.96889" lon="2.38587">
        <ele>559.4</ele>
        <time>2021-03-21T11:18:02Z</time>
      </trkpt>
      <trkpt lat="42.96888" lon="2.38592">
        <ele>559.7</ele>
        <time>2021-03-21T11:18:03Z</time>
      </trkpt>
      <trkpt lat="42.96887" lon="2.38598">
        <ele>560.1</ele>
        <time>2021-03-21T11:18:04Z</time>
      </trkpt>
      <trkpt lat="42.96887" lon="2.38605">
        <ele>560.7</ele>
        <time>2021-03-21T11:18:06Z</time>
      </trkpt>
      <trkpt lat="42.96888" lon="2.38613">
        <ele>561.3</ele>
        <time>2021-03-21T11:18:07Z</time>
      </trkpt>
      <trkpt lat="42.96889" lon="2.38619">
        <ele>561.7</ele>
        <time>2021-03-21T11:18:08Z</time>
      </trkpt>
      <trkpt lat="42.96891" lon="2.38623">
        <ele>562.1</ele>
        <time>2021-03-21T11:18:09Z</time>
      </trkpt>
      <trkpt lat="42.96892" lon="2.38629">
        <ele>562.5</ele>
        <time>2021-03-21T11:18:11Z</time>
      </trkpt>
      <trkpt lat="42.96895" lon="2.38636">
        <ele>563.2</ele>
        <time>2021-03-21T11:18:12Z</time>
      </trkpt>
      <trkpt lat="42.96898" lon="2.38641">
        <ele>563.6</ele>
        <time>2021-03-21T11:18:14Z</time>
      </trkpt>
      <trkpt lat="42.96902" lon="2.38645">
        <ele>564.1</ele>
        <time>2021-03-21T11:18:15Z</time>
      </trkpt>
      <trkpt lat="42.96905" lon="2.38648">
        <ele>564.3</ele>
        <time>2021-03-21T11:18:16Z</time>
      </trkpt>
      <trkpt lat="42.96911" lon="2.38652">
        <ele>564.8</ele>
        <time>2021-03-21T11:18:18Z</time>
      </trkpt>
      <trkpt lat="42.96913" lon="2.38654">
        <ele>565.1</ele>
        <time>2021-03-21T11:18:19Z</time>
      </trkpt>
      <trkpt lat="42.96916" lon="2.38657">
        <ele>565.4</ele>
        <time>2021-03-21T11:18:20Z</time>
      </trkpt>
      <trkpt lat="42.96919" lon="2.3866">
        <ele>565.7</ele>
        <time>2021-03-21T11:18:21Z</time>
      </trkpt>
      <trkpt lat="42.96922" lon="2.38664">
        <ele>566</ele>
        <time>2021-03-21T11:18:23Z</time>
      </trkpt>
      <trkpt lat="42.96925" lon="2.38667">
        <ele>566.4</ele>
        <time>2021-03-21T11:18:24Z</time>
      </trkpt>
      <trkpt lat="42.96928" lon="2.38671">
        <ele>566.7</ele>
        <time>2021-03-21T11:18:25Z</time>
      </trkpt>
      <trkpt lat="42.96931" lon="2.38677">
        <ele>567.3</ele>
        <time>2021-03-21T11:18:27Z</time>
      </trkpt>
      <trkpt lat="42.96933" lon="2.38682">
        <ele>567.7</ele>
        <time>2021-03-21T11:18:28Z</time>
      </trkpt>
      <trkpt lat="42.96935" lon="2.38689">
        <ele>568.4</ele>
        <time>2021-03-21T11:18:30Z</time>
      </trkpt>
      <trkpt lat="42.96936" lon="2.38697">
        <ele>569.1</ele>
        <time>2021-03-21T11:18:32Z</time>
      </trkpt>
      <trkpt lat="42.96936" lon="2.38703">
        <ele>569.7</ele>
        <time>2021-03-21T11:18:33Z</time>
      </trkpt>
      <trkpt lat="42.96937" lon="2.38707">
        <ele>570.2</ele>
        <time>2021-03-21T11:18:34Z</time>
      </trkpt>
      <trkpt lat="42.9694" lon="2.38713">
        <ele>570.9</ele>
        <time>2021-03-21T11:18:36Z</time>
      </trkpt>
      <trkpt lat="42.96942" lon="2.38717">
        <ele>571.4</ele>
        <time>2021-03-21T11:18:37Z</time>
      </trkpt>
      <trkpt lat="42.96947" lon="2.38721">
        <ele>572</ele>
        <time>2021-03-21T11:18:39Z</time>
      </trkpt>
      <trkpt lat="42.9695" lon="2.38723">
        <ele>572.5</ele>
        <time>2021-03-21T11:18:40Z</time>
      </trkpt>
      <trkpt lat="42.96956" lon="2.38725">
        <ele>573.1</ele>
        <time>2021-03-21T11:18:42Z</time>
      </trkpt>
      <trkpt lat="42.96959" lon="2.38726">
        <ele>573.4</ele>
        <time>2021-03-21T11:18:43Z</time>
      </trkpt>
      <trkpt lat="42.96963" lon="2.38728">
        <ele>573.7</ele>
        <time>2021-03-21T11:18:45Z</time>
      </trkpt>
      <trkpt lat="42.96966" lon="2.3873">
        <ele>574</ele>
        <time>2021-03-21T11:18:46Z</time>
      </trkpt>
      <trkpt lat="42.96969" lon="2.38733">
        <ele>574.2</ele>
        <time>2021-03-21T11:18:47Z</time>
      </trkpt>
      <trkpt lat="42.96973" lon="2.38737">
        <ele>574.6</ele>
        <time>2021-03-21T11:18:49Z</time>
      </trkpt>
      <trkpt lat="42.96976" lon="2.3874">
        <ele>574.9</ele>
        <time>2021-03-21T11:18:50Z</time>
      </trkpt>
      <trkpt lat="42.96979" lon="2.38744">
        <ele>575.2</ele>
        <time>2021-03-21T11:18:51Z</time>
      </trkpt>
      <trkpt lat="42.96981" lon="2.38747">
        <ele>575.5</ele>
        <time>2021-03-21T11:18:52Z</time>
      </trkpt>
      <trkpt lat="42.96983" lon="2.38752">
        <ele>575.9</ele>
        <time>2021-03-21T11:18:54Z</time>
      </trkpt>
      <trkpt lat="42.96986" lon="2.38757">
        <ele>576.3</ele>
        <time>2021-03-21T11:18:55Z</time>
      </trkpt>
      <trkpt lat="42.96988" lon="2.38761">
        <ele>576.7</ele>
        <time>2021-03-21T11:18:56Z</time>
      </trkpt>
      <trkpt lat="42.9699" lon="2.38765">
        <ele>577.1</ele>
        <time>2021-03-21T11:18:58Z</time>
      </trkpt>
      <trkpt lat="42.96992" lon="2.38771">
        <ele>577.7</ele>
        <time>2021-03-21T11:19:00Z</time>
      </trkpt>
      <trkpt lat="42.96993" lon="2.38775">
        <ele>578</ele>
        <time>2021-03-21T11:19:01Z</time>
      </trkpt>
      <trkpt lat="42.96994" lon="2.38779">
        <ele>578.4</ele>
        <time>2021-03-21T11:19:02Z</time>
      </trkpt>
      <trkpt lat="42.96994" lon="2.38785">
        <ele>578.8</ele>
        <time>2021-03-21T11:19:03Z</time>
      </trkpt>
      <trkpt lat="42.96993" lon="2.38789">
        <ele>579.2</ele>
        <time>2021-03-21T11:19:05Z</time>
      </trkpt>
      <trkpt lat="42.96991" lon="2.38794">
        <ele>579.6</ele>
        <time>2021-03-21T11:19:06Z</time>
      </trkpt>
      <trkpt lat="42.9699" lon="2.38799">
        <ele>579.9</ele>
        <time>2021-03-21T11:19:08Z</time>
      </trkpt>
      <trkpt lat="42.96988" lon="2.38804">
        <ele>580.2</ele>
        <time>2021-03-21T11:19:09Z</time>
      </trkpt>
      <trkpt lat="42.96987" lon="2.38808">
        <ele>580.5</ele>
        <time>2021-03-21T11:19:10Z</time>
      </trkpt>
      <trkpt lat="42.96985" lon="2.38813">
        <ele>580.7</ele>
        <time>2021-03-21T11:19:12Z</time>
      </trkpt>
      <trkpt lat="42.96985" lon="2.38815">
        <ele>580.8</ele>
        <time>2021-03-21T11:19:13Z</time>
      </trkpt>
      <trkpt lat="42.96984" lon="2.38816">
        <ele>580.9</ele>
        <time>2021-03-21T11:19:14Z</time>
      </trkpt>
      <trkpt lat="42.96983" lon="2.38821">
        <ele>581.1</ele>
        <time>2021-03-21T11:19:16Z</time>
      </trkpt>
      <trkpt lat="42.96983" lon="2.38825">
        <ele>581.3</ele>
        <time>2021-03-21T11:19:17Z</time>
      </trkpt>
      <trkpt lat="42.96982" lon="2.38827">
        <ele>581.3</ele>
        <time>2021-03-21T11:19:18Z</time>
      </trkpt>
      <trkpt lat="42.96982" lon="2.38831">
        <ele>581.5</ele>
        <time>2021-03-21T11:19:19Z</time>
      </trkpt>
      <trkpt lat="42.9698" lon="2.38838">
        <ele>581.8</ele>
        <time>2021-03-21T11:19:21Z</time>
      </trkpt>
      <trkpt lat="42.9698" lon="2.38841">
        <ele>581.9</ele>
        <time>2021-03-21T11:19:22Z</time>
      </trkpt>
      <trkpt lat="42.9698" lon="2.38846">
        <ele>582.1</ele>
        <time>2021-03-21T11:19:23Z</time>
      </trkpt>
      <trkpt lat="42.96979" lon="2.38851">
        <ele>582.4</ele>
        <time>2021-03-21T11:19:24Z</time>
      </trkpt>
      <trkpt lat="42.96979" lon="2.38855">
        <ele>582.6</ele>
        <time>2021-03-21T11:19:25Z</time>
      </trkpt>
      <trkpt lat="42.96979" lon="2.38859">
        <ele>582.8</ele>
        <time>2021-03-21T11:19:26Z</time>
      </trkpt>
      <trkpt lat="42.96979" lon="2.38867">
        <ele>583.2</ele>
        <time>2021-03-21T11:19:28Z</time>
      </trkpt>
      <trkpt lat="42.96979" lon="2.38873">
        <ele>583.5</ele>
        <time>2021-03-21T11:19:29Z</time>
      </trkpt>
      <trkpt lat="42.96978" lon="2.38879">
        <ele>583.8</ele>
        <time>2021-03-21T11:19:30Z</time>
      </trkpt>
      <trkpt lat="42.96978" lon="2.38886">
        <ele>584.1</ele>
        <time>2021-03-21T11:19:32Z</time>
      </trkpt>
      <trkpt lat="42.96977" lon="2.38893">
        <ele>584.5</ele>
        <time>2021-03-21T11:19:33Z</time>
      </trkpt>
      <trkpt lat="42.96977" lon="2.38899">
        <ele>584.8</ele>
        <time>2021-03-21T11:19:34Z</time>
      </trkpt>
      <trkpt lat="42.96977" lon="2.38905">
        <ele>585</ele>
        <time>2021-03-21T11:19:36Z</time>
      </trkpt>
      <trkpt lat="42.96978" lon="2.3891">
        <ele>585.3</ele>
        <time>2021-03-21T11:19:37Z</time>
      </trkpt>
      <trkpt lat="42.96978" lon="2.38916">
        <ele>585.6</ele>
        <time>2021-03-21T11:19:38Z</time>
      </trkpt>
      <trkpt lat="42.96979" lon="2.38924">
        <ele>586</ele>
        <time>2021-03-21T11:19:40Z</time>
      </trkpt>
      <trkpt lat="42.96979" lon="2.38931">
        <ele>586.3</ele>
        <time>2021-03-21T11:19:41Z</time>
      </trkpt>
      <trkpt lat="42.9698" lon="2.38935">
        <ele>586.6</ele>
        <time>2021-03-21T11:19:42Z</time>
      </trkpt>
      <trkpt lat="42.96981" lon="2.38941">
        <ele>586.9</ele>
        <time>2021-03-21T11:19:43Z</time>
      </trkpt>
      <trkpt lat="42.96982" lon="2.38946">
        <ele>587.2</ele>
        <time>2021-03-21T11:19:45Z</time>
      </trkpt>
      <trkpt lat="42.96983" lon="2.38953">
        <ele>587.7</ele>
        <time>2021-03-21T11:19:46Z</time>
      </trkpt>
      <trkpt lat="42.96984" lon="2.38957">
        <ele>588</ele>
        <time>2021-03-21T11:19:47Z</time>
      </trkpt>
      <trkpt lat="42.96986" lon="2.38963">
        <ele>588.4</ele>
        <time>2021-03-21T11:19:48Z</time>
      </trkpt>
      <trkpt lat="42.96987" lon="2.38968">
        <ele>588.8</ele>
        <time>2021-03-21T11:19:50Z</time>
      </trkpt>
      <trkpt lat="42.96989" lon="2.38974">
        <ele>589.3</ele>
        <time>2021-03-21T11:19:51Z</time>
      </trkpt>
      <trkpt lat="42.96991" lon="2.38978">
        <ele>589.6</ele>
        <time>2021-03-21T11:19:52Z</time>
      </trkpt>
      <trkpt lat="42.96992" lon="2.38982">
        <ele>590</ele>
        <time>2021-03-21T11:19:53Z</time>
      </trkpt>
      <trkpt lat="42.96994" lon="2.38986">
        <ele>590.3</ele>
        <time>2021-03-21T11:19:55Z</time>
      </trkpt>
      <trkpt lat="42.96995" lon="2.38991">
        <ele>590.7</ele>
        <time>2021-03-21T11:19:56Z</time>
      </trkpt>
      <trkpt lat="42.96997" lon="2.38996">
        <ele>591.1</ele>
        <time>2021-03-21T11:19:57Z</time>
      </trkpt>
      <trkpt lat="42.96999" lon="2.39002">
        <ele>591.5</ele>
        <time>2021-03-21T11:19:59Z</time>
      </trkpt>
      <trkpt lat="42.97001" lon="2.39007">
        <ele>591.8</ele>
        <time>2021-03-21T11:20:00Z</time>
      </trkpt>
      <trkpt lat="42.97002" lon="2.3901">
        <ele>592.1</ele>
        <time>2021-03-21T11:20:01Z</time>
      </trkpt>
      <trkpt lat="42.97004" lon="2.39014">
        <ele>592.5</ele>
        <time>2021-03-21T11:20:02Z</time>
      </trkpt>
      <trkpt lat="42.97007" lon="2.39021">
        <ele>593</ele>
        <time>2021-03-21T11:20:04Z</time>
      </trkpt>
      <trkpt lat="42.9701" lon="2.39027">
        <ele>593.6</ele>
        <time>2021-03-21T11:20:06Z</time>
      </trkpt>
      <trkpt lat="42.97012" lon="2.39031">
        <ele>593.9</ele>
        <time>2021-03-21T11:20:07Z</time>
      </trkpt>
      <trkpt lat="42.97014" lon="2.39034">
        <ele>594.2</ele>
        <time>2021-03-21T11:20:08Z</time>
      </trkpt>
      <trkpt lat="42.97018" lon="2.3904">
        <ele>594.7</ele>
        <time>2021-03-21T11:20:10Z</time>
      </trkpt>
      <trkpt lat="42.9702" lon="2.39045">
        <ele>595.1</ele>
        <time>2021-03-21T11:20:12Z</time>
      </trkpt>
      <trkpt lat="42.97023" lon="2.3905">
        <ele>595.5</ele>
        <time>2021-03-21T11:20:13Z</time>
      </trkpt>
      <trkpt lat="42.97024" lon="2.39054">
        <ele>595.8</ele>
        <time>2021-03-21T11:20:14Z</time>
      </trkpt>
      <trkpt lat="42.97026" lon="2.3906">
        <ele>596.2</ele>
        <time>2021-03-21T11:20:16Z</time>
      </trkpt>
      <trkpt lat="42.97027" lon="2.39064">
        <ele>596.4</ele>
        <time>2021-03-21T11:20:17Z</time>
      </trkpt>
      <trkpt lat="42.97028" lon="2.39069">
        <ele>596.8</ele>
        <time>2021-03-21T11:20:19Z</time>
      </trkpt>
      <trkpt lat="42.97029" lon="2.39074">
        <ele>597.1</ele>
        <time>2021-03-21T11:20:20Z</time>
      </trkpt>
      <trkpt lat="42.97029" lon="2.39079">
        <ele>597.4</ele>
        <time>2021-03-21T11:20:21Z</time>
      </trkpt>
      <trkpt lat="42.9703" lon="2.39084">
        <ele>597.8</ele>
        <time>2021-03-21T11:20:23Z</time>
      </trkpt>
      <trkpt lat="42.97032" lon="2.39088">
        <ele>598.1</ele>
        <time>2021-03-21T11:20:24Z</time>
      </trkpt>
      <trkpt lat="42.97033" lon="2.39094">
        <ele>598.5</ele>
        <time>2021-03-21T11:20:26Z</time>
      </trkpt>
      <trkpt lat="42.97034" lon="2.39099">
        <ele>598.8</ele>
        <time>2021-03-21T11:20:27Z</time>
      </trkpt>
      <trkpt lat="42.97035" lon="2.39105">
        <ele>599.2</ele>
        <time>2021-03-21T11:20:29Z</time>
      </trkpt>
      <trkpt lat="42.97036" lon="2.3911">
        <ele>599.5</ele>
        <time>2021-03-21T11:20:30Z</time>
      </trkpt>
      <trkpt lat="42.97037" lon="2.39114">
        <ele>599.8</ele>
        <time>2021-03-21T11:20:31Z</time>
      </trkpt>
      <trkpt lat="42.97039" lon="2.3912">
        <ele>600.2</ele>
        <time>2021-03-21T11:20:33Z</time>
      </trkpt>
      <trkpt lat="42.9704" lon="2.39124">
        <ele>600.6</ele>
        <time>2021-03-21T11:20:34Z</time>
      </trkpt>
      <trkpt lat="42.97042" lon="2.39129">
        <ele>600.9</ele>
        <time>2021-03-21T11:20:35Z</time>
      </trkpt>
      <trkpt lat="42.97045" lon="2.39135">
        <ele>601.3</ele>
        <time>2021-03-21T11:20:37Z</time>
      </trkpt>
      <trkpt lat="42.97047" lon="2.3914">
        <ele>601.8</ele>
        <time>2021-03-21T11:20:39Z</time>
      </trkpt>
      <trkpt lat="42.97049" lon="2.39145">
        <ele>602.1</ele>
        <time>2021-03-21T11:20:40Z</time>
      </trkpt>
      <trkpt lat="42.97051" lon="2.39149">
        <ele>602.5</ele>
        <time>2021-03-21T11:20:41Z</time>
      </trkpt>
      <trkpt lat="42.97054" lon="2.39156">
        <ele>603</ele>
        <time>2021-03-21T11:20:43Z</time>
      </trkpt>
      <trkpt lat="42.97055" lon="2.39161">
        <ele>603.3</ele>
        <time>2021-03-21T11:20:44Z</time>
      </trkpt>
      <trkpt lat="42.97058" lon="2.39166">
        <ele>603.7</ele>
        <time>2021-03-21T11:20:45Z</time>
      </trkpt>
      <trkpt lat="42.97062" lon="2.39172">
        <ele>604.3</ele>
        <time>2021-03-21T11:20:47Z</time>
      </trkpt>
      <trkpt lat="42.97065" lon="2.39176">
        <ele>604.7</ele>
        <time>2021-03-21T11:20:48Z</time>
      </trkpt>
      <trkpt lat="42.9707" lon="2.39181">
        <ele>605.2</ele>
        <time>2021-03-21T11:20:50Z</time>
      </trkpt>
      <trkpt lat="42.97073" lon="2.39184">
        <ele>605.6</ele>
        <time>2021-03-21T11:20:51Z</time>
      </trkpt>
      <trkpt lat="42.97078" lon="2.39188">
        <ele>606</ele>
        <time>2021-03-21T11:20:52Z</time>
      </trkpt>
      <trkpt lat="42.97081" lon="2.39191">
        <ele>606.4</ele>
        <time>2021-03-21T11:20:53Z</time>
      </trkpt>
      <trkpt lat="42.97085" lon="2.39194">
        <ele>606.8</ele>
        <time>2021-03-21T11:20:54Z</time>
      </trkpt>
      <trkpt lat="42.9709" lon="2.39197">
        <ele>607.3</ele>
        <time>2021-03-21T11:20:56Z</time>
      </trkpt>
      <trkpt lat="42.97094" lon="2.392">
        <ele>607.7</ele>
        <time>2021-03-21T11:20:57Z</time>
      </trkpt>
      <trkpt lat="42.97098" lon="2.39202">
        <ele>608</ele>
        <time>2021-03-21T11:20:59Z</time>
      </trkpt>
      <trkpt lat="42.97101" lon="2.39205">
        <ele>608.4</ele>
        <time>2021-03-21T11:21:00Z</time>
      </trkpt>
      <trkpt lat="42.97104" lon="2.39208">
        <ele>608.8</ele>
        <time>2021-03-21T11:21:01Z</time>
      </trkpt>
      <trkpt lat="42.97107" lon="2.39211">
        <ele>609.1</ele>
        <time>2021-03-21T11:21:03Z</time>
      </trkpt>
      <trkpt lat="42.9711" lon="2.39213">
        <ele>609.4</ele>
        <time>2021-03-21T11:21:04Z</time>
      </trkpt>
      <trkpt lat="42.97112" lon="2.39216">
        <ele>609.7</ele>
        <time>2021-03-21T11:21:05Z</time>
      </trkpt>
      <trkpt lat="42.97115" lon="2.39219">
        <ele>610.1</ele>
        <time>2021-03-21T11:21:07Z</time>
      </trkpt>
      <trkpt lat="42.97118" lon="2.39221">
        <ele>610.4</ele>
        <time>2021-03-21T11:21:08Z</time>
      </trkpt>
      <trkpt lat="42.9712" lon="2.39222">
        <ele>610.7</ele>
        <time>2021-03-21T11:21:09Z</time>
      </trkpt>
      <trkpt lat="42.97123" lon="2.39226">
        <ele>611</ele>
        <time>2021-03-21T11:21:10Z</time>
      </trkpt>
      <trkpt lat="42.97124" lon="2.39233">
        <ele>611.6</ele>
        <time>2021-03-21T11:21:12Z</time>
      </trkpt>
      <trkpt lat="42.97123" lon="2.39238">
        <ele>612</ele>
        <time>2021-03-21T11:21:13Z</time>
      </trkpt>
      <trkpt lat="42.97121" lon="2.39243">
        <ele>612</ele>
        <time>2021-03-21T11:21:14Z</time>
      </trkpt>
      <trkpt lat="42.9712" lon="2.39249">
        <ele>611.9</ele>
        <time>2021-03-21T11:21:16Z</time>
      </trkpt>
      <trkpt lat="42.97118" lon="2.39256">
        <ele>611.9</ele>
        <time>2021-03-21T11:21:17Z</time>
      </trkpt>
      <trkpt lat="42.97118" lon="2.39265">
        <ele>611.9</ele>
        <time>2021-03-21T11:21:19Z</time>
      </trkpt>
      <trkpt lat="42.97118" lon="2.39271">
        <ele>611.9</ele>
        <time>2021-03-21T11:21:20Z</time>
      </trkpt>
      <trkpt lat="42.97118" lon="2.39278">
        <ele>612</ele>
        <time>2021-03-21T11:21:21Z</time>
      </trkpt>
      <trkpt lat="42.9712" lon="2.39285">
        <ele>612.1</ele>
        <time>2021-03-21T11:21:22Z</time>
      </trkpt>
      <trkpt lat="42.97121" lon="2.39292">
        <ele>612.3</ele>
        <time>2021-03-21T11:21:23Z</time>
      </trkpt>
      <trkpt lat="42.97124" lon="2.393">
        <ele>612.5</ele>
        <time>2021-03-21T11:21:25Z</time>
      </trkpt>
      <trkpt lat="42.97127" lon="2.39306">
        <ele>612.6</ele>
        <time>2021-03-21T11:21:26Z</time>
      </trkpt>
      <trkpt lat="42.97129" lon="2.39311">
        <ele>612.8</ele>
        <time>2021-03-21T11:21:27Z</time>
      </trkpt>
      <trkpt lat="42.97132" lon="2.39317">
        <ele>613</ele>
        <time>2021-03-21T11:21:29Z</time>
      </trkpt>
      <trkpt lat="42.97136" lon="2.39323">
        <ele>613.2</ele>
        <time>2021-03-21T11:21:30Z</time>
      </trkpt>
      <trkpt lat="42.97136" lon="2.39323">
        <ele>613.2</ele>
        <time>2021-03-21T11:21:31Z</time>
      </trkpt>
      <trkpt lat="42.97136" lon="2.39325">
        <ele>613.3</ele>
        <time>2021-03-21T11:21:33Z</time>
      </trkpt>
      <trkpt lat="42.97137" lon="2.39326">
        <ele>613.3</ele>
        <time>2021-03-21T11:21:34Z</time>
      </trkpt>
      <trkpt lat="42.97137" lon="2.39326">
        <ele>613.4</ele>
        <time>2021-03-21T11:21:35Z</time>
      </trkpt>
      <trkpt lat="42.97137" lon="2.39326">
        <ele>613.4</ele>
        <time>2021-03-21T11:21:37Z</time>
      </trkpt>
      <trkpt lat="42.97137" lon="2.39326">
        <ele>613.4</ele>
        <time>2021-03-21T11:21:38Z</time>
      </trkpt>
      <trkpt lat="42.97139" lon="2.3933">
        <ele>613.5</ele>
        <time>2021-03-21T11:21:39Z</time>
      </trkpt>
      <trkpt lat="42.97144" lon="2.39337">
        <ele>613.9</ele>
        <time>2021-03-21T11:21:42Z</time>
      </trkpt>
      <trkpt lat="42.97147" lon="2.39344">
        <ele>614.1</ele>
        <time>2021-03-21T11:21:43Z</time>
      </trkpt>
      <trkpt lat="42.97152" lon="2.39351">
        <ele>614.5</ele>
        <time>2021-03-21T11:21:44Z</time>
      </trkpt>
      <trkpt lat="42.97156" lon="2.39359">
        <ele>614.9</ele>
        <time>2021-03-21T11:21:45Z</time>
      </trkpt>
      <trkpt lat="42.97161" lon="2.39367">
        <ele>615.3</ele>
        <time>2021-03-21T11:21:47Z</time>
      </trkpt>
      <trkpt lat="42.97165" lon="2.39375">
        <ele>615.7</ele>
        <time>2021-03-21T11:21:48Z</time>
      </trkpt>
      <trkpt lat="42.97169" lon="2.39383">
        <ele>616.1</ele>
        <time>2021-03-21T11:21:49Z</time>
      </trkpt>
      <trkpt lat="42.97175" lon="2.39396">
        <ele>616.8</ele>
        <time>2021-03-21T11:21:51Z</time>
      </trkpt>
      <trkpt lat="42.97179" lon="2.39405">
        <ele>617.2</ele>
        <time>2021-03-21T11:21:53Z</time>
      </trkpt>
      <trkpt lat="42.97182" lon="2.39413">
        <ele>617.6</ele>
        <time>2021-03-21T11:21:54Z</time>
      </trkpt>
      <trkpt lat="42.97183" lon="2.39423">
        <ele>618.4</ele>
        <time>2021-03-21T11:21:55Z</time>
      </trkpt>
      <trkpt lat="42.97183" lon="2.39429">
        <ele>618.7</ele>
        <time>2021-03-21T11:21:56Z</time>
      </trkpt>
      <trkpt lat="42.97181" lon="2.39438">
        <ele>619.1</ele>
        <time>2021-03-21T11:21:58Z</time>
      </trkpt>
      <trkpt lat="42.97178" lon="2.39447">
        <ele>619.5</ele>
        <time>2021-03-21T11:21:59Z</time>
      </trkpt>
      <trkpt lat="42.97173" lon="2.39454">
        <ele>619.9</ele>
        <time>2021-03-21T11:22:01Z</time>
      </trkpt>
      <trkpt lat="42.9717" lon="2.39457">
        <ele>620.1</ele>
        <time>2021-03-21T11:22:02Z</time>
      </trkpt>
      <trkpt lat="42.97165" lon="2.39459">
        <ele>620.3</ele>
        <time>2021-03-21T11:22:04Z</time>
      </trkpt>
      <trkpt lat="42.9716" lon="2.39461">
        <ele>620.6</ele>
        <time>2021-03-21T11:22:05Z</time>
      </trkpt>
      <trkpt lat="42.97154" lon="2.39464">
        <ele>620.9</ele>
        <time>2021-03-21T11:22:07Z</time>
      </trkpt>
      <trkpt lat="42.97151" lon="2.39465">
        <ele>621.1</ele>
        <time>2021-03-21T11:22:08Z</time>
      </trkpt>
      <trkpt lat="42.97148" lon="2.39467">
        <ele>621.2</ele>
        <time>2021-03-21T11:22:09Z</time>
      </trkpt>
      <trkpt lat="42.97145" lon="2.39471">
        <ele>621.4</ele>
        <time>2021-03-21T11:22:11Z</time>
      </trkpt>
      <trkpt lat="42.97143" lon="2.39476">
        <ele>621.6</ele>
        <time>2021-03-21T11:22:12Z</time>
      </trkpt>
      <trkpt lat="42.9714" lon="2.39481">
        <ele>621.8</ele>
        <time>2021-03-21T11:22:13Z</time>
      </trkpt>
      <trkpt lat="42.97139" lon="2.39487">
        <ele>622</ele>
        <time>2021-03-21T11:22:14Z</time>
      </trkpt>
      <trkpt lat="42.97138" lon="2.39496">
        <ele>622.3</ele>
        <time>2021-03-21T11:22:16Z</time>
      </trkpt>
      <trkpt lat="42.97137" lon="2.39503">
        <ele>622.5</ele>
        <time>2021-03-21T11:22:17Z</time>
      </trkpt>
      <trkpt lat="42.97138" lon="2.39512">
        <ele>622.8</ele>
        <time>2021-03-21T11:22:19Z</time>
      </trkpt>
      <trkpt lat="42.97138" lon="2.39519">
        <ele>623</ele>
        <time>2021-03-21T11:22:20Z</time>
      </trkpt>
      <trkpt lat="42.97138" lon="2.39525">
        <ele>623.2</ele>
        <time>2021-03-21T11:22:21Z</time>
      </trkpt>
      <trkpt lat="42.97138" lon="2.39531">
        <ele>623.3</ele>
        <time>2021-03-21T11:22:22Z</time>
      </trkpt>
      <trkpt lat="42.97138" lon="2.3954">
        <ele>623.6</ele>
        <time>2021-03-21T11:22:24Z</time>
      </trkpt>
      <trkpt lat="42.97138" lon="2.39546">
        <ele>623.8</ele>
        <time>2021-03-21T11:22:25Z</time>
      </trkpt>
      <trkpt lat="42.97139" lon="2.39552">
        <ele>623.9</ele>
        <time>2021-03-21T11:22:26Z</time>
      </trkpt>
      <trkpt lat="42.97139" lon="2.39558">
        <ele>624.1</ele>
        <time>2021-03-21T11:22:27Z</time>
      </trkpt>
      <trkpt lat="42.97139" lon="2.39565">
        <ele>624.3</ele>
        <time>2021-03-21T11:22:29Z</time>
      </trkpt>
      <trkpt lat="42.97139" lon="2.39571">
        <ele>624.5</ele>
        <time>2021-03-21T11:22:30Z</time>
      </trkpt>
      <trkpt lat="42.9714" lon="2.39577">
        <ele>624.7</ele>
        <time>2021-03-21T11:22:31Z</time>
      </trkpt>
      <trkpt lat="42.97141" lon="2.39584">
        <ele>624.9</ele>
        <time>2021-03-21T11:22:32Z</time>
      </trkpt>
      <trkpt lat="42.97143" lon="2.39593">
        <ele>625.2</ele>
        <time>2021-03-21T11:22:34Z</time>
      </trkpt>
      <trkpt lat="42.97146" lon="2.39602">
        <ele>625.5</ele>
        <time>2021-03-21T11:22:36Z</time>
      </trkpt>
      <trkpt lat="42.97149" lon="2.3961">
        <ele>625.9</ele>
        <time>2021-03-21T11:22:37Z</time>
      </trkpt>
      <trkpt lat="42.97151" lon="2.39615">
        <ele>626</ele>
        <time>2021-03-21T11:22:38Z</time>
      </trkpt>
      <trkpt lat="42.97153" lon="2.39621">
        <ele>626.3</ele>
        <time>2021-03-21T11:22:39Z</time>
      </trkpt>
      <trkpt lat="42.97155" lon="2.39628">
        <ele>626.5</ele>
        <time>2021-03-21T11:22:41Z</time>
      </trkpt>
      <trkpt lat="42.97157" lon="2.39635">
        <ele>626.8</ele>
        <time>2021-03-21T11:22:42Z</time>
      </trkpt>
      <trkpt lat="42.97158" lon="2.3964">
        <ele>627</ele>
        <time>2021-03-21T11:22:44Z</time>
      </trkpt>
      <trkpt lat="42.97159" lon="2.39645">
        <ele>627.1</ele>
        <time>2021-03-21T11:22:45Z</time>
      </trkpt>
      <trkpt lat="42.9716" lon="2.39649">
        <ele>627.3</ele>
        <time>2021-03-21T11:22:47Z</time>
      </trkpt>
      <trkpt lat="42.97161" lon="2.3965">
        <ele>627.3</ele>
        <time>2021-03-21T11:22:48Z</time>
      </trkpt>
      <trkpt lat="42.97162" lon="2.39654">
        <ele>627.5</ele>
        <time>2021-03-21T11:22:49Z</time>
      </trkpt>
      <trkpt lat="42.97163" lon="2.39655">
        <ele>627.5</ele>
        <time>2021-03-21T11:22:50Z</time>
      </trkpt>
      <trkpt lat="42.97164" lon="2.39659">
        <ele>627.7</ele>
        <time>2021-03-21T11:22:51Z</time>
      </trkpt>
      <trkpt lat="42.97165" lon="2.3966">
        <ele>627.7</ele>
        <time>2021-03-21T11:22:52Z</time>
      </trkpt>
      <trkpt lat="42.97166" lon="2.39663">
        <ele>627.8</ele>
        <time>2021-03-21T11:22:53Z</time>
      </trkpt>
      <trkpt lat="42.97169" lon="2.39668">
        <ele>628.1</ele>
        <time>2021-03-21T11:22:55Z</time>
      </trkpt>
      <trkpt lat="42.97171" lon="2.39673">
        <ele>628.3</ele>
        <time>2021-03-21T11:22:56Z</time>
      </trkpt>
      <trkpt lat="42.97173" lon="2.3968">
        <ele>628.6</ele>
        <time>2021-03-21T11:22:58Z</time>
      </trkpt>
      <trkpt lat="42.97176" lon="2.39686">
        <ele>628.8</ele>
        <time>2021-03-21T11:22:59Z</time>
      </trkpt>
      <trkpt lat="42.9718" lon="2.39694">
        <ele>629.1</ele>
        <time>2021-03-21T11:23:00Z</time>
      </trkpt>
      <trkpt lat="42.97182" lon="2.39699">
        <ele>629.3</ele>
        <time>2021-03-21T11:23:01Z</time>
      </trkpt>
      <trkpt lat="42.97184" lon="2.39705">
        <ele>629.6</ele>
        <time>2021-03-21T11:23:03Z</time>
      </trkpt>
      <trkpt lat="42.97187" lon="2.39711">
        <ele>629.8</ele>
        <time>2021-03-21T11:23:04Z</time>
      </trkpt>
      <trkpt lat="42.9719" lon="2.39717">
        <ele>630.1</ele>
        <time>2021-03-21T11:23:05Z</time>
      </trkpt>
      <trkpt lat="42.97192" lon="2.39722">
        <ele>630.3</ele>
        <time>2021-03-21T11:23:06Z</time>
      </trkpt>
      <trkpt lat="42.97194" lon="2.39727">
        <ele>630.5</ele>
        <time>2021-03-21T11:23:07Z</time>
      </trkpt>
      <trkpt lat="42.97197" lon="2.39734">
        <ele>630.8</ele>
        <time>2021-03-21T11:23:09Z</time>
      </trkpt>
      <trkpt lat="42.972" lon="2.39741">
        <ele>631.1</ele>
        <time>2021-03-21T11:23:10Z</time>
      </trkpt>
      <trkpt lat="42.97204" lon="2.39748">
        <ele>631.4</ele>
        <time>2021-03-21T11:23:12Z</time>
      </trkpt>
      <trkpt lat="42.97208" lon="2.39753">
        <ele>631.6</ele>
        <time>2021-03-21T11:23:13Z</time>
      </trkpt>
      <trkpt lat="42.97212" lon="2.39757">
        <ele>631.8</ele>
        <time>2021-03-21T11:23:15Z</time>
      </trkpt>
      <trkpt lat="42.97217" lon="2.3976">
        <ele>632.1</ele>
        <time>2021-03-21T11:23:16Z</time>
      </trkpt>
      <trkpt lat="42.97221" lon="2.39762">
        <ele>632.3</ele>
        <time>2021-03-21T11:23:17Z</time>
      </trkpt>
      <trkpt lat="42.97226" lon="2.39764">
        <ele>632.6</ele>
        <time>2021-03-21T11:23:19Z</time>
      </trkpt>
      <trkpt lat="42.97231" lon="2.39764">
        <ele>632.8</ele>
        <time>2021-03-21T11:23:20Z</time>
      </trkpt>
      <trkpt lat="42.97237" lon="2.39764">
        <ele>633.1</ele>
        <time>2021-03-21T11:23:21Z</time>
      </trkpt>
      <trkpt lat="42.97242" lon="2.39764">
        <ele>633.3</ele>
        <time>2021-03-21T11:23:23Z</time>
      </trkpt>
      <trkpt lat="42.97247" lon="2.39763">
        <ele>633.5</ele>
        <time>2021-03-21T11:23:24Z</time>
      </trkpt>
      <trkpt lat="42.97253" lon="2.39764">
        <ele>633.7</ele>
        <time>2021-03-21T11:23:25Z</time>
      </trkpt>
      <trkpt lat="42.97258" lon="2.39765">
        <ele>634</ele>
        <time>2021-03-21T11:23:27Z</time>
      </trkpt>
      <trkpt lat="42.97263" lon="2.39767">
        <ele>634.2</ele>
        <time>2021-03-21T11:23:28Z</time>
      </trkpt>
      <trkpt lat="42.97267" lon="2.39769">
        <ele>634.4</ele>
        <time>2021-03-21T11:23:29Z</time>
      </trkpt>
      <trkpt lat="42.97271" lon="2.39773">
        <ele>634.5</ele>
        <time>2021-03-21T11:23:30Z</time>
      </trkpt>
      <trkpt lat="42.97275" lon="2.39778">
        <ele>634.7</ele>
        <time>2021-03-21T11:23:31Z</time>
      </trkpt>
      <trkpt lat="42.97278" lon="2.39785">
        <ele>635</ele>
        <time>2021-03-21T11:23:33Z</time>
      </trkpt>
      <trkpt lat="42.97279" lon="2.39791">
        <ele>635.1</ele>
        <time>2021-03-21T11:23:34Z</time>
      </trkpt>
      <trkpt lat="42.9728" lon="2.39798">
        <ele>635.3</ele>
        <time>2021-03-21T11:23:35Z</time>
      </trkpt>
      <trkpt lat="42.9728" lon="2.39806">
        <ele>635.5</ele>
        <time>2021-03-21T11:23:36Z</time>
      </trkpt>
      <trkpt lat="42.97281" lon="2.39814">
        <ele>635.7</ele>
        <time>2021-03-21T11:23:38Z</time>
      </trkpt>
      <trkpt lat="42.97281" lon="2.39822">
        <ele>635.9</ele>
        <time>2021-03-21T11:23:39Z</time>
      </trkpt>
      <trkpt lat="42.97281" lon="2.3983">
        <ele>636.1</ele>
        <time>2021-03-21T11:23:40Z</time>
      </trkpt>
      <trkpt lat="42.97283" lon="2.39843">
        <ele>636.5</ele>
        <time>2021-03-21T11:23:42Z</time>
      </trkpt>
      <trkpt lat="42.97283" lon="2.39851">
        <ele>636.6</ele>
        <time>2021-03-21T11:23:44Z</time>
      </trkpt>
      <trkpt lat="42.97284" lon="2.39857">
        <ele>636.8</ele>
        <time>2021-03-21T11:23:45Z</time>
      </trkpt>
      <trkpt lat="42.97286" lon="2.39866">
        <ele>637</ele>
        <time>2021-03-21T11:23:46Z</time>
      </trkpt>
      <trkpt lat="42.97291" lon="2.39879">
        <ele>637.3</ele>
        <time>2021-03-21T11:23:48Z</time>
      </trkpt>
      <trkpt lat="42.97295" lon="2.39884">
        <ele>637.5</ele>
        <time>2021-03-21T11:23:49Z</time>
      </trkpt>
      <trkpt lat="42.97304" lon="2.39891">
        <ele>637.9</ele>
        <time>2021-03-21T11:23:51Z</time>
      </trkpt>
      <trkpt lat="42.97314" lon="2.39893">
        <ele>638.3</ele>
        <time>2021-03-21T11:23:53Z</time>
      </trkpt>
      <trkpt lat="42.97322" lon="2.3989">
        <ele>638.8</ele>
        <time>2021-03-21T11:23:55Z</time>
      </trkpt>
      <trkpt lat="42.97326" lon="2.39885">
        <ele>639.1</ele>
        <time>2021-03-21T11:23:56Z</time>
      </trkpt>
      <trkpt lat="42.9733" lon="2.39883">
        <ele>639.4</ele>
        <time>2021-03-21T11:23:58Z</time>
      </trkpt>
      <trkpt lat="42.97335" lon="2.39881">
        <ele>639.6</ele>
        <time>2021-03-21T11:23:59Z</time>
      </trkpt>
      <trkpt lat="42.9734" lon="2.3988">
        <ele>640</ele>
        <time>2021-03-21T11:24:00Z</time>
      </trkpt>
      <trkpt lat="42.97346" lon="2.39879">
        <ele>640.3</ele>
        <time>2021-03-21T11:24:02Z</time>
      </trkpt>
      <trkpt lat="42.9735" lon="2.39878">
        <ele>640.6</ele>
        <time>2021-03-21T11:24:03Z</time>
      </trkpt>
      <trkpt lat="42.97355" lon="2.39879">
        <ele>641</ele>
        <time>2021-03-21T11:24:04Z</time>
      </trkpt>
      <trkpt lat="42.97361" lon="2.39879">
        <ele>641.4</ele>
        <time>2021-03-21T11:24:06Z</time>
      </trkpt>
      <trkpt lat="42.97365" lon="2.39879">
        <ele>641.7</ele>
        <time>2021-03-21T11:24:07Z</time>
      </trkpt>
      <trkpt lat="42.9737" lon="2.3988">
        <ele>642</ele>
        <time>2021-03-21T11:24:08Z</time>
      </trkpt>
      <trkpt lat="42.97374" lon="2.39881">
        <ele>642.2</ele>
        <time>2021-03-21T11:24:09Z</time>
      </trkpt>
      <trkpt lat="42.97378" lon="2.39883">
        <ele>642.5</ele>
        <time>2021-03-21T11:24:10Z</time>
      </trkpt>
      <trkpt lat="42.97385" lon="2.39887">
        <ele>642.9</ele>
        <time>2021-03-21T11:24:12Z</time>
      </trkpt>
      <trkpt lat="42.97388" lon="2.39891">
        <ele>643.1</ele>
        <time>2021-03-21T11:24:13Z</time>
      </trkpt>
      <trkpt lat="42.9739" lon="2.39897">
        <ele>643.3</ele>
        <time>2021-03-21T11:24:15Z</time>
      </trkpt>
      <trkpt lat="42.9739" lon="2.39903">
        <ele>643.5</ele>
        <time>2021-03-21T11:24:16Z</time>
      </trkpt>
      <trkpt lat="42.9739" lon="2.39908">
        <ele>643.6</ele>
        <time>2021-03-21T11:24:17Z</time>
      </trkpt>
      <trkpt lat="42.97388" lon="2.39913">
        <ele>643.8</ele>
        <time>2021-03-21T11:24:18Z</time>
      </trkpt>
      <trkpt lat="42.97387" lon="2.39918">
        <ele>643.9</ele>
        <time>2021-03-21T11:24:20Z</time>
      </trkpt>
      <trkpt lat="42.97385" lon="2.39926">
        <ele>644.1</ele>
        <time>2021-03-21T11:24:21Z</time>
      </trkpt>
      <trkpt lat="42.97384" lon="2.39929">
        <ele>644.2</ele>
        <time>2021-03-21T11:24:22Z</time>
      </trkpt>
      <trkpt lat="42.97383" lon="2.39933">
        <ele>644.3</ele>
        <time>2021-03-21T11:24:23Z</time>
      </trkpt>
      <trkpt lat="42.97382" lon="2.39938">
        <ele>644.4</ele>
        <time>2021-03-21T11:24:24Z</time>
      </trkpt>
      <trkpt lat="42.97381" lon="2.39945">
        <ele>644.5</ele>
        <time>2021-03-21T11:24:25Z</time>
      </trkpt>
      <trkpt lat="42.97379" lon="2.39958">
        <ele>644.8</ele>
        <time>2021-03-21T11:24:27Z</time>
      </trkpt>
      <trkpt lat="42.97378" lon="2.39964">
        <ele>645</ele>
        <time>2021-03-21T11:24:28Z</time>
      </trkpt>
      <trkpt lat="42.97377" lon="2.39971">
        <ele>645.1</ele>
        <time>2021-03-21T11:24:29Z</time>
      </trkpt>
      <trkpt lat="42.97376" lon="2.39977">
        <ele>645.3</ele>
        <time>2021-03-21T11:24:30Z</time>
      </trkpt>
      <trkpt lat="42.97375" lon="2.39985">
        <ele>645.5</ele>
        <time>2021-03-21T11:24:31Z</time>
      </trkpt>
      <trkpt lat="42.97374" lon="2.39994">
        <ele>645.7</ele>
        <time>2021-03-21T11:24:33Z</time>
      </trkpt>
      <trkpt lat="42.97373" lon="2.40001">
        <ele>645.9</ele>
        <time>2021-03-21T11:24:34Z</time>
      </trkpt>
      <trkpt lat="42.97372" lon="2.40009">
        <ele>646</ele>
        <time>2021-03-21T11:24:36Z</time>
      </trkpt>
      <trkpt lat="42.97371" lon="2.40017">
        <ele>646.2</ele>
        <time>2021-03-21T11:24:37Z</time>
      </trkpt>
      <trkpt lat="42.97371" lon="2.40024">
        <ele>646.4</ele>
        <time>2021-03-21T11:24:38Z</time>
      </trkpt>
      <trkpt lat="42.9737" lon="2.4003">
        <ele>646.6</ele>
        <time>2021-03-21T11:24:39Z</time>
      </trkpt>
      <trkpt lat="42.97369" lon="2.40041">
        <ele>646.8</ele>
        <time>2021-03-21T11:24:41Z</time>
      </trkpt>
      <trkpt lat="42.97368" lon="2.40048">
        <ele>647</ele>
        <time>2021-03-21T11:24:42Z</time>
      </trkpt>
      <trkpt lat="42.97366" lon="2.40055">
        <ele>647.2</ele>
        <time>2021-03-21T11:24:44Z</time>
      </trkpt>
      <trkpt lat="42.97365" lon="2.40063">
        <ele>647.4</ele>
        <time>2021-03-21T11:24:45Z</time>
      </trkpt>
      <trkpt lat="42.97364" lon="2.40068">
        <ele>647.6</ele>
        <time>2021-03-21T11:24:46Z</time>
      </trkpt>
      <trkpt lat="42.97363" lon="2.40078">
        <ele>647.8</ele>
        <time>2021-03-21T11:24:47Z</time>
      </trkpt>
      <trkpt lat="42.97362" lon="2.40084">
        <ele>648</ele>
        <time>2021-03-21T11:24:49Z</time>
      </trkpt>
      <trkpt lat="42.97361" lon="2.40091">
        <ele>648.3</ele>
        <time>2021-03-21T11:24:50Z</time>
      </trkpt>
      <trkpt lat="42.97359" lon="2.40104">
        <ele>648.7</ele>
        <time>2021-03-21T11:24:52Z</time>
      </trkpt>
      <trkpt lat="42.97357" lon="2.40111">
        <ele>648.9</ele>
        <time>2021-03-21T11:24:54Z</time>
      </trkpt>
      <trkpt lat="42.97356" lon="2.40117">
        <ele>649.1</ele>
        <time>2021-03-21T11:24:55Z</time>
      </trkpt>
      <trkpt lat="42.97355" lon="2.40124">
        <ele>649.3</ele>
        <time>2021-03-21T11:24:56Z</time>
      </trkpt>
      <trkpt lat="42.97353" lon="2.40136">
        <ele>649.8</ele>
        <time>2021-03-21T11:24:58Z</time>
      </trkpt>
      <trkpt lat="42.97353" lon="2.40142">
        <ele>650</ele>
        <time>2021-03-21T11:24:59Z</time>
      </trkpt>
      <trkpt lat="42.97352" lon="2.40149">
        <ele>650.2</ele>
        <time>2021-03-21T11:25:00Z</time>
      </trkpt>
      <trkpt lat="42.97351" lon="2.40156">
        <ele>650.5</ele>
        <time>2021-03-21T11:25:02Z</time>
      </trkpt>
      <trkpt lat="42.97351" lon="2.40164">
        <ele>650.8</ele>
        <time>2021-03-21T11:25:03Z</time>
      </trkpt>
      <trkpt lat="42.97351" lon="2.4017">
        <ele>651</ele>
        <time>2021-03-21T11:25:04Z</time>
      </trkpt>
      <trkpt lat="42.97351" lon="2.40177">
        <ele>651.3</ele>
        <time>2021-03-21T11:25:05Z</time>
      </trkpt>
      <trkpt lat="42.97352" lon="2.40184">
        <ele>651.6</ele>
        <time>2021-03-21T11:25:07Z</time>
      </trkpt>
      <trkpt lat="42.97353" lon="2.4019">
        <ele>651.8</ele>
        <time>2021-03-21T11:25:08Z</time>
      </trkpt>
      <trkpt lat="42.97356" lon="2.40197">
        <ele>652.1</ele>
        <time>2021-03-21T11:25:09Z</time>
      </trkpt>
      <trkpt lat="42.9736" lon="2.40201">
        <ele>652.4</ele>
        <time>2021-03-21T11:25:10Z</time>
      </trkpt>
      <trkpt lat="42.97365" lon="2.40205">
        <ele>652.6</ele>
        <time>2021-03-21T11:25:12Z</time>
      </trkpt>
      <trkpt lat="42.97371" lon="2.40206">
        <ele>652.8</ele>
        <time>2021-03-21T11:25:13Z</time>
      </trkpt>
      <trkpt lat="42.97375" lon="2.40205">
        <ele>653</ele>
        <time>2021-03-21T11:25:14Z</time>
      </trkpt>
      <trkpt lat="42.97379" lon="2.40204">
        <ele>653.1</ele>
        <time>2021-03-21T11:25:15Z</time>
      </trkpt>
      <trkpt lat="42.97385" lon="2.40204">
        <ele>653.3</ele>
        <time>2021-03-21T11:25:17Z</time>
      </trkpt>
      <trkpt lat="42.9739" lon="2.40205">
        <ele>653.5</ele>
        <time>2021-03-21T11:25:18Z</time>
      </trkpt>
      <trkpt lat="42.97395" lon="2.40207">
        <ele>653.6</ele>
        <time>2021-03-21T11:25:19Z</time>
      </trkpt>
      <trkpt lat="42.97399" lon="2.40209">
        <ele>653.8</ele>
        <time>2021-03-21T11:25:21Z</time>
      </trkpt>
      <trkpt lat="42.97403" lon="2.40211">
        <ele>654</ele>
        <time>2021-03-21T11:25:22Z</time>
      </trkpt>
      <trkpt lat="42.97408" lon="2.40214">
        <ele>654.2</ele>
        <time>2021-03-21T11:25:23Z</time>
      </trkpt>
      <trkpt lat="42.97413" lon="2.40218">
        <ele>654.5</ele>
        <time>2021-03-21T11:25:24Z</time>
      </trkpt>
      <trkpt lat="42.97419" lon="2.40222">
        <ele>654.8</ele>
        <time>2021-03-21T11:25:26Z</time>
      </trkpt>
      <trkpt lat="42.97423" lon="2.40227">
        <ele>655</ele>
        <time>2021-03-21T11:25:27Z</time>
      </trkpt>
      <trkpt lat="42.97426" lon="2.40232">
        <ele>655.2</ele>
        <time>2021-03-21T11:25:28Z</time>
      </trkpt>
      <trkpt lat="42.97432" lon="2.40241">
        <ele>655.6</ele>
        <time>2021-03-21T11:25:30Z</time>
      </trkpt>
      <trkpt lat="42.97435" lon="2.40246">
        <ele>655.8</ele>
        <time>2021-03-21T11:25:31Z</time>
      </trkpt>
      <trkpt lat="42.97438" lon="2.4025">
        <ele>656</ele>
        <time>2021-03-21T11:25:32Z</time>
      </trkpt>
      <trkpt lat="42.97441" lon="2.40253">
        <ele>656.2</ele>
        <time>2021-03-21T11:25:33Z</time>
      </trkpt>
      <trkpt lat="42.97445" lon="2.40257">
        <ele>656.5</ele>
        <time>2021-03-21T11:25:34Z</time>
      </trkpt>
      <trkpt lat="42.9745" lon="2.40258">
        <ele>656.7</ele>
        <time>2021-03-21T11:25:36Z</time>
      </trkpt>
      <trkpt lat="42.97455" lon="2.40258">
        <ele>656.9</ele>
        <time>2021-03-21T11:25:37Z</time>
      </trkpt>
      <trkpt lat="42.97459" lon="2.40256">
        <ele>657.1</ele>
        <time>2021-03-21T11:25:38Z</time>
      </trkpt>
      <trkpt lat="42.97464" lon="2.40251">
        <ele>657.4</ele>
        <time>2021-03-21T11:25:39Z</time>
      </trkpt>
      <trkpt lat="42.97468" lon="2.40245">
        <ele>657.6</ele>
        <time>2021-03-21T11:25:40Z</time>
      </trkpt>
      <trkpt lat="42.97472" lon="2.40239">
        <ele>657.9</ele>
        <time>2021-03-21T11:25:42Z</time>
      </trkpt>
      <trkpt lat="42.97475" lon="2.40233">
        <ele>658.1</ele>
        <time>2021-03-21T11:25:43Z</time>
      </trkpt>
      <trkpt lat="42.9748" lon="2.40228">
        <ele>658.4</ele>
        <time>2021-03-21T11:25:45Z</time>
      </trkpt>
      <trkpt lat="42.97486" lon="2.40227">
        <ele>658.6</ele>
        <time>2021-03-21T11:25:46Z</time>
      </trkpt>
      <trkpt lat="42.9749" lon="2.40228">
        <ele>658.8</ele>
        <time>2021-03-21T11:25:47Z</time>
      </trkpt>
      <trkpt lat="42.97495" lon="2.40234">
        <ele>659</ele>
        <time>2021-03-21T11:25:49Z</time>
      </trkpt>
      <trkpt lat="42.97497" lon="2.40241">
        <ele>659.2</ele>
        <time>2021-03-21T11:25:50Z</time>
      </trkpt>
      <trkpt lat="42.97498" lon="2.40247">
        <ele>659.4</ele>
        <time>2021-03-21T11:25:51Z</time>
      </trkpt>
      <trkpt lat="42.97499" lon="2.40254">
        <ele>659.5</ele>
        <time>2021-03-21T11:25:52Z</time>
      </trkpt>
      <trkpt lat="42.97498" lon="2.4026">
        <ele>659.7</ele>
        <time>2021-03-21T11:25:53Z</time>
      </trkpt>
      <trkpt lat="42.97497" lon="2.4027">
        <ele>659.9</ele>
        <time>2021-03-21T11:25:55Z</time>
      </trkpt>
      <trkpt lat="42.97497" lon="2.40277">
        <ele>660.1</ele>
        <time>2021-03-21T11:25:56Z</time>
      </trkpt>
      <trkpt lat="42.97493" lon="2.40287">
        <ele>660.4</ele>
        <time>2021-03-21T11:25:58Z</time>
      </trkpt>
      <trkpt lat="42.97491" lon="2.40292">
        <ele>660.5</ele>
        <time>2021-03-21T11:25:59Z</time>
      </trkpt>
      <trkpt lat="42.97489" lon="2.40297">
        <ele>660.7</ele>
        <time>2021-03-21T11:26:00Z</time>
      </trkpt>
      <trkpt lat="42.97485" lon="2.40304">
        <ele>660.9</ele>
        <time>2021-03-21T11:26:02Z</time>
      </trkpt>
      <trkpt lat="42.97482" lon="2.40309">
        <ele>661.1</ele>
        <time>2021-03-21T11:26:03Z</time>
      </trkpt>
      <trkpt lat="42.97478" lon="2.40316">
        <ele>661.3</ele>
        <time>2021-03-21T11:26:05Z</time>
      </trkpt>
      <trkpt lat="42.97475" lon="2.4032">
        <ele>661.4</ele>
        <time>2021-03-21T11:26:06Z</time>
      </trkpt>
      <trkpt lat="42.97471" lon="2.40324">
        <ele>661.6</ele>
        <time>2021-03-21T11:26:07Z</time>
      </trkpt>
      <trkpt lat="42.97462" lon="2.40332">
        <ele>662</ele>
        <time>2021-03-21T11:26:09Z</time>
      </trkpt>
      <trkpt lat="42.97459" lon="2.40337">
        <ele>662.2</ele>
        <time>2021-03-21T11:26:10Z</time>
      </trkpt>
      <trkpt lat="42.97455" lon="2.40342">
        <ele>662.4</ele>
        <time>2021-03-21T11:26:11Z</time>
      </trkpt>
      <trkpt lat="42.97453" lon="2.40348">
        <ele>662.6</ele>
        <time>2021-03-21T11:26:12Z</time>
      </trkpt>
      <trkpt lat="42.9745" lon="2.40353">
        <ele>662.9</ele>
        <time>2021-03-21T11:26:13Z</time>
      </trkpt>
      <trkpt lat="42.97445" lon="2.40365">
        <ele>663.3</ele>
        <time>2021-03-21T11:26:15Z</time>
      </trkpt>
      <trkpt lat="42.97443" lon="2.40371">
        <ele>663.5</ele>
        <time>2021-03-21T11:26:16Z</time>
      </trkpt>
      <trkpt lat="42.97439" lon="2.40383">
        <ele>663.9</ele>
        <time>2021-03-21T11:26:18Z</time>
      </trkpt>
      <trkpt lat="42.97436" lon="2.40389">
        <ele>664.1</ele>
        <time>2021-03-21T11:26:19Z</time>
      </trkpt>
      <trkpt lat="42.97432" lon="2.404">
        <ele>664.6</ele>
        <time>2021-03-21T11:26:21Z</time>
      </trkpt>
      <trkpt lat="42.97429" lon="2.40409">
        <ele>664.9</ele>
        <time>2021-03-21T11:26:23Z</time>
      </trkpt>
      <trkpt lat="42.97426" lon="2.40419">
        <ele>665.3</ele>
        <time>2021-03-21T11:26:25Z</time>
      </trkpt>
      <trkpt lat="42.97423" lon="2.40425">
        <ele>665.5</ele>
        <time>2021-03-21T11:26:26Z</time>
      </trkpt>
      <trkpt lat="42.9742" lon="2.40438">
        <ele>666</ele>
        <time>2021-03-21T11:26:28Z</time>
      </trkpt>
      <trkpt lat="42.97419" lon="2.40452">
        <ele>666.5</ele>
        <time>2021-03-21T11:26:30Z</time>
      </trkpt>
      <trkpt lat="42.97424" lon="2.40465">
        <ele>667</ele>
        <time>2021-03-21T11:26:32Z</time>
      </trkpt>
      <trkpt lat="42.97427" lon="2.4047">
        <ele>667.2</ele>
        <time>2021-03-21T11:26:33Z</time>
      </trkpt>
      <trkpt lat="42.97431" lon="2.40475">
        <ele>667.4</ele>
        <time>2021-03-21T11:26:34Z</time>
      </trkpt>
      <trkpt lat="42.9744" lon="2.4048">
        <ele>667.8</ele>
        <time>2021-03-21T11:26:36Z</time>
      </trkpt>
      <trkpt lat="42.97449" lon="2.40481">
        <ele>668</ele>
        <time>2021-03-21T11:26:38Z</time>
      </trkpt>
      <trkpt lat="42.97459" lon="2.40479">
        <ele>668.1</ele>
        <time>2021-03-21T11:26:40Z</time>
      </trkpt>
      <trkpt lat="42.97462" lon="2.40478">
        <ele>668.1</ele>
        <time>2021-03-21T11:26:41Z</time>
      </trkpt>
      <trkpt lat="42.97469" lon="2.40475">
        <ele>668.4</ele>
        <time>2021-03-21T11:26:43Z</time>
      </trkpt>
      <trkpt lat="42.97477" lon="2.40472">
        <ele>668.8</ele>
        <time>2021-03-21T11:26:45Z</time>
      </trkpt>
      <trkpt lat="42.97482" lon="2.4047">
        <ele>668.9</ele>
        <time>2021-03-21T11:26:46Z</time>
      </trkpt>
      <trkpt lat="42.9749" lon="2.40476">
        <ele>669.3</ele>
        <time>2021-03-21T11:26:48Z</time>
      </trkpt>
      <trkpt lat="42.97494" lon="2.40474">
        <ele>669.4</ele>
        <time>2021-03-21T11:26:49Z</time>
      </trkpt>
      <trkpt lat="42.975" lon="2.4047">
        <ele>669.7</ele>
        <time>2021-03-21T11:26:50Z</time>
      </trkpt>
      <trkpt lat="42.97505" lon="2.40468">
        <ele>670</ele>
        <time>2021-03-21T11:26:52Z</time>
      </trkpt>
      <trkpt lat="42.9751" lon="2.40465">
        <ele>670.2</ele>
        <time>2021-03-21T11:26:53Z</time>
      </trkpt>
      <trkpt lat="42.97514" lon="2.40463">
        <ele>670.4</ele>
        <time>2021-03-21T11:26:54Z</time>
      </trkpt>
      <trkpt lat="42.97519" lon="2.40461">
        <ele>670.6</ele>
        <time>2021-03-21T11:26:55Z</time>
      </trkpt>
      <trkpt lat="42.97524" lon="2.40459">
        <ele>670.8</ele>
        <time>2021-03-21T11:26:56Z</time>
      </trkpt>
      <trkpt lat="42.97528" lon="2.40457">
        <ele>671</ele>
        <time>2021-03-21T11:26:57Z</time>
      </trkpt>
      <trkpt lat="42.97532" lon="2.40457">
        <ele>671.1</ele>
        <time>2021-03-21T11:26:58Z</time>
      </trkpt>
      <trkpt lat="42.9754" lon="2.40457">
        <ele>671.4</ele>
        <time>2021-03-21T11:27:00Z</time>
      </trkpt>
      <trkpt lat="42.97544" lon="2.40461">
        <ele>671.6</ele>
        <time>2021-03-21T11:27:01Z</time>
      </trkpt>
      <trkpt lat="42.97551" lon="2.40471">
        <ele>671.9</ele>
        <time>2021-03-21T11:27:03Z</time>
      </trkpt>
      <trkpt lat="42.97552" lon="2.40484">
        <ele>672.3</ele>
        <time>2021-03-21T11:27:05Z</time>
      </trkpt>
      <trkpt lat="42.9755" lon="2.40491">
        <ele>672.5</ele>
        <time>2021-03-21T11:27:06Z</time>
      </trkpt>
      <trkpt lat="42.97545" lon="2.40503">
        <ele>673</ele>
        <time>2021-03-21T11:27:08Z</time>
      </trkpt>
      <trkpt lat="42.97542" lon="2.40516">
        <ele>673.4</ele>
        <time>2021-03-21T11:27:10Z</time>
      </trkpt>
      <trkpt lat="42.97543" lon="2.40522">
        <ele>673.7</ele>
        <time>2021-03-21T11:27:11Z</time>
      </trkpt>
      <trkpt lat="42.97546" lon="2.40528">
        <ele>673.9</ele>
        <time>2021-03-21T11:27:12Z</time>
      </trkpt>
      <trkpt lat="42.9755" lon="2.40533">
        <ele>674.2</ele>
        <time>2021-03-21T11:27:13Z</time>
      </trkpt>
      <trkpt lat="42.97554" lon="2.40536">
        <ele>674.4</ele>
        <time>2021-03-21T11:27:14Z</time>
      </trkpt>
      <trkpt lat="42.97563" lon="2.40541">
        <ele>674.8</ele>
        <time>2021-03-21T11:27:16Z</time>
      </trkpt>
      <trkpt lat="42.9757" lon="2.40545">
        <ele>675.2</ele>
        <time>2021-03-21T11:27:18Z</time>
      </trkpt>
      <trkpt lat="42.97574" lon="2.40549">
        <ele>675.4</ele>
        <time>2021-03-21T11:27:19Z</time>
      </trkpt>
      <trkpt lat="42.97581" lon="2.40559">
        <ele>675.9</ele>
        <time>2021-03-21T11:27:21Z</time>
      </trkpt>
      <trkpt lat="42.97583" lon="2.40565">
        <ele>676.1</ele>
        <time>2021-03-21T11:27:22Z</time>
      </trkpt>
      <trkpt lat="42.97585" lon="2.40572">
        <ele>676.3</ele>
        <time>2021-03-21T11:27:23Z</time>
      </trkpt>
      <trkpt lat="42.97586" lon="2.40587">
        <ele>676.7</ele>
        <time>2021-03-21T11:27:25Z</time>
      </trkpt>
      <trkpt lat="42.97585" lon="2.40593">
        <ele>676.9</ele>
        <time>2021-03-21T11:27:26Z</time>
      </trkpt>
      <trkpt lat="42.97584" lon="2.406">
        <ele>677.1</ele>
        <time>2021-03-21T11:27:27Z</time>
      </trkpt>
      <trkpt lat="42.97583" lon="2.40606">
        <ele>677.3</ele>
        <time>2021-03-21T11:27:28Z</time>
      </trkpt>
      <trkpt lat="42.97581" lon="2.40619">
        <ele>677.8</ele>
        <time>2021-03-21T11:27:30Z</time>
      </trkpt>
      <trkpt lat="42.97581" lon="2.40626">
        <ele>678</ele>
        <time>2021-03-21T11:27:31Z</time>
      </trkpt>
      <trkpt lat="42.97581" lon="2.40639">
        <ele>678.4</ele>
        <time>2021-03-21T11:27:33Z</time>
      </trkpt>
      <trkpt lat="42.97582" lon="2.40646">
        <ele>678.6</ele>
        <time>2021-03-21T11:27:34Z</time>
      </trkpt>
      <trkpt lat="42.97584" lon="2.40659">
        <ele>679</ele>
        <time>2021-03-21T11:27:36Z</time>
      </trkpt>
      <trkpt lat="42.97588" lon="2.4067">
        <ele>679.4</ele>
        <time>2021-03-21T11:27:38Z</time>
      </trkpt>
      <trkpt lat="42.97594" lon="2.40681">
        <ele>679.9</ele>
        <time>2021-03-21T11:27:40Z</time>
      </trkpt>
      <trkpt lat="42.97601" lon="2.4069">
        <ele>680.3</ele>
        <time>2021-03-21T11:27:42Z</time>
      </trkpt>
      <trkpt lat="42.97605" lon="2.40693">
        <ele>680.5</ele>
        <time>2021-03-21T11:27:43Z</time>
      </trkpt>
      <trkpt lat="42.97609" lon="2.40696">
        <ele>680.7</ele>
        <time>2021-03-21T11:27:44Z</time>
      </trkpt>
      <trkpt lat="42.97617" lon="2.40702">
        <ele>681.1</ele>
        <time>2021-03-21T11:27:46Z</time>
      </trkpt>
      <trkpt lat="42.97622" lon="2.40704">
        <ele>681.3</ele>
        <time>2021-03-21T11:27:47Z</time>
      </trkpt>
      <trkpt lat="42.97626" lon="2.40706">
        <ele>681.6</ele>
        <time>2021-03-21T11:27:48Z</time>
      </trkpt>
      <trkpt lat="42.97635" lon="2.40709">
        <ele>682</ele>
        <time>2021-03-21T11:27:50Z</time>
      </trkpt>
      <trkpt lat="42.97643" lon="2.4071">
        <ele>682.3</ele>
        <time>2021-03-21T11:27:52Z</time>
      </trkpt>
      <trkpt lat="42.97648" lon="2.40709">
        <ele>682.5</ele>
        <time>2021-03-21T11:27:53Z</time>
      </trkpt>
      <trkpt lat="42.97656" lon="2.40707">
        <ele>682.8</ele>
        <time>2021-03-21T11:27:55Z</time>
      </trkpt>
      <trkpt lat="42.97659" lon="2.40704">
        <ele>683</ele>
        <time>2021-03-21T11:27:57Z</time>
      </trkpt>
      <trkpt lat="42.97665" lon="2.40701">
        <ele>683.3</ele>
        <time>2021-03-21T11:27:59Z</time>
      </trkpt>
      <trkpt lat="42.97674" lon="2.40697">
        <ele>683.7</ele>
        <time>2021-03-21T11:28:01Z</time>
      </trkpt>
      <trkpt lat="42.97679" lon="2.40694">
        <ele>683.9</ele>
        <time>2021-03-21T11:28:02Z</time>
      </trkpt>
      <trkpt lat="42.97687" lon="2.40689">
        <ele>684.3</ele>
        <time>2021-03-21T11:28:04Z</time>
      </trkpt>
      <trkpt lat="42.97692" lon="2.40685">
        <ele>684.5</ele>
        <time>2021-03-21T11:28:05Z</time>
      </trkpt>
      <trkpt lat="42.97695" lon="2.40682">
        <ele>684.7</ele>
        <time>2021-03-21T11:28:06Z</time>
      </trkpt>
      <trkpt lat="42.977" lon="2.40679">
        <ele>684.9</ele>
        <time>2021-03-21T11:28:07Z</time>
      </trkpt>
      <trkpt lat="42.97705" lon="2.40675">
        <ele>685.2</ele>
        <time>2021-03-21T11:28:09Z</time>
      </trkpt>
      <trkpt lat="42.97711" lon="2.40668">
        <ele>685.5</ele>
        <time>2021-03-21T11:28:10Z</time>
      </trkpt>
      <trkpt lat="42.97714" lon="2.40662">
        <ele>685.8</ele>
        <time>2021-03-21T11:28:12Z</time>
      </trkpt>
      <trkpt lat="42.97717" lon="2.40654">
        <ele>686.1</ele>
        <time>2021-03-21T11:28:13Z</time>
      </trkpt>
      <trkpt lat="42.9772" lon="2.40648">
        <ele>686.3</ele>
        <time>2021-03-21T11:28:14Z</time>
      </trkpt>
      <trkpt lat="42.97722" lon="2.40641">
        <ele>686.6</ele>
        <time>2021-03-21T11:28:16Z</time>
      </trkpt>
      <trkpt lat="42.97725" lon="2.40633">
        <ele>686.8</ele>
        <time>2021-03-21T11:28:17Z</time>
      </trkpt>
      <trkpt lat="42.97727" lon="2.40628">
        <ele>687</ele>
        <time>2021-03-21T11:28:18Z</time>
      </trkpt>
      <trkpt lat="42.97729" lon="2.40622">
        <ele>687.3</ele>
        <time>2021-03-21T11:28:19Z</time>
      </trkpt>
      <trkpt lat="42.97731" lon="2.40615">
        <ele>687.5</ele>
        <time>2021-03-21T11:28:21Z</time>
      </trkpt>
      <trkpt lat="42.97733" lon="2.40609">
        <ele>687.7</ele>
        <time>2021-03-21T11:28:22Z</time>
      </trkpt>
      <trkpt lat="42.97736" lon="2.40603">
        <ele>688</ele>
        <time>2021-03-21T11:28:23Z</time>
      </trkpt>
      <trkpt lat="42.97738" lon="2.40596">
        <ele>688.2</ele>
        <time>2021-03-21T11:28:24Z</time>
      </trkpt>
      <trkpt lat="42.9774" lon="2.4059">
        <ele>688.4</ele>
        <time>2021-03-21T11:28:25Z</time>
      </trkpt>
      <trkpt lat="42.97743" lon="2.40582">
        <ele>688.7</ele>
        <time>2021-03-21T11:28:27Z</time>
      </trkpt>
      <trkpt lat="42.97746" lon="2.40574">
        <ele>689</ele>
        <time>2021-03-21T11:28:28Z</time>
      </trkpt>
      <trkpt lat="42.97749" lon="2.40566">
        <ele>689.3</ele>
        <time>2021-03-21T11:28:30Z</time>
      </trkpt>
      <trkpt lat="42.97751" lon="2.4056">
        <ele>689.5</ele>
        <time>2021-03-21T11:28:31Z</time>
      </trkpt>
      <trkpt lat="42.97752" lon="2.40553">
        <ele>689.7</ele>
        <time>2021-03-21T11:28:32Z</time>
      </trkpt>
      <trkpt lat="42.97754" lon="2.40544">
        <ele>689.9</ele>
        <time>2021-03-21T11:28:34Z</time>
      </trkpt>
      <trkpt lat="42.97757" lon="2.40536">
        <ele>690.2</ele>
        <time>2021-03-21T11:28:36Z</time>
      </trkpt>
      <trkpt lat="42.97759" lon="2.40529">
        <ele>690.4</ele>
        <time>2021-03-21T11:28:37Z</time>
      </trkpt>
      <trkpt lat="42.97761" lon="2.40523">
        <ele>690.6</ele>
        <time>2021-03-21T11:28:38Z</time>
      </trkpt>
      <trkpt lat="42.97762" lon="2.40517">
        <ele>690.8</ele>
        <time>2021-03-21T11:28:39Z</time>
      </trkpt>
      <trkpt lat="42.97764" lon="2.40512">
        <ele>691</ele>
        <time>2021-03-21T11:28:40Z</time>
      </trkpt>
      <trkpt lat="42.97766" lon="2.40503">
        <ele>691.3</ele>
        <time>2021-03-21T11:28:42Z</time>
      </trkpt>
      <trkpt lat="42.97767" lon="2.40497">
        <ele>691.5</ele>
        <time>2021-03-21T11:28:43Z</time>
      </trkpt>
      <trkpt lat="42.97768" lon="2.40491">
        <ele>691.7</ele>
        <time>2021-03-21T11:28:44Z</time>
      </trkpt>
      <trkpt lat="42.97769" lon="2.40486">
        <ele>691.8</ele>
        <time>2021-03-21T11:28:45Z</time>
      </trkpt>
      <trkpt lat="42.97773" lon="2.40476">
        <ele>692.2</ele>
        <time>2021-03-21T11:28:47Z</time>
      </trkpt>
      <trkpt lat="42.97774" lon="2.40469">
        <ele>692.4</ele>
        <time>2021-03-21T11:28:49Z</time>
      </trkpt>
      <trkpt lat="42.97776" lon="2.4046">
        <ele>692.7</ele>
        <time>2021-03-21T11:28:50Z</time>
      </trkpt>
      <trkpt lat="42.97778" lon="2.40452">
        <ele>692.9</ele>
        <time>2021-03-21T11:28:52Z</time>
      </trkpt>
      <trkpt lat="42.97779" lon="2.40445">
        <ele>693.1</ele>
        <time>2021-03-21T11:28:53Z</time>
      </trkpt>
      <trkpt lat="42.97781" lon="2.4044">
        <ele>693.3</ele>
        <time>2021-03-21T11:28:54Z</time>
      </trkpt>
      <trkpt lat="42.97783" lon="2.40433">
        <ele>693.5</ele>
        <time>2021-03-21T11:28:56Z</time>
      </trkpt>
      <trkpt lat="42.97784" lon="2.40427">
        <ele>693.7</ele>
        <time>2021-03-21T11:28:57Z</time>
      </trkpt>
      <trkpt lat="42.97787" lon="2.4042">
        <ele>693.9</ele>
        <time>2021-03-21T11:28:58Z</time>
      </trkpt>
      <trkpt lat="42.97789" lon="2.40416">
        <ele>694.1</ele>
        <time>2021-03-21T11:28:59Z</time>
      </trkpt>
      <trkpt lat="42.97792" lon="2.4041">
        <ele>694.4</ele>
        <time>2021-03-21T11:29:00Z</time>
      </trkpt>
      <trkpt lat="42.97795" lon="2.40406">
        <ele>694.6</ele>
        <time>2021-03-21T11:29:02Z</time>
      </trkpt>
      <trkpt lat="42.97799" lon="2.404">
        <ele>694.9</ele>
        <time>2021-03-21T11:29:03Z</time>
      </trkpt>
      <trkpt lat="42.97802" lon="2.40397">
        <ele>695.1</ele>
        <time>2021-03-21T11:29:04Z</time>
      </trkpt>
      <trkpt lat="42.97806" lon="2.40394">
        <ele>695.3</ele>
        <time>2021-03-21T11:29:05Z</time>
      </trkpt>
      <trkpt lat="42.97809" lon="2.40392">
        <ele>695.5</ele>
        <time>2021-03-21T11:29:06Z</time>
      </trkpt>
      <trkpt lat="42.97813" lon="2.4039">
        <ele>695.6</ele>
        <time>2021-03-21T11:29:07Z</time>
      </trkpt>
      <trkpt lat="42.97817" lon="2.40389">
        <ele>695.8</ele>
        <time>2021-03-21T11:29:09Z</time>
      </trkpt>
      <trkpt lat="42.97822" lon="2.40389">
        <ele>695.9</ele>
        <time>2021-03-21T11:29:10Z</time>
      </trkpt>
      <trkpt lat="42.97827" lon="2.40391">
        <ele>696</ele>
        <time>2021-03-21T11:29:11Z</time>
      </trkpt>
      <trkpt lat="42.97836" lon="2.40396">
        <ele>696.2</ele>
        <time>2021-03-21T11:29:13Z</time>
      </trkpt>
      <trkpt lat="42.97845" lon="2.40405">
        <ele>696.4</ele>
        <time>2021-03-21T11:29:15Z</time>
      </trkpt>
      <trkpt lat="42.97849" lon="2.4041">
        <ele>696.5</ele>
        <time>2021-03-21T11:29:16Z</time>
      </trkpt>
      <trkpt lat="42.97856" lon="2.40418">
        <ele>696.7</ele>
        <time>2021-03-21T11:29:18Z</time>
      </trkpt>
      <trkpt lat="42.97861" lon="2.40426">
        <ele>696.8</ele>
        <time>2021-03-21T11:29:20Z</time>
      </trkpt>
      <trkpt lat="42.97865" lon="2.40433">
        <ele>696.8</ele>
        <time>2021-03-21T11:29:21Z</time>
      </trkpt>
      <trkpt lat="42.97867" lon="2.40439">
        <ele>696.9</ele>
        <time>2021-03-21T11:29:22Z</time>
      </trkpt>
      <trkpt lat="42.9787" lon="2.40446">
        <ele>697</ele>
        <time>2021-03-21T11:29:23Z</time>
      </trkpt>
      <trkpt lat="42.97872" lon="2.40459">
        <ele>697.1</ele>
        <time>2021-03-21T11:29:25Z</time>
      </trkpt>
      <trkpt lat="42.97873" lon="2.40466">
        <ele>697.2</ele>
        <time>2021-03-21T11:29:26Z</time>
      </trkpt>
      <trkpt lat="42.97872" lon="2.4048">
        <ele>697.3</ele>
        <time>2021-03-21T11:29:28Z</time>
      </trkpt>
      <trkpt lat="42.9787" lon="2.40486">
        <ele>697.4</ele>
        <time>2021-03-21T11:29:29Z</time>
      </trkpt>
      <trkpt lat="42.97868" lon="2.405">
        <ele>697.5</ele>
        <time>2021-03-21T11:29:31Z</time>
      </trkpt>
      <trkpt lat="42.97866" lon="2.40514">
        <ele>697.6</ele>
        <time>2021-03-21T11:29:33Z</time>
      </trkpt>
      <trkpt lat="42.97866" lon="2.40521">
        <ele>697.7</ele>
        <time>2021-03-21T11:29:34Z</time>
      </trkpt>
      <trkpt lat="42.97868" lon="2.40535">
        <ele>697.9</ele>
        <time>2021-03-21T11:29:36Z</time>
      </trkpt>
      <trkpt lat="42.97871" lon="2.40544">
        <ele>698.1</ele>
        <time>2021-03-21T11:29:38Z</time>
      </trkpt>
      <trkpt lat="42.97873" lon="2.40549">
        <ele>698.2</ele>
        <time>2021-03-21T11:29:39Z</time>
      </trkpt>
      <trkpt lat="42.97877" lon="2.40558">
        <ele>698.3</ele>
        <time>2021-03-21T11:29:41Z</time>
      </trkpt>
      <trkpt lat="42.97881" lon="2.40572">
        <ele>698.5</ele>
        <time>2021-03-21T11:29:43Z</time>
      </trkpt>
      <trkpt lat="42.97883" lon="2.40578">
        <ele>698.7</ele>
        <time>2021-03-21T11:29:44Z</time>
      </trkpt>
      <trkpt lat="42.97887" lon="2.4059">
        <ele>698.9</ele>
        <time>2021-03-21T11:29:46Z</time>
      </trkpt>
      <trkpt lat="42.9789" lon="2.40596">
        <ele>699</ele>
        <time>2021-03-21T11:29:48Z</time>
      </trkpt>
      <trkpt lat="42.97896" lon="2.40604">
        <ele>699.2</ele>
        <time>2021-03-21T11:29:49Z</time>
      </trkpt>
      <trkpt lat="42.97905" lon="2.4061">
        <ele>699.5</ele>
        <time>2021-03-21T11:29:51Z</time>
      </trkpt>
      <trkpt lat="42.9791" lon="2.40609">
        <ele>699.6</ele>
        <time>2021-03-21T11:29:53Z</time>
      </trkpt>
      <trkpt lat="42.97913" lon="2.40609">
        <ele>699.7</ele>
        <time>2021-03-21T11:29:54Z</time>
      </trkpt>
      <trkpt lat="42.97918" lon="2.40611">
        <ele>699.8</ele>
        <time>2021-03-21T11:29:55Z</time>
      </trkpt>
      <trkpt lat="42.97922" lon="2.40613">
        <ele>699.9</ele>
        <time>2021-03-21T11:29:56Z</time>
      </trkpt>
      <trkpt lat="42.97929" lon="2.40616">
        <ele>700</ele>
        <time>2021-03-21T11:29:58Z</time>
      </trkpt>
      <trkpt lat="42.97934" lon="2.40621">
        <ele>700.2</ele>
        <time>2021-03-21T11:29:59Z</time>
      </trkpt>
      <trkpt lat="42.97942" lon="2.40632">
        <ele>700.5</ele>
        <time>2021-03-21T11:30:01Z</time>
      </trkpt>
      <trkpt lat="42.97946" lon="2.40646">
        <ele>700.6</ele>
        <time>2021-03-21T11:30:03Z</time>
      </trkpt>
      <trkpt lat="42.97946" lon="2.40654">
        <ele>700.6</ele>
        <time>2021-03-21T11:30:04Z</time>
      </trkpt>
      <trkpt lat="42.97943" lon="2.40668">
        <ele>700.7</ele>
        <time>2021-03-21T11:30:06Z</time>
      </trkpt>
      <trkpt lat="42.97938" lon="2.40681">
        <ele>700.9</ele>
        <time>2021-03-21T11:30:08Z</time>
      </trkpt>
      <trkpt lat="42.97934" lon="2.40695">
        <ele>701.1</ele>
        <time>2021-03-21T11:30:10Z</time>
      </trkpt>
      <trkpt lat="42.97933" lon="2.40702">
        <ele>701.2</ele>
        <time>2021-03-21T11:30:11Z</time>
      </trkpt>
      <trkpt lat="42.97933" lon="2.40719">
        <ele>701.4</ele>
        <time>2021-03-21T11:30:13Z</time>
      </trkpt>
      <trkpt lat="42.97933" lon="2.40727">
        <ele>701.5</ele>
        <time>2021-03-21T11:30:14Z</time>
      </trkpt>
      <trkpt lat="42.97936" lon="2.40743">
        <ele>701.7</ele>
        <time>2021-03-21T11:30:16Z</time>
      </trkpt>
      <trkpt lat="42.97937" lon="2.40751">
        <ele>701.8</ele>
        <time>2021-03-21T11:30:17Z</time>
      </trkpt>
      <trkpt lat="42.97937" lon="2.40759">
        <ele>701.9</ele>
        <time>2021-03-21T11:30:18Z</time>
      </trkpt>
      <trkpt lat="42.97938" lon="2.40767">
        <ele>702</ele>
        <time>2021-03-21T11:30:19Z</time>
      </trkpt>
      <trkpt lat="42.97937" lon="2.40782">
        <ele>702.2</ele>
        <time>2021-03-21T11:30:21Z</time>
      </trkpt>
      <trkpt lat="42.97936" lon="2.40789">
        <ele>702.3</ele>
        <time>2021-03-21T11:30:22Z</time>
      </trkpt>
      <trkpt lat="42.97929" lon="2.408">
        <ele>702.6</ele>
        <time>2021-03-21T11:30:24Z</time>
      </trkpt>
      <trkpt lat="42.97918" lon="2.40802">
        <ele>702.7</ele>
        <time>2021-03-21T11:30:26Z</time>
      </trkpt>
      <trkpt lat="42.97908" lon="2.40797">
        <ele>702.9</ele>
        <time>2021-03-21T11:30:28Z</time>
      </trkpt>
      <trkpt lat="42.97898" lon="2.40789">
        <ele>703.1</ele>
        <time>2021-03-21T11:30:30Z</time>
      </trkpt>
      <trkpt lat="42.9789" lon="2.40784">
        <ele>703.3</ele>
        <time>2021-03-21T11:30:32Z</time>
      </trkpt>
      <trkpt lat="42.9788" lon="2.40781">
        <ele>703.4</ele>
        <time>2021-03-21T11:30:34Z</time>
      </trkpt>
      <trkpt lat="42.97875" lon="2.40782">
        <ele>703.5</ele>
        <time>2021-03-21T11:30:35Z</time>
      </trkpt>
      <trkpt lat="42.97866" lon="2.40786">
        <ele>703.7</ele>
        <time>2021-03-21T11:30:37Z</time>
      </trkpt>
      <trkpt lat="42.97857" lon="2.40793">
        <ele>703.9</ele>
        <time>2021-03-21T11:30:39Z</time>
      </trkpt>
      <trkpt lat="42.97851" lon="2.40803">
        <ele>704</ele>
        <time>2021-03-21T11:30:41Z</time>
      </trkpt>
      <trkpt lat="42.97849" lon="2.40809">
        <ele>704.1</ele>
        <time>2021-03-21T11:30:42Z</time>
      </trkpt>
      <trkpt lat="42.97846" lon="2.40815">
        <ele>704.2</ele>
        <time>2021-03-21T11:30:43Z</time>
      </trkpt>
      <trkpt lat="42.97843" lon="2.40821">
        <ele>704.3</ele>
        <time>2021-03-21T11:30:44Z</time>
      </trkpt>
      <trkpt lat="42.97838" lon="2.40832">
        <ele>704.4</ele>
        <time>2021-03-21T11:30:46Z</time>
      </trkpt>
      <trkpt lat="42.97833" lon="2.40844">
        <ele>704.6</ele>
        <time>2021-03-21T11:30:48Z</time>
      </trkpt>
      <trkpt lat="42.97831" lon="2.4085">
        <ele>704.7</ele>
        <time>2021-03-21T11:30:49Z</time>
      </trkpt>
      <trkpt lat="42.97828" lon="2.40864">
        <ele>704.9</ele>
        <time>2021-03-21T11:30:51Z</time>
      </trkpt>
      <trkpt lat="42.97827" lon="2.40871">
        <ele>704.9</ele>
        <time>2021-03-21T11:30:52Z</time>
      </trkpt>
      <trkpt lat="42.97826" lon="2.40879">
        <ele>705</ele>
        <time>2021-03-21T11:30:53Z</time>
      </trkpt>
      <trkpt lat="42.97825" lon="2.40893">
        <ele>705.2</ele>
        <time>2021-03-21T11:30:55Z</time>
      </trkpt>
      <trkpt lat="42.97825" lon="2.40907">
        <ele>705.4</ele>
        <time>2021-03-21T11:30:57Z</time>
      </trkpt>
      <trkpt lat="42.97826" lon="2.40914">
        <ele>705.5</ele>
        <time>2021-03-21T11:30:58Z</time>
      </trkpt>
      <trkpt lat="42.9783" lon="2.40927">
        <ele>705.7</ele>
        <time>2021-03-21T11:31:00Z</time>
      </trkpt>
      <trkpt lat="42.97833" lon="2.40934">
        <ele>705.8</ele>
        <time>2021-03-21T11:31:01Z</time>
      </trkpt>
      <trkpt lat="42.97836" lon="2.4094">
        <ele>705.9</ele>
        <time>2021-03-21T11:31:02Z</time>
      </trkpt>
      <trkpt lat="42.9784" lon="2.40946">
        <ele>706</ele>
        <time>2021-03-21T11:31:03Z</time>
      </trkpt>
      <trkpt lat="42.97849" lon="2.40956">
        <ele>706.2</ele>
        <time>2021-03-21T11:31:05Z</time>
      </trkpt>
      <trkpt lat="42.97854" lon="2.40959">
        <ele>706.3</ele>
        <time>2021-03-21T11:31:06Z</time>
      </trkpt>
      <trkpt lat="42.97866" lon="2.4096">
        <ele>706.5</ele>
        <time>2021-03-21T11:31:08Z</time>
      </trkpt>
      <trkpt lat="42.97871" lon="2.40958">
        <ele>706.6</ele>
        <time>2021-03-21T11:31:09Z</time>
      </trkpt>
      <trkpt lat="42.97881" lon="2.40954">
        <ele>706.8</ele>
        <time>2021-03-21T11:31:11Z</time>
      </trkpt>
      <trkpt lat="42.97886" lon="2.40952">
        <ele>706.9</ele>
        <time>2021-03-21T11:31:12Z</time>
      </trkpt>
      <trkpt lat="42.97896" lon="2.40953">
        <ele>707.1</ele>
        <time>2021-03-21T11:31:14Z</time>
      </trkpt>
      <trkpt lat="42.979" lon="2.40955">
        <ele>707.2</ele>
        <time>2021-03-21T11:31:15Z</time>
      </trkpt>
      <trkpt lat="42.97908" lon="2.40962">
        <ele>707.3</ele>
        <time>2021-03-21T11:31:17Z</time>
      </trkpt>
      <trkpt lat="42.97913" lon="2.40966">
        <ele>707.5</ele>
        <time>2021-03-21T11:31:18Z</time>
      </trkpt>
      <trkpt lat="42.97917" lon="2.40969">
        <ele>707.6</ele>
        <time>2021-03-21T11:31:19Z</time>
      </trkpt>
      <trkpt lat="42.97928" lon="2.40972">
        <ele>707.8</ele>
        <time>2021-03-21T11:31:21Z</time>
      </trkpt>
      <trkpt lat="42.97938" lon="2.4097">
        <ele>708</ele>
        <time>2021-03-21T11:31:23Z</time>
      </trkpt>
      <trkpt lat="42.97949" lon="2.40965">
        <ele>708.3</ele>
        <time>2021-03-21T11:31:25Z</time>
      </trkpt>
      <trkpt lat="42.97955" lon="2.40961">
        <ele>708.4</ele>
        <time>2021-03-21T11:31:26Z</time>
      </trkpt>
      <trkpt lat="42.9796" lon="2.40957">
        <ele>708.6</ele>
        <time>2021-03-21T11:31:27Z</time>
      </trkpt>
      <trkpt lat="42.9797" lon="2.40947">
        <ele>708.9</ele>
        <time>2021-03-21T11:31:29Z</time>
      </trkpt>
      <trkpt lat="42.97976" lon="2.40943">
        <ele>709</ele>
        <time>2021-03-21T11:31:30Z</time>
      </trkpt>
      <trkpt lat="42.97981" lon="2.4094">
        <ele>709.1</ele>
        <time>2021-03-21T11:31:31Z</time>
      </trkpt>
      <trkpt lat="42.97992" lon="2.40935">
        <ele>709.3</ele>
        <time>2021-03-21T11:31:33Z</time>
      </trkpt>
      <trkpt lat="42.97998" lon="2.40933">
        <ele>709.4</ele>
        <time>2021-03-21T11:31:34Z</time>
      </trkpt>
      <trkpt lat="42.98003" lon="2.40931">
        <ele>709.5</ele>
        <time>2021-03-21T11:31:35Z</time>
      </trkpt>
      <trkpt lat="42.98014" lon="2.40928">
        <ele>709.8</ele>
        <time>2021-03-21T11:31:37Z</time>
      </trkpt>
      <trkpt lat="42.98025" lon="2.40927">
        <ele>710</ele>
        <time>2021-03-21T11:31:39Z</time>
      </trkpt>
      <trkpt lat="42.9803" lon="2.40926">
        <ele>710.1</ele>
        <time>2021-03-21T11:31:40Z</time>
      </trkpt>
      <trkpt lat="42.9804" lon="2.40928">
        <ele>710.3</ele>
        <time>2021-03-21T11:31:42Z</time>
      </trkpt>
      <trkpt lat="42.9805" lon="2.40933">
        <ele>710.4</ele>
        <time>2021-03-21T11:31:44Z</time>
      </trkpt>
      <trkpt lat="42.98059" lon="2.40939">
        <ele>710.5</ele>
        <time>2021-03-21T11:31:46Z</time>
      </trkpt>
      <trkpt lat="42.98064" lon="2.40944">
        <ele>710.5</ele>
        <time>2021-03-21T11:31:47Z</time>
      </trkpt>
      <trkpt lat="42.98072" lon="2.40958">
        <ele>710.6</ele>
        <time>2021-03-21T11:31:49Z</time>
      </trkpt>
      <trkpt lat="42.98075" lon="2.40966">
        <ele>710.7</ele>
        <time>2021-03-21T11:31:50Z</time>
      </trkpt>
      <trkpt lat="42.98076" lon="2.40984">
        <ele>710.8</ele>
        <time>2021-03-21T11:31:52Z</time>
      </trkpt>
      <trkpt lat="42.98074" lon="2.40992">
        <ele>710.9</ele>
        <time>2021-03-21T11:31:53Z</time>
      </trkpt>
      <trkpt lat="42.98072" lon="2.41">
        <ele>710.9</ele>
        <time>2021-03-21T11:31:54Z</time>
      </trkpt>
      <trkpt lat="42.98067" lon="2.41013">
        <ele>711</ele>
        <time>2021-03-21T11:31:56Z</time>
      </trkpt>
      <trkpt lat="42.9806" lon="2.41025">
        <ele>711</ele>
        <time>2021-03-21T11:31:58Z</time>
      </trkpt>
      <trkpt lat="42.98056" lon="2.41031">
        <ele>711.1</ele>
        <time>2021-03-21T11:31:59Z</time>
      </trkpt>
      <trkpt lat="42.98048" lon="2.41041">
        <ele>711.2</ele>
        <time>2021-03-21T11:32:01Z</time>
      </trkpt>
      <trkpt lat="42.98044" lon="2.41046">
        <ele>711.2</ele>
        <time>2021-03-21T11:32:02Z</time>
      </trkpt>
      <trkpt lat="42.9804" lon="2.41051">
        <ele>711.3</ele>
        <time>2021-03-21T11:32:03Z</time>
      </trkpt>
      <trkpt lat="42.98031" lon="2.41061">
        <ele>711.4</ele>
        <time>2021-03-21T11:32:05Z</time>
      </trkpt>
      <trkpt lat="42.98027" lon="2.41065">
        <ele>711.4</ele>
        <time>2021-03-21T11:32:06Z</time>
      </trkpt>
      <trkpt lat="42.98018" lon="2.41074">
        <ele>711.5</ele>
        <time>2021-03-21T11:32:08Z</time>
      </trkpt>
      <trkpt lat="42.98013" lon="2.41078">
        <ele>711.6</ele>
        <time>2021-03-21T11:32:09Z</time>
      </trkpt>
      <trkpt lat="42.98003" lon="2.41087">
        <ele>711.7</ele>
        <time>2021-03-21T11:32:11Z</time>
      </trkpt>
      <trkpt lat="42.97998" lon="2.41091">
        <ele>711.8</ele>
        <time>2021-03-21T11:32:12Z</time>
      </trkpt>
      <trkpt lat="42.97988" lon="2.41099">
        <ele>711.9</ele>
        <time>2021-03-21T11:32:14Z</time>
      </trkpt>
      <trkpt lat="42.97978" lon="2.41108">
        <ele>712.1</ele>
        <time>2021-03-21T11:32:16Z</time>
      </trkpt>
      <trkpt lat="42.97974" lon="2.41113">
        <ele>712.1</ele>
        <time>2021-03-21T11:32:17Z</time>
      </trkpt>
      <trkpt lat="42.97969" lon="2.41117">
        <ele>712.2</ele>
        <time>2021-03-21T11:32:18Z</time>
      </trkpt>
      <trkpt lat="42.9796" lon="2.41127">
        <ele>712.3</ele>
        <time>2021-03-21T11:32:20Z</time>
      </trkpt>
      <trkpt lat="42.97951" lon="2.41138">
        <ele>712.5</ele>
        <time>2021-03-21T11:32:22Z</time>
      </trkpt>
      <trkpt lat="42.97947" lon="2.41145">
        <ele>712.6</ele>
        <time>2021-03-21T11:32:23Z</time>
      </trkpt>
      <trkpt lat="42.9794" lon="2.41159">
        <ele>712.7</ele>
        <time>2021-03-21T11:32:25Z</time>
      </trkpt>
      <trkpt lat="42.97937" lon="2.41167">
        <ele>712.8</ele>
        <time>2021-03-21T11:32:26Z</time>
      </trkpt>
      <trkpt lat="42.97934" lon="2.41175">
        <ele>712.8</ele>
        <time>2021-03-21T11:32:27Z</time>
      </trkpt>
      <trkpt lat="42.9793" lon="2.41192">
        <ele>712.9</ele>
        <time>2021-03-21T11:32:29Z</time>
      </trkpt>
      <trkpt lat="42.9793" lon="2.41202">
        <ele>712.9</ele>
        <time>2021-03-21T11:32:30Z</time>
      </trkpt>
      <trkpt lat="42.97933" lon="2.41221">
        <ele>712.9</ele>
        <time>2021-03-21T11:32:32Z</time>
      </trkpt>
      <trkpt lat="42.97937" lon="2.4123">
        <ele>712.8</ele>
        <time>2021-03-21T11:32:33Z</time>
      </trkpt>
      <trkpt lat="42.97947" lon="2.41245">
        <ele>712.5</ele>
        <time>2021-03-21T11:32:35Z</time>
      </trkpt>
      <trkpt lat="42.97963" lon="2.41253">
        <ele>711.9</ele>
        <time>2021-03-21T11:32:37Z</time>
      </trkpt>
      <trkpt lat="42.97972" lon="2.41254">
        <ele>711.6</ele>
        <time>2021-03-21T11:32:38Z</time>
      </trkpt>
      <trkpt lat="42.97981" lon="2.41254">
        <ele>711.4</ele>
        <time>2021-03-21T11:32:39Z</time>
      </trkpt>
      <trkpt lat="42.97998" lon="2.4125">
        <ele>710.9</ele>
        <time>2021-03-21T11:32:41Z</time>
      </trkpt>
      <trkpt lat="42.98015" lon="2.41246">
        <ele>710.1</ele>
        <time>2021-03-21T11:32:43Z</time>
      </trkpt>
      <trkpt lat="42.98023" lon="2.41243">
        <ele>709.7</ele>
        <time>2021-03-21T11:32:44Z</time>
      </trkpt>
      <trkpt lat="42.98032" lon="2.41241">
        <ele>709.3</ele>
        <time>2021-03-21T11:32:45Z</time>
      </trkpt>
      <trkpt lat="42.98041" lon="2.41239">
        <ele>708.9</ele>
        <time>2021-03-21T11:32:46Z</time>
      </trkpt>
      <trkpt lat="42.98057" lon="2.41229">
        <ele>708.1</ele>
        <time>2021-03-21T11:32:48Z</time>
      </trkpt>
      <trkpt lat="42.98065" lon="2.41221">
        <ele>707.8</ele>
        <time>2021-03-21T11:32:49Z</time>
      </trkpt>
      <trkpt lat="42.98078" lon="2.41205">
        <ele>707.1</ele>
        <time>2021-03-21T11:32:51Z</time>
      </trkpt>
      <trkpt lat="42.98085" lon="2.41196">
        <ele>706.8</ele>
        <time>2021-03-21T11:32:52Z</time>
      </trkpt>
      <trkpt lat="42.98092" lon="2.41188">
        <ele>706.5</ele>
        <time>2021-03-21T11:32:53Z</time>
      </trkpt>
      <trkpt lat="42.981" lon="2.41181">
        <ele>706.2</ele>
        <time>2021-03-21T11:32:54Z</time>
      </trkpt>
      <trkpt lat="42.98107" lon="2.41175">
        <ele>706</ele>
        <time>2021-03-21T11:32:55Z</time>
      </trkpt>
      <trkpt lat="42.98124" lon="2.41166">
        <ele>705.6</ele>
        <time>2021-03-21T11:32:57Z</time>
      </trkpt>
      <trkpt lat="42.98133" lon="2.41165">
        <ele>705.6</ele>
        <time>2021-03-21T11:32:58Z</time>
      </trkpt>
      <trkpt lat="42.9815" lon="2.41167">
        <ele>706</ele>
        <time>2021-03-21T11:33:00Z</time>
      </trkpt>
      <trkpt lat="42.98158" lon="2.41171">
        <ele>706.4</ele>
        <time>2021-03-21T11:33:01Z</time>
      </trkpt>
      <trkpt lat="42.9817" lon="2.41186">
        <ele>707.4</ele>
        <time>2021-03-21T11:33:03Z</time>
      </trkpt>
      <trkpt lat="42.98173" lon="2.41207">
        <ele>708.3</ele>
        <time>2021-03-21T11:33:05Z</time>
      </trkpt>
      <trkpt lat="42.98172" lon="2.41217">
        <ele>708.6</ele>
        <time>2021-03-21T11:33:06Z</time>
      </trkpt>
      <trkpt lat="42.98168" lon="2.41234">
        <ele>709.2</ele>
        <time>2021-03-21T11:33:08Z</time>
      </trkpt>
      <trkpt lat="42.98162" lon="2.41249">
        <ele>710</ele>
        <time>2021-03-21T11:33:10Z</time>
      </trkpt>
      <trkpt lat="42.9816" lon="2.41256">
        <ele>710.3</ele>
        <time>2021-03-21T11:33:11Z</time>
      </trkpt>
      <trkpt lat="42.98158" lon="2.41271">
        <ele>711.2</ele>
        <time>2021-03-21T11:33:13Z</time>
      </trkpt>
      <trkpt lat="42.98157" lon="2.41279">
        <ele>711.6</ele>
        <time>2021-03-21T11:33:14Z</time>
      </trkpt>
      <trkpt lat="42.98153" lon="2.41293">
        <ele>712.4</ele>
        <time>2021-03-21T11:33:16Z</time>
      </trkpt>
      <trkpt lat="42.98151" lon="2.413">
        <ele>712.9</ele>
        <time>2021-03-21T11:33:17Z</time>
      </trkpt>
      <trkpt lat="42.98149" lon="2.41307">
        <ele>713.3</ele>
        <time>2021-03-21T11:33:18Z</time>
      </trkpt>
      <trkpt lat="42.98146" lon="2.41321">
        <ele>714.1</ele>
        <time>2021-03-21T11:33:20Z</time>
      </trkpt>
      <trkpt lat="42.98148" lon="2.41334">
        <ele>714.8</ele>
        <time>2021-03-21T11:33:22Z</time>
      </trkpt>
      <trkpt lat="42.9815" lon="2.41346">
        <ele>715.4</ele>
        <time>2021-03-21T11:33:24Z</time>
      </trkpt>
      <trkpt lat="42.98152" lon="2.41356">
        <ele>715.9</ele>
        <time>2021-03-21T11:33:26Z</time>
      </trkpt>
      <trkpt lat="42.98155" lon="2.41366">
        <ele>716.4</ele>
        <time>2021-03-21T11:33:28Z</time>
      </trkpt>
      <trkpt lat="42.98157" lon="2.41378">
        <ele>717</ele>
        <time>2021-03-21T11:33:30Z</time>
      </trkpt>
      <trkpt lat="42.98157" lon="2.41383">
        <ele>717.3</ele>
        <time>2021-03-21T11:33:31Z</time>
      </trkpt>
      <trkpt lat="42.98153" lon="2.41392">
        <ele>717.8</ele>
        <time>2021-03-21T11:33:32Z</time>
      </trkpt>
      <trkpt lat="42.98154" lon="2.414">
        <ele>718.2</ele>
        <time>2021-03-21T11:33:34Z</time>
      </trkpt>
      <trkpt lat="42.98158" lon="2.41409">
        <ele>718.7</ele>
        <time>2021-03-21T11:33:35Z</time>
      </trkpt>
      <trkpt lat="42.98161" lon="2.41417">
        <ele>719.2</ele>
        <time>2021-03-21T11:33:37Z</time>
      </trkpt>
      <trkpt lat="42.98161" lon="2.41424">
        <ele>719.5</ele>
        <time>2021-03-21T11:33:38Z</time>
      </trkpt>
      <trkpt lat="42.9816" lon="2.41436">
        <ele>720.1</ele>
        <time>2021-03-21T11:33:40Z</time>
      </trkpt>
      <trkpt lat="42.98159" lon="2.41442">
        <ele>720.4</ele>
        <time>2021-03-21T11:33:41Z</time>
      </trkpt>
      <trkpt lat="42.98158" lon="2.4145">
        <ele>720.7</ele>
        <time>2021-03-21T11:33:43Z</time>
      </trkpt>
      <trkpt lat="42.98157" lon="2.41457">
        <ele>721</ele>
        <time>2021-03-21T11:33:44Z</time>
      </trkpt>
      <trkpt lat="42.98156" lon="2.41463">
        <ele>721.2</ele>
        <time>2021-03-21T11:33:45Z</time>
      </trkpt>
      <trkpt lat="42.98155" lon="2.41471">
        <ele>721.4</ele>
        <time>2021-03-21T11:33:47Z</time>
      </trkpt>
      <trkpt lat="42.98155" lon="2.41477">
        <ele>721.6</ele>
        <time>2021-03-21T11:33:48Z</time>
      </trkpt>
      <trkpt lat="42.98156" lon="2.41482">
        <ele>721.8</ele>
        <time>2021-03-21T11:33:49Z</time>
      </trkpt>
      <trkpt lat="42.98158" lon="2.41488">
        <ele>721.9</ele>
        <time>2021-03-21T11:33:50Z</time>
      </trkpt>
      <trkpt lat="42.98162" lon="2.41492">
        <ele>722.1</ele>
        <time>2021-03-21T11:33:51Z</time>
      </trkpt>
      <trkpt lat="42.98172" lon="2.41494">
        <ele>722.1</ele>
        <time>2021-03-21T11:33:53Z</time>
      </trkpt>
      <trkpt lat="42.98181" lon="2.41493">
        <ele>722.1</ele>
        <time>2021-03-21T11:33:55Z</time>
      </trkpt>
      <trkpt lat="42.98184" lon="2.41491">
        <ele>722.1</ele>
        <time>2021-03-21T11:33:56Z</time>
      </trkpt>
      <trkpt lat="42.98187" lon="2.41486">
        <ele>722</ele>
        <time>2021-03-21T11:33:58Z</time>
      </trkpt>
      <trkpt lat="42.98193" lon="2.41477">
        <ele>721.9</ele>
        <time>2021-03-21T11:33:59Z</time>
      </trkpt>
      <trkpt lat="42.98201" lon="2.41464">
        <ele>721.6</ele>
        <time>2021-03-21T11:34:01Z</time>
      </trkpt>
      <trkpt lat="42.98205" lon="2.41458">
        <ele>721.5</ele>
        <time>2021-03-21T11:34:02Z</time>
      </trkpt>
      <trkpt lat="42.98212" lon="2.41444">
        <ele>721.2</ele>
        <time>2021-03-21T11:34:04Z</time>
      </trkpt>
      <trkpt lat="42.98216" lon="2.41438">
        <ele>721</ele>
        <time>2021-03-21T11:34:05Z</time>
      </trkpt>
      <trkpt lat="42.98225" lon="2.41427">
        <ele>720.5</ele>
        <time>2021-03-21T11:34:07Z</time>
      </trkpt>
      <trkpt lat="42.98231" lon="2.41423">
        <ele>720.2</ele>
        <time>2021-03-21T11:34:08Z</time>
      </trkpt>
      <trkpt lat="42.98238" lon="2.41421">
        <ele>719.9</ele>
        <time>2021-03-21T11:34:09Z</time>
      </trkpt>
      <trkpt lat="42.98252" lon="2.41426">
        <ele>719.2</ele>
        <time>2021-03-21T11:34:11Z</time>
      </trkpt>
      <trkpt lat="42.98259" lon="2.4143">
        <ele>718.9</ele>
        <time>2021-03-21T11:34:12Z</time>
      </trkpt>
      <trkpt lat="42.98266" lon="2.41433">
        <ele>718.6</ele>
        <time>2021-03-21T11:34:13Z</time>
      </trkpt>
      <trkpt lat="42.98281" lon="2.41433">
        <ele>718</ele>
        <time>2021-03-21T11:34:15Z</time>
      </trkpt>
      <trkpt lat="42.98296" lon="2.41431">
        <ele>717.5</ele>
        <time>2021-03-21T11:34:17Z</time>
      </trkpt>
      <trkpt lat="42.9831" lon="2.41434">
        <ele>716.9</ele>
        <time>2021-03-21T11:34:19Z</time>
      </trkpt>
      <trkpt lat="42.98317" lon="2.41439">
        <ele>716.5</ele>
        <time>2021-03-21T11:34:20Z</time>
      </trkpt>
      <trkpt lat="42.9833" lon="2.41454">
        <ele>715.8</ele>
        <time>2021-03-21T11:34:22Z</time>
      </trkpt>
      <trkpt lat="42.98336" lon="2.41464">
        <ele>715.5</ele>
        <time>2021-03-21T11:34:23Z</time>
      </trkpt>
      <trkpt lat="42.98344" lon="2.41485">
        <ele>714.8</ele>
        <time>2021-03-21T11:34:25Z</time>
      </trkpt>
      <trkpt lat="42.98347" lon="2.41509">
        <ele>714.1</ele>
        <time>2021-03-21T11:34:27Z</time>
      </trkpt>
      <trkpt lat="42.98346" lon="2.41521">
        <ele>713.7</ele>
        <time>2021-03-21T11:34:28Z</time>
      </trkpt>
      <trkpt lat="42.98343" lon="2.41533">
        <ele>713.2</ele>
        <time>2021-03-21T11:34:29Z</time>
      </trkpt>
      <trkpt lat="42.98333" lon="2.41554">
        <ele>712.4</ele>
        <time>2021-03-21T11:34:31Z</time>
      </trkpt>
      <trkpt lat="42.98321" lon="2.41572">
        <ele>711.6</ele>
        <time>2021-03-21T11:34:33Z</time>
      </trkpt>
      <trkpt lat="42.98311" lon="2.41592">
        <ele>711</ele>
        <time>2021-03-21T11:34:35Z</time>
      </trkpt>
      <trkpt lat="42.98306" lon="2.41603">
        <ele>710.6</ele>
        <time>2021-03-21T11:34:36Z</time>
      </trkpt>
      <trkpt lat="42.98302" lon="2.41614">
        <ele>710.2</ele>
        <time>2021-03-21T11:34:37Z</time>
      </trkpt>
      <trkpt lat="42.98297" lon="2.41625">
        <ele>709.8</ele>
        <time>2021-03-21T11:34:38Z</time>
      </trkpt>
      <trkpt lat="42.98285" lon="2.41645">
        <ele>708.9</ele>
        <time>2021-03-21T11:34:40Z</time>
      </trkpt>
      <trkpt lat="42.9827" lon="2.41664">
        <ele>708.1</ele>
        <time>2021-03-21T11:34:42Z</time>
      </trkpt>
      <trkpt lat="42.98264" lon="2.41675">
        <ele>707.7</ele>
        <time>2021-03-21T11:34:43Z</time>
      </trkpt>
      <trkpt lat="42.9826" lon="2.41687">
        <ele>707.3</ele>
        <time>2021-03-21T11:34:44Z</time>
      </trkpt>
      <trkpt lat="42.98256" lon="2.41715">
        <ele>706.5</ele>
        <time>2021-03-21T11:34:46Z</time>
      </trkpt>
      <trkpt lat="42.98255" lon="2.41743">
        <ele>705.7</ele>
        <time>2021-03-21T11:34:48Z</time>
      </trkpt>
      <trkpt lat="42.98256" lon="2.41757">
        <ele>705.4</ele>
        <time>2021-03-21T11:34:49Z</time>
      </trkpt>
      <trkpt lat="42.98257" lon="2.41771">
        <ele>705</ele>
        <time>2021-03-21T11:34:50Z</time>
      </trkpt>
      <trkpt lat="42.9826" lon="2.418">
        <ele>704.2</ele>
        <time>2021-03-21T11:34:52Z</time>
      </trkpt>
      <trkpt lat="42.98262" lon="2.41814">
        <ele>703.8</ele>
        <time>2021-03-21T11:34:53Z</time>
      </trkpt>
      <trkpt lat="42.98265" lon="2.41829">
        <ele>703.5</ele>
        <time>2021-03-21T11:34:54Z</time>
      </trkpt>
      <trkpt lat="42.98272" lon="2.41856">
        <ele>702.7</ele>
        <time>2021-03-21T11:34:56Z</time>
      </trkpt>
      <trkpt lat="42.98277" lon="2.4187">
        <ele>702.4</ele>
        <time>2021-03-21T11:34:57Z</time>
      </trkpt>
      <trkpt lat="42.98284" lon="2.41896">
        <ele>701.6</ele>
        <time>2021-03-21T11:34:59Z</time>
      </trkpt>
      <trkpt lat="42.98287" lon="2.41923">
        <ele>701</ele>
        <time>2021-03-21T11:35:01Z</time>
      </trkpt>
      <trkpt lat="42.98288" lon="2.4195">
        <ele>700.4</ele>
        <time>2021-03-21T11:35:03Z</time>
      </trkpt>
      <trkpt lat="42.98294" lon="2.41976">
        <ele>699.8</ele>
        <time>2021-03-21T11:35:05Z</time>
      </trkpt>
      <trkpt lat="42.98309" lon="2.41991">
        <ele>699</ele>
        <time>2021-03-21T11:35:07Z</time>
      </trkpt>
      <trkpt lat="42.98319" lon="2.4199">
        <ele>698.6</ele>
        <time>2021-03-21T11:35:08Z</time>
      </trkpt>
      <trkpt lat="42.98327" lon="2.41983">
        <ele>698.2</ele>
        <time>2021-03-21T11:35:09Z</time>
      </trkpt>
      <trkpt lat="42.9834" lon="2.41964">
        <ele>697.4</ele>
        <time>2021-03-21T11:35:11Z</time>
      </trkpt>
      <trkpt lat="42.9835" lon="2.41941">
        <ele>696.6</ele>
        <time>2021-03-21T11:35:13Z</time>
      </trkpt>
      <trkpt lat="42.98355" lon="2.41929">
        <ele>696.3</ele>
        <time>2021-03-21T11:35:14Z</time>
      </trkpt>
      <trkpt lat="42.98358" lon="2.41918">
        <ele>696</ele>
        <time>2021-03-21T11:35:15Z</time>
      </trkpt>
      <trkpt lat="42.98363" lon="2.41896">
        <ele>695.4</ele>
        <time>2021-03-21T11:35:17Z</time>
      </trkpt>
      <trkpt lat="42.98365" lon="2.41884">
        <ele>695</ele>
        <time>2021-03-21T11:35:18Z</time>
      </trkpt>
      <trkpt lat="42.98371" lon="2.41861">
        <ele>694.4</ele>
        <time>2021-03-21T11:35:20Z</time>
      </trkpt>
      <trkpt lat="42.98383" lon="2.41842">
        <ele>693.6</ele>
        <time>2021-03-21T11:35:22Z</time>
      </trkpt>
      <trkpt lat="42.98391" lon="2.41836">
        <ele>693.3</ele>
        <time>2021-03-21T11:35:23Z</time>
      </trkpt>
      <trkpt lat="42.984" lon="2.41834">
        <ele>692.9</ele>
        <time>2021-03-21T11:35:24Z</time>
      </trkpt>
      <trkpt lat="42.98419" lon="2.41838">
        <ele>692.1</ele>
        <time>2021-03-21T11:35:26Z</time>
      </trkpt>
      <trkpt lat="42.98428" lon="2.41844">
        <ele>691.8</ele>
        <time>2021-03-21T11:35:27Z</time>
      </trkpt>
      <trkpt lat="42.98436" lon="2.4185">
        <ele>691.4</ele>
        <time>2021-03-21T11:35:28Z</time>
      </trkpt>
      <trkpt lat="42.98453" lon="2.41855">
        <ele>690.6</ele>
        <time>2021-03-21T11:35:30Z</time>
      </trkpt>
      <trkpt lat="42.98462" lon="2.41853">
        <ele>690.2</ele>
        <time>2021-03-21T11:35:31Z</time>
      </trkpt>
      <trkpt lat="42.98479" lon="2.41847">
        <ele>689.3</ele>
        <time>2021-03-21T11:35:33Z</time>
      </trkpt>
      <trkpt lat="42.98497" lon="2.41847">
        <ele>688.5</ele>
        <time>2021-03-21T11:35:35Z</time>
      </trkpt>
      <trkpt lat="42.98514" lon="2.41858">
        <ele>687.7</ele>
        <time>2021-03-21T11:35:37Z</time>
      </trkpt>
      <trkpt lat="42.98521" lon="2.41867">
        <ele>687.2</ele>
        <time>2021-03-21T11:35:38Z</time>
      </trkpt>
      <trkpt lat="42.98529" lon="2.41891">
        <ele>686.3</ele>
        <time>2021-03-21T11:35:40Z</time>
      </trkpt>
      <trkpt lat="42.9853" lon="2.41918">
        <ele>685.4</ele>
        <time>2021-03-21T11:35:42Z</time>
      </trkpt>
      <trkpt lat="42.98529" lon="2.41931">
        <ele>685</ele>
        <time>2021-03-21T11:35:43Z</time>
      </trkpt>
      <trkpt lat="42.98523" lon="2.41954">
        <ele>684.4</ele>
        <time>2021-03-21T11:35:45Z</time>
      </trkpt>
      <trkpt lat="42.9852" lon="2.41965">
        <ele>684.1</ele>
        <time>2021-03-21T11:35:46Z</time>
      </trkpt>
      <trkpt lat="42.98517" lon="2.41975">
        <ele>683.8</ele>
        <time>2021-03-21T11:35:47Z</time>
      </trkpt>
      <trkpt lat="42.98515" lon="2.41986">
        <ele>683.5</ele>
        <time>2021-03-21T11:35:48Z</time>
      </trkpt>
      <trkpt lat="42.98514" lon="2.41997">
        <ele>683.3</ele>
        <time>2021-03-21T11:35:49Z</time>
      </trkpt>
      <trkpt lat="42.98519" lon="2.42017">
        <ele>682.6</ele>
        <time>2021-03-21T11:35:51Z</time>
      </trkpt>
      <trkpt lat="42.98525" lon="2.42027">
        <ele>682.2</ele>
        <time>2021-03-21T11:35:52Z</time>
      </trkpt>
      <trkpt lat="42.98532" lon="2.42034">
        <ele>681.8</ele>
        <time>2021-03-21T11:35:53Z</time>
      </trkpt>
      <trkpt lat="42.98547" lon="2.42047">
        <ele>681</ele>
        <time>2021-03-21T11:35:55Z</time>
      </trkpt>
      <trkpt lat="42.9856" lon="2.42062">
        <ele>680.3</ele>
        <time>2021-03-21T11:35:57Z</time>
      </trkpt>
      <trkpt lat="42.98574" lon="2.42079">
        <ele>679.5</ele>
        <time>2021-03-21T11:35:59Z</time>
      </trkpt>
      <trkpt lat="42.98583" lon="2.42102">
        <ele>678.7</ele>
        <time>2021-03-21T11:36:01Z</time>
      </trkpt>
      <trkpt lat="42.98583" lon="2.42117">
        <ele>678.2</ele>
        <time>2021-03-21T11:36:02Z</time>
      </trkpt>
      <trkpt lat="42.98577" lon="2.42144">
        <ele>677.3</ele>
        <time>2021-03-21T11:36:04Z</time>
      </trkpt>
      <trkpt lat="42.9857" lon="2.42169">
        <ele>676.6</ele>
        <time>2021-03-21T11:36:06Z</time>
      </trkpt>
      <trkpt lat="42.98568" lon="2.42181">
        <ele>676.3</ele>
        <time>2021-03-21T11:36:07Z</time>
      </trkpt>
      <trkpt lat="42.98569" lon="2.42194">
        <ele>675.9</ele>
        <time>2021-03-21T11:36:08Z</time>
      </trkpt>
      <trkpt lat="42.9858" lon="2.42217">
        <ele>675.1</ele>
        <time>2021-03-21T11:36:10Z</time>
      </trkpt>
      <trkpt lat="42.98588" lon="2.42226">
        <ele>674.8</ele>
        <time>2021-03-21T11:36:11Z</time>
      </trkpt>
      <trkpt lat="42.98596" lon="2.42233">
        <ele>674.6</ele>
        <time>2021-03-21T11:36:12Z</time>
      </trkpt>
      <trkpt lat="42.98602" lon="2.42241">
        <ele>674.5</ele>
        <time>2021-03-21T11:36:13Z</time>
      </trkpt>
      <trkpt lat="42.9861" lon="2.42261">
        <ele>674.6</ele>
        <time>2021-03-21T11:36:15Z</time>
      </trkpt>
      <trkpt lat="42.98607" lon="2.42284">
        <ele>674.9</ele>
        <time>2021-03-21T11:36:17Z</time>
      </trkpt>
      <trkpt lat="42.98601" lon="2.42293">
        <ele>675.2</ele>
        <time>2021-03-21T11:36:18Z</time>
      </trkpt>
      <trkpt lat="42.98595" lon="2.423">
        <ele>675.4</ele>
        <time>2021-03-21T11:36:19Z</time>
      </trkpt>
      <trkpt lat="42.9859" lon="2.42302">
        <ele>675.7</ele>
        <time>2021-03-21T11:36:20Z</time>
      </trkpt>
      <trkpt lat="42.98579" lon="2.42304">
        <ele>676.1</ele>
        <time>2021-03-21T11:36:22Z</time>
      </trkpt>
      <trkpt lat="42.98571" lon="2.42309">
        <ele>676.6</ele>
        <time>2021-03-21T11:36:24Z</time>
      </trkpt>
      <trkpt lat="42.98567" lon="2.42315">
        <ele>676.8</ele>
        <time>2021-03-21T11:36:25Z</time>
      </trkpt>
      <trkpt lat="42.98562" lon="2.42328">
        <ele>677.4</ele>
        <time>2021-03-21T11:36:27Z</time>
      </trkpt>
      <trkpt lat="42.9856" lon="2.42335">
        <ele>677.7</ele>
        <time>2021-03-21T11:36:28Z</time>
      </trkpt>
      <trkpt lat="42.98557" lon="2.4235">
        <ele>678.4</ele>
        <time>2021-03-21T11:36:30Z</time>
      </trkpt>
      <trkpt lat="42.98555" lon="2.42365">
        <ele>679.1</ele>
        <time>2021-03-21T11:36:32Z</time>
      </trkpt>
      <trkpt lat="42.98556" lon="2.4238">
        <ele>679.9</ele>
        <time>2021-03-21T11:36:34Z</time>
      </trkpt>
      <trkpt lat="42.98557" lon="2.42388">
        <ele>680.2</ele>
        <time>2021-03-21T11:36:35Z</time>
      </trkpt>
      <trkpt lat="42.98558" lon="2.42403">
        <ele>680.9</ele>
        <time>2021-03-21T11:36:37Z</time>
      </trkpt>
      <trkpt lat="42.98559" lon="2.42418">
        <ele>681.7</ele>
        <time>2021-03-21T11:36:39Z</time>
      </trkpt>
      <trkpt lat="42.9856" lon="2.42432">
        <ele>682.5</ele>
        <time>2021-03-21T11:36:41Z</time>
      </trkpt>
      <trkpt lat="42.98561" lon="2.42445">
        <ele>683.2</ele>
        <time>2021-03-21T11:36:43Z</time>
      </trkpt>
      <trkpt lat="42.98561" lon="2.42452">
        <ele>683.5</ele>
        <time>2021-03-21T11:36:44Z</time>
      </trkpt>
      <trkpt lat="42.98561" lon="2.42458">
        <ele>683.9</ele>
        <time>2021-03-21T11:36:45Z</time>
      </trkpt>
      <trkpt lat="42.98561" lon="2.42469">
        <ele>684.4</ele>
        <time>2021-03-21T11:36:47Z</time>
      </trkpt>
      <trkpt lat="42.98561" lon="2.42474">
        <ele>684.7</ele>
        <time>2021-03-21T11:36:48Z</time>
      </trkpt>
      <trkpt lat="42.98561" lon="2.42484">
        <ele>685.3</ele>
        <time>2021-03-21T11:36:50Z</time>
      </trkpt>
      <trkpt lat="42.9856" lon="2.42496">
        <ele>685.9</ele>
        <time>2021-03-21T11:36:52Z</time>
      </trkpt>
      <trkpt lat="42.98561" lon="2.42506">
        <ele>686.4</ele>
        <time>2021-03-21T11:36:53Z</time>
      </trkpt>
      <trkpt lat="42.98565" lon="2.42512">
        <ele>686.7</ele>
        <time>2021-03-21T11:36:54Z</time>
      </trkpt>
      <trkpt lat="42.98566" lon="2.42518">
        <ele>687.1</ele>
        <time>2021-03-21T11:36:56Z</time>
      </trkpt>
      <trkpt lat="42.98565" lon="2.42525">
        <ele>687.4</ele>
        <time>2021-03-21T11:36:57Z</time>
      </trkpt>
      <trkpt lat="42.98565" lon="2.42532">
        <ele>687.8</ele>
        <time>2021-03-21T11:36:58Z</time>
      </trkpt>
      <trkpt lat="42.98563" lon="2.42538">
        <ele>688.1</ele>
        <time>2021-03-21T11:36:59Z</time>
      </trkpt>
      <trkpt lat="42.98561" lon="2.42547">
        <ele>688.6</ele>
        <time>2021-03-21T11:37:01Z</time>
      </trkpt>
      <trkpt lat="42.98559" lon="2.42553">
        <ele>688.9</ele>
        <time>2021-03-21T11:37:02Z</time>
      </trkpt>
      <trkpt lat="42.98557" lon="2.42563">
        <ele>689.4</ele>
        <time>2021-03-21T11:37:04Z</time>
      </trkpt>
      <trkpt lat="42.98555" lon="2.42569">
        <ele>689.8</ele>
        <time>2021-03-21T11:37:05Z</time>
      </trkpt>
      <trkpt lat="42.98554" lon="2.42576">
        <ele>690.2</ele>
        <time>2021-03-21T11:37:06Z</time>
      </trkpt>
      <trkpt lat="42.98552" lon="2.42582">
        <ele>690.5</ele>
        <time>2021-03-21T11:37:07Z</time>
      </trkpt>
      <trkpt lat="42.9855" lon="2.42588">
        <ele>690.8</ele>
        <time>2021-03-21T11:37:09Z</time>
      </trkpt>
      <trkpt lat="42.98548" lon="2.42594">
        <ele>691.1</ele>
        <time>2021-03-21T11:37:10Z</time>
      </trkpt>
      <trkpt lat="42.98546" lon="2.426">
        <ele>691.5</ele>
        <time>2021-03-21T11:37:11Z</time>
      </trkpt>
      <trkpt lat="42.98544" lon="2.42606">
        <ele>691.8</ele>
        <time>2021-03-21T11:37:12Z</time>
      </trkpt>
      <trkpt lat="42.98542" lon="2.42614">
        <ele>692.2</ele>
        <time>2021-03-21T11:37:14Z</time>
      </trkpt>
      <trkpt lat="42.9854" lon="2.4262">
        <ele>692.5</ele>
        <time>2021-03-21T11:37:15Z</time>
      </trkpt>
      <trkpt lat="42.98539" lon="2.42625">
        <ele>692.8</ele>
        <time>2021-03-21T11:37:16Z</time>
      </trkpt>
      <trkpt lat="42.98537" lon="2.42633">
        <ele>693.3</ele>
        <time>2021-03-21T11:37:17Z</time>
      </trkpt>
      <trkpt lat="42.98535" lon="2.42643">
        <ele>693.7</ele>
        <time>2021-03-21T11:37:19Z</time>
      </trkpt>
      <trkpt lat="42.98534" lon="2.42648">
        <ele>694</ele>
        <time>2021-03-21T11:37:20Z</time>
      </trkpt>
      <trkpt lat="42.98532" lon="2.42656">
        <ele>694.4</ele>
        <time>2021-03-21T11:37:22Z</time>
      </trkpt>
      <trkpt lat="42.98531" lon="2.42661">
        <ele>694.6</ele>
        <time>2021-03-21T11:37:23Z</time>
      </trkpt>
      <trkpt lat="42.9853" lon="2.42668">
        <ele>694.9</ele>
        <time>2021-03-21T11:37:24Z</time>
      </trkpt>
      <trkpt lat="42.98526" lon="2.4267">
        <ele>695.2</ele>
        <time>2021-03-21T11:37:26Z</time>
      </trkpt>
      <trkpt lat="42.98525" lon="2.42671">
        <ele>695.3</ele>
        <time>2021-03-21T11:37:27Z</time>
      </trkpt>
      <trkpt lat="42.98523" lon="2.4268">
        <ele>695.8</ele>
        <time>2021-03-21T11:37:28Z</time>
      </trkpt>
      <trkpt lat="42.98525" lon="2.42683">
        <ele>696</ele>
        <time>2021-03-21T11:37:29Z</time>
      </trkpt>
      <trkpt lat="42.98527" lon="2.42689">
        <ele>696.2</ele>
        <time>2021-03-21T11:37:30Z</time>
      </trkpt>
      <trkpt lat="42.98532" lon="2.42701">
        <ele>696.8</ele>
        <time>2021-03-21T11:37:32Z</time>
      </trkpt>
      <trkpt lat="42.98534" lon="2.42705">
        <ele>697.1</ele>
        <time>2021-03-21T11:37:33Z</time>
      </trkpt>
      <trkpt lat="42.98536" lon="2.42712">
        <ele>697.4</ele>
        <time>2021-03-21T11:37:34Z</time>
      </trkpt>
      <trkpt lat="42.98538" lon="2.42722">
        <ele>697.9</ele>
        <time>2021-03-21T11:37:36Z</time>
      </trkpt>
      <trkpt lat="42.98539" lon="2.42729">
        <ele>698.3</ele>
        <time>2021-03-21T11:37:37Z</time>
      </trkpt>
      <trkpt lat="42.9854" lon="2.42736">
        <ele>698.6</ele>
        <time>2021-03-21T11:37:38Z</time>
      </trkpt>
      <trkpt lat="42.98542" lon="2.42745">
        <ele>699.1</ele>
        <time>2021-03-21T11:37:39Z</time>
      </trkpt>
      <trkpt lat="42.98544" lon="2.42757">
        <ele>699.7</ele>
        <time>2021-03-21T11:37:41Z</time>
      </trkpt>
      <trkpt lat="42.98544" lon="2.42768">
        <ele>700.3</ele>
        <time>2021-03-21T11:37:43Z</time>
      </trkpt>
      <trkpt lat="42.98545" lon="2.42777">
        <ele>700.7</ele>
        <time>2021-03-21T11:37:44Z</time>
      </trkpt>
      <trkpt lat="42.98546" lon="2.42785">
        <ele>701.1</ele>
        <time>2021-03-21T11:37:45Z</time>
      </trkpt>
      <trkpt lat="42.98546" lon="2.42792">
        <ele>701.4</ele>
        <time>2021-03-21T11:37:47Z</time>
      </trkpt>
      <trkpt lat="42.98547" lon="2.428">
        <ele>701.8</ele>
        <time>2021-03-21T11:37:48Z</time>
      </trkpt>
      <trkpt lat="42.98546" lon="2.42811">
        <ele>702.3</ele>
        <time>2021-03-21T11:37:49Z</time>
      </trkpt>
      <trkpt lat="42.98545" lon="2.42822">
        <ele>702.8</ele>
        <time>2021-03-21T11:37:51Z</time>
      </trkpt>
      <trkpt lat="42.98546" lon="2.42829">
        <ele>703.1</ele>
        <time>2021-03-21T11:37:52Z</time>
      </trkpt>
      <trkpt lat="42.98546" lon="2.42835">
        <ele>703.4</ele>
        <time>2021-03-21T11:37:53Z</time>
      </trkpt>
      <trkpt lat="42.98546" lon="2.42844">
        <ele>703.8</ele>
        <time>2021-03-21T11:37:55Z</time>
      </trkpt>
      <trkpt lat="42.98547" lon="2.42854">
        <ele>704.3</ele>
        <time>2021-03-21T11:37:56Z</time>
      </trkpt>
      <trkpt lat="42.98547" lon="2.42862">
        <ele>704.7</ele>
        <time>2021-03-21T11:37:57Z</time>
      </trkpt>
      <trkpt lat="42.98548" lon="2.42871">
        <ele>705.1</ele>
        <time>2021-03-21T11:37:59Z</time>
      </trkpt>
      <trkpt lat="42.9855" lon="2.42876">
        <ele>705.2</ele>
        <time>2021-03-21T11:38:00Z</time>
      </trkpt>
      <trkpt lat="42.98551" lon="2.42882">
        <ele>705.4</ele>
        <time>2021-03-21T11:38:01Z</time>
      </trkpt>
      <trkpt lat="42.98554" lon="2.4289">
        <ele>705.6</ele>
        <time>2021-03-21T11:38:03Z</time>
      </trkpt>
      <trkpt lat="42.98556" lon="2.42895">
        <ele>705.7</ele>
        <time>2021-03-21T11:38:04Z</time>
      </trkpt>
      <trkpt lat="42.9856" lon="2.429">
        <ele>705.9</ele>
        <time>2021-03-21T11:38:05Z</time>
      </trkpt>
      <trkpt lat="42.98564" lon="2.42904">
        <ele>706</ele>
        <time>2021-03-21T11:38:07Z</time>
      </trkpt>
      <trkpt lat="42.98568" lon="2.42902">
        <ele>706</ele>
        <time>2021-03-21T11:38:08Z</time>
      </trkpt>
      <trkpt lat="42.98569" lon="2.42898">
        <ele>706</ele>
        <time>2021-03-21T11:38:09Z</time>
      </trkpt>
      <trkpt lat="42.9857" lon="2.42893">
        <ele>706.6</ele>
        <time>2021-03-21T11:38:10Z</time>
      </trkpt>
      <trkpt lat="42.9857" lon="2.42886">
        <ele>706.7</ele>
        <time>2021-03-21T11:38:11Z</time>
      </trkpt>
      <trkpt lat="42.98568" lon="2.4288">
        <ele>706.8</ele>
        <time>2021-03-21T11:38:13Z</time>
      </trkpt>
      <trkpt lat="42.98566" lon="2.42874">
        <ele>706.9</ele>
        <time>2021-03-21T11:38:14Z</time>
      </trkpt>
      <trkpt lat="42.98565" lon="2.4287">
        <ele>707</ele>
        <time>2021-03-21T11:38:15Z</time>
      </trkpt>
      <trkpt lat="42.98564" lon="2.42865">
        <ele>707.1</ele>
        <time>2021-03-21T11:38:16Z</time>
      </trkpt>
      <trkpt lat="42.98563" lon="2.4286">
        <ele>707.1</ele>
        <time>2021-03-21T11:38:17Z</time>
      </trkpt>
      <trkpt lat="42.98563" lon="2.42854">
        <ele>707.2</ele>
        <time>2021-03-21T11:38:19Z</time>
      </trkpt>
      <trkpt lat="42.98563" lon="2.42846">
        <ele>707.3</ele>
        <time>2021-03-21T11:38:20Z</time>
      </trkpt>
      <trkpt lat="42.98563" lon="2.4284">
        <ele>707.5</ele>
        <time>2021-03-21T11:38:21Z</time>
      </trkpt>
      <trkpt lat="42.98563" lon="2.42833">
        <ele>707.6</ele>
        <time>2021-03-21T11:38:23Z</time>
      </trkpt>
      <trkpt lat="42.98563" lon="2.42826">
        <ele>707.7</ele>
        <time>2021-03-21T11:38:24Z</time>
      </trkpt>
      <trkpt lat="42.98563" lon="2.42821">
        <ele>707.9</ele>
        <time>2021-03-21T11:38:25Z</time>
      </trkpt>
      <trkpt lat="42.98563" lon="2.42815">
        <ele>708</ele>
        <time>2021-03-21T11:38:26Z</time>
      </trkpt>
      <trkpt lat="42.98562" lon="2.42805">
        <ele>708.2</ele>
        <time>2021-03-21T11:38:28Z</time>
      </trkpt>
      <trkpt lat="42.98562" lon="2.42799">
        <ele>708.4</ele>
        <time>2021-03-21T11:38:29Z</time>
      </trkpt>
      <trkpt lat="42.98562" lon="2.42794">
        <ele>708.5</ele>
        <time>2021-03-21T11:38:30Z</time>
      </trkpt>
      <trkpt lat="42.98563" lon="2.42788">
        <ele>708.7</ele>
        <time>2021-03-21T11:38:31Z</time>
      </trkpt>
      <trkpt lat="42.98563" lon="2.42781">
        <ele>709</ele>
        <time>2021-03-21T11:38:33Z</time>
      </trkpt>
      <trkpt lat="42.98564" lon="2.42774">
        <ele>709.2</ele>
        <time>2021-03-21T11:38:34Z</time>
      </trkpt>
      <trkpt lat="42.98564" lon="2.42769">
        <ele>709.4</ele>
        <time>2021-03-21T11:38:35Z</time>
      </trkpt>
      <trkpt lat="42.98565" lon="2.42763">
        <ele>709.5</ele>
        <time>2021-03-21T11:38:36Z</time>
      </trkpt>
      <trkpt lat="42.98566" lon="2.42756">
        <ele>709.8</ele>
        <time>2021-03-21T11:38:38Z</time>
      </trkpt>
      <trkpt lat="42.98568" lon="2.4275">
        <ele>710</ele>
        <time>2021-03-21T11:38:39Z</time>
      </trkpt>
      <trkpt lat="42.9857" lon="2.42741">
        <ele>710.3</ele>
        <time>2021-03-21T11:38:41Z</time>
      </trkpt>
      <trkpt lat="42.98571" lon="2.42735">
        <ele>710.5</ele>
        <time>2021-03-21T11:38:42Z</time>
      </trkpt>
      <trkpt lat="42.98572" lon="2.4273">
        <ele>710.6</ele>
        <time>2021-03-21T11:38:43Z</time>
      </trkpt>
      <trkpt lat="42.98573" lon="2.42725">
        <ele>710.8</ele>
        <time>2021-03-21T11:38:44Z</time>
      </trkpt>
      <trkpt lat="42.98575" lon="2.42719">
        <ele>711</ele>
        <time>2021-03-21T11:38:45Z</time>
      </trkpt>
      <trkpt lat="42.98577" lon="2.42713">
        <ele>711.1</ele>
        <time>2021-03-21T11:38:47Z</time>
      </trkpt>
      <trkpt lat="42.98579" lon="2.42709">
        <ele>711.3</ele>
        <time>2021-03-21T11:38:48Z</time>
      </trkpt>
      <trkpt lat="42.98582" lon="2.42703">
        <ele>711.4</ele>
        <time>2021-03-21T11:38:49Z</time>
      </trkpt>
      <trkpt lat="42.98583" lon="2.42699">
        <ele>711.6</ele>
        <time>2021-03-21T11:38:50Z</time>
      </trkpt>
      <trkpt lat="42.98586" lon="2.42692">
        <ele>711.8</ele>
        <time>2021-03-21T11:38:52Z</time>
      </trkpt>
      <trkpt lat="42.98589" lon="2.42686">
        <ele>711.9</ele>
        <time>2021-03-21T11:38:53Z</time>
      </trkpt>
      <trkpt lat="42.98591" lon="2.42681">
        <ele>712</ele>
        <time>2021-03-21T11:38:54Z</time>
      </trkpt>
      <trkpt lat="42.98594" lon="2.42674">
        <ele>712.2</ele>
        <time>2021-03-21T11:38:56Z</time>
      </trkpt>
      <trkpt lat="42.98597" lon="2.42669">
        <ele>712.4</ele>
        <time>2021-03-21T11:38:57Z</time>
      </trkpt>
      <trkpt lat="42.986" lon="2.42662">
        <ele>712.5</ele>
        <time>2021-03-21T11:38:59Z</time>
      </trkpt>
      <trkpt lat="42.98604" lon="2.42654">
        <ele>712.7</ele>
        <time>2021-03-21T11:39:00Z</time>
      </trkpt>
      <trkpt lat="42.98607" lon="2.42645">
        <ele>712.9</ele>
        <time>2021-03-21T11:39:02Z</time>
      </trkpt>
      <trkpt lat="42.9861" lon="2.42639">
        <ele>713</ele>
        <time>2021-03-21T11:39:03Z</time>
      </trkpt>
      <trkpt lat="42.98613" lon="2.42633">
        <ele>713</ele>
        <time>2021-03-21T11:39:04Z</time>
      </trkpt>
      <trkpt lat="42.98615" lon="2.42628">
        <ele>713.1</ele>
        <time>2021-03-21T11:39:05Z</time>
      </trkpt>
      <trkpt lat="42.98617" lon="2.42622">
        <ele>713.2</ele>
        <time>2021-03-21T11:39:06Z</time>
      </trkpt>
      <trkpt lat="42.98619" lon="2.42615">
        <ele>713.3</ele>
        <time>2021-03-21T11:39:07Z</time>
      </trkpt>
      <trkpt lat="42.98621" lon="2.42607">
        <ele>713.4</ele>
        <time>2021-03-21T11:39:09Z</time>
      </trkpt>
      <trkpt lat="42.98624" lon="2.42599">
        <ele>713.5</ele>
        <time>2021-03-21T11:39:10Z</time>
      </trkpt>
      <trkpt lat="42.98626" lon="2.4259">
        <ele>713.6</ele>
        <time>2021-03-21T11:39:12Z</time>
      </trkpt>
      <trkpt lat="42.98627" lon="2.42581">
        <ele>713.7</ele>
        <time>2021-03-21T11:39:13Z</time>
      </trkpt>
      <trkpt lat="42.98629" lon="2.42571">
        <ele>713.8</ele>
        <time>2021-03-21T11:39:15Z</time>
      </trkpt>
      <trkpt lat="42.98631" lon="2.42565">
        <ele>713.8</ele>
        <time>2021-03-21T11:39:16Z</time>
      </trkpt>
      <trkpt lat="42.98633" lon="2.42559">
        <ele>713.9</ele>
        <time>2021-03-21T11:39:17Z</time>
      </trkpt>
      <trkpt lat="42.98636" lon="2.42554">
        <ele>713.9</ele>
        <time>2021-03-21T11:39:18Z</time>
      </trkpt>
      <trkpt lat="42.98639" lon="2.42549">
        <ele>714</ele>
        <time>2021-03-21T11:39:19Z</time>
      </trkpt>
      <trkpt lat="42.98645" lon="2.42542">
        <ele>714.1</ele>
        <time>2021-03-21T11:39:21Z</time>
      </trkpt>
      <trkpt lat="42.98649" lon="2.42538">
        <ele>714.1</ele>
        <time>2021-03-21T11:39:22Z</time>
      </trkpt>
      <trkpt lat="42.98653" lon="2.42534">
        <ele>714.2</ele>
        <time>2021-03-21T11:39:23Z</time>
      </trkpt>
      <trkpt lat="42.98658" lon="2.42531">
        <ele>714.2</ele>
        <time>2021-03-21T11:39:24Z</time>
      </trkpt>
      <trkpt lat="42.98662" lon="2.42527">
        <ele>714.2</ele>
        <time>2021-03-21T11:39:26Z</time>
      </trkpt>
      <trkpt lat="42.98668" lon="2.42523">
        <ele>714.3</ele>
        <time>2021-03-21T11:39:27Z</time>
      </trkpt>
      <trkpt lat="42.98672" lon="2.4252">
        <ele>714.3</ele>
        <time>2021-03-21T11:39:28Z</time>
      </trkpt>
      <trkpt lat="42.98678" lon="2.42517">
        <ele>714.3</ele>
        <time>2021-03-21T11:39:29Z</time>
      </trkpt>
      <trkpt lat="42.98686" lon="2.4251">
        <ele>714.4</ele>
        <time>2021-03-21T11:39:31Z</time>
      </trkpt>
      <trkpt lat="42.98694" lon="2.42503">
        <ele>714.4</ele>
        <time>2021-03-21T11:39:33Z</time>
      </trkpt>
      <trkpt lat="42.98702" lon="2.42497">
        <ele>714.3</ele>
        <time>2021-03-21T11:39:35Z</time>
      </trkpt>
      <trkpt lat="42.98707" lon="2.42495">
        <ele>714.3</ele>
        <time>2021-03-21T11:39:36Z</time>
      </trkpt>
      <trkpt lat="42.98717" lon="2.42492">
        <ele>714.1</ele>
        <time>2021-03-21T11:39:38Z</time>
      </trkpt>
      <trkpt lat="42.98722" lon="2.42491">
        <ele>714</ele>
        <time>2021-03-21T11:39:39Z</time>
      </trkpt>
      <trkpt lat="42.98727" lon="2.4249">
        <ele>713.9</ele>
        <time>2021-03-21T11:39:40Z</time>
      </trkpt>
      <trkpt lat="42.98737" lon="2.42489">
        <ele>713.8</ele>
        <time>2021-03-21T11:39:42Z</time>
      </trkpt>
      <trkpt lat="42.98748" lon="2.42489">
        <ele>713.6</ele>
        <time>2021-03-21T11:39:44Z</time>
      </trkpt>
      <trkpt lat="42.98753" lon="2.4249">
        <ele>713.6</ele>
        <time>2021-03-21T11:39:45Z</time>
      </trkpt>
      <trkpt lat="42.98764" lon="2.42493">
        <ele>713.4</ele>
        <time>2021-03-21T11:39:47Z</time>
      </trkpt>
      <trkpt lat="42.98774" lon="2.42499">
        <ele>713.2</ele>
        <time>2021-03-21T11:39:49Z</time>
      </trkpt>
      <trkpt lat="42.98779" lon="2.42502">
        <ele>713</ele>
        <time>2021-03-21T11:39:50Z</time>
      </trkpt>
      <trkpt lat="42.98789" lon="2.42511">
        <ele>712.7</ele>
        <time>2021-03-21T11:39:52Z</time>
      </trkpt>
      <trkpt lat="42.98799" lon="2.42521">
        <ele>712.4</ele>
        <time>2021-03-21T11:39:54Z</time>
      </trkpt>
      <trkpt lat="42.98808" lon="2.4253">
        <ele>712.1</ele>
        <time>2021-03-21T11:39:56Z</time>
      </trkpt>
      <trkpt lat="42.98818" lon="2.42538">
        <ele>711.8</ele>
        <time>2021-03-21T11:39:58Z</time>
      </trkpt>
      <trkpt lat="42.98828" lon="2.42546">
        <ele>711.6</ele>
        <time>2021-03-21T11:40:00Z</time>
      </trkpt>
      <trkpt lat="42.9884" lon="2.42556">
        <ele>711.3</ele>
        <time>2021-03-21T11:40:02Z</time>
      </trkpt>
      <trkpt lat="42.98846" lon="2.42561">
        <ele>711.1</ele>
        <time>2021-03-21T11:40:03Z</time>
      </trkpt>
      <trkpt lat="42.98858" lon="2.42573">
        <ele>710.8</ele>
        <time>2021-03-21T11:40:05Z</time>
      </trkpt>
      <trkpt lat="42.98864" lon="2.4258">
        <ele>710.7</ele>
        <time>2021-03-21T11:40:06Z</time>
      </trkpt>
      <trkpt lat="42.98877" lon="2.42595">
        <ele>710.4</ele>
        <time>2021-03-21T11:40:08Z</time>
      </trkpt>
      <trkpt lat="42.98883" lon="2.42602">
        <ele>710.3</ele>
        <time>2021-03-21T11:40:09Z</time>
      </trkpt>
      <trkpt lat="42.98894" lon="2.42616">
        <ele>710</ele>
        <time>2021-03-21T11:40:11Z</time>
      </trkpt>
      <trkpt lat="42.98906" lon="2.4263">
        <ele>709.8</ele>
        <time>2021-03-21T11:40:13Z</time>
      </trkpt>
      <trkpt lat="42.98913" lon="2.42637">
        <ele>709.7</ele>
        <time>2021-03-21T11:40:14Z</time>
      </trkpt>
      <trkpt lat="42.98919" lon="2.42644">
        <ele>709.7</ele>
        <time>2021-03-21T11:40:15Z</time>
      </trkpt>
      <trkpt lat="42.9893" lon="2.42657">
        <ele>709.6</ele>
        <time>2021-03-21T11:40:17Z</time>
      </trkpt>
      <trkpt lat="42.98936" lon="2.42663">
        <ele>709.5</ele>
        <time>2021-03-21T11:40:18Z</time>
      </trkpt>
      <trkpt lat="42.98946" lon="2.42676">
        <ele>709.3</ele>
        <time>2021-03-21T11:40:20Z</time>
      </trkpt>
      <trkpt lat="42.98951" lon="2.42683">
        <ele>709.2</ele>
        <time>2021-03-21T11:40:21Z</time>
      </trkpt>
      <trkpt lat="42.98955" lon="2.42691">
        <ele>709.1</ele>
        <time>2021-03-21T11:40:22Z</time>
      </trkpt>
      <trkpt lat="42.98963" lon="2.42708">
        <ele>708.9</ele>
        <time>2021-03-21T11:40:24Z</time>
      </trkpt>
      <trkpt lat="42.98971" lon="2.42725">
        <ele>708.8</ele>
        <time>2021-03-21T11:40:26Z</time>
      </trkpt>
      <trkpt lat="42.98975" lon="2.42733">
        <ele>708.9</ele>
        <time>2021-03-21T11:40:27Z</time>
      </trkpt>
      <trkpt lat="42.98985" lon="2.42748">
        <ele>709</ele>
        <time>2021-03-21T11:40:29Z</time>
      </trkpt>
      <trkpt lat="42.9899" lon="2.42754">
        <ele>709.1</ele>
        <time>2021-03-21T11:40:30Z</time>
      </trkpt>
      <trkpt lat="42.98996" lon="2.4276">
        <ele>709.3</ele>
        <time>2021-03-21T11:40:31Z</time>
      </trkpt>
      <trkpt lat="42.99008" lon="2.42769">
        <ele>709.7</ele>
        <time>2021-03-21T11:40:33Z</time>
      </trkpt>
      <trkpt lat="42.99019" lon="2.42777">
        <ele>710.3</ele>
        <time>2021-03-21T11:40:35Z</time>
      </trkpt>
      <trkpt lat="42.9903" lon="2.42784">
        <ele>710.8</ele>
        <time>2021-03-21T11:40:37Z</time>
      </trkpt>
      <trkpt lat="42.99035" lon="2.42787">
        <ele>711.1</ele>
        <time>2021-03-21T11:40:38Z</time>
      </trkpt>
      <trkpt lat="42.99044" lon="2.42793">
        <ele>711.7</ele>
        <time>2021-03-21T11:40:40Z</time>
      </trkpt>
      <trkpt lat="42.99049" lon="2.42796">
        <ele>711.9</ele>
        <time>2021-03-21T11:40:41Z</time>
      </trkpt>
      <trkpt lat="42.99053" lon="2.42797">
        <ele>712.2</ele>
        <time>2021-03-21T11:40:42Z</time>
      </trkpt>
      <trkpt lat="42.99063" lon="2.42798">
        <ele>712.7</ele>
        <time>2021-03-21T11:40:44Z</time>
      </trkpt>
      <trkpt lat="42.99068" lon="2.42797">
        <ele>712.9</ele>
        <time>2021-03-21T11:40:45Z</time>
      </trkpt>
      <trkpt lat="42.99073" lon="2.42795">
        <ele>713.2</ele>
        <time>2021-03-21T11:40:46Z</time>
      </trkpt>
      <trkpt lat="42.99083" lon="2.42789">
        <ele>713.8</ele>
        <time>2021-03-21T11:40:48Z</time>
      </trkpt>
      <trkpt lat="42.99088" lon="2.42785">
        <ele>714.1</ele>
        <time>2021-03-21T11:40:49Z</time>
      </trkpt>
      <trkpt lat="42.99092" lon="2.42782">
        <ele>714.4</ele>
        <time>2021-03-21T11:40:50Z</time>
      </trkpt>
      <trkpt lat="42.99096" lon="2.42778">
        <ele>714.6</ele>
        <time>2021-03-21T11:40:51Z</time>
      </trkpt>
      <trkpt lat="42.99104" lon="2.42771">
        <ele>715.2</ele>
        <time>2021-03-21T11:40:53Z</time>
      </trkpt>
      <trkpt lat="42.9911" lon="2.42765">
        <ele>715.6</ele>
        <time>2021-03-21T11:40:55Z</time>
      </trkpt>
      <trkpt lat="42.99113" lon="2.42763">
        <ele>715.8</ele>
        <time>2021-03-21T11:40:56Z</time>
      </trkpt>
      <trkpt lat="42.99117" lon="2.4276">
        <ele>716</ele>
        <time>2021-03-21T11:40:57Z</time>
      </trkpt>
      <trkpt lat="42.9912" lon="2.42757">
        <ele>716.2</ele>
        <time>2021-03-21T11:40:58Z</time>
      </trkpt>
      <trkpt lat="42.99124" lon="2.42755">
        <ele>716.4</ele>
        <time>2021-03-21T11:40:59Z</time>
      </trkpt>
      <trkpt lat="42.99126" lon="2.42753">
        <ele>716.5</ele>
        <time>2021-03-21T11:41:00Z</time>
      </trkpt>
      <trkpt lat="42.99126" lon="2.42757">
        <ele>716.7</ele>
        <time>2021-03-21T11:41:02Z</time>
      </trkpt>
      <trkpt lat="42.9913" lon="2.42756">
        <ele>716.9</ele>
        <time>2021-03-21T11:41:03Z</time>
      </trkpt>
      <trkpt lat="42.99135" lon="2.42752">
        <ele>717.2</ele>
        <time>2021-03-21T11:41:04Z</time>
      </trkpt>
      <trkpt lat="42.99139" lon="2.42749">
        <ele>717.4</ele>
        <time>2021-03-21T11:41:06Z</time>
      </trkpt>
      <trkpt lat="42.99142" lon="2.42747">
        <ele>717.5</ele>
        <time>2021-03-21T11:41:07Z</time>
      </trkpt>
      <trkpt lat="42.99145" lon="2.42745">
        <ele>717.7</ele>
        <time>2021-03-21T11:41:08Z</time>
      </trkpt>
      <trkpt lat="42.99147" lon="2.42745">
        <ele>717.8</ele>
        <time>2021-03-21T11:41:09Z</time>
      </trkpt>
      <trkpt lat="42.99153" lon="2.42743">
        <ele>718.1</ele>
        <time>2021-03-21T11:41:11Z</time>
      </trkpt>
      <trkpt lat="42.99157" lon="2.42742">
        <ele>718.3</ele>
        <time>2021-03-21T11:41:13Z</time>
      </trkpt>
      <trkpt lat="42.9916" lon="2.42742">
        <ele>718.5</ele>
        <time>2021-03-21T11:41:14Z</time>
      </trkpt>
      <trkpt lat="42.99166" lon="2.42741">
        <ele>718.8</ele>
        <time>2021-03-21T11:41:16Z</time>
      </trkpt>
      <trkpt lat="42.9917" lon="2.4274">
        <ele>719</ele>
        <time>2021-03-21T11:41:17Z</time>
      </trkpt>
      <trkpt lat="42.99172" lon="2.42739">
        <ele>719.1</ele>
        <time>2021-03-21T11:41:18Z</time>
      </trkpt>
      <trkpt lat="42.99175" lon="2.42738">
        <ele>719.3</ele>
        <time>2021-03-21T11:41:19Z</time>
      </trkpt>
      <trkpt lat="42.99185" lon="2.42736">
        <ele>719.8</ele>
        <time>2021-03-21T11:41:21Z</time>
      </trkpt>
      <trkpt lat="42.9919" lon="2.42736">
        <ele>720.1</ele>
        <time>2021-03-21T11:41:23Z</time>
      </trkpt>
      <trkpt lat="42.99195" lon="2.42737">
        <ele>720.4</ele>
        <time>2021-03-21T11:41:24Z</time>
      </trkpt>
      <trkpt lat="42.99202" lon="2.42738">
        <ele>720.8</ele>
        <time>2021-03-21T11:41:25Z</time>
      </trkpt>
      <trkpt lat="42.99206" lon="2.42739">
        <ele>720.9</ele>
        <time>2021-03-21T11:41:26Z</time>
      </trkpt>
      <trkpt lat="42.9921" lon="2.4274">
        <ele>721.1</ele>
        <time>2021-03-21T11:41:27Z</time>
      </trkpt>
      <trkpt lat="42.99218" lon="2.42742">
        <ele>721.6</ele>
        <time>2021-03-21T11:41:29Z</time>
      </trkpt>
      <trkpt lat="42.99228" lon="2.42743">
        <ele>722</ele>
        <time>2021-03-21T11:41:31Z</time>
      </trkpt>
      <trkpt lat="42.99232" lon="2.42744">
        <ele>722.3</ele>
        <time>2021-03-21T11:41:32Z</time>
      </trkpt>
      <trkpt lat="42.99237" lon="2.42745">
        <ele>722.5</ele>
        <time>2021-03-21T11:41:33Z</time>
      </trkpt>
      <trkpt lat="42.99242" lon="2.42746">
        <ele>722.7</ele>
        <time>2021-03-21T11:41:34Z</time>
      </trkpt>
      <trkpt lat="42.99248" lon="2.42748">
        <ele>723.1</ele>
        <time>2021-03-21T11:41:36Z</time>
      </trkpt>
      <trkpt lat="42.99253" lon="2.4275">
        <ele>723.3</ele>
        <time>2021-03-21T11:41:37Z</time>
      </trkpt>
      <trkpt lat="42.9926" lon="2.42751">
        <ele>723.6</ele>
        <time>2021-03-21T11:41:39Z</time>
      </trkpt>
      <trkpt lat="42.99268" lon="2.42752">
        <ele>723.9</ele>
        <time>2021-03-21T11:41:41Z</time>
      </trkpt>
      <trkpt lat="42.99272" lon="2.42752">
        <ele>724</ele>
        <time>2021-03-21T11:41:42Z</time>
      </trkpt>
      <trkpt lat="42.99277" lon="2.42751">
        <ele>724.2</ele>
        <time>2021-03-21T11:41:43Z</time>
      </trkpt>
      <trkpt lat="42.9928" lon="2.42751">
        <ele>724.4</ele>
        <time>2021-03-21T11:41:44Z</time>
      </trkpt>
      <trkpt lat="42.99287" lon="2.4275">
        <ele>724.6</ele>
        <time>2021-03-21T11:41:46Z</time>
      </trkpt>
      <trkpt lat="42.99291" lon="2.4275">
        <ele>724.7</ele>
        <time>2021-03-21T11:41:47Z</time>
      </trkpt>
      <trkpt lat="42.99295" lon="2.42749">
        <ele>724.8</ele>
        <time>2021-03-21T11:41:48Z</time>
      </trkpt>
      <trkpt lat="42.99298" lon="2.42748">
        <ele>725</ele>
        <time>2021-03-21T11:41:49Z</time>
      </trkpt>
      <trkpt lat="42.99305" lon="2.42746">
        <ele>725.2</ele>
        <time>2021-03-21T11:41:51Z</time>
      </trkpt>
      <trkpt lat="42.99309" lon="2.42745">
        <ele>725.3</ele>
        <time>2021-03-21T11:41:52Z</time>
      </trkpt>
      <trkpt lat="42.99313" lon="2.42744">
        <ele>725.5</ele>
        <time>2021-03-21T11:41:53Z</time>
      </trkpt>
      <trkpt lat="42.99317" lon="2.42743">
        <ele>725.7</ele>
        <time>2021-03-21T11:41:54Z</time>
      </trkpt>
      <trkpt lat="42.99323" lon="2.42742">
        <ele>725.9</ele>
        <time>2021-03-21T11:41:55Z</time>
      </trkpt>
      <trkpt lat="42.99327" lon="2.42741">
        <ele>726.1</ele>
        <time>2021-03-21T11:41:56Z</time>
      </trkpt>
      <trkpt lat="42.99332" lon="2.42741">
        <ele>726.3</ele>
        <time>2021-03-21T11:41:58Z</time>
      </trkpt>
      <trkpt lat="42.99338" lon="2.4274">
        <ele>726.5</ele>
        <time>2021-03-21T11:41:59Z</time>
      </trkpt>
      <trkpt lat="42.99346" lon="2.42739">
        <ele>726.8</ele>
        <time>2021-03-21T11:42:00Z</time>
      </trkpt>
      <trkpt lat="42.99351" lon="2.42738">
        <ele>727</ele>
        <time>2021-03-21T11:42:02Z</time>
      </trkpt>
      <trkpt lat="42.99356" lon="2.42737">
        <ele>727.2</ele>
        <time>2021-03-21T11:42:03Z</time>
      </trkpt>
      <trkpt lat="42.99362" lon="2.42737">
        <ele>727.4</ele>
        <time>2021-03-21T11:42:05Z</time>
      </trkpt>
      <trkpt lat="42.99369" lon="2.42736">
        <ele>727.6</ele>
        <time>2021-03-21T11:42:06Z</time>
      </trkpt>
      <trkpt lat="42.99373" lon="2.42736">
        <ele>727.7</ele>
        <time>2021-03-21T11:42:07Z</time>
      </trkpt>
      <trkpt lat="42.99379" lon="2.42735">
        <ele>727.9</ele>
        <time>2021-03-21T11:42:09Z</time>
      </trkpt>
      <trkpt lat="42.99385" lon="2.42735">
        <ele>728.1</ele>
        <time>2021-03-21T11:42:10Z</time>
      </trkpt>
      <trkpt lat="42.99389" lon="2.42736">
        <ele>728.2</ele>
        <time>2021-03-21T11:42:11Z</time>
      </trkpt>
      <trkpt lat="42.99396" lon="2.42737">
        <ele>728.3</ele>
        <time>2021-03-21T11:42:13Z</time>
      </trkpt>
      <trkpt lat="42.99401" lon="2.42738">
        <ele>728.4</ele>
        <time>2021-03-21T11:42:14Z</time>
      </trkpt>
      <trkpt lat="42.99408" lon="2.42741">
        <ele>728.5</ele>
        <time>2021-03-21T11:42:16Z</time>
      </trkpt>
      <trkpt lat="42.99412" lon="2.42742">
        <ele>728.6</ele>
        <time>2021-03-21T11:42:17Z</time>
      </trkpt>
      <trkpt lat="42.99416" lon="2.42744">
        <ele>728.7</ele>
        <time>2021-03-21T11:42:18Z</time>
      </trkpt>
      <trkpt lat="42.99421" lon="2.42746">
        <ele>728.8</ele>
        <time>2021-03-21T11:42:19Z</time>
      </trkpt>
      <trkpt lat="42.99428" lon="2.42749">
        <ele>729</ele>
        <time>2021-03-21T11:42:20Z</time>
      </trkpt>
      <trkpt lat="42.99431" lon="2.42751">
        <ele>729</ele>
        <time>2021-03-21T11:42:21Z</time>
      </trkpt>
      <trkpt lat="42.99436" lon="2.42752">
        <ele>729.1</ele>
        <time>2021-03-21T11:42:23Z</time>
      </trkpt>
      <trkpt lat="42.9944" lon="2.42754">
        <ele>729.2</ele>
        <time>2021-03-21T11:42:24Z</time>
      </trkpt>
      <trkpt lat="42.99444" lon="2.42756">
        <ele>729.3</ele>
        <time>2021-03-21T11:42:25Z</time>
      </trkpt>
      <trkpt lat="42.99451" lon="2.4276">
        <ele>729.5</ele>
        <time>2021-03-21T11:42:26Z</time>
      </trkpt>
      <trkpt lat="42.99456" lon="2.42764">
        <ele>729.7</ele>
        <time>2021-03-21T11:42:27Z</time>
      </trkpt>
      <trkpt lat="42.9946" lon="2.42767">
        <ele>729.8</ele>
        <time>2021-03-21T11:42:28Z</time>
      </trkpt>
      <trkpt lat="42.99465" lon="2.42771">
        <ele>730</ele>
        <time>2021-03-21T11:42:29Z</time>
      </trkpt>
      <trkpt lat="42.99469" lon="2.42776">
        <ele>730.1</ele>
        <time>2021-03-21T11:42:31Z</time>
      </trkpt>
      <trkpt lat="42.9947" lon="2.42781">
        <ele>730.3</ele>
        <time>2021-03-21T11:42:32Z</time>
      </trkpt>
      <trkpt lat="42.99472" lon="2.42783">
        <ele>730.3</ele>
        <time>2021-03-21T11:42:33Z</time>
      </trkpt>
      <trkpt lat="42.99483" lon="2.42796">
        <ele>730.8</ele>
        <time>2021-03-21T11:42:35Z</time>
      </trkpt>
      <trkpt lat="42.99486" lon="2.42802">
        <ele>731</ele>
        <time>2021-03-21T11:42:36Z</time>
      </trkpt>
      <trkpt lat="42.9949" lon="2.42808">
        <ele>731.2</ele>
        <time>2021-03-21T11:42:37Z</time>
      </trkpt>
      <trkpt lat="42.99495" lon="2.4282">
        <ele>731.6</ele>
        <time>2021-03-21T11:42:39Z</time>
      </trkpt>
      <trkpt lat="42.99498" lon="2.42825">
        <ele>731.7</ele>
        <time>2021-03-21T11:42:40Z</time>
      </trkpt>
      <trkpt lat="42.995" lon="2.42831">
        <ele>731.9</ele>
        <time>2021-03-21T11:42:41Z</time>
      </trkpt>
      <trkpt lat="42.99503" lon="2.42836">
        <ele>732</ele>
        <time>2021-03-21T11:42:42Z</time>
      </trkpt>
      <trkpt lat="42.99509" lon="2.42847">
        <ele>732.3</ele>
        <time>2021-03-21T11:42:44Z</time>
      </trkpt>
      <trkpt lat="42.99515" lon="2.42856">
        <ele>732.7</ele>
        <time>2021-03-21T11:42:46Z</time>
      </trkpt>
      <trkpt lat="42.9952" lon="2.42858">
        <ele>732.9</ele>
        <time>2021-03-21T11:42:47Z</time>
      </trkpt>
      <trkpt lat="42.99529" lon="2.42859">
        <ele>733.2</ele>
        <time>2021-03-21T11:42:49Z</time>
      </trkpt>
      <trkpt lat="42.99534" lon="2.42857">
        <ele>733.4</ele>
        <time>2021-03-21T11:42:50Z</time>
      </trkpt>
      <trkpt lat="42.99541" lon="2.42852">
        <ele>733.7</ele>
        <time>2021-03-21T11:42:52Z</time>
      </trkpt>
      <trkpt lat="42.99547" lon="2.42845">
        <ele>733.9</ele>
        <time>2021-03-21T11:42:54Z</time>
      </trkpt>
      <trkpt lat="42.99551" lon="2.42836">
        <ele>734.2</ele>
        <time>2021-03-21T11:42:56Z</time>
      </trkpt>
      <trkpt lat="42.99553" lon="2.42831">
        <ele>734.3</ele>
        <time>2021-03-21T11:42:57Z</time>
      </trkpt>
      <trkpt lat="42.99557" lon="2.42827">
        <ele>734.5</ele>
        <time>2021-03-21T11:42:58Z</time>
      </trkpt>
      <trkpt lat="42.99562" lon="2.42823">
        <ele>734.6</ele>
        <time>2021-03-21T11:43:00Z</time>
      </trkpt>
      <trkpt lat="42.99567" lon="2.42818">
        <ele>734.8</ele>
        <time>2021-03-21T11:43:01Z</time>
      </trkpt>
      <trkpt lat="42.9957" lon="2.42815">
        <ele>735</ele>
        <time>2021-03-21T11:43:02Z</time>
      </trkpt>
      <trkpt lat="42.99574" lon="2.42811">
        <ele>735.1</ele>
        <time>2021-03-21T11:43:04Z</time>
      </trkpt>
      <trkpt lat="42.9958" lon="2.42806">
        <ele>735.3</ele>
        <time>2021-03-21T11:43:05Z</time>
      </trkpt>
      <trkpt lat="42.99585" lon="2.42803">
        <ele>735.5</ele>
        <time>2021-03-21T11:43:06Z</time>
      </trkpt>
      <trkpt lat="42.9959" lon="2.42801">
        <ele>735.7</ele>
        <time>2021-03-21T11:43:08Z</time>
      </trkpt>
      <trkpt lat="42.99595" lon="2.42801">
        <ele>735.8</ele>
        <time>2021-03-21T11:43:09Z</time>
      </trkpt>
      <trkpt lat="42.996" lon="2.428">
        <ele>736</ele>
        <time>2021-03-21T11:43:10Z</time>
      </trkpt>
      <trkpt lat="42.99606" lon="2.42801">
        <ele>736.2</ele>
        <time>2021-03-21T11:43:12Z</time>
      </trkpt>
      <trkpt lat="42.99611" lon="2.42802">
        <ele>736.3</ele>
        <time>2021-03-21T11:43:13Z</time>
      </trkpt>
      <trkpt lat="42.99616" lon="2.42803">
        <ele>736.4</ele>
        <time>2021-03-21T11:43:14Z</time>
      </trkpt>
      <trkpt lat="42.99623" lon="2.42806">
        <ele>736.6</ele>
        <time>2021-03-21T11:43:16Z</time>
      </trkpt>
      <trkpt lat="42.99627" lon="2.42808">
        <ele>736.7</ele>
        <time>2021-03-21T11:43:17Z</time>
      </trkpt>
      <trkpt lat="42.99631" lon="2.42809">
        <ele>736.8</ele>
        <time>2021-03-21T11:43:18Z</time>
      </trkpt>
      <trkpt lat="42.99636" lon="2.42811">
        <ele>737</ele>
        <time>2021-03-21T11:43:19Z</time>
      </trkpt>
      <trkpt lat="42.99641" lon="2.42812">
        <ele>737.1</ele>
        <time>2021-03-21T11:43:20Z</time>
      </trkpt>
      <trkpt lat="42.99645" lon="2.42812">
        <ele>737.3</ele>
        <time>2021-03-21T11:43:21Z</time>
      </trkpt>
      <trkpt lat="42.9965" lon="2.42811">
        <ele>737.5</ele>
        <time>2021-03-21T11:43:23Z</time>
      </trkpt>
      <trkpt lat="42.99653" lon="2.42809">
        <ele>737.6</ele>
        <time>2021-03-21T11:43:24Z</time>
      </trkpt>
      <trkpt lat="42.99659" lon="2.42804">
        <ele>737.8</ele>
        <time>2021-03-21T11:43:25Z</time>
      </trkpt>
      <trkpt lat="42.99661" lon="2.42799">
        <ele>738</ele>
        <time>2021-03-21T11:43:26Z</time>
      </trkpt>
      <trkpt lat="42.99665" lon="2.42792">
        <ele>738.3</ele>
        <time>2021-03-21T11:43:28Z</time>
      </trkpt>
      <trkpt lat="42.99667" lon="2.42786">
        <ele>738.4</ele>
        <time>2021-03-21T11:43:29Z</time>
      </trkpt>
      <trkpt lat="42.99668" lon="2.42781">
        <ele>738.6</ele>
        <time>2021-03-21T11:43:30Z</time>
      </trkpt>
      <trkpt lat="42.99669" lon="2.42775">
        <ele>738.8</ele>
        <time>2021-03-21T11:43:31Z</time>
      </trkpt>
      <trkpt lat="42.9967" lon="2.42769">
        <ele>738.9</ele>
        <time>2021-03-21T11:43:32Z</time>
      </trkpt>
      <trkpt lat="42.9967" lon="2.4276">
        <ele>739.1</ele>
        <time>2021-03-21T11:43:34Z</time>
      </trkpt>
      <trkpt lat="42.99671" lon="2.42754">
        <ele>739.2</ele>
        <time>2021-03-21T11:43:35Z</time>
      </trkpt>
      <trkpt lat="42.99671" lon="2.42747">
        <ele>739.4</ele>
        <time>2021-03-21T11:43:37Z</time>
      </trkpt>
      <trkpt lat="42.99671" lon="2.42741">
        <ele>739.5</ele>
        <time>2021-03-21T11:43:38Z</time>
      </trkpt>
      <trkpt lat="42.99671" lon="2.42735">
        <ele>739.7</ele>
        <time>2021-03-21T11:43:39Z</time>
      </trkpt>
      <trkpt lat="42.99671" lon="2.42729">
        <ele>739.8</ele>
        <time>2021-03-21T11:43:40Z</time>
      </trkpt>
      <trkpt lat="42.99671" lon="2.42724">
        <ele>739.9</ele>
        <time>2021-03-21T11:43:41Z</time>
      </trkpt>
      <trkpt lat="42.99671" lon="2.42717">
        <ele>740.1</ele>
        <time>2021-03-21T11:43:43Z</time>
      </trkpt>
      <trkpt lat="42.99672" lon="2.4271">
        <ele>740.2</ele>
        <time>2021-03-21T11:43:44Z</time>
      </trkpt>
      <trkpt lat="42.99673" lon="2.42702">
        <ele>740.4</ele>
        <time>2021-03-21T11:43:45Z</time>
      </trkpt>
      <trkpt lat="42.99673" lon="2.42694">
        <ele>740.6</ele>
        <time>2021-03-21T11:43:47Z</time>
      </trkpt>
      <trkpt lat="42.99673" lon="2.42688">
        <ele>740.7</ele>
        <time>2021-03-21T11:43:48Z</time>
      </trkpt>
      <trkpt lat="42.99673" lon="2.42681">
        <ele>740.9</ele>
        <time>2021-03-21T11:43:50Z</time>
      </trkpt>
      <trkpt lat="42.99672" lon="2.42674">
        <ele>741.1</ele>
        <time>2021-03-21T11:43:51Z</time>
      </trkpt>
      <trkpt lat="42.99671" lon="2.42668">
        <ele>741.2</ele>
        <time>2021-03-21T11:43:52Z</time>
      </trkpt>
      <trkpt lat="42.9967" lon="2.42662">
        <ele>741.4</ele>
        <time>2021-03-21T11:43:53Z</time>
      </trkpt>
      <trkpt lat="42.99669" lon="2.42656">
        <ele>741.6</ele>
        <time>2021-03-21T11:43:54Z</time>
      </trkpt>
      <trkpt lat="42.99668" lon="2.42651">
        <ele>741.7</ele>
        <time>2021-03-21T11:43:55Z</time>
      </trkpt>
      <trkpt lat="42.99666" lon="2.42643">
        <ele>741.9</ele>
        <time>2021-03-21T11:43:57Z</time>
      </trkpt>
      <trkpt lat="42.99664" lon="2.42635">
        <ele>742.1</ele>
        <time>2021-03-21T11:43:58Z</time>
      </trkpt>
      <trkpt lat="42.99662" lon="2.42627">
        <ele>742.3</ele>
        <time>2021-03-21T11:44:00Z</time>
      </trkpt>
      <trkpt lat="42.9966" lon="2.42619">
        <ele>742.5</ele>
        <time>2021-03-21T11:44:01Z</time>
      </trkpt>
      <trkpt lat="42.99659" lon="2.42614">
        <ele>742.7</ele>
        <time>2021-03-21T11:44:02Z</time>
      </trkpt>
      <trkpt lat="42.99657" lon="2.42609">
        <ele>742.8</ele>
        <time>2021-03-21T11:44:03Z</time>
      </trkpt>
      <trkpt lat="42.99654" lon="2.42599">
        <ele>743.1</ele>
        <time>2021-03-21T11:44:05Z</time>
      </trkpt>
      <trkpt lat="42.99652" lon="2.42593">
        <ele>743.2</ele>
        <time>2021-03-21T11:44:06Z</time>
      </trkpt>
      <trkpt lat="42.99649" lon="2.42586">
        <ele>743.4</ele>
        <time>2021-03-21T11:44:08Z</time>
      </trkpt>
      <trkpt lat="42.99647" lon="2.42581">
        <ele>743.6</ele>
        <time>2021-03-21T11:44:09Z</time>
      </trkpt>
      <trkpt lat="42.99645" lon="2.42576">
        <ele>743.7</ele>
        <time>2021-03-21T11:44:10Z</time>
      </trkpt>
      <trkpt lat="42.99641" lon="2.42569">
        <ele>743.9</ele>
        <time>2021-03-21T11:44:11Z</time>
      </trkpt>
      <trkpt lat="42.99638" lon="2.42565">
        <ele>744.1</ele>
        <time>2021-03-21T11:44:12Z</time>
      </trkpt>
      <trkpt lat="42.99632" lon="2.42558">
        <ele>744.4</ele>
        <time>2021-03-21T11:44:14Z</time>
      </trkpt>
      <trkpt lat="42.99628" lon="2.42555">
        <ele>744.5</ele>
        <time>2021-03-21T11:44:15Z</time>
      </trkpt>
      <trkpt lat="42.99621" lon="2.42551">
        <ele>744.8</ele>
        <time>2021-03-21T11:44:17Z</time>
      </trkpt>
      <trkpt lat="42.99615" lon="2.42549">
        <ele>745</ele>
        <time>2021-03-21T11:44:19Z</time>
      </trkpt>
      <trkpt lat="42.99609" lon="2.42546">
        <ele>745.2</ele>
        <time>2021-03-21T11:44:20Z</time>
      </trkpt>
      <trkpt lat="42.99605" lon="2.42544">
        <ele>745.4</ele>
        <time>2021-03-21T11:44:21Z</time>
      </trkpt>
      <trkpt lat="42.99601" lon="2.42541">
        <ele>745.5</ele>
        <time>2021-03-21T11:44:22Z</time>
      </trkpt>
      <trkpt lat="42.99595" lon="2.42538">
        <ele>745.7</ele>
        <time>2021-03-21T11:44:24Z</time>
      </trkpt>
      <trkpt lat="42.99592" lon="2.42536">
        <ele>745.8</ele>
        <time>2021-03-21T11:44:25Z</time>
      </trkpt>
      <trkpt lat="42.99586" lon="2.42537">
        <ele>746</ele>
        <time>2021-03-21T11:44:27Z</time>
      </trkpt>
      <trkpt lat="42.99581" lon="2.42535">
        <ele>746.2</ele>
        <time>2021-03-21T11:44:28Z</time>
      </trkpt>
      <trkpt lat="42.99575" lon="2.42533">
        <ele>746.4</ele>
        <time>2021-03-21T11:44:30Z</time>
      </trkpt>
      <trkpt lat="42.9957" lon="2.42531">
        <ele>746.5</ele>
        <time>2021-03-21T11:44:31Z</time>
      </trkpt>
      <trkpt lat="42.99566" lon="2.42528">
        <ele>746.6</ele>
        <time>2021-03-21T11:44:33Z</time>
      </trkpt>
      <trkpt lat="42.99564" lon="2.42525">
        <ele>746.7</ele>
        <time>2021-03-21T11:44:34Z</time>
      </trkpt>
      <trkpt lat="42.99562" lon="2.42521">
        <ele>746.8</ele>
        <time>2021-03-21T11:44:35Z</time>
      </trkpt>
      <trkpt lat="42.99563" lon="2.42513">
        <ele>747</ele>
        <time>2021-03-21T11:44:37Z</time>
      </trkpt>
      <trkpt lat="42.99563" lon="2.42505">
        <ele>747.1</ele>
        <time>2021-03-21T11:44:39Z</time>
      </trkpt>
      <trkpt lat="42.99563" lon="2.42501">
        <ele>747.2</ele>
        <time>2021-03-21T11:44:40Z</time>
      </trkpt>
      <trkpt lat="42.99562" lon="2.42497">
        <ele>747.3</ele>
        <time>2021-03-21T11:44:41Z</time>
      </trkpt>
      <trkpt lat="42.99564" lon="2.42487">
        <ele>747.5</ele>
        <time>2021-03-21T11:44:43Z</time>
      </trkpt>
      <trkpt lat="42.99565" lon="2.42482">
        <ele>747.6</ele>
        <time>2021-03-21T11:44:44Z</time>
      </trkpt>
      <trkpt lat="42.99567" lon="2.42474">
        <ele>747.8</ele>
        <time>2021-03-21T11:44:46Z</time>
      </trkpt>
      <trkpt lat="42.99568" lon="2.42467">
        <ele>747.9</ele>
        <time>2021-03-21T11:44:47Z</time>
      </trkpt>
      <trkpt lat="42.99571" lon="2.42459">
        <ele>748.1</ele>
        <time>2021-03-21T11:44:49Z</time>
      </trkpt>
      <trkpt lat="42.99574" lon="2.42452">
        <ele>748.3</ele>
        <time>2021-03-21T11:44:50Z</time>
      </trkpt>
      <trkpt lat="42.99575" lon="2.42447">
        <ele>748.5</ele>
        <time>2021-03-21T11:44:51Z</time>
      </trkpt>
      <trkpt lat="42.99579" lon="2.42438">
        <ele>748.7</ele>
        <time>2021-03-21T11:44:53Z</time>
      </trkpt>
      <trkpt lat="42.99581" lon="2.42433">
        <ele>748.9</ele>
        <time>2021-03-21T11:44:54Z</time>
      </trkpt>
      <trkpt lat="42.99584" lon="2.42428">
        <ele>749.1</ele>
        <time>2021-03-21T11:44:55Z</time>
      </trkpt>
      <trkpt lat="42.99587" lon="2.42422">
        <ele>749.3</ele>
        <time>2021-03-21T11:44:57Z</time>
      </trkpt>
      <trkpt lat="42.9959" lon="2.42416">
        <ele>749.5</ele>
        <time>2021-03-21T11:44:58Z</time>
      </trkpt>
      <trkpt lat="42.99594" lon="2.4241">
        <ele>749.7</ele>
        <time>2021-03-21T11:44:59Z</time>
      </trkpt>
      <trkpt lat="42.99596" lon="2.42405">
        <ele>749.8</ele>
        <time>2021-03-21T11:45:00Z</time>
      </trkpt>
      <trkpt lat="42.99598" lon="2.42401">
        <ele>750</ele>
        <time>2021-03-21T11:45:01Z</time>
      </trkpt>
      <trkpt lat="42.99601" lon="2.42394">
        <ele>750.2</ele>
        <time>2021-03-21T11:45:03Z</time>
      </trkpt>
      <trkpt lat="42.99604" lon="2.42389">
        <ele>750.3</ele>
        <time>2021-03-21T11:45:04Z</time>
      </trkpt>
      <trkpt lat="42.99607" lon="2.42383">
        <ele>750.5</ele>
        <time>2021-03-21T11:45:05Z</time>
      </trkpt>
      <trkpt lat="42.9961" lon="2.42379">
        <ele>750.6</ele>
        <time>2021-03-21T11:45:06Z</time>
      </trkpt>
      <trkpt lat="42.99613" lon="2.42375">
        <ele>750.8</ele>
        <time>2021-03-21T11:45:07Z</time>
      </trkpt>
      <trkpt lat="42.99617" lon="2.42368">
        <ele>751</ele>
        <time>2021-03-21T11:45:09Z</time>
      </trkpt>
      <trkpt lat="42.9962" lon="2.42361">
        <ele>751.1</ele>
        <time>2021-03-21T11:45:10Z</time>
      </trkpt>
      <trkpt lat="42.99623" lon="2.42357">
        <ele>751.3</ele>
        <time>2021-03-21T11:45:11Z</time>
      </trkpt>
      <trkpt lat="42.99627" lon="2.42348">
        <ele>751.5</ele>
        <time>2021-03-21T11:45:13Z</time>
      </trkpt>
      <trkpt lat="42.99629" lon="2.42343">
        <ele>751.7</ele>
        <time>2021-03-21T11:45:14Z</time>
      </trkpt>
      <trkpt lat="42.99633" lon="2.42336">
        <ele>751.9</ele>
        <time>2021-03-21T11:45:16Z</time>
      </trkpt>
      <trkpt lat="42.99636" lon="2.42331">
        <ele>752</ele>
        <time>2021-03-21T11:45:17Z</time>
      </trkpt>
      <trkpt lat="42.99639" lon="2.42324">
        <ele>752.3</ele>
        <time>2021-03-21T11:45:18Z</time>
      </trkpt>
      <trkpt lat="42.99642" lon="2.42318">
        <ele>752.4</ele>
        <time>2021-03-21T11:45:20Z</time>
      </trkpt>
      <trkpt lat="42.99645" lon="2.42311">
        <ele>752.6</ele>
        <time>2021-03-21T11:45:21Z</time>
      </trkpt>
      <trkpt lat="42.99648" lon="2.42306">
        <ele>752.8</ele>
        <time>2021-03-21T11:45:22Z</time>
      </trkpt>
      <trkpt lat="42.99651" lon="2.42301">
        <ele>752.9</ele>
        <time>2021-03-21T11:45:23Z</time>
      </trkpt>
      <trkpt lat="42.99653" lon="2.42296">
        <ele>753.1</ele>
        <time>2021-03-21T11:45:24Z</time>
      </trkpt>
      <trkpt lat="42.99656" lon="2.42289">
        <ele>753.3</ele>
        <time>2021-03-21T11:45:26Z</time>
      </trkpt>
      <trkpt lat="42.9966" lon="2.42282">
        <ele>753.5</ele>
        <time>2021-03-21T11:45:27Z</time>
      </trkpt>
      <trkpt lat="42.99664" lon="2.42277">
        <ele>753.6</ele>
        <time>2021-03-21T11:45:28Z</time>
      </trkpt>
      <trkpt lat="42.99668" lon="2.4227">
        <ele>753.8</ele>
        <time>2021-03-21T11:45:30Z</time>
      </trkpt>
      <trkpt lat="42.99671" lon="2.42265">
        <ele>753.9</ele>
        <time>2021-03-21T11:45:31Z</time>
      </trkpt>
      <trkpt lat="42.99675" lon="2.42259">
        <ele>754.1</ele>
        <time>2021-03-21T11:45:33Z</time>
      </trkpt>
      <trkpt lat="42.99679" lon="2.42253">
        <ele>754.2</ele>
        <time>2021-03-21T11:45:34Z</time>
      </trkpt>
      <trkpt lat="42.99683" lon="2.42249">
        <ele>754.4</ele>
        <time>2021-03-21T11:45:36Z</time>
      </trkpt>
      <trkpt lat="42.99687" lon="2.42245">
        <ele>754.5</ele>
        <time>2021-03-21T11:45:37Z</time>
      </trkpt>
      <trkpt lat="42.9969" lon="2.42242">
        <ele>754.5</ele>
        <time>2021-03-21T11:45:38Z</time>
      </trkpt>
      <trkpt lat="42.99694" lon="2.42239">
        <ele>754.5</ele>
        <time>2021-03-21T11:45:39Z</time>
      </trkpt>
      <trkpt lat="42.99699" lon="2.42237">
        <ele>754.6</ele>
        <time>2021-03-21T11:45:40Z</time>
      </trkpt>
      <trkpt lat="42.99703" lon="2.42236">
        <ele>754.6</ele>
        <time>2021-03-21T11:45:41Z</time>
      </trkpt>
      <trkpt lat="42.99709" lon="2.42235">
        <ele>754.5</ele>
        <time>2021-03-21T11:45:43Z</time>
      </trkpt>
      <trkpt lat="42.99715" lon="2.42239">
        <ele>754.5</ele>
        <time>2021-03-21T11:45:44Z</time>
      </trkpt>
      <trkpt lat="42.99719" lon="2.42242">
        <ele>754.5</ele>
        <time>2021-03-21T11:45:45Z</time>
      </trkpt>
      <trkpt lat="42.99724" lon="2.42247">
        <ele>754.3</ele>
        <time>2021-03-21T11:45:46Z</time>
      </trkpt>
      <trkpt lat="42.99732" lon="2.42259">
        <ele>753.7</ele>
        <time>2021-03-21T11:45:48Z</time>
      </trkpt>
      <trkpt lat="42.9974" lon="2.42272">
        <ele>753.1</ele>
        <time>2021-03-21T11:45:50Z</time>
      </trkpt>
      <trkpt lat="42.99749" lon="2.42287">
        <ele>752.4</ele>
        <time>2021-03-21T11:45:52Z</time>
      </trkpt>
      <trkpt lat="42.99756" lon="2.42303">
        <ele>751.5</ele>
        <time>2021-03-21T11:45:54Z</time>
      </trkpt>
      <trkpt lat="42.99763" lon="2.42321">
        <ele>750.5</ele>
        <time>2021-03-21T11:45:56Z</time>
      </trkpt>
      <trkpt lat="42.9977" lon="2.42341">
        <ele>749.3</ele>
        <time>2021-03-21T11:45:58Z</time>
      </trkpt>
      <trkpt lat="42.99777" lon="2.42363">
        <ele>748</ele>
        <time>2021-03-21T11:46:00Z</time>
      </trkpt>
      <trkpt lat="42.9978" lon="2.42374">
        <ele>747.5</ele>
        <time>2021-03-21T11:46:01Z</time>
      </trkpt>
      <trkpt lat="42.99785" lon="2.42385">
        <ele>747</ele>
        <time>2021-03-21T11:46:02Z</time>
      </trkpt>
      <trkpt lat="42.99797" lon="2.42405">
        <ele>746</ele>
        <time>2021-03-21T11:46:04Z</time>
      </trkpt>
      <trkpt lat="42.99805" lon="2.42413">
        <ele>745.4</ele>
        <time>2021-03-21T11:46:05Z</time>
      </trkpt>
      <trkpt lat="42.9982" lon="2.42425">
        <ele>744.3</ele>
        <time>2021-03-21T11:46:07Z</time>
      </trkpt>
      <trkpt lat="42.99837" lon="2.42435">
        <ele>742.9</ele>
        <time>2021-03-21T11:46:09Z</time>
      </trkpt>
      <trkpt lat="42.99855" lon="2.42439">
        <ele>741.7</ele>
        <time>2021-03-21T11:46:11Z</time>
      </trkpt>
      <trkpt lat="42.99864" lon="2.42439">
        <ele>741</ele>
        <time>2021-03-21T11:46:12Z</time>
      </trkpt>
      <trkpt lat="42.99873" lon="2.42438">
        <ele>740.4</ele>
        <time>2021-03-21T11:46:13Z</time>
      </trkpt>
      <trkpt lat="42.9989" lon="2.42434">
        <ele>739.4</ele>
        <time>2021-03-21T11:46:15Z</time>
      </trkpt>
      <trkpt lat="42.99899" lon="2.42431">
        <ele>738.8</ele>
        <time>2021-03-21T11:46:16Z</time>
      </trkpt>
      <trkpt lat="42.99909" lon="2.42428">
        <ele>738.2</ele>
        <time>2021-03-21T11:46:17Z</time>
      </trkpt>
      <trkpt lat="42.99927" lon="2.42422">
        <ele>737.1</ele>
        <time>2021-03-21T11:46:19Z</time>
      </trkpt>
      <trkpt lat="42.99937" lon="2.42419">
        <ele>736.6</ele>
        <time>2021-03-21T11:46:20Z</time>
      </trkpt>
      <trkpt lat="42.99957" lon="2.42416">
        <ele>735.7</ele>
        <time>2021-03-21T11:46:22Z</time>
      </trkpt>
      <trkpt lat="42.99977" lon="2.4242">
        <ele>734.6</ele>
        <time>2021-03-21T11:46:24Z</time>
      </trkpt>
      <trkpt lat="42.99997" lon="2.42432">
        <ele>733.1</ele>
        <time>2021-03-21T11:46:26Z</time>
      </trkpt>
      <trkpt lat="43.00007" lon="2.42439">
        <ele>732.2</ele>
        <time>2021-03-21T11:46:27Z</time>
      </trkpt>
      <trkpt lat="43.00027" lon="2.42448">
        <ele>730.9</ele>
        <time>2021-03-21T11:46:29Z</time>
      </trkpt>
      <trkpt lat="43.00037" lon="2.42452">
        <ele>730.4</ele>
        <time>2021-03-21T11:46:30Z</time>
      </trkpt>
      <trkpt lat="43.00046" lon="2.42455">
        <ele>729.8</ele>
        <time>2021-03-21T11:46:31Z</time>
      </trkpt>
      <trkpt lat="43.00056" lon="2.42459">
        <ele>729.2</ele>
        <time>2021-03-21T11:46:32Z</time>
      </trkpt>
      <trkpt lat="43.00066" lon="2.42462">
        <ele>728.6</ele>
        <time>2021-03-21T11:46:33Z</time>
      </trkpt>
      <trkpt lat="43.00087" lon="2.42468">
        <ele>727.5</ele>
        <time>2021-03-21T11:46:35Z</time>
      </trkpt>
      <trkpt lat="43.00098" lon="2.42471">
        <ele>726.9</ele>
        <time>2021-03-21T11:46:36Z</time>
      </trkpt>
      <trkpt lat="43.00108" lon="2.42473">
        <ele>726.3</ele>
        <time>2021-03-21T11:46:37Z</time>
      </trkpt>
      <trkpt lat="43.00119" lon="2.42475">
        <ele>725.8</ele>
        <time>2021-03-21T11:46:38Z</time>
      </trkpt>
      <trkpt lat="43.0013" lon="2.42476">
        <ele>725.3</ele>
        <time>2021-03-21T11:46:39Z</time>
      </trkpt>
      <trkpt lat="43.00152" lon="2.42478">
        <ele>724.4</ele>
        <time>2021-03-21T11:46:41Z</time>
      </trkpt>
      <trkpt lat="43.00163" lon="2.42481">
        <ele>723.9</ele>
        <time>2021-03-21T11:46:42Z</time>
      </trkpt>
      <trkpt lat="43.00183" lon="2.42493">
        <ele>723</ele>
        <time>2021-03-21T11:46:44Z</time>
      </trkpt>
      <trkpt lat="43.00204" lon="2.42498">
        <ele>722</ele>
        <time>2021-03-21T11:46:46Z</time>
      </trkpt>
      <trkpt lat="43.00214" lon="2.42494">
        <ele>721.3</ele>
        <time>2021-03-21T11:46:47Z</time>
      </trkpt>
      <trkpt lat="43.00224" lon="2.42487">
        <ele>720.6</ele>
        <time>2021-03-21T11:46:48Z</time>
      </trkpt>
      <trkpt lat="43.00242" lon="2.42471">
        <ele>719.3</ele>
        <time>2021-03-21T11:46:50Z</time>
      </trkpt>
      <trkpt lat="43.0025" lon="2.42464">
        <ele>718.8</ele>
        <time>2021-03-21T11:46:51Z</time>
      </trkpt>
      <trkpt lat="43.00268" lon="2.42452">
        <ele>718</ele>
        <time>2021-03-21T11:46:53Z</time>
      </trkpt>
      <trkpt lat="43.00287" lon="2.42454">
        <ele>717.3</ele>
        <time>2021-03-21T11:46:55Z</time>
      </trkpt>
      <trkpt lat="43.00295" lon="2.42461">
        <ele>716.7</ele>
        <time>2021-03-21T11:46:56Z</time>
      </trkpt>
      <trkpt lat="43.00303" lon="2.42471">
        <ele>715.9</ele>
        <time>2021-03-21T11:46:57Z</time>
      </trkpt>
      <trkpt lat="43.00312" lon="2.42481">
        <ele>715.1</ele>
        <time>2021-03-21T11:46:58Z</time>
      </trkpt>
      <trkpt lat="43.00321" lon="2.42488">
        <ele>714.2</ele>
        <time>2021-03-21T11:46:59Z</time>
      </trkpt>
      <trkpt lat="43.0033" lon="2.42492">
        <ele>713.5</ele>
        <time>2021-03-21T11:47:00Z</time>
      </trkpt>
      <trkpt lat="43.00351" lon="2.42492">
        <ele>711.8</ele>
        <time>2021-03-21T11:47:02Z</time>
      </trkpt>
      <trkpt lat="43.00373" lon="2.42491">
        <ele>710.4</ele>
        <time>2021-03-21T11:47:04Z</time>
      </trkpt>
      <trkpt lat="43.00383" lon="2.42491">
        <ele>709.7</ele>
        <time>2021-03-21T11:47:05Z</time>
      </trkpt>
      <trkpt lat="43.00405" lon="2.42492">
        <ele>708.5</ele>
        <time>2021-03-21T11:47:07Z</time>
      </trkpt>
      <trkpt lat="43.00426" lon="2.42492">
        <ele>707.5</ele>
        <time>2021-03-21T11:47:09Z</time>
      </trkpt>
      <trkpt lat="43.00447" lon="2.42489">
        <ele>706.5</ele>
        <time>2021-03-21T11:47:11Z</time>
      </trkpt>
      <trkpt lat="43.00465" lon="2.4248">
        <ele>705.8</ele>
        <time>2021-03-21T11:47:13Z</time>
      </trkpt>
      <trkpt lat="43.00474" lon="2.42472">
        <ele>705.5</ele>
        <time>2021-03-21T11:47:14Z</time>
      </trkpt>
      <trkpt lat="43.00485" lon="2.42448">
        <ele>704.9</ele>
        <time>2021-03-21T11:47:16Z</time>
      </trkpt>
      <trkpt lat="43.00485" lon="2.42418">
        <ele>703.9</ele>
        <time>2021-03-21T11:47:18Z</time>
      </trkpt>
      <trkpt lat="43.00474" lon="2.42392">
        <ele>702.8</ele>
        <time>2021-03-21T11:47:20Z</time>
      </trkpt>
      <trkpt lat="43.00469" lon="2.42379">
        <ele>702.2</ele>
        <time>2021-03-21T11:47:21Z</time>
      </trkpt>
      <trkpt lat="43.00461" lon="2.42354">
        <ele>701.2</ele>
        <time>2021-03-21T11:47:23Z</time>
      </trkpt>
      <trkpt lat="43.00457" lon="2.42341">
        <ele>700.8</ele>
        <time>2021-03-21T11:47:24Z</time>
      </trkpt>
      <trkpt lat="43.00451" lon="2.42316">
        <ele>699.8</ele>
        <time>2021-03-21T11:47:26Z</time>
      </trkpt>
      <trkpt lat="43.00449" lon="2.42303">
        <ele>699.4</ele>
        <time>2021-03-21T11:47:27Z</time>
      </trkpt>
      <trkpt lat="43.00448" lon="2.4229">
        <ele>699.1</ele>
        <time>2021-03-21T11:47:28Z</time>
      </trkpt>
      <trkpt lat="43.00449" lon="2.42277">
        <ele>698.7</ele>
        <time>2021-03-21T11:47:29Z</time>
      </trkpt>
      <trkpt lat="43.00455" lon="2.42251">
        <ele>697.7</ele>
        <time>2021-03-21T11:47:31Z</time>
      </trkpt>
      <trkpt lat="43.00459" lon="2.42239">
        <ele>697</ele>
        <time>2021-03-21T11:47:32Z</time>
      </trkpt>
      <trkpt lat="43.00463" lon="2.42226">
        <ele>696.5</ele>
        <time>2021-03-21T11:47:33Z</time>
      </trkpt>
      <trkpt lat="43.00471" lon="2.42202">
        <ele>695.4</ele>
        <time>2021-03-21T11:47:35Z</time>
      </trkpt>
      <trkpt lat="43.00474" lon="2.4219">
        <ele>694.8</ele>
        <time>2021-03-21T11:47:36Z</time>
      </trkpt>
      <trkpt lat="43.0048" lon="2.42165">
        <ele>693.8</ele>
        <time>2021-03-21T11:47:38Z</time>
      </trkpt>
      <trkpt lat="43.00481" lon="2.42152">
        <ele>693.3</ele>
        <time>2021-03-21T11:47:39Z</time>
      </trkpt>
      <trkpt lat="43.00483" lon="2.42125">
        <ele>692.2</ele>
        <time>2021-03-21T11:47:41Z</time>
      </trkpt>
      <trkpt lat="43.00483" lon="2.42112">
        <ele>691.8</ele>
        <time>2021-03-21T11:47:42Z</time>
      </trkpt>
      <trkpt lat="43.00485" lon="2.42099">
        <ele>691.3</ele>
        <time>2021-03-21T11:47:43Z</time>
      </trkpt>
      <trkpt lat="43.00491" lon="2.42075">
        <ele>690.4</ele>
        <time>2021-03-21T11:47:45Z</time>
      </trkpt>
      <trkpt lat="43.00496" lon="2.42062">
        <ele>689.9</ele>
        <time>2021-03-21T11:47:46Z</time>
      </trkpt>
      <trkpt lat="43.005" lon="2.4205">
        <ele>689.3</ele>
        <time>2021-03-21T11:47:47Z</time>
      </trkpt>
      <trkpt lat="43.00503" lon="2.42036">
        <ele>688.7</ele>
        <time>2021-03-21T11:47:48Z</time>
      </trkpt>
      <trkpt lat="43.00502" lon="2.42007">
        <ele>687.5</ele>
        <time>2021-03-21T11:47:50Z</time>
      </trkpt>
      <trkpt lat="43.00498" lon="2.41993">
        <ele>686.9</ele>
        <time>2021-03-21T11:47:51Z</time>
      </trkpt>
      <trkpt lat="43.00494" lon="2.4198">
        <ele>686.4</ele>
        <time>2021-03-21T11:47:52Z</time>
      </trkpt>
      <trkpt lat="43.00489" lon="2.41967">
        <ele>685.9</ele>
        <time>2021-03-21T11:47:53Z</time>
      </trkpt>
      <trkpt lat="43.00481" lon="2.41942">
        <ele>685.1</ele>
        <time>2021-03-21T11:47:55Z</time>
      </trkpt>
      <trkpt lat="43.00478" lon="2.41929">
        <ele>684.7</ele>
        <time>2021-03-21T11:47:56Z</time>
      </trkpt>
      <trkpt lat="43.00476" lon="2.41916">
        <ele>684.1</ele>
        <time>2021-03-21T11:47:57Z</time>
      </trkpt>
      <trkpt lat="43.00476" lon="2.41891">
        <ele>683.1</ele>
        <time>2021-03-21T11:47:59Z</time>
      </trkpt>
      <trkpt lat="43.00478" lon="2.41867">
        <ele>682.2</ele>
        <time>2021-03-21T11:48:01Z</time>
      </trkpt>
      <trkpt lat="43.0048" lon="2.41856">
        <ele>681.7</ele>
        <time>2021-03-21T11:48:02Z</time>
      </trkpt>
      <trkpt lat="43.00487" lon="2.41833">
        <ele>680.8</ele>
        <time>2021-03-21T11:48:04Z</time>
      </trkpt>
      <trkpt lat="43.00491" lon="2.41822">
        <ele>680.3</ele>
        <time>2021-03-21T11:48:05Z</time>
      </trkpt>
      <trkpt lat="43.00496" lon="2.4181">
        <ele>679.9</ele>
        <time>2021-03-21T11:48:06Z</time>
      </trkpt>
      <trkpt lat="43.005" lon="2.41799">
        <ele>679.4</ele>
        <time>2021-03-21T11:48:07Z</time>
      </trkpt>
      <trkpt lat="43.00507" lon="2.41775">
        <ele>678.5</ele>
        <time>2021-03-21T11:48:09Z</time>
      </trkpt>
      <trkpt lat="43.00514" lon="2.41752">
        <ele>677.6</ele>
        <time>2021-03-21T11:48:11Z</time>
      </trkpt>
      <trkpt lat="43.00517" lon="2.41741">
        <ele>677.2</ele>
        <time>2021-03-21T11:48:12Z</time>
      </trkpt>
      <trkpt lat="43.00524" lon="2.4172">
        <ele>676.6</ele>
        <time>2021-03-21T11:48:14Z</time>
      </trkpt>
      <trkpt lat="43.0053" lon="2.41711">
        <ele>676.2</ele>
        <time>2021-03-21T11:48:15Z</time>
      </trkpt>
      <trkpt lat="43.00542" lon="2.41697">
        <ele>675.4</ele>
        <time>2021-03-21T11:48:17Z</time>
      </trkpt>
      <trkpt lat="43.00549" lon="2.41691">
        <ele>675</ele>
        <time>2021-03-21T11:48:18Z</time>
      </trkpt>
      <trkpt lat="43.00555" lon="2.41686">
        <ele>674.5</ele>
        <time>2021-03-21T11:48:19Z</time>
      </trkpt>
      <trkpt lat="43.00562" lon="2.41681">
        <ele>674.2</ele>
        <time>2021-03-21T11:48:20Z</time>
      </trkpt>
      <trkpt lat="43.00577" lon="2.41674">
        <ele>673.4</ele>
        <time>2021-03-21T11:48:22Z</time>
      </trkpt>
      <trkpt lat="43.00585" lon="2.41672">
        <ele>672.9</ele>
        <time>2021-03-21T11:48:23Z</time>
      </trkpt>
      <trkpt lat="43.00603" lon="2.41673">
        <ele>672</ele>
        <time>2021-03-21T11:48:25Z</time>
      </trkpt>
      <trkpt lat="43.00613" lon="2.41676">
        <ele>671.7</ele>
        <time>2021-03-21T11:48:26Z</time>
      </trkpt>
      <trkpt lat="43.00631" lon="2.41686">
        <ele>671.2</ele>
        <time>2021-03-21T11:48:28Z</time>
      </trkpt>
      <trkpt lat="43.00641" lon="2.41688">
        <ele>671</ele>
        <time>2021-03-21T11:48:29Z</time>
      </trkpt>
      <trkpt lat="43.00658" lon="2.41679">
        <ele>670.3</ele>
        <time>2021-03-21T11:48:31Z</time>
      </trkpt>
      <trkpt lat="43.00667" lon="2.41654">
        <ele>669</ele>
        <time>2021-03-21T11:48:33Z</time>
      </trkpt>
      <trkpt lat="43.00672" lon="2.41628">
        <ele>667.6</ele>
        <time>2021-03-21T11:48:35Z</time>
      </trkpt>
      <trkpt lat="43.00674" lon="2.41615">
        <ele>667</ele>
        <time>2021-03-21T11:48:36Z</time>
      </trkpt>
      <trkpt lat="43.00674" lon="2.41601">
        <ele>666.4</ele>
        <time>2021-03-21T11:48:37Z</time>
      </trkpt>
      <trkpt lat="43.00673" lon="2.41586">
        <ele>665.8</ele>
        <time>2021-03-21T11:48:38Z</time>
      </trkpt>
      <trkpt lat="43.00672" lon="2.41572">
        <ele>665.2</ele>
        <time>2021-03-21T11:48:39Z</time>
      </trkpt>
      <trkpt lat="43.00676" lon="2.41543">
        <ele>664</ele>
        <time>2021-03-21T11:48:41Z</time>
      </trkpt>
      <trkpt lat="43.0068" lon="2.4153">
        <ele>663.3</ele>
        <time>2021-03-21T11:48:42Z</time>
      </trkpt>
      <trkpt lat="43.00685" lon="2.41516">
        <ele>662.7</ele>
        <time>2021-03-21T11:48:43Z</time>
      </trkpt>
      <trkpt lat="43.00693" lon="2.4149">
        <ele>661.5</ele>
        <time>2021-03-21T11:48:45Z</time>
      </trkpt>
      <trkpt lat="43.00695" lon="2.41476">
        <ele>661</ele>
        <time>2021-03-21T11:48:46Z</time>
      </trkpt>
      <trkpt lat="43.00698" lon="2.4145">
        <ele>659.8</ele>
        <time>2021-03-21T11:48:48Z</time>
      </trkpt>
      <trkpt lat="43.007" lon="2.41437">
        <ele>659.2</ele>
        <time>2021-03-21T11:48:49Z</time>
      </trkpt>
      <trkpt lat="43.00709" lon="2.41415">
        <ele>658.1</ele>
        <time>2021-03-21T11:48:51Z</time>
      </trkpt>
      <trkpt lat="43.00715" lon="2.41405">
        <ele>657.6</ele>
        <time>2021-03-21T11:48:52Z</time>
      </trkpt>
      <trkpt lat="43.00721" lon="2.41396">
        <ele>657.2</ele>
        <time>2021-03-21T11:48:53Z</time>
      </trkpt>
      <trkpt lat="43.00731" lon="2.41377">
        <ele>656.2</ele>
        <time>2021-03-21T11:48:55Z</time>
      </trkpt>
      <trkpt lat="43.00737" lon="2.41368">
        <ele>655.7</ele>
        <time>2021-03-21T11:48:56Z</time>
      </trkpt>
      <trkpt lat="43.00747" lon="2.4135">
        <ele>654.8</ele>
        <time>2021-03-21T11:48:58Z</time>
      </trkpt>
      <trkpt lat="43.00758" lon="2.41332">
        <ele>654</ele>
        <time>2021-03-21T11:49:00Z</time>
      </trkpt>
      <trkpt lat="43.00764" lon="2.41323">
        <ele>653.6</ele>
        <time>2021-03-21T11:49:01Z</time>
      </trkpt>
      <trkpt lat="43.0077" lon="2.41315">
        <ele>653.2</ele>
        <time>2021-03-21T11:49:02Z</time>
      </trkpt>
      <trkpt lat="43.00776" lon="2.41307">
        <ele>652.7</ele>
        <time>2021-03-21T11:49:03Z</time>
      </trkpt>
      <trkpt lat="43.00789" lon="2.41294">
        <ele>651.8</ele>
        <time>2021-03-21T11:49:05Z</time>
      </trkpt>
      <trkpt lat="43.00801" lon="2.41281">
        <ele>650.8</ele>
        <time>2021-03-21T11:49:07Z</time>
      </trkpt>
      <trkpt lat="43.00814" lon="2.4127">
        <ele>649.9</ele>
        <time>2021-03-21T11:49:09Z</time>
      </trkpt>
      <trkpt lat="43.00821" lon="2.41265">
        <ele>649.4</ele>
        <time>2021-03-21T11:49:10Z</time>
      </trkpt>
      <trkpt lat="43.00834" lon="2.41255">
        <ele>648.5</ele>
        <time>2021-03-21T11:49:12Z</time>
      </trkpt>
      <trkpt lat="43.00841" lon="2.4125">
        <ele>648</ele>
        <time>2021-03-21T11:49:13Z</time>
      </trkpt>
      <trkpt lat="43.00854" lon="2.4124">
        <ele>647.1</ele>
        <time>2021-03-21T11:49:15Z</time>
      </trkpt>
      <trkpt lat="43.00869" lon="2.4123">
        <ele>646.2</ele>
        <time>2021-03-21T11:49:17Z</time>
      </trkpt>
      <trkpt lat="43.00876" lon="2.41224">
        <ele>645.7</ele>
        <time>2021-03-21T11:49:18Z</time>
      </trkpt>
      <trkpt lat="43.00883" lon="2.41219">
        <ele>645.3</ele>
        <time>2021-03-21T11:49:19Z</time>
      </trkpt>
      <trkpt lat="43.00897" lon="2.41206">
        <ele>644.3</ele>
        <time>2021-03-21T11:49:21Z</time>
      </trkpt>
      <trkpt lat="43.00911" lon="2.41191">
        <ele>643.3</ele>
        <time>2021-03-21T11:49:23Z</time>
      </trkpt>
      <trkpt lat="43.00918" lon="2.41183">
        <ele>642.9</ele>
        <time>2021-03-21T11:49:24Z</time>
      </trkpt>
      <trkpt lat="43.00929" lon="2.41164">
        <ele>642</ele>
        <time>2021-03-21T11:49:26Z</time>
      </trkpt>
      <trkpt lat="43.00941" lon="2.41146">
        <ele>641.1</ele>
        <time>2021-03-21T11:49:28Z</time>
      </trkpt>
      <trkpt lat="43.00948" lon="2.41137">
        <ele>640.6</ele>
        <time>2021-03-21T11:49:29Z</time>
      </trkpt>
      <trkpt lat="43.00955" lon="2.4113">
        <ele>640.1</ele>
        <time>2021-03-21T11:49:30Z</time>
      </trkpt>
      <trkpt lat="43.00963" lon="2.41124">
        <ele>639.7</ele>
        <time>2021-03-21T11:49:31Z</time>
      </trkpt>
      <trkpt lat="43.00979" lon="2.41116">
        <ele>638.8</ele>
        <time>2021-03-21T11:49:33Z</time>
      </trkpt>
      <trkpt lat="43.00987" lon="2.41111">
        <ele>638.4</ele>
        <time>2021-03-21T11:49:34Z</time>
      </trkpt>
      <trkpt lat="43.00993" lon="2.41102">
        <ele>638</ele>
        <time>2021-03-21T11:49:35Z</time>
      </trkpt>
      <trkpt lat="43.00997" lon="2.41091">
        <ele>637.5</ele>
        <time>2021-03-21T11:49:36Z</time>
      </trkpt>
      <trkpt lat="43.00998" lon="2.41077">
        <ele>636.9</ele>
        <time>2021-03-21T11:49:37Z</time>
      </trkpt>
      <trkpt lat="43.00994" lon="2.41049">
        <ele>635.7</ele>
        <time>2021-03-21T11:49:39Z</time>
      </trkpt>
      <trkpt lat="43.0099" lon="2.41035">
        <ele>635.2</ele>
        <time>2021-03-21T11:49:40Z</time>
      </trkpt>
      <trkpt lat="43.00988" lon="2.41023">
        <ele>634.6</ele>
        <time>2021-03-21T11:49:41Z</time>
      </trkpt>
      <trkpt lat="43.00986" lon="2.40998">
        <ele>633.7</ele>
        <time>2021-03-21T11:49:43Z</time>
      </trkpt>
      <trkpt lat="43.00989" lon="2.40974">
        <ele>632.7</ele>
        <time>2021-03-21T11:49:45Z</time>
      </trkpt>
      <trkpt lat="43.00993" lon="2.40963">
        <ele>632.2</ele>
        <time>2021-03-21T11:49:46Z</time>
      </trkpt>
      <trkpt lat="43.01002" lon="2.40941">
        <ele>631.2</ele>
        <time>2021-03-21T11:49:48Z</time>
      </trkpt>
      <trkpt lat="43.01011" lon="2.4092">
        <ele>630.2</ele>
        <time>2021-03-21T11:49:50Z</time>
      </trkpt>
      <trkpt lat="43.01016" lon="2.40909">
        <ele>629.7</ele>
        <time>2021-03-21T11:49:51Z</time>
      </trkpt>
      <trkpt lat="43.0102" lon="2.40899">
        <ele>629.2</ele>
        <time>2021-03-21T11:49:52Z</time>
      </trkpt>
      <trkpt lat="43.01029" lon="2.40879">
        <ele>628.3</ele>
        <time>2021-03-21T11:49:54Z</time>
      </trkpt>
      <trkpt lat="43.01034" lon="2.40869">
        <ele>627.9</ele>
        <time>2021-03-21T11:49:55Z</time>
      </trkpt>
      <trkpt lat="43.01039" lon="2.40859">
        <ele>627.5</ele>
        <time>2021-03-21T11:49:56Z</time>
      </trkpt>
      <trkpt lat="43.01048" lon="2.4084">
        <ele>626.6</ele>
        <time>2021-03-21T11:49:58Z</time>
      </trkpt>
      <trkpt lat="43.01054" lon="2.40831">
        <ele>626.2</ele>
        <time>2021-03-21T11:49:59Z</time>
      </trkpt>
      <trkpt lat="43.01065" lon="2.40815">
        <ele>625.3</ele>
        <time>2021-03-21T11:50:01Z</time>
      </trkpt>
      <trkpt lat="43.01076" lon="2.40798">
        <ele>624.4</ele>
        <time>2021-03-21T11:50:03Z</time>
      </trkpt>
      <trkpt lat="43.01082" lon="2.40789">
        <ele>623.9</ele>
        <time>2021-03-21T11:50:04Z</time>
      </trkpt>
      <trkpt lat="43.01094" lon="2.4077">
        <ele>623</ele>
        <time>2021-03-21T11:50:06Z</time>
      </trkpt>
      <trkpt lat="43.01105" lon="2.40749">
        <ele>622</ele>
        <time>2021-03-21T11:50:08Z</time>
      </trkpt>
      <trkpt lat="43.01109" lon="2.40737">
        <ele>621.6</ele>
        <time>2021-03-21T11:50:09Z</time>
      </trkpt>
      <trkpt lat="43.01114" lon="2.40711">
        <ele>620.6</ele>
        <time>2021-03-21T11:50:11Z</time>
      </trkpt>
      <trkpt lat="43.01115" lon="2.40698">
        <ele>620.2</ele>
        <time>2021-03-21T11:50:12Z</time>
      </trkpt>
      <trkpt lat="43.01114" lon="2.40685">
        <ele>619.8</ele>
        <time>2021-03-21T11:50:13Z</time>
      </trkpt>
      <trkpt lat="43.01112" lon="2.40659">
        <ele>619.3</ele>
        <time>2021-03-21T11:50:15Z</time>
      </trkpt>
      <trkpt lat="43.01112" lon="2.40633">
        <ele>618.7</ele>
        <time>2021-03-21T11:50:17Z</time>
      </trkpt>
      <trkpt lat="43.0112" lon="2.4061">
        <ele>617.8</ele>
        <time>2021-03-21T11:50:19Z</time>
      </trkpt>
      <trkpt lat="43.01134" lon="2.40594">
        <ele>616.6</ele>
        <time>2021-03-21T11:50:21Z</time>
      </trkpt>
      <trkpt lat="43.01143" lon="2.40588">
        <ele>615.9</ele>
        <time>2021-03-21T11:50:22Z</time>
      </trkpt>
      <trkpt lat="43.01152" lon="2.40585">
        <ele>615.2</ele>
        <time>2021-03-21T11:50:23Z</time>
      </trkpt>
      <trkpt lat="43.01171" lon="2.40583">
        <ele>613.9</ele>
        <time>2021-03-21T11:50:25Z</time>
      </trkpt>
      <trkpt lat="43.01188" lon="2.40583">
        <ele>612.8</ele>
        <time>2021-03-21T11:50:27Z</time>
      </trkpt>
      <trkpt lat="43.01206" lon="2.40584">
        <ele>611.7</ele>
        <time>2021-03-21T11:50:29Z</time>
      </trkpt>
      <trkpt lat="43.01225" lon="2.40581">
        <ele>610.7</ele>
        <time>2021-03-21T11:50:31Z</time>
      </trkpt>
      <trkpt lat="43.01243" lon="2.40575">
        <ele>609.8</ele>
        <time>2021-03-21T11:50:33Z</time>
      </trkpt>
      <trkpt lat="43.01252" lon="2.40569">
        <ele>609.3</ele>
        <time>2021-03-21T11:50:34Z</time>
      </trkpt>
      <trkpt lat="43.01268" lon="2.40554">
        <ele>608.4</ele>
        <time>2021-03-21T11:50:36Z</time>
      </trkpt>
      <trkpt lat="43.01284" lon="2.40537">
        <ele>607.5</ele>
        <time>2021-03-21T11:50:38Z</time>
      </trkpt>
      <trkpt lat="43.01291" lon="2.40529">
        <ele>607.1</ele>
        <time>2021-03-21T11:50:39Z</time>
      </trkpt>
      <trkpt lat="43.01306" lon="2.40515">
        <ele>606.3</ele>
        <time>2021-03-21T11:50:41Z</time>
      </trkpt>
      <trkpt lat="43.01314" lon="2.4051">
        <ele>605.9</ele>
        <time>2021-03-21T11:50:42Z</time>
      </trkpt>
      <trkpt lat="43.01323" lon="2.40507">
        <ele>605.4</ele>
        <time>2021-03-21T11:50:43Z</time>
      </trkpt>
      <trkpt lat="43.01342" lon="2.40507">
        <ele>604.3</ele>
        <time>2021-03-21T11:50:45Z</time>
      </trkpt>
      <trkpt lat="43.01352" lon="2.40508">
        <ele>603.6</ele>
        <time>2021-03-21T11:50:46Z</time>
      </trkpt>
      <trkpt lat="43.01362" lon="2.4051">
        <ele>603.1</ele>
        <time>2021-03-21T11:50:47Z</time>
      </trkpt>
      <trkpt lat="43.01372" lon="2.40511">
        <ele>602.5</ele>
        <time>2021-03-21T11:50:48Z</time>
      </trkpt>
      <trkpt lat="43.01391" lon="2.40511">
        <ele>601.4</ele>
        <time>2021-03-21T11:50:50Z</time>
      </trkpt>
      <trkpt lat="43.01401" lon="2.40509">
        <ele>600.9</ele>
        <time>2021-03-21T11:50:51Z</time>
      </trkpt>
      <trkpt lat="43.0141" lon="2.40505">
        <ele>600.3</ele>
        <time>2021-03-21T11:50:52Z</time>
      </trkpt>
      <trkpt lat="43.01428" lon="2.40492">
        <ele>599.3</ele>
        <time>2021-03-21T11:50:54Z</time>
      </trkpt>
      <trkpt lat="43.01446" lon="2.40476">
        <ele>598.2</ele>
        <time>2021-03-21T11:50:56Z</time>
      </trkpt>
      <trkpt lat="43.01454" lon="2.40467">
        <ele>597.6</ele>
        <time>2021-03-21T11:50:57Z</time>
      </trkpt>
      <trkpt lat="43.01463" lon="2.40459">
        <ele>597</ele>
        <time>2021-03-21T11:50:58Z</time>
      </trkpt>
      <trkpt lat="43.01471" lon="2.40452">
        <ele>596.5</ele>
        <time>2021-03-21T11:50:59Z</time>
      </trkpt>
      <trkpt lat="43.01489" lon="2.4044">
        <ele>595.4</ele>
        <time>2021-03-21T11:51:01Z</time>
      </trkpt>
      <trkpt lat="43.01498" lon="2.40436">
        <ele>594.9</ele>
        <time>2021-03-21T11:51:02Z</time>
      </trkpt>
      <trkpt lat="43.01507" lon="2.40432">
        <ele>594.4</ele>
        <time>2021-03-21T11:51:03Z</time>
      </trkpt>
      <trkpt lat="43.01516" lon="2.40427">
        <ele>593.8</ele>
        <time>2021-03-21T11:51:04Z</time>
      </trkpt>
      <trkpt lat="43.01525" lon="2.40422">
        <ele>593.3</ele>
        <time>2021-03-21T11:51:05Z</time>
      </trkpt>
      <trkpt lat="43.0154" lon="2.40405">
        <ele>592.2</ele>
        <time>2021-03-21T11:51:07Z</time>
      </trkpt>
      <trkpt lat="43.01547" lon="2.40395">
        <ele>591.6</ele>
        <time>2021-03-21T11:51:08Z</time>
      </trkpt>
      <trkpt lat="43.0156" lon="2.40374">
        <ele>590.7</ele>
        <time>2021-03-21T11:51:10Z</time>
      </trkpt>
      <trkpt lat="43.01566" lon="2.40363">
        <ele>590.3</ele>
        <time>2021-03-21T11:51:11Z</time>
      </trkpt>
      <trkpt lat="43.0158" lon="2.40344">
        <ele>589.6</ele>
        <time>2021-03-21T11:51:13Z</time>
      </trkpt>
      <trkpt lat="43.01596" lon="2.40326">
        <ele>588.6</ele>
        <time>2021-03-21T11:51:15Z</time>
      </trkpt>
      <trkpt lat="43.01605" lon="2.40302">
        <ele>587.4</ele>
        <time>2021-03-21T11:51:17Z</time>
      </trkpt>
      <trkpt lat="43.01605" lon="2.40274">
        <ele>586</ele>
        <time>2021-03-21T11:51:19Z</time>
      </trkpt>
      <trkpt lat="43.01602" lon="2.40244">
        <ele>584.6</ele>
        <time>2021-03-21T11:51:21Z</time>
      </trkpt>
      <trkpt lat="43.016" lon="2.40229">
        <ele>584</ele>
        <time>2021-03-21T11:51:22Z</time>
      </trkpt>
      <trkpt lat="43.01599" lon="2.40215">
        <ele>583.5</ele>
        <time>2021-03-21T11:51:23Z</time>
      </trkpt>
      <trkpt lat="43.01598" lon="2.402">
        <ele>582.9</ele>
        <time>2021-03-21T11:51:24Z</time>
      </trkpt>
      <trkpt lat="43.01599" lon="2.40172">
        <ele>581.8</ele>
        <time>2021-03-21T11:51:26Z</time>
      </trkpt>
      <trkpt lat="43.01601" lon="2.40158">
        <ele>581.3</ele>
        <time>2021-03-21T11:51:27Z</time>
      </trkpt>
      <trkpt lat="43.01607" lon="2.40132">
        <ele>580.3</ele>
        <time>2021-03-21T11:51:29Z</time>
      </trkpt>
      <trkpt lat="43.0161" lon="2.40119">
        <ele>579.8</ele>
        <time>2021-03-21T11:51:30Z</time>
      </trkpt>
      <trkpt lat="43.01614" lon="2.40107">
        <ele>579.4</ele>
        <time>2021-03-21T11:51:31Z</time>
      </trkpt>
      <trkpt lat="43.01622" lon="2.40082">
        <ele>578.4</ele>
        <time>2021-03-21T11:51:33Z</time>
      </trkpt>
      <trkpt lat="43.01626" lon="2.4007">
        <ele>577.9</ele>
        <time>2021-03-21T11:51:34Z</time>
      </trkpt>
      <trkpt lat="43.01637" lon="2.40046">
        <ele>576.8</ele>
        <time>2021-03-21T11:51:36Z</time>
      </trkpt>
      <trkpt lat="43.01649" lon="2.40023">
        <ele>575.7</ele>
        <time>2021-03-21T11:51:38Z</time>
      </trkpt>
      <trkpt lat="43.01655" lon="2.40012">
        <ele>575.2</ele>
        <time>2021-03-21T11:51:39Z</time>
      </trkpt>
      <trkpt lat="43.01667" lon="2.3999">
        <ele>574.2</ele>
        <time>2021-03-21T11:51:41Z</time>
      </trkpt>
      <trkpt lat="43.01673" lon="2.39979">
        <ele>573.7</ele>
        <time>2021-03-21T11:51:42Z</time>
      </trkpt>
      <trkpt lat="43.01686" lon="2.39957">
        <ele>572.6</ele>
        <time>2021-03-21T11:51:44Z</time>
      </trkpt>
      <trkpt lat="43.01692" lon="2.39946">
        <ele>572</ele>
        <time>2021-03-21T11:51:45Z</time>
      </trkpt>
      <trkpt lat="43.01706" lon="2.39925">
        <ele>571</ele>
        <time>2021-03-21T11:51:47Z</time>
      </trkpt>
      <trkpt lat="43.01712" lon="2.39914">
        <ele>570.5</ele>
        <time>2021-03-21T11:51:48Z</time>
      </trkpt>
      <trkpt lat="43.01724" lon="2.39893">
        <ele>569.4</ele>
        <time>2021-03-21T11:51:50Z</time>
      </trkpt>
      <trkpt lat="43.0173" lon="2.39882">
        <ele>569</ele>
        <time>2021-03-21T11:51:51Z</time>
      </trkpt>
      <trkpt lat="43.01741" lon="2.39861">
        <ele>568</ele>
        <time>2021-03-21T11:51:53Z</time>
      </trkpt>
      <trkpt lat="43.01747" lon="2.39851">
        <ele>567.5</ele>
        <time>2021-03-21T11:51:54Z</time>
      </trkpt>
      <trkpt lat="43.01759" lon="2.3983">
        <ele>566.4</ele>
        <time>2021-03-21T11:51:56Z</time>
      </trkpt>
      <trkpt lat="43.01769" lon="2.39809">
        <ele>565.3</ele>
        <time>2021-03-21T11:51:58Z</time>
      </trkpt>
      <trkpt lat="43.01775" lon="2.39798">
        <ele>564.8</ele>
        <time>2021-03-21T11:51:59Z</time>
      </trkpt>
      <trkpt lat="43.01786" lon="2.39778">
        <ele>563.7</ele>
        <time>2021-03-21T11:52:01Z</time>
      </trkpt>
      <trkpt lat="43.01798" lon="2.39757">
        <ele>562.6</ele>
        <time>2021-03-21T11:52:03Z</time>
      </trkpt>
      <trkpt lat="43.01804" lon="2.39746">
        <ele>562.1</ele>
        <time>2021-03-21T11:52:04Z</time>
      </trkpt>
      <trkpt lat="43.0181" lon="2.39735">
        <ele>561.6</ele>
        <time>2021-03-21T11:52:05Z</time>
      </trkpt>
      <trkpt lat="43.01823" lon="2.39714">
        <ele>560.6</ele>
        <time>2021-03-21T11:52:07Z</time>
      </trkpt>
      <trkpt lat="43.01835" lon="2.39694">
        <ele>559.5</ele>
        <time>2021-03-21T11:52:09Z</time>
      </trkpt>
      <trkpt lat="43.01841" lon="2.39683">
        <ele>559</ele>
        <time>2021-03-21T11:52:10Z</time>
      </trkpt>
      <trkpt lat="43.01852" lon="2.39662">
        <ele>558</ele>
        <time>2021-03-21T11:52:12Z</time>
      </trkpt>
      <trkpt lat="43.01857" lon="2.39651">
        <ele>557.4</ele>
        <time>2021-03-21T11:52:13Z</time>
      </trkpt>
      <trkpt lat="43.01865" lon="2.39625">
        <ele>556.3</ele>
        <time>2021-03-21T11:52:15Z</time>
      </trkpt>
      <trkpt lat="43.01867" lon="2.39611">
        <ele>555.7</ele>
        <time>2021-03-21T11:52:16Z</time>
      </trkpt>
      <trkpt lat="43.01865" lon="2.39596">
        <ele>555.1</ele>
        <time>2021-03-21T11:52:17Z</time>
      </trkpt>
      <trkpt lat="43.01863" lon="2.39582">
        <ele>554.5</ele>
        <time>2021-03-21T11:52:18Z</time>
      </trkpt>
      <trkpt lat="43.01858" lon="2.39554">
        <ele>553.4</ele>
        <time>2021-03-21T11:52:20Z</time>
      </trkpt>
      <trkpt lat="43.01857" lon="2.3954">
        <ele>552.9</ele>
        <time>2021-03-21T11:52:21Z</time>
      </trkpt>
      <trkpt lat="43.0186" lon="2.39513">
        <ele>551.8</ele>
        <time>2021-03-21T11:52:23Z</time>
      </trkpt>
      <trkpt lat="43.01864" lon="2.39486">
        <ele>550.7</ele>
        <time>2021-03-21T11:52:25Z</time>
      </trkpt>
      <trkpt lat="43.01871" lon="2.3946">
        <ele>549.7</ele>
        <time>2021-03-21T11:52:27Z</time>
      </trkpt>
      <trkpt lat="43.01879" lon="2.39435">
        <ele>548.7</ele>
        <time>2021-03-21T11:52:29Z</time>
      </trkpt>
      <trkpt lat="43.01888" lon="2.39411">
        <ele>547.6</ele>
        <time>2021-03-21T11:52:31Z</time>
      </trkpt>
      <trkpt lat="43.019" lon="2.3939">
        <ele>546.5</ele>
        <time>2021-03-21T11:52:33Z</time>
      </trkpt>
      <trkpt lat="43.01913" lon="2.39372">
        <ele>545.5</ele>
        <time>2021-03-21T11:52:35Z</time>
      </trkpt>
      <trkpt lat="43.0192" lon="2.39363">
        <ele>545</ele>
        <time>2021-03-21T11:52:36Z</time>
      </trkpt>
      <trkpt lat="43.01933" lon="2.39346">
        <ele>544.1</ele>
        <time>2021-03-21T11:52:38Z</time>
      </trkpt>
      <trkpt lat="43.01945" lon="2.3933">
        <ele>543.1</ele>
        <time>2021-03-21T11:52:40Z</time>
      </trkpt>
      <trkpt lat="43.01956" lon="2.39312">
        <ele>542.2</ele>
        <time>2021-03-21T11:52:42Z</time>
      </trkpt>
      <trkpt lat="43.01965" lon="2.39292">
        <ele>541.3</ele>
        <time>2021-03-21T11:52:44Z</time>
      </trkpt>
      <trkpt lat="43.01969" lon="2.39281">
        <ele>540.8</ele>
        <time>2021-03-21T11:52:45Z</time>
      </trkpt>
      <trkpt lat="43.01977" lon="2.39258">
        <ele>540.6</ele>
        <time>2021-03-21T11:52:47Z</time>
      </trkpt>
      <trkpt lat="43.0198" lon="2.39248">
        <ele>540.2</ele>
        <time>2021-03-21T11:52:48Z</time>
      </trkpt>
      <trkpt lat="43.01986" lon="2.39228">
        <ele>539.4</ele>
        <time>2021-03-21T11:52:50Z</time>
      </trkpt>
      <trkpt lat="43.01989" lon="2.39219">
        <ele>539.1</ele>
        <time>2021-03-21T11:52:51Z</time>
      </trkpt>
      <trkpt lat="43.01995" lon="2.39201">
        <ele>538.4</ele>
        <time>2021-03-21T11:52:53Z</time>
      </trkpt>
      <trkpt lat="43.02003" lon="2.39182">
        <ele>537.7</ele>
        <time>2021-03-21T11:52:55Z</time>
      </trkpt>
      <trkpt lat="43.02008" lon="2.39173">
        <ele>536.9</ele>
        <time>2021-03-21T11:52:56Z</time>
      </trkpt>
      <trkpt lat="43.02014" lon="2.39164">
        <ele>536.1</ele>
        <time>2021-03-21T11:52:57Z</time>
      </trkpt>
      <trkpt lat="43.02029" lon="2.39148">
        <ele>534.7</ele>
        <time>2021-03-21T11:52:59Z</time>
      </trkpt>
      <trkpt lat="43.02046" lon="2.39133">
        <ele>533.8</ele>
        <time>2021-03-21T11:53:01Z</time>
      </trkpt>
      <trkpt lat="43.02054" lon="2.39126">
        <ele>533.4</ele>
        <time>2021-03-21T11:53:02Z</time>
      </trkpt>
      <trkpt lat="43.02062" lon="2.39119">
        <ele>532.9</ele>
        <time>2021-03-21T11:53:03Z</time>
      </trkpt>
      <trkpt lat="43.0207" lon="2.39111">
        <ele>532.5</ele>
        <time>2021-03-21T11:53:04Z</time>
      </trkpt>
      <trkpt lat="43.02085" lon="2.39097">
        <ele>531.7</ele>
        <time>2021-03-21T11:53:06Z</time>
      </trkpt>
      <trkpt lat="43.02093" lon="2.3909">
        <ele>531.3</ele>
        <time>2021-03-21T11:53:07Z</time>
      </trkpt>
      <trkpt lat="43.02108" lon="2.39075">
        <ele>530.6</ele>
        <time>2021-03-21T11:53:09Z</time>
      </trkpt>
      <trkpt lat="43.02122" lon="2.39061">
        <ele>529.9</ele>
        <time>2021-03-21T11:53:11Z</time>
      </trkpt>
      <trkpt lat="43.02136" lon="2.39048">
        <ele>529.4</ele>
        <time>2021-03-21T11:53:13Z</time>
      </trkpt>
      <trkpt lat="43.0215" lon="2.39033">
        <ele>528.9</ele>
        <time>2021-03-21T11:53:15Z</time>
      </trkpt>
      <trkpt lat="43.02157" lon="2.39025">
        <ele>528.7</ele>
        <time>2021-03-21T11:53:16Z</time>
      </trkpt>
      <trkpt lat="43.02168" lon="2.39004">
        <ele>528.2</ele>
        <time>2021-03-21T11:53:18Z</time>
      </trkpt>
      <trkpt lat="43.02173" lon="2.3898">
        <ele>527.8</ele>
        <time>2021-03-21T11:53:20Z</time>
      </trkpt>
      <trkpt lat="43.02176" lon="2.38968">
        <ele>527.6</ele>
        <time>2021-03-21T11:53:21Z</time>
      </trkpt>
      <trkpt lat="43.02179" lon="2.38956">
        <ele>527.4</ele>
        <time>2021-03-21T11:53:22Z</time>
      </trkpt>
      <trkpt lat="43.02192" lon="2.38939">
        <ele>527.1</ele>
        <time>2021-03-21T11:53:24Z</time>
      </trkpt>
      <trkpt lat="43.02201" lon="2.38934">
        <ele>526.9</ele>
        <time>2021-03-21T11:53:25Z</time>
      </trkpt>
      <trkpt lat="43.02211" lon="2.3893">
        <ele>526.7</ele>
        <time>2021-03-21T11:53:26Z</time>
      </trkpt>
      <trkpt lat="43.02228" lon="2.38921">
        <ele>526.3</ele>
        <time>2021-03-21T11:53:28Z</time>
      </trkpt>
      <trkpt lat="43.02243" lon="2.38906">
        <ele>525.9</ele>
        <time>2021-03-21T11:53:30Z</time>
      </trkpt>
      <trkpt lat="43.02258" lon="2.38888">
        <ele>525.6</ele>
        <time>2021-03-21T11:53:32Z</time>
      </trkpt>
      <trkpt lat="43.02272" lon="2.3887">
        <ele>525.2</ele>
        <time>2021-03-21T11:53:34Z</time>
      </trkpt>
      <trkpt lat="43.02279" lon="2.3886">
        <ele>525</ele>
        <time>2021-03-21T11:53:35Z</time>
      </trkpt>
      <trkpt lat="43.02294" lon="2.38842">
        <ele>524.6</ele>
        <time>2021-03-21T11:53:37Z</time>
      </trkpt>
      <trkpt lat="43.02307" lon="2.38823">
        <ele>524.2</ele>
        <time>2021-03-21T11:53:39Z</time>
      </trkpt>
      <trkpt lat="43.02314" lon="2.38814">
        <ele>524</ele>
        <time>2021-03-21T11:53:40Z</time>
      </trkpt>
      <trkpt lat="43.02326" lon="2.38795">
        <ele>523.7</ele>
        <time>2021-03-21T11:53:42Z</time>
      </trkpt>
      <trkpt lat="43.02332" lon="2.38786">
        <ele>523.4</ele>
        <time>2021-03-21T11:53:43Z</time>
      </trkpt>
      <trkpt lat="43.02344" lon="2.38767">
        <ele>523</ele>
        <time>2021-03-21T11:53:45Z</time>
      </trkpt>
      <trkpt lat="43.02351" lon="2.38759">
        <ele>522.8</ele>
        <time>2021-03-21T11:53:46Z</time>
      </trkpt>
      <trkpt lat="43.02366" lon="2.38746">
        <ele>522.1</ele>
        <time>2021-03-21T11:53:48Z</time>
      </trkpt>
      <trkpt lat="43.02383" lon="2.38739">
        <ele>521.4</ele>
        <time>2021-03-21T11:53:50Z</time>
      </trkpt>
      <trkpt lat="43.02402" lon="2.38734">
        <ele>520.6</ele>
        <time>2021-03-21T11:53:52Z</time>
      </trkpt>
      <trkpt lat="43.0241" lon="2.38729">
        <ele>520.3</ele>
        <time>2021-03-21T11:53:53Z</time>
      </trkpt>
      <trkpt lat="43.02425" lon="2.38713">
        <ele>519.6</ele>
        <time>2021-03-21T11:53:55Z</time>
      </trkpt>
      <trkpt lat="43.02431" lon="2.38703">
        <ele>519.3</ele>
        <time>2021-03-21T11:53:56Z</time>
      </trkpt>
      <trkpt lat="43.02444" lon="2.38684">
        <ele>518.5</ele>
        <time>2021-03-21T11:53:58Z</time>
      </trkpt>
      <trkpt lat="43.02451" lon="2.38675">
        <ele>518.1</ele>
        <time>2021-03-21T11:53:59Z</time>
      </trkpt>
      <trkpt lat="43.02467" lon="2.38662">
        <ele>517.2</ele>
        <time>2021-03-21T11:54:01Z</time>
      </trkpt>
      <trkpt lat="43.02483" lon="2.38651">
        <ele>516.3</ele>
        <time>2021-03-21T11:54:03Z</time>
      </trkpt>
      <trkpt lat="43.0249" lon="2.38643">
        <ele>515.8</ele>
        <time>2021-03-21T11:54:04Z</time>
      </trkpt>
      <trkpt lat="43.02496" lon="2.38633">
        <ele>515.3</ele>
        <time>2021-03-21T11:54:05Z</time>
      </trkpt>
      <trkpt lat="43.025" lon="2.38621">
        <ele>514.7</ele>
        <time>2021-03-21T11:54:06Z</time>
      </trkpt>
      <trkpt lat="43.02501" lon="2.38596">
        <ele>513.6</ele>
        <time>2021-03-21T11:54:08Z</time>
      </trkpt>
      <trkpt lat="43.02499" lon="2.3857">
        <ele>512.5</ele>
        <time>2021-03-21T11:54:10Z</time>
      </trkpt>
      <trkpt lat="43.02501" lon="2.38545">
        <ele>511.4</ele>
        <time>2021-03-21T11:54:12Z</time>
      </trkpt>
      <trkpt lat="43.02506" lon="2.38534">
        <ele>510.7</ele>
        <time>2021-03-21T11:54:13Z</time>
      </trkpt>
      <trkpt lat="43.02514" lon="2.38525">
        <ele>509.9</ele>
        <time>2021-03-21T11:54:14Z</time>
      </trkpt>
      <trkpt lat="43.02522" lon="2.38518">
        <ele>509.1</ele>
        <time>2021-03-21T11:54:15Z</time>
      </trkpt>
      <trkpt lat="43.02533" lon="2.38505">
        <ele>507.7</ele>
        <time>2021-03-21T11:54:17Z</time>
      </trkpt>
      <trkpt lat="43.02536" lon="2.38496">
        <ele>507.1</ele>
        <time>2021-03-21T11:54:18Z</time>
      </trkpt>
      <trkpt lat="43.02535" lon="2.38485">
        <ele>506.4</ele>
        <time>2021-03-21T11:54:19Z</time>
      </trkpt>
      <trkpt lat="43.02533" lon="2.38473">
        <ele>505.6</ele>
        <time>2021-03-21T11:54:20Z</time>
      </trkpt>
      <trkpt lat="43.02527" lon="2.38449">
        <ele>504.2</ele>
        <time>2021-03-21T11:54:22Z</time>
      </trkpt>
      <trkpt lat="43.02523" lon="2.38436">
        <ele>503.4</ele>
        <time>2021-03-21T11:54:23Z</time>
      </trkpt>
      <trkpt lat="43.02516" lon="2.38408">
        <ele>501.8</ele>
        <time>2021-03-21T11:54:25Z</time>
      </trkpt>
      <trkpt lat="43.02512" lon="2.38377">
        <ele>500</ele>
        <time>2021-03-21T11:54:27Z</time>
      </trkpt>
      <trkpt lat="43.02513" lon="2.38345">
        <ele>498.3</ele>
        <time>2021-03-21T11:54:29Z</time>
      </trkpt>
      <trkpt lat="43.02518" lon="2.38314">
        <ele>496.5</ele>
        <time>2021-03-21T11:54:31Z</time>
      </trkpt>
      <trkpt lat="43.02521" lon="2.38298">
        <ele>495.7</ele>
        <time>2021-03-21T11:54:32Z</time>
      </trkpt>
      <trkpt lat="43.02526" lon="2.38266">
        <ele>494.1</ele>
        <time>2021-03-21T11:54:34Z</time>
      </trkpt>
      <trkpt lat="43.0253" lon="2.38235">
        <ele>492.7</ele>
        <time>2021-03-21T11:54:36Z</time>
      </trkpt>
      <trkpt lat="43.02534" lon="2.3822">
        <ele>492.6</ele>
        <time>2021-03-21T11:54:37Z</time>
      </trkpt>
      <trkpt lat="43.02547" lon="2.38197">
        <ele>491</ele>
        <time>2021-03-21T11:54:39Z</time>
      </trkpt>
      <trkpt lat="43.02556" lon="2.3819">
        <ele>490.2</ele>
        <time>2021-03-21T11:54:40Z</time>
      </trkpt>
      <trkpt lat="43.02564" lon="2.38184">
        <ele>489.6</ele>
        <time>2021-03-21T11:54:41Z</time>
      </trkpt>
      <trkpt lat="43.02572" lon="2.38163">
        <ele>488.2</ele>
        <time>2021-03-21T11:54:43Z</time>
      </trkpt>
      <trkpt lat="43.02571" lon="2.38148">
        <ele>487.5</ele>
        <time>2021-03-21T11:54:44Z</time>
      </trkpt>
      <trkpt lat="43.02561" lon="2.38122">
        <ele>485.9</ele>
        <time>2021-03-21T11:54:46Z</time>
      </trkpt>
      <trkpt lat="43.02555" lon="2.3811">
        <ele>485.2</ele>
        <time>2021-03-21T11:54:47Z</time>
      </trkpt>
      <trkpt lat="43.02548" lon="2.38099">
        <ele>484.5</ele>
        <time>2021-03-21T11:54:48Z</time>
      </trkpt>
      <trkpt lat="43.02534" lon="2.38079">
        <ele>483.5</ele>
        <time>2021-03-21T11:54:50Z</time>
      </trkpt>
      <trkpt lat="43.02527" lon="2.3807">
        <ele>483.1</ele>
        <time>2021-03-21T11:54:51Z</time>
      </trkpt>
      <trkpt lat="43.02517" lon="2.38049">
        <ele>482.6</ele>
        <time>2021-03-21T11:54:53Z</time>
      </trkpt>
      <trkpt lat="43.02519" lon="2.38037">
        <ele>482.4</ele>
        <time>2021-03-21T11:54:54Z</time>
      </trkpt>
      <trkpt lat="43.02525" lon="2.38026">
        <ele>482.3</ele>
        <time>2021-03-21T11:54:55Z</time>
      </trkpt>
      <trkpt lat="43.02544" lon="2.38014">
        <ele>482.3</ele>
        <time>2021-03-21T11:54:57Z</time>
      </trkpt>
      <trkpt lat="43.02553" lon="2.38014">
        <ele>482.6</ele>
        <time>2021-03-21T11:54:58Z</time>
      </trkpt>
      <trkpt lat="43.02563" lon="2.38018">
        <ele>483.3</ele>
        <time>2021-03-21T11:54:59Z</time>
      </trkpt>
      <trkpt lat="43.02579" lon="2.38032">
        <ele>485</ele>
        <time>2021-03-21T11:55:01Z</time>
      </trkpt>
      <trkpt lat="43.02587" lon="2.38037">
        <ele>485.8</ele>
        <time>2021-03-21T11:55:02Z</time>
      </trkpt>
      <trkpt lat="43.02594" lon="2.38037">
        <ele>486.4</ele>
        <time>2021-03-21T11:55:03Z</time>
      </trkpt>
      <trkpt lat="43.026" lon="2.38032">
        <ele>487</ele>
        <time>2021-03-21T11:55:04Z</time>
      </trkpt>
      <trkpt lat="43.02609" lon="2.38014">
        <ele>488.1</ele>
        <time>2021-03-21T11:55:06Z</time>
      </trkpt>
      <trkpt lat="43.02611" lon="2.38005">
        <ele>488.6</ele>
        <time>2021-03-21T11:55:07Z</time>
      </trkpt>
      <trkpt lat="43.02616" lon="2.37987">
        <ele>489.6</ele>
        <time>2021-03-21T11:55:09Z</time>
      </trkpt>
      <trkpt lat="43.02621" lon="2.37972">
        <ele>490.6</ele>
        <time>2021-03-21T11:55:11Z</time>
      </trkpt>
      <trkpt lat="43.02626" lon="2.37956">
        <ele>491.8</ele>
        <time>2021-03-21T11:55:13Z</time>
      </trkpt>
      <trkpt lat="43.02628" lon="2.37949">
        <ele>492.4</ele>
        <time>2021-03-21T11:55:14Z</time>
      </trkpt>
      <trkpt lat="43.0263" lon="2.37941">
        <ele>493.1</ele>
        <time>2021-03-21T11:55:15Z</time>
      </trkpt>
      <trkpt lat="43.02633" lon="2.37928">
        <ele>494.5</ele>
        <time>2021-03-21T11:55:17Z</time>
      </trkpt>
      <trkpt lat="43.02636" lon="2.37922">
        <ele>495.1</ele>
        <time>2021-03-21T11:55:18Z</time>
      </trkpt>
      <trkpt lat="43.02645" lon="2.37917">
        <ele>496.3</ele>
        <time>2021-03-21T11:55:20Z</time>
      </trkpt>
      <trkpt lat="43.02656" lon="2.37926">
        <ele>497.3</ele>
        <time>2021-03-21T11:55:22Z</time>
      </trkpt>
      <trkpt lat="43.02659" lon="2.37934">
        <ele>497.6</ele>
        <time>2021-03-21T11:55:23Z</time>
      </trkpt>
      <trkpt lat="43.0266" lon="2.37951">
        <ele>498.2</ele>
        <time>2021-03-21T11:55:25Z</time>
      </trkpt>
      <trkpt lat="43.02659" lon="2.37958">
        <ele>498.4</ele>
        <time>2021-03-21T11:55:26Z</time>
      </trkpt>
      <trkpt lat="43.02658" lon="2.37969">
        <ele>498.9</ele>
        <time>2021-03-21T11:55:28Z</time>
      </trkpt>
      <trkpt lat="43.02658" lon="2.37979">
        <ele>499.3</ele>
        <time>2021-03-21T11:55:30Z</time>
      </trkpt>
      <trkpt lat="43.02658" lon="2.37984">
        <ele>499.5</ele>
        <time>2021-03-21T11:55:31Z</time>
      </trkpt>
      <trkpt lat="43.02658" lon="2.37991">
        <ele>499.9</ele>
        <time>2021-03-21T11:55:32Z</time>
      </trkpt>
      <trkpt lat="43.02654" lon="2.37994">
        <ele>500.3</ele>
        <time>2021-03-21T11:55:34Z</time>
      </trkpt>
      <trkpt lat="43.02653" lon="2.38001">
        <ele>500.7</ele>
        <time>2021-03-21T11:55:35Z</time>
      </trkpt>
      <trkpt lat="43.02653" lon="2.38005">
        <ele>501</ele>
        <time>2021-03-21T11:55:36Z</time>
      </trkpt>
      <trkpt lat="43.02653" lon="2.38013">
        <ele>501.4</ele>
        <time>2021-03-21T11:55:38Z</time>
      </trkpt>
      <trkpt lat="43.02654" lon="2.38018">
        <ele>501.8</ele>
        <time>2021-03-21T11:55:39Z</time>
      </trkpt>
      <trkpt lat="43.02654" lon="2.38024">
        <ele>502.1</ele>
        <time>2021-03-21T11:55:40Z</time>
      </trkpt>
      <trkpt lat="43.02655" lon="2.3803">
        <ele>502.5</ele>
        <time>2021-03-21T11:55:42Z</time>
      </trkpt>
      <trkpt lat="43.02656" lon="2.38037">
        <ele>502.9</ele>
        <time>2021-03-21T11:55:43Z</time>
      </trkpt>
      <trkpt lat="43.02658" lon="2.38043">
        <ele>503.3</ele>
        <time>2021-03-21T11:55:44Z</time>
      </trkpt>
      <trkpt lat="43.02661" lon="2.38049">
        <ele>503.7</ele>
        <time>2021-03-21T11:55:46Z</time>
      </trkpt>
      <trkpt lat="43.02662" lon="2.38053">
        <ele>503.9</ele>
        <time>2021-03-21T11:55:47Z</time>
      </trkpt>
      <trkpt lat="43.02666" lon="2.38059">
        <ele>504.3</ele>
        <time>2021-03-21T11:55:49Z</time>
      </trkpt>
      <trkpt lat="43.02669" lon="2.38064">
        <ele>504.7</ele>
        <time>2021-03-21T11:55:50Z</time>
      </trkpt>
      <trkpt lat="43.02673" lon="2.38071">
        <ele>505.2</ele>
        <time>2021-03-21T11:55:51Z</time>
      </trkpt>
      <trkpt lat="43.02675" lon="2.38075">
        <ele>505.4</ele>
        <time>2021-03-21T11:55:52Z</time>
      </trkpt>
      <trkpt lat="43.02676" lon="2.38076">
        <ele>505.5</ele>
        <time>2021-03-21T11:55:53Z</time>
      </trkpt>
      <trkpt lat="43.0268" lon="2.38081">
        <ele>505.9</ele>
        <time>2021-03-21T11:55:55Z</time>
      </trkpt>
      <trkpt lat="43.02682" lon="2.38083">
        <ele>506.1</ele>
        <time>2021-03-21T11:55:56Z</time>
      </trkpt>
      <trkpt lat="43.02683" lon="2.38085">
        <ele>506.3</ele>
        <time>2021-03-21T11:55:57Z</time>
      </trkpt>
      <trkpt lat="43.02685" lon="2.38088">
        <ele>506.6</ele>
        <time>2021-03-21T11:55:58Z</time>
      </trkpt>
      <trkpt lat="43.02686" lon="2.3809">
        <ele>506.7</ele>
        <time>2021-03-21T11:55:59Z</time>
      </trkpt>
      <trkpt lat="43.02688" lon="2.38093">
        <ele>506.9</ele>
        <time>2021-03-21T11:56:01Z</time>
      </trkpt>
      <trkpt lat="43.02691" lon="2.38096">
        <ele>507.3</ele>
        <time>2021-03-21T11:56:02Z</time>
      </trkpt>
      <trkpt lat="43.02694" lon="2.38098">
        <ele>507.5</ele>
        <time>2021-03-21T11:56:03Z</time>
      </trkpt>
      <trkpt lat="43.02697" lon="2.381">
        <ele>507.9</ele>
        <time>2021-03-21T11:56:05Z</time>
      </trkpt>
      <trkpt lat="43.02701" lon="2.38102">
        <ele>508.3</ele>
        <time>2021-03-21T11:56:06Z</time>
      </trkpt>
      <trkpt lat="43.02706" lon="2.38104">
        <ele>508.7</ele>
        <time>2021-03-21T11:56:08Z</time>
      </trkpt>
      <trkpt lat="43.02709" lon="2.38105">
        <ele>508.9</ele>
        <time>2021-03-21T11:56:09Z</time>
      </trkpt>
      <trkpt lat="43.02712" lon="2.38104">
        <ele>509.2</ele>
        <time>2021-03-21T11:56:10Z</time>
      </trkpt>
      <trkpt lat="43.02715" lon="2.38103">
        <ele>509.4</ele>
        <time>2021-03-21T11:56:11Z</time>
      </trkpt>
      <trkpt lat="43.0272" lon="2.38099">
        <ele>509.8</ele>
        <time>2021-03-21T11:56:12Z</time>
      </trkpt>
      <trkpt lat="43.02723" lon="2.38095">
        <ele>510</ele>
        <time>2021-03-21T11:56:14Z</time>
      </trkpt>
      <trkpt lat="43.02725" lon="2.38089">
        <ele>510.3</ele>
        <time>2021-03-21T11:56:15Z</time>
      </trkpt>
      <trkpt lat="43.02726" lon="2.38083">
        <ele>510.5</ele>
        <time>2021-03-21T11:56:16Z</time>
      </trkpt>
      <trkpt lat="43.02727" lon="2.38077">
        <ele>510.7</ele>
        <time>2021-03-21T11:56:18Z</time>
      </trkpt>
      <trkpt lat="43.02729" lon="2.38069">
        <ele>510.9</ele>
        <time>2021-03-21T11:56:19Z</time>
      </trkpt>
      <trkpt lat="43.02731" lon="2.38065">
        <ele>511</ele>
        <time>2021-03-21T11:56:20Z</time>
      </trkpt>
      <trkpt lat="43.02731" lon="2.3806">
        <ele>511.2</ele>
        <time>2021-03-21T11:56:21Z</time>
      </trkpt>
      <trkpt lat="43.0273" lon="2.38055">
        <ele>511.3</ele>
        <time>2021-03-21T11:56:22Z</time>
      </trkpt>
      <trkpt lat="43.0273" lon="2.38046">
        <ele>511.5</ele>
        <time>2021-03-21T11:56:24Z</time>
      </trkpt>
      <trkpt lat="43.02729" lon="2.38041">
        <ele>511.7</ele>
        <time>2021-03-21T11:56:25Z</time>
      </trkpt>
      <trkpt lat="43.0273" lon="2.38034">
        <ele>511.8</ele>
        <time>2021-03-21T11:56:26Z</time>
      </trkpt>
      <trkpt lat="43.02731" lon="2.38029">
        <ele>512</ele>
        <time>2021-03-21T11:56:28Z</time>
      </trkpt>
      <trkpt lat="43.02731" lon="2.38028">
        <ele>512</ele>
        <time>2021-03-21T11:56:29Z</time>
      </trkpt>
      <trkpt lat="43.02731" lon="2.38026">
        <ele>512</ele>
        <time>2021-03-21T11:56:30Z</time>
      </trkpt>
      <trkpt lat="43.02731" lon="2.38025">
        <ele>512.1</ele>
        <time>2021-03-21T11:56:31Z</time>
      </trkpt>
      <trkpt lat="43.0273" lon="2.38019">
        <ele>512.2</ele>
        <time>2021-03-21T11:56:32Z</time>
      </trkpt>
      <trkpt lat="43.02728" lon="2.38011">
        <ele>512.4</ele>
        <time>2021-03-21T11:56:33Z</time>
      </trkpt>
      <trkpt lat="43.02727" lon="2.38004">
        <ele>512.6</ele>
        <time>2021-03-21T11:56:34Z</time>
      </trkpt>
      <trkpt lat="43.02725" lon="2.37994">
        <ele>512.8</ele>
        <time>2021-03-21T11:56:36Z</time>
      </trkpt>
      <trkpt lat="43.02723" lon="2.37982">
        <ele>513</ele>
        <time>2021-03-21T11:56:37Z</time>
      </trkpt>
      <trkpt lat="43.02721" lon="2.37975">
        <ele>513.2</ele>
        <time>2021-03-21T11:56:38Z</time>
      </trkpt>
      <trkpt lat="43.0272" lon="2.37968">
        <ele>513.4</ele>
        <time>2021-03-21T11:56:40Z</time>
      </trkpt>
      <trkpt lat="43.02719" lon="2.37961">
        <ele>513.6</ele>
        <time>2021-03-21T11:56:41Z</time>
      </trkpt>
      <trkpt lat="43.02718" lon="2.37951">
        <ele>513.9</ele>
        <time>2021-03-21T11:56:42Z</time>
      </trkpt>
      <trkpt lat="43.02718" lon="2.37946">
        <ele>514</ele>
        <time>2021-03-21T11:56:43Z</time>
      </trkpt>
      <trkpt lat="43.02718" lon="2.37941">
        <ele>514.2</ele>
        <time>2021-03-21T11:56:44Z</time>
      </trkpt>
      <trkpt lat="43.02719" lon="2.37934">
        <ele>514.4</ele>
        <time>2021-03-21T11:56:46Z</time>
      </trkpt>
      <trkpt lat="43.02721" lon="2.37925">
        <ele>514.6</ele>
        <time>2021-03-21T11:56:47Z</time>
      </trkpt>
      <trkpt lat="43.02723" lon="2.3792">
        <ele>514.7</ele>
        <time>2021-03-21T11:56:48Z</time>
      </trkpt>
      <trkpt lat="43.02725" lon="2.37915">
        <ele>514.8</ele>
        <time>2021-03-21T11:56:49Z</time>
      </trkpt>
      <trkpt lat="43.02729" lon="2.37908">
        <ele>514.9</ele>
        <time>2021-03-21T11:56:51Z</time>
      </trkpt>
      <trkpt lat="43.02735" lon="2.37903">
        <ele>515.2</ele>
        <time>2021-03-21T11:56:52Z</time>
      </trkpt>
      <trkpt lat="43.0274" lon="2.379">
        <ele>515.3</ele>
        <time>2021-03-21T11:56:53Z</time>
      </trkpt>
      <trkpt lat="43.02744" lon="2.379">
        <ele>515.4</ele>
        <time>2021-03-21T11:56:54Z</time>
      </trkpt>
      <trkpt lat="43.02749" lon="2.379">
        <ele>515.5</ele>
        <time>2021-03-21T11:56:56Z</time>
      </trkpt>
      <trkpt lat="43.02757" lon="2.37895">
        <ele>515.8</ele>
        <time>2021-03-21T11:56:57Z</time>
      </trkpt>
      <trkpt lat="43.02766" lon="2.37891">
        <ele>516</ele>
        <time>2021-03-21T11:56:59Z</time>
      </trkpt>
      <trkpt lat="43.0277" lon="2.3789">
        <ele>516.2</ele>
        <time>2021-03-21T11:57:01Z</time>
      </trkpt>
      <trkpt lat="43.02773" lon="2.37889">
        <ele>516.2</ele>
        <time>2021-03-21T11:57:02Z</time>
      </trkpt>
      <trkpt lat="43.02778" lon="2.37885">
        <ele>516.4</ele>
        <time>2021-03-21T11:57:03Z</time>
      </trkpt>
      <trkpt lat="43.02783" lon="2.3788">
        <ele>516.6</ele>
        <time>2021-03-21T11:57:05Z</time>
      </trkpt>
      <trkpt lat="43.02787" lon="2.37876">
        <ele>516.7</ele>
        <time>2021-03-21T11:57:06Z</time>
      </trkpt>
      <trkpt lat="43.02792" lon="2.37872">
        <ele>516.9</ele>
        <time>2021-03-21T11:57:07Z</time>
      </trkpt>
      <trkpt lat="43.02796" lon="2.37869">
        <ele>517</ele>
        <time>2021-03-21T11:57:08Z</time>
      </trkpt>
      <trkpt lat="43.02801" lon="2.37865">
        <ele>517.2</ele>
        <time>2021-03-21T11:57:09Z</time>
      </trkpt>
      <trkpt lat="43.02807" lon="2.37861">
        <ele>517.4</ele>
        <time>2021-03-21T11:57:10Z</time>
      </trkpt>
      <trkpt lat="43.02813" lon="2.37856">
        <ele>517.7</ele>
        <time>2021-03-21T11:57:12Z</time>
      </trkpt>
      <trkpt lat="43.02822" lon="2.37851">
        <ele>517.9</ele>
        <time>2021-03-21T11:57:13Z</time>
      </trkpt>
      <trkpt lat="43.02831" lon="2.37845">
        <ele>518.2</ele>
        <time>2021-03-21T11:57:15Z</time>
      </trkpt>
      <trkpt lat="43.0284" lon="2.3784">
        <ele>518.4</ele>
        <time>2021-03-21T11:57:17Z</time>
      </trkpt>
      <trkpt lat="43.02845" lon="2.37838">
        <ele>518.5</ele>
        <time>2021-03-21T11:57:18Z</time>
      </trkpt>
      <trkpt lat="43.02849" lon="2.37836">
        <ele>518.6</ele>
        <time>2021-03-21T11:57:19Z</time>
      </trkpt>
      <trkpt lat="43.02853" lon="2.37831">
        <ele>518.8</ele>
        <time>2021-03-21T11:57:21Z</time>
      </trkpt>
      <trkpt lat="43.02857" lon="2.37827">
        <ele>518.9</ele>
        <time>2021-03-21T11:57:22Z</time>
      </trkpt>
      <trkpt lat="43.02863" lon="2.37824">
        <ele>519</ele>
        <time>2021-03-21T11:57:23Z</time>
      </trkpt>
      <trkpt lat="43.02874" lon="2.37816">
        <ele>519.3</ele>
        <time>2021-03-21T11:57:25Z</time>
      </trkpt>
      <trkpt lat="43.02879" lon="2.37813">
        <ele>519.4</ele>
        <time>2021-03-21T11:57:26Z</time>
      </trkpt>
      <trkpt lat="43.02889" lon="2.37805">
        <ele>519.7</ele>
        <time>2021-03-21T11:57:28Z</time>
      </trkpt>
      <trkpt lat="43.02898" lon="2.37798">
        <ele>519.9</ele>
        <time>2021-03-21T11:57:30Z</time>
      </trkpt>
      <trkpt lat="43.02903" lon="2.37793">
        <ele>520</ele>
        <time>2021-03-21T11:57:31Z</time>
      </trkpt>
      <trkpt lat="43.02911" lon="2.37785">
        <ele>520.3</ele>
        <time>2021-03-21T11:57:33Z</time>
      </trkpt>
      <trkpt lat="43.02916" lon="2.37781">
        <ele>520.4</ele>
        <time>2021-03-21T11:57:34Z</time>
      </trkpt>
      <trkpt lat="43.02922" lon="2.37768">
        <ele>520.5</ele>
        <time>2021-03-21T11:57:36Z</time>
      </trkpt>
      <trkpt lat="43.02922" lon="2.37752">
        <ele>520.3</ele>
        <time>2021-03-21T11:57:38Z</time>
      </trkpt>
      <trkpt lat="43.0292" lon="2.37743">
        <ele>520</ele>
        <time>2021-03-21T11:57:39Z</time>
      </trkpt>
      <trkpt lat="43.02916" lon="2.37735">
        <ele>519.7</ele>
        <time>2021-03-21T11:57:40Z</time>
      </trkpt>
      <trkpt lat="43.02912" lon="2.37728">
        <ele>519.4</ele>
        <time>2021-03-21T11:57:41Z</time>
      </trkpt>
      <trkpt lat="43.02901" lon="2.37718">
        <ele>518.7</ele>
        <time>2021-03-21T11:57:43Z</time>
      </trkpt>
      <trkpt lat="43.02896" lon="2.37714">
        <ele>518.3</ele>
        <time>2021-03-21T11:57:44Z</time>
      </trkpt>
      <trkpt lat="43.02886" lon="2.37705">
        <ele>517.6</ele>
        <time>2021-03-21T11:57:46Z</time>
      </trkpt>
      <trkpt lat="43.02881" lon="2.377">
        <ele>517.2</ele>
        <time>2021-03-21T11:57:47Z</time>
      </trkpt>
      <trkpt lat="43.02876" lon="2.37695">
        <ele>516.8</ele>
        <time>2021-03-21T11:57:48Z</time>
      </trkpt>
      <trkpt lat="43.02865" lon="2.37684">
        <ele>516</ele>
        <time>2021-03-21T11:57:50Z</time>
      </trkpt>
      <trkpt lat="43.02854" lon="2.37671">
        <ele>515.1</ele>
        <time>2021-03-21T11:57:52Z</time>
      </trkpt>
      <trkpt lat="43.02849" lon="2.37663">
        <ele>514.6</ele>
        <time>2021-03-21T11:57:53Z</time>
      </trkpt>
      <trkpt lat="43.02838" lon="2.37648">
        <ele>513.5</ele>
        <time>2021-03-21T11:57:55Z</time>
      </trkpt>
      <trkpt lat="43.02827" lon="2.37632">
        <ele>512.5</ele>
        <time>2021-03-21T11:57:57Z</time>
      </trkpt>
      <trkpt lat="43.02823" lon="2.37623">
        <ele>512</ele>
        <time>2021-03-21T11:57:58Z</time>
      </trkpt>
      <trkpt lat="43.02814" lon="2.37605">
        <ele>511</ele>
        <time>2021-03-21T11:58:00Z</time>
      </trkpt>
      <trkpt lat="43.02809" lon="2.37595">
        <ele>510.6</ele>
        <time>2021-03-21T11:58:01Z</time>
      </trkpt>
      <trkpt lat="43.02804" lon="2.37586">
        <ele>510.1</ele>
        <time>2021-03-21T11:58:02Z</time>
      </trkpt>
      <trkpt lat="43.02794" lon="2.37567">
        <ele>509.2</ele>
        <time>2021-03-21T11:58:04Z</time>
      </trkpt>
      <trkpt lat="43.02783" lon="2.37549">
        <ele>508.1</ele>
        <time>2021-03-21T11:58:06Z</time>
      </trkpt>
      <trkpt lat="43.02772" lon="2.3753">
        <ele>507.1</ele>
        <time>2021-03-21T11:58:08Z</time>
      </trkpt>
      <trkpt lat="43.02761" lon="2.37511">
        <ele>506</ele>
        <time>2021-03-21T11:58:10Z</time>
      </trkpt>
      <trkpt lat="43.02751" lon="2.3749">
        <ele>505</ele>
        <time>2021-03-21T11:58:12Z</time>
      </trkpt>
      <trkpt lat="43.02741" lon="2.3747">
        <ele>504.1</ele>
        <time>2021-03-21T11:58:14Z</time>
      </trkpt>
      <trkpt lat="43.02731" lon="2.37451">
        <ele>503.4</ele>
        <time>2021-03-21T11:58:16Z</time>
      </trkpt>
      <trkpt lat="43.02726" lon="2.37442">
        <ele>503.1</ele>
        <time>2021-03-21T11:58:17Z</time>
      </trkpt>
      <trkpt lat="43.02722" lon="2.37432">
        <ele>502.9</ele>
        <time>2021-03-21T11:58:18Z</time>
      </trkpt>
      <trkpt lat="43.02716" lon="2.37411">
        <ele>502.5</ele>
        <time>2021-03-21T11:58:20Z</time>
      </trkpt>
      <trkpt lat="43.02718" lon="2.37399">
        <ele>502.2</ele>
        <time>2021-03-21T11:58:21Z</time>
      </trkpt>
      <trkpt lat="43.02734" lon="2.3738">
        <ele>501.5</ele>
        <time>2021-03-21T11:58:23Z</time>
      </trkpt>
      <trkpt lat="43.02755" lon="2.37374">
        <ele>500.6</ele>
        <time>2021-03-21T11:58:25Z</time>
      </trkpt>
      <trkpt lat="43.02765" lon="2.37378">
        <ele>500.3</ele>
        <time>2021-03-21T11:58:26Z</time>
      </trkpt>
      <trkpt lat="43.02782" lon="2.37398">
        <ele>499.6</ele>
        <time>2021-03-21T11:58:28Z</time>
      </trkpt>
      <trkpt lat="43.02796" lon="2.37421">
        <ele>499.1</ele>
        <time>2021-03-21T11:58:30Z</time>
      </trkpt>
      <trkpt lat="43.02802" lon="2.37432">
        <ele>498.9</ele>
        <time>2021-03-21T11:58:31Z</time>
      </trkpt>
      <trkpt lat="43.02808" lon="2.37442">
        <ele>498.6</ele>
        <time>2021-03-21T11:58:32Z</time>
      </trkpt>
      <trkpt lat="43.0282" lon="2.37464">
        <ele>498.2</ele>
        <time>2021-03-21T11:58:34Z</time>
      </trkpt>
      <trkpt lat="43.02833" lon="2.37483">
        <ele>497.8</ele>
        <time>2021-03-21T11:58:36Z</time>
      </trkpt>
      <trkpt lat="43.02841" lon="2.37492">
        <ele>497.5</ele>
        <time>2021-03-21T11:58:37Z</time>
      </trkpt>
      <trkpt lat="43.02857" lon="2.37507">
        <ele>497.1</ele>
        <time>2021-03-21T11:58:39Z</time>
      </trkpt>
      <trkpt lat="43.02873" lon="2.37521">
        <ele>496.6</ele>
        <time>2021-03-21T11:58:41Z</time>
      </trkpt>
      <trkpt lat="43.02881" lon="2.37528">
        <ele>496.3</ele>
        <time>2021-03-21T11:58:42Z</time>
      </trkpt>
      <trkpt lat="43.0289" lon="2.37535">
        <ele>496.1</ele>
        <time>2021-03-21T11:58:43Z</time>
      </trkpt>
      <trkpt lat="43.02908" lon="2.37547">
        <ele>495.5</ele>
        <time>2021-03-21T11:58:45Z</time>
      </trkpt>
      <trkpt lat="43.02928" lon="2.37554">
        <ele>494.9</ele>
        <time>2021-03-21T11:58:47Z</time>
      </trkpt>
      <trkpt lat="43.02946" lon="2.37561">
        <ele>494.4</ele>
        <time>2021-03-21T11:58:49Z</time>
      </trkpt>
      <trkpt lat="43.02955" lon="2.37566">
        <ele>494.1</ele>
        <time>2021-03-21T11:58:50Z</time>
      </trkpt>
      <trkpt lat="43.02972" lon="2.37577">
        <ele>493.7</ele>
        <time>2021-03-21T11:58:52Z</time>
      </trkpt>
      <trkpt lat="43.02989" lon="2.37591">
        <ele>493.2</ele>
        <time>2021-03-21T11:58:54Z</time>
      </trkpt>
      <trkpt lat="43.03006" lon="2.37604">
        <ele>492.5</ele>
        <time>2021-03-21T11:58:56Z</time>
      </trkpt>
      <trkpt lat="43.03023" lon="2.37615">
        <ele>491.9</ele>
        <time>2021-03-21T11:58:58Z</time>
      </trkpt>
      <trkpt lat="43.03032" lon="2.3762">
        <ele>491.6</ele>
        <time>2021-03-21T11:58:59Z</time>
      </trkpt>
      <trkpt lat="43.03048" lon="2.37628">
        <ele>491</ele>
        <time>2021-03-21T11:59:01Z</time>
      </trkpt>
      <trkpt lat="43.03057" lon="2.37632">
        <ele>490.8</ele>
        <time>2021-03-21T11:59:02Z</time>
      </trkpt>
      <trkpt lat="43.03073" lon="2.37638">
        <ele>490.2</ele>
        <time>2021-03-21T11:59:04Z</time>
      </trkpt>
      <trkpt lat="43.03089" lon="2.37645">
        <ele>489.8</ele>
        <time>2021-03-21T11:59:06Z</time>
      </trkpt>
      <trkpt lat="43.03097" lon="2.3765">
        <ele>489.5</ele>
        <time>2021-03-21T11:59:07Z</time>
      </trkpt>
      <trkpt lat="43.03105" lon="2.37655">
        <ele>489.3</ele>
        <time>2021-03-21T11:59:08Z</time>
      </trkpt>
      <trkpt lat="43.03122" lon="2.37664">
        <ele>488.8</ele>
        <time>2021-03-21T11:59:10Z</time>
      </trkpt>
      <trkpt lat="43.0313" lon="2.37667">
        <ele>488.5</ele>
        <time>2021-03-21T11:59:11Z</time>
      </trkpt>
      <trkpt lat="43.03139" lon="2.3767">
        <ele>488.2</ele>
        <time>2021-03-21T11:59:12Z</time>
      </trkpt>
      <trkpt lat="43.03156" lon="2.37675">
        <ele>487.8</ele>
        <time>2021-03-21T11:59:14Z</time>
      </trkpt>
      <trkpt lat="43.03174" lon="2.3768">
        <ele>487.3</ele>
        <time>2021-03-21T11:59:16Z</time>
      </trkpt>
      <trkpt lat="43.03192" lon="2.37684">
        <ele>486.7</ele>
        <time>2021-03-21T11:59:18Z</time>
      </trkpt>
      <trkpt lat="43.03201" lon="2.37687">
        <ele>486.5</ele>
        <time>2021-03-21T11:59:19Z</time>
      </trkpt>
      <trkpt lat="43.0321" lon="2.37689">
        <ele>486.2</ele>
        <time>2021-03-21T11:59:20Z</time>
      </trkpt>
      <trkpt lat="43.03229" lon="2.37693">
        <ele>485.7</ele>
        <time>2021-03-21T11:59:22Z</time>
      </trkpt>
      <trkpt lat="43.03238" lon="2.37697">
        <ele>485.4</ele>
        <time>2021-03-21T11:59:23Z</time>
      </trkpt>
      <trkpt lat="43.03256" lon="2.37705">
        <ele>484.9</ele>
        <time>2021-03-21T11:59:25Z</time>
      </trkpt>
      <trkpt lat="43.03264" lon="2.37709">
        <ele>484.7</ele>
        <time>2021-03-21T11:59:26Z</time>
      </trkpt>
      <trkpt lat="43.03273" lon="2.37712">
        <ele>484.4</ele>
        <time>2021-03-21T11:59:27Z</time>
      </trkpt>
      <trkpt lat="43.03291" lon="2.3771">
        <ele>484</ele>
        <time>2021-03-21T11:59:29Z</time>
      </trkpt>
      <trkpt lat="43.03299" lon="2.37705">
        <ele>483.8</ele>
        <time>2021-03-21T11:59:30Z</time>
      </trkpt>
      <trkpt lat="43.03306" lon="2.37697">
        <ele>483.5</ele>
        <time>2021-03-21T11:59:31Z</time>
      </trkpt>
      <trkpt lat="43.03311" lon="2.37685">
        <ele>483.2</ele>
        <time>2021-03-21T11:59:32Z</time>
      </trkpt>
      <trkpt lat="43.03316" lon="2.37657">
        <ele>482.5</ele>
        <time>2021-03-21T11:59:34Z</time>
      </trkpt>
      <trkpt lat="43.03318" lon="2.37644">
        <ele>482.1</ele>
        <time>2021-03-21T11:59:35Z</time>
      </trkpt>
      <trkpt lat="43.03317" lon="2.37617">
        <ele>481.5</ele>
        <time>2021-03-21T11:59:37Z</time>
      </trkpt>
      <trkpt lat="43.03315" lon="2.37593">
        <ele>481.1</ele>
        <time>2021-03-21T11:59:39Z</time>
      </trkpt>
      <trkpt lat="43.03313" lon="2.37572">
        <ele>480.7</ele>
        <time>2021-03-21T11:59:41Z</time>
      </trkpt>
      <trkpt lat="43.03311" lon="2.37562">
        <ele>480.5</ele>
        <time>2021-03-21T11:59:42Z</time>
      </trkpt>
      <trkpt lat="43.03309" lon="2.37553">
        <ele>480.3</ele>
        <time>2021-03-21T11:59:43Z</time>
      </trkpt>
      <trkpt lat="43.03307" lon="2.37543">
        <ele>480</ele>
        <time>2021-03-21T11:59:44Z</time>
      </trkpt>
      <trkpt lat="43.03303" lon="2.37524">
        <ele>479.6</ele>
        <time>2021-03-21T11:59:46Z</time>
      </trkpt>
      <trkpt lat="43.03302" lon="2.37513">
        <ele>479.4</ele>
        <time>2021-03-21T11:59:47Z</time>
      </trkpt>
      <trkpt lat="43.033" lon="2.37492">
        <ele>479</ele>
        <time>2021-03-21T11:59:49Z</time>
      </trkpt>
      <trkpt lat="43.033" lon="2.37482">
        <ele>478.8</ele>
        <time>2021-03-21T11:59:50Z</time>
      </trkpt>
      <trkpt lat="43.03299" lon="2.37461">
        <ele>478.4</ele>
        <time>2021-03-21T11:59:52Z</time>
      </trkpt>
      <trkpt lat="43.03298" lon="2.37451">
        <ele>478.1</ele>
        <time>2021-03-21T11:59:53Z</time>
      </trkpt>
      <trkpt lat="43.03295" lon="2.37431">
        <ele>477.6</ele>
        <time>2021-03-21T11:59:55Z</time>
      </trkpt>
      <trkpt lat="43.03293" lon="2.37421">
        <ele>477.3</ele>
        <time>2021-03-21T11:59:56Z</time>
      </trkpt>
      <trkpt lat="43.0329" lon="2.37398">
        <ele>476.7</ele>
        <time>2021-03-21T11:59:58Z</time>
      </trkpt>
      <trkpt lat="43.03298" lon="2.37376">
        <ele>476.1</ele>
        <time>2021-03-21T12:00:00Z</time>
      </trkpt>
      <trkpt lat="43.03307" lon="2.37357">
        <ele>475.7</ele>
        <time>2021-03-21T12:00:02Z</time>
      </trkpt>
      <trkpt lat="43.0331" lon="2.37346">
        <ele>475.5</ele>
        <time>2021-03-21T12:00:03Z</time>
      </trkpt>
      <trkpt lat="43.03315" lon="2.37325">
        <ele>475.1</ele>
        <time>2021-03-21T12:00:05Z</time>
      </trkpt>
      <trkpt lat="43.03316" lon="2.37314">
        <ele>475</ele>
        <time>2021-03-21T12:00:06Z</time>
      </trkpt>
      <trkpt lat="43.03321" lon="2.37293">
        <ele>474.6</ele>
        <time>2021-03-21T12:00:08Z</time>
      </trkpt>
      <trkpt lat="43.03325" lon="2.37283">
        <ele>474.4</ele>
        <time>2021-03-21T12:00:09Z</time>
      </trkpt>
      <trkpt lat="43.03334" lon="2.37267">
        <ele>474</ele>
        <time>2021-03-21T12:00:11Z</time>
      </trkpt>
      <trkpt lat="43.03345" lon="2.37253">
        <ele>473.6</ele>
        <time>2021-03-21T12:00:13Z</time>
      </trkpt>
      <trkpt lat="43.0335" lon="2.37246">
        <ele>473.4</ele>
        <time>2021-03-21T12:00:14Z</time>
      </trkpt>
      <trkpt lat="43.03359" lon="2.3723">
        <ele>472.8</ele>
        <time>2021-03-21T12:00:16Z</time>
      </trkpt>
      <trkpt lat="43.03367" lon="2.37211">
        <ele>472.2</ele>
        <time>2021-03-21T12:00:18Z</time>
      </trkpt>
      <trkpt lat="43.03369" lon="2.372">
        <ele>471.9</ele>
        <time>2021-03-21T12:00:19Z</time>
      </trkpt>
      <trkpt lat="43.03371" lon="2.37189">
        <ele>471.6</ele>
        <time>2021-03-21T12:00:20Z</time>
      </trkpt>
      <trkpt lat="43.03372" lon="2.37178">
        <ele>471.4</ele>
        <time>2021-03-21T12:00:21Z</time>
      </trkpt>
      <trkpt lat="43.03373" lon="2.37167">
        <ele>471.1</ele>
        <time>2021-03-21T12:00:22Z</time>
      </trkpt>
      <trkpt lat="43.03374" lon="2.37145">
        <ele>470.6</ele>
        <time>2021-03-21T12:00:24Z</time>
      </trkpt>
      <trkpt lat="43.03375" lon="2.37134">
        <ele>470.4</ele>
        <time>2021-03-21T12:00:25Z</time>
      </trkpt>
      <trkpt lat="43.0338" lon="2.37115">
        <ele>469.8</ele>
        <time>2021-03-21T12:00:27Z</time>
      </trkpt>
      <trkpt lat="43.03394" lon="2.37107">
        <ele>469.3</ele>
        <time>2021-03-21T12:00:29Z</time>
      </trkpt>
      <trkpt lat="43.03402" lon="2.37111">
        <ele>469</ele>
        <time>2021-03-21T12:00:30Z</time>
      </trkpt>
      <trkpt lat="43.0342" lon="2.37119">
        <ele>468.2</ele>
        <time>2021-03-21T12:00:32Z</time>
      </trkpt>
      <trkpt lat="43.03429" lon="2.37121">
        <ele>467.8</ele>
        <time>2021-03-21T12:00:33Z</time>
      </trkpt>
      <trkpt lat="43.03445" lon="2.37113">
        <ele>467.2</ele>
        <time>2021-03-21T12:00:35Z</time>
      </trkpt>
      <trkpt lat="43.03451" lon="2.37102">
        <ele>466.8</ele>
        <time>2021-03-21T12:00:36Z</time>
      </trkpt>
      <trkpt lat="43.03453" lon="2.3709">
        <ele>466.5</ele>
        <time>2021-03-21T12:00:37Z</time>
      </trkpt>
      <trkpt lat="43.03451" lon="2.37064">
        <ele>465.8</ele>
        <time>2021-03-21T12:00:39Z</time>
      </trkpt>
      <trkpt lat="43.03448" lon="2.37053">
        <ele>465.5</ele>
        <time>2021-03-21T12:00:40Z</time>
      </trkpt>
      <trkpt lat="43.03441" lon="2.37031">
        <ele>464.9</ele>
        <time>2021-03-21T12:00:42Z</time>
      </trkpt>
      <trkpt lat="43.03438" lon="2.3702">
        <ele>464.5</ele>
        <time>2021-03-21T12:00:43Z</time>
      </trkpt>
      <trkpt lat="43.03437" lon="2.36997">
        <ele>463.9</ele>
        <time>2021-03-21T12:00:45Z</time>
      </trkpt>
      <trkpt lat="43.03444" lon="2.36976">
        <ele>463.1</ele>
        <time>2021-03-21T12:00:47Z</time>
      </trkpt>
      <trkpt lat="43.03449" lon="2.36966">
        <ele>462.8</ele>
        <time>2021-03-21T12:00:48Z</time>
      </trkpt>
      <trkpt lat="43.03459" lon="2.36946">
        <ele>462.1</ele>
        <time>2021-03-21T12:00:50Z</time>
      </trkpt>
      <trkpt lat="43.03463" lon="2.36935">
        <ele>461.8</ele>
        <time>2021-03-21T12:00:51Z</time>
      </trkpt>
      <trkpt lat="43.03466" lon="2.36923">
        <ele>461.4</ele>
        <time>2021-03-21T12:00:52Z</time>
      </trkpt>
      <trkpt lat="43.03469" lon="2.36898">
        <ele>460.7</ele>
        <time>2021-03-21T12:00:54Z</time>
      </trkpt>
      <trkpt lat="43.0347" lon="2.36885">
        <ele>460.4</ele>
        <time>2021-03-21T12:00:55Z</time>
      </trkpt>
      <trkpt lat="43.03472" lon="2.36861">
        <ele>459.7</ele>
        <time>2021-03-21T12:00:57Z</time>
      </trkpt>
      <trkpt lat="43.03475" lon="2.36836">
        <ele>459</ele>
        <time>2021-03-21T12:00:59Z</time>
      </trkpt>
      <trkpt lat="43.03476" lon="2.36824">
        <ele>458.7</ele>
        <time>2021-03-21T12:01:00Z</time>
      </trkpt>
      <trkpt lat="43.03476" lon="2.36799">
        <ele>458.1</ele>
        <time>2021-03-21T12:01:02Z</time>
      </trkpt>
      <trkpt lat="43.03477" lon="2.36787">
        <ele>457.8</ele>
        <time>2021-03-21T12:01:03Z</time>
      </trkpt>
      <trkpt lat="43.03479" lon="2.36762">
        <ele>457.1</ele>
        <time>2021-03-21T12:01:05Z</time>
      </trkpt>
      <trkpt lat="43.03479" lon="2.36738">
        <ele>456.5</ele>
        <time>2021-03-21T12:01:07Z</time>
      </trkpt>
      <trkpt lat="43.03477" lon="2.36714">
        <ele>455.8</ele>
        <time>2021-03-21T12:01:09Z</time>
      </trkpt>
      <trkpt lat="43.03474" lon="2.3669">
        <ele>455.2</ele>
        <time>2021-03-21T12:01:11Z</time>
      </trkpt>
      <trkpt lat="43.03473" lon="2.36678">
        <ele>454.8</ele>
        <time>2021-03-21T12:01:12Z</time>
      </trkpt>
      <trkpt lat="43.03469" lon="2.36654">
        <ele>454.2</ele>
        <time>2021-03-21T12:01:14Z</time>
      </trkpt>
      <trkpt lat="43.03468" lon="2.36632">
        <ele>453.6</ele>
        <time>2021-03-21T12:01:16Z</time>
      </trkpt>
      <trkpt lat="43.0348" lon="2.36615">
        <ele>452.9</ele>
        <time>2021-03-21T12:01:18Z</time>
      </trkpt>
      <trkpt lat="43.03499" lon="2.36609">
        <ele>452</ele>
        <time>2021-03-21T12:01:20Z</time>
      </trkpt>
      <trkpt lat="43.03507" lon="2.36604">
        <ele>451.6</ele>
        <time>2021-03-21T12:01:21Z</time>
      </trkpt>
      <trkpt lat="43.03519" lon="2.36586">
        <ele>450.9</ele>
        <time>2021-03-21T12:01:23Z</time>
      </trkpt>
      <trkpt lat="43.03523" lon="2.36575">
        <ele>450.5</ele>
        <time>2021-03-21T12:01:24Z</time>
      </trkpt>
      <trkpt lat="43.03527" lon="2.3655">
        <ele>449.8</ele>
        <time>2021-03-21T12:01:26Z</time>
      </trkpt>
      <trkpt lat="43.0353" lon="2.36526">
        <ele>449.2</ele>
        <time>2021-03-21T12:01:28Z</time>
      </trkpt>
      <trkpt lat="43.03532" lon="2.36515">
        <ele>448.9</ele>
        <time>2021-03-21T12:01:29Z</time>
      </trkpt>
      <trkpt lat="43.03535" lon="2.36492">
        <ele>448.3</ele>
        <time>2021-03-21T12:01:31Z</time>
      </trkpt>
      <trkpt lat="43.03537" lon="2.36471">
        <ele>447.7</ele>
        <time>2021-03-21T12:01:33Z</time>
      </trkpt>
      <trkpt lat="43.03538" lon="2.3646">
        <ele>447.4</ele>
        <time>2021-03-21T12:01:34Z</time>
      </trkpt>
      <trkpt lat="43.03535" lon="2.36438">
        <ele>446.7</ele>
        <time>2021-03-21T12:01:36Z</time>
      </trkpt>
      <trkpt lat="43.03532" lon="2.36427">
        <ele>446.4</ele>
        <time>2021-03-21T12:01:37Z</time>
      </trkpt>
      <trkpt lat="43.03529" lon="2.36416">
        <ele>446.1</ele>
        <time>2021-03-21T12:01:38Z</time>
      </trkpt>
      <trkpt lat="43.03524" lon="2.36395">
        <ele>445.5</ele>
        <time>2021-03-21T12:01:40Z</time>
      </trkpt>
      <trkpt lat="43.03523" lon="2.36383">
        <ele>445.2</ele>
        <time>2021-03-21T12:01:41Z</time>
      </trkpt>
      <trkpt lat="43.03524" lon="2.36361">
        <ele>444.6</ele>
        <time>2021-03-21T12:01:43Z</time>
      </trkpt>
      <trkpt lat="43.03533" lon="2.3634">
        <ele>444</ele>
        <time>2021-03-21T12:01:45Z</time>
      </trkpt>
      <trkpt lat="43.03548" lon="2.36329">
        <ele>443.3</ele>
        <time>2021-03-21T12:01:47Z</time>
      </trkpt>
      <trkpt lat="43.03565" lon="2.36322">
        <ele>442.5</ele>
        <time>2021-03-21T12:01:49Z</time>
      </trkpt>
      <trkpt lat="43.03577" lon="2.36309">
        <ele>441.8</ele>
        <time>2021-03-21T12:01:51Z</time>
      </trkpt>
      <trkpt lat="43.0358" lon="2.36298">
        <ele>441.5</ele>
        <time>2021-03-21T12:01:52Z</time>
      </trkpt>
      <trkpt lat="43.03581" lon="2.36273">
        <ele>440.8</ele>
        <time>2021-03-21T12:01:54Z</time>
      </trkpt>
      <trkpt lat="43.03579" lon="2.36259">
        <ele>440.4</ele>
        <time>2021-03-21T12:01:55Z</time>
      </trkpt>
      <trkpt lat="43.03571" lon="2.36235">
        <ele>439.7</ele>
        <time>2021-03-21T12:01:57Z</time>
      </trkpt>
      <trkpt lat="43.03566" lon="2.36225">
        <ele>439.4</ele>
        <time>2021-03-21T12:01:58Z</time>
      </trkpt>
      <trkpt lat="43.03556" lon="2.36205">
        <ele>438.8</ele>
        <time>2021-03-21T12:02:00Z</time>
      </trkpt>
      <trkpt lat="43.0355" lon="2.36183">
        <ele>438.2</ele>
        <time>2021-03-21T12:02:02Z</time>
      </trkpt>
      <trkpt lat="43.03548" lon="2.36171">
        <ele>437.8</ele>
        <time>2021-03-21T12:02:03Z</time>
      </trkpt>
      <trkpt lat="43.03549" lon="2.36147">
        <ele>437.2</ele>
        <time>2021-03-21T12:02:05Z</time>
      </trkpt>
      <trkpt lat="43.0355" lon="2.36135">
        <ele>436.9</ele>
        <time>2021-03-21T12:02:06Z</time>
      </trkpt>
      <trkpt lat="43.03552" lon="2.36124">
        <ele>436.5</ele>
        <time>2021-03-21T12:02:07Z</time>
      </trkpt>
      <trkpt lat="43.03554" lon="2.36113">
        <ele>436.3</ele>
        <time>2021-03-21T12:02:08Z</time>
      </trkpt>
      <trkpt lat="43.03556" lon="2.36102">
        <ele>436</ele>
        <time>2021-03-21T12:02:09Z</time>
      </trkpt>
      <trkpt lat="43.03561" lon="2.36081">
        <ele>435.5</ele>
        <time>2021-03-21T12:02:11Z</time>
      </trkpt>
      <trkpt lat="43.03572" lon="2.36062">
        <ele>434.9</ele>
        <time>2021-03-21T12:02:13Z</time>
      </trkpt>
      <trkpt lat="43.03588" lon="2.36054">
        <ele>434.2</ele>
        <time>2021-03-21T12:02:15Z</time>
      </trkpt>
      <trkpt lat="43.03597" lon="2.36052">
        <ele>433.9</ele>
        <time>2021-03-21T12:02:16Z</time>
      </trkpt>
      <trkpt lat="43.03615" lon="2.36047">
        <ele>433.2</ele>
        <time>2021-03-21T12:02:18Z</time>
      </trkpt>
      <trkpt lat="43.03631" lon="2.3604">
        <ele>432.5</ele>
        <time>2021-03-21T12:02:20Z</time>
      </trkpt>
      <trkpt lat="43.03646" lon="2.36025">
        <ele>431.9</ele>
        <time>2021-03-21T12:02:22Z</time>
      </trkpt>
      <trkpt lat="43.0365" lon="2.36014">
        <ele>431.5</ele>
        <time>2021-03-21T12:02:23Z</time>
      </trkpt>
      <trkpt lat="43.03652" lon="2.35985">
        <ele>430.8</ele>
        <time>2021-03-21T12:02:25Z</time>
      </trkpt>
      <trkpt lat="43.03648" lon="2.35972">
        <ele>430.4</ele>
        <time>2021-03-21T12:02:26Z</time>
      </trkpt>
      <trkpt lat="43.03642" lon="2.35961">
        <ele>430</ele>
        <time>2021-03-21T12:02:27Z</time>
      </trkpt>
      <trkpt lat="43.03634" lon="2.35952">
        <ele>429.6</ele>
        <time>2021-03-21T12:02:28Z</time>
      </trkpt>
      <trkpt lat="43.03626" lon="2.35945">
        <ele>429.2</ele>
        <time>2021-03-21T12:02:29Z</time>
      </trkpt>
      <trkpt lat="43.0361" lon="2.35931">
        <ele>428.6</ele>
        <time>2021-03-21T12:02:31Z</time>
      </trkpt>
      <trkpt lat="43.03594" lon="2.35916">
        <ele>428</ele>
        <time>2021-03-21T12:02:33Z</time>
      </trkpt>
      <trkpt lat="43.03578" lon="2.35901">
        <ele>427.3</ele>
        <time>2021-03-21T12:02:35Z</time>
      </trkpt>
      <trkpt lat="43.03571" lon="2.35893">
        <ele>426.9</ele>
        <time>2021-03-21T12:02:36Z</time>
      </trkpt>
      <trkpt lat="43.03559" lon="2.35872">
        <ele>426.2</ele>
        <time>2021-03-21T12:02:38Z</time>
      </trkpt>
      <trkpt lat="43.03557" lon="2.3586">
        <ele>425.8</ele>
        <time>2021-03-21T12:02:39Z</time>
      </trkpt>
      <trkpt lat="43.0356" lon="2.35836">
        <ele>425.1</ele>
        <time>2021-03-21T12:02:41Z</time>
      </trkpt>
      <trkpt lat="43.03568" lon="2.35813">
        <ele>424.5</ele>
        <time>2021-03-21T12:02:43Z</time>
      </trkpt>
      <trkpt lat="43.0358" lon="2.35795">
        <ele>423.9</ele>
        <time>2021-03-21T12:02:45Z</time>
      </trkpt>
      <trkpt lat="43.03587" lon="2.3579">
        <ele>423.6</ele>
        <time>2021-03-21T12:02:46Z</time>
      </trkpt>
      <trkpt lat="43.03596" lon="2.3579">
        <ele>423.3</ele>
        <time>2021-03-21T12:02:47Z</time>
      </trkpt>
      <trkpt lat="43.03611" lon="2.35805">
        <ele>422.4</ele>
        <time>2021-03-21T12:02:49Z</time>
      </trkpt>
      <trkpt lat="43.03628" lon="2.35818">
        <ele>421.7</ele>
        <time>2021-03-21T12:02:51Z</time>
      </trkpt>
      <trkpt lat="43.03644" lon="2.35806">
        <ele>421.1</ele>
        <time>2021-03-21T12:02:53Z</time>
      </trkpt>
      <trkpt lat="43.03652" lon="2.35782">
        <ele>420.3</ele>
        <time>2021-03-21T12:02:55Z</time>
      </trkpt>
      <trkpt lat="43.0366" lon="2.35757">
        <ele>419.5</ele>
        <time>2021-03-21T12:02:57Z</time>
      </trkpt>
      <trkpt lat="43.03664" lon="2.35745">
        <ele>419.1</ele>
        <time>2021-03-21T12:02:58Z</time>
      </trkpt>
      <trkpt lat="43.03669" lon="2.35734">
        <ele>418.7</ele>
        <time>2021-03-21T12:02:59Z</time>
      </trkpt>
      <trkpt lat="43.03678" lon="2.35712">
        <ele>418.1</ele>
        <time>2021-03-21T12:03:01Z</time>
      </trkpt>
      <trkpt lat="43.03682" lon="2.35701">
        <ele>417.7</ele>
        <time>2021-03-21T12:03:02Z</time>
      </trkpt>
      <trkpt lat="43.03691" lon="2.35679">
        <ele>417.1</ele>
        <time>2021-03-21T12:03:04Z</time>
      </trkpt>
      <trkpt lat="43.03695" lon="2.35668">
        <ele>416.8</ele>
        <time>2021-03-21T12:03:05Z</time>
      </trkpt>
      <trkpt lat="43.03704" lon="2.35647">
        <ele>416.1</ele>
        <time>2021-03-21T12:03:07Z</time>
      </trkpt>
      <trkpt lat="43.03709" lon="2.35622">
        <ele>415.4</ele>
        <time>2021-03-21T12:03:09Z</time>
      </trkpt>
      <trkpt lat="43.03703" lon="2.35597">
        <ele>414.6</ele>
        <time>2021-03-21T12:03:11Z</time>
      </trkpt>
      <trkpt lat="43.03698" lon="2.35586">
        <ele>414.3</ele>
        <time>2021-03-21T12:03:12Z</time>
      </trkpt>
      <trkpt lat="43.03689" lon="2.35563">
        <ele>413.5</ele>
        <time>2021-03-21T12:03:14Z</time>
      </trkpt>
      <trkpt lat="43.03684" lon="2.3554">
        <ele>412.8</ele>
        <time>2021-03-21T12:03:16Z</time>
      </trkpt>
      <trkpt lat="43.03681" lon="2.35527">
        <ele>412.5</ele>
        <time>2021-03-21T12:03:17Z</time>
      </trkpt>
      <trkpt lat="43.03679" lon="2.35516">
        <ele>412.2</ele>
        <time>2021-03-21T12:03:18Z</time>
      </trkpt>
      <trkpt lat="43.03674" lon="2.35493">
        <ele>411.6</ele>
        <time>2021-03-21T12:03:20Z</time>
      </trkpt>
      <trkpt lat="43.03671" lon="2.35481">
        <ele>411.2</ele>
        <time>2021-03-21T12:03:21Z</time>
      </trkpt>
      <trkpt lat="43.03667" lon="2.35459">
        <ele>410.6</ele>
        <time>2021-03-21T12:03:23Z</time>
      </trkpt>
      <trkpt lat="43.03662" lon="2.35437">
        <ele>410</ele>
        <time>2021-03-21T12:03:25Z</time>
      </trkpt>
      <trkpt lat="43.0366" lon="2.35426">
        <ele>409.8</ele>
        <time>2021-03-21T12:03:26Z</time>
      </trkpt>
      <trkpt lat="43.03659" lon="2.35405">
        <ele>409.3</ele>
        <time>2021-03-21T12:03:28Z</time>
      </trkpt>
      <trkpt lat="43.03665" lon="2.35385">
        <ele>408.7</ele>
        <time>2021-03-21T12:03:30Z</time>
      </trkpt>
      <trkpt lat="43.03678" lon="2.35372">
        <ele>408.2</ele>
        <time>2021-03-21T12:03:32Z</time>
      </trkpt>
      <trkpt lat="43.03697" lon="2.35369">
        <ele>407.5</ele>
        <time>2021-03-21T12:03:34Z</time>
      </trkpt>
      <trkpt lat="43.03715" lon="2.35368">
        <ele>406.9</ele>
        <time>2021-03-21T12:03:36Z</time>
      </trkpt>
      <trkpt lat="43.03733" lon="2.35363">
        <ele>406.3</ele>
        <time>2021-03-21T12:03:38Z</time>
      </trkpt>
      <trkpt lat="43.03748" lon="2.35352">
        <ele>405.6</ele>
        <time>2021-03-21T12:03:40Z</time>
      </trkpt>
      <trkpt lat="43.03753" lon="2.35342">
        <ele>405.3</ele>
        <time>2021-03-21T12:03:41Z</time>
      </trkpt>
      <trkpt lat="43.03757" lon="2.3533">
        <ele>404.9</ele>
        <time>2021-03-21T12:03:42Z</time>
      </trkpt>
      <trkpt lat="43.03759" lon="2.35317">
        <ele>404.6</ele>
        <time>2021-03-21T12:03:43Z</time>
      </trkpt>
      <trkpt lat="43.03761" lon="2.35291">
        <ele>404</ele>
        <time>2021-03-21T12:03:45Z</time>
      </trkpt>
      <trkpt lat="43.0376" lon="2.35265">
        <ele>403.3</ele>
        <time>2021-03-21T12:03:47Z</time>
      </trkpt>
      <trkpt lat="43.03759" lon="2.35252">
        <ele>402.9</ele>
        <time>2021-03-21T12:03:48Z</time>
      </trkpt>
      <trkpt lat="43.03752" lon="2.35229">
        <ele>402.2</ele>
        <time>2021-03-21T12:03:50Z</time>
      </trkpt>
      <trkpt lat="43.03748" lon="2.35219">
        <ele>401.9</ele>
        <time>2021-03-21T12:03:51Z</time>
      </trkpt>
      <trkpt lat="43.03744" lon="2.35209">
        <ele>401.5</ele>
        <time>2021-03-21T12:03:52Z</time>
      </trkpt>
      <trkpt lat="43.03738" lon="2.35189">
        <ele>400.9</ele>
        <time>2021-03-21T12:03:54Z</time>
      </trkpt>
      <trkpt lat="43.03738" lon="2.35168">
        <ele>400.3</ele>
        <time>2021-03-21T12:03:56Z</time>
      </trkpt>
      <trkpt lat="43.03741" lon="2.35157">
        <ele>400</ele>
        <time>2021-03-21T12:03:57Z</time>
      </trkpt>
      <trkpt lat="43.03748" lon="2.35135">
        <ele>399.3</ele>
        <time>2021-03-21T12:03:59Z</time>
      </trkpt>
      <trkpt lat="43.03752" lon="2.35124">
        <ele>399</ele>
        <time>2021-03-21T12:04:00Z</time>
      </trkpt>
      <trkpt lat="43.03756" lon="2.35113">
        <ele>398.6</ele>
        <time>2021-03-21T12:04:01Z</time>
      </trkpt>
      <trkpt lat="43.0376" lon="2.35102">
        <ele>398.3</ele>
        <time>2021-03-21T12:04:02Z</time>
      </trkpt>
      <trkpt lat="43.03766" lon="2.35079">
        <ele>397.6</ele>
        <time>2021-03-21T12:04:04Z</time>
      </trkpt>
      <trkpt lat="43.03767" lon="2.35056">
        <ele>397</ele>
        <time>2021-03-21T12:04:06Z</time>
      </trkpt>
      <trkpt lat="43.03764" lon="2.35045">
        <ele>396.7</ele>
        <time>2021-03-21T12:04:07Z</time>
      </trkpt>
      <trkpt lat="43.03759" lon="2.35034">
        <ele>396.4</ele>
        <time>2021-03-21T12:04:08Z</time>
      </trkpt>
      <trkpt lat="43.03744" lon="2.3502">
        <ele>395.7</ele>
        <time>2021-03-21T12:04:10Z</time>
      </trkpt>
      <trkpt lat="43.03726" lon="2.35013">
        <ele>395.1</ele>
        <time>2021-03-21T12:04:12Z</time>
      </trkpt>
      <trkpt lat="43.03716" lon="2.35009">
        <ele>394.7</ele>
        <time>2021-03-21T12:04:13Z</time>
      </trkpt>
      <trkpt lat="43.03699" lon="2.35002">
        <ele>394.1</ele>
        <time>2021-03-21T12:04:15Z</time>
      </trkpt>
      <trkpt lat="43.03691" lon="2.34998">
        <ele>393.7</ele>
        <time>2021-03-21T12:04:16Z</time>
      </trkpt>
      <trkpt lat="43.03674" lon="2.3499">
        <ele>393.2</ele>
        <time>2021-03-21T12:04:18Z</time>
      </trkpt>
      <trkpt lat="43.03657" lon="2.34978">
        <ele>392.6</ele>
        <time>2021-03-21T12:04:20Z</time>
      </trkpt>
      <trkpt lat="43.03645" lon="2.34962">
        <ele>392</ele>
        <time>2021-03-21T12:04:22Z</time>
      </trkpt>
      <trkpt lat="43.03641" lon="2.34952">
        <ele>391.7</ele>
        <time>2021-03-21T12:04:23Z</time>
      </trkpt>
      <trkpt lat="43.03637" lon="2.34941">
        <ele>391.4</ele>
        <time>2021-03-21T12:04:24Z</time>
      </trkpt>
      <trkpt lat="43.03634" lon="2.34919">
        <ele>390.8</ele>
        <time>2021-03-21T12:04:26Z</time>
      </trkpt>
      <trkpt lat="43.03636" lon="2.34897">
        <ele>390.2</ele>
        <time>2021-03-21T12:04:28Z</time>
      </trkpt>
      <trkpt lat="43.03643" lon="2.34876">
        <ele>389.5</ele>
        <time>2021-03-21T12:04:30Z</time>
      </trkpt>
      <trkpt lat="43.03653" lon="2.34858">
        <ele>388.8</ele>
        <time>2021-03-21T12:04:32Z</time>
      </trkpt>
      <trkpt lat="43.0366" lon="2.34851">
        <ele>388.5</ele>
        <time>2021-03-21T12:04:33Z</time>
      </trkpt>
      <trkpt lat="43.03676" lon="2.34842">
        <ele>387.9</ele>
        <time>2021-03-21T12:04:35Z</time>
      </trkpt>
      <trkpt lat="43.03685" lon="2.3484">
        <ele>387.6</ele>
        <time>2021-03-21T12:04:36Z</time>
      </trkpt>
      <trkpt lat="43.03701" lon="2.34841">
        <ele>387</ele>
        <time>2021-03-21T12:04:38Z</time>
      </trkpt>
      <trkpt lat="43.03718" lon="2.34841">
        <ele>386.4</ele>
        <time>2021-03-21T12:04:40Z</time>
      </trkpt>
      <trkpt lat="43.03726" lon="2.34839">
        <ele>386.1</ele>
        <time>2021-03-21T12:04:41Z</time>
      </trkpt>
      <trkpt lat="43.03734" lon="2.34835">
        <ele>385.9</ele>
        <time>2021-03-21T12:04:42Z</time>
      </trkpt>
      <trkpt lat="43.0374" lon="2.34828">
        <ele>385.6</ele>
        <time>2021-03-21T12:04:43Z</time>
      </trkpt>
      <trkpt lat="43.0375" lon="2.34806">
        <ele>385</ele>
        <time>2021-03-21T12:04:45Z</time>
      </trkpt>
      <trkpt lat="43.03752" lon="2.3478">
        <ele>384.3</ele>
        <time>2021-03-21T12:04:47Z</time>
      </trkpt>
      <trkpt lat="43.03752" lon="2.34767">
        <ele>384</ele>
        <time>2021-03-21T12:04:48Z</time>
      </trkpt>
      <trkpt lat="43.03751" lon="2.34753">
        <ele>383.6</ele>
        <time>2021-03-21T12:04:49Z</time>
      </trkpt>
      <trkpt lat="43.03747" lon="2.34727">
        <ele>382.9</ele>
        <time>2021-03-21T12:04:51Z</time>
      </trkpt>
      <trkpt lat="43.03744" lon="2.34715">
        <ele>382.6</ele>
        <time>2021-03-21T12:04:52Z</time>
      </trkpt>
      <trkpt lat="43.03741" lon="2.34702">
        <ele>382.2</ele>
        <time>2021-03-21T12:04:53Z</time>
      </trkpt>
      <trkpt lat="43.03736" lon="2.34678">
        <ele>381.7</ele>
        <time>2021-03-21T12:04:55Z</time>
      </trkpt>
      <trkpt lat="43.03733" lon="2.34666">
        <ele>381.4</ele>
        <time>2021-03-21T12:04:56Z</time>
      </trkpt>
      <trkpt lat="43.03729" lon="2.34655">
        <ele>381.1</ele>
        <time>2021-03-21T12:04:57Z</time>
      </trkpt>
      <trkpt lat="43.03719" lon="2.34637">
        <ele>380.5</ele>
        <time>2021-03-21T12:04:59Z</time>
      </trkpt>
      <trkpt lat="43.03711" lon="2.3463">
        <ele>380.1</ele>
        <time>2021-03-21T12:05:00Z</time>
      </trkpt>
      <trkpt lat="43.03694" lon="2.34622">
        <ele>379.5</ele>
        <time>2021-03-21T12:05:02Z</time>
      </trkpt>
      <trkpt lat="43.03685" lon="2.34619">
        <ele>379.2</ele>
        <time>2021-03-21T12:05:03Z</time>
      </trkpt>
      <trkpt lat="43.03669" lon="2.34608">
        <ele>378.5</ele>
        <time>2021-03-21T12:05:05Z</time>
      </trkpt>
      <trkpt lat="43.03664" lon="2.34599">
        <ele>378.1</ele>
        <time>2021-03-21T12:05:06Z</time>
      </trkpt>
      <trkpt lat="43.03658" lon="2.34578">
        <ele>377.4</ele>
        <time>2021-03-21T12:05:08Z</time>
      </trkpt>
      <trkpt lat="43.0366" lon="2.34556">
        <ele>376.7</ele>
        <time>2021-03-21T12:05:10Z</time>
      </trkpt>
      <trkpt lat="43.03662" lon="2.34545">
        <ele>376.3</ele>
        <time>2021-03-21T12:05:11Z</time>
      </trkpt>
      <trkpt lat="43.03668" lon="2.34525">
        <ele>375.6</ele>
        <time>2021-03-21T12:05:13Z</time>
      </trkpt>
      <trkpt lat="43.03671" lon="2.34515">
        <ele>375.3</ele>
        <time>2021-03-21T12:05:14Z</time>
      </trkpt>
      <trkpt lat="43.03677" lon="2.34496">
        <ele>374.6</ele>
        <time>2021-03-21T12:05:16Z</time>
      </trkpt>
      <trkpt lat="43.03685" lon="2.34478">
        <ele>373.9</ele>
        <time>2021-03-21T12:05:18Z</time>
      </trkpt>
      <trkpt lat="43.03693" lon="2.34461">
        <ele>373.3</ele>
        <time>2021-03-21T12:05:20Z</time>
      </trkpt>
      <trkpt lat="43.03698" lon="2.34452">
        <ele>373</ele>
        <time>2021-03-21T12:05:21Z</time>
      </trkpt>
      <trkpt lat="43.03708" lon="2.34436">
        <ele>372.4</ele>
        <time>2021-03-21T12:05:23Z</time>
      </trkpt>
      <trkpt lat="43.03717" lon="2.34418">
        <ele>371.7</ele>
        <time>2021-03-21T12:05:25Z</time>
      </trkpt>
      <trkpt lat="43.03722" lon="2.34408">
        <ele>371.4</ele>
        <time>2021-03-21T12:05:26Z</time>
      </trkpt>
      <trkpt lat="43.0373" lon="2.34389">
        <ele>370.7</ele>
        <time>2021-03-21T12:05:28Z</time>
      </trkpt>
      <trkpt lat="43.03735" lon="2.34381">
        <ele>370.4</ele>
        <time>2021-03-21T12:05:29Z</time>
      </trkpt>
      <trkpt lat="43.03748" lon="2.34368">
        <ele>369.7</ele>
        <time>2021-03-21T12:05:31Z</time>
      </trkpt>
      <trkpt lat="43.03755" lon="2.34363">
        <ele>369.4</ele>
        <time>2021-03-21T12:05:32Z</time>
      </trkpt>
      <trkpt lat="43.03763" lon="2.3436">
        <ele>369.1</ele>
        <time>2021-03-21T12:05:33Z</time>
      </trkpt>
      <trkpt lat="43.03771" lon="2.34356">
        <ele>368.7</ele>
        <time>2021-03-21T12:05:34Z</time>
      </trkpt>
      <trkpt lat="43.03779" lon="2.34352">
        <ele>368.4</ele>
        <time>2021-03-21T12:05:35Z</time>
      </trkpt>
      <trkpt lat="43.03793" lon="2.3434">
        <ele>367.8</ele>
        <time>2021-03-21T12:05:37Z</time>
      </trkpt>
      <trkpt lat="43.03798" lon="2.34317">
        <ele>367.2</ele>
        <time>2021-03-21T12:05:39Z</time>
      </trkpt>
      <trkpt lat="43.03794" lon="2.34305">
        <ele>366.7</ele>
        <time>2021-03-21T12:05:40Z</time>
      </trkpt>
      <trkpt lat="43.03779" lon="2.34286">
        <ele>365.7</ele>
        <time>2021-03-21T12:05:42Z</time>
      </trkpt>
      <trkpt lat="43.03763" lon="2.34276">
        <ele>365</ele>
        <time>2021-03-21T12:05:44Z</time>
      </trkpt>
      <trkpt lat="43.0375" lon="2.34262">
        <ele>364.3</ele>
        <time>2021-03-21T12:05:46Z</time>
      </trkpt>
      <trkpt lat="43.03746" lon="2.34252">
        <ele>364</ele>
        <time>2021-03-21T12:05:47Z</time>
      </trkpt>
      <trkpt lat="43.03749" lon="2.3423">
        <ele>363.7</ele>
        <time>2021-03-21T12:05:49Z</time>
      </trkpt>
      <trkpt lat="43.03756" lon="2.34208">
        <ele>363.5</ele>
        <time>2021-03-21T12:05:51Z</time>
      </trkpt>
      <trkpt lat="43.03756" lon="2.34196">
        <ele>363.6</ele>
        <time>2021-03-21T12:05:52Z</time>
      </trkpt>
      <trkpt lat="43.03755" lon="2.34185">
        <ele>363.7</ele>
        <time>2021-03-21T12:05:53Z</time>
      </trkpt>
      <trkpt lat="43.03754" lon="2.34164">
        <ele>364.2</ele>
        <time>2021-03-21T12:05:55Z</time>
      </trkpt>
      <trkpt lat="43.03755" lon="2.34147">
        <ele>364.6</ele>
        <time>2021-03-21T12:05:57Z</time>
      </trkpt>
      <trkpt lat="43.03757" lon="2.34139">
        <ele>364.8</ele>
        <time>2021-03-21T12:05:58Z</time>
      </trkpt>
      <trkpt lat="43.03761" lon="2.34125">
        <ele>365.1</ele>
        <time>2021-03-21T12:06:00Z</time>
      </trkpt>
      <trkpt lat="43.03763" lon="2.34118">
        <ele>365.3</ele>
        <time>2021-03-21T12:06:01Z</time>
      </trkpt>
      <trkpt lat="43.03767" lon="2.34103">
        <ele>365.8</ele>
        <time>2021-03-21T12:06:03Z</time>
      </trkpt>
      <trkpt lat="43.03769" lon="2.34096">
        <ele>366.1</ele>
        <time>2021-03-21T12:06:04Z</time>
      </trkpt>
      <trkpt lat="43.03771" lon="2.34088">
        <ele>366.3</ele>
        <time>2021-03-21T12:06:05Z</time>
      </trkpt>
      <trkpt lat="43.03772" lon="2.34082">
        <ele>366.6</ele>
        <time>2021-03-21T12:06:06Z</time>
      </trkpt>
      <trkpt lat="43.03775" lon="2.34068">
        <ele>367.2</ele>
        <time>2021-03-21T12:06:08Z</time>
      </trkpt>
      <trkpt lat="43.03778" lon="2.34062">
        <ele>367.4</ele>
        <time>2021-03-21T12:06:09Z</time>
      </trkpt>
      <trkpt lat="43.03785" lon="2.34054">
        <ele>367.7</ele>
        <time>2021-03-21T12:06:11Z</time>
      </trkpt>
      <trkpt lat="43.0379" lon="2.34053">
        <ele>367.9</ele>
        <time>2021-03-21T12:06:12Z</time>
      </trkpt>
      <trkpt lat="43.03799" lon="2.34054">
        <ele>368.3</ele>
        <time>2021-03-21T12:06:14Z</time>
      </trkpt>
      <trkpt lat="43.03804" lon="2.34055">
        <ele>368.5</ele>
        <time>2021-03-21T12:06:15Z</time>
      </trkpt>
      <trkpt lat="43.03808" lon="2.34057">
        <ele>368.7</ele>
        <time>2021-03-21T12:06:16Z</time>
      </trkpt>
      <trkpt lat="43.03813" lon="2.34058">
        <ele>368.8</ele>
        <time>2021-03-21T12:06:17Z</time>
      </trkpt>
      <trkpt lat="43.03822" lon="2.3406">
        <ele>369.2</ele>
        <time>2021-03-21T12:06:19Z</time>
      </trkpt>
      <trkpt lat="43.03826" lon="2.3406">
        <ele>369.4</ele>
        <time>2021-03-21T12:06:20Z</time>
      </trkpt>
      <trkpt lat="43.03836" lon="2.34061">
        <ele>369.8</ele>
        <time>2021-03-21T12:06:22Z</time>
      </trkpt>
      <trkpt lat="43.03843" lon="2.34061">
        <ele>370.1</ele>
        <time>2021-03-21T12:06:24Z</time>
      </trkpt>
      <trkpt lat="43.0384" lon="2.34062">
        <ele>370.3</ele>
        <time>2021-03-21T12:06:25Z</time>
      </trkpt>
      <trkpt lat="43.03844" lon="2.34062">
        <ele>370.5</ele>
        <time>2021-03-21T12:06:26Z</time>
      </trkpt>
      <trkpt lat="43.03846" lon="2.34063">
        <ele>370.6</ele>
        <time>2021-03-21T12:06:27Z</time>
      </trkpt>
      <trkpt lat="43.03854" lon="2.34063">
        <ele>371</ele>
        <time>2021-03-21T12:06:29Z</time>
      </trkpt>
      <trkpt lat="43.03861" lon="2.34064">
        <ele>371.4</ele>
        <time>2021-03-21T12:06:30Z</time>
      </trkpt>
      <trkpt lat="43.03866" lon="2.34066">
        <ele>371.6</ele>
        <time>2021-03-21T12:06:31Z</time>
      </trkpt>
      <trkpt lat="43.03875" lon="2.34071">
        <ele>372.2</ele>
        <time>2021-03-21T12:06:33Z</time>
      </trkpt>
      <trkpt lat="43.03879" lon="2.34075">
        <ele>372.6</ele>
        <time>2021-03-21T12:06:34Z</time>
      </trkpt>
      <trkpt lat="43.03883" lon="2.3408">
        <ele>372.9</ele>
        <time>2021-03-21T12:06:36Z</time>
      </trkpt>
      <trkpt lat="43.03885" lon="2.34086">
        <ele>373.1</ele>
        <time>2021-03-21T12:06:37Z</time>
      </trkpt>
      <trkpt lat="43.0389" lon="2.34098">
        <ele>373.4</ele>
        <time>2021-03-21T12:06:38Z</time>
      </trkpt>
      <trkpt lat="43.03892" lon="2.34101">
        <ele>373.6</ele>
        <time>2021-03-21T12:06:39Z</time>
      </trkpt>
      <trkpt lat="43.03894" lon="2.34106">
        <ele>373.7</ele>
        <time>2021-03-21T12:06:40Z</time>
      </trkpt>
      <trkpt lat="43.03895" lon="2.34112">
        <ele>373.9</ele>
        <time>2021-03-21T12:06:41Z</time>
      </trkpt>
      <trkpt lat="43.03897" lon="2.34121">
        <ele>374.1</ele>
        <time>2021-03-21T12:06:43Z</time>
      </trkpt>
      <trkpt lat="43.03899" lon="2.34128">
        <ele>374.3</ele>
        <time>2021-03-21T12:06:44Z</time>
      </trkpt>
      <trkpt lat="43.03901" lon="2.34134">
        <ele>374.5</ele>
        <time>2021-03-21T12:06:45Z</time>
      </trkpt>
      <trkpt lat="43.03904" lon="2.3414">
        <ele>374.8</ele>
        <time>2021-03-21T12:06:46Z</time>
      </trkpt>
      <trkpt lat="43.03907" lon="2.34145">
        <ele>375</ele>
        <time>2021-03-21T12:06:47Z</time>
      </trkpt>
      <trkpt lat="43.03912" lon="2.34154">
        <ele>375.5</ele>
        <time>2021-03-21T12:06:49Z</time>
      </trkpt>
      <trkpt lat="43.03915" lon="2.34159">
        <ele>375.7</ele>
        <time>2021-03-21T12:06:50Z</time>
      </trkpt>
      <trkpt lat="43.03917" lon="2.34164">
        <ele>376</ele>
        <time>2021-03-21T12:06:51Z</time>
      </trkpt>
      <trkpt lat="43.03919" lon="2.34173">
        <ele>376.3</ele>
        <time>2021-03-21T12:06:53Z</time>
      </trkpt>
      <trkpt lat="43.03921" lon="2.3418">
        <ele>376.6</ele>
        <time>2021-03-21T12:06:54Z</time>
      </trkpt>
      <trkpt lat="43.03924" lon="2.34189">
        <ele>376.9</ele>
        <time>2021-03-21T12:06:56Z</time>
      </trkpt>
      <trkpt lat="43.03928" lon="2.342">
        <ele>377.4</ele>
        <time>2021-03-21T12:06:57Z</time>
      </trkpt>
      <trkpt lat="43.03932" lon="2.34211">
        <ele>377.8</ele>
        <time>2021-03-21T12:06:59Z</time>
      </trkpt>
      <trkpt lat="43.03936" lon="2.34218">
        <ele>378.1</ele>
        <time>2021-03-21T12:07:01Z</time>
      </trkpt>
      <trkpt lat="43.03939" lon="2.34223">
        <ele>378.3</ele>
        <time>2021-03-21T12:07:02Z</time>
      </trkpt>
      <trkpt lat="43.03944" lon="2.3423">
        <ele>378.6</ele>
        <time>2021-03-21T12:07:03Z</time>
      </trkpt>
      <trkpt lat="43.03947" lon="2.34234">
        <ele>378.8</ele>
        <time>2021-03-21T12:07:04Z</time>
      </trkpt>
      <trkpt lat="43.03953" lon="2.34242">
        <ele>379.2</ele>
        <time>2021-03-21T12:07:06Z</time>
      </trkpt>
      <trkpt lat="43.03957" lon="2.34247">
        <ele>379.4</ele>
        <time>2021-03-21T12:07:08Z</time>
      </trkpt>
      <trkpt lat="43.03962" lon="2.34253">
        <ele>379.7</ele>
        <time>2021-03-21T12:07:09Z</time>
      </trkpt>
      <trkpt lat="43.03965" lon="2.34257">
        <ele>379.9</ele>
        <time>2021-03-21T12:07:10Z</time>
      </trkpt>
      <trkpt lat="43.03968" lon="2.34261">
        <ele>380.1</ele>
        <time>2021-03-21T12:07:11Z</time>
      </trkpt>
      <trkpt lat="43.03971" lon="2.34267">
        <ele>380.4</ele>
        <time>2021-03-21T12:07:13Z</time>
      </trkpt>
      <trkpt lat="43.03974" lon="2.3427">
        <ele>380.5</ele>
        <time>2021-03-21T12:07:14Z</time>
      </trkpt>
      <trkpt lat="43.03976" lon="2.34274">
        <ele>380.7</ele>
        <time>2021-03-21T12:07:15Z</time>
      </trkpt>
      <trkpt lat="43.0398" lon="2.34279">
        <ele>381</ele>
        <time>2021-03-21T12:07:17Z</time>
      </trkpt>
      <trkpt lat="43.03986" lon="2.3429">
        <ele>381.6</ele>
        <time>2021-03-21T12:07:18Z</time>
      </trkpt>
      <trkpt lat="43.03989" lon="2.34294">
        <ele>381.8</ele>
        <time>2021-03-21T12:07:19Z</time>
      </trkpt>
      <trkpt lat="43.03994" lon="2.34301">
        <ele>382.3</ele>
        <time>2021-03-21T12:07:21Z</time>
      </trkpt>
      <trkpt lat="43.03997" lon="2.34306">
        <ele>382.6</ele>
        <time>2021-03-21T12:07:22Z</time>
      </trkpt>
      <trkpt lat="43.04002" lon="2.34312">
        <ele>382.9</ele>
        <time>2021-03-21T12:07:24Z</time>
      </trkpt>
      <trkpt lat="43.04008" lon="2.34316">
        <ele>383.2</ele>
        <time>2021-03-21T12:07:25Z</time>
      </trkpt>
      <trkpt lat="43.04013" lon="2.34318">
        <ele>383.4</ele>
        <time>2021-03-21T12:07:26Z</time>
      </trkpt>
      <trkpt lat="43.04018" lon="2.34317">
        <ele>383.7</ele>
        <time>2021-03-21T12:07:28Z</time>
      </trkpt>
      <trkpt lat="43.04024" lon="2.34314">
        <ele>383.9</ele>
        <time>2021-03-21T12:07:29Z</time>
      </trkpt>
      <trkpt lat="43.04028" lon="2.34311">
        <ele>384.1</ele>
        <time>2021-03-21T12:07:30Z</time>
      </trkpt>
      <trkpt lat="43.04032" lon="2.34308">
        <ele>384.3</ele>
        <time>2021-03-21T12:07:31Z</time>
      </trkpt>
      <trkpt lat="43.04038" lon="2.343">
        <ele>384.6</ele>
        <time>2021-03-21T12:07:33Z</time>
      </trkpt>
      <trkpt lat="43.04041" lon="2.34296">
        <ele>384.8</ele>
        <time>2021-03-21T12:07:34Z</time>
      </trkpt>
      <trkpt lat="43.04044" lon="2.34292">
        <ele>385</ele>
        <time>2021-03-21T12:07:35Z</time>
      </trkpt>
      <trkpt lat="43.04048" lon="2.34286">
        <ele>385.2</ele>
        <time>2021-03-21T12:07:37Z</time>
      </trkpt>
      <trkpt lat="43.04051" lon="2.34281">
        <ele>385.4</ele>
        <time>2021-03-21T12:07:38Z</time>
      </trkpt>
      <trkpt lat="43.04054" lon="2.34276">
        <ele>385.6</ele>
        <time>2021-03-21T12:07:39Z</time>
      </trkpt>
      <trkpt lat="43.0406" lon="2.34266">
        <ele>386</ele>
        <time>2021-03-21T12:07:41Z</time>
      </trkpt>
      <trkpt lat="43.04065" lon="2.3426">
        <ele>386.3</ele>
        <time>2021-03-21T12:07:43Z</time>
      </trkpt>
      <trkpt lat="43.04069" lon="2.34255">
        <ele>386.5</ele>
        <time>2021-03-21T12:07:44Z</time>
      </trkpt>
      <trkpt lat="43.04072" lon="2.3425">
        <ele>386.7</ele>
        <time>2021-03-21T12:07:45Z</time>
      </trkpt>
      <trkpt lat="43.04076" lon="2.34243">
        <ele>387</ele>
        <time>2021-03-21T12:07:47Z</time>
      </trkpt>
      <trkpt lat="43.04081" lon="2.34238">
        <ele>387.3</ele>
        <time>2021-03-21T12:07:49Z</time>
      </trkpt>
      <trkpt lat="43.04086" lon="2.34234">
        <ele>387.5</ele>
        <time>2021-03-21T12:07:50Z</time>
      </trkpt>
      <trkpt lat="43.04091" lon="2.34231">
        <ele>387.8</ele>
        <time>2021-03-21T12:07:51Z</time>
      </trkpt>
      <trkpt lat="43.04098" lon="2.34229">
        <ele>388.1</ele>
        <time>2021-03-21T12:07:53Z</time>
      </trkpt>
      <trkpt lat="43.04103" lon="2.34228">
        <ele>388.3</ele>
        <time>2021-03-21T12:07:54Z</time>
      </trkpt>
      <trkpt lat="43.04107" lon="2.34227">
        <ele>388.5</ele>
        <time>2021-03-21T12:07:55Z</time>
      </trkpt>
      <trkpt lat="43.04113" lon="2.34226">
        <ele>388.7</ele>
        <time>2021-03-21T12:07:56Z</time>
      </trkpt>
      <trkpt lat="43.04118" lon="2.34225">
        <ele>389</ele>
        <time>2021-03-21T12:07:58Z</time>
      </trkpt>
      <trkpt lat="43.04122" lon="2.34224">
        <ele>389.2</ele>
        <time>2021-03-21T12:07:59Z</time>
      </trkpt>
      <trkpt lat="43.04126" lon="2.34223">
        <ele>389.4</ele>
        <time>2021-03-21T12:08:00Z</time>
      </trkpt>
      <trkpt lat="43.0413" lon="2.34221">
        <ele>389.5</ele>
        <time>2021-03-21T12:08:01Z</time>
      </trkpt>
      <trkpt lat="43.04134" lon="2.34217">
        <ele>389.8</ele>
        <time>2021-03-21T12:08:03Z</time>
      </trkpt>
      <trkpt lat="43.04139" lon="2.34213">
        <ele>390</ele>
        <time>2021-03-21T12:08:04Z</time>
      </trkpt>
      <trkpt lat="43.04143" lon="2.34208">
        <ele>390.3</ele>
        <time>2021-03-21T12:08:05Z</time>
      </trkpt>
      <trkpt lat="43.04148" lon="2.34201">
        <ele>390.6</ele>
        <time>2021-03-21T12:08:06Z</time>
      </trkpt>
      <trkpt lat="43.04154" lon="2.34189">
        <ele>391.1</ele>
        <time>2021-03-21T12:08:08Z</time>
      </trkpt>
      <trkpt lat="43.04157" lon="2.34184">
        <ele>391.3</ele>
        <time>2021-03-21T12:08:09Z</time>
      </trkpt>
      <trkpt lat="43.0416" lon="2.34172">
        <ele>391.7</ele>
        <time>2021-03-21T12:08:11Z</time>
      </trkpt>
      <trkpt lat="43.04156" lon="2.34164">
        <ele>392.1</ele>
        <time>2021-03-21T12:08:13Z</time>
      </trkpt>
      <trkpt lat="43.04158" lon="2.34156">
        <ele>392.3</ele>
        <time>2021-03-21T12:08:14Z</time>
      </trkpt>
      <trkpt lat="43.0416" lon="2.34147">
        <ele>392.7</ele>
        <time>2021-03-21T12:08:16Z</time>
      </trkpt>
      <trkpt lat="43.0416" lon="2.34141">
        <ele>392.9</ele>
        <time>2021-03-21T12:08:17Z</time>
      </trkpt>
      <trkpt lat="43.0416" lon="2.34135">
        <ele>393.1</ele>
        <time>2021-03-21T12:08:18Z</time>
      </trkpt>
      <trkpt lat="43.04159" lon="2.34128">
        <ele>393.3</ele>
        <time>2021-03-21T12:08:20Z</time>
      </trkpt>
      <trkpt lat="43.04159" lon="2.34121">
        <ele>393.5</ele>
        <time>2021-03-21T12:08:21Z</time>
      </trkpt>
      <trkpt lat="43.04158" lon="2.34115">
        <ele>393.7</ele>
        <time>2021-03-21T12:08:22Z</time>
      </trkpt>
      <trkpt lat="43.04159" lon="2.34107">
        <ele>394</ele>
        <time>2021-03-21T12:08:24Z</time>
      </trkpt>
      <trkpt lat="43.0416" lon="2.34098">
        <ele>394.3</ele>
        <time>2021-03-21T12:08:25Z</time>
      </trkpt>
      <trkpt lat="43.04164" lon="2.34091">
        <ele>394.6</ele>
        <time>2021-03-21T12:08:26Z</time>
      </trkpt>
      <trkpt lat="43.04169" lon="2.34084">
        <ele>394.9</ele>
        <time>2021-03-21T12:08:28Z</time>
      </trkpt>
      <trkpt lat="43.04175" lon="2.34079">
        <ele>395.2</ele>
        <time>2021-03-21T12:08:30Z</time>
      </trkpt>
      <trkpt lat="43.04179" lon="2.34076">
        <ele>395.4</ele>
        <time>2021-03-21T12:08:31Z</time>
      </trkpt>
      <trkpt lat="43.04183" lon="2.34073">
        <ele>395.6</ele>
        <time>2021-03-21T12:08:32Z</time>
      </trkpt>
      <trkpt lat="43.04187" lon="2.34069">
        <ele>395.8</ele>
        <time>2021-03-21T12:08:33Z</time>
      </trkpt>
      <trkpt lat="43.04191" lon="2.34064">
        <ele>396.1</ele>
        <time>2021-03-21T12:08:34Z</time>
      </trkpt>
      <trkpt lat="43.04195" lon="2.34056">
        <ele>396.4</ele>
        <time>2021-03-21T12:08:35Z</time>
      </trkpt>
      <trkpt lat="43.04198" lon="2.34049">
        <ele>396.7</ele>
        <time>2021-03-21T12:08:36Z</time>
      </trkpt>
      <trkpt lat="43.04203" lon="2.34036">
        <ele>397.2</ele>
        <time>2021-03-21T12:08:38Z</time>
      </trkpt>
      <trkpt lat="43.04205" lon="2.3403">
        <ele>397.4</ele>
        <time>2021-03-21T12:08:39Z</time>
      </trkpt>
      <trkpt lat="43.04206" lon="2.34023">
        <ele>397.6</ele>
        <time>2021-03-21T12:08:41Z</time>
      </trkpt>
      <trkpt lat="43.04207" lon="2.34016">
        <ele>397.9</ele>
        <time>2021-03-21T12:08:42Z</time>
      </trkpt>
      <trkpt lat="43.0421" lon="2.3401">
        <ele>398.1</ele>
        <time>2021-03-21T12:08:43Z</time>
      </trkpt>
      <trkpt lat="43.04211" lon="2.34006">
        <ele>398.3</ele>
        <time>2021-03-21T12:08:44Z</time>
      </trkpt>
      <trkpt lat="43.04213" lon="2.34">
        <ele>398.5</ele>
        <time>2021-03-21T12:08:46Z</time>
      </trkpt>
      <trkpt lat="43.04214" lon="2.33994">
        <ele>398.6</ele>
        <time>2021-03-21T12:08:47Z</time>
      </trkpt>
      <trkpt lat="43.04216" lon="2.33984">
        <ele>399</ele>
        <time>2021-03-21T12:08:48Z</time>
      </trkpt>
      <trkpt lat="43.04218" lon="2.3398">
        <ele>399.1</ele>
        <time>2021-03-21T12:08:49Z</time>
      </trkpt>
      <trkpt lat="43.04221" lon="2.33973">
        <ele>399.3</ele>
        <time>2021-03-21T12:08:51Z</time>
      </trkpt>
      <trkpt lat="43.04224" lon="2.33969">
        <ele>399.5</ele>
        <time>2021-03-21T12:08:52Z</time>
      </trkpt>
      <trkpt lat="43.04229" lon="2.33959">
        <ele>399.9</ele>
        <time>2021-03-21T12:08:53Z</time>
      </trkpt>
      <trkpt lat="43.04232" lon="2.33955">
        <ele>400.1</ele>
        <time>2021-03-21T12:08:54Z</time>
      </trkpt>
      <trkpt lat="43.04235" lon="2.33948">
        <ele>400.3</ele>
        <time>2021-03-21T12:08:55Z</time>
      </trkpt>
      <trkpt lat="43.0424" lon="2.33947">
        <ele>400.5</ele>
        <time>2021-03-21T12:08:57Z</time>
      </trkpt>
      <trkpt lat="43.04246" lon="2.33943">
        <ele>400.8</ele>
        <time>2021-03-21T12:08:58Z</time>
      </trkpt>
      <trkpt lat="43.0425" lon="2.33926">
        <ele>401.4</ele>
        <time>2021-03-21T12:09:00Z</time>
      </trkpt>
      <trkpt lat="43.04252" lon="2.33909">
        <ele>402</ele>
        <time>2021-03-21T12:09:02Z</time>
      </trkpt>
      <trkpt lat="43.04253" lon="2.33901">
        <ele>402.3</ele>
        <time>2021-03-21T12:09:03Z</time>
      </trkpt>
      <trkpt lat="43.04254" lon="2.33893">
        <ele>402.6</ele>
        <time>2021-03-21T12:09:04Z</time>
      </trkpt>
      <trkpt lat="43.04255" lon="2.33885">
        <ele>402.9</ele>
        <time>2021-03-21T12:09:05Z</time>
      </trkpt>
      <trkpt lat="43.04258" lon="2.33876">
        <ele>403.2</ele>
        <time>2021-03-21T12:09:07Z</time>
      </trkpt>
      <trkpt lat="43.0426" lon="2.33872">
        <ele>403.4</ele>
        <time>2021-03-21T12:09:09Z</time>
      </trkpt>
      <trkpt lat="43.04261" lon="2.33864">
        <ele>403.7</ele>
        <time>2021-03-21T12:09:10Z</time>
      </trkpt>
      <trkpt lat="43.04262" lon="2.33853">
        <ele>404</ele>
        <time>2021-03-21T12:09:11Z</time>
      </trkpt>
      <trkpt lat="43.04262" lon="2.33841">
        <ele>404.4</ele>
        <time>2021-03-21T12:09:13Z</time>
      </trkpt>
      <trkpt lat="43.04261" lon="2.33825">
        <ele>405</ele>
        <time>2021-03-21T12:09:14Z</time>
      </trkpt>
      <trkpt lat="43.04261" lon="2.33817">
        <ele>405.2</ele>
        <time>2021-03-21T12:09:15Z</time>
      </trkpt>
      <trkpt lat="43.0426" lon="2.33811">
        <ele>405.4</ele>
        <time>2021-03-21T12:09:16Z</time>
      </trkpt>
      <trkpt lat="43.04257" lon="2.338">
        <ele>405.7</ele>
        <time>2021-03-21T12:09:18Z</time>
      </trkpt>
      <trkpt lat="43.04259" lon="2.33795">
        <ele>405.9</ele>
        <time>2021-03-21T12:09:20Z</time>
      </trkpt>
      <trkpt lat="43.04257" lon="2.33786">
        <ele>406.1</ele>
        <time>2021-03-21T12:09:21Z</time>
      </trkpt>
      <trkpt lat="43.04254" lon="2.3378">
        <ele>406.4</ele>
        <time>2021-03-21T12:09:22Z</time>
      </trkpt>
      <trkpt lat="43.04243" lon="2.3377">
        <ele>406.9</ele>
        <time>2021-03-21T12:09:24Z</time>
      </trkpt>
      <trkpt lat="43.04233" lon="2.33762">
        <ele>407.4</ele>
        <time>2021-03-21T12:09:26Z</time>
      </trkpt>
      <trkpt lat="43.04224" lon="2.33753">
        <ele>407.9</ele>
        <time>2021-03-21T12:09:28Z</time>
      </trkpt>
      <trkpt lat="43.04221" lon="2.33749">
        <ele>408</ele>
        <time>2021-03-21T12:09:29Z</time>
      </trkpt>
      <trkpt lat="43.04222" lon="2.33745">
        <ele>408.2</ele>
        <time>2021-03-21T12:09:31Z</time>
      </trkpt>
      <trkpt lat="43.04222" lon="2.33743">
        <ele>408.2</ele>
        <time>2021-03-21T12:09:32Z</time>
      </trkpt>
      <trkpt lat="43.04219" lon="2.33736">
        <ele>408.5</ele>
        <time>2021-03-21T12:09:33Z</time>
      </trkpt>
      <trkpt lat="43.04212" lon="2.33723">
        <ele>409</ele>
        <time>2021-03-21T12:09:34Z</time>
      </trkpt>
      <trkpt lat="43.04208" lon="2.33707">
        <ele>409.6</ele>
        <time>2021-03-21T12:09:36Z</time>
      </trkpt>
      <trkpt lat="43.04209" lon="2.33692">
        <ele>410.1</ele>
        <time>2021-03-21T12:09:38Z</time>
      </trkpt>
      <trkpt lat="43.04208" lon="2.33684">
        <ele>410.4</ele>
        <time>2021-03-21T12:09:40Z</time>
      </trkpt>
      <trkpt lat="43.04208" lon="2.33681">
        <ele>410.5</ele>
        <time>2021-03-21T12:09:41Z</time>
      </trkpt>
      <trkpt lat="43.04209" lon="2.33679">
        <ele>410.5</ele>
        <time>2021-03-21T12:09:42Z</time>
      </trkpt>
      <trkpt lat="43.0421" lon="2.33671">
        <ele>410.8</ele>
        <time>2021-03-21T12:09:44Z</time>
      </trkpt>
      <trkpt lat="43.0421" lon="2.33663">
        <ele>411</ele>
        <time>2021-03-21T12:09:45Z</time>
      </trkpt>
      <trkpt lat="43.04211" lon="2.33651">
        <ele>411.4</ele>
        <time>2021-03-21T12:09:46Z</time>
      </trkpt>
      <trkpt lat="43.04211" lon="2.33645">
        <ele>411.6</ele>
        <time>2021-03-21T12:09:47Z</time>
      </trkpt>
      <trkpt lat="43.04211" lon="2.33639">
        <ele>411.8</ele>
        <time>2021-03-21T12:09:48Z</time>
      </trkpt>
      <trkpt lat="43.04211" lon="2.33631">
        <ele>412</ele>
        <time>2021-03-21T12:09:50Z</time>
      </trkpt>
      <trkpt lat="43.04211" lon="2.33622">
        <ele>412.3</ele>
        <time>2021-03-21T12:09:51Z</time>
      </trkpt>
      <trkpt lat="43.0421" lon="2.33614">
        <ele>412.5</ele>
        <time>2021-03-21T12:09:52Z</time>
      </trkpt>
      <trkpt lat="43.0421" lon="2.33607">
        <ele>412.7</ele>
        <time>2021-03-21T12:09:54Z</time>
      </trkpt>
      <trkpt lat="43.04209" lon="2.33599">
        <ele>413</ele>
        <time>2021-03-21T12:09:55Z</time>
      </trkpt>
      <trkpt lat="43.04207" lon="2.33593">
        <ele>413.2</ele>
        <time>2021-03-21T12:09:56Z</time>
      </trkpt>
      <trkpt lat="43.04204" lon="2.33585">
        <ele>413.5</ele>
        <time>2021-03-21T12:09:58Z</time>
      </trkpt>
      <trkpt lat="43.04202" lon="2.33577">
        <ele>413.8</ele>
        <time>2021-03-21T12:09:59Z</time>
      </trkpt>
      <trkpt lat="43.04201" lon="2.33569">
        <ele>414.1</ele>
        <time>2021-03-21T12:10:01Z</time>
      </trkpt>
      <trkpt lat="43.042" lon="2.33562">
        <ele>414.3</ele>
        <time>2021-03-21T12:10:02Z</time>
      </trkpt>
      <trkpt lat="43.04198" lon="2.33554">
        <ele>414.6</ele>
        <time>2021-03-21T12:10:03Z</time>
      </trkpt>
      <trkpt lat="43.04197" lon="2.33547">
        <ele>414.8</ele>
        <time>2021-03-21T12:10:04Z</time>
      </trkpt>
      <trkpt lat="43.04197" lon="2.3354">
        <ele>414.9</ele>
        <time>2021-03-21T12:10:06Z</time>
      </trkpt>
      <trkpt lat="43.04199" lon="2.33537">
        <ele>415</ele>
        <time>2021-03-21T12:10:07Z</time>
      </trkpt>
      <trkpt lat="43.042" lon="2.33534">
        <ele>415.1</ele>
        <time>2021-03-21T12:10:09Z</time>
      </trkpt>
      <trkpt lat="43.042" lon="2.33535">
        <ele>415.1</ele>
        <time>2021-03-21T12:10:10Z</time>
      </trkpt>
      <trkpt lat="43.04199" lon="2.33534">
        <ele>415.2</ele>
        <time>2021-03-21T12:10:12Z</time>
      </trkpt>
      <trkpt lat="43.04198" lon="2.33534">
        <ele>415.2</ele>
        <time>2021-03-21T12:10:13Z</time>
      </trkpt>
      <trkpt lat="43.04198" lon="2.33533">
        <ele>415.2</ele>
        <time>2021-03-21T12:10:14Z</time>
      </trkpt>
      <trkpt lat="43.04198" lon="2.33533">
        <ele>415.2</ele>
        <time>2021-03-21T12:10:15Z</time>
      </trkpt>
      <trkpt lat="43.04198" lon="2.33532">
        <ele>415.2</ele>
        <time>2021-03-21T12:10:16Z</time>
      </trkpt>
      <trkpt lat="43.04197" lon="2.33531">
        <ele>415.2</ele>
        <time>2021-03-21T12:10:17Z</time>
      </trkpt>
      <trkpt lat="43.04196" lon="2.33533">
        <ele>415.3</ele>
        <time>2021-03-21T12:10:19Z</time>
      </trkpt>
      <trkpt lat="43.04196" lon="2.33534">
        <ele>415.3</ele>
        <time>2021-03-21T12:10:20Z</time>
      </trkpt>
      <trkpt lat="43.04195" lon="2.33535">
        <ele>415.3</ele>
        <time>2021-03-21T12:10:21Z</time>
      </trkpt>
      <trkpt lat="43.04195" lon="2.33536">
        <ele>415.3</ele>
        <time>2021-03-21T12:10:23Z</time>
      </trkpt>
      <trkpt lat="43.04195" lon="2.33537">
        <ele>415.4</ele>
        <time>2021-03-21T12:10:24Z</time>
      </trkpt>
      <trkpt lat="43.04195" lon="2.33537">
        <ele>415.4</ele>
        <time>2021-03-21T12:10:26Z</time>
      </trkpt>
      <trkpt lat="43.04194" lon="2.33537">
        <ele>415.4</ele>
        <time>2021-03-21T12:10:27Z</time>
      </trkpt>
      <trkpt lat="43.04194" lon="2.33537">
        <ele>415.4</ele>
        <time>2021-03-21T12:10:29Z</time>
      </trkpt>
      <trkpt lat="43.04194" lon="2.33537">
        <ele>415.4</ele>
        <time>2021-03-21T12:10:30Z</time>
      </trkpt>
      <trkpt lat="43.04195" lon="2.3354">
        <ele>415.4</ele>
        <time>2021-03-21T12:11:05Z</time>
      </trkpt>
      <trkpt lat="43.04197" lon="2.33539">
        <ele>415.4</ele>
        <time>2021-03-21T12:11:07Z</time>
      </trkpt>
      <trkpt lat="43.04197" lon="2.3354">
        <ele>415.4</ele>
        <time>2021-03-21T12:11:08Z</time>
      </trkpt>
      <trkpt lat="43.04197" lon="2.3354">
        <ele>415.4</ele>
        <time>2021-03-21T12:11:09Z</time>
      </trkpt>
      <trkpt lat="43.04198" lon="2.33541">
        <ele>415.4</ele>
        <time>2021-03-21T12:11:10Z</time>
      </trkpt>
      <trkpt lat="43.04198" lon="2.33542">
        <ele>415.4</ele>
        <time>2021-03-21T12:11:12Z</time>
      </trkpt>
      <trkpt lat="43.04198" lon="2.33542">
        <ele>415.4</ele>
        <time>2021-03-21T12:11:14Z</time>
      </trkpt>
      <trkpt lat="43.04198" lon="2.33543">
        <ele>415.4</ele>
        <time>2021-03-21T12:11:17Z</time>
      </trkpt>
      <trkpt lat="43.04198" lon="2.33543">
        <ele>415.4</ele>
        <time>2021-03-21T12:11:18Z</time>
      </trkpt>
      <trkpt lat="43.04198" lon="2.33542">
        <ele>415.4</ele>
        <time>2021-03-21T12:11:20Z</time>
      </trkpt>
      <trkpt lat="43.04198" lon="2.33542">
        <ele>415.4</ele>
        <time>2021-03-21T12:11:21Z</time>
      </trkpt>
      <trkpt lat="43.04198" lon="2.33541">
        <ele>415.4</ele>
        <time>2021-03-21T12:11:22Z</time>
      </trkpt>
      <trkpt lat="43.04198" lon="2.33541">
        <ele>415.3</ele>
        <time>2021-03-21T12:11:24Z</time>
      </trkpt>
      <trkpt lat="43.04198" lon="2.33541">
        <ele>415.3</ele>
        <time>2021-03-21T12:11:26Z</time>
      </trkpt>
      <trkpt lat="43.04198" lon="2.33541">
        <ele>415.3</ele>
        <time>2021-03-21T12:11:27Z</time>
      </trkpt>
      <trkpt lat="43.04198" lon="2.33541">
        <ele>415.3</ele>
        <time>2021-03-21T12:11:28Z</time>
      </trkpt>
      <trkpt lat="43.04198" lon="2.33541">
        <ele>415.3</ele>
        <time>2021-03-21T12:11:29Z</time>
      </trkpt>
      <trkpt lat="43.04198" lon="2.33541">
        <ele>415.3</ele>
        <time>2021-03-21T12:11:32Z</time>
      </trkpt>
      <trkpt lat="43.04198" lon="2.33541">
        <ele>415.3</ele>
        <time>2021-03-21T12:11:33Z</time>
      </trkpt>
      <trkpt lat="43.04198" lon="2.33541">
        <ele>415.3</ele>
        <time>2021-03-21T12:11:35Z</time>
      </trkpt>
      <trkpt lat="43.04198" lon="2.33541">
        <ele>415.3</ele>
        <time>2021-03-21T12:11:36Z</time>
      </trkpt>
      <trkpt lat="43.04199" lon="2.33541">
        <ele>415.3</ele>
        <time>2021-03-21T12:11:38Z</time>
      </trkpt>
      <trkpt lat="43.04198" lon="2.33541">
        <ele>415.3</ele>
        <time>2021-03-21T12:11:40Z</time>
      </trkpt>
      <trkpt lat="43.04201" lon="2.3354">
        <ele>415.3</ele>
        <time>2021-03-21T12:12:04Z</time>
      </trkpt>
      <trkpt lat="43.04201" lon="2.33538">
        <ele>415.2</ele>
        <time>2021-03-21T12:12:05Z</time>
      </trkpt>
      <trkpt lat="43.04201" lon="2.33534">
        <ele>415.1</ele>
        <time>2021-03-21T12:12:07Z</time>
      </trkpt>
      <trkpt lat="43.04204" lon="2.33519">
        <ele>414.6</ele>
        <time>2021-03-21T12:12:08Z</time>
      </trkpt>
      <trkpt lat="43.04205" lon="2.33507">
        <ele>414.1</ele>
        <time>2021-03-21T12:12:10Z</time>
      </trkpt>
      <trkpt lat="43.04207" lon="2.3348">
        <ele>412.5</ele>
        <time>2021-03-21T12:12:12Z</time>
      </trkpt>
      <trkpt lat="43.0421" lon="2.33452">
        <ele>410.9</ele>
        <time>2021-03-21T12:12:14Z</time>
      </trkpt>
      <trkpt lat="43.04212" lon="2.33438">
        <ele>410</ele>
        <time>2021-03-21T12:12:15Z</time>
      </trkpt>
      <trkpt lat="43.04214" lon="2.3341">
        <ele>408.4</ele>
        <time>2021-03-21T12:12:17Z</time>
      </trkpt>
      <trkpt lat="43.04215" lon="2.33396">
        <ele>407.6</ele>
        <time>2021-03-21T12:12:18Z</time>
      </trkpt>
      <trkpt lat="43.04215" lon="2.33382">
        <ele>406.8</ele>
        <time>2021-03-21T12:12:19Z</time>
      </trkpt>
      <trkpt lat="43.04212" lon="2.33354">
        <ele>405.1</ele>
        <time>2021-03-21T12:12:21Z</time>
      </trkpt>
      <trkpt lat="43.0421" lon="2.3334">
        <ele>404.3</ele>
        <time>2021-03-21T12:12:22Z</time>
      </trkpt>
      <trkpt lat="43.04208" lon="2.33326">
        <ele>403.5</ele>
        <time>2021-03-21T12:12:23Z</time>
      </trkpt>
      <trkpt lat="43.04205" lon="2.33298">
        <ele>401.9</ele>
        <time>2021-03-21T12:12:25Z</time>
      </trkpt>
      <trkpt lat="43.04205" lon="2.33284">
        <ele>401</ele>
        <time>2021-03-21T12:12:26Z</time>
      </trkpt>
      <trkpt lat="43.04205" lon="2.33271">
        <ele>400.2</ele>
        <time>2021-03-21T12:12:27Z</time>
      </trkpt>
      <trkpt lat="43.04205" lon="2.33242">
        <ele>398.5</ele>
        <time>2021-03-21T12:12:29Z</time>
      </trkpt>
      <trkpt lat="43.04206" lon="2.33213">
        <ele>396.8</ele>
        <time>2021-03-21T12:12:31Z</time>
      </trkpt>
      <trkpt lat="43.04205" lon="2.33199">
        <ele>395.9</ele>
        <time>2021-03-21T12:12:32Z</time>
      </trkpt>
      <trkpt lat="43.04205" lon="2.33184">
        <ele>395</ele>
        <time>2021-03-21T12:12:33Z</time>
      </trkpt>
      <trkpt lat="43.04203" lon="2.33154">
        <ele>393.4</ele>
        <time>2021-03-21T12:12:35Z</time>
      </trkpt>
      <trkpt lat="43.04202" lon="2.33139">
        <ele>392.6</ele>
        <time>2021-03-21T12:12:36Z</time>
      </trkpt>
      <trkpt lat="43.04201" lon="2.33124">
        <ele>391.8</ele>
        <time>2021-03-21T12:12:37Z</time>
      </trkpt>
      <trkpt lat="43.04201" lon="2.3311">
        <ele>391</ele>
        <time>2021-03-21T12:12:38Z</time>
      </trkpt>
      <trkpt lat="43.04201" lon="2.33096">
        <ele>390.2</ele>
        <time>2021-03-21T12:12:39Z</time>
      </trkpt>
      <trkpt lat="43.0421" lon="2.33075">
        <ele>388.9</ele>
        <time>2021-03-21T12:12:41Z</time>
      </trkpt>
      <trkpt lat="43.04219" lon="2.3307">
        <ele>388.2</ele>
        <time>2021-03-21T12:12:42Z</time>
      </trkpt>
      <trkpt lat="43.04229" lon="2.33071">
        <ele>387.5</ele>
        <time>2021-03-21T12:12:43Z</time>
      </trkpt>
      <trkpt lat="43.04249" lon="2.33082">
        <ele>386.1</ele>
        <time>2021-03-21T12:12:45Z</time>
      </trkpt>
      <trkpt lat="43.0427" lon="2.3309">
        <ele>384.8</ele>
        <time>2021-03-21T12:12:47Z</time>
      </trkpt>
      <trkpt lat="43.04292" lon="2.33089">
        <ele>383.3</ele>
        <time>2021-03-21T12:12:49Z</time>
      </trkpt>
      <trkpt lat="43.04303" lon="2.33087">
        <ele>382.4</ele>
        <time>2021-03-21T12:12:50Z</time>
      </trkpt>
      <trkpt lat="43.04325" lon="2.33081">
        <ele>380.5</ele>
        <time>2021-03-21T12:12:52Z</time>
      </trkpt>
      <trkpt lat="43.04349" lon="2.33077">
        <ele>378.5</ele>
        <time>2021-03-21T12:12:54Z</time>
      </trkpt>
      <trkpt lat="43.04373" lon="2.33077">
        <ele>376.6</ele>
        <time>2021-03-21T12:12:56Z</time>
      </trkpt>
      <trkpt lat="43.04386" lon="2.33079">
        <ele>375.7</ele>
        <time>2021-03-21T12:12:57Z</time>
      </trkpt>
      <trkpt lat="43.04398" lon="2.3308">
        <ele>374.8</ele>
        <time>2021-03-21T12:12:58Z</time>
      </trkpt>
      <trkpt lat="43.04422" lon="2.33079">
        <ele>373.1</ele>
        <time>2021-03-21T12:13:00Z</time>
      </trkpt>
      <trkpt lat="43.04435" lon="2.33075">
        <ele>372.3</ele>
        <time>2021-03-21T12:13:01Z</time>
      </trkpt>
      <trkpt lat="43.04447" lon="2.33068">
        <ele>371.6</ele>
        <time>2021-03-21T12:13:02Z</time>
      </trkpt>
      <trkpt lat="43.04459" lon="2.33061">
        <ele>371.1</ele>
        <time>2021-03-21T12:13:03Z</time>
      </trkpt>
      <trkpt lat="43.04471" lon="2.33054">
        <ele>370.5</ele>
        <time>2021-03-21T12:13:04Z</time>
      </trkpt>
      <trkpt lat="43.04492" lon="2.33046">
        <ele>369</ele>
        <time>2021-03-21T12:13:06Z</time>
      </trkpt>
      <trkpt lat="43.04503" lon="2.33048">
        <ele>368</ele>
        <time>2021-03-21T12:13:07Z</time>
      </trkpt>
      <trkpt lat="43.04514" lon="2.33055">
        <ele>366.8</ele>
        <time>2021-03-21T12:13:08Z</time>
      </trkpt>
      <trkpt lat="43.04524" lon="2.33065">
        <ele>365.7</ele>
        <time>2021-03-21T12:13:09Z</time>
      </trkpt>
      <trkpt lat="43.04541" lon="2.33088">
        <ele>363.9</ele>
        <time>2021-03-21T12:13:11Z</time>
      </trkpt>
      <trkpt lat="43.0455" lon="2.331">
        <ele>363.3</ele>
        <time>2021-03-21T12:13:12Z</time>
      </trkpt>
      <trkpt lat="43.04559" lon="2.33109">
        <ele>362.6</ele>
        <time>2021-03-21T12:13:13Z</time>
      </trkpt>
      <trkpt lat="43.04569" lon="2.33117">
        <ele>361.9</ele>
        <time>2021-03-21T12:13:14Z</time>
      </trkpt>
      <trkpt lat="43.04591" lon="2.33127">
        <ele>360.3</ele>
        <time>2021-03-21T12:13:16Z</time>
      </trkpt>
      <trkpt lat="43.04607" lon="2.33148">
        <ele>359</ele>
        <time>2021-03-21T12:13:18Z</time>
      </trkpt>
      <trkpt lat="43.04613" lon="2.33161">
        <ele>358.2</ele>
        <time>2021-03-21T12:13:19Z</time>
      </trkpt>
      <trkpt lat="43.04619" lon="2.33174">
        <ele>357.3</ele>
        <time>2021-03-21T12:13:20Z</time>
      </trkpt>
      <trkpt lat="43.04638" lon="2.33189">
        <ele>354.9</ele>
        <time>2021-03-21T12:13:22Z</time>
      </trkpt>
      <trkpt lat="43.04648" lon="2.33195">
        <ele>353.6</ele>
        <time>2021-03-21T12:13:23Z</time>
      </trkpt>
      <trkpt lat="43.04658" lon="2.33202">
        <ele>352.4</ele>
        <time>2021-03-21T12:13:24Z</time>
      </trkpt>
      <trkpt lat="43.04675" lon="2.33225">
        <ele>350.3</ele>
        <time>2021-03-21T12:13:26Z</time>
      </trkpt>
      <trkpt lat="43.04691" lon="2.3325">
        <ele>348.3</ele>
        <time>2021-03-21T12:13:28Z</time>
      </trkpt>
      <trkpt lat="43.04699" lon="2.33263">
        <ele>347.3</ele>
        <time>2021-03-21T12:13:29Z</time>
      </trkpt>
      <trkpt lat="43.04712" lon="2.33293">
        <ele>345.6</ele>
        <time>2021-03-21T12:13:31Z</time>
      </trkpt>
      <trkpt lat="43.04717" lon="2.33309">
        <ele>344.9</ele>
        <time>2021-03-21T12:13:32Z</time>
      </trkpt>
      <trkpt lat="43.04723" lon="2.33344">
        <ele>343.3</ele>
        <time>2021-03-21T12:13:34Z</time>
      </trkpt>
      <trkpt lat="43.04734" lon="2.33376">
        <ele>340.8</ele>
        <time>2021-03-21T12:13:36Z</time>
      </trkpt>
      <trkpt lat="43.04745" lon="2.33387">
        <ele>339.4</ele>
        <time>2021-03-21T12:13:37Z</time>
      </trkpt>
      <trkpt lat="43.04771" lon="2.33396">
        <ele>336.8</ele>
        <time>2021-03-21T12:13:39Z</time>
      </trkpt>
      <trkpt lat="43.04785" lon="2.33399">
        <ele>335.7</ele>
        <time>2021-03-21T12:13:40Z</time>
      </trkpt>
      <trkpt lat="43.0481" lon="2.3341">
        <ele>333.4</ele>
        <time>2021-03-21T12:13:42Z</time>
      </trkpt>
      <trkpt lat="43.04823" lon="2.33417">
        <ele>332.6</ele>
        <time>2021-03-21T12:13:43Z</time>
      </trkpt>
      <trkpt lat="43.0485" lon="2.33427">
        <ele>331</ele>
        <time>2021-03-21T12:13:45Z</time>
      </trkpt>
      <trkpt lat="43.04864" lon="2.3343">
        <ele>330.2</ele>
        <time>2021-03-21T12:13:46Z</time>
      </trkpt>
      <trkpt lat="43.04884" lon="2.3344">
        <ele>328.6</ele>
        <time>2021-03-21T12:13:48Z</time>
      </trkpt>
      <trkpt lat="43.04891" lon="2.33452">
        <ele>327.7</ele>
        <time>2021-03-21T12:13:49Z</time>
      </trkpt>
      <trkpt lat="43.04894" lon="2.33467">
        <ele>327</ele>
        <time>2021-03-21T12:13:50Z</time>
      </trkpt>
      <trkpt lat="43.04896" lon="2.33483">
        <ele>326.2</ele>
        <time>2021-03-21T12:13:51Z</time>
      </trkpt>
      <trkpt lat="43.04901" lon="2.33495">
        <ele>325.4</ele>
        <time>2021-03-21T12:13:52Z</time>
      </trkpt>
      <trkpt lat="43.04918" lon="2.33498">
        <ele>324</ele>
        <time>2021-03-21T12:13:54Z</time>
      </trkpt>
      <trkpt lat="43.04928" lon="2.33488">
        <ele>323</ele>
        <time>2021-03-21T12:13:55Z</time>
      </trkpt>
      <trkpt lat="43.04938" lon="2.33477">
        <ele>321.9</ele>
        <time>2021-03-21T12:13:56Z</time>
      </trkpt>
      <trkpt lat="43.04957" lon="2.33463">
        <ele>320.4</ele>
        <time>2021-03-21T12:13:58Z</time>
      </trkpt>
      <trkpt lat="43.04978" lon="2.33452">
        <ele>319.1</ele>
        <time>2021-03-21T12:14:00Z</time>
      </trkpt>
      <trkpt lat="43.04988" lon="2.33451">
        <ele>318.5</ele>
        <time>2021-03-21T12:14:01Z</time>
      </trkpt>
      <trkpt lat="43.04998" lon="2.33455">
        <ele>317.7</ele>
        <time>2021-03-21T12:14:02Z</time>
      </trkpt>
      <trkpt lat="43.05006" lon="2.33464">
        <ele>316.8</ele>
        <time>2021-03-21T12:14:03Z</time>
      </trkpt>
      <trkpt lat="43.05015" lon="2.3349">
        <ele>315.1</ele>
        <time>2021-03-21T12:14:05Z</time>
      </trkpt>
      <trkpt lat="43.05017" lon="2.33517">
        <ele>313.5</ele>
        <time>2021-03-21T12:14:07Z</time>
      </trkpt>
      <trkpt lat="43.05027" lon="2.33538">
        <ele>312</ele>
        <time>2021-03-21T12:14:09Z</time>
      </trkpt>
      <trkpt lat="43.05047" lon="2.33542">
        <ele>310.3</ele>
        <time>2021-03-21T12:14:11Z</time>
      </trkpt>
      <trkpt lat="43.05058" lon="2.33539">
        <ele>309.4</ele>
        <time>2021-03-21T12:14:12Z</time>
      </trkpt>
      <trkpt lat="43.05069" lon="2.33534">
        <ele>308.5</ele>
        <time>2021-03-21T12:14:13Z</time>
      </trkpt>
      <trkpt lat="43.0508" lon="2.3353">
        <ele>307.7</ele>
        <time>2021-03-21T12:14:14Z</time>
      </trkpt>
      <trkpt lat="43.05102" lon="2.33523">
        <ele>306</ele>
        <time>2021-03-21T12:14:16Z</time>
      </trkpt>
      <trkpt lat="43.05124" lon="2.33519">
        <ele>304.1</ele>
        <time>2021-03-21T12:14:18Z</time>
      </trkpt>
      <trkpt lat="43.05135" lon="2.33518">
        <ele>303.2</ele>
        <time>2021-03-21T12:14:19Z</time>
      </trkpt>
      <trkpt lat="43.05145" lon="2.33521">
        <ele>302.2</ele>
        <time>2021-03-21T12:14:20Z</time>
      </trkpt>
      <trkpt lat="43.05162" lon="2.33541">
        <ele>299.9</ele>
        <time>2021-03-21T12:14:22Z</time>
      </trkpt>
      <trkpt lat="43.05168" lon="2.33556">
        <ele>298.7</ele>
        <time>2021-03-21T12:14:23Z</time>
      </trkpt>
      <trkpt lat="43.0518" lon="2.33585">
        <ele>296.2</ele>
        <time>2021-03-21T12:14:25Z</time>
      </trkpt>
      <trkpt lat="43.05202" lon="2.33601">
        <ele>293.9</ele>
        <time>2021-03-21T12:14:27Z</time>
      </trkpt>
      <trkpt lat="43.05226" lon="2.33607">
        <ele>291.8</ele>
        <time>2021-03-21T12:14:29Z</time>
      </trkpt>
      <trkpt lat="43.05249" lon="2.33617">
        <ele>289.7</ele>
        <time>2021-03-21T12:14:31Z</time>
      </trkpt>
      <trkpt lat="43.05271" lon="2.33631">
        <ele>287.7</ele>
        <time>2021-03-21T12:14:33Z</time>
      </trkpt>
      <trkpt lat="43.05293" lon="2.33647">
        <ele>285.9</ele>
        <time>2021-03-21T12:14:35Z</time>
      </trkpt>
      <trkpt lat="43.05304" lon="2.33654">
        <ele>285</ele>
        <time>2021-03-21T12:14:36Z</time>
      </trkpt>
      <trkpt lat="43.05328" lon="2.33661">
        <ele>283</ele>
        <time>2021-03-21T12:14:38Z</time>
      </trkpt>
      <trkpt lat="43.05353" lon="2.33666">
        <ele>281</ele>
        <time>2021-03-21T12:14:40Z</time>
      </trkpt>
      <trkpt lat="43.05365" lon="2.33672">
        <ele>280</ele>
        <time>2021-03-21T12:14:41Z</time>
      </trkpt>
      <trkpt lat="43.05385" lon="2.33692">
        <ele>279.2</ele>
        <time>2021-03-21T12:14:43Z</time>
      </trkpt>
      <trkpt lat="43.05407" lon="2.33697">
        <ele>278.9</ele>
        <time>2021-03-21T12:14:45Z</time>
      </trkpt>
      <trkpt lat="43.05418" lon="2.33689">
        <ele>278.8</ele>
        <time>2021-03-21T12:14:46Z</time>
      </trkpt>
      <trkpt lat="43.05437" lon="2.33662">
        <ele>277.8</ele>
        <time>2021-03-21T12:14:48Z</time>
      </trkpt>
      <trkpt lat="43.05446" lon="2.33647">
        <ele>277.3</ele>
        <time>2021-03-21T12:14:49Z</time>
      </trkpt>
      <trkpt lat="43.05461" lon="2.33617">
        <ele>276.9</ele>
        <time>2021-03-21T12:14:51Z</time>
      </trkpt>
      <trkpt lat="43.05467" lon="2.33602">
        <ele>276.8</ele>
        <time>2021-03-21T12:14:52Z</time>
      </trkpt>
      <trkpt lat="43.05474" lon="2.33573">
        <ele>276.7</ele>
        <time>2021-03-21T12:14:54Z</time>
      </trkpt>
      <trkpt lat="43.05475" lon="2.33557">
        <ele>276.7</ele>
        <time>2021-03-21T12:14:55Z</time>
      </trkpt>
      <trkpt lat="43.05474" lon="2.33542">
        <ele>276.7</ele>
        <time>2021-03-21T12:14:56Z</time>
      </trkpt>
      <trkpt lat="43.05468" lon="2.33514">
        <ele>276.6</ele>
        <time>2021-03-21T12:14:58Z</time>
      </trkpt>
      <trkpt lat="43.05457" lon="2.33489">
        <ele>276.5</ele>
        <time>2021-03-21T12:15:00Z</time>
      </trkpt>
      <trkpt lat="43.0545" lon="2.33479">
        <ele>276.5</ele>
        <time>2021-03-21T12:15:01Z</time>
      </trkpt>
      <trkpt lat="43.05442" lon="2.33469">
        <ele>276.4</ele>
        <time>2021-03-21T12:15:02Z</time>
      </trkpt>
      <trkpt lat="43.05424" lon="2.33453">
        <ele>276.4</ele>
        <time>2021-03-21T12:15:04Z</time>
      </trkpt>
      <trkpt lat="43.05416" lon="2.33445">
        <ele>276.3</ele>
        <time>2021-03-21T12:15:05Z</time>
      </trkpt>
      <trkpt lat="43.05408" lon="2.33436">
        <ele>276.2</ele>
        <time>2021-03-21T12:15:06Z</time>
      </trkpt>
      <trkpt lat="43.054" lon="2.33414">
        <ele>276.1</ele>
        <time>2021-03-21T12:15:08Z</time>
      </trkpt>
      <trkpt lat="43.05394" lon="2.33389">
        <ele>275.8</ele>
        <time>2021-03-21T12:15:10Z</time>
      </trkpt>
      <trkpt lat="43.05389" lon="2.33365">
        <ele>275.4</ele>
        <time>2021-03-21T12:15:12Z</time>
      </trkpt>
      <trkpt lat="43.05386" lon="2.33352">
        <ele>275.3</ele>
        <time>2021-03-21T12:15:13Z</time>
      </trkpt>
      <trkpt lat="43.05381" lon="2.33329">
        <ele>275</ele>
        <time>2021-03-21T12:15:15Z</time>
      </trkpt>
      <trkpt lat="43.05379" lon="2.33317">
        <ele>274.9</ele>
        <time>2021-03-21T12:15:16Z</time>
      </trkpt>
      <trkpt lat="43.05377" lon="2.33305">
        <ele>274.8</ele>
        <time>2021-03-21T12:15:17Z</time>
      </trkpt>
      <trkpt lat="43.05374" lon="2.33281">
        <ele>274.5</ele>
        <time>2021-03-21T12:15:19Z</time>
      </trkpt>
      <trkpt lat="43.05375" lon="2.33258">
        <ele>274.3</ele>
        <time>2021-03-21T12:15:21Z</time>
      </trkpt>
      <trkpt lat="43.05378" lon="2.33248">
        <ele>274.2</ele>
        <time>2021-03-21T12:15:22Z</time>
      </trkpt>
      <trkpt lat="43.05382" lon="2.33239">
        <ele>274.2</ele>
        <time>2021-03-21T12:15:23Z</time>
      </trkpt>
      <trkpt lat="43.05396" lon="2.33224">
        <ele>274</ele>
        <time>2021-03-21T12:15:25Z</time>
      </trkpt>
      <trkpt lat="43.05412" lon="2.33218">
        <ele>273.8</ele>
        <time>2021-03-21T12:15:27Z</time>
      </trkpt>
      <trkpt lat="43.05426" lon="2.33216">
        <ele>273.6</ele>
        <time>2021-03-21T12:15:29Z</time>
      </trkpt>
      <trkpt lat="43.05432" lon="2.33216">
        <ele>273.6</ele>
        <time>2021-03-21T12:15:30Z</time>
      </trkpt>
      <trkpt lat="43.05438" lon="2.33215">
        <ele>273.5</ele>
        <time>2021-03-21T12:15:31Z</time>
      </trkpt>
      <trkpt lat="43.05449" lon="2.3321">
        <ele>273.4</ele>
        <time>2021-03-21T12:15:33Z</time>
      </trkpt>
      <trkpt lat="43.05455" lon="2.33207">
        <ele>273.3</ele>
        <time>2021-03-21T12:15:34Z</time>
      </trkpt>
      <trkpt lat="43.05467" lon="2.33199">
        <ele>273.1</ele>
        <time>2021-03-21T12:15:36Z</time>
      </trkpt>
      <trkpt lat="43.05478" lon="2.3319">
        <ele>272.9</ele>
        <time>2021-03-21T12:15:38Z</time>
      </trkpt>
      <trkpt lat="43.05485" lon="2.33185">
        <ele>272.9</ele>
        <time>2021-03-21T12:15:39Z</time>
      </trkpt>
      <trkpt lat="43.05497" lon="2.33174">
        <ele>272.7</ele>
        <time>2021-03-21T12:15:41Z</time>
      </trkpt>
      <trkpt lat="43.05503" lon="2.33169">
        <ele>272.6</ele>
        <time>2021-03-21T12:15:42Z</time>
      </trkpt>
      <trkpt lat="43.05515" lon="2.3316">
        <ele>272.5</ele>
        <time>2021-03-21T12:15:44Z</time>
      </trkpt>
      <trkpt lat="43.05528" lon="2.33151">
        <ele>272.3</ele>
        <time>2021-03-21T12:15:46Z</time>
      </trkpt>
      <trkpt lat="43.05542" lon="2.33143">
        <ele>272.1</ele>
        <time>2021-03-21T12:15:48Z</time>
      </trkpt>
      <trkpt lat="43.05549" lon="2.33139">
        <ele>272</ele>
        <time>2021-03-21T12:15:49Z</time>
      </trkpt>
      <trkpt lat="43.05563" lon="2.33131">
        <ele>271.7</ele>
        <time>2021-03-21T12:15:51Z</time>
      </trkpt>
      <trkpt lat="43.05577" lon="2.33124">
        <ele>271.6</ele>
        <time>2021-03-21T12:15:53Z</time>
      </trkpt>
      <trkpt lat="43.05591" lon="2.33117">
        <ele>271.5</ele>
        <time>2021-03-21T12:15:55Z</time>
      </trkpt>
      <trkpt lat="43.05605" lon="2.33109">
        <ele>271.4</ele>
        <time>2021-03-21T12:15:57Z</time>
      </trkpt>
      <trkpt lat="43.05612" lon="2.33107">
        <ele>271.4</ele>
        <time>2021-03-21T12:15:58Z</time>
      </trkpt>
      <trkpt lat="43.05619" lon="2.33105">
        <ele>271.4</ele>
        <time>2021-03-21T12:15:59Z</time>
      </trkpt>
      <trkpt lat="43.05626" lon="2.33106">
        <ele>271.3</ele>
        <time>2021-03-21T12:16:00Z</time>
      </trkpt>
      <trkpt lat="43.05634" lon="2.33109">
        <ele>271.2</ele>
        <time>2021-03-21T12:16:01Z</time>
      </trkpt>
      <trkpt lat="43.05647" lon="2.33119">
        <ele>271.1</ele>
        <time>2021-03-21T12:16:03Z</time>
      </trkpt>
      <trkpt lat="43.05661" lon="2.3313">
        <ele>271</ele>
        <time>2021-03-21T12:16:05Z</time>
      </trkpt>
      <trkpt lat="43.05668" lon="2.33135">
        <ele>270.9</ele>
        <time>2021-03-21T12:16:06Z</time>
      </trkpt>
      <trkpt lat="43.05682" lon="2.33141">
        <ele>270.6</ele>
        <time>2021-03-21T12:16:08Z</time>
      </trkpt>
      <trkpt lat="43.05689" lon="2.33141">
        <ele>270.5</ele>
        <time>2021-03-21T12:16:09Z</time>
      </trkpt>
      <trkpt lat="43.05696" lon="2.33138">
        <ele>270.3</ele>
        <time>2021-03-21T12:16:10Z</time>
      </trkpt>
      <trkpt lat="43.05703" lon="2.33134">
        <ele>270.2</ele>
        <time>2021-03-21T12:16:11Z</time>
      </trkpt>
      <trkpt lat="43.05715" lon="2.33119">
        <ele>269.9</ele>
        <time>2021-03-21T12:16:13Z</time>
      </trkpt>
      <trkpt lat="43.05723" lon="2.331">
        <ele>269.8</ele>
        <time>2021-03-21T12:16:15Z</time>
      </trkpt>
      <trkpt lat="43.05732" lon="2.33083">
        <ele>269.6</ele>
        <time>2021-03-21T12:16:17Z</time>
      </trkpt>
      <trkpt lat="43.05738" lon="2.33077">
        <ele>269.5</ele>
        <time>2021-03-21T12:16:18Z</time>
      </trkpt>
      <trkpt lat="43.05752" lon="2.33069">
        <ele>269.3</ele>
        <time>2021-03-21T12:16:20Z</time>
      </trkpt>
      <trkpt lat="43.05767" lon="2.33065">
        <ele>269</ele>
        <time>2021-03-21T12:16:22Z</time>
      </trkpt>
      <trkpt lat="43.05774" lon="2.33064">
        <ele>268.9</ele>
        <time>2021-03-21T12:16:23Z</time>
      </trkpt>
      <trkpt lat="43.05789" lon="2.33062">
        <ele>268.8</ele>
        <time>2021-03-21T12:16:25Z</time>
      </trkpt>
      <trkpt lat="43.05804" lon="2.3306">
        <ele>268.6</ele>
        <time>2021-03-21T12:16:27Z</time>
      </trkpt>
      <trkpt lat="43.05811" lon="2.33061">
        <ele>268.5</ele>
        <time>2021-03-21T12:16:28Z</time>
      </trkpt>
      <trkpt lat="43.05818" lon="2.33061">
        <ele>268.5</ele>
        <time>2021-03-21T12:16:29Z</time>
      </trkpt>
      <trkpt lat="43.05826" lon="2.33062">
        <ele>268.4</ele>
        <time>2021-03-21T12:16:30Z</time>
      </trkpt>
      <trkpt lat="43.0584" lon="2.33064">
        <ele>268.3</ele>
        <time>2021-03-21T12:16:32Z</time>
      </trkpt>
      <trkpt lat="43.05848" lon="2.33065">
        <ele>268.2</ele>
        <time>2021-03-21T12:16:33Z</time>
      </trkpt>
      <trkpt lat="43.05863" lon="2.33064">
        <ele>268.1</ele>
        <time>2021-03-21T12:16:35Z</time>
      </trkpt>
      <trkpt lat="43.05877" lon="2.3306">
        <ele>268</ele>
        <time>2021-03-21T12:16:37Z</time>
      </trkpt>
      <trkpt lat="43.05891" lon="2.33051">
        <ele>267.8</ele>
        <time>2021-03-21T12:16:39Z</time>
      </trkpt>
      <trkpt lat="43.05898" lon="2.33044">
        <ele>267.8</ele>
        <time>2021-03-21T12:16:40Z</time>
      </trkpt>
      <trkpt lat="43.05911" lon="2.33033">
        <ele>267.6</ele>
        <time>2021-03-21T12:16:42Z</time>
      </trkpt>
      <trkpt lat="43.05918" lon="2.3303">
        <ele>267.6</ele>
        <time>2021-03-21T12:16:43Z</time>
      </trkpt>
      <trkpt lat="43.05933" lon="2.33033">
        <ele>267.4</ele>
        <time>2021-03-21T12:16:45Z</time>
      </trkpt>
      <trkpt lat="43.05947" lon="2.33042">
        <ele>267.1</ele>
        <time>2021-03-21T12:16:47Z</time>
      </trkpt>
      <trkpt lat="43.0596" lon="2.3305">
        <ele>266.9</ele>
        <time>2021-03-21T12:16:49Z</time>
      </trkpt>
      <trkpt lat="43.05974" lon="2.33055">
        <ele>266.8</ele>
        <time>2021-03-21T12:16:51Z</time>
      </trkpt>
      <trkpt lat="43.05981" lon="2.33056">
        <ele>266.7</ele>
        <time>2021-03-21T12:16:52Z</time>
      </trkpt>
      <trkpt lat="43.05995" lon="2.33057">
        <ele>266.6</ele>
        <time>2021-03-21T12:16:54Z</time>
      </trkpt>
      <trkpt lat="43.06002" lon="2.33058">
        <ele>266.5</ele>
        <time>2021-03-21T12:16:55Z</time>
      </trkpt>
      <trkpt lat="43.06009" lon="2.33059">
        <ele>266.4</ele>
        <time>2021-03-21T12:16:56Z</time>
      </trkpt>
      <trkpt lat="43.06022" lon="2.33063">
        <ele>266.2</ele>
        <time>2021-03-21T12:16:58Z</time>
      </trkpt>
      <trkpt lat="43.06028" lon="2.33065">
        <ele>266.2</ele>
        <time>2021-03-21T12:16:59Z</time>
      </trkpt>
      <trkpt lat="43.06035" lon="2.33067">
        <ele>266.1</ele>
        <time>2021-03-21T12:17:00Z</time>
      </trkpt>
      <trkpt lat="43.06042" lon="2.3307">
        <ele>266.1</ele>
        <time>2021-03-21T12:17:01Z</time>
      </trkpt>
      <trkpt lat="43.06049" lon="2.33072">
        <ele>266</ele>
        <time>2021-03-21T12:17:02Z</time>
      </trkpt>
      <trkpt lat="43.06056" lon="2.33075">
        <ele>266</ele>
        <time>2021-03-21T12:17:03Z</time>
      </trkpt>
      <trkpt lat="43.06071" lon="2.33082">
        <ele>265.9</ele>
        <time>2021-03-21T12:17:05Z</time>
      </trkpt>
      <trkpt lat="43.06078" lon="2.33089">
        <ele>265.9</ele>
        <time>2021-03-21T12:17:06Z</time>
      </trkpt>
      <trkpt lat="43.06083" lon="2.33097">
        <ele>265.9</ele>
        <time>2021-03-21T12:17:07Z</time>
      </trkpt>
      <trkpt lat="43.06089" lon="2.33119">
        <ele>265.8</ele>
        <time>2021-03-21T12:17:09Z</time>
      </trkpt>
      <trkpt lat="43.0609" lon="2.33131">
        <ele>265.7</ele>
        <time>2021-03-21T12:17:10Z</time>
      </trkpt>
      <trkpt lat="43.06097" lon="2.33152">
        <ele>265.5</ele>
        <time>2021-03-21T12:17:12Z</time>
      </trkpt>
      <trkpt lat="43.06102" lon="2.33161">
        <ele>265.4</ele>
        <time>2021-03-21T12:17:13Z</time>
      </trkpt>
      <trkpt lat="43.06117" lon="2.33173">
        <ele>265.3</ele>
        <time>2021-03-21T12:17:15Z</time>
      </trkpt>
      <trkpt lat="43.06126" lon="2.33176">
        <ele>265.3</ele>
        <time>2021-03-21T12:17:16Z</time>
      </trkpt>
      <trkpt lat="43.06135" lon="2.33177">
        <ele>265.3</ele>
        <time>2021-03-21T12:17:17Z</time>
      </trkpt>
      <trkpt lat="43.06151" lon="2.33167">
        <ele>265.2</ele>
        <time>2021-03-21T12:17:19Z</time>
      </trkpt>
      <trkpt lat="43.06156" lon="2.33156">
        <ele>265.2</ele>
        <time>2021-03-21T12:17:20Z</time>
      </trkpt>
      <trkpt lat="43.06162" lon="2.33129">
        <ele>265</ele>
        <time>2021-03-21T12:17:22Z</time>
      </trkpt>
      <trkpt lat="43.06163" lon="2.33103">
        <ele>264.9</ele>
        <time>2021-03-21T12:17:24Z</time>
      </trkpt>
      <trkpt lat="43.06159" lon="2.33078">
        <ele>264.7</ele>
        <time>2021-03-21T12:17:26Z</time>
      </trkpt>
      <trkpt lat="43.06152" lon="2.33055">
        <ele>264.5</ele>
        <time>2021-03-21T12:17:28Z</time>
      </trkpt>
      <trkpt lat="43.06147" lon="2.33045">
        <ele>264.4</ele>
        <time>2021-03-21T12:17:29Z</time>
      </trkpt>
      <trkpt lat="43.06137" lon="2.33026">
        <ele>264.3</ele>
        <time>2021-03-21T12:17:31Z</time>
      </trkpt>
      <trkpt lat="43.06131" lon="2.33018">
        <ele>264.3</ele>
        <time>2021-03-21T12:17:32Z</time>
      </trkpt>
      <trkpt lat="43.06121" lon="2.33001">
        <ele>264.1</ele>
        <time>2021-03-21T12:17:34Z</time>
      </trkpt>
      <trkpt lat="43.06113" lon="2.32984">
        <ele>264</ele>
        <time>2021-03-21T12:17:36Z</time>
      </trkpt>
      <trkpt lat="43.06104" lon="2.32967">
        <ele>263.9</ele>
        <time>2021-03-21T12:17:38Z</time>
      </trkpt>
      <trkpt lat="43.061" lon="2.32959">
        <ele>263.9</ele>
        <time>2021-03-21T12:17:39Z</time>
      </trkpt>
      <trkpt lat="43.06091" lon="2.32943">
        <ele>263.8</ele>
        <time>2021-03-21T12:17:41Z</time>
      </trkpt>
      <trkpt lat="43.06087" lon="2.32935">
        <ele>263.8</ele>
        <time>2021-03-21T12:17:42Z</time>
      </trkpt>
      <trkpt lat="43.06083" lon="2.32926">
        <ele>263.7</ele>
        <time>2021-03-21T12:17:43Z</time>
      </trkpt>
      <trkpt lat="43.06078" lon="2.32908">
        <ele>263.5</ele>
        <time>2021-03-21T12:17:45Z</time>
      </trkpt>
      <trkpt lat="43.06077" lon="2.32898">
        <ele>263.4</ele>
        <time>2021-03-21T12:17:46Z</time>
      </trkpt>
      <trkpt lat="43.06079" lon="2.32878">
        <ele>263.1</ele>
        <time>2021-03-21T12:17:48Z</time>
      </trkpt>
      <trkpt lat="43.0608" lon="2.32867">
        <ele>263</ele>
        <time>2021-03-21T12:17:49Z</time>
      </trkpt>
      <trkpt lat="43.06084" lon="2.32847">
        <ele>262.8</ele>
        <time>2021-03-21T12:17:51Z</time>
      </trkpt>
      <trkpt lat="43.06086" lon="2.32837">
        <ele>262.7</ele>
        <time>2021-03-21T12:17:52Z</time>
      </trkpt>
      <trkpt lat="43.06089" lon="2.32828">
        <ele>262.6</ele>
        <time>2021-03-21T12:17:53Z</time>
      </trkpt>
      <trkpt lat="43.06091" lon="2.32819">
        <ele>262.5</ele>
        <time>2021-03-21T12:17:54Z</time>
      </trkpt>
      <trkpt lat="43.06098" lon="2.32802">
        <ele>262.3</ele>
        <time>2021-03-21T12:17:56Z</time>
      </trkpt>
      <trkpt lat="43.06105" lon="2.32786">
        <ele>262.2</ele>
        <time>2021-03-21T12:17:58Z</time>
      </trkpt>
      <trkpt lat="43.06112" lon="2.3277">
        <ele>262.1</ele>
        <time>2021-03-21T12:18:00Z</time>
      </trkpt>
      <trkpt lat="43.06115" lon="2.32762">
        <ele>262.1</ele>
        <time>2021-03-21T12:18:01Z</time>
      </trkpt>
      <trkpt lat="43.06118" lon="2.32755">
        <ele>262</ele>
        <time>2021-03-21T12:18:02Z</time>
      </trkpt>
      <trkpt lat="43.06124" lon="2.32739">
        <ele>261.9</ele>
        <time>2021-03-21T12:18:04Z</time>
      </trkpt>
      <trkpt lat="43.06131" lon="2.32724">
        <ele>261.8</ele>
        <time>2021-03-21T12:18:06Z</time>
      </trkpt>
      <trkpt lat="43.06134" lon="2.32716">
        <ele>261.7</ele>
        <time>2021-03-21T12:18:07Z</time>
      </trkpt>
      <trkpt lat="43.06137" lon="2.32708">
        <ele>261.6</ele>
        <time>2021-03-21T12:18:08Z</time>
      </trkpt>
      <trkpt lat="43.06143" lon="2.32693">
        <ele>261.5</ele>
        <time>2021-03-21T12:18:10Z</time>
      </trkpt>
      <trkpt lat="43.06147" lon="2.32685">
        <ele>261.4</ele>
        <time>2021-03-21T12:18:11Z</time>
      </trkpt>
      <trkpt lat="43.06153" lon="2.32668">
        <ele>261.3</ele>
        <time>2021-03-21T12:18:13Z</time>
      </trkpt>
      <trkpt lat="43.06157" lon="2.3266">
        <ele>261.2</ele>
        <time>2021-03-21T12:18:14Z</time>
      </trkpt>
      <trkpt lat="43.0616" lon="2.32651">
        <ele>261.2</ele>
        <time>2021-03-21T12:18:15Z</time>
      </trkpt>
      <trkpt lat="43.06167" lon="2.32635">
        <ele>261.1</ele>
        <time>2021-03-21T12:18:17Z</time>
      </trkpt>
      <trkpt lat="43.06175" lon="2.32619">
        <ele>260.9</ele>
        <time>2021-03-21T12:18:19Z</time>
      </trkpt>
      <trkpt lat="43.06182" lon="2.32603">
        <ele>260.7</ele>
        <time>2021-03-21T12:18:21Z</time>
      </trkpt>
      <trkpt lat="43.06189" lon="2.32589">
        <ele>260.6</ele>
        <time>2021-03-21T12:18:23Z</time>
      </trkpt>
      <trkpt lat="43.06192" lon="2.32581">
        <ele>260.5</ele>
        <time>2021-03-21T12:18:24Z</time>
      </trkpt>
      <trkpt lat="43.06196" lon="2.32575">
        <ele>260.4</ele>
        <time>2021-03-21T12:18:25Z</time>
      </trkpt>
      <trkpt lat="43.06203" lon="2.32563">
        <ele>260.2</ele>
        <time>2021-03-21T12:18:27Z</time>
      </trkpt>
      <trkpt lat="43.06212" lon="2.32551">
        <ele>260</ele>
        <time>2021-03-21T12:18:29Z</time>
      </trkpt>
      <trkpt lat="43.06217" lon="2.32545">
        <ele>259.9</ele>
        <time>2021-03-21T12:18:30Z</time>
      </trkpt>
      <trkpt lat="43.06221" lon="2.32539">
        <ele>259.8</ele>
        <time>2021-03-21T12:18:31Z</time>
      </trkpt>
      <trkpt lat="43.0623" lon="2.32529">
        <ele>259.7</ele>
        <time>2021-03-21T12:18:33Z</time>
      </trkpt>
      <trkpt lat="43.0624" lon="2.32518">
        <ele>259.6</ele>
        <time>2021-03-21T12:18:35Z</time>
      </trkpt>
      <trkpt lat="43.06249" lon="2.32508">
        <ele>259.4</ele>
        <time>2021-03-21T12:18:37Z</time>
      </trkpt>
      <trkpt lat="43.06254" lon="2.32504">
        <ele>259.3</ele>
        <time>2021-03-21T12:18:38Z</time>
      </trkpt>
      <trkpt lat="43.06264" lon="2.32494">
        <ele>259.2</ele>
        <time>2021-03-21T12:18:40Z</time>
      </trkpt>
      <trkpt lat="43.06273" lon="2.32482">
        <ele>259</ele>
        <time>2021-03-21T12:18:42Z</time>
      </trkpt>
      <trkpt lat="43.06283" lon="2.32471">
        <ele>258.8</ele>
        <time>2021-03-21T12:18:44Z</time>
      </trkpt>
      <trkpt lat="43.06292" lon="2.32459">
        <ele>258.7</ele>
        <time>2021-03-21T12:18:46Z</time>
      </trkpt>
      <trkpt lat="43.06302" lon="2.32447">
        <ele>258.5</ele>
        <time>2021-03-21T12:18:48Z</time>
      </trkpt>
      <trkpt lat="43.06306" lon="2.32442">
        <ele>258.5</ele>
        <time>2021-03-21T12:18:49Z</time>
      </trkpt>
      <trkpt lat="43.06311" lon="2.32437">
        <ele>258.4</ele>
        <time>2021-03-21T12:18:50Z</time>
      </trkpt>
      <trkpt lat="43.06316" lon="2.32431">
        <ele>258.4</ele>
        <time>2021-03-21T12:18:51Z</time>
      </trkpt>
      <trkpt lat="43.06325" lon="2.32421">
        <ele>258.3</ele>
        <time>2021-03-21T12:18:53Z</time>
      </trkpt>
      <trkpt lat="43.0633" lon="2.32415">
        <ele>258.3</ele>
        <time>2021-03-21T12:18:54Z</time>
      </trkpt>
      <trkpt lat="43.06335" lon="2.3241">
        <ele>258.2</ele>
        <time>2021-03-21T12:18:55Z</time>
      </trkpt>
      <trkpt lat="43.06345" lon="2.32399">
        <ele>258</ele>
        <time>2021-03-21T12:18:57Z</time>
      </trkpt>
      <trkpt lat="43.06355" lon="2.32386">
        <ele>257.8</ele>
        <time>2021-03-21T12:18:59Z</time>
      </trkpt>
      <trkpt lat="43.06363" lon="2.3237">
        <ele>257.5</ele>
        <time>2021-03-21T12:19:01Z</time>
      </trkpt>
      <trkpt lat="43.06367" lon="2.32361">
        <ele>257.2</ele>
        <time>2021-03-21T12:19:02Z</time>
      </trkpt>
      <trkpt lat="43.06369" lon="2.32352">
        <ele>257</ele>
        <time>2021-03-21T12:19:03Z</time>
      </trkpt>
      <trkpt lat="43.06374" lon="2.32333">
        <ele>256.5</ele>
        <time>2021-03-21T12:19:05Z</time>
      </trkpt>
      <trkpt lat="43.06376" lon="2.32324">
        <ele>256.2</ele>
        <time>2021-03-21T12:19:06Z</time>
      </trkpt>
      <trkpt lat="43.06381" lon="2.32305">
        <ele>255.8</ele>
        <time>2021-03-21T12:19:08Z</time>
      </trkpt>
      <trkpt lat="43.06384" lon="2.32296">
        <ele>255.7</ele>
        <time>2021-03-21T12:19:09Z</time>
      </trkpt>
      <trkpt lat="43.0639" lon="2.32279">
        <ele>255.3</ele>
        <time>2021-03-21T12:19:11Z</time>
      </trkpt>
      <trkpt lat="43.06396" lon="2.32272">
        <ele>255.2</ele>
        <time>2021-03-21T12:19:12Z</time>
      </trkpt>
      <trkpt lat="43.06402" lon="2.32269">
        <ele>254.9</ele>
        <time>2021-03-21T12:19:13Z</time>
      </trkpt>
      <trkpt lat="43.06416" lon="2.32275">
        <ele>254.4</ele>
        <time>2021-03-21T12:19:15Z</time>
      </trkpt>
      <trkpt lat="43.06427" lon="2.32292">
        <ele>253.6</ele>
        <time>2021-03-21T12:19:17Z</time>
      </trkpt>
      <trkpt lat="43.06431" lon="2.323">
        <ele>253.3</ele>
        <time>2021-03-21T12:19:18Z</time>
      </trkpt>
      <trkpt lat="43.06436" lon="2.32308">
        <ele>253</ele>
        <time>2021-03-21T12:19:19Z</time>
      </trkpt>
      <trkpt lat="43.06441" lon="2.32315">
        <ele>252.8</ele>
        <time>2021-03-21T12:19:20Z</time>
      </trkpt>
      <trkpt lat="43.06452" lon="2.32326">
        <ele>252.3</ele>
        <time>2021-03-21T12:19:22Z</time>
      </trkpt>
      <trkpt lat="43.06457" lon="2.32332">
        <ele>252.1</ele>
        <time>2021-03-21T12:19:23Z</time>
      </trkpt>
      <trkpt lat="43.06462" lon="2.32338">
        <ele>251.9</ele>
        <time>2021-03-21T12:19:24Z</time>
      </trkpt>
      <trkpt lat="43.06473" lon="2.32351">
        <ele>251.6</ele>
        <time>2021-03-21T12:19:26Z</time>
      </trkpt>
      <trkpt lat="43.06484" lon="2.32363">
        <ele>251.2</ele>
        <time>2021-03-21T12:19:28Z</time>
      </trkpt>
      <trkpt lat="43.0649" lon="2.32369">
        <ele>251.1</ele>
        <time>2021-03-21T12:19:29Z</time>
      </trkpt>
      <trkpt lat="43.06503" lon="2.32376">
        <ele>250.8</ele>
        <time>2021-03-21T12:19:31Z</time>
      </trkpt>
      <trkpt lat="43.06509" lon="2.32379">
        <ele>250.7</ele>
        <time>2021-03-21T12:19:32Z</time>
      </trkpt>
      <trkpt lat="43.06523" lon="2.32385">
        <ele>250.5</ele>
        <time>2021-03-21T12:19:34Z</time>
      </trkpt>
      <trkpt lat="43.0653" lon="2.32388">
        <ele>250.4</ele>
        <time>2021-03-21T12:19:35Z</time>
      </trkpt>
      <trkpt lat="43.06544" lon="2.32395">
        <ele>250.1</ele>
        <time>2021-03-21T12:19:37Z</time>
      </trkpt>
      <trkpt lat="43.06557" lon="2.324">
        <ele>249.8</ele>
        <time>2021-03-21T12:19:39Z</time>
      </trkpt>
      <trkpt lat="43.06564" lon="2.32402">
        <ele>249.7</ele>
        <time>2021-03-21T12:19:40Z</time>
      </trkpt>
      <trkpt lat="43.06578" lon="2.32403">
        <ele>249.4</ele>
        <time>2021-03-21T12:19:42Z</time>
      </trkpt>
      <trkpt lat="43.06592" lon="2.32405">
        <ele>249.1</ele>
        <time>2021-03-21T12:19:44Z</time>
      </trkpt>
      <trkpt lat="43.06606" lon="2.32406">
        <ele>249</ele>
        <time>2021-03-21T12:19:46Z</time>
      </trkpt>
      <trkpt lat="43.0662" lon="2.32408">
        <ele>248.8</ele>
        <time>2021-03-21T12:19:48Z</time>
      </trkpt>
      <trkpt lat="43.06634" lon="2.3241">
        <ele>248.5</ele>
        <time>2021-03-21T12:19:50Z</time>
      </trkpt>
      <trkpt lat="43.06648" lon="2.32412">
        <ele>248.3</ele>
        <time>2021-03-21T12:19:52Z</time>
      </trkpt>
      <trkpt lat="43.06656" lon="2.32413">
        <ele>248.2</ele>
        <time>2021-03-21T12:19:53Z</time>
      </trkpt>
      <trkpt lat="43.0667" lon="2.32415">
        <ele>248</ele>
        <time>2021-03-21T12:19:55Z</time>
      </trkpt>
      <trkpt lat="43.06678" lon="2.32417">
        <ele>247.9</ele>
        <time>2021-03-21T12:19:56Z</time>
      </trkpt>
      <trkpt lat="43.06685" lon="2.32418">
        <ele>247.8</ele>
        <time>2021-03-21T12:19:57Z</time>
      </trkpt>
      <trkpt lat="43.06692" lon="2.32418">
        <ele>247.7</ele>
        <time>2021-03-21T12:19:58Z</time>
      </trkpt>
      <trkpt lat="43.06708" lon="2.3242">
        <ele>247.5</ele>
        <time>2021-03-21T12:20:00Z</time>
      </trkpt>
      <trkpt lat="43.06724" lon="2.32422">
        <ele>247.2</ele>
        <time>2021-03-21T12:20:02Z</time>
      </trkpt>
      <trkpt lat="43.06741" lon="2.32423">
        <ele>246.9</ele>
        <time>2021-03-21T12:20:04Z</time>
      </trkpt>
      <trkpt lat="43.06749" lon="2.32422">
        <ele>246.7</ele>
        <time>2021-03-21T12:20:05Z</time>
      </trkpt>
      <trkpt lat="43.06765" lon="2.32421">
        <ele>246.5</ele>
        <time>2021-03-21T12:20:07Z</time>
      </trkpt>
      <trkpt lat="43.06773" lon="2.3242">
        <ele>246.3</ele>
        <time>2021-03-21T12:20:08Z</time>
      </trkpt>
      <trkpt lat="43.06788" lon="2.32419">
        <ele>246</ele>
        <time>2021-03-21T12:20:10Z</time>
      </trkpt>
      <trkpt lat="43.06796" lon="2.32419">
        <ele>245.9</ele>
        <time>2021-03-21T12:20:11Z</time>
      </trkpt>
      <trkpt lat="43.06813" lon="2.32418">
        <ele>245.5</ele>
        <time>2021-03-21T12:20:13Z</time>
      </trkpt>
      <trkpt lat="43.0683" lon="2.32416">
        <ele>245.1</ele>
        <time>2021-03-21T12:20:15Z</time>
      </trkpt>
      <trkpt lat="43.06846" lon="2.32409">
        <ele>244.6</ele>
        <time>2021-03-21T12:20:17Z</time>
      </trkpt>
      <trkpt lat="43.06854" lon="2.32404">
        <ele>244.3</ele>
        <time>2021-03-21T12:20:18Z</time>
      </trkpt>
      <trkpt lat="43.06869" lon="2.32391">
        <ele>243.7</ele>
        <time>2021-03-21T12:20:20Z</time>
      </trkpt>
      <trkpt lat="43.06876" lon="2.32385">
        <ele>243.3</ele>
        <time>2021-03-21T12:20:21Z</time>
      </trkpt>
      <trkpt lat="43.06884" lon="2.32379">
        <ele>243</ele>
        <time>2021-03-21T12:20:22Z</time>
      </trkpt>
      <trkpt lat="43.06892" lon="2.32373">
        <ele>242.7</ele>
        <time>2021-03-21T12:20:23Z</time>
      </trkpt>
      <trkpt lat="43.06907" lon="2.32361">
        <ele>242.1</ele>
        <time>2021-03-21T12:20:25Z</time>
      </trkpt>
      <trkpt lat="43.06914" lon="2.32354">
        <ele>241.7</ele>
        <time>2021-03-21T12:20:26Z</time>
      </trkpt>
      <trkpt lat="43.06928" lon="2.3234">
        <ele>241</ele>
        <time>2021-03-21T12:20:28Z</time>
      </trkpt>
      <trkpt lat="43.06935" lon="2.32332">
        <ele>240.7</ele>
        <time>2021-03-21T12:20:29Z</time>
      </trkpt>
      <trkpt lat="43.0694" lon="2.32323">
        <ele>240.4</ele>
        <time>2021-03-21T12:20:30Z</time>
      </trkpt>
      <trkpt lat="43.06949" lon="2.32302">
        <ele>239.6</ele>
        <time>2021-03-21T12:20:32Z</time>
      </trkpt>
      <trkpt lat="43.06952" lon="2.3229">
        <ele>239.3</ele>
        <time>2021-03-21T12:20:33Z</time>
      </trkpt>
      <trkpt lat="43.06954" lon="2.32278">
        <ele>239</ele>
        <time>2021-03-21T12:20:34Z</time>
      </trkpt>
      <trkpt lat="43.06955" lon="2.32266">
        <ele>238.6</ele>
        <time>2021-03-21T12:20:35Z</time>
      </trkpt>
      <trkpt lat="43.06953" lon="2.32241">
        <ele>237.9</ele>
        <time>2021-03-21T12:20:37Z</time>
      </trkpt>
      <trkpt lat="43.06952" lon="2.32229">
        <ele>237.6</ele>
        <time>2021-03-21T12:20:38Z</time>
      </trkpt>
      <trkpt lat="43.06949" lon="2.32204">
        <ele>236.9</ele>
        <time>2021-03-21T12:20:40Z</time>
      </trkpt>
      <trkpt lat="43.06947" lon="2.32192">
        <ele>236.5</ele>
        <time>2021-03-21T12:20:41Z</time>
      </trkpt>
      <trkpt lat="43.06945" lon="2.32169">
        <ele>235.9</ele>
        <time>2021-03-21T12:20:43Z</time>
      </trkpt>
      <trkpt lat="43.06943" lon="2.32145">
        <ele>235.2</ele>
        <time>2021-03-21T12:20:45Z</time>
      </trkpt>
      <trkpt lat="43.06943" lon="2.32133">
        <ele>234.9</ele>
        <time>2021-03-21T12:20:46Z</time>
      </trkpt>
      <trkpt lat="43.06945" lon="2.32109">
        <ele>234.2</ele>
        <time>2021-03-21T12:20:48Z</time>
      </trkpt>
      <trkpt lat="43.06952" lon="2.32087">
        <ele>233.6</ele>
        <time>2021-03-21T12:20:50Z</time>
      </trkpt>
      <trkpt lat="43.06959" lon="2.3208">
        <ele>233.3</ele>
        <time>2021-03-21T12:20:51Z</time>
      </trkpt>
      <trkpt lat="43.06976" lon="2.32076">
        <ele>232.6</ele>
        <time>2021-03-21T12:20:53Z</time>
      </trkpt>
      <trkpt lat="43.06985" lon="2.32077">
        <ele>232.2</ele>
        <time>2021-03-21T12:20:54Z</time>
      </trkpt>
      <trkpt lat="43.07001" lon="2.32076">
        <ele>231.5</ele>
        <time>2021-03-21T12:20:56Z</time>
      </trkpt>
      <trkpt lat="43.07014" lon="2.32061">
        <ele>231</ele>
        <time>2021-03-21T12:20:58Z</time>
      </trkpt>
      <trkpt lat="43.07019" lon="2.32038">
        <ele>230.5</ele>
        <time>2021-03-21T12:21:00Z</time>
      </trkpt>
      <trkpt lat="43.07021" lon="2.32026">
        <ele>230.3</ele>
        <time>2021-03-21T12:21:01Z</time>
      </trkpt>
      <trkpt lat="43.07022" lon="2.32014">
        <ele>230</ele>
        <time>2021-03-21T12:21:02Z</time>
      </trkpt>
      <trkpt lat="43.07017" lon="2.31989">
        <ele>229.6</ele>
        <time>2021-03-21T12:21:04Z</time>
      </trkpt>
      <trkpt lat="43.07012" lon="2.31979">
        <ele>229.3</ele>
        <time>2021-03-21T12:21:05Z</time>
      </trkpt>
      <trkpt lat="43.06997" lon="2.31962">
        <ele>228.4</ele>
        <time>2021-03-21T12:21:07Z</time>
      </trkpt>
      <trkpt lat="43.06989" lon="2.31954">
        <ele>227.9</ele>
        <time>2021-03-21T12:21:08Z</time>
      </trkpt>
      <trkpt lat="43.06973" lon="2.31939">
        <ele>226.9</ele>
        <time>2021-03-21T12:21:10Z</time>
      </trkpt>
      <trkpt lat="43.06957" lon="2.31925">
        <ele>225.8</ele>
        <time>2021-03-21T12:21:12Z</time>
      </trkpt>
      <trkpt lat="43.06949" lon="2.31919">
        <ele>225.3</ele>
        <time>2021-03-21T12:21:13Z</time>
      </trkpt>
      <trkpt lat="43.06933" lon="2.31905">
        <ele>224.3</ele>
        <time>2021-03-21T12:21:15Z</time>
      </trkpt>
      <trkpt lat="43.06925" lon="2.31898">
        <ele>223.9</ele>
        <time>2021-03-21T12:21:16Z</time>
      </trkpt>
      <trkpt lat="43.06912" lon="2.31878">
        <ele>222.9</ele>
        <time>2021-03-21T12:21:18Z</time>
      </trkpt>
      <trkpt lat="43.06907" lon="2.31866">
        <ele>222.3</ele>
        <time>2021-03-21T12:21:19Z</time>
      </trkpt>
      <trkpt lat="43.06908" lon="2.31839">
        <ele>221</ele>
        <time>2021-03-21T12:21:21Z</time>
      </trkpt>
      <trkpt lat="43.06912" lon="2.31825">
        <ele>220.3</ele>
        <time>2021-03-21T12:21:22Z</time>
      </trkpt>
      <trkpt lat="43.06918" lon="2.31813">
        <ele>219.4</ele>
        <time>2021-03-21T12:21:23Z</time>
      </trkpt>
      <trkpt lat="43.06934" lon="2.31793">
        <ele>218</ele>
        <time>2021-03-21T12:21:25Z</time>
      </trkpt>
      <trkpt lat="43.06942" lon="2.31785">
        <ele>217.4</ele>
        <time>2021-03-21T12:21:26Z</time>
      </trkpt>
      <trkpt lat="43.06958" lon="2.31771">
        <ele>216.4</ele>
        <time>2021-03-21T12:21:28Z</time>
      </trkpt>
      <trkpt lat="43.06974" lon="2.31759">
        <ele>215.5</ele>
        <time>2021-03-21T12:21:30Z</time>
      </trkpt>
      <trkpt lat="43.06982" lon="2.31754">
        <ele>214.9</ele>
        <time>2021-03-21T12:21:31Z</time>
      </trkpt>
      <trkpt lat="43.07001" lon="2.31746">
        <ele>213.9</ele>
        <time>2021-03-21T12:21:33Z</time>
      </trkpt>
      <trkpt lat="43.07011" lon="2.31744">
        <ele>213.3</ele>
        <time>2021-03-21T12:21:34Z</time>
      </trkpt>
      <trkpt lat="43.07021" lon="2.31743">
        <ele>212.8</ele>
        <time>2021-03-21T12:21:35Z</time>
      </trkpt>
      <trkpt lat="43.07041" lon="2.31741">
        <ele>211.9</ele>
        <time>2021-03-21T12:21:37Z</time>
      </trkpt>
      <trkpt lat="43.07051" lon="2.31738">
        <ele>211.4</ele>
        <time>2021-03-21T12:21:38Z</time>
      </trkpt>
      <trkpt lat="43.07066" lon="2.31722">
        <ele>210.2</ele>
        <time>2021-03-21T12:21:40Z</time>
      </trkpt>
      <trkpt lat="43.07072" lon="2.3171">
        <ele>209.6</ele>
        <time>2021-03-21T12:21:41Z</time>
      </trkpt>
      <trkpt lat="43.07078" lon="2.31684">
        <ele>208.3</ele>
        <time>2021-03-21T12:21:43Z</time>
      </trkpt>
      <trkpt lat="43.07082" lon="2.31657">
        <ele>207.2</ele>
        <time>2021-03-21T12:21:45Z</time>
      </trkpt>
      <trkpt lat="43.07084" lon="2.31644">
        <ele>206.7</ele>
        <time>2021-03-21T12:21:46Z</time>
      </trkpt>
      <trkpt lat="43.07086" lon="2.31631">
        <ele>206.1</ele>
        <time>2021-03-21T12:21:47Z</time>
      </trkpt>
      <trkpt lat="43.07091" lon="2.31605">
        <ele>205.1</ele>
        <time>2021-03-21T12:21:49Z</time>
      </trkpt>
      <trkpt lat="43.071" lon="2.31582">
        <ele>204.1</ele>
        <time>2021-03-21T12:21:51Z</time>
      </trkpt>
      <trkpt lat="43.07105" lon="2.31571">
        <ele>203.7</ele>
        <time>2021-03-21T12:21:52Z</time>
      </trkpt>
      <trkpt lat="43.07116" lon="2.31547">
        <ele>202.7</ele>
        <time>2021-03-21T12:21:54Z</time>
      </trkpt>
      <trkpt lat="43.0712" lon="2.31535">
        <ele>202.3</ele>
        <time>2021-03-21T12:21:55Z</time>
      </trkpt>
      <trkpt lat="43.07129" lon="2.31511">
        <ele>201.4</ele>
        <time>2021-03-21T12:21:57Z</time>
      </trkpt>
      <trkpt lat="43.07133" lon="2.31499">
        <ele>201</ele>
        <time>2021-03-21T12:21:58Z</time>
      </trkpt>
      <trkpt lat="43.07139" lon="2.31474">
        <ele>200.3</ele>
        <time>2021-03-21T12:22:00Z</time>
      </trkpt>
      <trkpt lat="43.07142" lon="2.31462">
        <ele>199.9</ele>
        <time>2021-03-21T12:22:01Z</time>
      </trkpt>
      <trkpt lat="43.07148" lon="2.31438">
        <ele>199</ele>
        <time>2021-03-21T12:22:03Z</time>
      </trkpt>
      <trkpt lat="43.07151" lon="2.31427">
        <ele>198.6</ele>
        <time>2021-03-21T12:22:04Z</time>
      </trkpt>
      <trkpt lat="43.07157" lon="2.31404">
        <ele>197.8</ele>
        <time>2021-03-21T12:22:06Z</time>
      </trkpt>
      <trkpt lat="43.0716" lon="2.31392">
        <ele>197.4</ele>
        <time>2021-03-21T12:22:07Z</time>
      </trkpt>
      <trkpt lat="43.07164" lon="2.3138">
        <ele>197</ele>
        <time>2021-03-21T12:22:08Z</time>
      </trkpt>
      <trkpt lat="43.0717" lon="2.31357">
        <ele>196.4</ele>
        <time>2021-03-21T12:22:10Z</time>
      </trkpt>
      <trkpt lat="43.07177" lon="2.31334">
        <ele>195.8</ele>
        <time>2021-03-21T12:22:12Z</time>
      </trkpt>
      <trkpt lat="43.07183" lon="2.31312">
        <ele>195.3</ele>
        <time>2021-03-21T12:22:14Z</time>
      </trkpt>
      <trkpt lat="43.07187" lon="2.313">
        <ele>195.1</ele>
        <time>2021-03-21T12:22:15Z</time>
      </trkpt>
      <trkpt lat="43.07192" lon="2.31276">
        <ele>194.6</ele>
        <time>2021-03-21T12:22:17Z</time>
      </trkpt>
      <trkpt lat="43.07194" lon="2.31264">
        <ele>194.5</ele>
        <time>2021-03-21T12:22:18Z</time>
      </trkpt>
      <trkpt lat="43.07198" lon="2.31241">
        <ele>194.1</ele>
        <time>2021-03-21T12:22:20Z</time>
      </trkpt>
      <trkpt lat="43.07201" lon="2.3123">
        <ele>193.9</ele>
        <time>2021-03-21T12:22:21Z</time>
      </trkpt>
      <trkpt lat="43.07205" lon="2.31208">
        <ele>193.6</ele>
        <time>2021-03-21T12:22:23Z</time>
      </trkpt>
      <trkpt lat="43.07206" lon="2.31196">
        <ele>193.5</ele>
        <time>2021-03-21T12:22:24Z</time>
      </trkpt>
      <trkpt lat="43.07208" lon="2.31185">
        <ele>193.4</ele>
        <time>2021-03-21T12:22:25Z</time>
      </trkpt>
      <trkpt lat="43.0721" lon="2.31174">
        <ele>193.3</ele>
        <time>2021-03-21T12:22:26Z</time>
      </trkpt>
      <trkpt lat="43.07212" lon="2.31164">
        <ele>193.2</ele>
        <time>2021-03-21T12:22:27Z</time>
      </trkpt>
      <trkpt lat="43.07215" lon="2.31142">
        <ele>193.1</ele>
        <time>2021-03-21T12:22:29Z</time>
      </trkpt>
      <trkpt lat="43.07219" lon="2.31121">
        <ele>193.2</ele>
        <time>2021-03-21T12:22:31Z</time>
      </trkpt>
      <trkpt lat="43.07221" lon="2.31111">
        <ele>193.2</ele>
        <time>2021-03-21T12:22:32Z</time>
      </trkpt>
      <trkpt lat="43.07223" lon="2.31101">
        <ele>193.3</ele>
        <time>2021-03-21T12:22:33Z</time>
      </trkpt>
      <trkpt lat="43.07226" lon="2.31081">
        <ele>193.6</ele>
        <time>2021-03-21T12:22:35Z</time>
      </trkpt>
      <trkpt lat="43.0723" lon="2.31061">
        <ele>194</ele>
        <time>2021-03-21T12:22:37Z</time>
      </trkpt>
      <trkpt lat="43.07231" lon="2.31051">
        <ele>194.3</ele>
        <time>2021-03-21T12:22:38Z</time>
      </trkpt>
      <trkpt lat="43.07232" lon="2.31033">
        <ele>194.8</ele>
        <time>2021-03-21T12:22:40Z</time>
      </trkpt>
      <trkpt lat="43.0723" lon="2.31025">
        <ele>194.9</ele>
        <time>2021-03-21T12:22:41Z</time>
      </trkpt>
      <trkpt lat="43.07226" lon="2.31018">
        <ele>194.9</ele>
        <time>2021-03-21T12:22:42Z</time>
      </trkpt>
      <trkpt lat="43.0722" lon="2.31012">
        <ele>194.9</ele>
        <time>2021-03-21T12:22:43Z</time>
      </trkpt>
      <trkpt lat="43.07207" lon="2.31004">
        <ele>195</ele>
        <time>2021-03-21T12:22:45Z</time>
      </trkpt>
      <trkpt lat="43.07196" lon="2.30996">
        <ele>195.1</ele>
        <time>2021-03-21T12:22:47Z</time>
      </trkpt>
      <trkpt lat="43.07191" lon="2.3099">
        <ele>195.1</ele>
        <time>2021-03-21T12:22:48Z</time>
      </trkpt>
      <trkpt lat="43.07183" lon="2.30976">
        <ele>195.4</ele>
        <time>2021-03-21T12:22:50Z</time>
      </trkpt>
      <trkpt lat="43.07182" lon="2.30967">
        <ele>195.5</ele>
        <time>2021-03-21T12:22:51Z</time>
      </trkpt>
      <trkpt lat="43.07183" lon="2.3095">
        <ele>195.6</ele>
        <time>2021-03-21T12:22:53Z</time>
      </trkpt>
      <trkpt lat="43.07183" lon="2.30941">
        <ele>195.7</ele>
        <time>2021-03-21T12:22:54Z</time>
      </trkpt>
      <trkpt lat="43.07184" lon="2.30924">
        <ele>195.9</ele>
        <time>2021-03-21T12:22:56Z</time>
      </trkpt>
      <trkpt lat="43.07184" lon="2.3091">
        <ele>196.2</ele>
        <time>2021-03-21T12:22:58Z</time>
      </trkpt>
      <trkpt lat="43.07184" lon="2.30896">
        <ele>196.5</ele>
        <time>2021-03-21T12:23:00Z</time>
      </trkpt>
      <trkpt lat="43.07183" lon="2.30882">
        <ele>196.8</ele>
        <time>2021-03-21T12:23:02Z</time>
      </trkpt>
      <trkpt lat="43.07183" lon="2.30875">
        <ele>197</ele>
        <time>2021-03-21T12:23:03Z</time>
      </trkpt>
      <trkpt lat="43.07183" lon="2.30869">
        <ele>197.1</ele>
        <time>2021-03-21T12:23:04Z</time>
      </trkpt>
      <trkpt lat="43.07184" lon="2.30856">
        <ele>197.5</ele>
        <time>2021-03-21T12:23:06Z</time>
      </trkpt>
      <trkpt lat="43.07185" lon="2.30849">
        <ele>197.7</ele>
        <time>2021-03-21T12:23:07Z</time>
      </trkpt>
      <trkpt lat="43.07188" lon="2.30836">
        <ele>198.1</ele>
        <time>2021-03-21T12:23:09Z</time>
      </trkpt>
      <trkpt lat="43.07193" lon="2.30824">
        <ele>198.4</ele>
        <time>2021-03-21T12:23:11Z</time>
      </trkpt>
      <trkpt lat="43.07199" lon="2.30813">
        <ele>198.8</ele>
        <time>2021-03-21T12:23:13Z</time>
      </trkpt>
      <trkpt lat="43.07203" lon="2.30808">
        <ele>199</ele>
        <time>2021-03-21T12:23:14Z</time>
      </trkpt>
      <trkpt lat="43.07211" lon="2.308">
        <ele>199.3</ele>
        <time>2021-03-21T12:23:16Z</time>
      </trkpt>
      <trkpt lat="43.07215" lon="2.30797">
        <ele>199.4</ele>
        <time>2021-03-21T12:23:17Z</time>
      </trkpt>
      <trkpt lat="43.07219" lon="2.30794">
        <ele>199.6</ele>
        <time>2021-03-21T12:23:18Z</time>
      </trkpt>
      <trkpt lat="43.07227" lon="2.30787">
        <ele>200</ele>
        <time>2021-03-21T12:23:20Z</time>
      </trkpt>
      <trkpt lat="43.07234" lon="2.30781">
        <ele>200.3</ele>
        <time>2021-03-21T12:23:22Z</time>
      </trkpt>
      <trkpt lat="43.07237" lon="2.30778">
        <ele>200.5</ele>
        <time>2021-03-21T12:23:23Z</time>
      </trkpt>
      <trkpt lat="43.07244" lon="2.30772">
        <ele>200.8</ele>
        <time>2021-03-21T12:23:25Z</time>
      </trkpt>
      <trkpt lat="43.07247" lon="2.30768">
        <ele>201</ele>
        <time>2021-03-21T12:23:26Z</time>
      </trkpt>
      <trkpt lat="43.07253" lon="2.30761">
        <ele>201.3</ele>
        <time>2021-03-21T12:23:28Z</time>
      </trkpt>
      <trkpt lat="43.07258" lon="2.30754">
        <ele>201.6</ele>
        <time>2021-03-21T12:23:29Z</time>
      </trkpt>
      <trkpt lat="43.07262" lon="2.30748">
        <ele>201.8</ele>
        <time>2021-03-21T12:23:31Z</time>
      </trkpt>
      <trkpt lat="43.07267" lon="2.30745">
        <ele>202.1</ele>
        <time>2021-03-21T12:23:32Z</time>
      </trkpt>
      <trkpt lat="43.07271" lon="2.30741">
        <ele>202.3</ele>
        <time>2021-03-21T12:23:33Z</time>
      </trkpt>
      <trkpt lat="43.07275" lon="2.30738">
        <ele>202.6</ele>
        <time>2021-03-21T12:23:34Z</time>
      </trkpt>
      <trkpt lat="43.07279" lon="2.30734">
        <ele>202.8</ele>
        <time>2021-03-21T12:23:36Z</time>
      </trkpt>
      <trkpt lat="43.07283" lon="2.30732">
        <ele>203</ele>
        <time>2021-03-21T12:23:37Z</time>
      </trkpt>
      <trkpt lat="43.07287" lon="2.30728">
        <ele>203.3</ele>
        <time>2021-03-21T12:23:39Z</time>
      </trkpt>
      <trkpt lat="43.07291" lon="2.30724">
        <ele>203.6</ele>
        <time>2021-03-21T12:23:40Z</time>
      </trkpt>
      <trkpt lat="43.07294" lon="2.30723">
        <ele>203.7</ele>
        <time>2021-03-21T12:23:42Z</time>
      </trkpt>
      <trkpt lat="43.07297" lon="2.30721">
        <ele>203.9</ele>
        <time>2021-03-21T12:23:43Z</time>
      </trkpt>
      <trkpt lat="43.073" lon="2.30719">
        <ele>204.1</ele>
        <time>2021-03-21T12:23:44Z</time>
      </trkpt>
      <trkpt lat="43.07303" lon="2.30716">
        <ele>204.3</ele>
        <time>2021-03-21T12:23:45Z</time>
      </trkpt>
      <trkpt lat="43.07308" lon="2.30711">
        <ele>204.6</ele>
        <time>2021-03-21T12:23:47Z</time>
      </trkpt>
      <trkpt lat="43.07312" lon="2.30708">
        <ele>204.8</ele>
        <time>2021-03-21T12:23:48Z</time>
      </trkpt>
      <trkpt lat="43.07316" lon="2.30703">
        <ele>205.1</ele>
        <time>2021-03-21T12:23:49Z</time>
      </trkpt>
      <trkpt lat="43.0732" lon="2.30699">
        <ele>205.4</ele>
        <time>2021-03-21T12:23:50Z</time>
      </trkpt>
      <trkpt lat="43.07324" lon="2.30695">
        <ele>205.6</ele>
        <time>2021-03-21T12:23:52Z</time>
      </trkpt>
      <trkpt lat="43.07328" lon="2.30692">
        <ele>205.9</ele>
        <time>2021-03-21T12:23:53Z</time>
      </trkpt>
      <trkpt lat="43.07332" lon="2.30687">
        <ele>206.2</ele>
        <time>2021-03-21T12:23:54Z</time>
      </trkpt>
      <trkpt lat="43.07336" lon="2.30683">
        <ele>206.4</ele>
        <time>2021-03-21T12:23:55Z</time>
      </trkpt>
      <trkpt lat="43.0734" lon="2.3068">
        <ele>206.7</ele>
        <time>2021-03-21T12:23:56Z</time>
      </trkpt>
      <trkpt lat="43.07345" lon="2.30675">
        <ele>207</ele>
        <time>2021-03-21T12:23:58Z</time>
      </trkpt>
      <trkpt lat="43.0735" lon="2.30671">
        <ele>207.3</ele>
        <time>2021-03-21T12:23:59Z</time>
      </trkpt>
      <trkpt lat="43.07354" lon="2.30667">
        <ele>207.6</ele>
        <time>2021-03-21T12:24:00Z</time>
      </trkpt>
      <trkpt lat="43.0736" lon="2.30661">
        <ele>207.9</ele>
        <time>2021-03-21T12:24:02Z</time>
      </trkpt>
      <trkpt lat="43.07363" lon="2.30657">
        <ele>208.1</ele>
        <time>2021-03-21T12:24:03Z</time>
      </trkpt>
      <trkpt lat="43.07367" lon="2.30654">
        <ele>208.4</ele>
        <time>2021-03-21T12:24:04Z</time>
      </trkpt>
      <trkpt lat="43.07373" lon="2.30649">
        <ele>208.8</ele>
        <time>2021-03-21T12:24:06Z</time>
      </trkpt>
      <trkpt lat="43.07376" lon="2.30646">
        <ele>209.1</ele>
        <time>2021-03-21T12:24:07Z</time>
      </trkpt>
      <trkpt lat="43.07379" lon="2.30643">
        <ele>209.3</ele>
        <time>2021-03-21T12:24:08Z</time>
      </trkpt>
      <trkpt lat="43.07382" lon="2.30641">
        <ele>209.5</ele>
        <time>2021-03-21T12:24:09Z</time>
      </trkpt>
      <trkpt lat="43.07387" lon="2.30634">
        <ele>209.9</ele>
        <time>2021-03-21T12:24:11Z</time>
      </trkpt>
      <trkpt lat="43.07391" lon="2.3063">
        <ele>210.2</ele>
        <time>2021-03-21T12:24:12Z</time>
      </trkpt>
      <trkpt lat="43.07394" lon="2.30627">
        <ele>210.4</ele>
        <time>2021-03-21T12:24:13Z</time>
      </trkpt>
      <trkpt lat="43.07397" lon="2.30621">
        <ele>210.8</ele>
        <time>2021-03-21T12:24:15Z</time>
      </trkpt>
      <trkpt lat="43.07401" lon="2.30614">
        <ele>211.2</ele>
        <time>2021-03-21T12:24:16Z</time>
      </trkpt>
      <trkpt lat="43.07404" lon="2.30606">
        <ele>211.6</ele>
        <time>2021-03-21T12:24:18Z</time>
      </trkpt>
      <trkpt lat="43.07406" lon="2.30599">
        <ele>212</ele>
        <time>2021-03-21T12:24:19Z</time>
      </trkpt>
      <trkpt lat="43.07408" lon="2.30594">
        <ele>212.2</ele>
        <time>2021-03-21T12:24:20Z</time>
      </trkpt>
      <trkpt lat="43.07409" lon="2.30586">
        <ele>212.5</ele>
        <time>2021-03-21T12:24:22Z</time>
      </trkpt>
      <trkpt lat="43.0741" lon="2.30581">
        <ele>212.7</ele>
        <time>2021-03-21T12:24:23Z</time>
      </trkpt>
      <trkpt lat="43.07411" lon="2.30574">
        <ele>213</ele>
        <time>2021-03-21T12:24:24Z</time>
      </trkpt>
      <trkpt lat="43.07413" lon="2.30568">
        <ele>213.3</ele>
        <time>2021-03-21T12:24:25Z</time>
      </trkpt>
      <trkpt lat="43.07414" lon="2.30563">
        <ele>213.5</ele>
        <time>2021-03-21T12:24:26Z</time>
      </trkpt>
      <trkpt lat="43.07415" lon="2.30558">
        <ele>213.7</ele>
        <time>2021-03-21T12:24:27Z</time>
      </trkpt>
      <trkpt lat="43.07416" lon="2.30552">
        <ele>214</ele>
        <time>2021-03-21T12:24:28Z</time>
      </trkpt>
      <trkpt lat="43.07419" lon="2.30542">
        <ele>214.4</ele>
        <time>2021-03-21T12:24:30Z</time>
      </trkpt>
      <trkpt lat="43.07421" lon="2.30534">
        <ele>214.7</ele>
        <time>2021-03-21T12:24:32Z</time>
      </trkpt>
      <trkpt lat="43.07422" lon="2.30529">
        <ele>214.9</ele>
        <time>2021-03-21T12:24:33Z</time>
      </trkpt>
      <trkpt lat="43.07424" lon="2.30519">
        <ele>215.4</ele>
        <time>2021-03-21T12:24:35Z</time>
      </trkpt>
      <trkpt lat="43.07426" lon="2.30511">
        <ele>215.7</ele>
        <time>2021-03-21T12:24:37Z</time>
      </trkpt>
      <trkpt lat="43.07427" lon="2.30504">
        <ele>216</ele>
        <time>2021-03-21T12:24:38Z</time>
      </trkpt>
      <trkpt lat="43.07428" lon="2.30498">
        <ele>216.3</ele>
        <time>2021-03-21T12:24:39Z</time>
      </trkpt>
      <trkpt lat="43.0743" lon="2.30493">
        <ele>216.5</ele>
        <time>2021-03-21T12:24:40Z</time>
      </trkpt>
      <trkpt lat="43.07432" lon="2.30486">
        <ele>216.8</ele>
        <time>2021-03-21T12:24:42Z</time>
      </trkpt>
      <trkpt lat="43.07433" lon="2.3048">
        <ele>217.1</ele>
        <time>2021-03-21T12:24:43Z</time>
      </trkpt>
      <trkpt lat="43.07435" lon="2.30474">
        <ele>217.3</ele>
        <time>2021-03-21T12:24:45Z</time>
      </trkpt>
      <trkpt lat="43.07437" lon="2.30468">
        <ele>217.5</ele>
        <time>2021-03-21T12:24:46Z</time>
      </trkpt>
      <trkpt lat="43.07438" lon="2.30461">
        <ele>217.8</ele>
        <time>2021-03-21T12:24:47Z</time>
      </trkpt>
      <trkpt lat="43.07439" lon="2.30455">
        <ele>218.1</ele>
        <time>2021-03-21T12:24:48Z</time>
      </trkpt>
      <trkpt lat="43.07441" lon="2.30445">
        <ele>218.5</ele>
        <time>2021-03-21T12:24:50Z</time>
      </trkpt>
      <trkpt lat="43.07443" lon="2.30436">
        <ele>218.9</ele>
        <time>2021-03-21T12:24:52Z</time>
      </trkpt>
      <trkpt lat="43.07445" lon="2.3043">
        <ele>219.1</ele>
        <time>2021-03-21T12:24:53Z</time>
      </trkpt>
      <trkpt lat="43.07447" lon="2.30423">
        <ele>219.4</ele>
        <time>2021-03-21T12:24:55Z</time>
      </trkpt>
      <trkpt lat="43.07449" lon="2.30415">
        <ele>219.7</ele>
        <time>2021-03-21T12:24:56Z</time>
      </trkpt>
      <trkpt lat="43.07451" lon="2.30408">
        <ele>220</ele>
        <time>2021-03-21T12:24:58Z</time>
      </trkpt>
      <trkpt lat="43.07452" lon="2.30401">
        <ele>220.3</ele>
        <time>2021-03-21T12:24:59Z</time>
      </trkpt>
      <trkpt lat="43.07454" lon="2.30395">
        <ele>220.5</ele>
        <time>2021-03-21T12:25:00Z</time>
      </trkpt>
      <trkpt lat="43.07457" lon="2.30386">
        <ele>220.9</ele>
        <time>2021-03-21T12:25:01Z</time>
      </trkpt>
      <trkpt lat="43.07461" lon="2.30375">
        <ele>221.3</ele>
        <time>2021-03-21T12:25:03Z</time>
      </trkpt>
      <trkpt lat="43.07463" lon="2.30368">
        <ele>221.6</ele>
        <time>2021-03-21T12:25:05Z</time>
      </trkpt>
      <trkpt lat="43.07464" lon="2.30361">
        <ele>221.9</ele>
        <time>2021-03-21T12:25:06Z</time>
      </trkpt>
      <trkpt lat="43.07466" lon="2.30354">
        <ele>222.1</ele>
        <time>2021-03-21T12:25:08Z</time>
      </trkpt>
      <trkpt lat="43.07468" lon="2.30347">
        <ele>222.4</ele>
        <time>2021-03-21T12:25:09Z</time>
      </trkpt>
      <trkpt lat="43.0747" lon="2.30341">
        <ele>222.7</ele>
        <time>2021-03-21T12:25:10Z</time>
      </trkpt>
      <trkpt lat="43.07472" lon="2.30333">
        <ele>223</ele>
        <time>2021-03-21T12:25:12Z</time>
      </trkpt>
      <trkpt lat="43.07474" lon="2.30326">
        <ele>223.3</ele>
        <time>2021-03-21T12:25:13Z</time>
      </trkpt>
      <trkpt lat="43.07475" lon="2.30321">
        <ele>223.5</ele>
        <time>2021-03-21T12:25:14Z</time>
      </trkpt>
      <trkpt lat="43.07477" lon="2.30315">
        <ele>223.8</ele>
        <time>2021-03-21T12:25:16Z</time>
      </trkpt>
      <trkpt lat="43.07479" lon="2.30309">
        <ele>224</ele>
        <time>2021-03-21T12:25:17Z</time>
      </trkpt>
      <trkpt lat="43.07481" lon="2.30303">
        <ele>224.2</ele>
        <time>2021-03-21T12:25:18Z</time>
      </trkpt>
      <trkpt lat="43.07483" lon="2.30298">
        <ele>224.4</ele>
        <time>2021-03-21T12:25:19Z</time>
      </trkpt>
      <trkpt lat="43.07485" lon="2.30288">
        <ele>224.7</ele>
        <time>2021-03-21T12:25:21Z</time>
      </trkpt>
      <trkpt lat="43.07486" lon="2.30278">
        <ele>225.1</ele>
        <time>2021-03-21T12:25:23Z</time>
      </trkpt>
      <trkpt lat="43.07487" lon="2.30271">
        <ele>225.3</ele>
        <time>2021-03-21T12:25:24Z</time>
      </trkpt>
      <trkpt lat="43.07487" lon="2.30264">
        <ele>225.6</ele>
        <time>2021-03-21T12:25:25Z</time>
      </trkpt>
      <trkpt lat="43.07487" lon="2.30255">
        <ele>225.9</ele>
        <time>2021-03-21T12:25:27Z</time>
      </trkpt>
      <trkpt lat="43.07486" lon="2.30248">
        <ele>226.1</ele>
        <time>2021-03-21T12:25:28Z</time>
      </trkpt>
      <trkpt lat="43.07486" lon="2.3024">
        <ele>226.3</ele>
        <time>2021-03-21T12:25:29Z</time>
      </trkpt>
      <trkpt lat="43.07485" lon="2.30233">
        <ele>226.6</ele>
        <time>2021-03-21T12:25:31Z</time>
      </trkpt>
      <trkpt lat="43.07484" lon="2.30226">
        <ele>226.8</ele>
        <time>2021-03-21T12:25:32Z</time>
      </trkpt>
      <trkpt lat="43.07483" lon="2.30218">
        <ele>227</ele>
        <time>2021-03-21T12:25:33Z</time>
      </trkpt>
      <trkpt lat="43.07482" lon="2.30213">
        <ele>227.2</ele>
        <time>2021-03-21T12:25:34Z</time>
      </trkpt>
      <trkpt lat="43.07481" lon="2.30206">
        <ele>227.4</ele>
        <time>2021-03-21T12:25:35Z</time>
      </trkpt>
      <trkpt lat="43.07481" lon="2.302">
        <ele>227.6</ele>
        <time>2021-03-21T12:25:36Z</time>
      </trkpt>
      <trkpt lat="43.0748" lon="2.30192">
        <ele>227.8</ele>
        <time>2021-03-21T12:25:38Z</time>
      </trkpt>
      <trkpt lat="43.0748" lon="2.30184">
        <ele>228</ele>
        <time>2021-03-21T12:25:39Z</time>
      </trkpt>
      <trkpt lat="43.07479" lon="2.30178">
        <ele>228.2</ele>
        <time>2021-03-21T12:25:40Z</time>
      </trkpt>
      <trkpt lat="43.07477" lon="2.3017">
        <ele>228.4</ele>
        <time>2021-03-21T12:25:41Z</time>
      </trkpt>
      <trkpt lat="43.07476" lon="2.30162">
        <ele>228.7</ele>
        <time>2021-03-21T12:25:43Z</time>
      </trkpt>
      <trkpt lat="43.07476" lon="2.30154">
        <ele>228.9</ele>
        <time>2021-03-21T12:25:44Z</time>
      </trkpt>
      <trkpt lat="43.07476" lon="2.30148">
        <ele>229</ele>
        <time>2021-03-21T12:25:45Z</time>
      </trkpt>
      <trkpt lat="43.07475" lon="2.30141">
        <ele>229.1</ele>
        <time>2021-03-21T12:25:46Z</time>
      </trkpt>
      <trkpt lat="43.07474" lon="2.30133">
        <ele>229.3</ele>
        <time>2021-03-21T12:25:48Z</time>
      </trkpt>
      <trkpt lat="43.07474" lon="2.30122">
        <ele>229.5</ele>
        <time>2021-03-21T12:25:49Z</time>
      </trkpt>
      <trkpt lat="43.07473" lon="2.30108">
        <ele>229.7</ele>
        <time>2021-03-21T12:25:51Z</time>
      </trkpt>
      <trkpt lat="43.07474" lon="2.30102">
        <ele>229.8</ele>
        <time>2021-03-21T12:25:52Z</time>
      </trkpt>
      <trkpt lat="43.07475" lon="2.30095">
        <ele>229.9</ele>
        <time>2021-03-21T12:25:53Z</time>
      </trkpt>
      <trkpt lat="43.07477" lon="2.30082">
        <ele>230.5</ele>
        <time>2021-03-21T12:25:55Z</time>
      </trkpt>
      <trkpt lat="43.0748" lon="2.30073">
        <ele>230.9</ele>
        <time>2021-03-21T12:25:57Z</time>
      </trkpt>
      <trkpt lat="43.07483" lon="2.30069">
        <ele>231.2</ele>
        <time>2021-03-21T12:25:58Z</time>
      </trkpt>
      <trkpt lat="43.07486" lon="2.30064">
        <ele>231.5</ele>
        <time>2021-03-21T12:25:59Z</time>
      </trkpt>
      <trkpt lat="43.07489" lon="2.30057">
        <ele>231.9</ele>
        <time>2021-03-21T12:26:01Z</time>
      </trkpt>
      <trkpt lat="43.0749" lon="2.30051">
        <ele>232.2</ele>
        <time>2021-03-21T12:26:02Z</time>
      </trkpt>
      <trkpt lat="43.0749" lon="2.30044">
        <ele>232.6</ele>
        <time>2021-03-21T12:26:03Z</time>
      </trkpt>
      <trkpt lat="43.07493" lon="2.30035">
        <ele>233</ele>
        <time>2021-03-21T12:26:05Z</time>
      </trkpt>
      <trkpt lat="43.07496" lon="2.3003">
        <ele>233.2</ele>
        <time>2021-03-21T12:26:06Z</time>
      </trkpt>
      <trkpt lat="43.07496" lon="2.3002">
        <ele>233.3</ele>
        <time>2021-03-21T12:26:07Z</time>
      </trkpt>
      <trkpt lat="43.07494" lon="2.30005">
        <ele>233.6</ele>
        <time>2021-03-21T12:26:09Z</time>
      </trkpt>
      <trkpt lat="43.07488" lon="2.29994">
        <ele>233.9</ele>
        <time>2021-03-21T12:26:11Z</time>
      </trkpt>
      <trkpt lat="43.07487" lon="2.29991">
        <ele>234</ele>
        <time>2021-03-21T12:26:12Z</time>
      </trkpt>
      <trkpt lat="43.07488" lon="2.29989">
        <ele>234.1</ele>
        <time>2021-03-21T12:26:14Z</time>
      </trkpt>
      <trkpt lat="43.07488" lon="2.29984">
        <ele>234.2</ele>
        <time>2021-03-21T12:26:15Z</time>
      </trkpt>
      <trkpt lat="43.07489" lon="2.29981">
        <ele>234.2</ele>
        <time>2021-03-21T12:26:16Z</time>
      </trkpt>
      <trkpt lat="43.0749" lon="2.29966">
        <ele>234.5</ele>
        <time>2021-03-21T12:26:18Z</time>
      </trkpt>
      <trkpt lat="43.07493" lon="2.29955">
        <ele>234.6</ele>
        <time>2021-03-21T12:26:19Z</time>
      </trkpt>
      <trkpt lat="43.07495" lon="2.29946">
        <ele>234.5</ele>
        <time>2021-03-21T12:26:20Z</time>
      </trkpt>
      <trkpt lat="43.07496" lon="2.29927">
        <ele>234.4</ele>
        <time>2021-03-21T12:26:22Z</time>
      </trkpt>
      <trkpt lat="43.07496" lon="2.29909">
        <ele>234.2</ele>
        <time>2021-03-21T12:26:24Z</time>
      </trkpt>
      <trkpt lat="43.07497" lon="2.2989">
        <ele>234.1</ele>
        <time>2021-03-21T12:26:26Z</time>
      </trkpt>
      <trkpt lat="43.07497" lon="2.29881">
        <ele>234</ele>
        <time>2021-03-21T12:26:27Z</time>
      </trkpt>
      <trkpt lat="43.07498" lon="2.29865">
        <ele>234</ele>
        <time>2021-03-21T12:26:29Z</time>
      </trkpt>
      <trkpt lat="43.075" lon="2.29858">
        <ele>233.9</ele>
        <time>2021-03-21T12:26:30Z</time>
      </trkpt>
      <trkpt lat="43.07504" lon="2.29843">
        <ele>233.9</ele>
        <time>2021-03-21T12:26:32Z</time>
      </trkpt>
      <trkpt lat="43.07509" lon="2.29828">
        <ele>233.9</ele>
        <time>2021-03-21T12:26:34Z</time>
      </trkpt>
      <trkpt lat="43.07512" lon="2.29821">
        <ele>234</ele>
        <time>2021-03-21T12:26:35Z</time>
      </trkpt>
      <trkpt lat="43.07517" lon="2.29805">
        <ele>234.2</ele>
        <time>2021-03-21T12:26:37Z</time>
      </trkpt>
      <trkpt lat="43.07518" lon="2.29797">
        <ele>234.3</ele>
        <time>2021-03-21T12:26:38Z</time>
      </trkpt>
      <trkpt lat="43.07522" lon="2.29782">
        <ele>234.7</ele>
        <time>2021-03-21T12:26:40Z</time>
      </trkpt>
      <trkpt lat="43.07524" lon="2.29776">
        <ele>234.8</ele>
        <time>2021-03-21T12:26:41Z</time>
      </trkpt>
      <trkpt lat="43.07526" lon="2.29769">
        <ele>235.1</ele>
        <time>2021-03-21T12:26:42Z</time>
      </trkpt>
      <trkpt lat="43.0753" lon="2.29756">
        <ele>235.5</ele>
        <time>2021-03-21T12:26:44Z</time>
      </trkpt>
      <trkpt lat="43.07535" lon="2.29743">
        <ele>236</ele>
        <time>2021-03-21T12:26:46Z</time>
      </trkpt>
      <trkpt lat="43.07542" lon="2.29732">
        <ele>236.6</ele>
        <time>2021-03-21T12:26:48Z</time>
      </trkpt>
      <trkpt lat="43.07545" lon="2.29727">
        <ele>236.8</ele>
        <time>2021-03-21T12:26:49Z</time>
      </trkpt>
      <trkpt lat="43.07553" lon="2.29718">
        <ele>237.2</ele>
        <time>2021-03-21T12:26:51Z</time>
      </trkpt>
      <trkpt lat="43.07557" lon="2.29714">
        <ele>237.4</ele>
        <time>2021-03-21T12:26:52Z</time>
      </trkpt>
      <trkpt lat="43.07565" lon="2.29705">
        <ele>237.8</ele>
        <time>2021-03-21T12:26:54Z</time>
      </trkpt>
      <trkpt lat="43.07572" lon="2.29695">
        <ele>238.2</ele>
        <time>2021-03-21T12:26:56Z</time>
      </trkpt>
      <trkpt lat="43.07576" lon="2.29691">
        <ele>238.4</ele>
        <time>2021-03-21T12:26:57Z</time>
      </trkpt>
      <trkpt lat="43.07584" lon="2.29683">
        <ele>238.8</ele>
        <time>2021-03-21T12:26:59Z</time>
      </trkpt>
      <trkpt lat="43.07589" lon="2.29679">
        <ele>239</ele>
        <time>2021-03-21T12:27:00Z</time>
      </trkpt>
      <trkpt lat="43.07598" lon="2.29675">
        <ele>239.5</ele>
        <time>2021-03-21T12:27:02Z</time>
      </trkpt>
      <trkpt lat="43.07602" lon="2.29674">
        <ele>239.6</ele>
        <time>2021-03-21T12:27:03Z</time>
      </trkpt>
      <trkpt lat="43.07612" lon="2.29676">
        <ele>239.8</ele>
        <time>2021-03-21T12:27:05Z</time>
      </trkpt>
      <trkpt lat="43.07617" lon="2.29678">
        <ele>239.8</ele>
        <time>2021-03-21T12:27:06Z</time>
      </trkpt>
      <trkpt lat="43.07626" lon="2.29683">
        <ele>239.7</ele>
        <time>2021-03-21T12:27:08Z</time>
      </trkpt>
      <trkpt lat="43.07636" lon="2.29693">
        <ele>239.5</ele>
        <time>2021-03-21T12:27:10Z</time>
      </trkpt>
      <trkpt lat="43.07646" lon="2.29704">
        <ele>239.1</ele>
        <time>2021-03-21T12:27:12Z</time>
      </trkpt>
      <trkpt lat="43.07657" lon="2.29716">
        <ele>238.9</ele>
        <time>2021-03-21T12:27:14Z</time>
      </trkpt>
      <trkpt lat="43.07668" lon="2.29727">
        <ele>238.9</ele>
        <time>2021-03-21T12:27:16Z</time>
      </trkpt>
      <trkpt lat="43.0768" lon="2.29736">
        <ele>239</ele>
        <time>2021-03-21T12:27:18Z</time>
      </trkpt>
      <trkpt lat="43.07692" lon="2.29744">
        <ele>239</ele>
        <time>2021-03-21T12:27:20Z</time>
      </trkpt>
      <trkpt lat="43.07698" lon="2.29748">
        <ele>239</ele>
        <time>2021-03-21T12:27:21Z</time>
      </trkpt>
      <trkpt lat="43.07709" lon="2.29756">
        <ele>239</ele>
        <time>2021-03-21T12:27:23Z</time>
      </trkpt>
      <trkpt lat="43.07715" lon="2.2976">
        <ele>239.1</ele>
        <time>2021-03-21T12:27:24Z</time>
      </trkpt>
      <trkpt lat="43.07721" lon="2.29763">
        <ele>239.1</ele>
        <time>2021-03-21T12:27:25Z</time>
      </trkpt>
      <trkpt lat="43.07733" lon="2.29771">
        <ele>239.4</ele>
        <time>2021-03-21T12:27:27Z</time>
      </trkpt>
      <trkpt lat="43.07743" lon="2.29781">
        <ele>239.7</ele>
        <time>2021-03-21T12:27:29Z</time>
      </trkpt>
      <trkpt lat="43.07754" lon="2.29791">
        <ele>240</ele>
        <time>2021-03-21T12:27:31Z</time>
      </trkpt>
      <trkpt lat="43.07765" lon="2.29798">
        <ele>239.9</ele>
        <time>2021-03-21T12:27:33Z</time>
      </trkpt>
      <trkpt lat="43.07778" lon="2.29802">
        <ele>239.4</ele>
        <time>2021-03-21T12:27:35Z</time>
      </trkpt>
      <trkpt lat="43.07785" lon="2.29803">
        <ele>239</ele>
        <time>2021-03-21T12:27:36Z</time>
      </trkpt>
      <trkpt lat="43.07801" lon="2.29804">
        <ele>238.4</ele>
        <time>2021-03-21T12:27:38Z</time>
      </trkpt>
      <trkpt lat="43.07816" lon="2.29807">
        <ele>237.8</ele>
        <time>2021-03-21T12:27:40Z</time>
      </trkpt>
      <trkpt lat="43.07831" lon="2.29815">
        <ele>237.5</ele>
        <time>2021-03-21T12:27:42Z</time>
      </trkpt>
      <trkpt lat="43.07838" lon="2.2982">
        <ele>237.3</ele>
        <time>2021-03-21T12:27:43Z</time>
      </trkpt>
      <trkpt lat="43.07845" lon="2.29825">
        <ele>237.2</ele>
        <time>2021-03-21T12:27:44Z</time>
      </trkpt>
      <trkpt lat="43.07851" lon="2.2983">
        <ele>237.1</ele>
        <time>2021-03-21T12:27:45Z</time>
      </trkpt>
      <trkpt lat="43.07858" lon="2.29836">
        <ele>237</ele>
        <time>2021-03-21T12:27:46Z</time>
      </trkpt>
      <trkpt lat="43.0787" lon="2.29847">
        <ele>236.8</ele>
        <time>2021-03-21T12:27:48Z</time>
      </trkpt>
      <trkpt lat="43.07876" lon="2.29853">
        <ele>236.8</ele>
        <time>2021-03-21T12:27:49Z</time>
      </trkpt>
      <trkpt lat="43.07882" lon="2.29859">
        <ele>236.8</ele>
        <time>2021-03-21T12:27:50Z</time>
      </trkpt>
      <trkpt lat="43.07894" lon="2.29871">
        <ele>236.8</ele>
        <time>2021-03-21T12:27:52Z</time>
      </trkpt>
      <trkpt lat="43.07901" lon="2.29877">
        <ele>236.8</ele>
        <time>2021-03-21T12:27:53Z</time>
      </trkpt>
      <trkpt lat="43.07913" lon="2.29889">
        <ele>236.9</ele>
        <time>2021-03-21T12:27:55Z</time>
      </trkpt>
      <trkpt lat="43.07919" lon="2.29894">
        <ele>237</ele>
        <time>2021-03-21T12:27:56Z</time>
      </trkpt>
      <trkpt lat="43.07932" lon="2.29905">
        <ele>237.2</ele>
        <time>2021-03-21T12:27:58Z</time>
      </trkpt>
      <trkpt lat="43.07938" lon="2.2991">
        <ele>237.3</ele>
        <time>2021-03-21T12:27:59Z</time>
      </trkpt>
      <trkpt lat="43.0795" lon="2.29919">
        <ele>237.7</ele>
        <time>2021-03-21T12:28:01Z</time>
      </trkpt>
      <trkpt lat="43.07955" lon="2.29925">
        <ele>237.9</ele>
        <time>2021-03-21T12:28:02Z</time>
      </trkpt>
      <trkpt lat="43.07959" lon="2.29932">
        <ele>238.2</ele>
        <time>2021-03-21T12:28:03Z</time>
      </trkpt>
      <trkpt lat="43.07966" lon="2.29945">
        <ele>238.9</ele>
        <time>2021-03-21T12:28:05Z</time>
      </trkpt>
      <trkpt lat="43.07968" lon="2.29952">
        <ele>239.2</ele>
        <time>2021-03-21T12:28:06Z</time>
      </trkpt>
      <trkpt lat="43.07973" lon="2.29967">
        <ele>239.9</ele>
        <time>2021-03-21T12:28:08Z</time>
      </trkpt>
      <trkpt lat="43.07977" lon="2.2998">
        <ele>240.7</ele>
        <time>2021-03-21T12:28:10Z</time>
      </trkpt>
      <trkpt lat="43.07979" lon="2.29987">
        <ele>241.1</ele>
        <time>2021-03-21T12:28:11Z</time>
      </trkpt>
      <trkpt lat="43.0798" lon="2.29994">
        <ele>241.5</ele>
        <time>2021-03-21T12:28:12Z</time>
      </trkpt>
      <trkpt lat="43.07982" lon="2.3">
        <ele>241.9</ele>
        <time>2021-03-21T12:28:13Z</time>
      </trkpt>
      <trkpt lat="43.07985" lon="2.30011">
        <ele>242.6</ele>
        <time>2021-03-21T12:28:15Z</time>
      </trkpt>
      <trkpt lat="43.07987" lon="2.30016">
        <ele>243</ele>
        <time>2021-03-21T12:28:16Z</time>
      </trkpt>
      <trkpt lat="43.07991" lon="2.30026">
        <ele>243.8</ele>
        <time>2021-03-21T12:28:18Z</time>
      </trkpt>
      <trkpt lat="43.07993" lon="2.3003">
        <ele>244.1</ele>
        <time>2021-03-21T12:28:19Z</time>
      </trkpt>
      <trkpt lat="43.07995" lon="2.30035">
        <ele>244.5</ele>
        <time>2021-03-21T12:28:20Z</time>
      </trkpt>
      <trkpt lat="43.07999" lon="2.3004">
        <ele>245</ele>
        <time>2021-03-21T12:28:21Z</time>
      </trkpt>
      <trkpt lat="43.08001" lon="2.30039">
        <ele>245.2</ele>
        <time>2021-03-21T12:28:22Z</time>
      </trkpt>
      <trkpt lat="43.08003" lon="2.30044">
        <ele>245.5</ele>
        <time>2021-03-21T12:28:24Z</time>
      </trkpt>
      <trkpt lat="43.08005" lon="2.3005">
        <ele>245.9</ele>
        <time>2021-03-21T12:28:25Z</time>
      </trkpt>
      <trkpt lat="43.08009" lon="2.30055">
        <ele>246.2</ele>
        <time>2021-03-21T12:28:26Z</time>
      </trkpt>
      <trkpt lat="43.08012" lon="2.30061">
        <ele>246.6</ele>
        <time>2021-03-21T12:28:27Z</time>
      </trkpt>
      <trkpt lat="43.08014" lon="2.30066">
        <ele>247</ele>
        <time>2021-03-21T12:28:28Z</time>
      </trkpt>
      <trkpt lat="43.08018" lon="2.30077">
        <ele>247.7</ele>
        <time>2021-03-21T12:28:30Z</time>
      </trkpt>
      <trkpt lat="43.08021" lon="2.30085">
        <ele>248.2</ele>
        <time>2021-03-21T12:28:32Z</time>
      </trkpt>
      <trkpt lat="43.08024" lon="2.30093">
        <ele>248.8</ele>
        <time>2021-03-21T12:28:33Z</time>
      </trkpt>
      <trkpt lat="43.08026" lon="2.30098">
        <ele>249.1</ele>
        <time>2021-03-21T12:28:34Z</time>
      </trkpt>
      <trkpt lat="43.08029" lon="2.30108">
        <ele>249.7</ele>
        <time>2021-03-21T12:28:36Z</time>
      </trkpt>
      <trkpt lat="43.08031" lon="2.30114">
        <ele>250</ele>
        <time>2021-03-21T12:28:37Z</time>
      </trkpt>
      <trkpt lat="43.08032" lon="2.30119">
        <ele>250.3</ele>
        <time>2021-03-21T12:28:38Z</time>
      </trkpt>
      <trkpt lat="43.08034" lon="2.30125">
        <ele>250.6</ele>
        <time>2021-03-21T12:28:39Z</time>
      </trkpt>
      <trkpt lat="43.08036" lon="2.30131">
        <ele>250.9</ele>
        <time>2021-03-21T12:28:41Z</time>
      </trkpt>
      <trkpt lat="43.08038" lon="2.30137">
        <ele>251.2</ele>
        <time>2021-03-21T12:28:42Z</time>
      </trkpt>
      <trkpt lat="43.0804" lon="2.30142">
        <ele>251.5</ele>
        <time>2021-03-21T12:28:43Z</time>
      </trkpt>
      <trkpt lat="43.08042" lon="2.3015">
        <ele>251.9</ele>
        <time>2021-03-21T12:28:44Z</time>
      </trkpt>
      <trkpt lat="43.08044" lon="2.30156">
        <ele>252.1</ele>
        <time>2021-03-21T12:28:45Z</time>
      </trkpt>
      <trkpt lat="43.08046" lon="2.30164">
        <ele>252.6</ele>
        <time>2021-03-21T12:28:47Z</time>
      </trkpt>
      <trkpt lat="43.08049" lon="2.30171">
        <ele>252.9</ele>
        <time>2021-03-21T12:28:48Z</time>
      </trkpt>
      <trkpt lat="43.08051" lon="2.30178">
        <ele>253.2</ele>
        <time>2021-03-21T12:28:50Z</time>
      </trkpt>
      <trkpt lat="43.08053" lon="2.30185">
        <ele>253.5</ele>
        <time>2021-03-21T12:28:51Z</time>
      </trkpt>
      <trkpt lat="43.08055" lon="2.3019">
        <ele>253.8</ele>
        <time>2021-03-21T12:28:52Z</time>
      </trkpt>
      <trkpt lat="43.08056" lon="2.30195">
        <ele>254.1</ele>
        <time>2021-03-21T12:28:53Z</time>
      </trkpt>
      <trkpt lat="43.08059" lon="2.30203">
        <ele>254.5</ele>
        <time>2021-03-21T12:28:54Z</time>
      </trkpt>
      <trkpt lat="43.08062" lon="2.30211">
        <ele>255</ele>
        <time>2021-03-21T12:28:56Z</time>
      </trkpt>
      <trkpt lat="43.08064" lon="2.30217">
        <ele>255.4</ele>
        <time>2021-03-21T12:28:57Z</time>
      </trkpt>
      <trkpt lat="43.08068" lon="2.30222">
        <ele>255.6</ele>
        <time>2021-03-21T12:28:58Z</time>
      </trkpt>
      <trkpt lat="43.08073" lon="2.30227">
        <ele>256</ele>
        <time>2021-03-21T12:29:00Z</time>
      </trkpt>
      <trkpt lat="43.08078" lon="2.3023">
        <ele>256.3</ele>
        <time>2021-03-21T12:29:01Z</time>
      </trkpt>
      <trkpt lat="43.08083" lon="2.30231">
        <ele>256.6</ele>
        <time>2021-03-21T12:29:02Z</time>
      </trkpt>
      <trkpt lat="43.08089" lon="2.30231">
        <ele>256.9</ele>
        <time>2021-03-21T12:29:04Z</time>
      </trkpt>
      <trkpt lat="43.08094" lon="2.3023">
        <ele>257.2</ele>
        <time>2021-03-21T12:29:05Z</time>
      </trkpt>
      <trkpt lat="43.08098" lon="2.30229">
        <ele>257.4</ele>
        <time>2021-03-21T12:29:06Z</time>
      </trkpt>
      <trkpt lat="43.08103" lon="2.30228">
        <ele>257.8</ele>
        <time>2021-03-21T12:29:08Z</time>
      </trkpt>
      <trkpt lat="43.08108" lon="2.30227">
        <ele>258.1</ele>
        <time>2021-03-21T12:29:09Z</time>
      </trkpt>
      <trkpt lat="43.08111" lon="2.30226">
        <ele>258.3</ele>
        <time>2021-03-21T12:29:10Z</time>
      </trkpt>
      <trkpt lat="43.08115" lon="2.30225">
        <ele>258.6</ele>
        <time>2021-03-21T12:29:11Z</time>
      </trkpt>
      <trkpt lat="43.0812" lon="2.30225">
        <ele>258.9</ele>
        <time>2021-03-21T12:29:13Z</time>
      </trkpt>
      <trkpt lat="43.08125" lon="2.30224">
        <ele>259.3</ele>
        <time>2021-03-21T12:29:14Z</time>
      </trkpt>
      <trkpt lat="43.0813" lon="2.30223">
        <ele>259.7</ele>
        <time>2021-03-21T12:29:16Z</time>
      </trkpt>
      <trkpt lat="43.08135" lon="2.30223">
        <ele>260</ele>
        <time>2021-03-21T12:29:17Z</time>
      </trkpt>
      <trkpt lat="43.08139" lon="2.30224">
        <ele>260.3</ele>
        <time>2021-03-21T12:29:18Z</time>
      </trkpt>
      <trkpt lat="43.08142" lon="2.30225">
        <ele>260.5</ele>
        <time>2021-03-21T12:29:19Z</time>
      </trkpt>
      <trkpt lat="43.08147" lon="2.30228">
        <ele>260.8</ele>
        <time>2021-03-21T12:29:21Z</time>
      </trkpt>
      <trkpt lat="43.08151" lon="2.3023">
        <ele>261</ele>
        <time>2021-03-21T12:29:22Z</time>
      </trkpt>
      <trkpt lat="43.08155" lon="2.30234">
        <ele>261.3</ele>
        <time>2021-03-21T12:29:23Z</time>
      </trkpt>
      <trkpt lat="43.0816" lon="2.30238">
        <ele>261.6</ele>
        <time>2021-03-21T12:29:25Z</time>
      </trkpt>
      <trkpt lat="43.08163" lon="2.3024">
        <ele>261.8</ele>
        <time>2021-03-21T12:29:26Z</time>
      </trkpt>
      <trkpt lat="43.08167" lon="2.30243">
        <ele>262.1</ele>
        <time>2021-03-21T12:29:27Z</time>
      </trkpt>
      <trkpt lat="43.08171" lon="2.30245">
        <ele>262.3</ele>
        <time>2021-03-21T12:29:28Z</time>
      </trkpt>
      <trkpt lat="43.08179" lon="2.30246">
        <ele>262.6</ele>
        <time>2021-03-21T12:29:30Z</time>
      </trkpt>
      <trkpt lat="43.08186" lon="2.30245">
        <ele>263</ele>
        <time>2021-03-21T12:29:32Z</time>
      </trkpt>
      <trkpt lat="43.08193" lon="2.30242">
        <ele>263.3</ele>
        <time>2021-03-21T12:29:33Z</time>
      </trkpt>
      <trkpt lat="43.08202" lon="2.30238">
        <ele>263.6</ele>
        <time>2021-03-21T12:29:35Z</time>
      </trkpt>
      <trkpt lat="43.08207" lon="2.30236">
        <ele>263.8</ele>
        <time>2021-03-21T12:29:36Z</time>
      </trkpt>
      <trkpt lat="43.08211" lon="2.30234">
        <ele>263.9</ele>
        <time>2021-03-21T12:29:37Z</time>
      </trkpt>
      <trkpt lat="43.08221" lon="2.30233">
        <ele>264.2</ele>
        <time>2021-03-21T12:29:39Z</time>
      </trkpt>
      <trkpt lat="43.0823" lon="2.30233">
        <ele>264.5</ele>
        <time>2021-03-21T12:29:41Z</time>
      </trkpt>
      <trkpt lat="43.08238" lon="2.30237">
        <ele>264.7</ele>
        <time>2021-03-21T12:29:43Z</time>
      </trkpt>
      <trkpt lat="43.08242" lon="2.30239">
        <ele>264.8</ele>
        <time>2021-03-21T12:29:44Z</time>
      </trkpt>
      <trkpt lat="43.0825" lon="2.30245">
        <ele>265.1</ele>
        <time>2021-03-21T12:29:46Z</time>
      </trkpt>
      <trkpt lat="43.08255" lon="2.3025">
        <ele>265.2</ele>
        <time>2021-03-21T12:29:48Z</time>
      </trkpt>
      <trkpt lat="43.0826" lon="2.30251">
        <ele>265.4</ele>
        <time>2021-03-21T12:29:49Z</time>
      </trkpt>
      <trkpt lat="43.08265" lon="2.30251">
        <ele>265.5</ele>
        <time>2021-03-21T12:29:50Z</time>
      </trkpt>
      <trkpt lat="43.08269" lon="2.30249">
        <ele>265.5</ele>
        <time>2021-03-21T12:29:51Z</time>
      </trkpt>
      <trkpt lat="43.08276" lon="2.3024">
        <ele>265.5</ele>
        <time>2021-03-21T12:29:52Z</time>
      </trkpt>
      <trkpt lat="43.08283" lon="2.30226">
        <ele>265.2</ele>
        <time>2021-03-21T12:29:54Z</time>
      </trkpt>
      <trkpt lat="43.08286" lon="2.30219">
        <ele>265.1</ele>
        <time>2021-03-21T12:29:55Z</time>
      </trkpt>
      <trkpt lat="43.08293" lon="2.30206">
        <ele>264.8</ele>
        <time>2021-03-21T12:29:57Z</time>
      </trkpt>
      <trkpt lat="43.08297" lon="2.302">
        <ele>264.6</ele>
        <time>2021-03-21T12:29:58Z</time>
      </trkpt>
      <trkpt lat="43.08304" lon="2.30187">
        <ele>264.3</ele>
        <time>2021-03-21T12:30:00Z</time>
      </trkpt>
      <trkpt lat="43.08313" lon="2.30175">
        <ele>264</ele>
        <time>2021-03-21T12:30:02Z</time>
      </trkpt>
      <trkpt lat="43.08323" lon="2.30164">
        <ele>263.8</ele>
        <time>2021-03-21T12:30:04Z</time>
      </trkpt>
      <trkpt lat="43.08334" lon="2.30159">
        <ele>263.6</ele>
        <time>2021-03-21T12:30:06Z</time>
      </trkpt>
      <trkpt lat="43.0834" lon="2.30159">
        <ele>263.5</ele>
        <time>2021-03-21T12:30:07Z</time>
      </trkpt>
      <trkpt lat="43.08347" lon="2.3016">
        <ele>263.4</ele>
        <time>2021-03-21T12:30:08Z</time>
      </trkpt>
      <trkpt lat="43.08359" lon="2.30164">
        <ele>263.4</ele>
        <time>2021-03-21T12:30:10Z</time>
      </trkpt>
      <trkpt lat="43.08366" lon="2.30166">
        <ele>263.4</ele>
        <time>2021-03-21T12:30:11Z</time>
      </trkpt>
      <trkpt lat="43.08378" lon="2.30169">
        <ele>263.4</ele>
        <time>2021-03-21T12:30:13Z</time>
      </trkpt>
      <trkpt lat="43.0839" lon="2.30169">
        <ele>263.5</ele>
        <time>2021-03-21T12:30:15Z</time>
      </trkpt>
      <trkpt lat="43.08396" lon="2.30169">
        <ele>263.5</ele>
        <time>2021-03-21T12:30:16Z</time>
      </trkpt>
      <trkpt lat="43.08402" lon="2.30167">
        <ele>263.6</ele>
        <time>2021-03-21T12:30:17Z</time>
      </trkpt>
      <trkpt lat="43.08413" lon="2.30162">
        <ele>263.7</ele>
        <time>2021-03-21T12:30:19Z</time>
      </trkpt>
      <trkpt lat="43.08418" lon="2.30158">
        <ele>263.7</ele>
        <time>2021-03-21T12:30:20Z</time>
      </trkpt>
      <trkpt lat="43.08423" lon="2.30144">
        <ele>263.8</ele>
        <time>2021-03-21T12:30:22Z</time>
      </trkpt>
      <trkpt lat="43.08419" lon="2.3013">
        <ele>263.9</ele>
        <time>2021-03-21T12:30:24Z</time>
      </trkpt>
      <trkpt lat="43.08417" lon="2.30124">
        <ele>263.9</ele>
        <time>2021-03-21T12:30:25Z</time>
      </trkpt>
      <trkpt lat="43.0842" lon="2.3012">
        <ele>263.1</ele>
        <time>2021-03-21T12:30:27Z</time>
      </trkpt>
      <trkpt lat="43.08424" lon="2.30122">
        <ele>262.8</ele>
        <time>2021-03-21T12:30:28Z</time>
      </trkpt>
      <trkpt lat="43.08431" lon="2.3014">
        <ele>261.7</ele>
        <time>2021-03-21T12:30:30Z</time>
      </trkpt>
      <trkpt lat="43.08433" lon="2.30151">
        <ele>261.1</ele>
        <time>2021-03-21T12:30:31Z</time>
      </trkpt>
      <trkpt lat="43.08434" lon="2.30174">
        <ele>259.8</ele>
        <time>2021-03-21T12:30:33Z</time>
      </trkpt>
      <trkpt lat="43.08426" lon="2.30198">
        <ele>257.9</ele>
        <time>2021-03-21T12:30:35Z</time>
      </trkpt>
      <trkpt lat="43.08411" lon="2.30214">
        <ele>256.5</ele>
        <time>2021-03-21T12:30:37Z</time>
      </trkpt>
      <trkpt lat="43.08393" lon="2.30223">
        <ele>255.6</ele>
        <time>2021-03-21T12:30:39Z</time>
      </trkpt>
      <trkpt lat="43.08384" lon="2.30228">
        <ele>255.2</ele>
        <time>2021-03-21T12:30:40Z</time>
      </trkpt>
      <trkpt lat="43.08375" lon="2.30233">
        <ele>254.7</ele>
        <time>2021-03-21T12:30:41Z</time>
      </trkpt>
      <trkpt lat="43.08363" lon="2.30255">
        <ele>253</ele>
        <time>2021-03-21T12:30:43Z</time>
      </trkpt>
      <trkpt lat="43.08367" lon="2.30282">
        <ele>250.6</ele>
        <time>2021-03-21T12:30:45Z</time>
      </trkpt>
      <trkpt lat="43.08384" lon="2.30304">
        <ele>248.1</ele>
        <time>2021-03-21T12:30:47Z</time>
      </trkpt>
      <trkpt lat="43.08394" lon="2.30314">
        <ele>246.9</ele>
        <time>2021-03-21T12:30:48Z</time>
      </trkpt>
      <trkpt lat="43.08412" lon="2.30336">
        <ele>244.5</ele>
        <time>2021-03-21T12:30:50Z</time>
      </trkpt>
      <trkpt lat="43.08421" lon="2.30348">
        <ele>243.3</ele>
        <time>2021-03-21T12:30:51Z</time>
      </trkpt>
      <trkpt lat="43.08429" lon="2.30361">
        <ele>242.1</ele>
        <time>2021-03-21T12:30:52Z</time>
      </trkpt>
      <trkpt lat="43.08437" lon="2.30375">
        <ele>240.9</ele>
        <time>2021-03-21T12:30:53Z</time>
      </trkpt>
      <trkpt lat="43.08445" lon="2.30389">
        <ele>239.7</ele>
        <time>2021-03-21T12:30:54Z</time>
      </trkpt>
      <trkpt lat="43.08452" lon="2.30403">
        <ele>238.6</ele>
        <time>2021-03-21T12:30:55Z</time>
      </trkpt>
      <trkpt lat="43.08465" lon="2.30434">
        <ele>236.5</ele>
        <time>2021-03-21T12:30:57Z</time>
      </trkpt>
      <trkpt lat="43.08475" lon="2.30467">
        <ele>234.3</ele>
        <time>2021-03-21T12:30:59Z</time>
      </trkpt>
      <trkpt lat="43.08482" lon="2.30484">
        <ele>233.1</ele>
        <time>2021-03-21T12:31:00Z</time>
      </trkpt>
      <trkpt lat="43.08501" lon="2.3051">
        <ele>230.4</ele>
        <time>2021-03-21T12:31:02Z</time>
      </trkpt>
      <trkpt lat="43.08524" lon="2.3053">
        <ele>227.8</ele>
        <time>2021-03-21T12:31:04Z</time>
      </trkpt>
      <trkpt lat="43.08536" lon="2.3054">
        <ele>226.5</ele>
        <time>2021-03-21T12:31:05Z</time>
      </trkpt>
      <trkpt lat="43.08558" lon="2.30563">
        <ele>224.1</ele>
        <time>2021-03-21T12:31:07Z</time>
      </trkpt>
      <trkpt lat="43.08576" lon="2.30591">
        <ele>221.8</ele>
        <time>2021-03-21T12:31:09Z</time>
      </trkpt>
      <trkpt lat="43.08585" lon="2.30606">
        <ele>220.6</ele>
        <time>2021-03-21T12:31:10Z</time>
      </trkpt>
      <trkpt lat="43.08604" lon="2.30633">
        <ele>218</ele>
        <time>2021-03-21T12:31:12Z</time>
      </trkpt>
      <trkpt lat="43.08625" lon="2.30658">
        <ele>215.4</ele>
        <time>2021-03-21T12:31:14Z</time>
      </trkpt>
      <trkpt lat="43.08647" lon="2.30682">
        <ele>213.1</ele>
        <time>2021-03-21T12:31:16Z</time>
      </trkpt>
      <trkpt lat="43.08659" lon="2.30693">
        <ele>211.9</ele>
        <time>2021-03-21T12:31:17Z</time>
      </trkpt>
      <trkpt lat="43.08672" lon="2.30701">
        <ele>210.7</ele>
        <time>2021-03-21T12:31:18Z</time>
      </trkpt>
      <trkpt lat="43.08685" lon="2.30708">
        <ele>209.6</ele>
        <time>2021-03-21T12:31:19Z</time>
      </trkpt>
      <trkpt lat="43.08712" lon="2.3072">
        <ele>207.3</ele>
        <time>2021-03-21T12:31:21Z</time>
      </trkpt>
      <trkpt lat="43.0874" lon="2.3073">
        <ele>205.2</ele>
        <time>2021-03-21T12:31:23Z</time>
      </trkpt>
      <trkpt lat="43.08754" lon="2.30734">
        <ele>204.2</ele>
        <time>2021-03-21T12:31:24Z</time>
      </trkpt>
      <trkpt lat="43.08768" lon="2.30735">
        <ele>203.2</ele>
        <time>2021-03-21T12:31:25Z</time>
      </trkpt>
      <trkpt lat="43.08796" lon="2.30735">
        <ele>201.5</ele>
        <time>2021-03-21T12:31:27Z</time>
      </trkpt>
      <trkpt lat="43.08823" lon="2.30741">
        <ele>199.6</ele>
        <time>2021-03-21T12:31:29Z</time>
      </trkpt>
      <trkpt lat="43.08836" lon="2.30746">
        <ele>198.8</ele>
        <time>2021-03-21T12:31:30Z</time>
      </trkpt>
      <trkpt lat="43.08849" lon="2.30753">
        <ele>198.1</ele>
        <time>2021-03-21T12:31:31Z</time>
      </trkpt>
      <trkpt lat="43.08875" lon="2.30767">
        <ele>196.8</ele>
        <time>2021-03-21T12:31:33Z</time>
      </trkpt>
      <trkpt lat="43.08901" lon="2.3078">
        <ele>195.4</ele>
        <time>2021-03-21T12:31:35Z</time>
      </trkpt>
      <trkpt lat="43.08927" lon="2.30792">
        <ele>193.9</ele>
        <time>2021-03-21T12:31:37Z</time>
      </trkpt>
      <trkpt lat="43.0894" lon="2.30797">
        <ele>193.2</ele>
        <time>2021-03-21T12:31:38Z</time>
      </trkpt>
      <trkpt lat="43.08965" lon="2.30809">
        <ele>192</ele>
        <time>2021-03-21T12:31:40Z</time>
      </trkpt>
      <trkpt lat="43.08989" lon="2.30819">
        <ele>190.8</ele>
        <time>2021-03-21T12:31:42Z</time>
      </trkpt>
      <trkpt lat="43.09" lon="2.30824">
        <ele>190.2</ele>
        <time>2021-03-21T12:31:43Z</time>
      </trkpt>
      <trkpt lat="43.09022" lon="2.3083">
        <ele>189.1</ele>
        <time>2021-03-21T12:31:45Z</time>
      </trkpt>
      <trkpt lat="43.09033" lon="2.30832">
        <ele>188.5</ele>
        <time>2021-03-21T12:31:46Z</time>
      </trkpt>
      <trkpt lat="43.09044" lon="2.30832">
        <ele>187.8</ele>
        <time>2021-03-21T12:31:47Z</time>
      </trkpt>
      <trkpt lat="43.09065" lon="2.30833">
        <ele>186.4</ele>
        <time>2021-03-21T12:31:49Z</time>
      </trkpt>
      <trkpt lat="43.09087" lon="2.30835">
        <ele>185.1</ele>
        <time>2021-03-21T12:31:51Z</time>
      </trkpt>
      <trkpt lat="43.09097" lon="2.30836">
        <ele>184.5</ele>
        <time>2021-03-21T12:31:52Z</time>
      </trkpt>
      <trkpt lat="43.09107" lon="2.30836">
        <ele>183.9</ele>
        <time>2021-03-21T12:31:53Z</time>
      </trkpt>
      <trkpt lat="43.09127" lon="2.30841">
        <ele>182.7</ele>
        <time>2021-03-21T12:31:55Z</time>
      </trkpt>
      <trkpt lat="43.09146" lon="2.30843">
        <ele>181.5</ele>
        <time>2021-03-21T12:31:57Z</time>
      </trkpt>
      <trkpt lat="43.09165" lon="2.30844">
        <ele>180.4</ele>
        <time>2021-03-21T12:31:59Z</time>
      </trkpt>
      <trkpt lat="43.09174" lon="2.30844">
        <ele>179.9</ele>
        <time>2021-03-21T12:32:00Z</time>
      </trkpt>
      <trkpt lat="43.09191" lon="2.30844">
        <ele>178.9</ele>
        <time>2021-03-21T12:32:02Z</time>
      </trkpt>
      <trkpt lat="43.092" lon="2.30845">
        <ele>178.3</ele>
        <time>2021-03-21T12:32:03Z</time>
      </trkpt>
      <trkpt lat="43.09216" lon="2.30846">
        <ele>177.8</ele>
        <time>2021-03-21T12:32:05Z</time>
      </trkpt>
      <trkpt lat="43.09231" lon="2.30851">
        <ele>177</ele>
        <time>2021-03-21T12:32:07Z</time>
      </trkpt>
      <trkpt lat="43.09239" lon="2.30855">
        <ele>176.4</ele>
        <time>2021-03-21T12:32:08Z</time>
      </trkpt>
      <trkpt lat="43.09253" lon="2.30868">
        <ele>175.2</ele>
        <time>2021-03-21T12:32:10Z</time>
      </trkpt>
      <trkpt lat="43.0926" lon="2.30875">
        <ele>174.6</ele>
        <time>2021-03-21T12:32:11Z</time>
      </trkpt>
      <trkpt lat="43.09267" lon="2.30881">
        <ele>174.1</ele>
        <time>2021-03-21T12:32:12Z</time>
      </trkpt>
      <trkpt lat="43.09275" lon="2.30886">
        <ele>173.9</ele>
        <time>2021-03-21T12:32:13Z</time>
      </trkpt>
      <trkpt lat="43.09289" lon="2.30889">
        <ele>172.8</ele>
        <time>2021-03-21T12:32:15Z</time>
      </trkpt>
      <trkpt lat="43.09296" lon="2.30888">
        <ele>172.2</ele>
        <time>2021-03-21T12:32:16Z</time>
      </trkpt>
      <trkpt lat="43.09309" lon="2.30886">
        <ele>171</ele>
        <time>2021-03-21T12:32:18Z</time>
      </trkpt>
      <trkpt lat="43.09321" lon="2.30886">
        <ele>170.5</ele>
        <time>2021-03-21T12:32:20Z</time>
      </trkpt>
      <trkpt lat="43.09333" lon="2.30884">
        <ele>170</ele>
        <time>2021-03-21T12:32:22Z</time>
      </trkpt>
      <trkpt lat="43.09342" lon="2.30872">
        <ele>169.9</ele>
        <time>2021-03-21T12:32:24Z</time>
      </trkpt>
      <trkpt lat="43.09347" lon="2.30856">
        <ele>169.8</ele>
        <time>2021-03-21T12:32:26Z</time>
      </trkpt>
      <trkpt lat="43.09348" lon="2.30848">
        <ele>169.8</ele>
        <time>2021-03-21T12:32:27Z</time>
      </trkpt>
      <trkpt lat="43.0935" lon="2.30832">
        <ele>169.7</ele>
        <time>2021-03-21T12:32:29Z</time>
      </trkpt>
      <trkpt lat="43.09351" lon="2.30816">
        <ele>169.3</ele>
        <time>2021-03-21T12:32:31Z</time>
      </trkpt>
      <trkpt lat="43.09352" lon="2.30808">
        <ele>169.1</ele>
        <time>2021-03-21T12:32:32Z</time>
      </trkpt>
      <trkpt lat="43.09353" lon="2.30801">
        <ele>168.9</ele>
        <time>2021-03-21T12:32:33Z</time>
      </trkpt>
      <trkpt lat="43.09354" lon="2.30793">
        <ele>168.6</ele>
        <time>2021-03-21T12:32:34Z</time>
      </trkpt>
      <trkpt lat="43.09357" lon="2.30778">
        <ele>167.9</ele>
        <time>2021-03-21T12:32:36Z</time>
      </trkpt>
      <trkpt lat="43.09361" lon="2.30774">
        <ele>167.5</ele>
        <time>2021-03-21T12:32:37Z</time>
      </trkpt>
      <trkpt lat="43.09375" lon="2.30776">
        <ele>166.5</ele>
        <time>2021-03-21T12:32:39Z</time>
      </trkpt>
      <trkpt lat="43.09389" lon="2.30771">
        <ele>166.2</ele>
        <time>2021-03-21T12:32:41Z</time>
      </trkpt>
      <trkpt lat="43.09394" lon="2.30764">
        <ele>166.2</ele>
        <time>2021-03-21T12:32:42Z</time>
      </trkpt>
      <trkpt lat="43.09395" lon="2.30755">
        <ele>166.3</ele>
        <time>2021-03-21T12:32:43Z</time>
      </trkpt>
      <trkpt lat="43.09396" lon="2.30746">
        <ele>166.4</ele>
        <time>2021-03-21T12:32:44Z</time>
      </trkpt>
      <trkpt lat="43.09394" lon="2.30731">
        <ele>166.8</ele>
        <time>2021-03-21T12:32:46Z</time>
      </trkpt>
      <trkpt lat="43.09394" lon="2.30724">
        <ele>167.1</ele>
        <time>2021-03-21T12:32:47Z</time>
      </trkpt>
      <trkpt lat="43.09394" lon="2.30719">
        <ele>167.3</ele>
        <time>2021-03-21T12:32:48Z</time>
      </trkpt>
      <trkpt lat="43.09396" lon="2.30709">
        <ele>167.8</ele>
        <time>2021-03-21T12:32:50Z</time>
      </trkpt>
      <trkpt lat="43.094" lon="2.30699">
        <ele>168.4</ele>
        <time>2021-03-21T12:32:52Z</time>
      </trkpt>
      <trkpt lat="43.09403" lon="2.30694">
        <ele>168.9</ele>
        <time>2021-03-21T12:32:54Z</time>
      </trkpt>
      <trkpt lat="43.09406" lon="2.30689">
        <ele>169.3</ele>
        <time>2021-03-21T12:32:55Z</time>
      </trkpt>
      <trkpt lat="43.09407" lon="2.30684">
        <ele>169.8</ele>
        <time>2021-03-21T12:32:56Z</time>
      </trkpt>
      <trkpt lat="43.0941" lon="2.3068">
        <ele>170.3</ele>
        <time>2021-03-21T12:32:57Z</time>
      </trkpt>
      <trkpt lat="43.09413" lon="2.30675">
        <ele>170.8</ele>
        <time>2021-03-21T12:32:58Z</time>
      </trkpt>
      <trkpt lat="43.09416" lon="2.3067">
        <ele>171.4</ele>
        <time>2021-03-21T12:33:00Z</time>
      </trkpt>
      <trkpt lat="43.09416" lon="2.30665">
        <ele>171.9</ele>
        <time>2021-03-21T12:33:01Z</time>
      </trkpt>
      <trkpt lat="43.09416" lon="2.3066">
        <ele>172.4</ele>
        <time>2021-03-21T12:33:02Z</time>
      </trkpt>
      <trkpt lat="43.09415" lon="2.30652">
        <ele>173.1</ele>
        <time>2021-03-21T12:33:04Z</time>
      </trkpt>
      <trkpt lat="43.09415" lon="2.30645">
        <ele>173.7</ele>
        <time>2021-03-21T12:33:06Z</time>
      </trkpt>
      <trkpt lat="43.09415" lon="2.30641">
        <ele>174</ele>
        <time>2021-03-21T12:33:07Z</time>
      </trkpt>
      <trkpt lat="43.09416" lon="2.30637">
        <ele>174.5</ele>
        <time>2021-03-21T12:33:08Z</time>
      </trkpt>
      <trkpt lat="43.09416" lon="2.30632">
        <ele>174.9</ele>
        <time>2021-03-21T12:33:09Z</time>
      </trkpt>
      <trkpt lat="43.09418" lon="2.30624">
        <ele>175.6</ele>
        <time>2021-03-21T12:33:11Z</time>
      </trkpt>
      <trkpt lat="43.09419" lon="2.30619">
        <ele>176.1</ele>
        <time>2021-03-21T12:33:13Z</time>
      </trkpt>
      <trkpt lat="43.0942" lon="2.30614">
        <ele>176.5</ele>
        <time>2021-03-21T12:33:14Z</time>
      </trkpt>
      <trkpt lat="43.09421" lon="2.30609">
        <ele>176.9</ele>
        <time>2021-03-21T12:33:15Z</time>
      </trkpt>
      <trkpt lat="43.09421" lon="2.30605">
        <ele>177.2</ele>
        <time>2021-03-21T12:33:16Z</time>
      </trkpt>
      <trkpt lat="43.09421" lon="2.30601">
        <ele>177.5</ele>
        <time>2021-03-21T12:33:17Z</time>
      </trkpt>
      <trkpt lat="43.09421" lon="2.30595">
        <ele>178</ele>
        <time>2021-03-21T12:33:19Z</time>
      </trkpt>
      <trkpt lat="43.09421" lon="2.3059">
        <ele>178.4</ele>
        <time>2021-03-21T12:33:20Z</time>
      </trkpt>
      <trkpt lat="43.0942" lon="2.30584">
        <ele>178.8</ele>
        <time>2021-03-21T12:33:22Z</time>
      </trkpt>
      <trkpt lat="43.09419" lon="2.3058">
        <ele>179.1</ele>
        <time>2021-03-21T12:33:23Z</time>
      </trkpt>
      <trkpt lat="43.09418" lon="2.30576">
        <ele>179.5</ele>
        <time>2021-03-21T12:33:24Z</time>
      </trkpt>
      <trkpt lat="43.09417" lon="2.30572">
        <ele>179.7</ele>
        <time>2021-03-21T12:33:25Z</time>
      </trkpt>
      <trkpt lat="43.09416" lon="2.30567">
        <ele>180.1</ele>
        <time>2021-03-21T12:33:27Z</time>
      </trkpt>
      <trkpt lat="43.09414" lon="2.30562">
        <ele>180.5</ele>
        <time>2021-03-21T12:33:28Z</time>
      </trkpt>
      <trkpt lat="43.09414" lon="2.3056">
        <ele>180.6</ele>
        <time>2021-03-21T12:33:29Z</time>
      </trkpt>
      <trkpt lat="43.09413" lon="2.30556">
        <ele>180.9</ele>
        <time>2021-03-21T12:33:30Z</time>
      </trkpt>
      <trkpt lat="43.09412" lon="2.30549">
        <ele>181.3</ele>
        <time>2021-03-21T12:33:32Z</time>
      </trkpt>
      <trkpt lat="43.09411" lon="2.30544">
        <ele>181.6</ele>
        <time>2021-03-21T12:33:33Z</time>
      </trkpt>
      <trkpt lat="43.09409" lon="2.30536">
        <ele>182.1</ele>
        <time>2021-03-21T12:33:35Z</time>
      </trkpt>
      <trkpt lat="43.09408" lon="2.30532">
        <ele>182.4</ele>
        <time>2021-03-21T12:33:36Z</time>
      </trkpt>
      <trkpt lat="43.09407" lon="2.30525">
        <ele>182.9</ele>
        <time>2021-03-21T12:33:38Z</time>
      </trkpt>
      <trkpt lat="43.09406" lon="2.30521">
        <ele>183.2</ele>
        <time>2021-03-21T12:33:39Z</time>
      </trkpt>
      <trkpt lat="43.09404" lon="2.30516">
        <ele>183.5</ele>
        <time>2021-03-21T12:33:40Z</time>
      </trkpt>
      <trkpt lat="43.09403" lon="2.30512">
        <ele>183.9</ele>
        <time>2021-03-21T12:33:41Z</time>
      </trkpt>
      <trkpt lat="43.09401" lon="2.30508">
        <ele>184.2</ele>
        <time>2021-03-21T12:33:42Z</time>
      </trkpt>
      <trkpt lat="43.094" lon="2.30505">
        <ele>184.6</ele>
        <time>2021-03-21T12:33:43Z</time>
      </trkpt>
      <trkpt lat="43.09398" lon="2.30499">
        <ele>185.1</ele>
        <time>2021-03-21T12:33:45Z</time>
      </trkpt>
      <trkpt lat="43.09397" lon="2.30495">
        <ele>185.5</ele>
        <time>2021-03-21T12:33:46Z</time>
      </trkpt>
      <trkpt lat="43.09395" lon="2.3049">
        <ele>185.9</ele>
        <time>2021-03-21T12:33:48Z</time>
      </trkpt>
      <trkpt lat="43.09395" lon="2.30486">
        <ele>186.3</ele>
        <time>2021-03-21T12:33:49Z</time>
      </trkpt>
      <trkpt lat="43.09393" lon="2.30482">
        <ele>186.7</ele>
        <time>2021-03-21T12:33:50Z</time>
      </trkpt>
      <trkpt lat="43.09392" lon="2.30478">
        <ele>187.1</ele>
        <time>2021-03-21T12:33:51Z</time>
      </trkpt>
      <trkpt lat="43.09391" lon="2.30473">
        <ele>187.6</ele>
        <time>2021-03-21T12:33:53Z</time>
      </trkpt>
      <trkpt lat="43.09389" lon="2.30469">
        <ele>188</ele>
        <time>2021-03-21T12:33:54Z</time>
      </trkpt>
      <trkpt lat="43.09388" lon="2.30465">
        <ele>188.4</ele>
        <time>2021-03-21T12:33:55Z</time>
      </trkpt>
      <trkpt lat="43.09387" lon="2.30461">
        <ele>188.8</ele>
        <time>2021-03-21T12:33:56Z</time>
      </trkpt>
      <trkpt lat="43.09386" lon="2.30457">
        <ele>189.2</ele>
        <time>2021-03-21T12:33:57Z</time>
      </trkpt>
      <trkpt lat="43.09384" lon="2.30452">
        <ele>189.6</ele>
        <time>2021-03-21T12:33:58Z</time>
      </trkpt>
      <trkpt lat="43.09384" lon="2.3045">
        <ele>189.8</ele>
        <time>2021-03-21T12:33:59Z</time>
      </trkpt>
      <trkpt lat="43.09383" lon="2.30445">
        <ele>190.1</ele>
        <time>2021-03-21T12:34:01Z</time>
      </trkpt>
      <trkpt lat="43.09382" lon="2.30441">
        <ele>190.4</ele>
        <time>2021-03-21T12:34:02Z</time>
      </trkpt>
      <trkpt lat="43.09381" lon="2.30437">
        <ele>190.7</ele>
        <time>2021-03-21T12:34:03Z</time>
      </trkpt>
      <trkpt lat="43.09381" lon="2.30431">
        <ele>191</ele>
        <time>2021-03-21T12:34:05Z</time>
      </trkpt>
      <trkpt lat="43.09381" lon="2.30427">
        <ele>191.2</ele>
        <time>2021-03-21T12:34:06Z</time>
      </trkpt>
      <trkpt lat="43.09382" lon="2.30422">
        <ele>191.4</ele>
        <time>2021-03-21T12:34:07Z</time>
      </trkpt>
      <trkpt lat="43.09383" lon="2.30415">
        <ele>191.7</ele>
        <time>2021-03-21T12:34:09Z</time>
      </trkpt>
      <trkpt lat="43.09385" lon="2.30412">
        <ele>191.9</ele>
        <time>2021-03-21T12:34:10Z</time>
      </trkpt>
      <trkpt lat="43.09386" lon="2.30406">
        <ele>192.2</ele>
        <time>2021-03-21T12:34:12Z</time>
      </trkpt>
      <trkpt lat="43.09388" lon="2.30402">
        <ele>192.3</ele>
        <time>2021-03-21T12:34:13Z</time>
      </trkpt>
      <trkpt lat="43.09389" lon="2.30397">
        <ele>192.6</ele>
        <time>2021-03-21T12:34:14Z</time>
      </trkpt>
      <trkpt lat="43.09392" lon="2.30391">
        <ele>193</ele>
        <time>2021-03-21T12:34:16Z</time>
      </trkpt>
      <trkpt lat="43.09393" lon="2.30386">
        <ele>193.2</ele>
        <time>2021-03-21T12:34:17Z</time>
      </trkpt>
      <trkpt lat="43.09395" lon="2.30381">
        <ele>193.5</ele>
        <time>2021-03-21T12:34:19Z</time>
      </trkpt>
      <trkpt lat="43.09396" lon="2.30378">
        <ele>193.6</ele>
        <time>2021-03-21T12:34:20Z</time>
      </trkpt>
      <trkpt lat="43.09397" lon="2.30374">
        <ele>193.8</ele>
        <time>2021-03-21T12:34:21Z</time>
      </trkpt>
      <trkpt lat="43.09399" lon="2.30369">
        <ele>194.1</ele>
        <time>2021-03-21T12:34:22Z</time>
      </trkpt>
      <trkpt lat="43.09401" lon="2.30366">
        <ele>194.3</ele>
        <time>2021-03-21T12:34:23Z</time>
      </trkpt>
      <trkpt lat="43.09403" lon="2.30359">
        <ele>194.6</ele>
        <time>2021-03-21T12:34:25Z</time>
      </trkpt>
      <trkpt lat="43.09406" lon="2.30353">
        <ele>194.9</ele>
        <time>2021-03-21T12:34:27Z</time>
      </trkpt>
      <trkpt lat="43.09408" lon="2.30349">
        <ele>195.2</ele>
        <time>2021-03-21T12:34:28Z</time>
      </trkpt>
      <trkpt lat="43.0941" lon="2.30344">
        <ele>195.4</ele>
        <time>2021-03-21T12:34:29Z</time>
      </trkpt>
      <trkpt lat="43.09412" lon="2.3034">
        <ele>195.6</ele>
        <time>2021-03-21T12:34:30Z</time>
      </trkpt>
      <trkpt lat="43.09415" lon="2.30334">
        <ele>195.9</ele>
        <time>2021-03-21T12:34:32Z</time>
      </trkpt>
      <trkpt lat="43.09417" lon="2.3033">
        <ele>196.1</ele>
        <time>2021-03-21T12:34:33Z</time>
      </trkpt>
      <trkpt lat="43.09418" lon="2.30326">
        <ele>196.3</ele>
        <time>2021-03-21T12:34:34Z</time>
      </trkpt>
      <trkpt lat="43.09421" lon="2.30321">
        <ele>196.5</ele>
        <time>2021-03-21T12:34:36Z</time>
      </trkpt>
      <trkpt lat="43.09424" lon="2.30315">
        <ele>196.8</ele>
        <time>2021-03-21T12:34:37Z</time>
      </trkpt>
      <trkpt lat="43.09426" lon="2.30311">
        <ele>197.1</ele>
        <time>2021-03-21T12:34:39Z</time>
      </trkpt>
      <trkpt lat="43.09429" lon="2.30306">
        <ele>197.4</ele>
        <time>2021-03-21T12:34:40Z</time>
      </trkpt>
      <trkpt lat="43.09431" lon="2.30301">
        <ele>197.7</ele>
        <time>2021-03-21T12:34:42Z</time>
      </trkpt>
      <trkpt lat="43.09433" lon="2.30297">
        <ele>198</ele>
        <time>2021-03-21T12:34:43Z</time>
      </trkpt>
      <trkpt lat="43.09435" lon="2.30292">
        <ele>198.4</ele>
        <time>2021-03-21T12:34:44Z</time>
      </trkpt>
      <trkpt lat="43.09436" lon="2.30288">
        <ele>198.7</ele>
        <time>2021-03-21T12:34:45Z</time>
      </trkpt>
      <trkpt lat="43.09439" lon="2.30283">
        <ele>199.1</ele>
        <time>2021-03-21T12:34:47Z</time>
      </trkpt>
      <trkpt lat="43.0944" lon="2.30279">
        <ele>199.4</ele>
        <time>2021-03-21T12:34:48Z</time>
      </trkpt>
      <trkpt lat="43.09443" lon="2.30274">
        <ele>199.8</ele>
        <time>2021-03-21T12:34:50Z</time>
      </trkpt>
      <trkpt lat="43.09443" lon="2.30273">
        <ele>199.9</ele>
        <time>2021-03-21T12:34:51Z</time>
      </trkpt>
      <trkpt lat="43.09445" lon="2.3027">
        <ele>200.1</ele>
        <time>2021-03-21T12:34:52Z</time>
      </trkpt>
      <trkpt lat="43.09449" lon="2.30261">
        <ele>200.6</ele>
        <time>2021-03-21T12:34:54Z</time>
      </trkpt>
      <trkpt lat="43.09452" lon="2.30256">
        <ele>200.8</ele>
        <time>2021-03-21T12:34:55Z</time>
      </trkpt>
      <trkpt lat="43.09456" lon="2.30251">
        <ele>201</ele>
        <time>2021-03-21T12:34:56Z</time>
      </trkpt>
      <trkpt lat="43.09459" lon="2.30245">
        <ele>201.2</ele>
        <time>2021-03-21T12:34:58Z</time>
      </trkpt>
      <trkpt lat="43.09464" lon="2.30234">
        <ele>201.4</ele>
        <time>2021-03-21T12:34:59Z</time>
      </trkpt>
      <trkpt lat="43.09467" lon="2.30221">
        <ele>201.5</ele>
        <time>2021-03-21T12:35:01Z</time>
      </trkpt>
      <trkpt lat="43.09468" lon="2.30216">
        <ele>201.5</ele>
        <time>2021-03-21T12:35:02Z</time>
      </trkpt>
      <trkpt lat="43.09469" lon="2.30214">
        <ele>201.5</ele>
        <time>2021-03-21T12:35:04Z</time>
      </trkpt>
      <trkpt lat="43.0947" lon="2.30212">
        <ele>201.6</ele>
        <time>2021-03-21T12:35:05Z</time>
      </trkpt>
      <trkpt lat="43.0947" lon="2.30209">
        <ele>201.6</ele>
        <time>2021-03-21T12:35:07Z</time>
      </trkpt>
      <trkpt lat="43.09471" lon="2.30207">
        <ele>201.6</ele>
        <time>2021-03-21T12:35:08Z</time>
      </trkpt>
      <trkpt lat="43.09474" lon="2.30199">
        <ele>201.8</ele>
        <time>2021-03-21T12:35:10Z</time>
      </trkpt>
      <trkpt lat="43.09477" lon="2.30192">
        <ele>202.1</ele>
        <time>2021-03-21T12:35:11Z</time>
      </trkpt>
      <trkpt lat="43.09478" lon="2.30187">
        <ele>202.3</ele>
        <time>2021-03-21T12:35:12Z</time>
      </trkpt>
      <trkpt lat="43.0948" lon="2.30182">
        <ele>202.6</ele>
        <time>2021-03-21T12:35:13Z</time>
      </trkpt>
      <trkpt lat="43.09482" lon="2.30178">
        <ele>202.9</ele>
        <time>2021-03-21T12:35:14Z</time>
      </trkpt>
      <trkpt lat="43.09485" lon="2.30171">
        <ele>203.4</ele>
        <time>2021-03-21T12:35:16Z</time>
      </trkpt>
      <trkpt lat="43.09488" lon="2.30164">
        <ele>203.9</ele>
        <time>2021-03-21T12:35:17Z</time>
      </trkpt>
      <trkpt lat="43.09491" lon="2.30157">
        <ele>204.5</ele>
        <time>2021-03-21T12:35:18Z</time>
      </trkpt>
      <trkpt lat="43.09493" lon="2.30152">
        <ele>204.9</ele>
        <time>2021-03-21T12:35:19Z</time>
      </trkpt>
      <trkpt lat="43.09496" lon="2.30145">
        <ele>205.3</ele>
        <time>2021-03-21T12:35:21Z</time>
      </trkpt>
      <trkpt lat="43.09498" lon="2.30138">
        <ele>205.8</ele>
        <time>2021-03-21T12:35:23Z</time>
      </trkpt>
      <trkpt lat="43.095" lon="2.30133">
        <ele>206.2</ele>
        <time>2021-03-21T12:35:24Z</time>
      </trkpt>
      <trkpt lat="43.09501" lon="2.30129">
        <ele>206.5</ele>
        <time>2021-03-21T12:35:25Z</time>
      </trkpt>
      <trkpt lat="43.09503" lon="2.30124">
        <ele>206.9</ele>
        <time>2021-03-21T12:35:26Z</time>
      </trkpt>
      <trkpt lat="43.09505" lon="2.3012">
        <ele>207.2</ele>
        <time>2021-03-21T12:35:28Z</time>
      </trkpt>
      <trkpt lat="43.09506" lon="2.30115">
        <ele>207.5</ele>
        <time>2021-03-21T12:35:29Z</time>
      </trkpt>
      <trkpt lat="43.09508" lon="2.30111">
        <ele>207.8</ele>
        <time>2021-03-21T12:35:30Z</time>
      </trkpt>
      <trkpt lat="43.09509" lon="2.30105">
        <ele>208.2</ele>
        <time>2021-03-21T12:35:31Z</time>
      </trkpt>
      <trkpt lat="43.0951" lon="2.30099">
        <ele>208.6</ele>
        <time>2021-03-21T12:35:33Z</time>
      </trkpt>
      <trkpt lat="43.09511" lon="2.30094">
        <ele>208.9</ele>
        <time>2021-03-21T12:35:34Z</time>
      </trkpt>
      <trkpt lat="43.09512" lon="2.30089">
        <ele>209.3</ele>
        <time>2021-03-21T12:35:35Z</time>
      </trkpt>
      <trkpt lat="43.09512" lon="2.30083">
        <ele>209.7</ele>
        <time>2021-03-21T12:35:36Z</time>
      </trkpt>
      <trkpt lat="43.09513" lon="2.30078">
        <ele>210.1</ele>
        <time>2021-03-21T12:35:37Z</time>
      </trkpt>
      <trkpt lat="43.09514" lon="2.30072">
        <ele>210.6</ele>
        <time>2021-03-21T12:35:39Z</time>
      </trkpt>
      <trkpt lat="43.09515" lon="2.30067">
        <ele>211.2</ele>
        <time>2021-03-21T12:35:40Z</time>
      </trkpt>
      <trkpt lat="43.09518" lon="2.30063">
        <ele>211.6</ele>
        <time>2021-03-21T12:35:41Z</time>
      </trkpt>
      <trkpt lat="43.0952" lon="2.3006">
        <ele>212</ele>
        <time>2021-03-21T12:35:43Z</time>
      </trkpt>
      <trkpt lat="43.09521" lon="2.30056">
        <ele>212.3</ele>
        <time>2021-03-21T12:35:44Z</time>
      </trkpt>
      <trkpt lat="43.09523" lon="2.30052">
        <ele>212.8</ele>
        <time>2021-03-21T12:35:45Z</time>
      </trkpt>
      <trkpt lat="43.09524" lon="2.30051">
        <ele>212.9</ele>
        <time>2021-03-21T12:35:46Z</time>
      </trkpt>
      <trkpt lat="43.09527" lon="2.30047">
        <ele>213.5</ele>
        <time>2021-03-21T12:35:47Z</time>
      </trkpt>
      <trkpt lat="43.09528" lon="2.30046">
        <ele>213.6</ele>
        <time>2021-03-21T12:35:48Z</time>
      </trkpt>
      <trkpt lat="43.0953" lon="2.30043">
        <ele>214</ele>
        <time>2021-03-21T12:35:49Z</time>
      </trkpt>
      <trkpt lat="43.09532" lon="2.3004">
        <ele>214.4</ele>
        <time>2021-03-21T12:35:50Z</time>
      </trkpt>
      <trkpt lat="43.09534" lon="2.30038">
        <ele>214.7</ele>
        <time>2021-03-21T12:35:51Z</time>
      </trkpt>
      <trkpt lat="43.09537" lon="2.30034">
        <ele>215.2</ele>
        <time>2021-03-21T12:35:53Z</time>
      </trkpt>
      <trkpt lat="43.09539" lon="2.30031">
        <ele>215.7</ele>
        <time>2021-03-21T12:35:54Z</time>
      </trkpt>
      <trkpt lat="43.0954" lon="2.30028">
        <ele>216</ele>
        <time>2021-03-21T12:35:55Z</time>
      </trkpt>
      <trkpt lat="43.09543" lon="2.30024">
        <ele>216.7</ele>
        <time>2021-03-21T12:35:57Z</time>
      </trkpt>
      <trkpt lat="43.09545" lon="2.3002">
        <ele>217.2</ele>
        <time>2021-03-21T12:35:58Z</time>
      </trkpt>
      <trkpt lat="43.09548" lon="2.30015">
        <ele>217.9</ele>
        <time>2021-03-21T12:36:00Z</time>
      </trkpt>
      <trkpt lat="43.09549" lon="2.30013">
        <ele>218.2</ele>
        <time>2021-03-21T12:36:01Z</time>
      </trkpt>
      <trkpt lat="43.0955" lon="2.30012">
        <ele>218.5</ele>
        <time>2021-03-21T12:36:02Z</time>
      </trkpt>
      <trkpt lat="43.09554" lon="2.30009">
        <ele>219.1</ele>
        <time>2021-03-21T12:36:04Z</time>
      </trkpt>
      <trkpt lat="43.09556" lon="2.30006">
        <ele>219.6</ele>
        <time>2021-03-21T12:36:05Z</time>
      </trkpt>
      <trkpt lat="43.09557" lon="2.30005">
        <ele>219.8</ele>
        <time>2021-03-21T12:36:06Z</time>
      </trkpt>
      <trkpt lat="43.09559" lon="2.30001">
        <ele>220.5</ele>
        <time>2021-03-21T12:36:08Z</time>
      </trkpt>
      <trkpt lat="43.0956" lon="2.29999">
        <ele>220.7</ele>
        <time>2021-03-21T12:36:09Z</time>
      </trkpt>
      <trkpt lat="43.09561" lon="2.29998">
        <ele>220.9</ele>
        <time>2021-03-21T12:36:10Z</time>
      </trkpt>
      <trkpt lat="43.09562" lon="2.29996">
        <ele>221.2</ele>
        <time>2021-03-21T12:36:11Z</time>
      </trkpt>
      <trkpt lat="43.09565" lon="2.29992">
        <ele>221.8</ele>
        <time>2021-03-21T12:36:13Z</time>
      </trkpt>
      <trkpt lat="43.09566" lon="2.2999">
        <ele>222.1</ele>
        <time>2021-03-21T12:36:14Z</time>
      </trkpt>
      <trkpt lat="43.09567" lon="2.29988">
        <ele>222.4</ele>
        <time>2021-03-21T12:36:15Z</time>
      </trkpt>
      <trkpt lat="43.09567" lon="2.29986">
        <ele>222.6</ele>
        <time>2021-03-21T12:36:16Z</time>
      </trkpt>
      <trkpt lat="43.09569" lon="2.29982">
        <ele>223.2</ele>
        <time>2021-03-21T12:36:18Z</time>
      </trkpt>
      <trkpt lat="43.09573" lon="2.29975">
        <ele>224.1</ele>
        <time>2021-03-21T12:36:20Z</time>
      </trkpt>
      <trkpt lat="43.09574" lon="2.29971">
        <ele>224.6</ele>
        <time>2021-03-21T12:36:21Z</time>
      </trkpt>
      <trkpt lat="43.09576" lon="2.29967">
        <ele>225.2</ele>
        <time>2021-03-21T12:36:23Z</time>
      </trkpt>
      <trkpt lat="43.09578" lon="2.29964">
        <ele>225.6</ele>
        <time>2021-03-21T12:36:24Z</time>
      </trkpt>
      <trkpt lat="43.0958" lon="2.2996">
        <ele>226.1</ele>
        <time>2021-03-21T12:36:25Z</time>
      </trkpt>
      <trkpt lat="43.09581" lon="2.29957">
        <ele>226.5</ele>
        <time>2021-03-21T12:36:26Z</time>
      </trkpt>
      <trkpt lat="43.09583" lon="2.29953">
        <ele>227.1</ele>
        <time>2021-03-21T12:36:28Z</time>
      </trkpt>
      <trkpt lat="43.09584" lon="2.29949">
        <ele>227.7</ele>
        <time>2021-03-21T12:36:29Z</time>
      </trkpt>
      <trkpt lat="43.09585" lon="2.29945">
        <ele>228.3</ele>
        <time>2021-03-21T12:36:31Z</time>
      </trkpt>
      <trkpt lat="43.09586" lon="2.29941">
        <ele>228.8</ele>
        <time>2021-03-21T12:36:32Z</time>
      </trkpt>
      <trkpt lat="43.09587" lon="2.29938">
        <ele>229.1</ele>
        <time>2021-03-21T12:36:33Z</time>
      </trkpt>
      <trkpt lat="43.09588" lon="2.29935">
        <ele>229.6</ele>
        <time>2021-03-21T12:36:35Z</time>
      </trkpt>
      <trkpt lat="43.0959" lon="2.29931">
        <ele>230.2</ele>
        <time>2021-03-21T12:36:36Z</time>
      </trkpt>
      <trkpt lat="43.09591" lon="2.29926">
        <ele>230.8</ele>
        <time>2021-03-21T12:36:38Z</time>
      </trkpt>
      <trkpt lat="43.09592" lon="2.29922">
        <ele>231.3</ele>
        <time>2021-03-21T12:36:39Z</time>
      </trkpt>
      <trkpt lat="43.09594" lon="2.29918">
        <ele>231.8</ele>
        <time>2021-03-21T12:36:40Z</time>
      </trkpt>
      <trkpt lat="43.09594" lon="2.29916">
        <ele>232</ele>
        <time>2021-03-21T12:36:41Z</time>
      </trkpt>
      <trkpt lat="43.09596" lon="2.29911">
        <ele>232.7</ele>
        <time>2021-03-21T12:36:43Z</time>
      </trkpt>
      <trkpt lat="43.09597" lon="2.29909">
        <ele>232.9</ele>
        <time>2021-03-21T12:36:44Z</time>
      </trkpt>
      <trkpt lat="43.09597" lon="2.29907">
        <ele>233.1</ele>
        <time>2021-03-21T12:36:45Z</time>
      </trkpt>
      <trkpt lat="43.09599" lon="2.29903">
        <ele>233.6</ele>
        <time>2021-03-21T12:36:46Z</time>
      </trkpt>
      <trkpt lat="43.096" lon="2.29901">
        <ele>233.8</ele>
        <time>2021-03-21T12:36:47Z</time>
      </trkpt>
      <trkpt lat="43.09601" lon="2.29897">
        <ele>234.2</ele>
        <time>2021-03-21T12:36:48Z</time>
      </trkpt>
      <trkpt lat="43.09601" lon="2.29895">
        <ele>234.4</ele>
        <time>2021-03-21T12:36:49Z</time>
      </trkpt>
      <trkpt lat="43.09603" lon="2.2989">
        <ele>234.9</ele>
        <time>2021-03-21T12:36:51Z</time>
      </trkpt>
      <trkpt lat="43.09603" lon="2.29887">
        <ele>235.2</ele>
        <time>2021-03-21T12:36:52Z</time>
      </trkpt>
      <trkpt lat="43.09604" lon="2.29883">
        <ele>235.6</ele>
        <time>2021-03-21T12:36:54Z</time>
      </trkpt>
      <trkpt lat="43.09606" lon="2.29878">
        <ele>236.1</ele>
        <time>2021-03-21T12:36:55Z</time>
      </trkpt>
      <trkpt lat="43.09606" lon="2.29877">
        <ele>236.2</ele>
        <time>2021-03-21T12:36:56Z</time>
      </trkpt>
      <trkpt lat="43.09609" lon="2.29872">
        <ele>236.7</ele>
        <time>2021-03-21T12:36:57Z</time>
      </trkpt>
      <trkpt lat="43.09609" lon="2.29871">
        <ele>236.9</ele>
        <time>2021-03-21T12:36:58Z</time>
      </trkpt>
      <trkpt lat="43.09611" lon="2.29868">
        <ele>237.2</ele>
        <time>2021-03-21T12:37:00Z</time>
      </trkpt>
      <trkpt lat="43.09613" lon="2.29863">
        <ele>237.6</ele>
        <time>2021-03-21T12:37:01Z</time>
      </trkpt>
      <trkpt lat="43.09614" lon="2.2986">
        <ele>237.9</ele>
        <time>2021-03-21T12:37:02Z</time>
      </trkpt>
      <trkpt lat="43.09616" lon="2.29857">
        <ele>238.3</ele>
        <time>2021-03-21T12:37:04Z</time>
      </trkpt>
      <trkpt lat="43.09618" lon="2.29853">
        <ele>238.7</ele>
        <time>2021-03-21T12:37:05Z</time>
      </trkpt>
      <trkpt lat="43.09619" lon="2.29849">
        <ele>239.1</ele>
        <time>2021-03-21T12:37:06Z</time>
      </trkpt>
      <trkpt lat="43.09621" lon="2.29845">
        <ele>239.6</ele>
        <time>2021-03-21T12:37:07Z</time>
      </trkpt>
      <trkpt lat="43.09622" lon="2.29843">
        <ele>239.8</ele>
        <time>2021-03-21T12:37:08Z</time>
      </trkpt>
      <trkpt lat="43.09625" lon="2.29837">
        <ele>240.5</ele>
        <time>2021-03-21T12:37:10Z</time>
      </trkpt>
      <trkpt lat="43.09627" lon="2.29834">
        <ele>240.8</ele>
        <time>2021-03-21T12:37:11Z</time>
      </trkpt>
      <trkpt lat="43.09628" lon="2.29832">
        <ele>241</ele>
        <time>2021-03-21T12:37:12Z</time>
      </trkpt>
      <trkpt lat="43.0963" lon="2.29829">
        <ele>241.4</ele>
        <time>2021-03-21T12:37:14Z</time>
      </trkpt>
      <trkpt lat="43.09632" lon="2.29826">
        <ele>241.8</ele>
        <time>2021-03-21T12:37:15Z</time>
      </trkpt>
      <trkpt lat="43.09634" lon="2.29823">
        <ele>242.1</ele>
        <time>2021-03-21T12:37:16Z</time>
      </trkpt>
      <trkpt lat="43.09637" lon="2.29819">
        <ele>242.6</ele>
        <time>2021-03-21T12:37:17Z</time>
      </trkpt>
      <trkpt lat="43.09637" lon="2.29818">
        <ele>242.7</ele>
        <time>2021-03-21T12:37:18Z</time>
      </trkpt>
      <trkpt lat="43.0964" lon="2.29814">
        <ele>243.2</ele>
        <time>2021-03-21T12:37:20Z</time>
      </trkpt>
      <trkpt lat="43.09642" lon="2.29811">
        <ele>243.6</ele>
        <time>2021-03-21T12:37:21Z</time>
      </trkpt>
      <trkpt lat="43.09644" lon="2.29808">
        <ele>244</ele>
        <time>2021-03-21T12:37:22Z</time>
      </trkpt>
      <trkpt lat="43.09645" lon="2.29807">
        <ele>244.2</ele>
        <time>2021-03-21T12:37:23Z</time>
      </trkpt>
      <trkpt lat="43.09649" lon="2.29803">
        <ele>244.8</ele>
        <time>2021-03-21T12:37:25Z</time>
      </trkpt>
      <trkpt lat="43.0965" lon="2.29802">
        <ele>245.1</ele>
        <time>2021-03-21T12:37:26Z</time>
      </trkpt>
      <trkpt lat="43.09651" lon="2.29801">
        <ele>245.3</ele>
        <time>2021-03-21T12:37:27Z</time>
      </trkpt>
      <trkpt lat="43.09654" lon="2.29799">
        <ele>245.7</ele>
        <time>2021-03-21T12:37:28Z</time>
      </trkpt>
      <trkpt lat="43.09656" lon="2.29797">
        <ele>246.1</ele>
        <time>2021-03-21T12:37:30Z</time>
      </trkpt>
      <trkpt lat="43.09659" lon="2.29794">
        <ele>246.7</ele>
        <time>2021-03-21T12:37:31Z</time>
      </trkpt>
      <trkpt lat="43.09663" lon="2.29791">
        <ele>247.3</ele>
        <time>2021-03-21T12:37:32Z</time>
      </trkpt>
      <trkpt lat="43.09666" lon="2.29788">
        <ele>247.8</ele>
        <time>2021-03-21T12:37:34Z</time>
      </trkpt>
      <trkpt lat="43.09669" lon="2.29785">
        <ele>248.3</ele>
        <time>2021-03-21T12:37:35Z</time>
      </trkpt>
      <trkpt lat="43.0967" lon="2.29784">
        <ele>248.6</ele>
        <time>2021-03-21T12:37:36Z</time>
      </trkpt>
      <trkpt lat="43.09672" lon="2.29781">
        <ele>249</ele>
        <time>2021-03-21T12:37:38Z</time>
      </trkpt>
      <trkpt lat="43.09675" lon="2.29778">
        <ele>249.5</ele>
        <time>2021-03-21T12:37:39Z</time>
      </trkpt>
      <trkpt lat="43.09677" lon="2.29775">
        <ele>250</ele>
        <time>2021-03-21T12:37:40Z</time>
      </trkpt>
      <trkpt lat="43.09681" lon="2.29771">
        <ele>250.7</ele>
        <time>2021-03-21T12:37:42Z</time>
      </trkpt>
      <trkpt lat="43.09682" lon="2.2977">
        <ele>251</ele>
        <time>2021-03-21T12:37:43Z</time>
      </trkpt>
      <trkpt lat="43.09683" lon="2.29768">
        <ele>251.2</ele>
        <time>2021-03-21T12:37:44Z</time>
      </trkpt>
      <trkpt lat="43.09687" lon="2.29766">
        <ele>251.9</ele>
        <time>2021-03-21T12:37:46Z</time>
      </trkpt>
      <trkpt lat="43.09689" lon="2.29762">
        <ele>252.6</ele>
        <time>2021-03-21T12:37:47Z</time>
      </trkpt>
      <trkpt lat="43.0969" lon="2.29761">
        <ele>252.8</ele>
        <time>2021-03-21T12:37:48Z</time>
      </trkpt>
      <trkpt lat="43.09693" lon="2.29757">
        <ele>253.5</ele>
        <time>2021-03-21T12:37:50Z</time>
      </trkpt>
      <trkpt lat="43.09696" lon="2.29753">
        <ele>254.2</ele>
        <time>2021-03-21T12:37:51Z</time>
      </trkpt>
      <trkpt lat="43.09698" lon="2.2975">
        <ele>254.8</ele>
        <time>2021-03-21T12:37:52Z</time>
      </trkpt>
      <trkpt lat="43.097" lon="2.29748">
        <ele>255.2</ele>
        <time>2021-03-21T12:37:54Z</time>
      </trkpt>
      <trkpt lat="43.097" lon="2.29746">
        <ele>255.4</ele>
        <time>2021-03-21T12:37:55Z</time>
      </trkpt>
      <trkpt lat="43.09703" lon="2.29743">
        <ele>256</ele>
        <time>2021-03-21T12:37:57Z</time>
      </trkpt>
      <trkpt lat="43.09704" lon="2.29742">
        <ele>256.3</ele>
        <time>2021-03-21T12:37:58Z</time>
      </trkpt>
      <trkpt lat="43.09708" lon="2.29739">
        <ele>257.1</ele>
        <time>2021-03-21T12:37:59Z</time>
      </trkpt>
      <trkpt lat="43.09711" lon="2.29737">
        <ele>257.6</ele>
        <time>2021-03-21T12:38:00Z</time>
      </trkpt>
      <trkpt lat="43.09711" lon="2.29736">
        <ele>257.8</ele>
        <time>2021-03-21T12:38:01Z</time>
      </trkpt>
      <trkpt lat="43.09714" lon="2.29734">
        <ele>258.3</ele>
        <time>2021-03-21T12:38:02Z</time>
      </trkpt>
      <trkpt lat="43.09715" lon="2.29734">
        <ele>258.4</ele>
        <time>2021-03-21T12:38:03Z</time>
      </trkpt>
      <trkpt lat="43.09718" lon="2.29731">
        <ele>259</ele>
        <time>2021-03-21T12:38:05Z</time>
      </trkpt>
      <trkpt lat="43.0972" lon="2.2973">
        <ele>259.4</ele>
        <time>2021-03-21T12:38:06Z</time>
      </trkpt>
      <trkpt lat="43.09722" lon="2.29729">
        <ele>259.7</ele>
        <time>2021-03-21T12:38:08Z</time>
      </trkpt>
      <trkpt lat="43.09725" lon="2.29727">
        <ele>260.2</ele>
        <time>2021-03-21T12:38:09Z</time>
      </trkpt>
      <trkpt lat="43.09727" lon="2.29725">
        <ele>260.6</ele>
        <time>2021-03-21T12:38:10Z</time>
      </trkpt>
      <trkpt lat="43.09728" lon="2.29725">
        <ele>260.8</ele>
        <time>2021-03-21T12:38:11Z</time>
      </trkpt>
      <trkpt lat="43.0973" lon="2.29724">
        <ele>261.1</ele>
        <time>2021-03-21T12:38:12Z</time>
      </trkpt>
      <trkpt lat="43.09734" lon="2.29722">
        <ele>261.7</ele>
        <time>2021-03-21T12:38:14Z</time>
      </trkpt>
      <trkpt lat="43.09735" lon="2.29721">
        <ele>261.9</ele>
        <time>2021-03-21T12:38:15Z</time>
      </trkpt>
      <trkpt lat="43.09737" lon="2.2972">
        <ele>262.1</ele>
        <time>2021-03-21T12:38:16Z</time>
      </trkpt>
      <trkpt lat="43.09739" lon="2.29718">
        <ele>262.4</ele>
        <time>2021-03-21T12:38:17Z</time>
      </trkpt>
      <trkpt lat="43.09743" lon="2.29714">
        <ele>263.1</ele>
        <time>2021-03-21T12:38:19Z</time>
      </trkpt>
      <trkpt lat="43.09746" lon="2.29712">
        <ele>263.6</ele>
        <time>2021-03-21T12:38:21Z</time>
      </trkpt>
      <trkpt lat="43.09749" lon="2.29711">
        <ele>264</ele>
        <time>2021-03-21T12:38:23Z</time>
      </trkpt>
      <trkpt lat="43.09753" lon="2.2971">
        <ele>264.5</ele>
        <time>2021-03-21T12:38:24Z</time>
      </trkpt>
      <trkpt lat="43.09756" lon="2.29708">
        <ele>264.9</ele>
        <time>2021-03-21T12:38:25Z</time>
      </trkpt>
      <trkpt lat="43.09757" lon="2.29707">
        <ele>265.1</ele>
        <time>2021-03-21T12:38:26Z</time>
      </trkpt>
      <trkpt lat="43.09759" lon="2.29705">
        <ele>265.5</ele>
        <time>2021-03-21T12:38:27Z</time>
      </trkpt>
      <trkpt lat="43.09764" lon="2.29702">
        <ele>266.2</ele>
        <time>2021-03-21T12:38:29Z</time>
      </trkpt>
      <trkpt lat="43.09769" lon="2.29698">
        <ele>267.1</ele>
        <time>2021-03-21T12:38:30Z</time>
      </trkpt>
      <trkpt lat="43.09771" lon="2.29696">
        <ele>267.4</ele>
        <time>2021-03-21T12:38:31Z</time>
      </trkpt>
      <trkpt lat="43.09775" lon="2.29694">
        <ele>268.1</ele>
        <time>2021-03-21T12:38:33Z</time>
      </trkpt>
      <trkpt lat="43.09777" lon="2.29693">
        <ele>268.5</ele>
        <time>2021-03-21T12:38:34Z</time>
      </trkpt>
      <trkpt lat="43.0978" lon="2.29691">
        <ele>269</ele>
        <time>2021-03-21T12:38:36Z</time>
      </trkpt>
      <trkpt lat="43.09783" lon="2.29689">
        <ele>269.4</ele>
        <time>2021-03-21T12:38:37Z</time>
      </trkpt>
      <trkpt lat="43.09786" lon="2.29688">
        <ele>269.9</ele>
        <time>2021-03-21T12:38:38Z</time>
      </trkpt>
      <trkpt lat="43.09787" lon="2.29687">
        <ele>270.1</ele>
        <time>2021-03-21T12:38:39Z</time>
      </trkpt>
      <trkpt lat="43.09791" lon="2.29684">
        <ele>270.8</ele>
        <time>2021-03-21T12:38:41Z</time>
      </trkpt>
      <trkpt lat="43.09793" lon="2.29683">
        <ele>271.1</ele>
        <time>2021-03-21T12:38:42Z</time>
      </trkpt>
      <trkpt lat="43.09795" lon="2.29682">
        <ele>271.4</ele>
        <time>2021-03-21T12:38:43Z</time>
      </trkpt>
      <trkpt lat="43.09798" lon="2.2968">
        <ele>272</ele>
        <time>2021-03-21T12:38:44Z</time>
      </trkpt>
      <trkpt lat="43.098" lon="2.29679">
        <ele>272.2</ele>
        <time>2021-03-21T12:38:45Z</time>
      </trkpt>
      <trkpt lat="43.09803" lon="2.29677">
        <ele>272.8</ele>
        <time>2021-03-21T12:38:47Z</time>
      </trkpt>
      <trkpt lat="43.09807" lon="2.29675">
        <ele>273.3</ele>
        <time>2021-03-21T12:38:48Z</time>
      </trkpt>
      <trkpt lat="43.0981" lon="2.29674">
        <ele>273.9</ele>
        <time>2021-03-21T12:38:50Z</time>
      </trkpt>
      <trkpt lat="43.09814" lon="2.29673">
        <ele>274.4</ele>
        <time>2021-03-21T12:38:51Z</time>
      </trkpt>
      <trkpt lat="43.09815" lon="2.29673">
        <ele>274.6</ele>
        <time>2021-03-21T12:38:52Z</time>
      </trkpt>
      <trkpt lat="43.09819" lon="2.29672">
        <ele>275.2</ele>
        <time>2021-03-21T12:38:54Z</time>
      </trkpt>
      <trkpt lat="43.0982" lon="2.29671">
        <ele>275.4</ele>
        <time>2021-03-21T12:38:55Z</time>
      </trkpt>
      <trkpt lat="43.09824" lon="2.29669">
        <ele>275.9</ele>
        <time>2021-03-21T12:38:56Z</time>
      </trkpt>
      <trkpt lat="43.09825" lon="2.29668">
        <ele>276.2</ele>
        <time>2021-03-21T12:38:57Z</time>
      </trkpt>
      <trkpt lat="43.09827" lon="2.29667">
        <ele>276.6</ele>
        <time>2021-03-21T12:38:58Z</time>
      </trkpt>
      <trkpt lat="43.09831" lon="2.29666">
        <ele>277.1</ele>
        <time>2021-03-21T12:39:00Z</time>
      </trkpt>
      <trkpt lat="43.09834" lon="2.29665">
        <ele>277.5</ele>
        <time>2021-03-21T12:39:01Z</time>
      </trkpt>
      <trkpt lat="43.09839" lon="2.29663">
        <ele>278.2</ele>
        <time>2021-03-21T12:39:03Z</time>
      </trkpt>
      <trkpt lat="43.0984" lon="2.29662">
        <ele>278.5</ele>
        <time>2021-03-21T12:39:04Z</time>
      </trkpt>
      <trkpt lat="43.09841" lon="2.29661">
        <ele>278.6</ele>
        <time>2021-03-21T12:39:05Z</time>
      </trkpt>
      <trkpt lat="43.09844" lon="2.2966">
        <ele>278.7</ele>
        <time>2021-03-21T12:39:06Z</time>
      </trkpt>
      <trkpt lat="43.09848" lon="2.29659">
        <ele>278.8</ele>
        <time>2021-03-21T12:39:07Z</time>
      </trkpt>
      <trkpt lat="43.09849" lon="2.29658">
        <ele>278.8</ele>
        <time>2021-03-21T12:39:08Z</time>
      </trkpt>
      <trkpt lat="43.09852" lon="2.29655">
        <ele>278.8</ele>
        <time>2021-03-21T12:39:10Z</time>
      </trkpt>
      <trkpt lat="43.09853" lon="2.29651">
        <ele>278.9</ele>
        <time>2021-03-21T12:39:11Z</time>
      </trkpt>
      <trkpt lat="43.09854" lon="2.29648">
        <ele>279.2</ele>
        <time>2021-03-21T12:39:12Z</time>
      </trkpt>
      <trkpt lat="43.09855" lon="2.29643">
        <ele>279.4</ele>
        <time>2021-03-21T12:39:13Z</time>
      </trkpt>
      <trkpt lat="43.09856" lon="2.29639">
        <ele>279.6</ele>
        <time>2021-03-21T12:39:15Z</time>
      </trkpt>
      <trkpt lat="43.09858" lon="2.29633">
        <ele>279.8</ele>
        <time>2021-03-21T12:39:16Z</time>
      </trkpt>
      <trkpt lat="43.0986" lon="2.29629">
        <ele>279.9</ele>
        <time>2021-03-21T12:39:17Z</time>
      </trkpt>
      <trkpt lat="43.09862" lon="2.29626">
        <ele>280.1</ele>
        <time>2021-03-21T12:39:18Z</time>
      </trkpt>
      <trkpt lat="43.09865" lon="2.29621">
        <ele>280.3</ele>
        <time>2021-03-21T12:39:20Z</time>
      </trkpt>
      <trkpt lat="43.09867" lon="2.29617">
        <ele>280.4</ele>
        <time>2021-03-21T12:39:21Z</time>
      </trkpt>
      <trkpt lat="43.09869" lon="2.29613">
        <ele>280.5</ele>
        <time>2021-03-21T12:39:22Z</time>
      </trkpt>
      <trkpt lat="43.09872" lon="2.29608">
        <ele>280.7</ele>
        <time>2021-03-21T12:39:23Z</time>
      </trkpt>
      <trkpt lat="43.09876" lon="2.29602">
        <ele>280.8</ele>
        <time>2021-03-21T12:39:25Z</time>
      </trkpt>
      <trkpt lat="43.09881" lon="2.29597">
        <ele>280.8</ele>
        <time>2021-03-21T12:39:27Z</time>
      </trkpt>
      <trkpt lat="43.09885" lon="2.29592">
        <ele>280.8</ele>
        <time>2021-03-21T12:39:28Z</time>
      </trkpt>
      <trkpt lat="43.09889" lon="2.29587">
        <ele>280.7</ele>
        <time>2021-03-21T12:39:29Z</time>
      </trkpt>
      <trkpt lat="43.09897" lon="2.29577">
        <ele>280.4</ele>
        <time>2021-03-21T12:39:31Z</time>
      </trkpt>
      <trkpt lat="43.099" lon="2.29571">
        <ele>280.1</ele>
        <time>2021-03-21T12:39:32Z</time>
      </trkpt>
      <trkpt lat="43.09906" lon="2.29559">
        <ele>279.6</ele>
        <time>2021-03-21T12:39:34Z</time>
      </trkpt>
      <trkpt lat="43.09913" lon="2.29545">
        <ele>279.1</ele>
        <time>2021-03-21T12:39:36Z</time>
      </trkpt>
      <trkpt lat="43.09917" lon="2.29538">
        <ele>278.8</ele>
        <time>2021-03-21T12:39:37Z</time>
      </trkpt>
      <trkpt lat="43.09925" lon="2.29526">
        <ele>278.4</ele>
        <time>2021-03-21T12:39:39Z</time>
      </trkpt>
      <trkpt lat="43.0993" lon="2.2952">
        <ele>278.1</ele>
        <time>2021-03-21T12:39:40Z</time>
      </trkpt>
      <trkpt lat="43.09938" lon="2.29507">
        <ele>277.5</ele>
        <time>2021-03-21T12:39:42Z</time>
      </trkpt>
      <trkpt lat="43.09944" lon="2.29491">
        <ele>276.9</ele>
        <time>2021-03-21T12:39:44Z</time>
      </trkpt>
      <trkpt lat="43.09948" lon="2.29474">
        <ele>276.2</ele>
        <time>2021-03-21T12:39:46Z</time>
      </trkpt>
      <trkpt lat="43.0995" lon="2.29465">
        <ele>275.7</ele>
        <time>2021-03-21T12:39:47Z</time>
      </trkpt>
      <trkpt lat="43.09954" lon="2.29447">
        <ele>274.5</ele>
        <time>2021-03-21T12:39:49Z</time>
      </trkpt>
      <trkpt lat="43.09956" lon="2.29437">
        <ele>273.6</ele>
        <time>2021-03-21T12:39:50Z</time>
      </trkpt>
      <trkpt lat="43.0996" lon="2.29414">
        <ele>271.4</ele>
        <time>2021-03-21T12:39:52Z</time>
      </trkpt>
      <trkpt lat="43.09968" lon="2.29391">
        <ele>269.8</ele>
        <time>2021-03-21T12:39:54Z</time>
      </trkpt>
      <trkpt lat="43.09973" lon="2.2938">
        <ele>269.6</ele>
        <time>2021-03-21T12:39:55Z</time>
      </trkpt>
      <trkpt lat="43.09988" lon="2.29366">
        <ele>270.2</ele>
        <time>2021-03-21T12:39:57Z</time>
      </trkpt>
      <trkpt lat="43.09995" lon="2.29362">
        <ele>270.5</ele>
        <time>2021-03-21T12:39:58Z</time>
      </trkpt>
      <trkpt lat="43.10007" lon="2.29357">
        <ele>270.7</ele>
        <time>2021-03-21T12:40:00Z</time>
      </trkpt>
      <trkpt lat="43.10012" lon="2.29355">
        <ele>270.5</ele>
        <time>2021-03-21T12:40:01Z</time>
      </trkpt>
      <trkpt lat="43.10016" lon="2.29354">
        <ele>270.3</ele>
        <time>2021-03-21T12:40:02Z</time>
      </trkpt>
      <trkpt lat="43.10022" lon="2.29355">
        <ele>269.8</ele>
        <time>2021-03-21T12:40:03Z</time>
      </trkpt>
      <trkpt lat="43.10036" lon="2.29362">
        <ele>268.4</ele>
        <time>2021-03-21T12:40:05Z</time>
      </trkpt>
      <trkpt lat="43.10053" lon="2.2937">
        <ele>266.6</ele>
        <time>2021-03-21T12:40:07Z</time>
      </trkpt>
      <trkpt lat="43.10063" lon="2.29374">
        <ele>265.5</ele>
        <time>2021-03-21T12:40:08Z</time>
      </trkpt>
      <trkpt lat="43.10073" lon="2.29377">
        <ele>264.6</ele>
        <time>2021-03-21T12:40:09Z</time>
      </trkpt>
      <trkpt lat="43.10094" lon="2.29379">
        <ele>262.4</ele>
        <time>2021-03-21T12:40:11Z</time>
      </trkpt>
      <trkpt lat="43.10115" lon="2.29377">
        <ele>260.4</ele>
        <time>2021-03-21T12:40:13Z</time>
      </trkpt>
      <trkpt lat="43.10137" lon="2.29379">
        <ele>258.4</ele>
        <time>2021-03-21T12:40:15Z</time>
      </trkpt>
      <trkpt lat="43.10148" lon="2.29384">
        <ele>257.6</ele>
        <time>2021-03-21T12:40:16Z</time>
      </trkpt>
      <trkpt lat="43.1017" lon="2.29394">
        <ele>256.1</ele>
        <time>2021-03-21T12:40:18Z</time>
      </trkpt>
      <trkpt lat="43.10191" lon="2.29403">
        <ele>255.1</ele>
        <time>2021-03-21T12:40:20Z</time>
      </trkpt>
      <trkpt lat="43.10212" lon="2.29412">
        <ele>254.1</ele>
        <time>2021-03-21T12:40:22Z</time>
      </trkpt>
      <trkpt lat="43.10221" lon="2.29417">
        <ele>253.4</ele>
        <time>2021-03-21T12:40:23Z</time>
      </trkpt>
      <trkpt lat="43.10236" lon="2.29432">
        <ele>251.6</ele>
        <time>2021-03-21T12:40:25Z</time>
      </trkpt>
      <trkpt lat="43.10252" lon="2.29442">
        <ele>249.7</ele>
        <time>2021-03-21T12:40:27Z</time>
      </trkpt>
      <trkpt lat="43.10261" lon="2.29441">
        <ele>248.7</ele>
        <time>2021-03-21T12:40:28Z</time>
      </trkpt>
      <trkpt lat="43.10272" lon="2.29438">
        <ele>247.5</ele>
        <time>2021-03-21T12:40:29Z</time>
      </trkpt>
      <trkpt lat="43.10295" lon="2.29432">
        <ele>244.9</ele>
        <time>2021-03-21T12:40:31Z</time>
      </trkpt>
      <trkpt lat="43.10318" lon="2.2943">
        <ele>241.8</ele>
        <time>2021-03-21T12:40:33Z</time>
      </trkpt>
      <trkpt lat="43.1034" lon="2.29429">
        <ele>238.4</ele>
        <time>2021-03-21T12:40:35Z</time>
      </trkpt>
      <trkpt lat="43.10363" lon="2.29429">
        <ele>235.1</ele>
        <time>2021-03-21T12:40:37Z</time>
      </trkpt>
      <trkpt lat="43.10386" lon="2.29431">
        <ele>231.7</ele>
        <time>2021-03-21T12:40:39Z</time>
      </trkpt>
      <trkpt lat="43.10397" lon="2.2943">
        <ele>230.1</ele>
        <time>2021-03-21T12:40:40Z</time>
      </trkpt>
      <trkpt lat="43.10419" lon="2.29426">
        <ele>227.4</ele>
        <time>2021-03-21T12:40:42Z</time>
      </trkpt>
      <trkpt lat="43.10431" lon="2.29425">
        <ele>226.1</ele>
        <time>2021-03-21T12:40:43Z</time>
      </trkpt>
      <trkpt lat="43.10454" lon="2.29427">
        <ele>224</ele>
        <time>2021-03-21T12:40:45Z</time>
      </trkpt>
      <trkpt lat="43.10465" lon="2.29426">
        <ele>223.1</ele>
        <time>2021-03-21T12:40:46Z</time>
      </trkpt>
      <trkpt lat="43.10487" lon="2.29414">
        <ele>221.5</ele>
        <time>2021-03-21T12:40:48Z</time>
      </trkpt>
      <trkpt lat="43.10496" lon="2.29406">
        <ele>220.8</ele>
        <time>2021-03-21T12:40:49Z</time>
      </trkpt>
      <trkpt lat="43.10505" lon="2.29397">
        <ele>220.1</ele>
        <time>2021-03-21T12:40:50Z</time>
      </trkpt>
      <trkpt lat="43.10522" lon="2.29381">
        <ele>218.9</ele>
        <time>2021-03-21T12:40:52Z</time>
      </trkpt>
      <trkpt lat="43.1053" lon="2.29374">
        <ele>218.3</ele>
        <time>2021-03-21T12:40:53Z</time>
      </trkpt>
      <trkpt lat="43.10547" lon="2.29365">
        <ele>216.6</ele>
        <time>2021-03-21T12:40:55Z</time>
      </trkpt>
      <trkpt lat="43.10556" lon="2.29362">
        <ele>215.7</ele>
        <time>2021-03-21T12:40:56Z</time>
      </trkpt>
      <trkpt lat="43.10575" lon="2.29358">
        <ele>213.6</ele>
        <time>2021-03-21T12:40:58Z</time>
      </trkpt>
      <trkpt lat="43.10584" lon="2.29356">
        <ele>212.5</ele>
        <time>2021-03-21T12:40:59Z</time>
      </trkpt>
      <trkpt lat="43.10593" lon="2.29354">
        <ele>211.4</ele>
        <time>2021-03-21T12:41:00Z</time>
      </trkpt>
      <trkpt lat="43.10602" lon="2.29351">
        <ele>210.3</ele>
        <time>2021-03-21T12:41:01Z</time>
      </trkpt>
      <trkpt lat="43.1062" lon="2.29347">
        <ele>208.2</ele>
        <time>2021-03-21T12:41:03Z</time>
      </trkpt>
      <trkpt lat="43.10638" lon="2.29343">
        <ele>206.2</ele>
        <time>2021-03-21T12:41:05Z</time>
      </trkpt>
      <trkpt lat="43.10657" lon="2.29338">
        <ele>203.9</ele>
        <time>2021-03-21T12:41:07Z</time>
      </trkpt>
      <trkpt lat="43.10667" lon="2.29336">
        <ele>202.7</ele>
        <time>2021-03-21T12:41:08Z</time>
      </trkpt>
      <trkpt lat="43.10685" lon="2.29328">
        <ele>200.2</ele>
        <time>2021-03-21T12:41:10Z</time>
      </trkpt>
      <trkpt lat="43.10703" lon="2.29317">
        <ele>197.7</ele>
        <time>2021-03-21T12:41:12Z</time>
      </trkpt>
      <trkpt lat="43.10713" lon="2.29312">
        <ele>196.6</ele>
        <time>2021-03-21T12:41:13Z</time>
      </trkpt>
      <trkpt lat="43.10723" lon="2.29307">
        <ele>195.4</ele>
        <time>2021-03-21T12:41:14Z</time>
      </trkpt>
      <trkpt lat="43.10743" lon="2.29299">
        <ele>193.2</ele>
        <time>2021-03-21T12:41:16Z</time>
      </trkpt>
      <trkpt lat="43.10753" lon="2.29295">
        <ele>192.3</ele>
        <time>2021-03-21T12:41:17Z</time>
      </trkpt>
      <trkpt lat="43.10764" lon="2.29292">
        <ele>191.3</ele>
        <time>2021-03-21T12:41:18Z</time>
      </trkpt>
      <trkpt lat="43.10784" lon="2.29284">
        <ele>189.7</ele>
        <time>2021-03-21T12:41:20Z</time>
      </trkpt>
      <trkpt lat="43.10795" lon="2.2928">
        <ele>188.9</ele>
        <time>2021-03-21T12:41:21Z</time>
      </trkpt>
      <trkpt lat="43.10815" lon="2.29272">
        <ele>187.3</ele>
        <time>2021-03-21T12:41:23Z</time>
      </trkpt>
      <trkpt lat="43.10833" lon="2.2926">
        <ele>185.7</ele>
        <time>2021-03-21T12:41:25Z</time>
      </trkpt>
      <trkpt lat="43.10842" lon="2.29253">
        <ele>184.9</ele>
        <time>2021-03-21T12:41:26Z</time>
      </trkpt>
      <trkpt lat="43.1085" lon="2.29245">
        <ele>184.2</ele>
        <time>2021-03-21T12:41:27Z</time>
      </trkpt>
      <trkpt lat="43.10858" lon="2.29237">
        <ele>183.5</ele>
        <time>2021-03-21T12:41:28Z</time>
      </trkpt>
      <trkpt lat="43.10873" lon="2.29221">
        <ele>182.2</ele>
        <time>2021-03-21T12:41:30Z</time>
      </trkpt>
      <trkpt lat="43.10889" lon="2.29206">
        <ele>180.9</ele>
        <time>2021-03-21T12:41:32Z</time>
      </trkpt>
      <trkpt lat="43.10896" lon="2.29199">
        <ele>180.3</ele>
        <time>2021-03-21T12:41:33Z</time>
      </trkpt>
      <trkpt lat="43.10911" lon="2.29185">
        <ele>179.1</ele>
        <time>2021-03-21T12:41:35Z</time>
      </trkpt>
      <trkpt lat="43.10919" lon="2.29179">
        <ele>178.3</ele>
        <time>2021-03-21T12:41:36Z</time>
      </trkpt>
      <trkpt lat="43.10926" lon="2.29171">
        <ele>177.4</ele>
        <time>2021-03-21T12:41:37Z</time>
      </trkpt>
      <trkpt lat="43.10933" lon="2.29163">
        <ele>176.5</ele>
        <time>2021-03-21T12:41:38Z</time>
      </trkpt>
      <trkpt lat="43.10947" lon="2.29147">
        <ele>174.7</ele>
        <time>2021-03-21T12:41:40Z</time>
      </trkpt>
      <trkpt lat="43.10954" lon="2.29139">
        <ele>173.9</ele>
        <time>2021-03-21T12:41:41Z</time>
      </trkpt>
      <trkpt lat="43.10962" lon="2.29134">
        <ele>172.8</ele>
        <time>2021-03-21T12:41:42Z</time>
      </trkpt>
      <trkpt lat="43.10981" lon="2.29124">
        <ele>170.2</ele>
        <time>2021-03-21T12:41:44Z</time>
      </trkpt>
      <trkpt lat="43.11" lon="2.2911">
        <ele>167.2</ele>
        <time>2021-03-21T12:41:46Z</time>
      </trkpt>
      <trkpt lat="43.11009" lon="2.29099">
        <ele>165.7</ele>
        <time>2021-03-21T12:41:47Z</time>
      </trkpt>
      <trkpt lat="43.11023" lon="2.29076">
        <ele>162.7</ele>
        <time>2021-03-21T12:41:49Z</time>
      </trkpt>
      <trkpt lat="43.11038" lon="2.29057">
        <ele>160.2</ele>
        <time>2021-03-21T12:41:51Z</time>
      </trkpt>
      <trkpt lat="43.11046" lon="2.2905">
        <ele>159.2</ele>
        <time>2021-03-21T12:41:52Z</time>
      </trkpt>
      <trkpt lat="43.11054" lon="2.29044">
        <ele>158.1</ele>
        <time>2021-03-21T12:41:53Z</time>
      </trkpt>
      <trkpt lat="43.11069" lon="2.29032">
        <ele>156.2</ele>
        <time>2021-03-21T12:41:55Z</time>
      </trkpt>
      <trkpt lat="43.11083" lon="2.29021">
        <ele>154.6</ele>
        <time>2021-03-21T12:41:57Z</time>
      </trkpt>
      <trkpt lat="43.11089" lon="2.29015">
        <ele>153.9</ele>
        <time>2021-03-21T12:41:58Z</time>
      </trkpt>
      <trkpt lat="43.111" lon="2.29009">
        <ele>152.9</ele>
        <time>2021-03-21T12:42:00Z</time>
      </trkpt>
      <trkpt lat="43.11105" lon="2.29008">
        <ele>152.8</ele>
        <time>2021-03-21T12:42:01Z</time>
      </trkpt>
      <trkpt lat="43.11111" lon="2.29009">
        <ele>152.6</ele>
        <time>2021-03-21T12:42:02Z</time>
      </trkpt>
      <trkpt lat="43.11126" lon="2.29012">
        <ele>152.1</ele>
        <time>2021-03-21T12:42:04Z</time>
      </trkpt>
      <trkpt lat="43.11142" lon="2.29013">
        <ele>151.7</ele>
        <time>2021-03-21T12:42:06Z</time>
      </trkpt>
      <trkpt lat="43.11158" lon="2.29013">
        <ele>151.3</ele>
        <time>2021-03-21T12:42:08Z</time>
      </trkpt>
      <trkpt lat="43.11167" lon="2.29013">
        <ele>151.1</ele>
        <time>2021-03-21T12:42:09Z</time>
      </trkpt>
      <trkpt lat="43.11182" lon="2.29013">
        <ele>150.9</ele>
        <time>2021-03-21T12:42:11Z</time>
      </trkpt>
      <trkpt lat="43.11197" lon="2.29014">
        <ele>150.8</ele>
        <time>2021-03-21T12:42:13Z</time>
      </trkpt>
      <trkpt lat="43.11211" lon="2.29016">
        <ele>150.9</ele>
        <time>2021-03-21T12:42:15Z</time>
      </trkpt>
      <trkpt lat="43.11218" lon="2.29015">
        <ele>150.8</ele>
        <time>2021-03-21T12:42:16Z</time>
      </trkpt>
      <trkpt lat="43.11225" lon="2.29012">
        <ele>150.8</ele>
        <time>2021-03-21T12:42:17Z</time>
      </trkpt>
      <trkpt lat="43.11232" lon="2.29008">
        <ele>150.7</ele>
        <time>2021-03-21T12:42:18Z</time>
      </trkpt>
      <trkpt lat="43.11246" lon="2.28998">
        <ele>150.6</ele>
        <time>2021-03-21T12:42:20Z</time>
      </trkpt>
      <trkpt lat="43.11252" lon="2.28993">
        <ele>150.6</ele>
        <time>2021-03-21T12:42:21Z</time>
      </trkpt>
      <trkpt lat="43.11258" lon="2.28988">
        <ele>150.5</ele>
        <time>2021-03-21T12:42:22Z</time>
      </trkpt>
      <trkpt lat="43.1127" lon="2.2898">
        <ele>150.3</ele>
        <time>2021-03-21T12:42:24Z</time>
      </trkpt>
      <trkpt lat="43.11283" lon="2.28972">
        <ele>149.6</ele>
        <time>2021-03-21T12:42:26Z</time>
      </trkpt>
      <trkpt lat="43.11289" lon="2.28967">
        <ele>149.3</ele>
        <time>2021-03-21T12:42:27Z</time>
      </trkpt>
      <trkpt lat="43.11296" lon="2.28962">
        <ele>148.9</ele>
        <time>2021-03-21T12:42:28Z</time>
      </trkpt>
      <trkpt lat="43.11309" lon="2.28952">
        <ele>148.3</ele>
        <time>2021-03-21T12:42:30Z</time>
      </trkpt>
      <trkpt lat="43.11315" lon="2.28948">
        <ele>148</ele>
        <time>2021-03-21T12:42:31Z</time>
      </trkpt>
      <trkpt lat="43.11322" lon="2.28943">
        <ele>147.7</ele>
        <time>2021-03-21T12:42:32Z</time>
      </trkpt>
      <trkpt lat="43.11328" lon="2.28938">
        <ele>147.5</ele>
        <time>2021-03-21T12:42:33Z</time>
      </trkpt>
      <trkpt lat="43.11341" lon="2.28928">
        <ele>147</ele>
        <time>2021-03-21T12:42:35Z</time>
      </trkpt>
      <trkpt lat="43.11348" lon="2.28923">
        <ele>146.8</ele>
        <time>2021-03-21T12:42:36Z</time>
      </trkpt>
      <trkpt lat="43.11355" lon="2.28918">
        <ele>146.6</ele>
        <time>2021-03-21T12:42:37Z</time>
      </trkpt>
      <trkpt lat="43.11368" lon="2.28908">
        <ele>146.2</ele>
        <time>2021-03-21T12:42:39Z</time>
      </trkpt>
      <trkpt lat="43.11375" lon="2.28903">
        <ele>146</ele>
        <time>2021-03-21T12:42:40Z</time>
      </trkpt>
      <trkpt lat="43.11389" lon="2.28894">
        <ele>145.7</ele>
        <time>2021-03-21T12:42:42Z</time>
      </trkpt>
      <trkpt lat="43.11402" lon="2.28884">
        <ele>145.3</ele>
        <time>2021-03-21T12:42:44Z</time>
      </trkpt>
      <trkpt lat="43.11409" lon="2.28879">
        <ele>145.2</ele>
        <time>2021-03-21T12:42:45Z</time>
      </trkpt>
      <trkpt lat="43.11422" lon="2.28869">
        <ele>144.8</ele>
        <time>2021-03-21T12:42:47Z</time>
      </trkpt>
      <trkpt lat="43.11436" lon="2.28859">
        <ele>144.5</ele>
        <time>2021-03-21T12:42:49Z</time>
      </trkpt>
      <trkpt lat="43.1145" lon="2.28849">
        <ele>144.2</ele>
        <time>2021-03-21T12:42:51Z</time>
      </trkpt>
      <trkpt lat="43.11457" lon="2.28845">
        <ele>144.1</ele>
        <time>2021-03-21T12:42:52Z</time>
      </trkpt>
      <trkpt lat="43.1147" lon="2.28835">
        <ele>143.8</ele>
        <time>2021-03-21T12:42:54Z</time>
      </trkpt>
      <trkpt lat="43.11484" lon="2.28825">
        <ele>143.6</ele>
        <time>2021-03-21T12:42:56Z</time>
      </trkpt>
      <trkpt lat="43.11491" lon="2.2882">
        <ele>143.4</ele>
        <time>2021-03-21T12:42:57Z</time>
      </trkpt>
      <trkpt lat="43.11505" lon="2.28809">
        <ele>143.2</ele>
        <time>2021-03-21T12:42:59Z</time>
      </trkpt>
      <trkpt lat="43.11511" lon="2.28803">
        <ele>143.1</ele>
        <time>2021-03-21T12:43:00Z</time>
      </trkpt>
      <trkpt lat="43.11524" lon="2.28791">
        <ele>142.9</ele>
        <time>2021-03-21T12:43:02Z</time>
      </trkpt>
      <trkpt lat="43.1153" lon="2.28785">
        <ele>142.8</ele>
        <time>2021-03-21T12:43:03Z</time>
      </trkpt>
      <trkpt lat="43.11541" lon="2.28771">
        <ele>142.6</ele>
        <time>2021-03-21T12:43:05Z</time>
      </trkpt>
      <trkpt lat="43.11552" lon="2.28755">
        <ele>142.4</ele>
        <time>2021-03-21T12:43:07Z</time>
      </trkpt>
      <trkpt lat="43.1156" lon="2.28738">
        <ele>142.2</ele>
        <time>2021-03-21T12:43:09Z</time>
      </trkpt>
      <trkpt lat="43.11564" lon="2.2873">
        <ele>142.1</ele>
        <time>2021-03-21T12:43:10Z</time>
      </trkpt>
      <trkpt lat="43.1157" lon="2.28713">
        <ele>142.1</ele>
        <time>2021-03-21T12:43:12Z</time>
      </trkpt>
      <trkpt lat="43.11573" lon="2.28704">
        <ele>142</ele>
        <time>2021-03-21T12:43:13Z</time>
      </trkpt>
      <trkpt lat="43.11579" lon="2.28687">
        <ele>142.1</ele>
        <time>2021-03-21T12:43:15Z</time>
      </trkpt>
      <trkpt lat="43.11583" lon="2.28679">
        <ele>142.2</ele>
        <time>2021-03-21T12:43:16Z</time>
      </trkpt>
      <trkpt lat="43.11586" lon="2.28671">
        <ele>142.3</ele>
        <time>2021-03-21T12:43:17Z</time>
      </trkpt>
      <trkpt lat="43.11593" lon="2.28656">
        <ele>142.5</ele>
        <time>2021-03-21T12:43:19Z</time>
      </trkpt>
      <trkpt lat="43.116" lon="2.28642">
        <ele>142.8</ele>
        <time>2021-03-21T12:43:21Z</time>
      </trkpt>
      <trkpt lat="43.11609" lon="2.2863">
        <ele>143.1</ele>
        <time>2021-03-21T12:43:23Z</time>
      </trkpt>
      <trkpt lat="43.11613" lon="2.28625">
        <ele>143.2</ele>
        <time>2021-03-21T12:43:24Z</time>
      </trkpt>
      <trkpt lat="43.11623" lon="2.28616">
        <ele>143.4</ele>
        <time>2021-03-21T12:43:26Z</time>
      </trkpt>
      <trkpt lat="43.11634" lon="2.28609">
        <ele>143.7</ele>
        <time>2021-03-21T12:43:28Z</time>
      </trkpt>
      <trkpt lat="43.11645" lon="2.28603">
        <ele>144.2</ele>
        <time>2021-03-21T12:43:30Z</time>
      </trkpt>
      <trkpt lat="43.11656" lon="2.28599">
        <ele>144.7</ele>
        <time>2021-03-21T12:43:32Z</time>
      </trkpt>
      <trkpt lat="43.11661" lon="2.28597">
        <ele>145</ele>
        <time>2021-03-21T12:43:33Z</time>
      </trkpt>
      <trkpt lat="43.1167" lon="2.28594">
        <ele>145.5</ele>
        <time>2021-03-21T12:43:35Z</time>
      </trkpt>
      <trkpt lat="43.11675" lon="2.28593">
        <ele>145.7</ele>
        <time>2021-03-21T12:43:36Z</time>
      </trkpt>
      <trkpt lat="43.11684" lon="2.2859">
        <ele>146</ele>
        <time>2021-03-21T12:43:38Z</time>
      </trkpt>
      <trkpt lat="43.11688" lon="2.28589">
        <ele>146.2</ele>
        <time>2021-03-21T12:43:39Z</time>
      </trkpt>
      <trkpt lat="43.11695" lon="2.28587">
        <ele>146.4</ele>
        <time>2021-03-21T12:43:41Z</time>
      </trkpt>
      <trkpt lat="43.11705" lon="2.28584">
        <ele>146.6</ele>
        <time>2021-03-21T12:43:43Z</time>
      </trkpt>
      <trkpt lat="43.1171" lon="2.28582">
        <ele>146.7</ele>
        <time>2021-03-21T12:43:44Z</time>
      </trkpt>
      <trkpt lat="43.1172" lon="2.28578">
        <ele>146.8</ele>
        <time>2021-03-21T12:43:46Z</time>
      </trkpt>
      <trkpt lat="43.11731" lon="2.28575">
        <ele>146.9</ele>
        <time>2021-03-21T12:43:48Z</time>
      </trkpt>
      <trkpt lat="43.11742" lon="2.2857">
        <ele>146.9</ele>
        <time>2021-03-21T12:43:50Z</time>
      </trkpt>
      <trkpt lat="43.11754" lon="2.28565">
        <ele>146.9</ele>
        <time>2021-03-21T12:43:52Z</time>
      </trkpt>
      <trkpt lat="43.11766" lon="2.28561">
        <ele>146.9</ele>
        <time>2021-03-21T12:43:54Z</time>
      </trkpt>
      <trkpt lat="43.11772" lon="2.2856">
        <ele>146.9</ele>
        <time>2021-03-21T12:43:55Z</time>
      </trkpt>
      <trkpt lat="43.11778" lon="2.28558">
        <ele>146.9</ele>
        <time>2021-03-21T12:43:56Z</time>
      </trkpt>
      <trkpt lat="43.11784" lon="2.28556">
        <ele>146.9</ele>
        <time>2021-03-21T12:43:57Z</time>
      </trkpt>
      <trkpt lat="43.11797" lon="2.28558">
        <ele>146.9</ele>
        <time>2021-03-21T12:43:59Z</time>
      </trkpt>
      <trkpt lat="43.11808" lon="2.28565">
        <ele>146.8</ele>
        <time>2021-03-21T12:44:01Z</time>
      </trkpt>
      <trkpt lat="43.11814" lon="2.28568">
        <ele>146.8</ele>
        <time>2021-03-21T12:44:02Z</time>
      </trkpt>
      <trkpt lat="43.1182" lon="2.2857">
        <ele>146.8</ele>
        <time>2021-03-21T12:44:03Z</time>
      </trkpt>
      <trkpt lat="43.11832" lon="2.28565">
        <ele>146.7</ele>
        <time>2021-03-21T12:44:05Z</time>
      </trkpt>
      <trkpt lat="43.11842" lon="2.28551">
        <ele>146.8</ele>
        <time>2021-03-21T12:44:07Z</time>
      </trkpt>
      <trkpt lat="43.11852" lon="2.28539">
        <ele>147</ele>
        <time>2021-03-21T12:44:09Z</time>
      </trkpt>
      <trkpt lat="43.11857" lon="2.28536">
        <ele>147.1</ele>
        <time>2021-03-21T12:44:10Z</time>
      </trkpt>
      <trkpt lat="43.11864" lon="2.28535">
        <ele>147.1</ele>
        <time>2021-03-21T12:44:11Z</time>
      </trkpt>
      <trkpt lat="43.11878" lon="2.28537">
        <ele>147.3</ele>
        <time>2021-03-21T12:44:13Z</time>
      </trkpt>
      <trkpt lat="43.11892" lon="2.28543">
        <ele>147.6</ele>
        <time>2021-03-21T12:44:15Z</time>
      </trkpt>
      <trkpt lat="43.11905" lon="2.28547">
        <ele>147.9</ele>
        <time>2021-03-21T12:44:17Z</time>
      </trkpt>
      <trkpt lat="43.11912" lon="2.28547">
        <ele>148.1</ele>
        <time>2021-03-21T12:44:18Z</time>
      </trkpt>
      <trkpt lat="43.11919" lon="2.28546">
        <ele>148.3</ele>
        <time>2021-03-21T12:44:19Z</time>
      </trkpt>
      <trkpt lat="43.11933" lon="2.2854">
        <ele>148.7</ele>
        <time>2021-03-21T12:44:21Z</time>
      </trkpt>
      <trkpt lat="43.11939" lon="2.28535">
        <ele>148.9</ele>
        <time>2021-03-21T12:44:22Z</time>
      </trkpt>
      <trkpt lat="43.11945" lon="2.28529">
        <ele>149</ele>
        <time>2021-03-21T12:44:23Z</time>
      </trkpt>
      <trkpt lat="43.1195" lon="2.28522">
        <ele>149.2</ele>
        <time>2021-03-21T12:44:24Z</time>
      </trkpt>
      <trkpt lat="43.11958" lon="2.28507">
        <ele>149.3</ele>
        <time>2021-03-21T12:44:26Z</time>
      </trkpt>
      <trkpt lat="43.11961" lon="2.28499">
        <ele>149.3</ele>
        <time>2021-03-21T12:44:27Z</time>
      </trkpt>
      <trkpt lat="43.11965" lon="2.28482">
        <ele>149.3</ele>
        <time>2021-03-21T12:44:29Z</time>
      </trkpt>
      <trkpt lat="43.11967" lon="2.28474">
        <ele>149.3</ele>
        <time>2021-03-21T12:44:30Z</time>
      </trkpt>
      <trkpt lat="43.11971" lon="2.28459">
        <ele>149.4</ele>
        <time>2021-03-21T12:44:32Z</time>
      </trkpt>
      <trkpt lat="43.11973" lon="2.28451">
        <ele>149.4</ele>
        <time>2021-03-21T12:44:33Z</time>
      </trkpt>
      <trkpt lat="43.11977" lon="2.28436">
        <ele>149.4</ele>
        <time>2021-03-21T12:44:35Z</time>
      </trkpt>
      <trkpt lat="43.11979" lon="2.28429">
        <ele>149.4</ele>
        <time>2021-03-21T12:44:36Z</time>
      </trkpt>
      <trkpt lat="43.11983" lon="2.28415">
        <ele>149.4</ele>
        <time>2021-03-21T12:44:38Z</time>
      </trkpt>
      <trkpt lat="43.11985" lon="2.28408">
        <ele>149.5</ele>
        <time>2021-03-21T12:44:39Z</time>
      </trkpt>
      <trkpt lat="43.11989" lon="2.28393">
        <ele>149.5</ele>
        <time>2021-03-21T12:44:41Z</time>
      </trkpt>
      <trkpt lat="43.11991" lon="2.28386">
        <ele>149.5</ele>
        <time>2021-03-21T12:44:42Z</time>
      </trkpt>
      <trkpt lat="43.11993" lon="2.28379">
        <ele>149.5</ele>
        <time>2021-03-21T12:44:43Z</time>
      </trkpt>
      <trkpt lat="43.11996" lon="2.28371">
        <ele>149.5</ele>
        <time>2021-03-21T12:44:44Z</time>
      </trkpt>
      <trkpt lat="43.12" lon="2.28356">
        <ele>149.5</ele>
        <time>2021-03-21T12:44:46Z</time>
      </trkpt>
      <trkpt lat="43.12002" lon="2.28348">
        <ele>149.5</ele>
        <time>2021-03-21T12:44:47Z</time>
      </trkpt>
      <trkpt lat="43.12004" lon="2.28341">
        <ele>149.5</ele>
        <time>2021-03-21T12:44:48Z</time>
      </trkpt>
      <trkpt lat="43.12006" lon="2.28334">
        <ele>149.5</ele>
        <time>2021-03-21T12:44:49Z</time>
      </trkpt>
      <trkpt lat="43.1201" lon="2.2832">
        <ele>149.5</ele>
        <time>2021-03-21T12:44:51Z</time>
      </trkpt>
      <trkpt lat="43.12012" lon="2.28313">
        <ele>149.4</ele>
        <time>2021-03-21T12:44:52Z</time>
      </trkpt>
      <trkpt lat="43.12014" lon="2.28306">
        <ele>149.4</ele>
        <time>2021-03-21T12:44:53Z</time>
      </trkpt>
      <trkpt lat="43.12018" lon="2.28291">
        <ele>149.4</ele>
        <time>2021-03-21T12:44:55Z</time>
      </trkpt>
      <trkpt lat="43.12022" lon="2.28278">
        <ele>149.4</ele>
        <time>2021-03-21T12:44:57Z</time>
      </trkpt>
      <trkpt lat="43.12025" lon="2.28265">
        <ele>149.4</ele>
        <time>2021-03-21T12:44:59Z</time>
      </trkpt>
      <trkpt lat="43.12027" lon="2.28258">
        <ele>149.5</ele>
        <time>2021-03-21T12:45:00Z</time>
      </trkpt>
      <trkpt lat="43.12029" lon="2.28251">
        <ele>149.5</ele>
        <time>2021-03-21T12:45:01Z</time>
      </trkpt>
      <trkpt lat="43.12033" lon="2.28237">
        <ele>149.5</ele>
        <time>2021-03-21T12:45:03Z</time>
      </trkpt>
      <trkpt lat="43.12036" lon="2.28223">
        <ele>149.5</ele>
        <time>2021-03-21T12:45:05Z</time>
      </trkpt>
      <trkpt lat="43.12041" lon="2.2821">
        <ele>149.6</ele>
        <time>2021-03-21T12:45:07Z</time>
      </trkpt>
      <trkpt lat="43.12044" lon="2.28203">
        <ele>149.6</ele>
        <time>2021-03-21T12:45:08Z</time>
      </trkpt>
      <trkpt lat="43.12048" lon="2.28189">
        <ele>149.6</ele>
        <time>2021-03-21T12:45:10Z</time>
      </trkpt>
      <trkpt lat="43.12053" lon="2.28175">
        <ele>149.6</ele>
        <time>2021-03-21T12:45:12Z</time>
      </trkpt>
      <trkpt lat="43.12054" lon="2.28168">
        <ele>149.7</ele>
        <time>2021-03-21T12:45:13Z</time>
      </trkpt>
      <trkpt lat="43.12058" lon="2.28154">
        <ele>149.7</ele>
        <time>2021-03-21T12:45:15Z</time>
      </trkpt>
      <trkpt lat="43.12062" lon="2.28139">
        <ele>149.7</ele>
        <time>2021-03-21T12:45:17Z</time>
      </trkpt>
      <trkpt lat="43.12065" lon="2.28131">
        <ele>149.6</ele>
        <time>2021-03-21T12:45:18Z</time>
      </trkpt>
      <trkpt lat="43.12069" lon="2.28115">
        <ele>149.6</ele>
        <time>2021-03-21T12:45:20Z</time>
      </trkpt>
      <trkpt lat="43.12074" lon="2.28099">
        <ele>149.6</ele>
        <time>2021-03-21T12:45:22Z</time>
      </trkpt>
      <trkpt lat="43.12078" lon="2.28083">
        <ele>149.5</ele>
        <time>2021-03-21T12:45:24Z</time>
      </trkpt>
      <trkpt lat="43.12081" lon="2.28074">
        <ele>149.5</ele>
        <time>2021-03-21T12:45:25Z</time>
      </trkpt>
      <trkpt lat="43.12086" lon="2.28057">
        <ele>149.5</ele>
        <time>2021-03-21T12:45:27Z</time>
      </trkpt>
      <trkpt lat="43.12088" lon="2.28049">
        <ele>149.4</ele>
        <time>2021-03-21T12:45:28Z</time>
      </trkpt>
      <trkpt lat="43.1209" lon="2.28041">
        <ele>149.4</ele>
        <time>2021-03-21T12:45:29Z</time>
      </trkpt>
      <trkpt lat="43.12095" lon="2.28025">
        <ele>149.4</ele>
        <time>2021-03-21T12:45:31Z</time>
      </trkpt>
      <trkpt lat="43.12099" lon="2.28009">
        <ele>149.3</ele>
        <time>2021-03-21T12:45:33Z</time>
      </trkpt>
      <trkpt lat="43.12102" lon="2.27993">
        <ele>149.3</ele>
        <time>2021-03-21T12:45:35Z</time>
      </trkpt>
      <trkpt lat="43.12104" lon="2.27985">
        <ele>149.3</ele>
        <time>2021-03-21T12:45:36Z</time>
      </trkpt>
      <trkpt lat="43.12105" lon="2.27976">
        <ele>149.3</ele>
        <time>2021-03-21T12:45:37Z</time>
      </trkpt>
      <trkpt lat="43.12106" lon="2.27968">
        <ele>149.3</ele>
        <time>2021-03-21T12:45:38Z</time>
      </trkpt>
      <trkpt lat="43.12107" lon="2.27951">
        <ele>149.4</ele>
        <time>2021-03-21T12:45:40Z</time>
      </trkpt>
      <trkpt lat="43.12109" lon="2.27934">
        <ele>149.6</ele>
        <time>2021-03-21T12:45:42Z</time>
      </trkpt>
      <trkpt lat="43.1211" lon="2.27926">
        <ele>149.7</ele>
        <time>2021-03-21T12:45:43Z</time>
      </trkpt>
      <trkpt lat="43.12111" lon="2.27917">
        <ele>149.8</ele>
        <time>2021-03-21T12:45:44Z</time>
      </trkpt>
      <trkpt lat="43.12113" lon="2.27901">
        <ele>150</ele>
        <time>2021-03-21T12:45:46Z</time>
      </trkpt>
      <trkpt lat="43.12115" lon="2.27884">
        <ele>150.2</ele>
        <time>2021-03-21T12:45:48Z</time>
      </trkpt>
      <trkpt lat="43.12116" lon="2.27876">
        <ele>150.3</ele>
        <time>2021-03-21T12:45:49Z</time>
      </trkpt>
      <trkpt lat="43.12118" lon="2.27859">
        <ele>150.5</ele>
        <time>2021-03-21T12:45:51Z</time>
      </trkpt>
      <trkpt lat="43.12119" lon="2.27851">
        <ele>150.7</ele>
        <time>2021-03-21T12:45:52Z</time>
      </trkpt>
      <trkpt lat="43.1212" lon="2.27843">
        <ele>150.8</ele>
        <time>2021-03-21T12:45:53Z</time>
      </trkpt>
      <trkpt lat="43.12122" lon="2.27828">
        <ele>151.2</ele>
        <time>2021-03-21T12:45:55Z</time>
      </trkpt>
      <trkpt lat="43.12123" lon="2.27822">
        <ele>151.4</ele>
        <time>2021-03-21T12:45:56Z</time>
      </trkpt>
      <trkpt lat="43.12124" lon="2.27815">
        <ele>151.6</ele>
        <time>2021-03-21T12:45:57Z</time>
      </trkpt>
      <trkpt lat="43.12124" lon="2.27801">
        <ele>151.9</ele>
        <time>2021-03-21T12:45:59Z</time>
      </trkpt>
      <trkpt lat="43.12125" lon="2.27788">
        <ele>152.4</ele>
        <time>2021-03-21T12:46:01Z</time>
      </trkpt>
      <trkpt lat="43.12125" lon="2.27781">
        <ele>152.6</ele>
        <time>2021-03-21T12:46:02Z</time>
      </trkpt>
      <trkpt lat="43.12126" lon="2.27773">
        <ele>152.8</ele>
        <time>2021-03-21T12:46:03Z</time>
      </trkpt>
      <trkpt lat="43.12127" lon="2.27766">
        <ele>153.1</ele>
        <time>2021-03-21T12:46:04Z</time>
      </trkpt>
      <trkpt lat="43.12129" lon="2.27752">
        <ele>153.6</ele>
        <time>2021-03-21T12:46:06Z</time>
      </trkpt>
      <trkpt lat="43.1213" lon="2.27747">
        <ele>153.8</ele>
        <time>2021-03-21T12:46:07Z</time>
      </trkpt>
      <trkpt lat="43.12132" lon="2.27736">
        <ele>154.2</ele>
        <time>2021-03-21T12:46:09Z</time>
      </trkpt>
      <trkpt lat="43.12134" lon="2.27725">
        <ele>154.6</ele>
        <time>2021-03-21T12:46:11Z</time>
      </trkpt>
      <trkpt lat="43.12136" lon="2.27706">
        <ele>155.3</ele>
        <time>2021-03-21T12:46:13Z</time>
      </trkpt>
      <trkpt lat="43.12137" lon="2.27695">
        <ele>155.8</ele>
        <time>2021-03-21T12:46:15Z</time>
      </trkpt>
      <trkpt lat="43.12138" lon="2.27688">
        <ele>156.1</ele>
        <time>2021-03-21T12:46:16Z</time>
      </trkpt>
      <trkpt lat="43.12141" lon="2.27673">
        <ele>156.7</ele>
        <time>2021-03-21T12:46:18Z</time>
      </trkpt>
      <trkpt lat="43.12142" lon="2.27666">
        <ele>157</ele>
        <time>2021-03-21T12:46:19Z</time>
      </trkpt>
      <trkpt lat="43.12144" lon="2.27658">
        <ele>157.4</ele>
        <time>2021-03-21T12:46:20Z</time>
      </trkpt>
      <trkpt lat="43.12147" lon="2.27644">
        <ele>158</ele>
        <time>2021-03-21T12:46:22Z</time>
      </trkpt>
      <trkpt lat="43.1215" lon="2.2763">
        <ele>158.7</ele>
        <time>2021-03-21T12:46:24Z</time>
      </trkpt>
      <trkpt lat="43.12152" lon="2.27617">
        <ele>159.3</ele>
        <time>2021-03-21T12:46:26Z</time>
      </trkpt>
      <trkpt lat="43.12154" lon="2.2761">
        <ele>159.6</ele>
        <time>2021-03-21T12:46:27Z</time>
      </trkpt>
      <trkpt lat="43.12156" lon="2.27598">
        <ele>160.2</ele>
        <time>2021-03-21T12:46:29Z</time>
      </trkpt>
      <trkpt lat="43.12158" lon="2.27592">
        <ele>160.5</ele>
        <time>2021-03-21T12:46:30Z</time>
      </trkpt>
      <trkpt lat="43.12159" lon="2.27586">
        <ele>160.8</ele>
        <time>2021-03-21T12:46:31Z</time>
      </trkpt>
      <trkpt lat="43.1216" lon="2.27581">
        <ele>161</ele>
        <time>2021-03-21T12:46:32Z</time>
      </trkpt>
      <trkpt lat="43.12161" lon="2.27577">
        <ele>161.2</ele>
        <time>2021-03-21T12:46:33Z</time>
      </trkpt>
      <trkpt lat="43.12167" lon="2.27575">
        <ele>161.5</ele>
        <time>2021-03-21T12:46:35Z</time>
      </trkpt>
      <trkpt lat="43.12169" lon="2.27569">
        <ele>161.7</ele>
        <time>2021-03-21T12:46:36Z</time>
      </trkpt>
      <trkpt lat="43.1217" lon="2.27561">
        <ele>162</ele>
        <time>2021-03-21T12:46:37Z</time>
      </trkpt>
      <trkpt lat="43.12171" lon="2.27554">
        <ele>162.3</ele>
        <time>2021-03-21T12:46:38Z</time>
      </trkpt>
      <trkpt lat="43.12171" lon="2.27548">
        <ele>162.5</ele>
        <time>2021-03-21T12:46:39Z</time>
      </trkpt>
      <trkpt lat="43.12171" lon="2.27529">
        <ele>163.1</ele>
        <time>2021-03-21T12:46:41Z</time>
      </trkpt>
      <trkpt lat="43.12173" lon="2.27515">
        <ele>163.5</ele>
        <time>2021-03-21T12:46:43Z</time>
      </trkpt>
      <trkpt lat="43.12174" lon="2.27507">
        <ele>163.8</ele>
        <time>2021-03-21T12:46:45Z</time>
      </trkpt>
      <trkpt lat="43.12176" lon="2.275">
        <ele>163.9</ele>
        <time>2021-03-21T12:46:46Z</time>
      </trkpt>
      <trkpt lat="43.12177" lon="2.27493">
        <ele>164.1</ele>
        <time>2021-03-21T12:46:47Z</time>
      </trkpt>
      <trkpt lat="43.12179" lon="2.27485">
        <ele>164.3</ele>
        <time>2021-03-21T12:46:48Z</time>
      </trkpt>
      <trkpt lat="43.12182" lon="2.27473">
        <ele>164.6</ele>
        <time>2021-03-21T12:46:50Z</time>
      </trkpt>
      <trkpt lat="43.12183" lon="2.27469">
        <ele>164.6</ele>
        <time>2021-03-21T12:46:51Z</time>
      </trkpt>
      <trkpt lat="43.12185" lon="2.27465">
        <ele>164.7</ele>
        <time>2021-03-21T12:46:52Z</time>
      </trkpt>
      <trkpt lat="43.12186" lon="2.27457">
        <ele>164.8</ele>
        <time>2021-03-21T12:46:53Z</time>
      </trkpt>
      <trkpt lat="43.12189" lon="2.27446">
        <ele>165</ele>
        <time>2021-03-21T12:46:55Z</time>
      </trkpt>
      <trkpt lat="43.12191" lon="2.27439">
        <ele>165.1</ele>
        <time>2021-03-21T12:46:56Z</time>
      </trkpt>
      <trkpt lat="43.12195" lon="2.27425">
        <ele>165.4</ele>
        <time>2021-03-21T12:46:58Z</time>
      </trkpt>
      <trkpt lat="43.12196" lon="2.27419">
        <ele>165.4</ele>
        <time>2021-03-21T12:46:59Z</time>
      </trkpt>
      <trkpt lat="43.12199" lon="2.27406">
        <ele>165.6</ele>
        <time>2021-03-21T12:47:01Z</time>
      </trkpt>
      <trkpt lat="43.12201" lon="2.274">
        <ele>165.7</ele>
        <time>2021-03-21T12:47:02Z</time>
      </trkpt>
      <trkpt lat="43.12203" lon="2.27394">
        <ele>165.8</ele>
        <time>2021-03-21T12:47:03Z</time>
      </trkpt>
      <trkpt lat="43.12207" lon="2.27382">
        <ele>166</ele>
        <time>2021-03-21T12:47:05Z</time>
      </trkpt>
      <trkpt lat="43.1221" lon="2.27368">
        <ele>166.1</ele>
        <time>2021-03-21T12:47:07Z</time>
      </trkpt>
      <trkpt lat="43.12214" lon="2.27355">
        <ele>166.3</ele>
        <time>2021-03-21T12:47:09Z</time>
      </trkpt>
      <trkpt lat="43.12216" lon="2.27348">
        <ele>166.4</ele>
        <time>2021-03-21T12:47:10Z</time>
      </trkpt>
      <trkpt lat="43.12219" lon="2.27334">
        <ele>166.6</ele>
        <time>2021-03-21T12:47:12Z</time>
      </trkpt>
      <trkpt lat="43.12221" lon="2.27328">
        <ele>166.7</ele>
        <time>2021-03-21T12:47:13Z</time>
      </trkpt>
      <trkpt lat="43.12224" lon="2.27315">
        <ele>166.8</ele>
        <time>2021-03-21T12:47:15Z</time>
      </trkpt>
      <trkpt lat="43.12226" lon="2.27309">
        <ele>166.9</ele>
        <time>2021-03-21T12:47:16Z</time>
      </trkpt>
      <trkpt lat="43.12229" lon="2.27297">
        <ele>167.1</ele>
        <time>2021-03-21T12:47:18Z</time>
      </trkpt>
      <trkpt lat="43.12233" lon="2.27284">
        <ele>167.3</ele>
        <time>2021-03-21T12:47:20Z</time>
      </trkpt>
      <trkpt lat="43.12235" lon="2.27278">
        <ele>167.4</ele>
        <time>2021-03-21T12:47:21Z</time>
      </trkpt>
      <trkpt lat="43.12239" lon="2.27264">
        <ele>167.6</ele>
        <time>2021-03-21T12:47:23Z</time>
      </trkpt>
      <trkpt lat="43.12242" lon="2.27251">
        <ele>167.9</ele>
        <time>2021-03-21T12:47:25Z</time>
      </trkpt>
      <trkpt lat="43.12244" lon="2.27244">
        <ele>168</ele>
        <time>2021-03-21T12:47:26Z</time>
      </trkpt>
      <trkpt lat="43.12246" lon="2.27238">
        <ele>168.2</ele>
        <time>2021-03-21T12:47:27Z</time>
      </trkpt>
      <trkpt lat="43.1225" lon="2.27225">
        <ele>168.4</ele>
        <time>2021-03-21T12:47:29Z</time>
      </trkpt>
      <trkpt lat="43.12254" lon="2.27212">
        <ele>168.7</ele>
        <time>2021-03-21T12:47:31Z</time>
      </trkpt>
      <trkpt lat="43.12256" lon="2.27205">
        <ele>168.8</ele>
        <time>2021-03-21T12:47:32Z</time>
      </trkpt>
      <trkpt lat="43.12258" lon="2.27199">
        <ele>168.9</ele>
        <time>2021-03-21T12:47:33Z</time>
      </trkpt>
      <trkpt lat="43.12263" lon="2.27186">
        <ele>169.1</ele>
        <time>2021-03-21T12:47:35Z</time>
      </trkpt>
      <trkpt lat="43.12269" lon="2.27173">
        <ele>169.3</ele>
        <time>2021-03-21T12:47:37Z</time>
      </trkpt>
      <trkpt lat="43.12272" lon="2.27167">
        <ele>169.4</ele>
        <time>2021-03-21T12:47:38Z</time>
      </trkpt>
      <trkpt lat="43.1228" lon="2.27156">
        <ele>169.5</ele>
        <time>2021-03-21T12:47:40Z</time>
      </trkpt>
      <trkpt lat="43.12288" lon="2.27146">
        <ele>169.6</ele>
        <time>2021-03-21T12:47:42Z</time>
      </trkpt>
      <trkpt lat="43.12296" lon="2.27135">
        <ele>169.8</ele>
        <time>2021-03-21T12:47:44Z</time>
      </trkpt>
      <trkpt lat="43.12305" lon="2.27125">
        <ele>169.9</ele>
        <time>2021-03-21T12:47:46Z</time>
      </trkpt>
      <trkpt lat="43.12309" lon="2.2712">
        <ele>170</ele>
        <time>2021-03-21T12:47:47Z</time>
      </trkpt>
      <trkpt lat="43.12317" lon="2.27109">
        <ele>170.3</ele>
        <time>2021-03-21T12:47:49Z</time>
      </trkpt>
      <trkpt lat="43.12324" lon="2.27099">
        <ele>170.6</ele>
        <time>2021-03-21T12:47:51Z</time>
      </trkpt>
      <trkpt lat="43.12332" lon="2.2709">
        <ele>171</ele>
        <time>2021-03-21T12:47:53Z</time>
      </trkpt>
      <trkpt lat="43.12338" lon="2.27083">
        <ele>171.3</ele>
        <time>2021-03-21T12:47:55Z</time>
      </trkpt>
      <trkpt lat="43.12344" lon="2.27073">
        <ele>171.6</ele>
        <time>2021-03-21T12:47:57Z</time>
      </trkpt>
      <trkpt lat="43.12348" lon="2.27068">
        <ele>171.8</ele>
        <time>2021-03-21T12:47:58Z</time>
      </trkpt>
      <trkpt lat="43.1235" lon="2.27062">
        <ele>172</ele>
        <time>2021-03-21T12:47:59Z</time>
      </trkpt>
      <trkpt lat="43.12353" lon="2.27056">
        <ele>172.2</ele>
        <time>2021-03-21T12:48:00Z</time>
      </trkpt>
      <trkpt lat="43.12357" lon="2.27044">
        <ele>172.6</ele>
        <time>2021-03-21T12:48:02Z</time>
      </trkpt>
      <trkpt lat="43.12361" lon="2.27039">
        <ele>172.8</ele>
        <time>2021-03-21T12:48:03Z</time>
      </trkpt>
      <trkpt lat="43.12365" lon="2.27032">
        <ele>173.1</ele>
        <time>2021-03-21T12:48:05Z</time>
      </trkpt>
      <trkpt lat="43.12367" lon="2.27023">
        <ele>173.3</ele>
        <time>2021-03-21T12:48:06Z</time>
      </trkpt>
      <trkpt lat="43.12369" lon="2.27016">
        <ele>173.6</ele>
        <time>2021-03-21T12:48:07Z</time>
      </trkpt>
      <trkpt lat="43.12373" lon="2.27004">
        <ele>174</ele>
        <time>2021-03-21T12:48:09Z</time>
      </trkpt>
      <trkpt lat="43.12375" lon="2.26998">
        <ele>174.2</ele>
        <time>2021-03-21T12:48:10Z</time>
      </trkpt>
      <trkpt lat="43.12378" lon="2.2699">
        <ele>174.5</ele>
        <time>2021-03-21T12:48:12Z</time>
      </trkpt>
      <trkpt lat="43.12379" lon="2.26985">
        <ele>174.7</ele>
        <time>2021-03-21T12:48:13Z</time>
      </trkpt>
      <trkpt lat="43.12382" lon="2.26977">
        <ele>175</ele>
        <time>2021-03-21T12:48:14Z</time>
      </trkpt>
      <trkpt lat="43.12383" lon="2.26972">
        <ele>175.3</ele>
        <time>2021-03-21T12:48:15Z</time>
      </trkpt>
      <trkpt lat="43.12385" lon="2.26967">
        <ele>175.5</ele>
        <time>2021-03-21T12:48:16Z</time>
      </trkpt>
      <trkpt lat="43.12389" lon="2.26959">
        <ele>176</ele>
        <time>2021-03-21T12:48:18Z</time>
      </trkpt>
      <trkpt lat="43.12392" lon="2.26949">
        <ele>176.5</ele>
        <time>2021-03-21T12:48:20Z</time>
      </trkpt>
      <trkpt lat="43.12394" lon="2.26943">
        <ele>176.8</ele>
        <time>2021-03-21T12:48:21Z</time>
      </trkpt>
      <trkpt lat="43.12396" lon="2.26937">
        <ele>177.1</ele>
        <time>2021-03-21T12:48:22Z</time>
      </trkpt>
      <trkpt lat="43.12399" lon="2.2693">
        <ele>177.5</ele>
        <time>2021-03-21T12:48:24Z</time>
      </trkpt>
      <trkpt lat="43.12402" lon="2.26924">
        <ele>177.8</ele>
        <time>2021-03-21T12:48:25Z</time>
      </trkpt>
      <trkpt lat="43.12405" lon="2.26918">
        <ele>178.1</ele>
        <time>2021-03-21T12:48:26Z</time>
      </trkpt>
      <trkpt lat="43.12408" lon="2.26911">
        <ele>178.5</ele>
        <time>2021-03-21T12:48:28Z</time>
      </trkpt>
      <trkpt lat="43.12411" lon="2.26904">
        <ele>178.7</ele>
        <time>2021-03-21T12:48:29Z</time>
      </trkpt>
      <trkpt lat="43.12413" lon="2.26899">
        <ele>179</ele>
        <time>2021-03-21T12:48:30Z</time>
      </trkpt>
      <trkpt lat="43.12417" lon="2.26893">
        <ele>179.3</ele>
        <time>2021-03-21T12:48:32Z</time>
      </trkpt>
      <trkpt lat="43.1242" lon="2.26888">
        <ele>179.5</ele>
        <time>2021-03-21T12:48:33Z</time>
      </trkpt>
      <trkpt lat="43.12427" lon="2.26878">
        <ele>179.9</ele>
        <time>2021-03-21T12:48:34Z</time>
      </trkpt>
      <trkpt lat="43.1243" lon="2.26872">
        <ele>180.1</ele>
        <time>2021-03-21T12:48:35Z</time>
      </trkpt>
      <trkpt lat="43.12433" lon="2.26867">
        <ele>180.2</ele>
        <time>2021-03-21T12:48:36Z</time>
      </trkpt>
      <trkpt lat="43.1244" lon="2.26857">
        <ele>180.5</ele>
        <time>2021-03-21T12:48:38Z</time>
      </trkpt>
      <trkpt lat="43.12444" lon="2.26852">
        <ele>180.5</ele>
        <time>2021-03-21T12:48:39Z</time>
      </trkpt>
      <trkpt lat="43.1245" lon="2.26843">
        <ele>180.7</ele>
        <time>2021-03-21T12:48:41Z</time>
      </trkpt>
      <trkpt lat="43.12453" lon="2.26838">
        <ele>180.7</ele>
        <time>2021-03-21T12:48:42Z</time>
      </trkpt>
      <trkpt lat="43.12456" lon="2.26834">
        <ele>180.7</ele>
        <time>2021-03-21T12:48:43Z</time>
      </trkpt>
      <trkpt lat="43.1246" lon="2.26829">
        <ele>180.7</ele>
        <time>2021-03-21T12:48:44Z</time>
      </trkpt>
      <trkpt lat="43.12469" lon="2.26819">
        <ele>180.6</ele>
        <time>2021-03-21T12:48:46Z</time>
      </trkpt>
      <trkpt lat="43.12474" lon="2.26814">
        <ele>180.5</ele>
        <time>2021-03-21T12:48:47Z</time>
      </trkpt>
      <trkpt lat="43.12485" lon="2.26804">
        <ele>180.3</ele>
        <time>2021-03-21T12:48:49Z</time>
      </trkpt>
      <trkpt lat="43.1249" lon="2.26799">
        <ele>180.2</ele>
        <time>2021-03-21T12:48:50Z</time>
      </trkpt>
      <trkpt lat="43.12496" lon="2.26793">
        <ele>180.2</ele>
        <time>2021-03-21T12:48:51Z</time>
      </trkpt>
      <trkpt lat="43.12501" lon="2.26788">
        <ele>180.1</ele>
        <time>2021-03-21T12:48:52Z</time>
      </trkpt>
      <trkpt lat="43.1251" lon="2.26778">
        <ele>180</ele>
        <time>2021-03-21T12:48:54Z</time>
      </trkpt>
      <trkpt lat="43.1252" lon="2.26768">
        <ele>179.9</ele>
        <time>2021-03-21T12:48:56Z</time>
      </trkpt>
      <trkpt lat="43.12524" lon="2.26763">
        <ele>179.8</ele>
        <time>2021-03-21T12:48:57Z</time>
      </trkpt>
      <trkpt lat="43.12528" lon="2.26758">
        <ele>179.7</ele>
        <time>2021-03-21T12:48:58Z</time>
      </trkpt>
      <trkpt lat="43.12533" lon="2.26753">
        <ele>179.6</ele>
        <time>2021-03-21T12:48:59Z</time>
      </trkpt>
      <trkpt lat="43.1254" lon="2.26741">
        <ele>179.4</ele>
        <time>2021-03-21T12:49:01Z</time>
      </trkpt>
      <trkpt lat="43.12545" lon="2.26726">
        <ele>179.2</ele>
        <time>2021-03-21T12:49:03Z</time>
      </trkpt>
      <trkpt lat="43.12551" lon="2.2671">
        <ele>178.8</ele>
        <time>2021-03-21T12:49:05Z</time>
      </trkpt>
      <trkpt lat="43.1256" lon="2.26697">
        <ele>178.3</ele>
        <time>2021-03-21T12:49:07Z</time>
      </trkpt>
      <trkpt lat="43.12566" lon="2.26692">
        <ele>178.2</ele>
        <time>2021-03-21T12:49:08Z</time>
      </trkpt>
      <trkpt lat="43.12573" lon="2.2669">
        <ele>178.1</ele>
        <time>2021-03-21T12:49:09Z</time>
      </trkpt>
      <trkpt lat="43.12581" lon="2.26688">
        <ele>178</ele>
        <time>2021-03-21T12:49:10Z</time>
      </trkpt>
      <trkpt lat="43.12596" lon="2.26685">
        <ele>178</ele>
        <time>2021-03-21T12:49:12Z</time>
      </trkpt>
      <trkpt lat="43.12603" lon="2.26681">
        <ele>178</ele>
        <time>2021-03-21T12:49:13Z</time>
      </trkpt>
      <trkpt lat="43.12614" lon="2.26671">
        <ele>178.3</ele>
        <time>2021-03-21T12:49:15Z</time>
      </trkpt>
      <trkpt lat="43.12618" lon="2.26665">
        <ele>178.4</ele>
        <time>2021-03-21T12:49:16Z</time>
      </trkpt>
      <trkpt lat="43.12622" lon="2.26658">
        <ele>178.6</ele>
        <time>2021-03-21T12:49:17Z</time>
      </trkpt>
      <trkpt lat="43.12628" lon="2.26645">
        <ele>179</ele>
        <time>2021-03-21T12:49:19Z</time>
      </trkpt>
      <trkpt lat="43.12633" lon="2.26633">
        <ele>179.4</ele>
        <time>2021-03-21T12:49:21Z</time>
      </trkpt>
      <trkpt lat="43.12638" lon="2.26623">
        <ele>179.7</ele>
        <time>2021-03-21T12:49:23Z</time>
      </trkpt>
      <trkpt lat="43.1264" lon="2.26618">
        <ele>179.9</ele>
        <time>2021-03-21T12:49:24Z</time>
      </trkpt>
      <trkpt lat="43.12645" lon="2.26608">
        <ele>180.3</ele>
        <time>2021-03-21T12:49:26Z</time>
      </trkpt>
      <trkpt lat="43.12649" lon="2.26599">
        <ele>180.6</ele>
        <time>2021-03-21T12:49:28Z</time>
      </trkpt>
      <trkpt lat="43.12652" lon="2.26589">
        <ele>181</ele>
        <time>2021-03-21T12:49:30Z</time>
      </trkpt>
      <trkpt lat="43.12654" lon="2.26584">
        <ele>181.2</ele>
        <time>2021-03-21T12:49:31Z</time>
      </trkpt>
      <trkpt lat="43.1266" lon="2.26571">
        <ele>181.6</ele>
        <time>2021-03-21T12:49:33Z</time>
      </trkpt>
      <trkpt lat="43.12663" lon="2.26565">
        <ele>181.8</ele>
        <time>2021-03-21T12:49:34Z</time>
      </trkpt>
      <trkpt lat="43.12667" lon="2.26555">
        <ele>182.2</ele>
        <time>2021-03-21T12:49:36Z</time>
      </trkpt>
      <trkpt lat="43.1267" lon="2.26551">
        <ele>182.3</ele>
        <time>2021-03-21T12:49:37Z</time>
      </trkpt>
      <trkpt lat="43.12672" lon="2.26546">
        <ele>182.5</ele>
        <time>2021-03-21T12:49:39Z</time>
      </trkpt>
      <trkpt lat="43.12674" lon="2.26539">
        <ele>182.7</ele>
        <time>2021-03-21T12:49:40Z</time>
      </trkpt>
      <trkpt lat="43.12678" lon="2.26529">
        <ele>183</ele>
        <time>2021-03-21T12:49:41Z</time>
      </trkpt>
      <trkpt lat="43.1268" lon="2.26523">
        <ele>183.2</ele>
        <time>2021-03-21T12:49:42Z</time>
      </trkpt>
      <trkpt lat="43.12677" lon="2.26518">
        <ele>183.4</ele>
        <time>2021-03-21T12:49:43Z</time>
      </trkpt>
      <trkpt lat="43.12677" lon="2.26512">
        <ele>183.6</ele>
        <time>2021-03-21T12:49:45Z</time>
      </trkpt>
      <trkpt lat="43.12679" lon="2.26505">
        <ele>184</ele>
        <time>2021-03-21T12:49:46Z</time>
      </trkpt>
      <trkpt lat="43.12681" lon="2.26498">
        <ele>184.4</ele>
        <time>2021-03-21T12:49:47Z</time>
      </trkpt>
      <trkpt lat="43.12682" lon="2.26492">
        <ele>184.7</ele>
        <time>2021-03-21T12:49:48Z</time>
      </trkpt>
      <trkpt lat="43.12683" lon="2.26485">
        <ele>185.1</ele>
        <time>2021-03-21T12:49:49Z</time>
      </trkpt>
      <trkpt lat="43.12684" lon="2.26478">
        <ele>185.4</ele>
        <time>2021-03-21T12:49:51Z</time>
      </trkpt>
      <trkpt lat="43.12685" lon="2.2647">
        <ele>185.8</ele>
        <time>2021-03-21T12:49:52Z</time>
      </trkpt>
      <trkpt lat="43.12689" lon="2.26458">
        <ele>186.4</ele>
        <time>2021-03-21T12:49:53Z</time>
      </trkpt>
      <trkpt lat="43.1269" lon="2.26451">
        <ele>186.8</ele>
        <time>2021-03-21T12:49:54Z</time>
      </trkpt>
      <trkpt lat="43.12693" lon="2.26436">
        <ele>187.4</ele>
        <time>2021-03-21T12:49:56Z</time>
      </trkpt>
      <trkpt lat="43.12695" lon="2.26421">
        <ele>188.1</ele>
        <time>2021-03-21T12:49:58Z</time>
      </trkpt>
      <trkpt lat="43.12696" lon="2.26415">
        <ele>188.4</ele>
        <time>2021-03-21T12:49:59Z</time>
      </trkpt>
      <trkpt lat="43.12697" lon="2.26409">
        <ele>188.6</ele>
        <time>2021-03-21T12:50:00Z</time>
      </trkpt>
      <trkpt lat="43.12698" lon="2.26403">
        <ele>188.9</ele>
        <time>2021-03-21T12:50:02Z</time>
      </trkpt>
      <trkpt lat="43.12699" lon="2.26395">
        <ele>189.2</ele>
        <time>2021-03-21T12:50:03Z</time>
      </trkpt>
      <trkpt lat="43.12699" lon="2.26388">
        <ele>189.5</ele>
        <time>2021-03-21T12:50:05Z</time>
      </trkpt>
      <trkpt lat="43.127" lon="2.26381">
        <ele>189.8</ele>
        <time>2021-03-21T12:50:06Z</time>
      </trkpt>
      <trkpt lat="43.12701" lon="2.26375">
        <ele>190</ele>
        <time>2021-03-21T12:50:07Z</time>
      </trkpt>
      <trkpt lat="43.12701" lon="2.26368">
        <ele>190.2</ele>
        <time>2021-03-21T12:50:08Z</time>
      </trkpt>
      <trkpt lat="43.12702" lon="2.26359">
        <ele>190.5</ele>
        <time>2021-03-21T12:50:10Z</time>
      </trkpt>
      <trkpt lat="43.12703" lon="2.26352">
        <ele>190.6</ele>
        <time>2021-03-21T12:50:11Z</time>
      </trkpt>
      <trkpt lat="43.12706" lon="2.26341">
        <ele>191</ele>
        <time>2021-03-21T12:50:13Z</time>
      </trkpt>
      <trkpt lat="43.12708" lon="2.26329">
        <ele>191.3</ele>
        <time>2021-03-21T12:50:14Z</time>
      </trkpt>
      <trkpt lat="43.12712" lon="2.26313">
        <ele>191.9</ele>
        <time>2021-03-21T12:50:16Z</time>
      </trkpt>
      <trkpt lat="43.12713" lon="2.26305">
        <ele>192.2</ele>
        <time>2021-03-21T12:50:17Z</time>
      </trkpt>
      <trkpt lat="43.12715" lon="2.26291">
        <ele>192.8</ele>
        <time>2021-03-21T12:50:19Z</time>
      </trkpt>
      <trkpt lat="43.12716" lon="2.26284">
        <ele>193.1</ele>
        <time>2021-03-21T12:50:20Z</time>
      </trkpt>
      <trkpt lat="43.12716" lon="2.2628">
        <ele>193.3</ele>
        <time>2021-03-21T12:50:21Z</time>
      </trkpt>
      <trkpt lat="43.12717" lon="2.26273">
        <ele>193.6</ele>
        <time>2021-03-21T12:50:23Z</time>
      </trkpt>
      <trkpt lat="43.12718" lon="2.26266">
        <ele>194</ele>
        <time>2021-03-21T12:50:24Z</time>
      </trkpt>
      <trkpt lat="43.12719" lon="2.26259">
        <ele>194.3</ele>
        <time>2021-03-21T12:50:25Z</time>
      </trkpt>
      <trkpt lat="43.12719" lon="2.26253">
        <ele>194.6</ele>
        <time>2021-03-21T12:50:26Z</time>
      </trkpt>
      <trkpt lat="43.1272" lon="2.26247">
        <ele>194.8</ele>
        <time>2021-03-21T12:50:27Z</time>
      </trkpt>
      <trkpt lat="43.12721" lon="2.26239">
        <ele>195.2</ele>
        <time>2021-03-21T12:50:29Z</time>
      </trkpt>
      <trkpt lat="43.12722" lon="2.26233">
        <ele>195.5</ele>
        <time>2021-03-21T12:50:30Z</time>
      </trkpt>
      <trkpt lat="43.12723" lon="2.26226">
        <ele>195.7</ele>
        <time>2021-03-21T12:50:31Z</time>
      </trkpt>
      <trkpt lat="43.12723" lon="2.2622">
        <ele>196</ele>
        <time>2021-03-21T12:50:32Z</time>
      </trkpt>
      <trkpt lat="43.12725" lon="2.2621">
        <ele>196.4</ele>
        <time>2021-03-21T12:50:34Z</time>
      </trkpt>
      <trkpt lat="43.12726" lon="2.26199">
        <ele>196.9</ele>
        <time>2021-03-21T12:50:35Z</time>
      </trkpt>
      <trkpt lat="43.12723" lon="2.2619">
        <ele>197.3</ele>
        <time>2021-03-21T12:50:37Z</time>
      </trkpt>
      <trkpt lat="43.12723" lon="2.26183">
        <ele>197.6</ele>
        <time>2021-03-21T12:50:38Z</time>
      </trkpt>
      <trkpt lat="43.12723" lon="2.26173">
        <ele>198.1</ele>
        <time>2021-03-21T12:50:40Z</time>
      </trkpt>
      <trkpt lat="43.12724" lon="2.26164">
        <ele>198.4</ele>
        <time>2021-03-21T12:50:41Z</time>
      </trkpt>
      <trkpt lat="43.12723" lon="2.26155">
        <ele>198.7</ele>
        <time>2021-03-21T12:50:43Z</time>
      </trkpt>
      <trkpt lat="43.12724" lon="2.2614">
        <ele>199.2</ele>
        <time>2021-03-21T12:50:44Z</time>
      </trkpt>
      <trkpt lat="43.12724" lon="2.26132">
        <ele>199.5</ele>
        <time>2021-03-21T12:50:45Z</time>
      </trkpt>
      <trkpt lat="43.12723" lon="2.26118">
        <ele>199.8</ele>
        <time>2021-03-21T12:50:47Z</time>
      </trkpt>
      <trkpt lat="43.12724" lon="2.26103">
        <ele>200.2</ele>
        <time>2021-03-21T12:50:49Z</time>
      </trkpt>
      <trkpt lat="43.12724" lon="2.26097">
        <ele>200.3</ele>
        <time>2021-03-21T12:50:50Z</time>
      </trkpt>
      <trkpt lat="43.12725" lon="2.26089">
        <ele>200.4</ele>
        <time>2021-03-21T12:50:52Z</time>
      </trkpt>
      <trkpt lat="43.12726" lon="2.26079">
        <ele>200.6</ele>
        <time>2021-03-21T12:50:53Z</time>
      </trkpt>
      <trkpt lat="43.12726" lon="2.26072">
        <ele>200.7</ele>
        <time>2021-03-21T12:50:54Z</time>
      </trkpt>
      <trkpt lat="43.12726" lon="2.26065">
        <ele>200.8</ele>
        <time>2021-03-21T12:50:55Z</time>
      </trkpt>
      <trkpt lat="43.12726" lon="2.26055">
        <ele>201</ele>
        <time>2021-03-21T12:50:57Z</time>
      </trkpt>
      <trkpt lat="43.12726" lon="2.26049">
        <ele>201.1</ele>
        <time>2021-03-21T12:50:58Z</time>
      </trkpt>
      <trkpt lat="43.12727" lon="2.26038">
        <ele>201.3</ele>
        <time>2021-03-21T12:51:00Z</time>
      </trkpt>
      <trkpt lat="43.12727" lon="2.26031">
        <ele>201.4</ele>
        <time>2021-03-21T12:51:01Z</time>
      </trkpt>
      <trkpt lat="43.12727" lon="2.26024">
        <ele>201.5</ele>
        <time>2021-03-21T12:51:02Z</time>
      </trkpt>
      <trkpt lat="43.12727" lon="2.26017">
        <ele>201.6</ele>
        <time>2021-03-21T12:51:03Z</time>
      </trkpt>
      <trkpt lat="43.12727" lon="2.26008">
        <ele>201.8</ele>
        <time>2021-03-21T12:51:04Z</time>
      </trkpt>
      <trkpt lat="43.12727" lon="2.25995">
        <ele>202</ele>
        <time>2021-03-21T12:51:06Z</time>
      </trkpt>
      <trkpt lat="43.12727" lon="2.25988">
        <ele>202.1</ele>
        <time>2021-03-21T12:51:07Z</time>
      </trkpt>
      <trkpt lat="43.12727" lon="2.25974">
        <ele>202.4</ele>
        <time>2021-03-21T12:51:09Z</time>
      </trkpt>
      <trkpt lat="43.12727" lon="2.2596">
        <ele>202.7</ele>
        <time>2021-03-21T12:51:11Z</time>
      </trkpt>
      <trkpt lat="43.12727" lon="2.25954">
        <ele>202.8</ele>
        <time>2021-03-21T12:51:12Z</time>
      </trkpt>
      <trkpt lat="43.12726" lon="2.25947">
        <ele>202.9</ele>
        <time>2021-03-21T12:51:13Z</time>
      </trkpt>
      <trkpt lat="43.12726" lon="2.25941">
        <ele>202.9</ele>
        <time>2021-03-21T12:51:14Z</time>
      </trkpt>
      <trkpt lat="43.12725" lon="2.25927">
        <ele>202.8</ele>
        <time>2021-03-21T12:51:16Z</time>
      </trkpt>
      <trkpt lat="43.12725" lon="2.25919">
        <ele>202.7</ele>
        <time>2021-03-21T12:51:17Z</time>
      </trkpt>
      <trkpt lat="43.12728" lon="2.25904">
        <ele>202.5</ele>
        <time>2021-03-21T12:51:19Z</time>
      </trkpt>
      <trkpt lat="43.12735" lon="2.25889">
        <ele>202.1</ele>
        <time>2021-03-21T12:51:21Z</time>
      </trkpt>
      <trkpt lat="43.12741" lon="2.25884">
        <ele>201.9</ele>
        <time>2021-03-21T12:51:22Z</time>
      </trkpt>
      <trkpt lat="43.12752" lon="2.25876">
        <ele>201.4</ele>
        <time>2021-03-21T12:51:24Z</time>
      </trkpt>
      <trkpt lat="43.12762" lon="2.25869">
        <ele>200.8</ele>
        <time>2021-03-21T12:51:26Z</time>
      </trkpt>
      <trkpt lat="43.12773" lon="2.25859">
        <ele>200.2</ele>
        <time>2021-03-21T12:51:28Z</time>
      </trkpt>
      <trkpt lat="43.12785" lon="2.25848">
        <ele>199.4</ele>
        <time>2021-03-21T12:51:30Z</time>
      </trkpt>
      <trkpt lat="43.12791" lon="2.25842">
        <ele>198.9</ele>
        <time>2021-03-21T12:51:31Z</time>
      </trkpt>
      <trkpt lat="43.12803" lon="2.25826">
        <ele>197.8</ele>
        <time>2021-03-21T12:51:33Z</time>
      </trkpt>
      <trkpt lat="43.12808" lon="2.25817">
        <ele>197.2</ele>
        <time>2021-03-21T12:51:34Z</time>
      </trkpt>
      <trkpt lat="43.12818" lon="2.25795">
        <ele>196.1</ele>
        <time>2021-03-21T12:51:36Z</time>
      </trkpt>
      <trkpt lat="43.12823" lon="2.25783">
        <ele>195.5</ele>
        <time>2021-03-21T12:51:37Z</time>
      </trkpt>
      <trkpt lat="43.12828" lon="2.25772">
        <ele>195</ele>
        <time>2021-03-21T12:51:38Z</time>
      </trkpt>
      <trkpt lat="43.12839" lon="2.2575">
        <ele>193.9</ele>
        <time>2021-03-21T12:51:40Z</time>
      </trkpt>
      <trkpt lat="43.12845" lon="2.25741">
        <ele>193.3</ele>
        <time>2021-03-21T12:51:41Z</time>
      </trkpt>
      <trkpt lat="43.12858" lon="2.25724">
        <ele>191.9</ele>
        <time>2021-03-21T12:51:43Z</time>
      </trkpt>
      <trkpt lat="43.12876" lon="2.2571">
        <ele>190</ele>
        <time>2021-03-21T12:51:45Z</time>
      </trkpt>
      <trkpt lat="43.12895" lon="2.25696">
        <ele>187.9</ele>
        <time>2021-03-21T12:51:47Z</time>
      </trkpt>
      <trkpt lat="43.12915" lon="2.25683">
        <ele>185.8</ele>
        <time>2021-03-21T12:51:49Z</time>
      </trkpt>
      <trkpt lat="43.12926" lon="2.25676">
        <ele>184.7</ele>
        <time>2021-03-21T12:51:50Z</time>
      </trkpt>
      <trkpt lat="43.12937" lon="2.25669">
        <ele>183.7</ele>
        <time>2021-03-21T12:51:51Z</time>
      </trkpt>
      <trkpt lat="43.12948" lon="2.25662">
        <ele>182.8</ele>
        <time>2021-03-21T12:51:52Z</time>
      </trkpt>
      <trkpt lat="43.12969" lon="2.25649">
        <ele>181.6</ele>
        <time>2021-03-21T12:51:54Z</time>
      </trkpt>
      <trkpt lat="43.12979" lon="2.25643">
        <ele>181.3</ele>
        <time>2021-03-21T12:51:55Z</time>
      </trkpt>
      <trkpt lat="43.12989" lon="2.25636">
        <ele>181.2</ele>
        <time>2021-03-21T12:51:56Z</time>
      </trkpt>
      <trkpt lat="43.12998" lon="2.25628">
        <ele>181.3</ele>
        <time>2021-03-21T12:51:57Z</time>
      </trkpt>
      <trkpt lat="43.13006" lon="2.25618">
        <ele>181.4</ele>
        <time>2021-03-21T12:51:58Z</time>
      </trkpt>
      <trkpt lat="43.13011" lon="2.25593">
        <ele>181.8</ele>
        <time>2021-03-21T12:52:00Z</time>
      </trkpt>
      <trkpt lat="43.1301" lon="2.25581">
        <ele>182</ele>
        <time>2021-03-21T12:52:01Z</time>
      </trkpt>
      <trkpt lat="43.13008" lon="2.2557">
        <ele>182.2</ele>
        <time>2021-03-21T12:52:02Z</time>
      </trkpt>
      <trkpt lat="43.13003" lon="2.25551">
        <ele>182.6</ele>
        <time>2021-03-21T12:52:04Z</time>
      </trkpt>
      <trkpt lat="43.13002" lon="2.25542">
        <ele>182.8</ele>
        <time>2021-03-21T12:52:05Z</time>
      </trkpt>
      <trkpt lat="43.13001" lon="2.25534">
        <ele>183</ele>
        <time>2021-03-21T12:52:06Z</time>
      </trkpt>
      <trkpt lat="43.13" lon="2.25526">
        <ele>183.2</ele>
        <time>2021-03-21T12:52:07Z</time>
      </trkpt>
      <trkpt lat="43.12999" lon="2.25511">
        <ele>183.5</ele>
        <time>2021-03-21T12:52:09Z</time>
      </trkpt>
      <trkpt lat="43.12998" lon="2.25496">
        <ele>183.9</ele>
        <time>2021-03-21T12:52:11Z</time>
      </trkpt>
      <trkpt lat="43.12997" lon="2.25481">
        <ele>184.3</ele>
        <time>2021-03-21T12:52:13Z</time>
      </trkpt>
      <trkpt lat="43.12997" lon="2.25473">
        <ele>184.6</ele>
        <time>2021-03-21T12:52:14Z</time>
      </trkpt>
      <trkpt lat="43.12997" lon="2.25458">
        <ele>185.1</ele>
        <time>2021-03-21T12:52:16Z</time>
      </trkpt>
      <trkpt lat="43.12999" lon="2.25442">
        <ele>185.5</ele>
        <time>2021-03-21T12:52:18Z</time>
      </trkpt>
      <trkpt lat="43.13" lon="2.25435">
        <ele>185.7</ele>
        <time>2021-03-21T12:52:19Z</time>
      </trkpt>
      <trkpt lat="43.13005" lon="2.25421">
        <ele>186.1</ele>
        <time>2021-03-21T12:52:21Z</time>
      </trkpt>
      <trkpt lat="43.13007" lon="2.25414">
        <ele>186.4</ele>
        <time>2021-03-21T12:52:22Z</time>
      </trkpt>
      <trkpt lat="43.1301" lon="2.25408">
        <ele>186.6</ele>
        <time>2021-03-21T12:52:23Z</time>
      </trkpt>
      <trkpt lat="43.13016" lon="2.25396">
        <ele>187.1</ele>
        <time>2021-03-21T12:52:25Z</time>
      </trkpt>
      <trkpt lat="43.13023" lon="2.25387">
        <ele>187.7</ele>
        <time>2021-03-21T12:52:27Z</time>
      </trkpt>
      <trkpt lat="43.13032" lon="2.2538">
        <ele>188.2</ele>
        <time>2021-03-21T12:52:29Z</time>
      </trkpt>
      <trkpt lat="43.13035" lon="2.25378">
        <ele>188.4</ele>
        <time>2021-03-21T12:52:30Z</time>
      </trkpt>
      <trkpt lat="43.13043" lon="2.25374">
        <ele>188.9</ele>
        <time>2021-03-21T12:52:32Z</time>
      </trkpt>
      <trkpt lat="43.13051" lon="2.25372">
        <ele>189.5</ele>
        <time>2021-03-21T12:52:34Z</time>
      </trkpt>
      <trkpt lat="43.13056" lon="2.25371">
        <ele>189.8</ele>
        <time>2021-03-21T12:52:35Z</time>
      </trkpt>
      <trkpt lat="43.13062" lon="2.25372">
        <ele>190.4</ele>
        <time>2021-03-21T12:52:37Z</time>
      </trkpt>
      <trkpt lat="43.13067" lon="2.25373">
        <ele>190.8</ele>
        <time>2021-03-21T12:52:38Z</time>
      </trkpt>
      <trkpt lat="43.13071" lon="2.25371">
        <ele>191.1</ele>
        <time>2021-03-21T12:52:39Z</time>
      </trkpt>
      <trkpt lat="43.13077" lon="2.25367">
        <ele>191.6</ele>
        <time>2021-03-21T12:52:41Z</time>
      </trkpt>
      <trkpt lat="43.13081" lon="2.25364">
        <ele>191.9</ele>
        <time>2021-03-21T12:52:42Z</time>
      </trkpt>
      <trkpt lat="43.13083" lon="2.25362">
        <ele>192.1</ele>
        <time>2021-03-21T12:52:43Z</time>
      </trkpt>
      <trkpt lat="43.13087" lon="2.25358">
        <ele>192.5</ele>
        <time>2021-03-21T12:52:45Z</time>
      </trkpt>
      <trkpt lat="43.13092" lon="2.25351">
        <ele>193</ele>
        <time>2021-03-21T12:52:46Z</time>
      </trkpt>
      <trkpt lat="43.13094" lon="2.25346">
        <ele>193.3</ele>
        <time>2021-03-21T12:52:48Z</time>
      </trkpt>
      <trkpt lat="43.13097" lon="2.25341">
        <ele>193.6</ele>
        <time>2021-03-21T12:52:49Z</time>
      </trkpt>
      <trkpt lat="43.13101" lon="2.25336">
        <ele>193.9</ele>
        <time>2021-03-21T12:52:50Z</time>
      </trkpt>
      <trkpt lat="43.13106" lon="2.25329">
        <ele>194.4</ele>
        <time>2021-03-21T12:52:51Z</time>
      </trkpt>
      <trkpt lat="43.13108" lon="2.25326">
        <ele>194.6</ele>
        <time>2021-03-21T12:52:52Z</time>
      </trkpt>
      <trkpt lat="43.13112" lon="2.25321">
        <ele>194.9</ele>
        <time>2021-03-21T12:52:54Z</time>
      </trkpt>
      <trkpt lat="43.13115" lon="2.25318">
        <ele>195.1</ele>
        <time>2021-03-21T12:52:55Z</time>
      </trkpt>
      <trkpt lat="43.13118" lon="2.25313">
        <ele>195.4</ele>
        <time>2021-03-21T12:52:56Z</time>
      </trkpt>
      <trkpt lat="43.13121" lon="2.25309">
        <ele>195.7</ele>
        <time>2021-03-21T12:52:57Z</time>
      </trkpt>
      <trkpt lat="43.13126" lon="2.25305">
        <ele>196.1</ele>
        <time>2021-03-21T12:52:59Z</time>
      </trkpt>
      <trkpt lat="43.1313" lon="2.25302">
        <ele>196.4</ele>
        <time>2021-03-21T12:53:00Z</time>
      </trkpt>
      <trkpt lat="43.13133" lon="2.253">
        <ele>196.6</ele>
        <time>2021-03-21T12:53:01Z</time>
      </trkpt>
      <trkpt lat="43.13137" lon="2.25298">
        <ele>196.9</ele>
        <time>2021-03-21T12:53:02Z</time>
      </trkpt>
      <trkpt lat="43.1314" lon="2.25296">
        <ele>197.1</ele>
        <time>2021-03-21T12:53:03Z</time>
      </trkpt>
      <trkpt lat="43.13145" lon="2.25294">
        <ele>197.5</ele>
        <time>2021-03-21T12:53:05Z</time>
      </trkpt>
      <trkpt lat="43.1315" lon="2.25291">
        <ele>197.8</ele>
        <time>2021-03-21T12:53:06Z</time>
      </trkpt>
      <trkpt lat="43.13155" lon="2.25288">
        <ele>198.2</ele>
        <time>2021-03-21T12:53:07Z</time>
      </trkpt>
      <trkpt lat="43.13159" lon="2.25285">
        <ele>198.5</ele>
        <time>2021-03-21T12:53:09Z</time>
      </trkpt>
      <trkpt lat="43.13163" lon="2.2528">
        <ele>198.9</ele>
        <time>2021-03-21T12:53:10Z</time>
      </trkpt>
      <trkpt lat="43.13167" lon="2.25277">
        <ele>199.2</ele>
        <time>2021-03-21T12:53:11Z</time>
      </trkpt>
      <trkpt lat="43.1317" lon="2.25274">
        <ele>199.4</ele>
        <time>2021-03-21T12:53:12Z</time>
      </trkpt>
      <trkpt lat="43.13175" lon="2.25271">
        <ele>199.8</ele>
        <time>2021-03-21T12:53:14Z</time>
      </trkpt>
      <trkpt lat="43.13179" lon="2.25267">
        <ele>200.1</ele>
        <time>2021-03-21T12:53:15Z</time>
      </trkpt>
      <trkpt lat="43.13182" lon="2.25264">
        <ele>200.4</ele>
        <time>2021-03-21T12:53:16Z</time>
      </trkpt>
      <trkpt lat="43.13185" lon="2.25262">
        <ele>200.6</ele>
        <time>2021-03-21T12:53:17Z</time>
      </trkpt>
      <trkpt lat="43.13189" lon="2.2526">
        <ele>200.9</ele>
        <time>2021-03-21T12:53:18Z</time>
      </trkpt>
      <trkpt lat="43.13194" lon="2.25258">
        <ele>201.2</ele>
        <time>2021-03-21T12:53:20Z</time>
      </trkpt>
      <trkpt lat="43.13199" lon="2.25256">
        <ele>201.5</ele>
        <time>2021-03-21T12:53:21Z</time>
      </trkpt>
      <trkpt lat="43.13204" lon="2.25255">
        <ele>201.9</ele>
        <time>2021-03-21T12:53:22Z</time>
      </trkpt>
      <trkpt lat="43.13209" lon="2.25253">
        <ele>202.2</ele>
        <time>2021-03-21T12:53:24Z</time>
      </trkpt>
      <trkpt lat="43.13213" lon="2.25252">
        <ele>202.5</ele>
        <time>2021-03-21T12:53:25Z</time>
      </trkpt>
      <trkpt lat="43.13217" lon="2.2525">
        <ele>202.8</ele>
        <time>2021-03-21T12:53:26Z</time>
      </trkpt>
      <trkpt lat="43.13222" lon="2.25248">
        <ele>203</ele>
        <time>2021-03-21T12:53:27Z</time>
      </trkpt>
      <trkpt lat="43.13227" lon="2.25247">
        <ele>203.4</ele>
        <time>2021-03-21T12:53:29Z</time>
      </trkpt>
      <trkpt lat="43.13232" lon="2.25247">
        <ele>203.6</ele>
        <time>2021-03-21T12:53:30Z</time>
      </trkpt>
      <trkpt lat="43.13236" lon="2.25246">
        <ele>203.9</ele>
        <time>2021-03-21T12:53:31Z</time>
      </trkpt>
      <trkpt lat="43.1324" lon="2.25245">
        <ele>204.1</ele>
        <time>2021-03-21T12:53:32Z</time>
      </trkpt>
      <trkpt lat="43.13247" lon="2.25244">
        <ele>204.6</ele>
        <time>2021-03-21T12:53:34Z</time>
      </trkpt>
      <trkpt lat="43.13253" lon="2.25244">
        <ele>204.9</ele>
        <time>2021-03-21T12:53:36Z</time>
      </trkpt>
      <trkpt lat="43.13258" lon="2.25244">
        <ele>205.2</ele>
        <time>2021-03-21T12:53:37Z</time>
      </trkpt>
      <trkpt lat="43.13264" lon="2.25245">
        <ele>205.5</ele>
        <time>2021-03-21T12:53:39Z</time>
      </trkpt>
      <trkpt lat="43.13268" lon="2.25245">
        <ele>205.8</ele>
        <time>2021-03-21T12:53:40Z</time>
      </trkpt>
      <trkpt lat="43.13272" lon="2.25245">
        <ele>206</ele>
        <time>2021-03-21T12:53:41Z</time>
      </trkpt>
      <trkpt lat="43.13278" lon="2.25246">
        <ele>206.3</ele>
        <time>2021-03-21T12:53:43Z</time>
      </trkpt>
      <trkpt lat="43.13283" lon="2.25246">
        <ele>206.7</ele>
        <time>2021-03-21T12:53:44Z</time>
      </trkpt>
      <trkpt lat="43.13289" lon="2.25245">
        <ele>207</ele>
        <time>2021-03-21T12:53:46Z</time>
      </trkpt>
      <trkpt lat="43.13295" lon="2.25244">
        <ele>207.3</ele>
        <time>2021-03-21T12:53:48Z</time>
      </trkpt>
      <trkpt lat="43.133" lon="2.25241">
        <ele>207.7</ele>
        <time>2021-03-21T12:53:49Z</time>
      </trkpt>
      <trkpt lat="43.13304" lon="2.25238">
        <ele>208</ele>
        <time>2021-03-21T12:53:50Z</time>
      </trkpt>
      <trkpt lat="43.13309" lon="2.25234">
        <ele>208.3</ele>
        <time>2021-03-21T12:53:52Z</time>
      </trkpt>
      <trkpt lat="43.13314" lon="2.2523">
        <ele>208.7</ele>
        <time>2021-03-21T12:53:53Z</time>
      </trkpt>
      <trkpt lat="43.1332" lon="2.25226">
        <ele>209.2</ele>
        <time>2021-03-21T12:53:55Z</time>
      </trkpt>
      <trkpt lat="43.13323" lon="2.25224">
        <ele>209.4</ele>
        <time>2021-03-21T12:53:56Z</time>
      </trkpt>
      <trkpt lat="43.13327" lon="2.25221">
        <ele>209.7</ele>
        <time>2021-03-21T12:53:57Z</time>
      </trkpt>
      <trkpt lat="43.13334" lon="2.25215">
        <ele>210.2</ele>
        <time>2021-03-21T12:53:59Z</time>
      </trkpt>
      <trkpt lat="43.1334" lon="2.25211">
        <ele>210.6</ele>
        <time>2021-03-21T12:54:01Z</time>
      </trkpt>
      <trkpt lat="43.13344" lon="2.25208">
        <ele>210.8</ele>
        <time>2021-03-21T12:54:02Z</time>
      </trkpt>
      <trkpt lat="43.13348" lon="2.25207">
        <ele>211.1</ele>
        <time>2021-03-21T12:54:03Z</time>
      </trkpt>
      <trkpt lat="43.13352" lon="2.25205">
        <ele>211.3</ele>
        <time>2021-03-21T12:54:04Z</time>
      </trkpt>
      <trkpt lat="43.13356" lon="2.25204">
        <ele>211.6</ele>
        <time>2021-03-21T12:54:05Z</time>
      </trkpt>
      <trkpt lat="43.13361" lon="2.25202">
        <ele>211.8</ele>
        <time>2021-03-21T12:54:06Z</time>
      </trkpt>
      <trkpt lat="43.13365" lon="2.25201">
        <ele>212.1</ele>
        <time>2021-03-21T12:54:07Z</time>
      </trkpt>
      <trkpt lat="43.13369" lon="2.252">
        <ele>212.3</ele>
        <time>2021-03-21T12:54:08Z</time>
      </trkpt>
      <trkpt lat="43.13373" lon="2.252">
        <ele>212.6</ele>
        <time>2021-03-21T12:54:10Z</time>
      </trkpt>
      <trkpt lat="43.13377" lon="2.25199">
        <ele>212.8</ele>
        <time>2021-03-21T12:54:11Z</time>
      </trkpt>
      <trkpt lat="43.13382" lon="2.25198">
        <ele>213.1</ele>
        <time>2021-03-21T12:54:12Z</time>
      </trkpt>
      <trkpt lat="43.13386" lon="2.25198">
        <ele>213.3</ele>
        <time>2021-03-21T12:54:13Z</time>
      </trkpt>
      <trkpt lat="43.13392" lon="2.25197">
        <ele>213.7</ele>
        <time>2021-03-21T12:54:15Z</time>
      </trkpt>
      <trkpt lat="43.13396" lon="2.25197">
        <ele>213.9</ele>
        <time>2021-03-21T12:54:16Z</time>
      </trkpt>
      <trkpt lat="43.13399" lon="2.25197">
        <ele>214.1</ele>
        <time>2021-03-21T12:54:17Z</time>
      </trkpt>
      <trkpt lat="43.13404" lon="2.25197">
        <ele>214.4</ele>
        <time>2021-03-21T12:54:18Z</time>
      </trkpt>
      <trkpt lat="43.1341" lon="2.25199">
        <ele>214.8</ele>
        <time>2021-03-21T12:54:20Z</time>
      </trkpt>
      <trkpt lat="43.13415" lon="2.25201">
        <ele>215.1</ele>
        <time>2021-03-21T12:54:21Z</time>
      </trkpt>
      <trkpt lat="43.13419" lon="2.25203">
        <ele>215.4</ele>
        <time>2021-03-21T12:54:22Z</time>
      </trkpt>
      <trkpt lat="43.13423" lon="2.25206">
        <ele>215.7</ele>
        <time>2021-03-21T12:54:24Z</time>
      </trkpt>
      <trkpt lat="43.13427" lon="2.25208">
        <ele>215.9</ele>
        <time>2021-03-21T12:54:25Z</time>
      </trkpt>
      <trkpt lat="43.1343" lon="2.2521">
        <ele>216.2</ele>
        <time>2021-03-21T12:54:26Z</time>
      </trkpt>
      <trkpt lat="43.13435" lon="2.25213">
        <ele>216.5</ele>
        <time>2021-03-21T12:54:28Z</time>
      </trkpt>
      <trkpt lat="43.1344" lon="2.25214">
        <ele>216.8</ele>
        <time>2021-03-21T12:54:29Z</time>
      </trkpt>
      <trkpt lat="43.13445" lon="2.25215">
        <ele>217.1</ele>
        <time>2021-03-21T12:54:30Z</time>
      </trkpt>
      <trkpt lat="43.13449" lon="2.25214">
        <ele>217.3</ele>
        <time>2021-03-21T12:54:32Z</time>
      </trkpt>
      <trkpt lat="43.13453" lon="2.25214">
        <ele>217.5</ele>
        <time>2021-03-21T12:54:33Z</time>
      </trkpt>
      <trkpt lat="43.13457" lon="2.25214">
        <ele>217.8</ele>
        <time>2021-03-21T12:54:34Z</time>
      </trkpt>
      <trkpt lat="43.1346" lon="2.25214">
        <ele>218</ele>
        <time>2021-03-21T12:54:35Z</time>
      </trkpt>
      <trkpt lat="43.13464" lon="2.25214">
        <ele>218.2</ele>
        <time>2021-03-21T12:54:37Z</time>
      </trkpt>
      <trkpt lat="43.13468" lon="2.25215">
        <ele>218.4</ele>
        <time>2021-03-21T12:54:38Z</time>
      </trkpt>
      <trkpt lat="43.13475" lon="2.25217">
        <ele>218.9</ele>
        <time>2021-03-21T12:54:40Z</time>
      </trkpt>
      <trkpt lat="43.13479" lon="2.25218">
        <ele>219.1</ele>
        <time>2021-03-21T12:54:41Z</time>
      </trkpt>
      <trkpt lat="43.13483" lon="2.25219">
        <ele>219.3</ele>
        <time>2021-03-21T12:54:42Z</time>
      </trkpt>
      <trkpt lat="43.13488" lon="2.2522">
        <ele>219.6</ele>
        <time>2021-03-21T12:54:43Z</time>
      </trkpt>
      <trkpt lat="43.13493" lon="2.25221">
        <ele>219.8</ele>
        <time>2021-03-21T12:54:44Z</time>
      </trkpt>
      <trkpt lat="43.13502" lon="2.25222">
        <ele>220.2</ele>
        <time>2021-03-21T12:54:46Z</time>
      </trkpt>
      <trkpt lat="43.13507" lon="2.25224">
        <ele>220.4</ele>
        <time>2021-03-21T12:54:47Z</time>
      </trkpt>
      <trkpt lat="43.13511" lon="2.25226">
        <ele>220.6</ele>
        <time>2021-03-21T12:54:48Z</time>
      </trkpt>
      <trkpt lat="43.13517" lon="2.25229">
        <ele>220.8</ele>
        <time>2021-03-21T12:54:49Z</time>
      </trkpt>
      <trkpt lat="43.13525" lon="2.25233">
        <ele>221.1</ele>
        <time>2021-03-21T12:54:51Z</time>
      </trkpt>
      <trkpt lat="43.13529" lon="2.25235">
        <ele>221.2</ele>
        <time>2021-03-21T12:54:52Z</time>
      </trkpt>
      <trkpt lat="43.13534" lon="2.25237">
        <ele>221.3</ele>
        <time>2021-03-21T12:54:53Z</time>
      </trkpt>
      <trkpt lat="43.13539" lon="2.25238">
        <ele>221.5</ele>
        <time>2021-03-21T12:54:54Z</time>
      </trkpt>
      <trkpt lat="43.13546" lon="2.25237">
        <ele>221.6</ele>
        <time>2021-03-21T12:54:55Z</time>
      </trkpt>
      <trkpt lat="43.1355" lon="2.25236">
        <ele>221.7</ele>
        <time>2021-03-21T12:54:57Z</time>
      </trkpt>
      <trkpt lat="43.13556" lon="2.25234">
        <ele>221.8</ele>
        <time>2021-03-21T12:54:58Z</time>
      </trkpt>
      <trkpt lat="43.13567" lon="2.25229">
        <ele>222.1</ele>
        <time>2021-03-21T12:55:00Z</time>
      </trkpt>
      <trkpt lat="43.13573" lon="2.25227">
        <ele>222.2</ele>
        <time>2021-03-21T12:55:02Z</time>
      </trkpt>
      <trkpt lat="43.13578" lon="2.25225">
        <ele>222.3</ele>
        <time>2021-03-21T12:55:03Z</time>
      </trkpt>
      <trkpt lat="43.13584" lon="2.25222">
        <ele>222.4</ele>
        <time>2021-03-21T12:55:05Z</time>
      </trkpt>
      <trkpt lat="43.13589" lon="2.2522">
        <ele>222.5</ele>
        <time>2021-03-21T12:55:06Z</time>
      </trkpt>
      <trkpt lat="43.13594" lon="2.25219">
        <ele>222.6</ele>
        <time>2021-03-21T12:55:07Z</time>
      </trkpt>
      <trkpt lat="43.13602" lon="2.25216">
        <ele>222.8</ele>
        <time>2021-03-21T12:55:08Z</time>
      </trkpt>
      <trkpt lat="43.13611" lon="2.25212">
        <ele>223</ele>
        <time>2021-03-21T12:55:10Z</time>
      </trkpt>
      <trkpt lat="43.13616" lon="2.25211">
        <ele>223.2</ele>
        <time>2021-03-21T12:55:11Z</time>
      </trkpt>
      <trkpt lat="43.13626" lon="2.25206">
        <ele>223.4</ele>
        <time>2021-03-21T12:55:13Z</time>
      </trkpt>
      <trkpt lat="43.13635" lon="2.25201">
        <ele>223.7</ele>
        <time>2021-03-21T12:55:15Z</time>
      </trkpt>
      <trkpt lat="43.13645" lon="2.25194">
        <ele>223.9</ele>
        <time>2021-03-21T12:55:17Z</time>
      </trkpt>
      <trkpt lat="43.13655" lon="2.25186">
        <ele>224.3</ele>
        <time>2021-03-21T12:55:19Z</time>
      </trkpt>
      <trkpt lat="43.1366" lon="2.25181">
        <ele>224.4</ele>
        <time>2021-03-21T12:55:20Z</time>
      </trkpt>
      <trkpt lat="43.13665" lon="2.25176">
        <ele>224.6</ele>
        <time>2021-03-21T12:55:21Z</time>
      </trkpt>
      <trkpt lat="43.13674" lon="2.25167">
        <ele>224.8</ele>
        <time>2021-03-21T12:55:23Z</time>
      </trkpt>
      <trkpt lat="43.13679" lon="2.25162">
        <ele>224.9</ele>
        <time>2021-03-21T12:55:24Z</time>
      </trkpt>
      <trkpt lat="43.13685" lon="2.25149">
        <ele>225.1</ele>
        <time>2021-03-21T12:55:26Z</time>
      </trkpt>
      <trkpt lat="43.13686" lon="2.25141">
        <ele>225.2</ele>
        <time>2021-03-21T12:55:27Z</time>
      </trkpt>
      <trkpt lat="43.13683" lon="2.25125">
        <ele>225.3</ele>
        <time>2021-03-21T12:55:29Z</time>
      </trkpt>
      <trkpt lat="43.1368" lon="2.25119">
        <ele>225.4</ele>
        <time>2021-03-21T12:55:30Z</time>
      </trkpt>
      <trkpt lat="43.13675" lon="2.25114">
        <ele>225.5</ele>
        <time>2021-03-21T12:55:31Z</time>
      </trkpt>
      <trkpt lat="43.13662" lon="2.25111">
        <ele>225.7</ele>
        <time>2021-03-21T12:55:33Z</time>
      </trkpt>
      <trkpt lat="43.1365" lon="2.25118">
        <ele>226.1</ele>
        <time>2021-03-21T12:55:35Z</time>
      </trkpt>
      <trkpt lat="43.13639" lon="2.25127">
        <ele>226.6</ele>
        <time>2021-03-21T12:55:37Z</time>
      </trkpt>
      <trkpt lat="43.13633" lon="2.2513">
        <ele>226.9</ele>
        <time>2021-03-21T12:55:38Z</time>
      </trkpt>
      <trkpt lat="43.13628" lon="2.25133">
        <ele>227.2</ele>
        <time>2021-03-21T12:55:39Z</time>
      </trkpt>
      <trkpt lat="43.13617" lon="2.25138">
        <ele>227.8</ele>
        <time>2021-03-21T12:55:41Z</time>
      </trkpt>
      <trkpt lat="43.13606" lon="2.25141">
        <ele>228.5</ele>
        <time>2021-03-21T12:55:43Z</time>
      </trkpt>
      <trkpt lat="43.13601" lon="2.25142">
        <ele>228.9</ele>
        <time>2021-03-21T12:55:44Z</time>
      </trkpt>
      <trkpt lat="43.13589" lon="2.25143">
        <ele>229.6</ele>
        <time>2021-03-21T12:55:46Z</time>
      </trkpt>
      <trkpt lat="43.13579" lon="2.25143">
        <ele>230.3</ele>
        <time>2021-03-21T12:55:48Z</time>
      </trkpt>
      <trkpt lat="43.13574" lon="2.25143">
        <ele>230.7</ele>
        <time>2021-03-21T12:55:49Z</time>
      </trkpt>
      <trkpt lat="43.13564" lon="2.25141">
        <ele>231.3</ele>
        <time>2021-03-21T12:55:51Z</time>
      </trkpt>
      <trkpt lat="43.13559" lon="2.25139">
        <ele>231.7</ele>
        <time>2021-03-21T12:55:52Z</time>
      </trkpt>
      <trkpt lat="43.13551" lon="2.25135">
        <ele>232.3</ele>
        <time>2021-03-21T12:55:54Z</time>
      </trkpt>
      <trkpt lat="43.13544" lon="2.25129">
        <ele>232.8</ele>
        <time>2021-03-21T12:55:56Z</time>
      </trkpt>
      <trkpt lat="43.13538" lon="2.2512">
        <ele>233.4</ele>
        <time>2021-03-21T12:55:58Z</time>
      </trkpt>
      <trkpt lat="43.13536" lon="2.25116">
        <ele>233.7</ele>
        <time>2021-03-21T12:55:59Z</time>
      </trkpt>
      <trkpt lat="43.13534" lon="2.25111">
        <ele>233.9</ele>
        <time>2021-03-21T12:56:00Z</time>
      </trkpt>
      <trkpt lat="43.13524" lon="2.25109">
        <ele>234.5</ele>
        <time>2021-03-21T12:56:02Z</time>
      </trkpt>
      <trkpt lat="43.13522" lon="2.25102">
        <ele>234.9</ele>
        <time>2021-03-21T12:56:03Z</time>
      </trkpt>
      <trkpt lat="43.13522" lon="2.25095">
        <ele>235.2</ele>
        <time>2021-03-21T12:56:04Z</time>
      </trkpt>
      <trkpt lat="43.13522" lon="2.25089">
        <ele>235.5</ele>
        <time>2021-03-21T12:56:05Z</time>
      </trkpt>
      <trkpt lat="43.13522" lon="2.2508">
        <ele>235.9</ele>
        <time>2021-03-21T12:56:07Z</time>
      </trkpt>
      <trkpt lat="43.13523" lon="2.25074">
        <ele>236.2</ele>
        <time>2021-03-21T12:56:08Z</time>
      </trkpt>
      <trkpt lat="43.13523" lon="2.25068">
        <ele>236.6</ele>
        <time>2021-03-21T12:56:09Z</time>
      </trkpt>
      <trkpt lat="43.13523" lon="2.25062">
        <ele>236.9</ele>
        <time>2021-03-21T12:56:10Z</time>
      </trkpt>
      <trkpt lat="43.13523" lon="2.25052">
        <ele>237.5</ele>
        <time>2021-03-21T12:56:12Z</time>
      </trkpt>
      <trkpt lat="43.13522" lon="2.25045">
        <ele>237.9</ele>
        <time>2021-03-21T12:56:13Z</time>
      </trkpt>
      <trkpt lat="43.13521" lon="2.25039">
        <ele>238.2</ele>
        <time>2021-03-21T12:56:14Z</time>
      </trkpt>
      <trkpt lat="43.13517" lon="2.2503">
        <ele>238.7</ele>
        <time>2021-03-21T12:56:16Z</time>
      </trkpt>
      <trkpt lat="43.13514" lon="2.25026">
        <ele>239</ele>
        <time>2021-03-21T12:56:17Z</time>
      </trkpt>
      <trkpt lat="43.13508" lon="2.25021">
        <ele>239.4</ele>
        <time>2021-03-21T12:56:19Z</time>
      </trkpt>
      <trkpt lat="43.13503" lon="2.2502">
        <ele>239.7</ele>
        <time>2021-03-21T12:56:20Z</time>
      </trkpt>
      <trkpt lat="43.13497" lon="2.25021">
        <ele>240</ele>
        <time>2021-03-21T12:56:22Z</time>
      </trkpt>
      <trkpt lat="43.13493" lon="2.25024">
        <ele>240.3</ele>
        <time>2021-03-21T12:56:23Z</time>
      </trkpt>
      <trkpt lat="43.13487" lon="2.25028">
        <ele>240.6</ele>
        <time>2021-03-21T12:56:24Z</time>
      </trkpt>
      <trkpt lat="43.13479" lon="2.25034">
        <ele>241.2</ele>
        <time>2021-03-21T12:56:26Z</time>
      </trkpt>
      <trkpt lat="43.13475" lon="2.25035">
        <ele>241.4</ele>
        <time>2021-03-21T12:56:27Z</time>
      </trkpt>
      <trkpt lat="43.13469" lon="2.25037">
        <ele>241.8</ele>
        <time>2021-03-21T12:56:29Z</time>
      </trkpt>
      <trkpt lat="43.13464" lon="2.25037">
        <ele>242.1</ele>
        <time>2021-03-21T12:56:30Z</time>
      </trkpt>
      <trkpt lat="43.13459" lon="2.25036">
        <ele>242.5</ele>
        <time>2021-03-21T12:56:31Z</time>
      </trkpt>
      <trkpt lat="43.13452" lon="2.25032">
        <ele>243</ele>
        <time>2021-03-21T12:56:33Z</time>
      </trkpt>
      <trkpt lat="43.13449" lon="2.25028">
        <ele>243.3</ele>
        <time>2021-03-21T12:56:34Z</time>
      </trkpt>
      <trkpt lat="43.13445" lon="2.2502">
        <ele>243.9</ele>
        <time>2021-03-21T12:56:36Z</time>
      </trkpt>
      <trkpt lat="43.13443" lon="2.25015">
        <ele>244.2</ele>
        <time>2021-03-21T12:56:38Z</time>
      </trkpt>
      <trkpt lat="43.13441" lon="2.2501">
        <ele>244.6</ele>
        <time>2021-03-21T12:56:39Z</time>
      </trkpt>
      <trkpt lat="43.13439" lon="2.25005">
        <ele>244.9</ele>
        <time>2021-03-21T12:56:40Z</time>
      </trkpt>
      <trkpt lat="43.13437" lon="2.25001">
        <ele>245.2</ele>
        <time>2021-03-21T12:56:41Z</time>
      </trkpt>
      <trkpt lat="43.13435" lon="2.24997">
        <ele>245.5</ele>
        <time>2021-03-21T12:56:43Z</time>
      </trkpt>
      <trkpt lat="43.13434" lon="2.24993">
        <ele>245.8</ele>
        <time>2021-03-21T12:56:44Z</time>
      </trkpt>
      <trkpt lat="43.13433" lon="2.24988">
        <ele>246.1</ele>
        <time>2021-03-21T12:56:45Z</time>
      </trkpt>
      <trkpt lat="43.13431" lon="2.24984">
        <ele>246.5</ele>
        <time>2021-03-21T12:56:46Z</time>
      </trkpt>
      <trkpt lat="43.13428" lon="2.24979">
        <ele>246.9</ele>
        <time>2021-03-21T12:56:47Z</time>
      </trkpt>
      <trkpt lat="43.13426" lon="2.24976">
        <ele>247.1</ele>
        <time>2021-03-21T12:56:48Z</time>
      </trkpt>
      <trkpt lat="43.13424" lon="2.24973">
        <ele>247.4</ele>
        <time>2021-03-21T12:56:49Z</time>
      </trkpt>
      <trkpt lat="43.13422" lon="2.2497">
        <ele>247.7</ele>
        <time>2021-03-21T12:56:50Z</time>
      </trkpt>
      <trkpt lat="43.13418" lon="2.24966">
        <ele>248</ele>
        <time>2021-03-21T12:56:52Z</time>
      </trkpt>
      <trkpt lat="43.13414" lon="2.24963">
        <ele>248.5</ele>
        <time>2021-03-21T12:56:53Z</time>
      </trkpt>
      <trkpt lat="43.13411" lon="2.2496">
        <ele>248.7</ele>
        <time>2021-03-21T12:56:54Z</time>
      </trkpt>
      <trkpt lat="43.13408" lon="2.24957">
        <ele>249.1</ele>
        <time>2021-03-21T12:56:56Z</time>
      </trkpt>
      <trkpt lat="43.13405" lon="2.24954">
        <ele>249.3</ele>
        <time>2021-03-21T12:56:57Z</time>
      </trkpt>
      <trkpt lat="43.13402" lon="2.2495">
        <ele>249.7</ele>
        <time>2021-03-21T12:56:58Z</time>
      </trkpt>
      <trkpt lat="43.134" lon="2.24945">
        <ele>249.8</ele>
        <time>2021-03-21T12:56:59Z</time>
      </trkpt>
      <trkpt lat="43.13398" lon="2.24941">
        <ele>249.9</ele>
        <time>2021-03-21T12:57:00Z</time>
      </trkpt>
      <trkpt lat="43.13395" lon="2.24937">
        <ele>250</ele>
        <time>2021-03-21T12:57:01Z</time>
      </trkpt>
      <trkpt lat="43.13393" lon="2.24932">
        <ele>250.2</ele>
        <time>2021-03-21T12:57:02Z</time>
      </trkpt>
      <trkpt lat="43.13391" lon="2.24925">
        <ele>250.6</ele>
        <time>2021-03-21T12:57:04Z</time>
      </trkpt>
      <trkpt lat="43.1339" lon="2.24918">
        <ele>251</ele>
        <time>2021-03-21T12:57:05Z</time>
      </trkpt>
      <trkpt lat="43.1339" lon="2.24912">
        <ele>251.3</ele>
        <time>2021-03-21T12:57:07Z</time>
      </trkpt>
      <trkpt lat="43.1339" lon="2.24906">
        <ele>251.7</ele>
        <time>2021-03-21T12:57:08Z</time>
      </trkpt>
      <trkpt lat="43.13392" lon="2.24898">
        <ele>252</ele>
        <time>2021-03-21T12:57:10Z</time>
      </trkpt>
      <trkpt lat="43.13394" lon="2.24891">
        <ele>252.4</ele>
        <time>2021-03-21T12:57:11Z</time>
      </trkpt>
      <trkpt lat="43.13396" lon="2.24886">
        <ele>252.6</ele>
        <time>2021-03-21T12:57:12Z</time>
      </trkpt>
      <trkpt lat="43.13397" lon="2.24881">
        <ele>252.9</ele>
        <time>2021-03-21T12:57:13Z</time>
      </trkpt>
      <trkpt lat="43.13399" lon="2.24875">
        <ele>253.2</ele>
        <time>2021-03-21T12:57:15Z</time>
      </trkpt>
      <trkpt lat="43.134" lon="2.24871">
        <ele>253.4</ele>
        <time>2021-03-21T12:57:16Z</time>
      </trkpt>
      <trkpt lat="43.13402" lon="2.24865">
        <ele>253.7</ele>
        <time>2021-03-21T12:57:17Z</time>
      </trkpt>
      <trkpt lat="43.13403" lon="2.24861">
        <ele>254</ele>
        <time>2021-03-21T12:57:18Z</time>
      </trkpt>
      <trkpt lat="43.13406" lon="2.24854">
        <ele>254.3</ele>
        <time>2021-03-21T12:57:20Z</time>
      </trkpt>
      <trkpt lat="43.13407" lon="2.24848">
        <ele>254.6</ele>
        <time>2021-03-21T12:57:21Z</time>
      </trkpt>
      <trkpt lat="43.13409" lon="2.24843">
        <ele>254.9</ele>
        <time>2021-03-21T12:57:22Z</time>
      </trkpt>
      <trkpt lat="43.13411" lon="2.24835">
        <ele>255.3</ele>
        <time>2021-03-21T12:57:24Z</time>
      </trkpt>
      <trkpt lat="43.13412" lon="2.24829">
        <ele>255.6</ele>
        <time>2021-03-21T12:57:25Z</time>
      </trkpt>
      <trkpt lat="43.13413" lon="2.24824">
        <ele>255.8</ele>
        <time>2021-03-21T12:57:27Z</time>
      </trkpt>
      <trkpt lat="43.13414" lon="2.24819">
        <ele>256.1</ele>
        <time>2021-03-21T12:57:28Z</time>
      </trkpt>
      <trkpt lat="43.13415" lon="2.24817">
        <ele>256.2</ele>
        <time>2021-03-21T12:57:29Z</time>
      </trkpt>
      <trkpt lat="43.13416" lon="2.24813">
        <ele>256.4</ele>
        <time>2021-03-21T12:57:30Z</time>
      </trkpt>
      <trkpt lat="43.13418" lon="2.24805">
        <ele>256.8</ele>
        <time>2021-03-21T12:57:31Z</time>
      </trkpt>
      <trkpt lat="43.13421" lon="2.248">
        <ele>257.1</ele>
        <time>2021-03-21T12:57:33Z</time>
      </trkpt>
      <trkpt lat="43.13422" lon="2.24797">
        <ele>257.3</ele>
        <time>2021-03-21T12:57:34Z</time>
      </trkpt>
      <trkpt lat="43.13425" lon="2.24791">
        <ele>257.6</ele>
        <time>2021-03-21T12:57:35Z</time>
      </trkpt>
      <trkpt lat="43.13429" lon="2.24785">
        <ele>258</ele>
        <time>2021-03-21T12:57:36Z</time>
      </trkpt>
      <trkpt lat="43.13433" lon="2.24776">
        <ele>258.6</ele>
        <time>2021-03-21T12:57:38Z</time>
      </trkpt>
      <trkpt lat="43.13434" lon="2.24771">
        <ele>258.9</ele>
        <time>2021-03-21T12:57:39Z</time>
      </trkpt>
      <trkpt lat="43.13436" lon="2.24765">
        <ele>259.2</ele>
        <time>2021-03-21T12:57:40Z</time>
      </trkpt>
      <trkpt lat="43.13438" lon="2.24758">
        <ele>259.6</ele>
        <time>2021-03-21T12:57:42Z</time>
      </trkpt>
      <trkpt lat="43.1344" lon="2.2475">
        <ele>260.1</ele>
        <time>2021-03-21T12:57:43Z</time>
      </trkpt>
      <trkpt lat="43.13441" lon="2.24744">
        <ele>260.5</ele>
        <time>2021-03-21T12:57:45Z</time>
      </trkpt>
      <trkpt lat="43.13443" lon="2.24738">
        <ele>260.8</ele>
        <time>2021-03-21T12:57:46Z</time>
      </trkpt>
      <trkpt lat="43.13446" lon="2.24732">
        <ele>261.2</ele>
        <time>2021-03-21T12:57:47Z</time>
      </trkpt>
      <trkpt lat="43.13448" lon="2.24728">
        <ele>261.5</ele>
        <time>2021-03-21T12:57:48Z</time>
      </trkpt>
      <trkpt lat="43.13453" lon="2.24722">
        <ele>262</ele>
        <time>2021-03-21T12:57:50Z</time>
      </trkpt>
      <trkpt lat="43.13457" lon="2.24719">
        <ele>262.3</ele>
        <time>2021-03-21T12:57:51Z</time>
      </trkpt>
      <trkpt lat="43.13461" lon="2.24716">
        <ele>262.7</ele>
        <time>2021-03-21T12:57:52Z</time>
      </trkpt>
      <trkpt lat="43.13467" lon="2.24712">
        <ele>262.8</ele>
        <time>2021-03-21T12:57:54Z</time>
      </trkpt>
      <trkpt lat="43.13471" lon="2.24709">
        <ele>262.9</ele>
        <time>2021-03-21T12:57:55Z</time>
      </trkpt>
      <trkpt lat="43.13476" lon="2.24706">
        <ele>263.2</ele>
        <time>2021-03-21T12:57:56Z</time>
      </trkpt>
      <trkpt lat="43.13482" lon="2.24701">
        <ele>263.5</ele>
        <time>2021-03-21T12:57:58Z</time>
      </trkpt>
      <trkpt lat="43.13488" lon="2.24699">
        <ele>263.8</ele>
        <time>2021-03-21T12:58:00Z</time>
      </trkpt>
      <trkpt lat="43.13494" lon="2.24697">
        <ele>264.2</ele>
        <time>2021-03-21T12:58:01Z</time>
      </trkpt>
      <trkpt lat="43.13498" lon="2.24696">
        <ele>264.4</ele>
        <time>2021-03-21T12:58:02Z</time>
      </trkpt>
      <trkpt lat="43.13501" lon="2.24696">
        <ele>264.6</ele>
        <time>2021-03-21T12:58:03Z</time>
      </trkpt>
      <trkpt lat="43.13507" lon="2.24695">
        <ele>264.9</ele>
        <time>2021-03-21T12:58:05Z</time>
      </trkpt>
      <trkpt lat="43.13512" lon="2.24694">
        <ele>265.1</ele>
        <time>2021-03-21T12:58:06Z</time>
      </trkpt>
      <trkpt lat="43.13517" lon="2.24694">
        <ele>265.4</ele>
        <time>2021-03-21T12:58:07Z</time>
      </trkpt>
      <trkpt lat="43.13524" lon="2.24692">
        <ele>265.7</ele>
        <time>2021-03-21T12:58:08Z</time>
      </trkpt>
      <trkpt lat="43.13529" lon="2.24697">
        <ele>265.9</ele>
        <time>2021-03-21T12:58:10Z</time>
      </trkpt>
      <trkpt lat="43.13538" lon="2.24698">
        <ele>266.3</ele>
        <time>2021-03-21T12:58:11Z</time>
      </trkpt>
      <trkpt lat="43.13544" lon="2.24697">
        <ele>266.5</ele>
        <time>2021-03-21T12:58:12Z</time>
      </trkpt>
      <trkpt lat="43.13555" lon="2.24698">
        <ele>267</ele>
        <time>2021-03-21T12:58:14Z</time>
      </trkpt>
      <trkpt lat="43.13565" lon="2.24703">
        <ele>267.3</ele>
        <time>2021-03-21T12:58:16Z</time>
      </trkpt>
      <trkpt lat="43.13569" lon="2.24707">
        <ele>267.4</ele>
        <time>2021-03-21T12:58:17Z</time>
      </trkpt>
      <trkpt lat="43.13572" lon="2.24712">
        <ele>267.5</ele>
        <time>2021-03-21T12:58:18Z</time>
      </trkpt>
      <trkpt lat="43.1358" lon="2.2472">
        <ele>267.8</ele>
        <time>2021-03-21T12:58:20Z</time>
      </trkpt>
      <trkpt lat="43.13584" lon="2.24725">
        <ele>268</ele>
        <time>2021-03-21T12:58:21Z</time>
      </trkpt>
      <trkpt lat="43.13588" lon="2.24728">
        <ele>268.1</ele>
        <time>2021-03-21T12:58:22Z</time>
      </trkpt>
      <trkpt lat="43.13596" lon="2.24734">
        <ele>268.5</ele>
        <time>2021-03-21T12:58:24Z</time>
      </trkpt>
      <trkpt lat="43.13605" lon="2.2474">
        <ele>268.9</ele>
        <time>2021-03-21T12:58:26Z</time>
      </trkpt>
      <trkpt lat="43.1361" lon="2.24743">
        <ele>269.1</ele>
        <time>2021-03-21T12:58:27Z</time>
      </trkpt>
      <trkpt lat="43.1362" lon="2.24746">
        <ele>269.5</ele>
        <time>2021-03-21T12:58:29Z</time>
      </trkpt>
      <trkpt lat="43.13625" lon="2.24747">
        <ele>269.6</ele>
        <time>2021-03-21T12:58:30Z</time>
      </trkpt>
      <trkpt lat="43.13634" lon="2.24748">
        <ele>269.9</ele>
        <time>2021-03-21T12:58:32Z</time>
      </trkpt>
      <trkpt lat="43.13645" lon="2.24747">
        <ele>270.2</ele>
        <time>2021-03-21T12:58:34Z</time>
      </trkpt>
      <trkpt lat="43.13656" lon="2.24744">
        <ele>270.5</ele>
        <time>2021-03-21T12:58:36Z</time>
      </trkpt>
      <trkpt lat="43.13661" lon="2.24742">
        <ele>270.7</ele>
        <time>2021-03-21T12:58:37Z</time>
      </trkpt>
      <trkpt lat="43.13672" lon="2.24738">
        <ele>270.9</ele>
        <time>2021-03-21T12:58:39Z</time>
      </trkpt>
      <trkpt lat="43.13683" lon="2.24734">
        <ele>271.1</ele>
        <time>2021-03-21T12:58:41Z</time>
      </trkpt>
      <trkpt lat="43.13688" lon="2.24731">
        <ele>271.2</ele>
        <time>2021-03-21T12:58:42Z</time>
      </trkpt>
      <trkpt lat="43.13698" lon="2.24724">
        <ele>271.4</ele>
        <time>2021-03-21T12:58:44Z</time>
      </trkpt>
      <trkpt lat="43.13708" lon="2.24716">
        <ele>271.5</ele>
        <time>2021-03-21T12:58:46Z</time>
      </trkpt>
      <trkpt lat="43.13717" lon="2.24708">
        <ele>271.7</ele>
        <time>2021-03-21T12:58:48Z</time>
      </trkpt>
      <trkpt lat="43.13721" lon="2.24703">
        <ele>271.8</ele>
        <time>2021-03-21T12:58:49Z</time>
      </trkpt>
      <trkpt lat="43.13725" lon="2.24698">
        <ele>271.9</ele>
        <time>2021-03-21T12:58:50Z</time>
      </trkpt>
      <trkpt lat="43.13734" lon="2.24688">
        <ele>272.1</ele>
        <time>2021-03-21T12:58:52Z</time>
      </trkpt>
      <trkpt lat="43.13738" lon="2.24683">
        <ele>272.2</ele>
        <time>2021-03-21T12:58:53Z</time>
      </trkpt>
      <trkpt lat="43.13743" lon="2.24678">
        <ele>272.4</ele>
        <time>2021-03-21T12:58:54Z</time>
      </trkpt>
      <trkpt lat="43.13752" lon="2.24669">
        <ele>272.6</ele>
        <time>2021-03-21T12:58:56Z</time>
      </trkpt>
      <trkpt lat="43.13761" lon="2.2466">
        <ele>272.8</ele>
        <time>2021-03-21T12:58:58Z</time>
      </trkpt>
      <trkpt lat="43.13766" lon="2.24655">
        <ele>272.9</ele>
        <time>2021-03-21T12:58:59Z</time>
      </trkpt>
      <trkpt lat="43.13771" lon="2.2465">
        <ele>273</ele>
        <time>2021-03-21T12:59:00Z</time>
      </trkpt>
      <trkpt lat="43.1378" lon="2.24643">
        <ele>273.1</ele>
        <time>2021-03-21T12:59:02Z</time>
      </trkpt>
      <trkpt lat="43.13785" lon="2.24638">
        <ele>273.2</ele>
        <time>2021-03-21T12:59:03Z</time>
      </trkpt>
      <trkpt lat="43.13796" lon="2.24631">
        <ele>273.2</ele>
        <time>2021-03-21T12:59:05Z</time>
      </trkpt>
      <trkpt lat="43.13802" lon="2.24627">
        <ele>273.2</ele>
        <time>2021-03-21T12:59:06Z</time>
      </trkpt>
      <trkpt lat="43.13807" lon="2.24623">
        <ele>273.2</ele>
        <time>2021-03-21T12:59:07Z</time>
      </trkpt>
      <trkpt lat="43.13816" lon="2.24616">
        <ele>273.2</ele>
        <time>2021-03-21T12:59:09Z</time>
      </trkpt>
      <trkpt lat="43.13821" lon="2.24612">
        <ele>273.2</ele>
        <time>2021-03-21T12:59:10Z</time>
      </trkpt>
      <trkpt lat="43.13826" lon="2.24609">
        <ele>273.2</ele>
        <time>2021-03-21T12:59:11Z</time>
      </trkpt>
      <trkpt lat="43.13836" lon="2.24603">
        <ele>273.2</ele>
        <time>2021-03-21T12:59:13Z</time>
      </trkpt>
      <trkpt lat="43.13847" lon="2.24599">
        <ele>273.2</ele>
        <time>2021-03-21T12:59:15Z</time>
      </trkpt>
      <trkpt lat="43.13853" lon="2.24598">
        <ele>273.3</ele>
        <time>2021-03-21T12:59:16Z</time>
      </trkpt>
      <trkpt lat="43.13864" lon="2.24598">
        <ele>273.3</ele>
        <time>2021-03-21T12:59:18Z</time>
      </trkpt>
      <trkpt lat="43.1387" lon="2.24598">
        <ele>273.3</ele>
        <time>2021-03-21T12:59:19Z</time>
      </trkpt>
      <trkpt lat="43.13882" lon="2.24602">
        <ele>273.4</ele>
        <time>2021-03-21T12:59:21Z</time>
      </trkpt>
      <trkpt lat="43.13893" lon="2.24606">
        <ele>273.5</ele>
        <time>2021-03-21T12:59:23Z</time>
      </trkpt>
      <trkpt lat="43.13904" lon="2.24609">
        <ele>273.7</ele>
        <time>2021-03-21T12:59:25Z</time>
      </trkpt>
      <trkpt lat="43.1391" lon="2.24612">
        <ele>273.7</ele>
        <time>2021-03-21T12:59:26Z</time>
      </trkpt>
      <trkpt lat="43.13921" lon="2.24617">
        <ele>273.9</ele>
        <time>2021-03-21T12:59:28Z</time>
      </trkpt>
      <trkpt lat="43.13933" lon="2.24625">
        <ele>274.1</ele>
        <time>2021-03-21T12:59:30Z</time>
      </trkpt>
      <trkpt lat="43.13943" lon="2.24636">
        <ele>274.2</ele>
        <time>2021-03-21T12:59:32Z</time>
      </trkpt>
      <trkpt lat="43.13948" lon="2.24643">
        <ele>274.3</ele>
        <time>2021-03-21T12:59:33Z</time>
      </trkpt>
      <trkpt lat="43.13954" lon="2.2465">
        <ele>274.4</ele>
        <time>2021-03-21T12:59:34Z</time>
      </trkpt>
      <trkpt lat="43.13965" lon="2.24662">
        <ele>274.5</ele>
        <time>2021-03-21T12:59:36Z</time>
      </trkpt>
      <trkpt lat="43.13971" lon="2.24668">
        <ele>274.5</ele>
        <time>2021-03-21T12:59:37Z</time>
      </trkpt>
      <trkpt lat="43.13976" lon="2.24673">
        <ele>274.6</ele>
        <time>2021-03-21T12:59:38Z</time>
      </trkpt>
      <trkpt lat="43.13989" lon="2.24681">
        <ele>274.7</ele>
        <time>2021-03-21T12:59:40Z</time>
      </trkpt>
      <trkpt lat="43.13996" lon="2.24683">
        <ele>274.8</ele>
        <time>2021-03-21T12:59:41Z</time>
      </trkpt>
      <trkpt lat="43.14009" lon="2.24681">
        <ele>274.9</ele>
        <time>2021-03-21T12:59:43Z</time>
      </trkpt>
      <trkpt lat="43.14022" lon="2.24675">
        <ele>275</ele>
        <time>2021-03-21T12:59:45Z</time>
      </trkpt>
      <trkpt lat="43.14028" lon="2.2467">
        <ele>275.1</ele>
        <time>2021-03-21T12:59:46Z</time>
      </trkpt>
      <trkpt lat="43.14034" lon="2.24665">
        <ele>275.1</ele>
        <time>2021-03-21T12:59:47Z</time>
      </trkpt>
      <trkpt lat="43.14045" lon="2.24653">
        <ele>275.4</ele>
        <time>2021-03-21T12:59:49Z</time>
      </trkpt>
      <trkpt lat="43.1405" lon="2.24646">
        <ele>275.6</ele>
        <time>2021-03-21T12:59:50Z</time>
      </trkpt>
      <trkpt lat="43.1406" lon="2.24635">
        <ele>275.9</ele>
        <time>2021-03-21T12:59:52Z</time>
      </trkpt>
      <trkpt lat="43.14065" lon="2.2463">
        <ele>276</ele>
        <time>2021-03-21T12:59:53Z</time>
      </trkpt>
      <trkpt lat="43.14075" lon="2.24622">
        <ele>276.4</ele>
        <time>2021-03-21T12:59:55Z</time>
      </trkpt>
      <trkpt lat="43.14084" lon="2.24616">
        <ele>276.7</ele>
        <time>2021-03-21T12:59:57Z</time>
      </trkpt>
      <trkpt lat="43.14089" lon="2.24613">
        <ele>276.8</ele>
        <time>2021-03-21T12:59:58Z</time>
      </trkpt>
      <trkpt lat="43.14097" lon="2.24609">
        <ele>277.1</ele>
        <time>2021-03-21T13:00:00Z</time>
      </trkpt>
      <trkpt lat="43.14106" lon="2.24605">
        <ele>277.4</ele>
        <time>2021-03-21T13:00:02Z</time>
      </trkpt>
      <trkpt lat="43.14116" lon="2.24601">
        <ele>277.7</ele>
        <time>2021-03-21T13:00:04Z</time>
      </trkpt>
      <trkpt lat="43.14127" lon="2.24598">
        <ele>278</ele>
        <time>2021-03-21T13:00:06Z</time>
      </trkpt>
      <trkpt lat="43.14137" lon="2.24595">
        <ele>278.4</ele>
        <time>2021-03-21T13:00:08Z</time>
      </trkpt>
      <trkpt lat="43.14143" lon="2.24593">
        <ele>278.5</ele>
        <time>2021-03-21T13:00:09Z</time>
      </trkpt>
      <trkpt lat="43.14153" lon="2.2459">
        <ele>278.9</ele>
        <time>2021-03-21T13:00:11Z</time>
      </trkpt>
      <trkpt lat="43.14163" lon="2.24585">
        <ele>279.2</ele>
        <time>2021-03-21T13:00:13Z</time>
      </trkpt>
      <trkpt lat="43.14174" lon="2.2458">
        <ele>279.5</ele>
        <time>2021-03-21T13:00:15Z</time>
      </trkpt>
      <trkpt lat="43.14179" lon="2.24577">
        <ele>279.7</ele>
        <time>2021-03-21T13:00:16Z</time>
      </trkpt>
      <trkpt lat="43.14189" lon="2.24572">
        <ele>280</ele>
        <time>2021-03-21T13:00:18Z</time>
      </trkpt>
      <trkpt lat="43.14193" lon="2.24569">
        <ele>280.2</ele>
        <time>2021-03-21T13:00:19Z</time>
      </trkpt>
      <trkpt lat="43.14202" lon="2.24562">
        <ele>280.5</ele>
        <time>2021-03-21T13:00:21Z</time>
      </trkpt>
      <trkpt lat="43.14207" lon="2.24559">
        <ele>280.7</ele>
        <time>2021-03-21T13:00:22Z</time>
      </trkpt>
      <trkpt lat="43.14216" lon="2.24553">
        <ele>281.1</ele>
        <time>2021-03-21T13:00:24Z</time>
      </trkpt>
      <trkpt lat="43.14221" lon="2.2455">
        <ele>281.3</ele>
        <time>2021-03-21T13:00:25Z</time>
      </trkpt>
      <trkpt lat="43.14231" lon="2.24544">
        <ele>281.7</ele>
        <time>2021-03-21T13:00:27Z</time>
      </trkpt>
      <trkpt lat="43.14236" lon="2.24542">
        <ele>281.9</ele>
        <time>2021-03-21T13:00:28Z</time>
      </trkpt>
      <trkpt lat="43.14241" lon="2.2454">
        <ele>282.1</ele>
        <time>2021-03-21T13:00:29Z</time>
      </trkpt>
      <trkpt lat="43.14252" lon="2.24537">
        <ele>282.5</ele>
        <time>2021-03-21T13:00:31Z</time>
      </trkpt>
      <trkpt lat="43.14257" lon="2.24536">
        <ele>282.6</ele>
        <time>2021-03-21T13:00:32Z</time>
      </trkpt>
      <trkpt lat="43.14263" lon="2.24534">
        <ele>282.8</ele>
        <time>2021-03-21T13:00:33Z</time>
      </trkpt>
      <trkpt lat="43.14272" lon="2.24529">
        <ele>283.1</ele>
        <time>2021-03-21T13:00:35Z</time>
      </trkpt>
      <trkpt lat="43.14277" lon="2.24524">
        <ele>283.3</ele>
        <time>2021-03-21T13:00:36Z</time>
      </trkpt>
      <trkpt lat="43.14282" lon="2.2451">
        <ele>283.6</ele>
        <time>2021-03-21T13:00:38Z</time>
      </trkpt>
      <trkpt lat="43.14282" lon="2.24495">
        <ele>284</ele>
        <time>2021-03-21T13:00:40Z</time>
      </trkpt>
      <trkpt lat="43.1428" lon="2.24481">
        <ele>284.3</ele>
        <time>2021-03-21T13:00:42Z</time>
      </trkpt>
      <trkpt lat="43.14279" lon="2.24474">
        <ele>284.4</ele>
        <time>2021-03-21T13:00:43Z</time>
      </trkpt>
      <trkpt lat="43.14276" lon="2.2446">
        <ele>284.7</ele>
        <time>2021-03-21T13:00:45Z</time>
      </trkpt>
      <trkpt lat="43.14276" lon="2.24447">
        <ele>285</ele>
        <time>2021-03-21T13:00:47Z</time>
      </trkpt>
      <trkpt lat="43.14276" lon="2.24441">
        <ele>285.2</ele>
        <time>2021-03-21T13:00:48Z</time>
      </trkpt>
      <trkpt lat="43.14278" lon="2.24428">
        <ele>285.5</ele>
        <time>2021-03-21T13:00:50Z</time>
      </trkpt>
      <trkpt lat="43.14281" lon="2.24418">
        <ele>285.8</ele>
        <time>2021-03-21T13:00:52Z</time>
      </trkpt>
      <trkpt lat="43.14286" lon="2.24409">
        <ele>286.1</ele>
        <time>2021-03-21T13:00:54Z</time>
      </trkpt>
      <trkpt lat="43.14292" lon="2.24401">
        <ele>286.5</ele>
        <time>2021-03-21T13:00:56Z</time>
      </trkpt>
      <trkpt lat="43.14303" lon="2.24395">
        <ele>286.9</ele>
        <time>2021-03-21T13:00:58Z</time>
      </trkpt>
      <trkpt lat="43.14307" lon="2.24392">
        <ele>287.1</ele>
        <time>2021-03-21T13:00:59Z</time>
      </trkpt>
      <trkpt lat="43.14308" lon="2.2439">
        <ele>287.2</ele>
        <time>2021-03-21T13:01:00Z</time>
      </trkpt>
      <trkpt lat="43.14317" lon="2.24394">
        <ele>287.5</ele>
        <time>2021-03-21T13:01:02Z</time>
      </trkpt>
      <trkpt lat="43.14316" lon="2.24405">
        <ele>287.8</ele>
        <time>2021-03-21T13:01:04Z</time>
      </trkpt>
      <trkpt lat="43.14329" lon="2.24406">
        <ele>288.2</ele>
        <time>2021-03-21T13:01:05Z</time>
      </trkpt>
      <trkpt lat="43.14335" lon="2.24407">
        <ele>288.4</ele>
        <time>2021-03-21T13:01:06Z</time>
      </trkpt>
      <trkpt lat="43.14347" lon="2.24408">
        <ele>288.8</ele>
        <time>2021-03-21T13:01:08Z</time>
      </trkpt>
      <trkpt lat="43.14357" lon="2.24407">
        <ele>289.1</ele>
        <time>2021-03-21T13:01:10Z</time>
      </trkpt>
      <trkpt lat="43.14367" lon="2.24401">
        <ele>289.4</ele>
        <time>2021-03-21T13:01:12Z</time>
      </trkpt>
      <trkpt lat="43.14376" lon="2.24391">
        <ele>289.7</ele>
        <time>2021-03-21T13:01:14Z</time>
      </trkpt>
      <trkpt lat="43.14379" lon="2.24385">
        <ele>289.9</ele>
        <time>2021-03-21T13:01:15Z</time>
      </trkpt>
      <trkpt lat="43.14383" lon="2.24372">
        <ele>290.1</ele>
        <time>2021-03-21T13:01:17Z</time>
      </trkpt>
      <trkpt lat="43.14385" lon="2.24358">
        <ele>290.4</ele>
        <time>2021-03-21T13:01:19Z</time>
      </trkpt>
      <trkpt lat="43.14387" lon="2.24351">
        <ele>290.5</ele>
        <time>2021-03-21T13:01:20Z</time>
      </trkpt>
      <trkpt lat="43.14387" lon="2.24344">
        <ele>290.7</ele>
        <time>2021-03-21T13:01:21Z</time>
      </trkpt>
      <trkpt lat="43.14389" lon="2.2433">
        <ele>291</ele>
        <time>2021-03-21T13:01:23Z</time>
      </trkpt>
      <trkpt lat="43.14389" lon="2.24323">
        <ele>291.2</ele>
        <time>2021-03-21T13:01:24Z</time>
      </trkpt>
      <trkpt lat="43.1439" lon="2.24309">
        <ele>291.5</ele>
        <time>2021-03-21T13:01:26Z</time>
      </trkpt>
      <trkpt lat="43.14392" lon="2.24295">
        <ele>291.8</ele>
        <time>2021-03-21T13:01:28Z</time>
      </trkpt>
      <trkpt lat="43.14393" lon="2.24281">
        <ele>292.1</ele>
        <time>2021-03-21T13:01:30Z</time>
      </trkpt>
      <trkpt lat="43.14394" lon="2.24268">
        <ele>292.4</ele>
        <time>2021-03-21T13:01:32Z</time>
      </trkpt>
      <trkpt lat="43.14395" lon="2.24261">
        <ele>292.5</ele>
        <time>2021-03-21T13:01:33Z</time>
      </trkpt>
      <trkpt lat="43.14396" lon="2.24248">
        <ele>292.8</ele>
        <time>2021-03-21T13:01:35Z</time>
      </trkpt>
      <trkpt lat="43.14396" lon="2.24241">
        <ele>293</ele>
        <time>2021-03-21T13:01:36Z</time>
      </trkpt>
      <trkpt lat="43.14397" lon="2.24227">
        <ele>293.4</ele>
        <time>2021-03-21T13:01:38Z</time>
      </trkpt>
      <trkpt lat="43.144" lon="2.24214">
        <ele>293.7</ele>
        <time>2021-03-21T13:01:40Z</time>
      </trkpt>
      <trkpt lat="43.14405" lon="2.24202">
        <ele>294</ele>
        <time>2021-03-21T13:01:42Z</time>
      </trkpt>
      <trkpt lat="43.14408" lon="2.24197">
        <ele>294.2</ele>
        <time>2021-03-21T13:01:43Z</time>
      </trkpt>
      <trkpt lat="43.14416" lon="2.24188">
        <ele>294.5</ele>
        <time>2021-03-21T13:01:45Z</time>
      </trkpt>
      <trkpt lat="43.14421" lon="2.24185">
        <ele>294.6</ele>
        <time>2021-03-21T13:01:46Z</time>
      </trkpt>
      <trkpt lat="43.14426" lon="2.24182">
        <ele>294.8</ele>
        <time>2021-03-21T13:01:47Z</time>
      </trkpt>
      <trkpt lat="43.14435" lon="2.24177">
        <ele>295.1</ele>
        <time>2021-03-21T13:01:49Z</time>
      </trkpt>
      <trkpt lat="43.14442" lon="2.24172">
        <ele>295.3</ele>
        <time>2021-03-21T13:01:51Z</time>
      </trkpt>
      <trkpt lat="43.14451" lon="2.24165">
        <ele>295.7</ele>
        <time>2021-03-21T13:01:53Z</time>
      </trkpt>
      <trkpt lat="43.14456" lon="2.24161">
        <ele>295.8</ele>
        <time>2021-03-21T13:01:54Z</time>
      </trkpt>
      <trkpt lat="43.1446" lon="2.24157">
        <ele>296</ele>
        <time>2021-03-21T13:01:55Z</time>
      </trkpt>
      <trkpt lat="43.14467" lon="2.24147">
        <ele>296.3</ele>
        <time>2021-03-21T13:01:57Z</time>
      </trkpt>
      <trkpt lat="43.1447" lon="2.24142">
        <ele>296.4</ele>
        <time>2021-03-21T13:01:58Z</time>
      </trkpt>
      <trkpt lat="43.14473" lon="2.24136">
        <ele>296.6</ele>
        <time>2021-03-21T13:02:00Z</time>
      </trkpt>
      <trkpt lat="43.14478" lon="2.24127">
        <ele>296.8</ele>
        <time>2021-03-21T13:02:01Z</time>
      </trkpt>
      <trkpt lat="43.14484" lon="2.24117">
        <ele>297.1</ele>
        <time>2021-03-21T13:02:03Z</time>
      </trkpt>
      <trkpt lat="43.1449" lon="2.24106">
        <ele>297.4</ele>
        <time>2021-03-21T13:02:05Z</time>
      </trkpt>
      <trkpt lat="43.14496" lon="2.24095">
        <ele>297.8</ele>
        <time>2021-03-21T13:02:07Z</time>
      </trkpt>
      <trkpt lat="43.14502" lon="2.24085">
        <ele>298.1</ele>
        <time>2021-03-21T13:02:09Z</time>
      </trkpt>
      <trkpt lat="43.14508" lon="2.24076">
        <ele>298.5</ele>
        <time>2021-03-21T13:02:11Z</time>
      </trkpt>
      <trkpt lat="43.14515" lon="2.24067">
        <ele>298.8</ele>
        <time>2021-03-21T13:02:13Z</time>
      </trkpt>
      <trkpt lat="43.14519" lon="2.24064">
        <ele>299</ele>
        <time>2021-03-21T13:02:14Z</time>
      </trkpt>
      <trkpt lat="43.14528" lon="2.2406">
        <ele>299.3</ele>
        <time>2021-03-21T13:02:16Z</time>
      </trkpt>
      <trkpt lat="43.14539" lon="2.2406">
        <ele>299.5</ele>
        <time>2021-03-21T13:02:18Z</time>
      </trkpt>
      <trkpt lat="43.14549" lon="2.24062">
        <ele>299.8</ele>
        <time>2021-03-21T13:02:20Z</time>
      </trkpt>
      <trkpt lat="43.14553" lon="2.24065">
        <ele>300</ele>
        <time>2021-03-21T13:02:21Z</time>
      </trkpt>
      <trkpt lat="43.14562" lon="2.24073">
        <ele>300.3</ele>
        <time>2021-03-21T13:02:23Z</time>
      </trkpt>
      <trkpt lat="43.14571" lon="2.24079">
        <ele>300.7</ele>
        <time>2021-03-21T13:02:25Z</time>
      </trkpt>
      <trkpt lat="43.1458" lon="2.24082">
        <ele>301.1</ele>
        <time>2021-03-21T13:02:27Z</time>
      </trkpt>
      <trkpt lat="43.14588" lon="2.24082">
        <ele>301.5</ele>
        <time>2021-03-21T13:02:29Z</time>
      </trkpt>
      <trkpt lat="43.14593" lon="2.24082">
        <ele>301.7</ele>
        <time>2021-03-21T13:02:30Z</time>
      </trkpt>
      <trkpt lat="43.14602" lon="2.24081">
        <ele>302.1</ele>
        <time>2021-03-21T13:02:32Z</time>
      </trkpt>
      <trkpt lat="43.14607" lon="2.24081">
        <ele>302.3</ele>
        <time>2021-03-21T13:02:33Z</time>
      </trkpt>
      <trkpt lat="43.14616" lon="2.24084">
        <ele>302.7</ele>
        <time>2021-03-21T13:02:35Z</time>
      </trkpt>
      <trkpt lat="43.14621" lon="2.24086">
        <ele>302.9</ele>
        <time>2021-03-21T13:02:36Z</time>
      </trkpt>
      <trkpt lat="43.14626" lon="2.24088">
        <ele>303.1</ele>
        <time>2021-03-21T13:02:37Z</time>
      </trkpt>
      <trkpt lat="43.14632" lon="2.24092">
        <ele>303.3</ele>
        <time>2021-03-21T13:02:39Z</time>
      </trkpt>
      <trkpt lat="43.14636" lon="2.24097">
        <ele>303.6</ele>
        <time>2021-03-21T13:02:40Z</time>
      </trkpt>
      <trkpt lat="43.14641" lon="2.24099">
        <ele>303.8</ele>
        <time>2021-03-21T13:02:41Z</time>
      </trkpt>
      <trkpt lat="43.14645" lon="2.241">
        <ele>303.9</ele>
        <time>2021-03-21T13:02:42Z</time>
      </trkpt>
      <trkpt lat="43.14649" lon="2.24097">
        <ele>304.1</ele>
        <time>2021-03-21T13:02:43Z</time>
      </trkpt>
      <trkpt lat="43.14654" lon="2.24098">
        <ele>304.2</ele>
        <time>2021-03-21T13:02:44Z</time>
      </trkpt>
      <trkpt lat="43.14659" lon="2.24099">
        <ele>304.4</ele>
        <time>2021-03-21T13:02:45Z</time>
      </trkpt>
      <trkpt lat="43.1467" lon="2.24101">
        <ele>304.8</ele>
        <time>2021-03-21T13:02:47Z</time>
      </trkpt>
      <trkpt lat="43.14676" lon="2.24103">
        <ele>305</ele>
        <time>2021-03-21T13:02:48Z</time>
      </trkpt>
      <trkpt lat="43.14683" lon="2.24107">
        <ele>305.4</ele>
        <time>2021-03-21T13:02:50Z</time>
      </trkpt>
      <trkpt lat="43.14692" lon="2.24116">
        <ele>305.8</ele>
        <time>2021-03-21T13:02:52Z</time>
      </trkpt>
      <trkpt lat="43.14699" lon="2.24129">
        <ele>306.3</ele>
        <time>2021-03-21T13:02:54Z</time>
      </trkpt>
      <trkpt lat="43.14701" lon="2.24137">
        <ele>306.6</ele>
        <time>2021-03-21T13:02:55Z</time>
      </trkpt>
      <trkpt lat="43.14701" lon="2.24143">
        <ele>306.8</ele>
        <time>2021-03-21T13:02:56Z</time>
      </trkpt>
      <trkpt lat="43.14702" lon="2.24148">
        <ele>306.9</ele>
        <time>2021-03-21T13:02:57Z</time>
      </trkpt>
      <trkpt lat="43.147" lon="2.24152">
        <ele>307.1</ele>
        <time>2021-03-21T13:02:59Z</time>
      </trkpt>
      <trkpt lat="43.147" lon="2.24154">
        <ele>307.2</ele>
        <time>2021-03-21T13:03:00Z</time>
      </trkpt>
      <trkpt lat="43.147" lon="2.24161">
        <ele>307.4</ele>
        <time>2021-03-21T13:03:01Z</time>
      </trkpt>
      <trkpt lat="43.14702" lon="2.24172">
        <ele>307.7</ele>
        <time>2021-03-21T13:03:02Z</time>
      </trkpt>
      <trkpt lat="43.14704" lon="2.2418">
        <ele>308</ele>
        <time>2021-03-21T13:03:03Z</time>
      </trkpt>
      <trkpt lat="43.14712" lon="2.24192">
        <ele>308.5</ele>
        <time>2021-03-21T13:03:05Z</time>
      </trkpt>
      <trkpt lat="43.14723" lon="2.24194">
        <ele>308.9</ele>
        <time>2021-03-21T13:03:07Z</time>
      </trkpt>
      <trkpt lat="43.14728" lon="2.24192">
        <ele>309</ele>
        <time>2021-03-21T13:03:08Z</time>
      </trkpt>
      <trkpt lat="43.14737" lon="2.24186">
        <ele>309.3</ele>
        <time>2021-03-21T13:03:10Z</time>
      </trkpt>
      <trkpt lat="43.14741" lon="2.24183">
        <ele>309.4</ele>
        <time>2021-03-21T13:03:11Z</time>
      </trkpt>
      <trkpt lat="43.14745" lon="2.2418">
        <ele>309.5</ele>
        <time>2021-03-21T13:03:12Z</time>
      </trkpt>
      <trkpt lat="43.14752" lon="2.24175">
        <ele>309.7</ele>
        <time>2021-03-21T13:03:14Z</time>
      </trkpt>
      <trkpt lat="43.14756" lon="2.24173">
        <ele>309.9</ele>
        <time>2021-03-21T13:03:15Z</time>
      </trkpt>
      <trkpt lat="43.14766" lon="2.24171">
        <ele>310.2</ele>
        <time>2021-03-21T13:03:17Z</time>
      </trkpt>
      <trkpt lat="43.14775" lon="2.2417">
        <ele>310.5</ele>
        <time>2021-03-21T13:03:19Z</time>
      </trkpt>
      <trkpt lat="43.14783" lon="2.24178">
        <ele>310.8</ele>
        <time>2021-03-21T13:03:21Z</time>
      </trkpt>
      <trkpt lat="43.14787" lon="2.24184">
        <ele>311</ele>
        <time>2021-03-21T13:03:22Z</time>
      </trkpt>
      <trkpt lat="43.14792" lon="2.242">
        <ele>311.4</ele>
        <time>2021-03-21T13:03:24Z</time>
      </trkpt>
      <trkpt lat="43.14796" lon="2.24215">
        <ele>311.9</ele>
        <time>2021-03-21T13:03:26Z</time>
      </trkpt>
      <trkpt lat="43.14798" lon="2.24222">
        <ele>312.1</ele>
        <time>2021-03-21T13:03:27Z</time>
      </trkpt>
      <trkpt lat="43.14801" lon="2.24228">
        <ele>312.3</ele>
        <time>2021-03-21T13:03:28Z</time>
      </trkpt>
      <trkpt lat="43.14807" lon="2.24238">
        <ele>312.8</ele>
        <time>2021-03-21T13:03:30Z</time>
      </trkpt>
      <trkpt lat="43.14812" lon="2.24241">
        <ele>313</ele>
        <time>2021-03-21T13:03:31Z</time>
      </trkpt>
      <trkpt lat="43.14817" lon="2.24241">
        <ele>313.2</ele>
        <time>2021-03-21T13:03:32Z</time>
      </trkpt>
      <trkpt lat="43.14821" lon="2.2424">
        <ele>313.3</ele>
        <time>2021-03-21T13:03:33Z</time>
      </trkpt>
      <trkpt lat="43.14826" lon="2.24237">
        <ele>313.5</ele>
        <time>2021-03-21T13:03:34Z</time>
      </trkpt>
      <trkpt lat="43.14829" lon="2.24234">
        <ele>313.7</ele>
        <time>2021-03-21T13:03:35Z</time>
      </trkpt>
      <trkpt lat="43.14836" lon="2.2423">
        <ele>313.9</ele>
        <time>2021-03-21T13:03:37Z</time>
      </trkpt>
      <trkpt lat="43.14845" lon="2.24228">
        <ele>314.2</ele>
        <time>2021-03-21T13:03:39Z</time>
      </trkpt>
      <trkpt lat="43.14849" lon="2.24227">
        <ele>314.3</ele>
        <time>2021-03-21T13:03:40Z</time>
      </trkpt>
      <trkpt lat="43.14843" lon="2.24223">
        <ele>314.6</ele>
        <time>2021-03-21T13:03:41Z</time>
      </trkpt>
      <trkpt lat="43.14847" lon="2.24219">
        <ele>314.8</ele>
        <time>2021-03-21T13:03:43Z</time>
      </trkpt>
      <trkpt lat="43.14854" lon="2.24221">
        <ele>315</ele>
        <time>2021-03-21T13:03:44Z</time>
      </trkpt>
      <trkpt lat="43.14861" lon="2.24227">
        <ele>315.3</ele>
        <time>2021-03-21T13:03:46Z</time>
      </trkpt>
      <trkpt lat="43.14864" lon="2.24233">
        <ele>315.5</ele>
        <time>2021-03-21T13:03:47Z</time>
      </trkpt>
      <trkpt lat="43.14867" lon="2.24241">
        <ele>315.7</ele>
        <time>2021-03-21T13:03:48Z</time>
      </trkpt>
      <trkpt lat="43.14872" lon="2.24247">
        <ele>316</ele>
        <time>2021-03-21T13:03:50Z</time>
      </trkpt>
      <trkpt lat="43.14875" lon="2.24252">
        <ele>316.1</ele>
        <time>2021-03-21T13:03:51Z</time>
      </trkpt>
      <trkpt lat="43.14887" lon="2.2426">
        <ele>316.7</ele>
        <time>2021-03-21T13:03:53Z</time>
      </trkpt>
      <trkpt lat="43.14894" lon="2.24261">
        <ele>316.9</ele>
        <time>2021-03-21T13:03:54Z</time>
      </trkpt>
      <trkpt lat="43.14899" lon="2.24264">
        <ele>317.1</ele>
        <time>2021-03-21T13:03:55Z</time>
      </trkpt>
      <trkpt lat="43.14909" lon="2.2427">
        <ele>317.5</ele>
        <time>2021-03-21T13:03:57Z</time>
      </trkpt>
      <trkpt lat="43.14914" lon="2.24269">
        <ele>317.7</ele>
        <time>2021-03-21T13:03:59Z</time>
      </trkpt>
      <trkpt lat="43.14922" lon="2.24272">
        <ele>318</ele>
        <time>2021-03-21T13:04:00Z</time>
      </trkpt>
      <trkpt lat="43.14925" lon="2.24276">
        <ele>318.2</ele>
        <time>2021-03-21T13:04:01Z</time>
      </trkpt>
      <trkpt lat="43.14929" lon="2.24282">
        <ele>318.4</ele>
        <time>2021-03-21T13:04:03Z</time>
      </trkpt>
      <trkpt lat="43.14939" lon="2.24289">
        <ele>318.8</ele>
        <time>2021-03-21T13:04:04Z</time>
      </trkpt>
      <trkpt lat="43.14953" lon="2.24292">
        <ele>319.4</ele>
        <time>2021-03-21T13:04:06Z</time>
      </trkpt>
      <trkpt lat="43.14965" lon="2.2429">
        <ele>319.9</ele>
        <time>2021-03-21T13:04:08Z</time>
      </trkpt>
      <trkpt lat="43.14971" lon="2.24286">
        <ele>320.1</ele>
        <time>2021-03-21T13:04:09Z</time>
      </trkpt>
      <trkpt lat="43.1498" lon="2.24276">
        <ele>320.6</ele>
        <time>2021-03-21T13:04:11Z</time>
      </trkpt>
      <trkpt lat="43.14985" lon="2.24263">
        <ele>321</ele>
        <time>2021-03-21T13:04:13Z</time>
      </trkpt>
      <trkpt lat="43.14989" lon="2.24255">
        <ele>321.2</ele>
        <time>2021-03-21T13:04:15Z</time>
      </trkpt>
      <trkpt lat="43.14991" lon="2.24245">
        <ele>321.5</ele>
        <time>2021-03-21T13:04:16Z</time>
      </trkpt>
      <trkpt lat="43.14988" lon="2.2423">
        <ele>321.9</ele>
        <time>2021-03-21T13:04:18Z</time>
      </trkpt>
      <trkpt lat="43.14983" lon="2.24217">
        <ele>322.3</ele>
        <time>2021-03-21T13:04:20Z</time>
      </trkpt>
      <trkpt lat="43.1498" lon="2.2421">
        <ele>322.3</ele>
        <time>2021-03-21T13:04:21Z</time>
      </trkpt>
      <trkpt lat="43.14973" lon="2.24197">
        <ele>322.3</ele>
        <time>2021-03-21T13:04:23Z</time>
      </trkpt>
      <trkpt lat="43.14969" lon="2.2419">
        <ele>322.4</ele>
        <time>2021-03-21T13:04:24Z</time>
      </trkpt>
      <trkpt lat="43.14966" lon="2.24183">
        <ele>322.4</ele>
        <time>2021-03-21T13:04:25Z</time>
      </trkpt>
      <trkpt lat="43.1496" lon="2.24169">
        <ele>322.5</ele>
        <time>2021-03-21T13:04:27Z</time>
      </trkpt>
      <trkpt lat="43.14954" lon="2.24156">
        <ele>322.8</ele>
        <time>2021-03-21T13:04:29Z</time>
      </trkpt>
      <trkpt lat="43.14951" lon="2.2415">
        <ele>322.9</ele>
        <time>2021-03-21T13:04:30Z</time>
      </trkpt>
      <trkpt lat="43.14945" lon="2.24137">
        <ele>323.1</ele>
        <time>2021-03-21T13:04:32Z</time>
      </trkpt>
      <trkpt lat="43.14939" lon="2.24124">
        <ele>323.3</ele>
        <time>2021-03-21T13:04:34Z</time>
      </trkpt>
      <trkpt lat="43.14937" lon="2.24116">
        <ele>323.4</ele>
        <time>2021-03-21T13:04:35Z</time>
      </trkpt>
      <trkpt lat="43.14935" lon="2.24109">
        <ele>323.5</ele>
        <time>2021-03-21T13:04:36Z</time>
      </trkpt>
      <trkpt lat="43.14934" lon="2.24094">
        <ele>323.6</ele>
        <time>2021-03-21T13:04:38Z</time>
      </trkpt>
      <trkpt lat="43.14936" lon="2.24081">
        <ele>323.8</ele>
        <time>2021-03-21T13:04:40Z</time>
      </trkpt>
      <trkpt lat="43.14941" lon="2.24067">
        <ele>324</ele>
        <time>2021-03-21T13:04:42Z</time>
      </trkpt>
      <trkpt lat="43.14948" lon="2.24056">
        <ele>324.2</ele>
        <time>2021-03-21T13:04:44Z</time>
      </trkpt>
      <trkpt lat="43.14958" lon="2.24048">
        <ele>324.4</ele>
        <time>2021-03-21T13:04:46Z</time>
      </trkpt>
      <trkpt lat="43.14969" lon="2.24041">
        <ele>324.6</ele>
        <time>2021-03-21T13:04:48Z</time>
      </trkpt>
      <trkpt lat="43.14974" lon="2.24036">
        <ele>324.7</ele>
        <time>2021-03-21T13:04:49Z</time>
      </trkpt>
      <trkpt lat="43.14978" lon="2.2403">
        <ele>324.9</ele>
        <time>2021-03-21T13:04:50Z</time>
      </trkpt>
      <trkpt lat="43.14983" lon="2.24016">
        <ele>325.1</ele>
        <time>2021-03-21T13:04:52Z</time>
      </trkpt>
      <trkpt lat="43.14983" lon="2.24008">
        <ele>325.3</ele>
        <time>2021-03-21T13:04:53Z</time>
      </trkpt>
      <trkpt lat="43.14982" lon="2.24">
        <ele>325.4</ele>
        <time>2021-03-21T13:04:54Z</time>
      </trkpt>
      <trkpt lat="43.14978" lon="2.23985">
        <ele>325.7</ele>
        <time>2021-03-21T13:04:56Z</time>
      </trkpt>
      <trkpt lat="43.14976" lon="2.23978">
        <ele>325.9</ele>
        <time>2021-03-21T13:04:57Z</time>
      </trkpt>
      <trkpt lat="43.14974" lon="2.23971">
        <ele>326</ele>
        <time>2021-03-21T13:04:58Z</time>
      </trkpt>
      <trkpt lat="43.14974" lon="2.23957">
        <ele>326.3</ele>
        <time>2021-03-21T13:05:00Z</time>
      </trkpt>
      <trkpt lat="43.14975" lon="2.2395">
        <ele>326.4</ele>
        <time>2021-03-21T13:05:01Z</time>
      </trkpt>
      <trkpt lat="43.1498" lon="2.23938">
        <ele>326.5</ele>
        <time>2021-03-21T13:05:03Z</time>
      </trkpt>
      <trkpt lat="43.14984" lon="2.23932">
        <ele>326.6</ele>
        <time>2021-03-21T13:05:04Z</time>
      </trkpt>
      <trkpt lat="43.14987" lon="2.23926">
        <ele>326.7</ele>
        <time>2021-03-21T13:05:05Z</time>
      </trkpt>
      <trkpt lat="43.1499" lon="2.23919">
        <ele>326.8</ele>
        <time>2021-03-21T13:05:06Z</time>
      </trkpt>
      <trkpt lat="43.14993" lon="2.23913">
        <ele>326.8</ele>
        <time>2021-03-21T13:05:07Z</time>
      </trkpt>
      <trkpt lat="43.14996" lon="2.23898">
        <ele>327</ele>
        <time>2021-03-21T13:05:09Z</time>
      </trkpt>
      <trkpt lat="43.14997" lon="2.23883">
        <ele>327.2</ele>
        <time>2021-03-21T13:05:11Z</time>
      </trkpt>
      <trkpt lat="43.14997" lon="2.23868">
        <ele>327.4</ele>
        <time>2021-03-21T13:05:13Z</time>
      </trkpt>
      <trkpt lat="43.14997" lon="2.23861">
        <ele>327.5</ele>
        <time>2021-03-21T13:05:14Z</time>
      </trkpt>
      <trkpt lat="43.14997" lon="2.23847">
        <ele>327.7</ele>
        <time>2021-03-21T13:05:16Z</time>
      </trkpt>
      <trkpt lat="43.14996" lon="2.23832">
        <ele>327.9</ele>
        <time>2021-03-21T13:05:18Z</time>
      </trkpt>
      <trkpt lat="43.14996" lon="2.23825">
        <ele>328</ele>
        <time>2021-03-21T13:05:19Z</time>
      </trkpt>
      <trkpt lat="43.14995" lon="2.23817">
        <ele>328.1</ele>
        <time>2021-03-21T13:05:20Z</time>
      </trkpt>
      <trkpt lat="43.14995" lon="2.2381">
        <ele>328.2</ele>
        <time>2021-03-21T13:05:21Z</time>
      </trkpt>
      <trkpt lat="43.14994" lon="2.23796">
        <ele>328.5</ele>
        <time>2021-03-21T13:05:23Z</time>
      </trkpt>
      <trkpt lat="43.14993" lon="2.23782">
        <ele>328.8</ele>
        <time>2021-03-21T13:05:25Z</time>
      </trkpt>
      <trkpt lat="43.14992" lon="2.23767">
        <ele>329</ele>
        <time>2021-03-21T13:05:27Z</time>
      </trkpt>
      <trkpt lat="43.14991" lon="2.2376">
        <ele>329.2</ele>
        <time>2021-03-21T13:05:28Z</time>
      </trkpt>
      <trkpt lat="43.14989" lon="2.23753">
        <ele>329.3</ele>
        <time>2021-03-21T13:05:29Z</time>
      </trkpt>
      <trkpt lat="43.14986" lon="2.23738">
        <ele>329.7</ele>
        <time>2021-03-21T13:05:31Z</time>
      </trkpt>
      <trkpt lat="43.14984" lon="2.23731">
        <ele>329.9</ele>
        <time>2021-03-21T13:05:32Z</time>
      </trkpt>
      <trkpt lat="43.14981" lon="2.23724">
        <ele>330.2</ele>
        <time>2021-03-21T13:05:33Z</time>
      </trkpt>
      <trkpt lat="43.14977" lon="2.23711">
        <ele>330.6</ele>
        <time>2021-03-21T13:05:35Z</time>
      </trkpt>
      <trkpt lat="43.14976" lon="2.23704">
        <ele>330.7</ele>
        <time>2021-03-21T13:05:36Z</time>
      </trkpt>
      <trkpt lat="43.14978" lon="2.2369">
        <ele>331</ele>
        <time>2021-03-21T13:05:38Z</time>
      </trkpt>
      <trkpt lat="43.14981" lon="2.23678">
        <ele>331.3</ele>
        <time>2021-03-21T13:05:40Z</time>
      </trkpt>
      <trkpt lat="43.14982" lon="2.23672">
        <ele>331.4</ele>
        <time>2021-03-21T13:05:41Z</time>
      </trkpt>
      <trkpt lat="43.14983" lon="2.23666">
        <ele>331.5</ele>
        <time>2021-03-21T13:05:42Z</time>
      </trkpt>
      <trkpt lat="43.14985" lon="2.23655">
        <ele>331.7</ele>
        <time>2021-03-21T13:05:44Z</time>
      </trkpt>
      <trkpt lat="43.14985" lon="2.23642">
        <ele>331.9</ele>
        <time>2021-03-21T13:05:46Z</time>
      </trkpt>
      <trkpt lat="43.14986" lon="2.23629">
        <ele>332.1</ele>
        <time>2021-03-21T13:05:48Z</time>
      </trkpt>
      <trkpt lat="43.14987" lon="2.23616">
        <ele>332.3</ele>
        <time>2021-03-21T13:05:50Z</time>
      </trkpt>
      <trkpt lat="43.14988" lon="2.23609">
        <ele>332.4</ele>
        <time>2021-03-21T13:05:51Z</time>
      </trkpt>
      <trkpt lat="43.14989" lon="2.23602">
        <ele>332.6</ele>
        <time>2021-03-21T13:05:52Z</time>
      </trkpt>
      <trkpt lat="43.14992" lon="2.23588">
        <ele>332.8</ele>
        <time>2021-03-21T13:05:54Z</time>
      </trkpt>
      <trkpt lat="43.14998" lon="2.23573">
        <ele>333.1</ele>
        <time>2021-03-21T13:05:56Z</time>
      </trkpt>
      <trkpt lat="43.15007" lon="2.23562">
        <ele>333.4</ele>
        <time>2021-03-21T13:05:58Z</time>
      </trkpt>
      <trkpt lat="43.15012" lon="2.23559">
        <ele>333.6</ele>
        <time>2021-03-21T13:05:59Z</time>
      </trkpt>
      <trkpt lat="43.15024" lon="2.23559">
        <ele>333.7</ele>
        <time>2021-03-21T13:06:01Z</time>
      </trkpt>
      <trkpt lat="43.15034" lon="2.23568">
        <ele>333.9</ele>
        <time>2021-03-21T13:06:03Z</time>
      </trkpt>
      <trkpt lat="43.15041" lon="2.23582">
        <ele>334.1</ele>
        <time>2021-03-21T13:06:05Z</time>
      </trkpt>
      <trkpt lat="43.15044" lon="2.23591">
        <ele>334.3</ele>
        <time>2021-03-21T13:06:06Z</time>
      </trkpt>
      <trkpt lat="43.15047" lon="2.23608">
        <ele>334.6</ele>
        <time>2021-03-21T13:06:08Z</time>
      </trkpt>
      <trkpt lat="43.15053" lon="2.23622">
        <ele>334.9</ele>
        <time>2021-03-21T13:06:10Z</time>
      </trkpt>
      <trkpt lat="43.15057" lon="2.23628">
        <ele>335</ele>
        <time>2021-03-21T13:06:11Z</time>
      </trkpt>
      <trkpt lat="43.15067" lon="2.23637">
        <ele>335.3</ele>
        <time>2021-03-21T13:06:13Z</time>
      </trkpt>
      <trkpt lat="43.15079" lon="2.23639">
        <ele>335.5</ele>
        <time>2021-03-21T13:06:15Z</time>
      </trkpt>
      <trkpt lat="43.15085" lon="2.23638">
        <ele>335.7</ele>
        <time>2021-03-21T13:06:16Z</time>
      </trkpt>
      <trkpt lat="43.15091" lon="2.23635">
        <ele>335.7</ele>
        <time>2021-03-21T13:06:17Z</time>
      </trkpt>
      <trkpt lat="43.15096" lon="2.2363">
        <ele>335.8</ele>
        <time>2021-03-21T13:06:18Z</time>
      </trkpt>
      <trkpt lat="43.151" lon="2.23623">
        <ele>335.9</ele>
        <time>2021-03-21T13:06:19Z</time>
      </trkpt>
      <trkpt lat="43.15106" lon="2.23606">
        <ele>336.2</ele>
        <time>2021-03-21T13:06:21Z</time>
      </trkpt>
      <trkpt lat="43.15107" lon="2.23589">
        <ele>336.4</ele>
        <time>2021-03-21T13:06:23Z</time>
      </trkpt>
      <trkpt lat="43.15108" lon="2.23581">
        <ele>336.5</ele>
        <time>2021-03-21T13:06:24Z</time>
      </trkpt>
      <trkpt lat="43.15107" lon="2.23566">
        <ele>336.6</ele>
        <time>2021-03-21T13:06:26Z</time>
      </trkpt>
      <trkpt lat="43.15107" lon="2.2356">
        <ele>336.7</ele>
        <time>2021-03-21T13:06:27Z</time>
      </trkpt>
      <trkpt lat="43.15107" lon="2.23547">
        <ele>336.9</ele>
        <time>2021-03-21T13:06:29Z</time>
      </trkpt>
      <trkpt lat="43.15108" lon="2.23537">
        <ele>337.1</ele>
        <time>2021-03-21T13:06:31Z</time>
      </trkpt>
      <trkpt lat="43.15108" lon="2.23532">
        <ele>337.2</ele>
        <time>2021-03-21T13:06:32Z</time>
      </trkpt>
      <trkpt lat="43.15112" lon="2.2352">
        <ele>337.4</ele>
        <time>2021-03-21T13:06:34Z</time>
      </trkpt>
      <trkpt lat="43.15115" lon="2.23514">
        <ele>337.5</ele>
        <time>2021-03-21T13:06:35Z</time>
      </trkpt>
      <trkpt lat="43.15123" lon="2.23504">
        <ele>337.7</ele>
        <time>2021-03-21T13:06:37Z</time>
      </trkpt>
      <trkpt lat="43.15126" lon="2.23499">
        <ele>337.8</ele>
        <time>2021-03-21T13:06:38Z</time>
      </trkpt>
      <trkpt lat="43.1513" lon="2.23494">
        <ele>337.9</ele>
        <time>2021-03-21T13:06:40Z</time>
      </trkpt>
      <trkpt lat="43.15144" lon="2.23495">
        <ele>338.1</ele>
        <time>2021-03-21T13:06:42Z</time>
      </trkpt>
      <trkpt lat="43.15156" lon="2.23502">
        <ele>338.4</ele>
        <time>2021-03-21T13:06:44Z</time>
      </trkpt>
      <trkpt lat="43.15163" lon="2.23507">
        <ele>338.6</ele>
        <time>2021-03-21T13:06:45Z</time>
      </trkpt>
      <trkpt lat="43.15174" lon="2.23516">
        <ele>338.9</ele>
        <time>2021-03-21T13:06:47Z</time>
      </trkpt>
      <trkpt lat="43.15181" lon="2.23519">
        <ele>339.1</ele>
        <time>2021-03-21T13:06:48Z</time>
      </trkpt>
      <trkpt lat="43.15193" lon="2.23513">
        <ele>339.4</ele>
        <time>2021-03-21T13:06:50Z</time>
      </trkpt>
      <trkpt lat="43.15199" lon="2.23497">
        <ele>339.6</ele>
        <time>2021-03-21T13:06:52Z</time>
      </trkpt>
      <trkpt lat="43.15201" lon="2.2348">
        <ele>339.9</ele>
        <time>2021-03-21T13:06:54Z</time>
      </trkpt>
      <trkpt lat="43.15201" lon="2.23472">
        <ele>340</ele>
        <time>2021-03-21T13:06:55Z</time>
      </trkpt>
      <trkpt lat="43.15201" lon="2.23456">
        <ele>340.2</ele>
        <time>2021-03-21T13:06:57Z</time>
      </trkpt>
      <trkpt lat="43.152" lon="2.23449">
        <ele>340.3</ele>
        <time>2021-03-21T13:06:58Z</time>
      </trkpt>
      <trkpt lat="43.15197" lon="2.23435">
        <ele>340.4</ele>
        <time>2021-03-21T13:07:00Z</time>
      </trkpt>
      <trkpt lat="43.15195" lon="2.23428">
        <ele>340.5</ele>
        <time>2021-03-21T13:07:01Z</time>
      </trkpt>
      <trkpt lat="43.15193" lon="2.23422">
        <ele>340.6</ele>
        <time>2021-03-21T13:07:02Z</time>
      </trkpt>
      <trkpt lat="43.15191" lon="2.23408">
        <ele>340.8</ele>
        <time>2021-03-21T13:07:04Z</time>
      </trkpt>
      <trkpt lat="43.15189" lon="2.23401">
        <ele>340.9</ele>
        <time>2021-03-21T13:07:05Z</time>
      </trkpt>
      <trkpt lat="43.15187" lon="2.23394">
        <ele>341</ele>
        <time>2021-03-21T13:07:06Z</time>
      </trkpt>
      <trkpt lat="43.15182" lon="2.23383">
        <ele>341.3</ele>
        <time>2021-03-21T13:07:08Z</time>
      </trkpt>
      <trkpt lat="43.15176" lon="2.2337">
        <ele>341.5</ele>
        <time>2021-03-21T13:07:10Z</time>
      </trkpt>
      <trkpt lat="43.15172" lon="2.23357">
        <ele>341.8</ele>
        <time>2021-03-21T13:07:12Z</time>
      </trkpt>
      <trkpt lat="43.1517" lon="2.2335">
        <ele>341.9</ele>
        <time>2021-03-21T13:07:13Z</time>
      </trkpt>
      <trkpt lat="43.15167" lon="2.23337">
        <ele>342.2</ele>
        <time>2021-03-21T13:07:15Z</time>
      </trkpt>
      <trkpt lat="43.15167" lon="2.23332">
        <ele>342.3</ele>
        <time>2021-03-21T13:07:16Z</time>
      </trkpt>
      <trkpt lat="43.15168" lon="2.23326">
        <ele>342.4</ele>
        <time>2021-03-21T13:07:17Z</time>
      </trkpt>
      <trkpt lat="43.1517" lon="2.23319">
        <ele>342.5</ele>
        <time>2021-03-21T13:07:18Z</time>
      </trkpt>
      <trkpt lat="43.1518" lon="2.2331">
        <ele>342.8</ele>
        <time>2021-03-21T13:07:20Z</time>
      </trkpt>
      <trkpt lat="43.15186" lon="2.23308">
        <ele>342.9</ele>
        <time>2021-03-21T13:07:21Z</time>
      </trkpt>
      <trkpt lat="43.15191" lon="2.23308">
        <ele>343</ele>
        <time>2021-03-21T13:07:22Z</time>
      </trkpt>
      <trkpt lat="43.15197" lon="2.2331">
        <ele>343.1</ele>
        <time>2021-03-21T13:07:23Z</time>
      </trkpt>
      <trkpt lat="43.15207" lon="2.23315">
        <ele>343.2</ele>
        <time>2021-03-21T13:07:25Z</time>
      </trkpt>
      <trkpt lat="43.15212" lon="2.23317">
        <ele>343.3</ele>
        <time>2021-03-21T13:07:26Z</time>
      </trkpt>
      <trkpt lat="43.15218" lon="2.23317">
        <ele>343.4</ele>
        <time>2021-03-21T13:07:27Z</time>
      </trkpt>
      <trkpt lat="43.15223" lon="2.23315">
        <ele>343.5</ele>
        <time>2021-03-21T13:07:28Z</time>
      </trkpt>
      <trkpt lat="43.15232" lon="2.23304">
        <ele>343.7</ele>
        <time>2021-03-21T13:07:30Z</time>
      </trkpt>
      <trkpt lat="43.15236" lon="2.23296">
        <ele>343.8</ele>
        <time>2021-03-21T13:07:31Z</time>
      </trkpt>
      <trkpt lat="43.15241" lon="2.23282">
        <ele>344</ele>
        <time>2021-03-21T13:07:33Z</time>
      </trkpt>
      <trkpt lat="43.15246" lon="2.2327">
        <ele>344.2</ele>
        <time>2021-03-21T13:07:35Z</time>
      </trkpt>
      <trkpt lat="43.15248" lon="2.23265">
        <ele>344.3</ele>
        <time>2021-03-21T13:07:36Z</time>
      </trkpt>
      <trkpt lat="43.15251" lon="2.23256">
        <ele>344.4</ele>
        <time>2021-03-21T13:07:38Z</time>
      </trkpt>
      <trkpt lat="43.15253" lon="2.23251">
        <ele>344.5</ele>
        <time>2021-03-21T13:07:39Z</time>
      </trkpt>
      <trkpt lat="43.1526" lon="2.23242">
        <ele>344.7</ele>
        <time>2021-03-21T13:07:41Z</time>
      </trkpt>
      <trkpt lat="43.15267" lon="2.23233">
        <ele>344.9</ele>
        <time>2021-03-21T13:07:43Z</time>
      </trkpt>
      <trkpt lat="43.15271" lon="2.23228">
        <ele>345</ele>
        <time>2021-03-21T13:07:44Z</time>
      </trkpt>
      <trkpt lat="43.15275" lon="2.23224">
        <ele>345.1</ele>
        <time>2021-03-21T13:07:45Z</time>
      </trkpt>
      <trkpt lat="43.15283" lon="2.23217">
        <ele>345.3</ele>
        <time>2021-03-21T13:07:47Z</time>
      </trkpt>
      <trkpt lat="43.15287" lon="2.23213">
        <ele>345.4</ele>
        <time>2021-03-21T13:07:48Z</time>
      </trkpt>
      <trkpt lat="43.15296" lon="2.23208">
        <ele>345.6</ele>
        <time>2021-03-21T13:07:50Z</time>
      </trkpt>
      <trkpt lat="43.15301" lon="2.23206">
        <ele>345.7</ele>
        <time>2021-03-21T13:07:51Z</time>
      </trkpt>
      <trkpt lat="43.15306" lon="2.23205">
        <ele>345.8</ele>
        <time>2021-03-21T13:07:52Z</time>
      </trkpt>
      <trkpt lat="43.15316" lon="2.23202">
        <ele>346</ele>
        <time>2021-03-21T13:07:54Z</time>
      </trkpt>
      <trkpt lat="43.1532" lon="2.23202">
        <ele>346.1</ele>
        <time>2021-03-21T13:07:55Z</time>
      </trkpt>
      <trkpt lat="43.15331" lon="2.23202">
        <ele>346.3</ele>
        <time>2021-03-21T13:07:57Z</time>
      </trkpt>
      <trkpt lat="43.1534" lon="2.23207">
        <ele>346.5</ele>
        <time>2021-03-21T13:07:59Z</time>
      </trkpt>
      <trkpt lat="43.15344" lon="2.23211">
        <ele>346.6</ele>
        <time>2021-03-21T13:08:00Z</time>
      </trkpt>
      <trkpt lat="43.15349" lon="2.23225">
        <ele>346.8</ele>
        <time>2021-03-21T13:08:02Z</time>
      </trkpt>
      <trkpt lat="43.1535" lon="2.23233">
        <ele>347</ele>
        <time>2021-03-21T13:08:03Z</time>
      </trkpt>
      <trkpt lat="43.1535" lon="2.2325">
        <ele>347.2</ele>
        <time>2021-03-21T13:08:05Z</time>
      </trkpt>
      <trkpt lat="43.1535" lon="2.23258">
        <ele>347.3</ele>
        <time>2021-03-21T13:08:06Z</time>
      </trkpt>
      <trkpt lat="43.15349" lon="2.23266">
        <ele>347.5</ele>
        <time>2021-03-21T13:08:07Z</time>
      </trkpt>
      <trkpt lat="43.15348" lon="2.23273">
        <ele>347.6</ele>
        <time>2021-03-21T13:08:08Z</time>
      </trkpt>
      <trkpt lat="43.15348" lon="2.23281">
        <ele>347.7</ele>
        <time>2021-03-21T13:08:09Z</time>
      </trkpt>
      <trkpt lat="43.15347" lon="2.23295">
        <ele>347.8</ele>
        <time>2021-03-21T13:08:11Z</time>
      </trkpt>
      <trkpt lat="43.15346" lon="2.23302">
        <ele>347.9</ele>
        <time>2021-03-21T13:08:12Z</time>
      </trkpt>
      <trkpt lat="43.15347" lon="2.23308">
        <ele>348</ele>
        <time>2021-03-21T13:08:13Z</time>
      </trkpt>
      <trkpt lat="43.15347" lon="2.23314">
        <ele>348.1</ele>
        <time>2021-03-21T13:08:14Z</time>
      </trkpt>
      <trkpt lat="43.15348" lon="2.23327">
        <ele>348.2</ele>
        <time>2021-03-21T13:08:16Z</time>
      </trkpt>
      <trkpt lat="43.15349" lon="2.23335">
        <ele>348.3</ele>
        <time>2021-03-21T13:08:17Z</time>
      </trkpt>
      <trkpt lat="43.15352" lon="2.23349">
        <ele>348.5</ele>
        <time>2021-03-21T13:08:19Z</time>
      </trkpt>
      <trkpt lat="43.15353" lon="2.23356">
        <ele>348.5</ele>
        <time>2021-03-21T13:08:20Z</time>
      </trkpt>
      <trkpt lat="43.15359" lon="2.23369">
        <ele>348.8</ele>
        <time>2021-03-21T13:08:22Z</time>
      </trkpt>
      <trkpt lat="43.15362" lon="2.23375">
        <ele>348.9</ele>
        <time>2021-03-21T13:08:23Z</time>
      </trkpt>
      <trkpt lat="43.1537" lon="2.23385">
        <ele>349.1</ele>
        <time>2021-03-21T13:08:25Z</time>
      </trkpt>
      <trkpt lat="43.15375" lon="2.23389">
        <ele>349.2</ele>
        <time>2021-03-21T13:08:26Z</time>
      </trkpt>
      <trkpt lat="43.15385" lon="2.23395">
        <ele>349.4</ele>
        <time>2021-03-21T13:08:28Z</time>
      </trkpt>
      <trkpt lat="43.1539" lon="2.23397">
        <ele>349.6</ele>
        <time>2021-03-21T13:08:29Z</time>
      </trkpt>
      <trkpt lat="43.15396" lon="2.23398">
        <ele>349.7</ele>
        <time>2021-03-21T13:08:30Z</time>
      </trkpt>
      <trkpt lat="43.15406" lon="2.23397">
        <ele>349.9</ele>
        <time>2021-03-21T13:08:32Z</time>
      </trkpt>
      <trkpt lat="43.15416" lon="2.23393">
        <ele>350.1</ele>
        <time>2021-03-21T13:08:34Z</time>
      </trkpt>
      <trkpt lat="43.15426" lon="2.23389">
        <ele>350.3</ele>
        <time>2021-03-21T13:08:36Z</time>
      </trkpt>
      <trkpt lat="43.15432" lon="2.23387">
        <ele>350.4</ele>
        <time>2021-03-21T13:08:37Z</time>
      </trkpt>
      <trkpt lat="43.15437" lon="2.23385">
        <ele>350.5</ele>
        <time>2021-03-21T13:08:38Z</time>
      </trkpt>
      <trkpt lat="43.15442" lon="2.23382">
        <ele>350.6</ele>
        <time>2021-03-21T13:08:39Z</time>
      </trkpt>
      <trkpt lat="43.15452" lon="2.23375">
        <ele>350.7</ele>
        <time>2021-03-21T13:08:41Z</time>
      </trkpt>
      <trkpt lat="43.15456" lon="2.2337">
        <ele>350.8</ele>
        <time>2021-03-21T13:08:42Z</time>
      </trkpt>
      <trkpt lat="43.1546" lon="2.23365">
        <ele>350.9</ele>
        <time>2021-03-21T13:08:43Z</time>
      </trkpt>
      <trkpt lat="43.15463" lon="2.2336">
        <ele>351</ele>
        <time>2021-03-21T13:08:44Z</time>
      </trkpt>
      <trkpt lat="43.1547" lon="2.23349">
        <ele>351.2</ele>
        <time>2021-03-21T13:08:46Z</time>
      </trkpt>
      <trkpt lat="43.15473" lon="2.23343">
        <ele>351.3</ele>
        <time>2021-03-21T13:08:47Z</time>
      </trkpt>
      <trkpt lat="43.15479" lon="2.2333">
        <ele>351.6</ele>
        <time>2021-03-21T13:08:49Z</time>
      </trkpt>
      <trkpt lat="43.15482" lon="2.23324">
        <ele>351.7</ele>
        <time>2021-03-21T13:08:50Z</time>
      </trkpt>
      <trkpt lat="43.15488" lon="2.23311">
        <ele>351.9</ele>
        <time>2021-03-21T13:08:52Z</time>
      </trkpt>
      <trkpt lat="43.15491" lon="2.23305">
        <ele>352.1</ele>
        <time>2021-03-21T13:08:53Z</time>
      </trkpt>
      <trkpt lat="43.15494" lon="2.23299">
        <ele>352.1</ele>
        <time>2021-03-21T13:08:54Z</time>
      </trkpt>
      <trkpt lat="43.15501" lon="2.23288">
        <ele>352.3</ele>
        <time>2021-03-21T13:08:56Z</time>
      </trkpt>
      <trkpt lat="43.15505" lon="2.23282">
        <ele>352.4</ele>
        <time>2021-03-21T13:08:57Z</time>
      </trkpt>
      <trkpt lat="43.15513" lon="2.23271">
        <ele>352.7</ele>
        <time>2021-03-21T13:08:59Z</time>
      </trkpt>
      <trkpt lat="43.15521" lon="2.23258">
        <ele>352.9</ele>
        <time>2021-03-21T13:09:01Z</time>
      </trkpt>
      <trkpt lat="43.15528" lon="2.23245">
        <ele>353.2</ele>
        <time>2021-03-21T13:09:03Z</time>
      </trkpt>
      <trkpt lat="43.15532" lon="2.23231">
        <ele>353.4</ele>
        <time>2021-03-21T13:09:05Z</time>
      </trkpt>
      <trkpt lat="43.15533" lon="2.23224">
        <ele>353.5</ele>
        <time>2021-03-21T13:09:06Z</time>
      </trkpt>
      <trkpt lat="43.15535" lon="2.23217">
        <ele>353.6</ele>
        <time>2021-03-21T13:09:07Z</time>
      </trkpt>
      <trkpt lat="43.15537" lon="2.23201">
        <ele>353.8</ele>
        <time>2021-03-21T13:09:09Z</time>
      </trkpt>
      <trkpt lat="43.15538" lon="2.23185">
        <ele>354</ele>
        <time>2021-03-21T13:09:11Z</time>
      </trkpt>
      <trkpt lat="43.15539" lon="2.23169">
        <ele>354.3</ele>
        <time>2021-03-21T13:09:13Z</time>
      </trkpt>
      <trkpt lat="43.1554" lon="2.23154">
        <ele>354.5</ele>
        <time>2021-03-21T13:09:15Z</time>
      </trkpt>
      <trkpt lat="43.1554" lon="2.23149">
        <ele>354.6</ele>
        <time>2021-03-21T13:09:16Z</time>
      </trkpt>
      <trkpt lat="43.15537" lon="2.23146">
        <ele>354.7</ele>
        <time>2021-03-21T13:09:18Z</time>
      </trkpt>
      <trkpt lat="43.15534" lon="2.23156">
        <ele>354.8</ele>
        <time>2021-03-21T13:09:20Z</time>
      </trkpt>
      <trkpt lat="43.15535" lon="2.23162">
        <ele>354.9</ele>
        <time>2021-03-21T13:09:21Z</time>
      </trkpt>
      <trkpt lat="43.15536" lon="2.23169">
        <ele>355</ele>
        <time>2021-03-21T13:09:22Z</time>
      </trkpt>
      <trkpt lat="43.15536" lon="2.23166">
        <ele>355.1</ele>
        <time>2021-03-21T13:09:23Z</time>
      </trkpt>
      <trkpt lat="43.15537" lon="2.23166">
        <ele>355.1</ele>
        <time>2021-03-21T13:09:25Z</time>
      </trkpt>
      <trkpt lat="43.15538" lon="2.23164">
        <ele>355.1</ele>
        <time>2021-03-21T13:09:26Z</time>
      </trkpt>
      <trkpt lat="43.15537" lon="2.23161">
        <ele>355.2</ele>
        <time>2021-03-21T13:09:28Z</time>
      </trkpt>
      <trkpt lat="43.15537" lon="2.23157">
        <ele>355.2</ele>
        <time>2021-03-21T13:09:29Z</time>
      </trkpt>
      <trkpt lat="43.15538" lon="2.23152">
        <ele>355.3</ele>
        <time>2021-03-21T13:09:30Z</time>
      </trkpt>
      <trkpt lat="43.15538" lon="2.23147">
        <ele>355.4</ele>
        <time>2021-03-21T13:09:31Z</time>
      </trkpt>
      <trkpt lat="43.15539" lon="2.23138">
        <ele>355.5</ele>
        <time>2021-03-21T13:09:33Z</time>
      </trkpt>
      <trkpt lat="43.1554" lon="2.2313">
        <ele>355.7</ele>
        <time>2021-03-21T13:09:34Z</time>
      </trkpt>
      <trkpt lat="43.15541" lon="2.23121">
        <ele>355.8</ele>
        <time>2021-03-21T13:09:35Z</time>
      </trkpt>
      <trkpt lat="43.15543" lon="2.23112">
        <ele>355.9</ele>
        <time>2021-03-21T13:09:36Z</time>
      </trkpt>
      <trkpt lat="43.15545" lon="2.23104">
        <ele>356</ele>
        <time>2021-03-21T13:09:37Z</time>
      </trkpt>
      <trkpt lat="43.15548" lon="2.23089">
        <ele>356.2</ele>
        <time>2021-03-21T13:09:39Z</time>
      </trkpt>
      <trkpt lat="43.1555" lon="2.23083">
        <ele>356.3</ele>
        <time>2021-03-21T13:09:40Z</time>
      </trkpt>
      <trkpt lat="43.15554" lon="2.2307">
        <ele>356.6</ele>
        <time>2021-03-21T13:09:42Z</time>
      </trkpt>
      <trkpt lat="43.15556" lon="2.23064">
        <ele>356.7</ele>
        <time>2021-03-21T13:09:43Z</time>
      </trkpt>
      <trkpt lat="43.15559" lon="2.23059">
        <ele>356.8</ele>
        <time>2021-03-21T13:09:45Z</time>
      </trkpt>
      <trkpt lat="43.15561" lon="2.23053">
        <ele>356.9</ele>
        <time>2021-03-21T13:09:46Z</time>
      </trkpt>
      <trkpt lat="43.15563" lon="2.23045">
        <ele>357.1</ele>
        <time>2021-03-21T13:09:47Z</time>
      </trkpt>
      <trkpt lat="43.15566" lon="2.23029">
        <ele>357.3</ele>
        <time>2021-03-21T13:09:49Z</time>
      </trkpt>
      <trkpt lat="43.15567" lon="2.23013">
        <ele>357.5</ele>
        <time>2021-03-21T13:09:51Z</time>
      </trkpt>
      <trkpt lat="43.15567" lon="2.23005">
        <ele>357.7</ele>
        <time>2021-03-21T13:09:52Z</time>
      </trkpt>
      <trkpt lat="43.15564" lon="2.2299">
        <ele>357.8</ele>
        <time>2021-03-21T13:09:54Z</time>
      </trkpt>
      <trkpt lat="43.15562" lon="2.22982">
        <ele>357.9</ele>
        <time>2021-03-21T13:09:55Z</time>
      </trkpt>
      <trkpt lat="43.1556" lon="2.22974">
        <ele>358</ele>
        <time>2021-03-21T13:09:56Z</time>
      </trkpt>
      <trkpt lat="43.15558" lon="2.22967">
        <ele>358.1</ele>
        <time>2021-03-21T13:09:57Z</time>
      </trkpt>
      <trkpt lat="43.15556" lon="2.22959">
        <ele>358.2</ele>
        <time>2021-03-21T13:09:58Z</time>
      </trkpt>
      <trkpt lat="43.15554" lon="2.22943">
        <ele>358.5</ele>
        <time>2021-03-21T13:10:00Z</time>
      </trkpt>
      <trkpt lat="43.15553" lon="2.22926">
        <ele>358.8</ele>
        <time>2021-03-21T13:10:02Z</time>
      </trkpt>
      <trkpt lat="43.15553" lon="2.22919">
        <ele>358.9</ele>
        <time>2021-03-21T13:10:03Z</time>
      </trkpt>
      <trkpt lat="43.15552" lon="2.22911">
        <ele>359.1</ele>
        <time>2021-03-21T13:10:04Z</time>
      </trkpt>
      <trkpt lat="43.15552" lon="2.22903">
        <ele>359.3</ele>
        <time>2021-03-21T13:10:05Z</time>
      </trkpt>
      <trkpt lat="43.15551" lon="2.22895">
        <ele>359.4</ele>
        <time>2021-03-21T13:10:06Z</time>
      </trkpt>
      <trkpt lat="43.15549" lon="2.2288">
        <ele>359.7</ele>
        <time>2021-03-21T13:10:08Z</time>
      </trkpt>
      <trkpt lat="43.15546" lon="2.22865">
        <ele>359.9</ele>
        <time>2021-03-21T13:10:10Z</time>
      </trkpt>
      <trkpt lat="43.15541" lon="2.22849">
        <ele>360.2</ele>
        <time>2021-03-21T13:10:12Z</time>
      </trkpt>
      <trkpt lat="43.15535" lon="2.22836">
        <ele>360.4</ele>
        <time>2021-03-21T13:10:14Z</time>
      </trkpt>
      <trkpt lat="43.15527" lon="2.22824">
        <ele>360.7</ele>
        <time>2021-03-21T13:10:16Z</time>
      </trkpt>
      <trkpt lat="43.15523" lon="2.22818">
        <ele>360.8</ele>
        <time>2021-03-21T13:10:17Z</time>
      </trkpt>
      <trkpt lat="43.15519" lon="2.22812">
        <ele>360.9</ele>
        <time>2021-03-21T13:10:18Z</time>
      </trkpt>
      <trkpt lat="43.15513" lon="2.22798">
        <ele>361.1</ele>
        <time>2021-03-21T13:10:20Z</time>
      </trkpt>
      <trkpt lat="43.1551" lon="2.22791">
        <ele>361.2</ele>
        <time>2021-03-21T13:10:21Z</time>
      </trkpt>
      <trkpt lat="43.15508" lon="2.22783">
        <ele>361.3</ele>
        <time>2021-03-21T13:10:22Z</time>
      </trkpt>
      <trkpt lat="43.15507" lon="2.22776">
        <ele>361.4</ele>
        <time>2021-03-21T13:10:23Z</time>
      </trkpt>
      <trkpt lat="43.15506" lon="2.22761">
        <ele>361.6</ele>
        <time>2021-03-21T13:10:25Z</time>
      </trkpt>
      <trkpt lat="43.15507" lon="2.22754">
        <ele>361.7</ele>
        <time>2021-03-21T13:10:26Z</time>
      </trkpt>
      <trkpt lat="43.15511" lon="2.22738">
        <ele>361.9</ele>
        <time>2021-03-21T13:10:28Z</time>
      </trkpt>
      <trkpt lat="43.15514" lon="2.22731">
        <ele>362</ele>
        <time>2021-03-21T13:10:29Z</time>
      </trkpt>
      <trkpt lat="43.15517" lon="2.22723">
        <ele>362.1</ele>
        <time>2021-03-21T13:10:30Z</time>
      </trkpt>
      <trkpt lat="43.15523" lon="2.22707">
        <ele>362.4</ele>
        <time>2021-03-21T13:10:32Z</time>
      </trkpt>
      <trkpt lat="43.15526" lon="2.227">
        <ele>362.5</ele>
        <time>2021-03-21T13:10:33Z</time>
      </trkpt>
      <trkpt lat="43.15529" lon="2.22692">
        <ele>362.6</ele>
        <time>2021-03-21T13:10:34Z</time>
      </trkpt>
      <trkpt lat="43.15531" lon="2.22685">
        <ele>362.8</ele>
        <time>2021-03-21T13:10:35Z</time>
      </trkpt>
      <trkpt lat="43.15536" lon="2.2267">
        <ele>363</ele>
        <time>2021-03-21T13:10:37Z</time>
      </trkpt>
      <trkpt lat="43.15539" lon="2.22655">
        <ele>363.2</ele>
        <time>2021-03-21T13:10:39Z</time>
      </trkpt>
      <trkpt lat="43.15541" lon="2.22648">
        <ele>363.4</ele>
        <time>2021-03-21T13:10:40Z</time>
      </trkpt>
      <trkpt lat="43.15544" lon="2.22634">
        <ele>363.6</ele>
        <time>2021-03-21T13:10:42Z</time>
      </trkpt>
      <trkpt lat="43.15545" lon="2.22627">
        <ele>363.7</ele>
        <time>2021-03-21T13:10:43Z</time>
      </trkpt>
      <trkpt lat="43.15544" lon="2.22612">
        <ele>363.9</ele>
        <time>2021-03-21T13:10:45Z</time>
      </trkpt>
      <trkpt lat="43.15542" lon="2.22604">
        <ele>364</ele>
        <time>2021-03-21T13:10:46Z</time>
      </trkpt>
      <trkpt lat="43.15538" lon="2.22589">
        <ele>364.2</ele>
        <time>2021-03-21T13:10:48Z</time>
      </trkpt>
      <trkpt lat="43.15533" lon="2.22575">
        <ele>364.4</ele>
        <time>2021-03-21T13:10:50Z</time>
      </trkpt>
      <trkpt lat="43.15529" lon="2.22559">
        <ele>364.6</ele>
        <time>2021-03-21T13:10:52Z</time>
      </trkpt>
      <trkpt lat="43.15529" lon="2.22552">
        <ele>364.7</ele>
        <time>2021-03-21T13:10:53Z</time>
      </trkpt>
      <trkpt lat="43.15531" lon="2.22538">
        <ele>364.9</ele>
        <time>2021-03-21T13:10:55Z</time>
      </trkpt>
      <trkpt lat="43.15537" lon="2.22525">
        <ele>365.2</ele>
        <time>2021-03-21T13:10:57Z</time>
      </trkpt>
      <trkpt lat="43.15546" lon="2.22514">
        <ele>365.5</ele>
        <time>2021-03-21T13:10:59Z</time>
      </trkpt>
      <trkpt lat="43.15554" lon="2.22502">
        <ele>365.8</ele>
        <time>2021-03-21T13:11:01Z</time>
      </trkpt>
      <trkpt lat="43.15559" lon="2.22487">
        <ele>366.1</ele>
        <time>2021-03-21T13:11:03Z</time>
      </trkpt>
      <trkpt lat="43.15558" lon="2.22471">
        <ele>366.4</ele>
        <time>2021-03-21T13:11:05Z</time>
      </trkpt>
      <trkpt lat="43.15556" lon="2.22463">
        <ele>366.6</ele>
        <time>2021-03-21T13:11:06Z</time>
      </trkpt>
      <trkpt lat="43.15553" lon="2.22455">
        <ele>366.8</ele>
        <time>2021-03-21T13:11:07Z</time>
      </trkpt>
      <trkpt lat="43.15543" lon="2.22444">
        <ele>367.1</ele>
        <time>2021-03-21T13:11:09Z</time>
      </trkpt>
      <trkpt lat="43.15531" lon="2.22438">
        <ele>367.3</ele>
        <time>2021-03-21T13:11:11Z</time>
      </trkpt>
      <trkpt lat="43.15525" lon="2.22434">
        <ele>367.4</ele>
        <time>2021-03-21T13:11:12Z</time>
      </trkpt>
      <trkpt lat="43.15516" lon="2.22423">
        <ele>367.5</ele>
        <time>2021-03-21T13:11:14Z</time>
      </trkpt>
      <trkpt lat="43.15515" lon="2.22415">
        <ele>367.6</ele>
        <time>2021-03-21T13:11:15Z</time>
      </trkpt>
      <trkpt lat="43.15519" lon="2.22398">
        <ele>367.8</ele>
        <time>2021-03-21T13:11:17Z</time>
      </trkpt>
      <trkpt lat="43.15523" lon="2.2239">
        <ele>367.9</ele>
        <time>2021-03-21T13:11:18Z</time>
      </trkpt>
      <trkpt lat="43.15531" lon="2.22375">
        <ele>368.2</ele>
        <time>2021-03-21T13:11:20Z</time>
      </trkpt>
      <trkpt lat="43.15534" lon="2.22368">
        <ele>368.3</ele>
        <time>2021-03-21T13:11:21Z</time>
      </trkpt>
      <trkpt lat="43.15537" lon="2.22361">
        <ele>368.4</ele>
        <time>2021-03-21T13:11:22Z</time>
      </trkpt>
      <trkpt lat="43.1554" lon="2.22346">
        <ele>368.7</ele>
        <time>2021-03-21T13:11:24Z</time>
      </trkpt>
      <trkpt lat="43.15543" lon="2.22339">
        <ele>368.8</ele>
        <time>2021-03-21T13:11:25Z</time>
      </trkpt>
      <trkpt lat="43.15548" lon="2.22325">
        <ele>369.1</ele>
        <time>2021-03-21T13:11:27Z</time>
      </trkpt>
      <trkpt lat="43.15552" lon="2.22318">
        <ele>369.2</ele>
        <time>2021-03-21T13:11:28Z</time>
      </trkpt>
      <trkpt lat="43.1556" lon="2.22306">
        <ele>369.6</ele>
        <time>2021-03-21T13:11:30Z</time>
      </trkpt>
      <trkpt lat="43.15565" lon="2.22291">
        <ele>369.8</ele>
        <time>2021-03-21T13:11:32Z</time>
      </trkpt>
      <trkpt lat="43.15567" lon="2.22283">
        <ele>370</ele>
        <time>2021-03-21T13:11:33Z</time>
      </trkpt>
      <trkpt lat="43.15568" lon="2.22267">
        <ele>370.2</ele>
        <time>2021-03-21T13:11:35Z</time>
      </trkpt>
      <trkpt lat="43.15568" lon="2.22253">
        <ele>370.4</ele>
        <time>2021-03-21T13:11:37Z</time>
      </trkpt>
      <trkpt lat="43.15568" lon="2.22245">
        <ele>370.5</ele>
        <time>2021-03-21T13:11:38Z</time>
      </trkpt>
      <trkpt lat="43.15568" lon="2.22237">
        <ele>370.6</ele>
        <time>2021-03-21T13:11:39Z</time>
      </trkpt>
      <trkpt lat="43.15569" lon="2.22231">
        <ele>370.7</ele>
        <time>2021-03-21T13:11:40Z</time>
      </trkpt>
      <trkpt lat="43.15574" lon="2.22219">
        <ele>370.9</ele>
        <time>2021-03-21T13:11:42Z</time>
      </trkpt>
      <trkpt lat="43.15579" lon="2.22213">
        <ele>371</ele>
        <time>2021-03-21T13:11:43Z</time>
      </trkpt>
      <trkpt lat="43.15589" lon="2.22206">
        <ele>371.2</ele>
        <time>2021-03-21T13:11:45Z</time>
      </trkpt>
      <trkpt lat="43.15595" lon="2.22203">
        <ele>371.4</ele>
        <time>2021-03-21T13:11:46Z</time>
      </trkpt>
      <trkpt lat="43.15607" lon="2.22198">
        <ele>371.6</ele>
        <time>2021-03-21T13:11:48Z</time>
      </trkpt>
      <trkpt lat="43.15618" lon="2.22189">
        <ele>371.9</ele>
        <time>2021-03-21T13:11:50Z</time>
      </trkpt>
      <trkpt lat="43.15622" lon="2.22183">
        <ele>372</ele>
        <time>2021-03-21T13:11:51Z</time>
      </trkpt>
      <trkpt lat="43.15626" lon="2.22176">
        <ele>372.1</ele>
        <time>2021-03-21T13:11:52Z</time>
      </trkpt>
      <trkpt lat="43.15628" lon="2.22168">
        <ele>372.2</ele>
        <time>2021-03-21T13:11:53Z</time>
      </trkpt>
      <trkpt lat="43.15634" lon="2.22154">
        <ele>372.4</ele>
        <time>2021-03-21T13:11:55Z</time>
      </trkpt>
      <trkpt lat="43.1564" lon="2.22139">
        <ele>372.6</ele>
        <time>2021-03-21T13:11:57Z</time>
      </trkpt>
      <trkpt lat="43.15647" lon="2.22126">
        <ele>372.9</ele>
        <time>2021-03-21T13:11:59Z</time>
      </trkpt>
      <trkpt lat="43.15653" lon="2.22113">
        <ele>373.1</ele>
        <time>2021-03-21T13:12:01Z</time>
      </trkpt>
      <trkpt lat="43.15656" lon="2.22107">
        <ele>373.3</ele>
        <time>2021-03-21T13:12:02Z</time>
      </trkpt>
      <trkpt lat="43.15658" lon="2.221">
        <ele>373.4</ele>
        <time>2021-03-21T13:12:03Z</time>
      </trkpt>
      <trkpt lat="43.15663" lon="2.22085">
        <ele>373.6</ele>
        <time>2021-03-21T13:12:05Z</time>
      </trkpt>
      <trkpt lat="43.15666" lon="2.22078">
        <ele>373.8</ele>
        <time>2021-03-21T13:12:06Z</time>
      </trkpt>
      <trkpt lat="43.15669" lon="2.22071">
        <ele>373.9</ele>
        <time>2021-03-21T13:12:07Z</time>
      </trkpt>
      <trkpt lat="43.15675" lon="2.22057">
        <ele>374.1</ele>
        <time>2021-03-21T13:12:09Z</time>
      </trkpt>
      <trkpt lat="43.15681" lon="2.22045">
        <ele>374.4</ele>
        <time>2021-03-21T13:12:11Z</time>
      </trkpt>
      <trkpt lat="43.15685" lon="2.22039">
        <ele>374.5</ele>
        <time>2021-03-21T13:12:12Z</time>
      </trkpt>
      <trkpt lat="43.15688" lon="2.22033">
        <ele>374.7</ele>
        <time>2021-03-21T13:12:13Z</time>
      </trkpt>
      <trkpt lat="43.15694" lon="2.2202">
        <ele>375</ele>
        <time>2021-03-21T13:12:15Z</time>
      </trkpt>
      <trkpt lat="43.15697" lon="2.22013">
        <ele>375.1</ele>
        <time>2021-03-21T13:12:16Z</time>
      </trkpt>
      <trkpt lat="43.157" lon="2.22006">
        <ele>375.2</ele>
        <time>2021-03-21T13:12:17Z</time>
      </trkpt>
      <trkpt lat="43.15704" lon="2.21992">
        <ele>375.5</ele>
        <time>2021-03-21T13:12:19Z</time>
      </trkpt>
      <trkpt lat="43.15706" lon="2.21984">
        <ele>375.6</ele>
        <time>2021-03-21T13:12:20Z</time>
      </trkpt>
      <trkpt lat="43.15708" lon="2.21969">
        <ele>375.7</ele>
        <time>2021-03-21T13:12:22Z</time>
      </trkpt>
      <trkpt lat="43.15709" lon="2.21961">
        <ele>375.8</ele>
        <time>2021-03-21T13:12:23Z</time>
      </trkpt>
      <trkpt lat="43.15709" lon="2.21953">
        <ele>375.9</ele>
        <time>2021-03-21T13:12:24Z</time>
      </trkpt>
      <trkpt lat="43.1571" lon="2.21938">
        <ele>376</ele>
        <time>2021-03-21T13:12:26Z</time>
      </trkpt>
      <trkpt lat="43.15711" lon="2.21923">
        <ele>376.2</ele>
        <time>2021-03-21T13:12:28Z</time>
      </trkpt>
      <trkpt lat="43.15712" lon="2.21909">
        <ele>376.3</ele>
        <time>2021-03-21T13:12:30Z</time>
      </trkpt>
      <trkpt lat="43.15713" lon="2.21901">
        <ele>376.4</ele>
        <time>2021-03-21T13:12:31Z</time>
      </trkpt>
      <trkpt lat="43.15714" lon="2.21894">
        <ele>376.5</ele>
        <time>2021-03-21T13:12:32Z</time>
      </trkpt>
      <trkpt lat="43.15716" lon="2.21879">
        <ele>376.6</ele>
        <time>2021-03-21T13:12:34Z</time>
      </trkpt>
      <trkpt lat="43.15717" lon="2.21863">
        <ele>376.8</ele>
        <time>2021-03-21T13:12:36Z</time>
      </trkpt>
      <trkpt lat="43.15717" lon="2.21856">
        <ele>376.9</ele>
        <time>2021-03-21T13:12:37Z</time>
      </trkpt>
      <trkpt lat="43.15718" lon="2.21848">
        <ele>377</ele>
        <time>2021-03-21T13:12:38Z</time>
      </trkpt>
      <trkpt lat="43.1572" lon="2.21834">
        <ele>377.1</ele>
        <time>2021-03-21T13:12:40Z</time>
      </trkpt>
      <trkpt lat="43.15722" lon="2.21818">
        <ele>377.3</ele>
        <time>2021-03-21T13:12:42Z</time>
      </trkpt>
      <trkpt lat="43.15722" lon="2.21809">
        <ele>377.4</ele>
        <time>2021-03-21T13:12:43Z</time>
      </trkpt>
      <trkpt lat="43.15723" lon="2.21801">
        <ele>377.5</ele>
        <time>2021-03-21T13:12:44Z</time>
      </trkpt>
      <trkpt lat="43.15725" lon="2.21785">
        <ele>377.8</ele>
        <time>2021-03-21T13:12:46Z</time>
      </trkpt>
      <trkpt lat="43.15725" lon="2.21777">
        <ele>378</ele>
        <time>2021-03-21T13:12:47Z</time>
      </trkpt>
      <trkpt lat="43.15726" lon="2.21762">
        <ele>378.3</ele>
        <time>2021-03-21T13:12:49Z</time>
      </trkpt>
      <trkpt lat="43.15727" lon="2.21755">
        <ele>378.5</ele>
        <time>2021-03-21T13:12:50Z</time>
      </trkpt>
      <trkpt lat="43.15728" lon="2.21739">
        <ele>378.9</ele>
        <time>2021-03-21T13:12:52Z</time>
      </trkpt>
      <trkpt lat="43.15729" lon="2.21731">
        <ele>379.1</ele>
        <time>2021-03-21T13:12:53Z</time>
      </trkpt>
      <trkpt lat="43.15732" lon="2.21717">
        <ele>379.4</ele>
        <time>2021-03-21T13:12:55Z</time>
      </trkpt>
      <trkpt lat="43.15736" lon="2.21707">
        <ele>379.8</ele>
        <time>2021-03-21T13:12:57Z</time>
      </trkpt>
      <trkpt lat="43.15738" lon="2.21701">
        <ele>380.1</ele>
        <time>2021-03-21T13:12:58Z</time>
      </trkpt>
      <trkpt lat="43.15744" lon="2.2169">
        <ele>380.6</ele>
        <time>2021-03-21T13:13:00Z</time>
      </trkpt>
      <trkpt lat="43.15748" lon="2.21676">
        <ele>381.2</ele>
        <time>2021-03-21T13:13:02Z</time>
      </trkpt>
      <trkpt lat="43.15749" lon="2.2167">
        <ele>381.5</ele>
        <time>2021-03-21T13:13:03Z</time>
      </trkpt>
      <trkpt lat="43.1575" lon="2.21656">
        <ele>382.1</ele>
        <time>2021-03-21T13:13:05Z</time>
      </trkpt>
      <trkpt lat="43.1575" lon="2.2165">
        <ele>382.3</ele>
        <time>2021-03-21T13:13:06Z</time>
      </trkpt>
      <trkpt lat="43.1575" lon="2.21644">
        <ele>382.6</ele>
        <time>2021-03-21T13:13:07Z</time>
      </trkpt>
      <trkpt lat="43.15749" lon="2.21632">
        <ele>383.1</ele>
        <time>2021-03-21T13:13:09Z</time>
      </trkpt>
      <trkpt lat="43.15749" lon="2.2162">
        <ele>383.7</ele>
        <time>2021-03-21T13:13:11Z</time>
      </trkpt>
      <trkpt lat="43.15749" lon="2.21615">
        <ele>383.9</ele>
        <time>2021-03-21T13:13:12Z</time>
      </trkpt>
      <trkpt lat="43.15744" lon="2.21608">
        <ele>384.4</ele>
        <time>2021-03-21T13:13:14Z</time>
      </trkpt>
      <trkpt lat="43.15744" lon="2.21602">
        <ele>384.6</ele>
        <time>2021-03-21T13:13:15Z</time>
      </trkpt>
      <trkpt lat="43.15746" lon="2.21595">
        <ele>385</ele>
        <time>2021-03-21T13:13:16Z</time>
      </trkpt>
      <trkpt lat="43.15747" lon="2.2159">
        <ele>385.2</ele>
        <time>2021-03-21T13:13:17Z</time>
      </trkpt>
      <trkpt lat="43.1575" lon="2.21582">
        <ele>385.7</ele>
        <time>2021-03-21T13:13:19Z</time>
      </trkpt>
      <trkpt lat="43.15754" lon="2.21575">
        <ele>386</ele>
        <time>2021-03-21T13:13:20Z</time>
      </trkpt>
      <trkpt lat="43.15756" lon="2.21572">
        <ele>386.2</ele>
        <time>2021-03-21T13:13:21Z</time>
      </trkpt>
      <trkpt lat="43.15757" lon="2.21568">
        <ele>386.4</ele>
        <time>2021-03-21T13:13:22Z</time>
      </trkpt>
      <trkpt lat="43.15757" lon="2.21562">
        <ele>386.7</ele>
        <time>2021-03-21T13:13:24Z</time>
      </trkpt>
      <trkpt lat="43.15758" lon="2.21554">
        <ele>387</ele>
        <time>2021-03-21T13:13:25Z</time>
      </trkpt>
      <trkpt lat="43.15758" lon="2.21549">
        <ele>387.2</ele>
        <time>2021-03-21T13:13:26Z</time>
      </trkpt>
      <trkpt lat="43.15758" lon="2.21541">
        <ele>387.6</ele>
        <time>2021-03-21T13:13:27Z</time>
      </trkpt>
      <trkpt lat="43.15758" lon="2.21521">
        <ele>388.4</ele>
        <time>2021-03-21T13:13:29Z</time>
      </trkpt>
      <trkpt lat="43.1576" lon="2.21517">
        <ele>388.5</ele>
        <time>2021-03-21T13:13:31Z</time>
      </trkpt>
      <trkpt lat="43.15761" lon="2.21515">
        <ele>388.6</ele>
        <time>2021-03-21T13:13:32Z</time>
      </trkpt>
      <trkpt lat="43.15761" lon="2.21513">
        <ele>388.8</ele>
        <time>2021-03-21T13:13:33Z</time>
      </trkpt>
      <trkpt lat="43.15764" lon="2.21505">
        <ele>389.2</ele>
        <time>2021-03-21T13:13:34Z</time>
      </trkpt>
      <trkpt lat="43.15768" lon="2.21492">
        <ele>389.8</ele>
        <time>2021-03-21T13:13:36Z</time>
      </trkpt>
      <trkpt lat="43.15774" lon="2.21483">
        <ele>390.5</ele>
        <time>2021-03-21T13:13:37Z</time>
      </trkpt>
      <trkpt lat="43.15778" lon="2.21479">
        <ele>390.9</ele>
        <time>2021-03-21T13:13:39Z</time>
      </trkpt>
      <trkpt lat="43.15781" lon="2.21476">
        <ele>391.1</ele>
        <time>2021-03-21T13:13:40Z</time>
      </trkpt>
      <trkpt lat="43.15783" lon="2.21474">
        <ele>391.3</ele>
        <time>2021-03-21T13:13:41Z</time>
      </trkpt>
      <trkpt lat="43.15788" lon="2.2147">
        <ele>391.7</ele>
        <time>2021-03-21T13:13:43Z</time>
      </trkpt>
      <trkpt lat="43.15791" lon="2.21468">
        <ele>391.9</ele>
        <time>2021-03-21T13:13:44Z</time>
      </trkpt>
      <trkpt lat="43.15793" lon="2.21467">
        <ele>392</ele>
        <time>2021-03-21T13:13:45Z</time>
      </trkpt>
      <trkpt lat="43.15797" lon="2.21466">
        <ele>392.3</ele>
        <time>2021-03-21T13:13:46Z</time>
      </trkpt>
      <trkpt lat="43.15804" lon="2.21466">
        <ele>392.7</ele>
        <time>2021-03-21T13:13:48Z</time>
      </trkpt>
      <trkpt lat="43.15808" lon="2.21467">
        <ele>392.9</ele>
        <time>2021-03-21T13:13:49Z</time>
      </trkpt>
      <trkpt lat="43.15811" lon="2.21468">
        <ele>393.1</ele>
        <time>2021-03-21T13:13:50Z</time>
      </trkpt>
      <trkpt lat="43.15819" lon="2.21471">
        <ele>393.6</ele>
        <time>2021-03-21T13:13:52Z</time>
      </trkpt>
      <trkpt lat="43.15823" lon="2.21471">
        <ele>393.9</ele>
        <time>2021-03-21T13:13:53Z</time>
      </trkpt>
      <trkpt lat="43.15827" lon="2.2147">
        <ele>394.2</ele>
        <time>2021-03-21T13:13:54Z</time>
      </trkpt>
      <trkpt lat="43.15833" lon="2.21468">
        <ele>394.5</ele>
        <time>2021-03-21T13:13:56Z</time>
      </trkpt>
      <trkpt lat="43.15841" lon="2.2146">
        <ele>395.1</ele>
        <time>2021-03-21T13:13:57Z</time>
      </trkpt>
      <trkpt lat="43.15844" lon="2.21456">
        <ele>395.3</ele>
        <time>2021-03-21T13:13:58Z</time>
      </trkpt>
      <trkpt lat="43.15849" lon="2.21448">
        <ele>395.8</ele>
        <time>2021-03-21T13:14:00Z</time>
      </trkpt>
      <trkpt lat="43.15855" lon="2.21439">
        <ele>396.3</ele>
        <time>2021-03-21T13:14:02Z</time>
      </trkpt>
      <trkpt lat="43.15858" lon="2.21435">
        <ele>396.5</ele>
        <time>2021-03-21T13:14:03Z</time>
      </trkpt>
      <trkpt lat="43.15862" lon="2.2143">
        <ele>396.9</ele>
        <time>2021-03-21T13:14:04Z</time>
      </trkpt>
      <trkpt lat="43.15866" lon="2.21425">
        <ele>397.2</ele>
        <time>2021-03-21T13:14:05Z</time>
      </trkpt>
      <trkpt lat="43.1587" lon="2.2142">
        <ele>397.4</ele>
        <time>2021-03-21T13:14:06Z</time>
      </trkpt>
      <trkpt lat="43.15874" lon="2.21414">
        <ele>397.8</ele>
        <time>2021-03-21T13:14:07Z</time>
      </trkpt>
      <trkpt lat="43.15877" lon="2.21411">
        <ele>398</ele>
        <time>2021-03-21T13:14:08Z</time>
      </trkpt>
      <trkpt lat="43.15879" lon="2.21407">
        <ele>398.2</ele>
        <time>2021-03-21T13:14:09Z</time>
      </trkpt>
      <trkpt lat="43.15882" lon="2.21401">
        <ele>398.5</ele>
        <time>2021-03-21T13:14:11Z</time>
      </trkpt>
      <trkpt lat="43.15886" lon="2.21393">
        <ele>398.9</ele>
        <time>2021-03-21T13:14:12Z</time>
      </trkpt>
      <trkpt lat="43.15888" lon="2.21387">
        <ele>399.1</ele>
        <time>2021-03-21T13:14:13Z</time>
      </trkpt>
      <trkpt lat="43.1589" lon="2.21383">
        <ele>399.3</ele>
        <time>2021-03-21T13:14:14Z</time>
      </trkpt>
      <trkpt lat="43.15892" lon="2.21374">
        <ele>399.7</ele>
        <time>2021-03-21T13:14:16Z</time>
      </trkpt>
      <trkpt lat="43.15893" lon="2.21365">
        <ele>400.1</ele>
        <time>2021-03-21T13:14:17Z</time>
      </trkpt>
      <trkpt lat="43.15893" lon="2.21358">
        <ele>400.4</ele>
        <time>2021-03-21T13:14:19Z</time>
      </trkpt>
      <trkpt lat="43.15893" lon="2.21352">
        <ele>400.7</ele>
        <time>2021-03-21T13:14:20Z</time>
      </trkpt>
      <trkpt lat="43.15889" lon="2.21339">
        <ele>401.3</ele>
        <time>2021-03-21T13:14:22Z</time>
      </trkpt>
      <trkpt lat="43.15885" lon="2.21333">
        <ele>401.6</ele>
        <time>2021-03-21T13:14:24Z</time>
      </trkpt>
      <trkpt lat="43.15882" lon="2.21328">
        <ele>401.9</ele>
        <time>2021-03-21T13:14:25Z</time>
      </trkpt>
      <trkpt lat="43.1588" lon="2.21324">
        <ele>402.1</ele>
        <time>2021-03-21T13:14:26Z</time>
      </trkpt>
      <trkpt lat="43.15876" lon="2.21319">
        <ele>402.5</ele>
        <time>2021-03-21T13:14:27Z</time>
      </trkpt>
      <trkpt lat="43.1587" lon="2.21313">
        <ele>403</ele>
        <time>2021-03-21T13:14:29Z</time>
      </trkpt>
      <trkpt lat="43.15867" lon="2.21309">
        <ele>403.2</ele>
        <time>2021-03-21T13:14:31Z</time>
      </trkpt>
      <trkpt lat="43.15862" lon="2.21302">
        <ele>403.6</ele>
        <time>2021-03-21T13:14:32Z</time>
      </trkpt>
      <trkpt lat="43.15859" lon="2.21297">
        <ele>403.9</ele>
        <time>2021-03-21T13:14:33Z</time>
      </trkpt>
      <trkpt lat="43.15856" lon="2.21292">
        <ele>404.2</ele>
        <time>2021-03-21T13:14:35Z</time>
      </trkpt>
      <trkpt lat="43.15854" lon="2.21288">
        <ele>404.4</ele>
        <time>2021-03-21T13:14:36Z</time>
      </trkpt>
      <trkpt lat="43.15851" lon="2.21281">
        <ele>404.8</ele>
        <time>2021-03-21T13:14:37Z</time>
      </trkpt>
      <trkpt lat="43.15849" lon="2.21278">
        <ele>405</ele>
        <time>2021-03-21T13:14:38Z</time>
      </trkpt>
      <trkpt lat="43.15848" lon="2.21272">
        <ele>405.2</ele>
        <time>2021-03-21T13:14:39Z</time>
      </trkpt>
      <trkpt lat="43.15847" lon="2.21257">
        <ele>405.9</ele>
        <time>2021-03-21T13:14:41Z</time>
      </trkpt>
      <trkpt lat="43.15848" lon="2.2125">
        <ele>406.2</ele>
        <time>2021-03-21T13:14:42Z</time>
      </trkpt>
      <trkpt lat="43.1585" lon="2.21243">
        <ele>406.5</ele>
        <time>2021-03-21T13:14:43Z</time>
      </trkpt>
      <trkpt lat="43.1585" lon="2.21238">
        <ele>406.8</ele>
        <time>2021-03-21T13:14:44Z</time>
      </trkpt>
      <trkpt lat="43.15853" lon="2.21229">
        <ele>407.2</ele>
        <time>2021-03-21T13:14:46Z</time>
      </trkpt>
      <trkpt lat="43.15854" lon="2.21224">
        <ele>407.4</ele>
        <time>2021-03-21T13:14:47Z</time>
      </trkpt>
      <trkpt lat="43.15854" lon="2.21222">
        <ele>407.5</ele>
        <time>2021-03-21T13:14:48Z</time>
      </trkpt>
      <trkpt lat="43.15855" lon="2.21216">
        <ele>407.8</ele>
        <time>2021-03-21T13:14:49Z</time>
      </trkpt>
      <trkpt lat="43.15856" lon="2.21209">
        <ele>408.1</ele>
        <time>2021-03-21T13:14:50Z</time>
      </trkpt>
      <trkpt lat="43.15857" lon="2.21197">
        <ele>408.6</ele>
        <time>2021-03-21T13:14:51Z</time>
      </trkpt>
      <trkpt lat="43.15857" lon="2.21182">
        <ele>409.3</ele>
        <time>2021-03-21T13:14:53Z</time>
      </trkpt>
      <trkpt lat="43.15857" lon="2.21173">
        <ele>409.7</ele>
        <time>2021-03-21T13:14:55Z</time>
      </trkpt>
      <trkpt lat="43.15858" lon="2.21164">
        <ele>410.1</ele>
        <time>2021-03-21T13:14:56Z</time>
      </trkpt>
      <trkpt lat="43.15863" lon="2.2116">
        <ele>410.5</ele>
        <time>2021-03-21T13:14:57Z</time>
      </trkpt>
      <trkpt lat="43.15869" lon="2.21157">
        <ele>410.9</ele>
        <time>2021-03-21T13:14:58Z</time>
      </trkpt>
      <trkpt lat="43.1588" lon="2.21153">
        <ele>411.6</ele>
        <time>2021-03-21T13:15:00Z</time>
      </trkpt>
      <trkpt lat="43.1589" lon="2.21149">
        <ele>412.2</ele>
        <time>2021-03-21T13:15:02Z</time>
      </trkpt>
      <trkpt lat="43.15895" lon="2.21147">
        <ele>412.5</ele>
        <time>2021-03-21T13:15:03Z</time>
      </trkpt>
      <trkpt lat="43.15899" lon="2.21143">
        <ele>412.8</ele>
        <time>2021-03-21T13:15:04Z</time>
      </trkpt>
      <trkpt lat="43.15907" lon="2.21134">
        <ele>413.3</ele>
        <time>2021-03-21T13:15:06Z</time>
      </trkpt>
      <trkpt lat="43.1591" lon="2.21129">
        <ele>413.6</ele>
        <time>2021-03-21T13:15:07Z</time>
      </trkpt>
      <trkpt lat="43.15917" lon="2.21118">
        <ele>414.3</ele>
        <time>2021-03-21T13:15:09Z</time>
      </trkpt>
      <trkpt lat="43.1592" lon="2.21113">
        <ele>414.7</ele>
        <time>2021-03-21T13:15:10Z</time>
      </trkpt>
      <trkpt lat="43.15922" lon="2.21108">
        <ele>415</ele>
        <time>2021-03-21T13:15:11Z</time>
      </trkpt>
      <trkpt lat="43.15928" lon="2.21102">
        <ele>414.9</ele>
        <time>2021-03-21T13:15:13Z</time>
      </trkpt>
      <trkpt lat="43.15934" lon="2.21101">
        <ele>414.7</ele>
        <time>2021-03-21T13:15:14Z</time>
      </trkpt>
      <trkpt lat="43.15948" lon="2.21105">
        <ele>414.3</ele>
        <time>2021-03-21T13:15:16Z</time>
      </trkpt>
      <trkpt lat="43.15962" lon="2.21112">
        <ele>414</ele>
        <time>2021-03-21T13:15:18Z</time>
      </trkpt>
      <trkpt lat="43.15976" lon="2.21117">
        <ele>413.6</ele>
        <time>2021-03-21T13:15:20Z</time>
      </trkpt>
      <trkpt lat="43.15982" lon="2.21117">
        <ele>413.5</ele>
        <time>2021-03-21T13:15:21Z</time>
      </trkpt>
      <trkpt lat="43.15988" lon="2.21115">
        <ele>413.3</ele>
        <time>2021-03-21T13:15:22Z</time>
      </trkpt>
      <trkpt lat="43.15995" lon="2.21112">
        <ele>413.2</ele>
        <time>2021-03-21T13:15:23Z</time>
      </trkpt>
      <trkpt lat="43.16007" lon="2.21103">
        <ele>412.8</ele>
        <time>2021-03-21T13:15:25Z</time>
      </trkpt>
      <trkpt lat="43.16017" lon="2.21091">
        <ele>412.4</ele>
        <time>2021-03-21T13:15:27Z</time>
      </trkpt>
      <trkpt lat="43.16027" lon="2.21078">
        <ele>412.1</ele>
        <time>2021-03-21T13:15:29Z</time>
      </trkpt>
      <trkpt lat="43.16038" lon="2.21066">
        <ele>411.7</ele>
        <time>2021-03-21T13:15:31Z</time>
      </trkpt>
      <trkpt lat="43.16049" lon="2.21054">
        <ele>411.3</ele>
        <time>2021-03-21T13:15:33Z</time>
      </trkpt>
      <trkpt lat="43.16061" lon="2.21041">
        <ele>410.9</ele>
        <time>2021-03-21T13:15:35Z</time>
      </trkpt>
      <trkpt lat="43.16067" lon="2.21035">
        <ele>410.7</ele>
        <time>2021-03-21T13:15:36Z</time>
      </trkpt>
      <trkpt lat="43.16078" lon="2.21022">
        <ele>410.3</ele>
        <time>2021-03-21T13:15:38Z</time>
      </trkpt>
      <trkpt lat="43.16084" lon="2.21015">
        <ele>410.2</ele>
        <time>2021-03-21T13:15:39Z</time>
      </trkpt>
      <trkpt lat="43.16096" lon="2.21005">
        <ele>410</ele>
        <time>2021-03-21T13:15:41Z</time>
      </trkpt>
      <trkpt lat="43.16102" lon="2.21001">
        <ele>409.8</ele>
        <time>2021-03-21T13:15:42Z</time>
      </trkpt>
      <trkpt lat="43.16109" lon="2.21">
        <ele>409.6</ele>
        <time>2021-03-21T13:15:43Z</time>
      </trkpt>
      <trkpt lat="43.16116" lon="2.21">
        <ele>409.4</ele>
        <time>2021-03-21T13:15:44Z</time>
      </trkpt>
      <trkpt lat="43.16124" lon="2.21001">
        <ele>409.1</ele>
        <time>2021-03-21T13:15:45Z</time>
      </trkpt>
      <trkpt lat="43.16138" lon="2.21012">
        <ele>408.6</ele>
        <time>2021-03-21T13:15:47Z</time>
      </trkpt>
      <trkpt lat="43.16148" lon="2.2103">
        <ele>408.1</ele>
        <time>2021-03-21T13:15:49Z</time>
      </trkpt>
      <trkpt lat="43.16155" lon="2.21052">
        <ele>407.6</ele>
        <time>2021-03-21T13:15:51Z</time>
      </trkpt>
      <trkpt lat="43.16158" lon="2.21063">
        <ele>407.4</ele>
        <time>2021-03-21T13:15:52Z</time>
      </trkpt>
      <trkpt lat="43.16162" lon="2.21072">
        <ele>407.1</ele>
        <time>2021-03-21T13:15:53Z</time>
      </trkpt>
      <trkpt lat="43.1617" lon="2.21091">
        <ele>406.6</ele>
        <time>2021-03-21T13:15:55Z</time>
      </trkpt>
      <trkpt lat="43.16178" lon="2.2111">
        <ele>406.1</ele>
        <time>2021-03-21T13:15:57Z</time>
      </trkpt>
      <trkpt lat="43.16188" lon="2.2113">
        <ele>405.7</ele>
        <time>2021-03-21T13:15:59Z</time>
      </trkpt>
      <trkpt lat="43.16192" lon="2.2114">
        <ele>405.4</ele>
        <time>2021-03-21T13:16:00Z</time>
      </trkpt>
      <trkpt lat="43.16197" lon="2.2115">
        <ele>405.2</ele>
        <time>2021-03-21T13:16:01Z</time>
      </trkpt>
      <trkpt lat="43.16206" lon="2.21171">
        <ele>404.8</ele>
        <time>2021-03-21T13:16:03Z</time>
      </trkpt>
      <trkpt lat="43.1621" lon="2.21182">
        <ele>404.6</ele>
        <time>2021-03-21T13:16:04Z</time>
      </trkpt>
      <trkpt lat="43.1622" lon="2.21202">
        <ele>404</ele>
        <time>2021-03-21T13:16:06Z</time>
      </trkpt>
      <trkpt lat="43.16226" lon="2.21212">
        <ele>403.7</ele>
        <time>2021-03-21T13:16:07Z</time>
      </trkpt>
      <trkpt lat="43.16232" lon="2.21221">
        <ele>403.4</ele>
        <time>2021-03-21T13:16:08Z</time>
      </trkpt>
      <trkpt lat="43.16245" lon="2.21239">
        <ele>402.8</ele>
        <time>2021-03-21T13:16:10Z</time>
      </trkpt>
      <trkpt lat="43.1625" lon="2.21249">
        <ele>402.5</ele>
        <time>2021-03-21T13:16:11Z</time>
      </trkpt>
      <trkpt lat="43.16254" lon="2.2126">
        <ele>402.1</ele>
        <time>2021-03-21T13:16:12Z</time>
      </trkpt>
      <trkpt lat="43.16256" lon="2.21286">
        <ele>401.2</ele>
        <time>2021-03-21T13:16:14Z</time>
      </trkpt>
      <trkpt lat="43.16257" lon="2.21302">
        <ele>400.7</ele>
        <time>2021-03-21T13:16:15Z</time>
      </trkpt>
      <trkpt lat="43.16261" lon="2.21314">
        <ele>400.2</ele>
        <time>2021-03-21T13:16:16Z</time>
      </trkpt>
      <trkpt lat="43.16268" lon="2.21323">
        <ele>399.8</ele>
        <time>2021-03-21T13:16:17Z</time>
      </trkpt>
      <trkpt lat="43.16288" lon="2.21324">
        <ele>398.9</ele>
        <time>2021-03-21T13:16:19Z</time>
      </trkpt>
      <trkpt lat="43.16298" lon="2.21317">
        <ele>398.4</ele>
        <time>2021-03-21T13:16:20Z</time>
      </trkpt>
      <trkpt lat="43.16306" lon="2.21307">
        <ele>397.9</ele>
        <time>2021-03-21T13:16:21Z</time>
      </trkpt>
      <trkpt lat="43.16312" lon="2.21295">
        <ele>397.4</ele>
        <time>2021-03-21T13:16:22Z</time>
      </trkpt>
      <trkpt lat="43.16317" lon="2.21282">
        <ele>396.8</ele>
        <time>2021-03-21T13:16:23Z</time>
      </trkpt>
      <trkpt lat="43.16326" lon="2.21258">
        <ele>395.8</ele>
        <time>2021-03-21T13:16:25Z</time>
      </trkpt>
      <trkpt lat="43.16331" lon="2.21246">
        <ele>395.4</ele>
        <time>2021-03-21T13:16:26Z</time>
      </trkpt>
      <trkpt lat="43.16345" lon="2.21226">
        <ele>394.5</ele>
        <time>2021-03-21T13:16:28Z</time>
      </trkpt>
      <trkpt lat="43.16355" lon="2.21219">
        <ele>394</ele>
        <time>2021-03-21T13:16:29Z</time>
      </trkpt>
      <trkpt lat="43.16374" lon="2.21218">
        <ele>393.2</ele>
        <time>2021-03-21T13:16:31Z</time>
      </trkpt>
      <trkpt lat="43.16393" lon="2.21222">
        <ele>392.2</ele>
        <time>2021-03-21T13:16:33Z</time>
      </trkpt>
      <trkpt lat="43.16413" lon="2.21227">
        <ele>391.2</ele>
        <time>2021-03-21T13:16:35Z</time>
      </trkpt>
      <trkpt lat="43.16434" lon="2.21231">
        <ele>390.2</ele>
        <time>2021-03-21T13:16:37Z</time>
      </trkpt>
      <trkpt lat="43.16444" lon="2.21234">
        <ele>389.6</ele>
        <time>2021-03-21T13:16:38Z</time>
      </trkpt>
      <trkpt lat="43.16462" lon="2.2125">
        <ele>388.5</ele>
        <time>2021-03-21T13:16:40Z</time>
      </trkpt>
      <trkpt lat="43.16473" lon="2.21278">
        <ele>387.3</ele>
        <time>2021-03-21T13:16:42Z</time>
      </trkpt>
      <trkpt lat="43.16475" lon="2.2131">
        <ele>386.1</ele>
        <time>2021-03-21T13:16:44Z</time>
      </trkpt>
      <trkpt lat="43.16475" lon="2.21324">
        <ele>385.5</ele>
        <time>2021-03-21T13:16:45Z</time>
      </trkpt>
      <trkpt lat="43.16475" lon="2.21339">
        <ele>385</ele>
        <time>2021-03-21T13:16:46Z</time>
      </trkpt>
      <trkpt lat="43.16475" lon="2.21353">
        <ele>384.4</ele>
        <time>2021-03-21T13:16:47Z</time>
      </trkpt>
      <trkpt lat="43.16477" lon="2.2138">
        <ele>383.3</ele>
        <time>2021-03-21T13:16:49Z</time>
      </trkpt>
      <trkpt lat="43.16478" lon="2.21393">
        <ele>382.7</ele>
        <time>2021-03-21T13:16:50Z</time>
      </trkpt>
      <trkpt lat="43.1648" lon="2.21421">
        <ele>381.6</ele>
        <time>2021-03-21T13:16:52Z</time>
      </trkpt>
      <trkpt lat="43.16482" lon="2.21448">
        <ele>380.5</ele>
        <time>2021-03-21T13:16:54Z</time>
      </trkpt>
      <trkpt lat="43.16483" lon="2.21475">
        <ele>379.5</ele>
        <time>2021-03-21T13:16:56Z</time>
      </trkpt>
      <trkpt lat="43.16485" lon="2.21489">
        <ele>379.1</ele>
        <time>2021-03-21T13:16:57Z</time>
      </trkpt>
      <trkpt lat="43.16487" lon="2.21503">
        <ele>378.7</ele>
        <time>2021-03-21T13:16:58Z</time>
      </trkpt>
      <trkpt lat="43.16493" lon="2.21529">
        <ele>377.8</ele>
        <time>2021-03-21T13:17:00Z</time>
      </trkpt>
      <trkpt lat="43.16497" lon="2.21542">
        <ele>377.3</ele>
        <time>2021-03-21T13:17:01Z</time>
      </trkpt>
      <trkpt lat="43.16505" lon="2.21569">
        <ele>376.4</ele>
        <time>2021-03-21T13:17:03Z</time>
      </trkpt>
      <trkpt lat="43.16508" lon="2.21583">
        <ele>376.1</ele>
        <time>2021-03-21T13:17:04Z</time>
      </trkpt>
      <trkpt lat="43.1651" lon="2.21597">
        <ele>375.7</ele>
        <time>2021-03-21T13:17:05Z</time>
      </trkpt>
      <trkpt lat="43.16512" lon="2.21623">
        <ele>375.1</ele>
        <time>2021-03-21T13:17:07Z</time>
      </trkpt>
      <trkpt lat="43.1651" lon="2.21635">
        <ele>374.7</ele>
        <time>2021-03-21T13:17:08Z</time>
      </trkpt>
      <trkpt lat="43.16506" lon="2.21647">
        <ele>374.3</ele>
        <time>2021-03-21T13:17:09Z</time>
      </trkpt>
      <trkpt lat="43.16491" lon="2.21667">
        <ele>373.4</ele>
        <time>2021-03-21T13:17:11Z</time>
      </trkpt>
      <trkpt lat="43.16471" lon="2.21682">
        <ele>372.4</ele>
        <time>2021-03-21T13:17:13Z</time>
      </trkpt>
      <trkpt lat="43.16462" lon="2.21689">
        <ele>371.9</ele>
        <time>2021-03-21T13:17:14Z</time>
      </trkpt>
      <trkpt lat="43.16446" lon="2.21707">
        <ele>370.9</ele>
        <time>2021-03-21T13:17:16Z</time>
      </trkpt>
      <trkpt lat="43.16435" lon="2.21732">
        <ele>369.7</ele>
        <time>2021-03-21T13:17:18Z</time>
      </trkpt>
      <trkpt lat="43.16431" lon="2.21746">
        <ele>369.1</ele>
        <time>2021-03-21T13:17:19Z</time>
      </trkpt>
      <trkpt lat="43.16426" lon="2.21777">
        <ele>367.7</ele>
        <time>2021-03-21T13:17:21Z</time>
      </trkpt>
      <trkpt lat="43.16424" lon="2.21792">
        <ele>367</ele>
        <time>2021-03-21T13:17:22Z</time>
      </trkpt>
      <trkpt lat="43.16421" lon="2.21808">
        <ele>366.3</ele>
        <time>2021-03-21T13:17:23Z</time>
      </trkpt>
      <trkpt lat="43.16416" lon="2.2184">
        <ele>364.8</ele>
        <time>2021-03-21T13:17:25Z</time>
      </trkpt>
      <trkpt lat="43.16409" lon="2.21871">
        <ele>363.3</ele>
        <time>2021-03-21T13:17:27Z</time>
      </trkpt>
      <trkpt lat="43.16405" lon="2.21887">
        <ele>362.6</ele>
        <time>2021-03-21T13:17:28Z</time>
      </trkpt>
      <trkpt lat="43.16399" lon="2.21918">
        <ele>361.1</ele>
        <time>2021-03-21T13:17:30Z</time>
      </trkpt>
      <trkpt lat="43.16397" lon="2.21936">
        <ele>360.4</ele>
        <time>2021-03-21T13:17:31Z</time>
      </trkpt>
      <trkpt lat="43.16403" lon="2.21969">
        <ele>358.8</ele>
        <time>2021-03-21T13:17:33Z</time>
      </trkpt>
      <trkpt lat="43.16416" lon="2.22">
        <ele>357.2</ele>
        <time>2021-03-21T13:17:35Z</time>
      </trkpt>
      <trkpt lat="43.16422" lon="2.22016">
        <ele>356.5</ele>
        <time>2021-03-21T13:17:36Z</time>
      </trkpt>
      <trkpt lat="43.16423" lon="2.22031">
        <ele>355.8</ele>
        <time>2021-03-21T13:17:37Z</time>
      </trkpt>
      <trkpt lat="43.16412" lon="2.22058">
        <ele>354.6</ele>
        <time>2021-03-21T13:17:39Z</time>
      </trkpt>
      <trkpt lat="43.16402" lon="2.22068">
        <ele>353.8</ele>
        <time>2021-03-21T13:17:40Z</time>
      </trkpt>
      <trkpt lat="43.16379" lon="2.22082">
        <ele>352.1</ele>
        <time>2021-03-21T13:17:42Z</time>
      </trkpt>
      <trkpt lat="43.16369" lon="2.22091">
        <ele>351.3</ele>
        <time>2021-03-21T13:17:43Z</time>
      </trkpt>
      <trkpt lat="43.1636" lon="2.22118">
        <ele>349.8</ele>
        <time>2021-03-21T13:17:45Z</time>
      </trkpt>
      <trkpt lat="43.16363" lon="2.22133">
        <ele>349</ele>
        <time>2021-03-21T13:17:46Z</time>
      </trkpt>
      <trkpt lat="43.1638" lon="2.22152">
        <ele>347.6</ele>
        <time>2021-03-21T13:17:48Z</time>
      </trkpt>
      <trkpt lat="43.16391" lon="2.22157">
        <ele>346.8</ele>
        <time>2021-03-21T13:17:49Z</time>
      </trkpt>
      <trkpt lat="43.16414" lon="2.22166">
        <ele>345.3</ele>
        <time>2021-03-21T13:17:51Z</time>
      </trkpt>
      <trkpt lat="43.16436" lon="2.22178">
        <ele>343.8</ele>
        <time>2021-03-21T13:17:53Z</time>
      </trkpt>
      <trkpt lat="43.16453" lon="2.22199">
        <ele>342.4</ele>
        <time>2021-03-21T13:17:55Z</time>
      </trkpt>
      <trkpt lat="43.16459" lon="2.22213">
        <ele>341.7</ele>
        <time>2021-03-21T13:17:56Z</time>
      </trkpt>
      <trkpt lat="43.1646" lon="2.22245">
        <ele>340.3</ele>
        <time>2021-03-21T13:17:58Z</time>
      </trkpt>
      <trkpt lat="43.16457" lon="2.22261">
        <ele>339.5</ele>
        <time>2021-03-21T13:17:59Z</time>
      </trkpt>
      <trkpt lat="43.1645" lon="2.22294">
        <ele>337.9</ele>
        <time>2021-03-21T13:18:01Z</time>
      </trkpt>
      <trkpt lat="43.16444" lon="2.22326">
        <ele>336.1</ele>
        <time>2021-03-21T13:18:03Z</time>
      </trkpt>
      <trkpt lat="43.16441" lon="2.22343">
        <ele>335.2</ele>
        <time>2021-03-21T13:18:04Z</time>
      </trkpt>
      <trkpt lat="43.16437" lon="2.22376">
        <ele>333.5</ele>
        <time>2021-03-21T13:18:06Z</time>
      </trkpt>
      <trkpt lat="43.16436" lon="2.22393">
        <ele>332.6</ele>
        <time>2021-03-21T13:18:07Z</time>
      </trkpt>
      <trkpt lat="43.16439" lon="2.22427">
        <ele>330.8</ele>
        <time>2021-03-21T13:18:09Z</time>
      </trkpt>
      <trkpt lat="43.16444" lon="2.22443">
        <ele>330</ele>
        <time>2021-03-21T13:18:10Z</time>
      </trkpt>
      <trkpt lat="43.1646" lon="2.22469">
        <ele>328.2</ele>
        <time>2021-03-21T13:18:12Z</time>
      </trkpt>
      <trkpt lat="43.16471" lon="2.2248">
        <ele>327.2</ele>
        <time>2021-03-21T13:18:13Z</time>
      </trkpt>
      <trkpt lat="43.16482" lon="2.2249">
        <ele>326.3</ele>
        <time>2021-03-21T13:18:14Z</time>
      </trkpt>
      <trkpt lat="43.16505" lon="2.22507">
        <ele>324.7</ele>
        <time>2021-03-21T13:18:16Z</time>
      </trkpt>
      <trkpt lat="43.16516" lon="2.22517">
        <ele>324</ele>
        <time>2021-03-21T13:18:17Z</time>
      </trkpt>
      <trkpt lat="43.16533" lon="2.22542">
        <ele>323.3</ele>
        <time>2021-03-21T13:18:19Z</time>
      </trkpt>
      <trkpt lat="43.16538" lon="2.22557">
        <ele>323</ele>
        <time>2021-03-21T13:18:20Z</time>
      </trkpt>
      <trkpt lat="43.16543" lon="2.22589">
        <ele>322.5</ele>
        <time>2021-03-21T13:18:22Z</time>
      </trkpt>
      <trkpt lat="43.16544" lon="2.22604">
        <ele>322.3</ele>
        <time>2021-03-21T13:18:23Z</time>
      </trkpt>
      <trkpt lat="43.16547" lon="2.22633">
        <ele>321.8</ele>
        <time>2021-03-21T13:18:25Z</time>
      </trkpt>
      <trkpt lat="43.16546" lon="2.22648">
        <ele>321.5</ele>
        <time>2021-03-21T13:18:26Z</time>
      </trkpt>
      <trkpt lat="43.16544" lon="2.22661">
        <ele>321.2</ele>
        <time>2021-03-21T13:18:27Z</time>
      </trkpt>
      <trkpt lat="43.16539" lon="2.22674">
        <ele>320.8</ele>
        <time>2021-03-21T13:18:28Z</time>
      </trkpt>
      <trkpt lat="43.16523" lon="2.22693">
        <ele>320.1</ele>
        <time>2021-03-21T13:18:30Z</time>
      </trkpt>
      <trkpt lat="43.16516" lon="2.22703">
        <ele>319.7</ele>
        <time>2021-03-21T13:18:31Z</time>
      </trkpt>
      <trkpt lat="43.1651" lon="2.22714">
        <ele>319.3</ele>
        <time>2021-03-21T13:18:32Z</time>
      </trkpt>
      <trkpt lat="43.16505" lon="2.2274">
        <ele>318.4</ele>
        <time>2021-03-21T13:18:34Z</time>
      </trkpt>
      <trkpt lat="43.16506" lon="2.22755">
        <ele>318</ele>
        <time>2021-03-21T13:18:35Z</time>
      </trkpt>
      <trkpt lat="43.16508" lon="2.22784">
        <ele>317.1</ele>
        <time>2021-03-21T13:18:37Z</time>
      </trkpt>
      <trkpt lat="43.16509" lon="2.22799">
        <ele>316.7</ele>
        <time>2021-03-21T13:18:38Z</time>
      </trkpt>
      <trkpt lat="43.16511" lon="2.22827">
        <ele>315.7</ele>
        <time>2021-03-21T13:18:40Z</time>
      </trkpt>
      <trkpt lat="43.16512" lon="2.22842">
        <ele>315.3</ele>
        <time>2021-03-21T13:18:41Z</time>
      </trkpt>
      <trkpt lat="43.16518" lon="2.2287">
        <ele>314.4</ele>
        <time>2021-03-21T13:18:43Z</time>
      </trkpt>
      <trkpt lat="43.16529" lon="2.22893">
        <ele>313.4</ele>
        <time>2021-03-21T13:18:45Z</time>
      </trkpt>
      <trkpt lat="43.16537" lon="2.22904">
        <ele>313</ele>
        <time>2021-03-21T13:18:46Z</time>
      </trkpt>
      <trkpt lat="43.16556" lon="2.2292">
        <ele>312</ele>
        <time>2021-03-21T13:18:48Z</time>
      </trkpt>
      <trkpt lat="43.16566" lon="2.22926">
        <ele>311.6</ele>
        <time>2021-03-21T13:18:49Z</time>
      </trkpt>
      <trkpt lat="43.16576" lon="2.22932">
        <ele>311.1</ele>
        <time>2021-03-21T13:18:50Z</time>
      </trkpt>
      <trkpt lat="43.16595" lon="2.22945">
        <ele>310.3</ele>
        <time>2021-03-21T13:18:52Z</time>
      </trkpt>
      <trkpt lat="43.16613" lon="2.22958">
        <ele>309.4</ele>
        <time>2021-03-21T13:18:54Z</time>
      </trkpt>
      <trkpt lat="43.16622" lon="2.22965">
        <ele>309</ele>
        <time>2021-03-21T13:18:55Z</time>
      </trkpt>
      <trkpt lat="43.1664" lon="2.22978">
        <ele>308.2</ele>
        <time>2021-03-21T13:18:57Z</time>
      </trkpt>
      <trkpt lat="43.16649" lon="2.22985">
        <ele>307.8</ele>
        <time>2021-03-21T13:18:58Z</time>
      </trkpt>
      <trkpt lat="43.16657" lon="2.22992">
        <ele>307.4</ele>
        <time>2021-03-21T13:18:59Z</time>
      </trkpt>
      <trkpt lat="43.16675" lon="2.23006">
        <ele>306.7</ele>
        <time>2021-03-21T13:19:01Z</time>
      </trkpt>
      <trkpt lat="43.16683" lon="2.23014">
        <ele>306.3</ele>
        <time>2021-03-21T13:19:02Z</time>
      </trkpt>
      <trkpt lat="43.1669" lon="2.23024">
        <ele>305.9</ele>
        <time>2021-03-21T13:19:03Z</time>
      </trkpt>
      <trkpt lat="43.167" lon="2.23049">
        <ele>305.1</ele>
        <time>2021-03-21T13:19:05Z</time>
      </trkpt>
      <trkpt lat="43.16703" lon="2.23078">
        <ele>304.4</ele>
        <time>2021-03-21T13:19:07Z</time>
      </trkpt>
      <trkpt lat="43.16703" lon="2.23093">
        <ele>304</ele>
        <time>2021-03-21T13:19:08Z</time>
      </trkpt>
      <trkpt lat="43.16703" lon="2.23122">
        <ele>303.4</ele>
        <time>2021-03-21T13:19:10Z</time>
      </trkpt>
      <trkpt lat="43.16703" lon="2.23136">
        <ele>303.2</ele>
        <time>2021-03-21T13:19:11Z</time>
      </trkpt>
      <trkpt lat="43.16703" lon="2.23164">
        <ele>302.6</ele>
        <time>2021-03-21T13:19:13Z</time>
      </trkpt>
      <trkpt lat="43.16703" lon="2.23178">
        <ele>302.4</ele>
        <time>2021-03-21T13:19:14Z</time>
      </trkpt>
      <trkpt lat="43.16707" lon="2.23204">
        <ele>301.8</ele>
        <time>2021-03-21T13:19:16Z</time>
      </trkpt>
      <trkpt lat="43.16713" lon="2.23215">
        <ele>301.5</ele>
        <time>2021-03-21T13:19:17Z</time>
      </trkpt>
      <trkpt lat="43.1672" lon="2.23224">
        <ele>301.3</ele>
        <time>2021-03-21T13:19:18Z</time>
      </trkpt>
      <trkpt lat="43.16737" lon="2.23238">
        <ele>300.6</ele>
        <time>2021-03-21T13:19:20Z</time>
      </trkpt>
      <trkpt lat="43.16745" lon="2.23246">
        <ele>300.3</ele>
        <time>2021-03-21T13:19:21Z</time>
      </trkpt>
      <trkpt lat="43.16751" lon="2.23257">
        <ele>300</ele>
        <time>2021-03-21T13:19:22Z</time>
      </trkpt>
      <trkpt lat="43.16753" lon="2.2327">
        <ele>299.6</ele>
        <time>2021-03-21T13:19:23Z</time>
      </trkpt>
      <trkpt lat="43.1675" lon="2.23297">
        <ele>298.9</ele>
        <time>2021-03-21T13:19:25Z</time>
      </trkpt>
      <trkpt lat="43.16746" lon="2.23309">
        <ele>298.5</ele>
        <time>2021-03-21T13:19:26Z</time>
      </trkpt>
      <trkpt lat="43.16743" lon="2.23322">
        <ele>298.2</ele>
        <time>2021-03-21T13:19:27Z</time>
      </trkpt>
      <trkpt lat="43.16737" lon="2.23347">
        <ele>297.6</ele>
        <time>2021-03-21T13:19:29Z</time>
      </trkpt>
      <trkpt lat="43.16736" lon="2.23373">
        <ele>297</ele>
        <time>2021-03-21T13:19:31Z</time>
      </trkpt>
      <trkpt lat="43.16749" lon="2.23392">
        <ele>296.4</ele>
        <time>2021-03-21T13:19:33Z</time>
      </trkpt>
      <trkpt lat="43.16759" lon="2.23395">
        <ele>296.2</ele>
        <time>2021-03-21T13:19:34Z</time>
      </trkpt>
      <trkpt lat="43.16768" lon="2.23393">
        <ele>295.9</ele>
        <time>2021-03-21T13:19:35Z</time>
      </trkpt>
      <trkpt lat="43.16784" lon="2.23381">
        <ele>295.4</ele>
        <time>2021-03-21T13:19:37Z</time>
      </trkpt>
      <trkpt lat="43.16799" lon="2.23367">
        <ele>295</ele>
        <time>2021-03-21T13:19:39Z</time>
      </trkpt>
      <trkpt lat="43.16817" lon="2.2336">
        <ele>294.5</ele>
        <time>2021-03-21T13:19:41Z</time>
      </trkpt>
      <trkpt lat="43.16826" lon="2.2336">
        <ele>294.2</ele>
        <time>2021-03-21T13:19:42Z</time>
      </trkpt>
      <trkpt lat="43.16836" lon="2.23361">
        <ele>294</ele>
        <time>2021-03-21T13:19:43Z</time>
      </trkpt>
      <trkpt lat="43.16855" lon="2.23368">
        <ele>293.4</ele>
        <time>2021-03-21T13:19:45Z</time>
      </trkpt>
      <trkpt lat="43.16872" lon="2.23383">
        <ele>292.7</ele>
        <time>2021-03-21T13:19:47Z</time>
      </trkpt>
      <trkpt lat="43.16883" lon="2.23406">
        <ele>292</ele>
        <time>2021-03-21T13:19:49Z</time>
      </trkpt>
      <trkpt lat="43.16885" lon="2.2342">
        <ele>291.7</ele>
        <time>2021-03-21T13:19:50Z</time>
      </trkpt>
      <trkpt lat="43.16884" lon="2.23434">
        <ele>291.3</ele>
        <time>2021-03-21T13:19:51Z</time>
      </trkpt>
      <trkpt lat="43.1688" lon="2.23461">
        <ele>290.6</ele>
        <time>2021-03-21T13:19:53Z</time>
      </trkpt>
      <trkpt lat="43.16879" lon="2.23487">
        <ele>290</ele>
        <time>2021-03-21T13:19:55Z</time>
      </trkpt>
      <trkpt lat="43.16885" lon="2.23511">
        <ele>289.4</ele>
        <time>2021-03-21T13:19:57Z</time>
      </trkpt>
      <trkpt lat="43.16889" lon="2.23523">
        <ele>289.2</ele>
        <time>2021-03-21T13:19:58Z</time>
      </trkpt>
      <trkpt lat="43.16895" lon="2.23547">
        <ele>288.6</ele>
        <time>2021-03-21T13:20:00Z</time>
      </trkpt>
      <trkpt lat="43.16894" lon="2.2357">
        <ele>288.1</ele>
        <time>2021-03-21T13:20:02Z</time>
      </trkpt>
      <trkpt lat="43.16889" lon="2.23581">
        <ele>287.7</ele>
        <time>2021-03-21T13:20:03Z</time>
      </trkpt>
      <trkpt lat="43.1688" lon="2.23603">
        <ele>287.1</ele>
        <time>2021-03-21T13:20:05Z</time>
      </trkpt>
      <trkpt lat="43.16879" lon="2.23615">
        <ele>286.8</ele>
        <time>2021-03-21T13:20:06Z</time>
      </trkpt>
      <trkpt lat="43.16882" lon="2.23626">
        <ele>286.4</ele>
        <time>2021-03-21T13:20:07Z</time>
      </trkpt>
      <trkpt lat="43.16895" lon="2.23645">
        <ele>285.8</ele>
        <time>2021-03-21T13:20:09Z</time>
      </trkpt>
      <trkpt lat="43.16902" lon="2.23654">
        <ele>285.5</ele>
        <time>2021-03-21T13:20:10Z</time>
      </trkpt>
      <trkpt lat="43.16908" lon="2.23664">
        <ele>285.2</ele>
        <time>2021-03-21T13:20:11Z</time>
      </trkpt>
      <trkpt lat="43.16911" lon="2.23676">
        <ele>284.9</ele>
        <time>2021-03-21T13:20:12Z</time>
      </trkpt>
      <trkpt lat="43.1691" lon="2.23688">
        <ele>284.6</ele>
        <time>2021-03-21T13:20:13Z</time>
      </trkpt>
      <trkpt lat="43.169" lon="2.23711">
        <ele>284</ele>
        <time>2021-03-21T13:20:15Z</time>
      </trkpt>
      <trkpt lat="43.16886" lon="2.23732">
        <ele>283.2</ele>
        <time>2021-03-21T13:20:17Z</time>
      </trkpt>
      <trkpt lat="43.16879" lon="2.23743">
        <ele>282.9</ele>
        <time>2021-03-21T13:20:18Z</time>
      </trkpt>
      <trkpt lat="43.16871" lon="2.23769">
        <ele>282.3</ele>
        <time>2021-03-21T13:20:20Z</time>
      </trkpt>
      <trkpt lat="43.16872" lon="2.23783">
        <ele>281.9</ele>
        <time>2021-03-21T13:20:21Z</time>
      </trkpt>
      <trkpt lat="43.16888" lon="2.23803">
        <ele>281.2</ele>
        <time>2021-03-21T13:20:23Z</time>
      </trkpt>
      <trkpt lat="43.16898" lon="2.23805">
        <ele>280.8</ele>
        <time>2021-03-21T13:20:24Z</time>
      </trkpt>
      <trkpt lat="43.16916" lon="2.2379">
        <ele>280.1</ele>
        <time>2021-03-21T13:20:26Z</time>
      </trkpt>
      <trkpt lat="43.1693" lon="2.23767">
        <ele>279.4</ele>
        <time>2021-03-21T13:20:28Z</time>
      </trkpt>
      <trkpt lat="43.16936" lon="2.23756">
        <ele>279.1</ele>
        <time>2021-03-21T13:20:29Z</time>
      </trkpt>
      <trkpt lat="43.16941" lon="2.23745">
        <ele>278.8</ele>
        <time>2021-03-21T13:20:30Z</time>
      </trkpt>
      <trkpt lat="43.16954" lon="2.23724">
        <ele>278.2</ele>
        <time>2021-03-21T13:20:32Z</time>
      </trkpt>
      <trkpt lat="43.1696" lon="2.23714">
        <ele>277.9</ele>
        <time>2021-03-21T13:20:33Z</time>
      </trkpt>
      <trkpt lat="43.16977" lon="2.237">
        <ele>277.2</ele>
        <time>2021-03-21T13:20:35Z</time>
      </trkpt>
      <trkpt lat="43.16996" lon="2.23698">
        <ele>276.5</ele>
        <time>2021-03-21T13:20:37Z</time>
      </trkpt>
      <trkpt lat="43.17007" lon="2.237">
        <ele>276.1</ele>
        <time>2021-03-21T13:20:38Z</time>
      </trkpt>
      <trkpt lat="43.17017" lon="2.23702">
        <ele>275.7</ele>
        <time>2021-03-21T13:20:39Z</time>
      </trkpt>
      <trkpt lat="43.17038" lon="2.23706">
        <ele>275</ele>
        <time>2021-03-21T13:20:41Z</time>
      </trkpt>
      <trkpt lat="43.17049" lon="2.23708">
        <ele>274.8</ele>
        <time>2021-03-21T13:20:42Z</time>
      </trkpt>
      <trkpt lat="43.17059" lon="2.23713">
        <ele>274.6</ele>
        <time>2021-03-21T13:20:43Z</time>
      </trkpt>
      <trkpt lat="43.17068" lon="2.23721">
        <ele>274.4</ele>
        <time>2021-03-21T13:20:44Z</time>
      </trkpt>
      <trkpt lat="43.17076" lon="2.23732">
        <ele>274.2</ele>
        <time>2021-03-21T13:20:45Z</time>
      </trkpt>
      <trkpt lat="43.17081" lon="2.23744">
        <ele>274</ele>
        <time>2021-03-21T13:20:46Z</time>
      </trkpt>
      <trkpt lat="43.17086" lon="2.23771">
        <ele>273.7</ele>
        <time>2021-03-21T13:20:48Z</time>
      </trkpt>
      <trkpt lat="43.17091" lon="2.23797">
        <ele>273.4</ele>
        <time>2021-03-21T13:20:50Z</time>
      </trkpt>
      <trkpt lat="43.17096" lon="2.23809">
        <ele>273.2</ele>
        <time>2021-03-21T13:20:51Z</time>
      </trkpt>
      <trkpt lat="43.17102" lon="2.23819">
        <ele>273.1</ele>
        <time>2021-03-21T13:20:52Z</time>
      </trkpt>
      <trkpt lat="43.17116" lon="2.23838">
        <ele>272.7</ele>
        <time>2021-03-21T13:20:54Z</time>
      </trkpt>
      <trkpt lat="43.17123" lon="2.23847">
        <ele>272.6</ele>
        <time>2021-03-21T13:20:55Z</time>
      </trkpt>
      <trkpt lat="43.1713" lon="2.23856">
        <ele>272.5</ele>
        <time>2021-03-21T13:20:56Z</time>
      </trkpt>
      <trkpt lat="43.17144" lon="2.23875">
        <ele>272.3</ele>
        <time>2021-03-21T13:20:58Z</time>
      </trkpt>
      <trkpt lat="43.17157" lon="2.23895">
        <ele>272.1</ele>
        <time>2021-03-21T13:21:00Z</time>
      </trkpt>
      <trkpt lat="43.1717" lon="2.23916">
        <ele>271.9</ele>
        <time>2021-03-21T13:21:02Z</time>
      </trkpt>
      <trkpt lat="43.17176" lon="2.23928">
        <ele>271.8</ele>
        <time>2021-03-21T13:21:03Z</time>
      </trkpt>
      <trkpt lat="43.17181" lon="2.23939">
        <ele>271.7</ele>
        <time>2021-03-21T13:21:04Z</time>
      </trkpt>
      <trkpt lat="43.17191" lon="2.23963">
        <ele>271.5</ele>
        <time>2021-03-21T13:21:06Z</time>
      </trkpt>
      <trkpt lat="43.17201" lon="2.23986">
        <ele>271.2</ele>
        <time>2021-03-21T13:21:08Z</time>
      </trkpt>
      <trkpt lat="43.1721" lon="2.24009">
        <ele>270.9</ele>
        <time>2021-03-21T13:21:10Z</time>
      </trkpt>
      <trkpt lat="43.17214" lon="2.2402">
        <ele>270.7</ele>
        <time>2021-03-21T13:21:11Z</time>
      </trkpt>
      <trkpt lat="43.17218" lon="2.24032">
        <ele>270.5</ele>
        <time>2021-03-21T13:21:12Z</time>
      </trkpt>
      <trkpt lat="43.17221" lon="2.24058">
        <ele>269.9</ele>
        <time>2021-03-21T13:21:14Z</time>
      </trkpt>
      <trkpt lat="43.1722" lon="2.24071">
        <ele>269.6</ele>
        <time>2021-03-21T13:21:15Z</time>
      </trkpt>
      <trkpt lat="43.17214" lon="2.24096">
        <ele>268.7</ele>
        <time>2021-03-21T13:21:17Z</time>
      </trkpt>
      <trkpt lat="43.17209" lon="2.24108">
        <ele>268.2</ele>
        <time>2021-03-21T13:21:18Z</time>
      </trkpt>
      <trkpt lat="43.17197" lon="2.2413">
        <ele>267.2</ele>
        <time>2021-03-21T13:21:20Z</time>
      </trkpt>
      <trkpt lat="43.17191" lon="2.24142">
        <ele>266.8</ele>
        <time>2021-03-21T13:21:21Z</time>
      </trkpt>
      <trkpt lat="43.1718" lon="2.24164">
        <ele>266</ele>
        <time>2021-03-21T13:21:23Z</time>
      </trkpt>
      <trkpt lat="43.17174" lon="2.24189">
        <ele>265.2</ele>
        <time>2021-03-21T13:21:25Z</time>
      </trkpt>
      <trkpt lat="43.17181" lon="2.24213">
        <ele>264.4</ele>
        <time>2021-03-21T13:21:27Z</time>
      </trkpt>
      <trkpt lat="43.17191" lon="2.2422">
        <ele>263.9</ele>
        <time>2021-03-21T13:21:28Z</time>
      </trkpt>
      <trkpt lat="43.17212" lon="2.24217">
        <ele>262.9</ele>
        <time>2021-03-21T13:21:30Z</time>
      </trkpt>
      <trkpt lat="43.17221" lon="2.24209">
        <ele>262.3</ele>
        <time>2021-03-21T13:21:31Z</time>
      </trkpt>
      <trkpt lat="43.17237" lon="2.24195">
        <ele>261.4</ele>
        <time>2021-03-21T13:21:33Z</time>
      </trkpt>
      <trkpt lat="43.17247" lon="2.24191">
        <ele>260.9</ele>
        <time>2021-03-21T13:21:34Z</time>
      </trkpt>
      <trkpt lat="43.17266" lon="2.24198">
        <ele>259.9</ele>
        <time>2021-03-21T13:21:36Z</time>
      </trkpt>
      <trkpt lat="43.17275" lon="2.24208">
        <ele>259.4</ele>
        <time>2021-03-21T13:21:37Z</time>
      </trkpt>
      <trkpt lat="43.17291" lon="2.24232">
        <ele>258.5</ele>
        <time>2021-03-21T13:21:39Z</time>
      </trkpt>
      <trkpt lat="43.17299" lon="2.24244">
        <ele>258</ele>
        <time>2021-03-21T13:21:40Z</time>
      </trkpt>
      <trkpt lat="43.17307" lon="2.24255">
        <ele>257.5</ele>
        <time>2021-03-21T13:21:41Z</time>
      </trkpt>
      <trkpt lat="43.17323" lon="2.24276">
        <ele>256.7</ele>
        <time>2021-03-21T13:21:43Z</time>
      </trkpt>
      <trkpt lat="43.1734" lon="2.24295">
        <ele>256</ele>
        <time>2021-03-21T13:21:45Z</time>
      </trkpt>
      <trkpt lat="43.17357" lon="2.24314">
        <ele>255.4</ele>
        <time>2021-03-21T13:21:47Z</time>
      </trkpt>
      <trkpt lat="43.17365" lon="2.24324">
        <ele>255.1</ele>
        <time>2021-03-21T13:21:48Z</time>
      </trkpt>
      <trkpt lat="43.17372" lon="2.24334">
        <ele>254.9</ele>
        <time>2021-03-21T13:21:49Z</time>
      </trkpt>
      <trkpt lat="43.17382" lon="2.24359">
        <ele>254.6</ele>
        <time>2021-03-21T13:21:51Z</time>
      </trkpt>
      <trkpt lat="43.17385" lon="2.24372">
        <ele>254.4</ele>
        <time>2021-03-21T13:21:52Z</time>
      </trkpt>
      <trkpt lat="43.17388" lon="2.24398">
        <ele>254.1</ele>
        <time>2021-03-21T13:21:54Z</time>
      </trkpt>
      <trkpt lat="43.1739" lon="2.2441">
        <ele>253.9</ele>
        <time>2021-03-21T13:21:55Z</time>
      </trkpt>
      <trkpt lat="43.17392" lon="2.24423">
        <ele>253.6</ele>
        <time>2021-03-21T13:21:56Z</time>
      </trkpt>
      <trkpt lat="43.17396" lon="2.24446">
        <ele>253</ele>
        <time>2021-03-21T13:21:58Z</time>
      </trkpt>
      <trkpt lat="43.17398" lon="2.24459">
        <ele>252.6</ele>
        <time>2021-03-21T13:21:59Z</time>
      </trkpt>
      <trkpt lat="43.17404" lon="2.24482">
        <ele>251.7</ele>
        <time>2021-03-21T13:22:01Z</time>
      </trkpt>
      <trkpt lat="43.17416" lon="2.24503">
        <ele>250.5</ele>
        <time>2021-03-21T13:22:03Z</time>
      </trkpt>
      <trkpt lat="43.17436" lon="2.24515">
        <ele>249.1</ele>
        <time>2021-03-21T13:22:05Z</time>
      </trkpt>
      <trkpt lat="43.17458" lon="2.24515">
        <ele>247.6</ele>
        <time>2021-03-21T13:22:07Z</time>
      </trkpt>
      <trkpt lat="43.17468" lon="2.24513">
        <ele>246.9</ele>
        <time>2021-03-21T13:22:08Z</time>
      </trkpt>
      <trkpt lat="43.1749" lon="2.24511">
        <ele>245.6</ele>
        <time>2021-03-21T13:22:10Z</time>
      </trkpt>
      <trkpt lat="43.17512" lon="2.2451">
        <ele>244.4</ele>
        <time>2021-03-21T13:22:12Z</time>
      </trkpt>
      <trkpt lat="43.17523" lon="2.2451">
        <ele>243.8</ele>
        <time>2021-03-21T13:22:13Z</time>
      </trkpt>
      <trkpt lat="43.17533" lon="2.2451">
        <ele>243.3</ele>
        <time>2021-03-21T13:22:14Z</time>
      </trkpt>
      <trkpt lat="43.17553" lon="2.24512">
        <ele>242.3</ele>
        <time>2021-03-21T13:22:16Z</time>
      </trkpt>
      <trkpt lat="43.17573" lon="2.24515">
        <ele>241.5</ele>
        <time>2021-03-21T13:22:18Z</time>
      </trkpt>
      <trkpt lat="43.17583" lon="2.24516">
        <ele>241.1</ele>
        <time>2021-03-21T13:22:19Z</time>
      </trkpt>
      <trkpt lat="43.17601" lon="2.24525">
        <ele>240.5</ele>
        <time>2021-03-21T13:22:21Z</time>
      </trkpt>
      <trkpt lat="43.17608" lon="2.24532">
        <ele>240.4</ele>
        <time>2021-03-21T13:22:22Z</time>
      </trkpt>
      <trkpt lat="43.17614" lon="2.24541">
        <ele>240.2</ele>
        <time>2021-03-21T13:22:23Z</time>
      </trkpt>
      <trkpt lat="43.17623" lon="2.24564">
        <ele>239.8</ele>
        <time>2021-03-21T13:22:25Z</time>
      </trkpt>
      <trkpt lat="43.17626" lon="2.2459">
        <ele>239.5</ele>
        <time>2021-03-21T13:22:27Z</time>
      </trkpt>
      <trkpt lat="43.17622" lon="2.24615">
        <ele>239.2</ele>
        <time>2021-03-21T13:22:29Z</time>
      </trkpt>
      <trkpt lat="43.17612" lon="2.24639">
        <ele>238.9</ele>
        <time>2021-03-21T13:22:31Z</time>
      </trkpt>
      <trkpt lat="43.17605" lon="2.2465">
        <ele>238.7</ele>
        <time>2021-03-21T13:22:32Z</time>
      </trkpt>
      <trkpt lat="43.17592" lon="2.24671">
        <ele>238.4</ele>
        <time>2021-03-21T13:22:34Z</time>
      </trkpt>
      <trkpt lat="43.17581" lon="2.24693">
        <ele>238.2</ele>
        <time>2021-03-21T13:22:36Z</time>
      </trkpt>
      <trkpt lat="43.17575" lon="2.24705">
        <ele>238.1</ele>
        <time>2021-03-21T13:22:37Z</time>
      </trkpt>
      <trkpt lat="43.17564" lon="2.24728">
        <ele>237.9</ele>
        <time>2021-03-21T13:22:39Z</time>
      </trkpt>
      <trkpt lat="43.17559" lon="2.2474">
        <ele>237.8</ele>
        <time>2021-03-21T13:22:40Z</time>
      </trkpt>
      <trkpt lat="43.17555" lon="2.24753">
        <ele>237.7</ele>
        <time>2021-03-21T13:22:41Z</time>
      </trkpt>
      <trkpt lat="43.17552" lon="2.2478">
        <ele>237.6</ele>
        <time>2021-03-21T13:22:43Z</time>
      </trkpt>
      <trkpt lat="43.17553" lon="2.24795">
        <ele>237.4</ele>
        <time>2021-03-21T13:22:44Z</time>
      </trkpt>
      <trkpt lat="43.17558" lon="2.24822">
        <ele>237</ele>
        <time>2021-03-21T13:22:46Z</time>
      </trkpt>
      <trkpt lat="43.17561" lon="2.24836">
        <ele>236.8</ele>
        <time>2021-03-21T13:22:47Z</time>
      </trkpt>
      <trkpt lat="43.17566" lon="2.24862">
        <ele>236.5</ele>
        <time>2021-03-21T13:22:49Z</time>
      </trkpt>
      <trkpt lat="43.17573" lon="2.24887">
        <ele>236.2</ele>
        <time>2021-03-21T13:22:51Z</time>
      </trkpt>
      <trkpt lat="43.17578" lon="2.24898">
        <ele>236.1</ele>
        <time>2021-03-21T13:22:52Z</time>
      </trkpt>
      <trkpt lat="43.17583" lon="2.24909">
        <ele>236</ele>
        <time>2021-03-21T13:22:53Z</time>
      </trkpt>
      <trkpt lat="43.17594" lon="2.24928">
        <ele>235.6</ele>
        <time>2021-03-21T13:22:55Z</time>
      </trkpt>
      <trkpt lat="43.17608" lon="2.24944">
        <ele>235.2</ele>
        <time>2021-03-21T13:22:57Z</time>
      </trkpt>
      <trkpt lat="43.17615" lon="2.24952">
        <ele>234.9</ele>
        <time>2021-03-21T13:22:58Z</time>
      </trkpt>
      <trkpt lat="43.17629" lon="2.24966">
        <ele>234.5</ele>
        <time>2021-03-21T13:23:00Z</time>
      </trkpt>
      <trkpt lat="43.17637" lon="2.24973">
        <ele>234.2</ele>
        <time>2021-03-21T13:23:01Z</time>
      </trkpt>
      <trkpt lat="43.17644" lon="2.2498">
        <ele>234</ele>
        <time>2021-03-21T13:23:02Z</time>
      </trkpt>
      <trkpt lat="43.17652" lon="2.24987">
        <ele>233.8</ele>
        <time>2021-03-21T13:23:03Z</time>
      </trkpt>
      <trkpt lat="43.17659" lon="2.24994">
        <ele>233.5</ele>
        <time>2021-03-21T13:23:04Z</time>
      </trkpt>
      <trkpt lat="43.17674" lon="2.25009">
        <ele>233.1</ele>
        <time>2021-03-21T13:23:06Z</time>
      </trkpt>
      <trkpt lat="43.17689" lon="2.25024">
        <ele>232.5</ele>
        <time>2021-03-21T13:23:08Z</time>
      </trkpt>
      <trkpt lat="43.17704" lon="2.25039">
        <ele>232</ele>
        <time>2021-03-21T13:23:10Z</time>
      </trkpt>
      <trkpt lat="43.17712" lon="2.25047">
        <ele>231.7</ele>
        <time>2021-03-21T13:23:11Z</time>
      </trkpt>
      <trkpt lat="43.17719" lon="2.25054">
        <ele>231.4</ele>
        <time>2021-03-21T13:23:12Z</time>
      </trkpt>
      <trkpt lat="43.17726" lon="2.25063">
        <ele>231.1</ele>
        <time>2021-03-21T13:23:13Z</time>
      </trkpt>
      <trkpt lat="43.17741" lon="2.25079">
        <ele>230.6</ele>
        <time>2021-03-21T13:23:15Z</time>
      </trkpt>
      <trkpt lat="43.17756" lon="2.25095">
        <ele>230.1</ele>
        <time>2021-03-21T13:23:17Z</time>
      </trkpt>
      <trkpt lat="43.17771" lon="2.25109">
        <ele>229.6</ele>
        <time>2021-03-21T13:23:19Z</time>
      </trkpt>
      <trkpt lat="43.17786" lon="2.25123">
        <ele>229.3</ele>
        <time>2021-03-21T13:23:21Z</time>
      </trkpt>
      <trkpt lat="43.17794" lon="2.2513">
        <ele>229.1</ele>
        <time>2021-03-21T13:23:22Z</time>
      </trkpt>
      <trkpt lat="43.17801" lon="2.25138">
        <ele>229</ele>
        <time>2021-03-21T13:23:23Z</time>
      </trkpt>
      <trkpt lat="43.17809" lon="2.25146">
        <ele>228.9</ele>
        <time>2021-03-21T13:23:24Z</time>
      </trkpt>
      <trkpt lat="43.17823" lon="2.25167">
        <ele>228.7</ele>
        <time>2021-03-21T13:23:26Z</time>
      </trkpt>
      <trkpt lat="43.17836" lon="2.25191">
        <ele>228.6</ele>
        <time>2021-03-21T13:23:28Z</time>
      </trkpt>
      <trkpt lat="43.17842" lon="2.25203">
        <ele>228.5</ele>
        <time>2021-03-21T13:23:29Z</time>
      </trkpt>
      <trkpt lat="43.17853" lon="2.25227">
        <ele>228.3</ele>
        <time>2021-03-21T13:23:31Z</time>
      </trkpt>
      <trkpt lat="43.17858" lon="2.25238">
        <ele>228.2</ele>
        <time>2021-03-21T13:23:32Z</time>
      </trkpt>
      <trkpt lat="43.17869" lon="2.25261">
        <ele>228</ele>
        <time>2021-03-21T13:23:34Z</time>
      </trkpt>
      <trkpt lat="43.17874" lon="2.25273">
        <ele>227.9</ele>
        <time>2021-03-21T13:23:35Z</time>
      </trkpt>
      <trkpt lat="43.17886" lon="2.25294">
        <ele>227.8</ele>
        <time>2021-03-21T13:23:37Z</time>
      </trkpt>
      <trkpt lat="43.17892" lon="2.25305">
        <ele>227.7</ele>
        <time>2021-03-21T13:23:38Z</time>
      </trkpt>
      <trkpt lat="43.17898" lon="2.25316">
        <ele>227.7</ele>
        <time>2021-03-21T13:23:39Z</time>
      </trkpt>
      <trkpt lat="43.17903" lon="2.25327">
        <ele>227.6</ele>
        <time>2021-03-21T13:23:40Z</time>
      </trkpt>
      <trkpt lat="43.17914" lon="2.25348">
        <ele>227.5</ele>
        <time>2021-03-21T13:23:42Z</time>
      </trkpt>
      <trkpt lat="43.17919" lon="2.25358">
        <ele>227.5</ele>
        <time>2021-03-21T13:23:43Z</time>
      </trkpt>
      <trkpt lat="43.17925" lon="2.25369">
        <ele>227.5</ele>
        <time>2021-03-21T13:23:44Z</time>
      </trkpt>
      <trkpt lat="43.17935" lon="2.25388">
        <ele>227.4</ele>
        <time>2021-03-21T13:23:46Z</time>
      </trkpt>
      <trkpt lat="43.17941" lon="2.25398">
        <ele>227.4</ele>
        <time>2021-03-21T13:23:47Z</time>
      </trkpt>
      <trkpt lat="43.17951" lon="2.25417">
        <ele>227.2</ele>
        <time>2021-03-21T13:23:49Z</time>
      </trkpt>
      <trkpt lat="43.17956" lon="2.25426">
        <ele>227</ele>
        <time>2021-03-21T13:23:50Z</time>
      </trkpt>
      <trkpt lat="43.17966" lon="2.25446">
        <ele>226.4</ele>
        <time>2021-03-21T13:23:52Z</time>
      </trkpt>
      <trkpt lat="43.17976" lon="2.25466">
        <ele>225.5</ele>
        <time>2021-03-21T13:23:54Z</time>
      </trkpt>
      <trkpt lat="43.17985" lon="2.2549">
        <ele>224.3</ele>
        <time>2021-03-21T13:23:56Z</time>
      </trkpt>
      <trkpt lat="43.1799" lon="2.25516">
        <ele>222.8</ele>
        <time>2021-03-21T13:23:58Z</time>
      </trkpt>
      <trkpt lat="43.17994" lon="2.25544">
        <ele>221.3</ele>
        <time>2021-03-21T13:24:00Z</time>
      </trkpt>
      <trkpt lat="43.17996" lon="2.25558">
        <ele>220.5</ele>
        <time>2021-03-21T13:24:01Z</time>
      </trkpt>
      <trkpt lat="43.18" lon="2.25587">
        <ele>218.8</ele>
        <time>2021-03-21T13:24:03Z</time>
      </trkpt>
      <trkpt lat="43.18003" lon="2.25602">
        <ele>218</ele>
        <time>2021-03-21T13:24:04Z</time>
      </trkpt>
      <trkpt lat="43.18008" lon="2.25633">
        <ele>216.4</ele>
        <time>2021-03-21T13:24:06Z</time>
      </trkpt>
      <trkpt lat="43.18012" lon="2.25664">
        <ele>215.1</ele>
        <time>2021-03-21T13:24:08Z</time>
      </trkpt>
      <trkpt lat="43.18017" lon="2.25696">
        <ele>214.2</ele>
        <time>2021-03-21T13:24:10Z</time>
      </trkpt>
      <trkpt lat="43.18022" lon="2.2573">
        <ele>212.4</ele>
        <time>2021-03-21T13:24:12Z</time>
      </trkpt>
      <trkpt lat="43.18025" lon="2.25747">
        <ele>211.4</ele>
        <time>2021-03-21T13:24:13Z</time>
      </trkpt>
      <trkpt lat="43.18031" lon="2.25783">
        <ele>209.5</ele>
        <time>2021-03-21T13:24:15Z</time>
      </trkpt>
      <trkpt lat="43.18038" lon="2.25818">
        <ele>207.7</ele>
        <time>2021-03-21T13:24:17Z</time>
      </trkpt>
      <trkpt lat="43.18042" lon="2.25835">
        <ele>206.7</ele>
        <time>2021-03-21T13:24:18Z</time>
      </trkpt>
      <trkpt lat="43.18055" lon="2.25864">
        <ele>205</ele>
        <time>2021-03-21T13:24:20Z</time>
      </trkpt>
      <trkpt lat="43.18073" lon="2.25886">
        <ele>203.7</ele>
        <time>2021-03-21T13:24:22Z</time>
      </trkpt>
      <trkpt lat="43.18084" lon="2.25896">
        <ele>203.1</ele>
        <time>2021-03-21T13:24:23Z</time>
      </trkpt>
      <trkpt lat="43.18095" lon="2.25904">
        <ele>202.2</ele>
        <time>2021-03-21T13:24:24Z</time>
      </trkpt>
      <trkpt lat="43.18115" lon="2.25922">
        <ele>200.5</ele>
        <time>2021-03-21T13:24:26Z</time>
      </trkpt>
      <trkpt lat="43.18126" lon="2.25931">
        <ele>199.7</ele>
        <time>2021-03-21T13:24:27Z</time>
      </trkpt>
      <trkpt lat="43.18136" lon="2.2594">
        <ele>198.9</ele>
        <time>2021-03-21T13:24:28Z</time>
      </trkpt>
      <trkpt lat="43.18157" lon="2.25959">
        <ele>197.4</ele>
        <time>2021-03-21T13:24:30Z</time>
      </trkpt>
      <trkpt lat="43.18177" lon="2.25978">
        <ele>196.3</ele>
        <time>2021-03-21T13:24:32Z</time>
      </trkpt>
      <trkpt lat="43.18187" lon="2.25988">
        <ele>195.9</ele>
        <time>2021-03-21T13:24:33Z</time>
      </trkpt>
      <trkpt lat="43.18196" lon="2.25997">
        <ele>195.5</ele>
        <time>2021-03-21T13:24:34Z</time>
      </trkpt>
      <trkpt lat="43.18213" lon="2.2602">
        <ele>194.8</ele>
        <time>2021-03-21T13:24:36Z</time>
      </trkpt>
      <trkpt lat="43.18223" lon="2.26048">
        <ele>194.1</ele>
        <time>2021-03-21T13:24:38Z</time>
      </trkpt>
      <trkpt lat="43.18224" lon="2.26064">
        <ele>193.7</ele>
        <time>2021-03-21T13:24:39Z</time>
      </trkpt>
      <trkpt lat="43.18223" lon="2.2608">
        <ele>193.2</ele>
        <time>2021-03-21T13:24:40Z</time>
      </trkpt>
      <trkpt lat="43.18218" lon="2.26113">
        <ele>192.2</ele>
        <time>2021-03-21T13:24:42Z</time>
      </trkpt>
      <trkpt lat="43.18213" lon="2.26145">
        <ele>191.4</ele>
        <time>2021-03-21T13:24:44Z</time>
      </trkpt>
      <trkpt lat="43.18207" lon="2.26177">
        <ele>190.6</ele>
        <time>2021-03-21T13:24:46Z</time>
      </trkpt>
      <trkpt lat="43.18205" lon="2.26193">
        <ele>190.2</ele>
        <time>2021-03-21T13:24:47Z</time>
      </trkpt>
      <trkpt lat="43.18202" lon="2.26225">
        <ele>189.4</ele>
        <time>2021-03-21T13:24:49Z</time>
      </trkpt>
      <trkpt lat="43.18207" lon="2.26255">
        <ele>188.7</ele>
        <time>2021-03-21T13:24:51Z</time>
      </trkpt>
      <trkpt lat="43.18215" lon="2.26269">
        <ele>188.3</ele>
        <time>2021-03-21T13:24:52Z</time>
      </trkpt>
      <trkpt lat="43.18236" lon="2.26285">
        <ele>187.4</ele>
        <time>2021-03-21T13:24:54Z</time>
      </trkpt>
      <trkpt lat="43.18248" lon="2.26289">
        <ele>187.1</ele>
        <time>2021-03-21T13:24:55Z</time>
      </trkpt>
      <trkpt lat="43.18271" lon="2.26294">
        <ele>186.6</ele>
        <time>2021-03-21T13:24:57Z</time>
      </trkpt>
      <trkpt lat="43.18292" lon="2.26297">
        <ele>186.3</ele>
        <time>2021-03-21T13:24:59Z</time>
      </trkpt>
      <trkpt lat="43.18303" lon="2.26298">
        <ele>186.3</ele>
        <time>2021-03-21T13:25:00Z</time>
      </trkpt>
      <trkpt lat="43.18313" lon="2.263">
        <ele>186.4</ele>
        <time>2021-03-21T13:25:01Z</time>
      </trkpt>
      <trkpt lat="43.18332" lon="2.26305">
        <ele>186.5</ele>
        <time>2021-03-21T13:25:03Z</time>
      </trkpt>
      <trkpt lat="43.18341" lon="2.26308">
        <ele>186.6</ele>
        <time>2021-03-21T13:25:04Z</time>
      </trkpt>
      <trkpt lat="43.1835" lon="2.2631">
        <ele>186.7</ele>
        <time>2021-03-21T13:25:05Z</time>
      </trkpt>
      <trkpt lat="43.18359" lon="2.26313">
        <ele>186.7</ele>
        <time>2021-03-21T13:25:06Z</time>
      </trkpt>
      <trkpt lat="43.18367" lon="2.26316">
        <ele>186.8</ele>
        <time>2021-03-21T13:25:07Z</time>
      </trkpt>
      <trkpt lat="43.18383" lon="2.26321">
        <ele>187</ele>
        <time>2021-03-21T13:25:09Z</time>
      </trkpt>
      <trkpt lat="43.18391" lon="2.26325">
        <ele>187</ele>
        <time>2021-03-21T13:25:10Z</time>
      </trkpt>
      <trkpt lat="43.18405" lon="2.26335">
        <ele>187.1</ele>
        <time>2021-03-21T13:25:12Z</time>
      </trkpt>
      <trkpt lat="43.18417" lon="2.26349">
        <ele>187.1</ele>
        <time>2021-03-21T13:25:14Z</time>
      </trkpt>
      <trkpt lat="43.18427" lon="2.26368">
        <ele>187.3</ele>
        <time>2021-03-21T13:25:16Z</time>
      </trkpt>
      <trkpt lat="43.18436" lon="2.26389">
        <ele>187.5</ele>
        <time>2021-03-21T13:25:18Z</time>
      </trkpt>
      <trkpt lat="43.18446" lon="2.2641">
        <ele>187.8</ele>
        <time>2021-03-21T13:25:20Z</time>
      </trkpt>
      <trkpt lat="43.18452" lon="2.26421">
        <ele>187.9</ele>
        <time>2021-03-21T13:25:21Z</time>
      </trkpt>
      <trkpt lat="43.18462" lon="2.26441">
        <ele>188.1</ele>
        <time>2021-03-21T13:25:23Z</time>
      </trkpt>
      <trkpt lat="43.18467" lon="2.26451">
        <ele>188.2</ele>
        <time>2021-03-21T13:25:24Z</time>
      </trkpt>
      <trkpt lat="43.18472" lon="2.26461">
        <ele>188.3</ele>
        <time>2021-03-21T13:25:25Z</time>
      </trkpt>
      <trkpt lat="43.18482" lon="2.26481">
        <ele>188.4</ele>
        <time>2021-03-21T13:25:27Z</time>
      </trkpt>
      <trkpt lat="43.18487" lon="2.26491">
        <ele>188.4</ele>
        <time>2021-03-21T13:25:28Z</time>
      </trkpt>
      <trkpt lat="43.18492" lon="2.265">
        <ele>188.4</ele>
        <time>2021-03-21T13:25:29Z</time>
      </trkpt>
      <trkpt lat="43.18496" lon="2.2651">
        <ele>188.5</ele>
        <time>2021-03-21T13:25:30Z</time>
      </trkpt>
      <trkpt lat="43.18504" lon="2.26531">
        <ele>188.6</ele>
        <time>2021-03-21T13:25:32Z</time>
      </trkpt>
      <trkpt lat="43.18508" lon="2.26541">
        <ele>188.6</ele>
        <time>2021-03-21T13:25:33Z</time>
      </trkpt>
      <trkpt lat="43.1851" lon="2.26552">
        <ele>188.6</ele>
        <time>2021-03-21T13:25:34Z</time>
      </trkpt>
      <trkpt lat="43.18514" lon="2.26574">
        <ele>188.5</ele>
        <time>2021-03-21T13:25:36Z</time>
      </trkpt>
      <trkpt lat="43.18514" lon="2.26596">
        <ele>188.3</ele>
        <time>2021-03-21T13:25:38Z</time>
      </trkpt>
      <trkpt lat="43.18512" lon="2.2662">
        <ele>188</ele>
        <time>2021-03-21T13:25:40Z</time>
      </trkpt>
      <trkpt lat="43.18511" lon="2.26632">
        <ele>187.8</ele>
        <time>2021-03-21T13:25:41Z</time>
      </trkpt>
      <trkpt lat="43.18509" lon="2.26644">
        <ele>187.6</ele>
        <time>2021-03-21T13:25:42Z</time>
      </trkpt>
      <trkpt lat="43.18504" lon="2.26666">
        <ele>187.2</ele>
        <time>2021-03-21T13:25:44Z</time>
      </trkpt>
      <trkpt lat="43.18501" lon="2.26677">
        <ele>187</ele>
        <time>2021-03-21T13:25:45Z</time>
      </trkpt>
      <trkpt lat="43.18495" lon="2.26697">
        <ele>186.5</ele>
        <time>2021-03-21T13:25:47Z</time>
      </trkpt>
      <trkpt lat="43.18492" lon="2.26706">
        <ele>186.2</ele>
        <time>2021-03-21T13:25:48Z</time>
      </trkpt>
      <trkpt lat="43.18487" lon="2.26723">
        <ele>185.8</ele>
        <time>2021-03-21T13:25:50Z</time>
      </trkpt>
      <trkpt lat="43.18483" lon="2.2674">
        <ele>185.2</ele>
        <time>2021-03-21T13:25:52Z</time>
      </trkpt>
      <trkpt lat="43.18478" lon="2.2676">
        <ele>184.4</ele>
        <time>2021-03-21T13:25:54Z</time>
      </trkpt>
      <trkpt lat="43.18475" lon="2.26772">
        <ele>184</ele>
        <time>2021-03-21T13:25:55Z</time>
      </trkpt>
      <trkpt lat="43.18471" lon="2.26784">
        <ele>183.7</ele>
        <time>2021-03-21T13:25:56Z</time>
      </trkpt>
      <trkpt lat="43.18468" lon="2.26796">
        <ele>183.3</ele>
        <time>2021-03-21T13:25:57Z</time>
      </trkpt>
      <trkpt lat="43.18461" lon="2.2682">
        <ele>182.7</ele>
        <time>2021-03-21T13:25:59Z</time>
      </trkpt>
      <trkpt lat="43.18454" lon="2.26845">
        <ele>181.9</ele>
        <time>2021-03-21T13:26:01Z</time>
      </trkpt>
      <trkpt lat="43.18447" lon="2.2687">
        <ele>181.1</ele>
        <time>2021-03-21T13:26:03Z</time>
      </trkpt>
      <trkpt lat="43.18445" lon="2.26883">
        <ele>180.6</ele>
        <time>2021-03-21T13:26:04Z</time>
      </trkpt>
      <trkpt lat="43.18442" lon="2.26912">
        <ele>179.7</ele>
        <time>2021-03-21T13:26:06Z</time>
      </trkpt>
      <trkpt lat="43.18442" lon="2.26941">
        <ele>179.1</ele>
        <time>2021-03-21T13:26:08Z</time>
      </trkpt>
      <trkpt lat="43.18444" lon="2.26956">
        <ele>178.6</ele>
        <time>2021-03-21T13:26:09Z</time>
      </trkpt>
      <trkpt lat="43.18447" lon="2.2697">
        <ele>178.2</ele>
        <time>2021-03-21T13:26:10Z</time>
      </trkpt>
      <trkpt lat="43.18452" lon="2.26996">
        <ele>177.4</ele>
        <time>2021-03-21T13:26:12Z</time>
      </trkpt>
      <trkpt lat="43.18454" lon="2.27011">
        <ele>177</ele>
        <time>2021-03-21T13:26:13Z</time>
      </trkpt>
      <trkpt lat="43.18456" lon="2.27026">
        <ele>176.5</ele>
        <time>2021-03-21T13:26:14Z</time>
      </trkpt>
      <trkpt lat="43.18457" lon="2.27041">
        <ele>176.1</ele>
        <time>2021-03-21T13:26:15Z</time>
      </trkpt>
      <trkpt lat="43.18459" lon="2.27073">
        <ele>175.2</ele>
        <time>2021-03-21T13:26:17Z</time>
      </trkpt>
      <trkpt lat="43.18457" lon="2.2709">
        <ele>174.8</ele>
        <time>2021-03-21T13:26:18Z</time>
      </trkpt>
      <trkpt lat="43.18455" lon="2.27108">
        <ele>174.3</ele>
        <time>2021-03-21T13:26:19Z</time>
      </trkpt>
      <trkpt lat="43.18447" lon="2.27142">
        <ele>173.5</ele>
        <time>2021-03-21T13:26:21Z</time>
      </trkpt>
      <trkpt lat="43.1844" lon="2.27176">
        <ele>172.8</ele>
        <time>2021-03-21T13:26:23Z</time>
      </trkpt>
      <trkpt lat="43.18434" lon="2.27207">
        <ele>172.1</ele>
        <time>2021-03-21T13:26:25Z</time>
      </trkpt>
      <trkpt lat="43.18431" lon="2.27223">
        <ele>171.8</ele>
        <time>2021-03-21T13:26:26Z</time>
      </trkpt>
      <trkpt lat="43.18427" lon="2.27256">
        <ele>171.1</ele>
        <time>2021-03-21T13:26:28Z</time>
      </trkpt>
      <trkpt lat="43.18424" lon="2.27288">
        <ele>170.5</ele>
        <time>2021-03-21T13:26:30Z</time>
      </trkpt>
      <trkpt lat="43.18422" lon="2.27321">
        <ele>169.8</ele>
        <time>2021-03-21T13:26:32Z</time>
      </trkpt>
      <trkpt lat="43.18421" lon="2.27337">
        <ele>169.5</ele>
        <time>2021-03-21T13:26:33Z</time>
      </trkpt>
      <trkpt lat="43.18417" lon="2.2737">
        <ele>168.7</ele>
        <time>2021-03-21T13:26:35Z</time>
      </trkpt>
      <trkpt lat="43.18413" lon="2.27402">
        <ele>168.1</ele>
        <time>2021-03-21T13:26:37Z</time>
      </trkpt>
      <trkpt lat="43.18409" lon="2.27434">
        <ele>167.6</ele>
        <time>2021-03-21T13:26:39Z</time>
      </trkpt>
      <trkpt lat="43.18407" lon="2.2745">
        <ele>167.3</ele>
        <time>2021-03-21T13:26:40Z</time>
      </trkpt>
      <trkpt lat="43.18405" lon="2.27466">
        <ele>167</ele>
        <time>2021-03-21T13:26:41Z</time>
      </trkpt>
      <trkpt lat="43.18403" lon="2.27497">
        <ele>166.6</ele>
        <time>2021-03-21T13:26:43Z</time>
      </trkpt>
      <trkpt lat="43.18404" lon="2.27528">
        <ele>166.2</ele>
        <time>2021-03-21T13:26:45Z</time>
      </trkpt>
      <trkpt lat="43.18406" lon="2.27559">
        <ele>165.6</ele>
        <time>2021-03-21T13:26:47Z</time>
      </trkpt>
      <trkpt lat="43.18408" lon="2.27591">
        <ele>165.1</ele>
        <time>2021-03-21T13:26:49Z</time>
      </trkpt>
      <trkpt lat="43.18409" lon="2.27607">
        <ele>164.8</ele>
        <time>2021-03-21T13:26:50Z</time>
      </trkpt>
      <trkpt lat="43.1841" lon="2.27623">
        <ele>164.5</ele>
        <time>2021-03-21T13:26:51Z</time>
      </trkpt>
      <trkpt lat="43.18413" lon="2.27655">
        <ele>163.8</ele>
        <time>2021-03-21T13:26:53Z</time>
      </trkpt>
      <trkpt lat="43.18414" lon="2.27671">
        <ele>163.5</ele>
        <time>2021-03-21T13:26:54Z</time>
      </trkpt>
      <trkpt lat="43.18417" lon="2.27703">
        <ele>162.9</ele>
        <time>2021-03-21T13:26:56Z</time>
      </trkpt>
      <trkpt lat="43.18418" lon="2.27719">
        <ele>162.7</ele>
        <time>2021-03-21T13:26:57Z</time>
      </trkpt>
      <trkpt lat="43.1842" lon="2.27751">
        <ele>162.2</ele>
        <time>2021-03-21T13:26:59Z</time>
      </trkpt>
      <trkpt lat="43.18421" lon="2.27767">
        <ele>162</ele>
        <time>2021-03-21T13:27:00Z</time>
      </trkpt>
      <trkpt lat="43.18424" lon="2.27799">
        <ele>161.8</ele>
        <time>2021-03-21T13:27:02Z</time>
      </trkpt>
      <trkpt lat="43.18425" lon="2.27815">
        <ele>161.6</ele>
        <time>2021-03-21T13:27:03Z</time>
      </trkpt>
      <trkpt lat="43.18426" lon="2.27831">
        <ele>161.5</ele>
        <time>2021-03-21T13:27:04Z</time>
      </trkpt>
      <trkpt lat="43.18428" lon="2.27864">
        <ele>161.3</ele>
        <time>2021-03-21T13:27:06Z</time>
      </trkpt>
      <trkpt lat="43.1843" lon="2.27897">
        <ele>160.9</ele>
        <time>2021-03-21T13:27:08Z</time>
      </trkpt>
      <trkpt lat="43.18433" lon="2.27931">
        <ele>160.6</ele>
        <time>2021-03-21T13:27:10Z</time>
      </trkpt>
      <trkpt lat="43.18436" lon="2.27948">
        <ele>160.3</ele>
        <time>2021-03-21T13:27:11Z</time>
      </trkpt>
      <trkpt lat="43.18438" lon="2.27964">
        <ele>160.2</ele>
        <time>2021-03-21T13:27:12Z</time>
      </trkpt>
      <trkpt lat="43.18442" lon="2.2798">
        <ele>160</ele>
        <time>2021-03-21T13:27:13Z</time>
      </trkpt>
      <trkpt lat="43.18452" lon="2.28011">
        <ele>159.7</ele>
        <time>2021-03-21T13:27:15Z</time>
      </trkpt>
      <trkpt lat="43.18458" lon="2.28026">
        <ele>159.4</ele>
        <time>2021-03-21T13:27:16Z</time>
      </trkpt>
      <trkpt lat="43.18465" lon="2.2804">
        <ele>159.2</ele>
        <time>2021-03-21T13:27:17Z</time>
      </trkpt>
      <trkpt lat="43.18479" lon="2.28068">
        <ele>158.8</ele>
        <time>2021-03-21T13:27:19Z</time>
      </trkpt>
      <trkpt lat="43.18493" lon="2.28096">
        <ele>158.4</ele>
        <time>2021-03-21T13:27:21Z</time>
      </trkpt>
      <trkpt lat="43.18507" lon="2.28124">
        <ele>158.1</ele>
        <time>2021-03-21T13:27:23Z</time>
      </trkpt>
      <trkpt lat="43.18513" lon="2.28139">
        <ele>157.8</ele>
        <time>2021-03-21T13:27:24Z</time>
      </trkpt>
      <trkpt lat="43.18526" lon="2.28166">
        <ele>157.4</ele>
        <time>2021-03-21T13:27:26Z</time>
      </trkpt>
      <trkpt lat="43.18533" lon="2.28181">
        <ele>157.2</ele>
        <time>2021-03-21T13:27:27Z</time>
      </trkpt>
      <trkpt lat="43.18546" lon="2.2821">
        <ele>156.8</ele>
        <time>2021-03-21T13:27:29Z</time>
      </trkpt>
      <trkpt lat="43.18552" lon="2.28225">
        <ele>156.6</ele>
        <time>2021-03-21T13:27:30Z</time>
      </trkpt>
      <trkpt lat="43.18564" lon="2.28255">
        <ele>156.2</ele>
        <time>2021-03-21T13:27:32Z</time>
      </trkpt>
      <trkpt lat="43.1857" lon="2.2827">
        <ele>155.9</ele>
        <time>2021-03-21T13:27:33Z</time>
      </trkpt>
      <trkpt lat="43.18579" lon="2.28301">
        <ele>155.5</ele>
        <time>2021-03-21T13:27:35Z</time>
      </trkpt>
      <trkpt lat="43.18582" lon="2.28317">
        <ele>155.3</ele>
        <time>2021-03-21T13:27:36Z</time>
      </trkpt>
      <trkpt lat="43.18588" lon="2.28349">
        <ele>154.8</ele>
        <time>2021-03-21T13:27:38Z</time>
      </trkpt>
      <trkpt lat="43.1859" lon="2.28365">
        <ele>154.6</ele>
        <time>2021-03-21T13:27:39Z</time>
      </trkpt>
      <trkpt lat="43.18593" lon="2.28381">
        <ele>154.4</ele>
        <time>2021-03-21T13:27:40Z</time>
      </trkpt>
      <trkpt lat="43.186" lon="2.28413">
        <ele>153.9</ele>
        <time>2021-03-21T13:27:42Z</time>
      </trkpt>
      <trkpt lat="43.18603" lon="2.28429">
        <ele>153.7</ele>
        <time>2021-03-21T13:27:43Z</time>
      </trkpt>
      <trkpt lat="43.18609" lon="2.28459">
        <ele>153.4</ele>
        <time>2021-03-21T13:27:45Z</time>
      </trkpt>
      <trkpt lat="43.18613" lon="2.28474">
        <ele>153.2</ele>
        <time>2021-03-21T13:27:46Z</time>
      </trkpt>
      <trkpt lat="43.18619" lon="2.28504">
        <ele>152.9</ele>
        <time>2021-03-21T13:27:48Z</time>
      </trkpt>
      <trkpt lat="43.18626" lon="2.28534">
        <ele>152.5</ele>
        <time>2021-03-21T13:27:50Z</time>
      </trkpt>
      <trkpt lat="43.18632" lon="2.28565">
        <ele>152.1</ele>
        <time>2021-03-21T13:27:52Z</time>
      </trkpt>
      <trkpt lat="43.18636" lon="2.2858">
        <ele>152</ele>
        <time>2021-03-21T13:27:53Z</time>
      </trkpt>
      <trkpt lat="43.18642" lon="2.28611">
        <ele>151.7</ele>
        <time>2021-03-21T13:27:55Z</time>
      </trkpt>
      <trkpt lat="43.18646" lon="2.28627">
        <ele>151.5</ele>
        <time>2021-03-21T13:27:56Z</time>
      </trkpt>
      <trkpt lat="43.18652" lon="2.28657">
        <ele>151.2</ele>
        <time>2021-03-21T13:27:58Z</time>
      </trkpt>
      <trkpt lat="43.18656" lon="2.28673">
        <ele>151</ele>
        <time>2021-03-21T13:27:59Z</time>
      </trkpt>
      <trkpt lat="43.18663" lon="2.28702">
        <ele>150.6</ele>
        <time>2021-03-21T13:28:01Z</time>
      </trkpt>
      <trkpt lat="43.18667" lon="2.28717">
        <ele>150.4</ele>
        <time>2021-03-21T13:28:02Z</time>
      </trkpt>
      <trkpt lat="43.18675" lon="2.28746">
        <ele>150</ele>
        <time>2021-03-21T13:28:04Z</time>
      </trkpt>
      <trkpt lat="43.18679" lon="2.28759">
        <ele>149.8</ele>
        <time>2021-03-21T13:28:05Z</time>
      </trkpt>
      <trkpt lat="43.18685" lon="2.28773">
        <ele>149.6</ele>
        <time>2021-03-21T13:28:06Z</time>
      </trkpt>
      <trkpt lat="43.18696" lon="2.28799">
        <ele>149.1</ele>
        <time>2021-03-21T13:28:08Z</time>
      </trkpt>
      <trkpt lat="43.18702" lon="2.28811">
        <ele>148.9</ele>
        <time>2021-03-21T13:28:09Z</time>
      </trkpt>
      <trkpt lat="43.18715" lon="2.28836">
        <ele>148.5</ele>
        <time>2021-03-21T13:28:11Z</time>
      </trkpt>
      <trkpt lat="43.18722" lon="2.28847">
        <ele>148.2</ele>
        <time>2021-03-21T13:28:12Z</time>
      </trkpt>
      <trkpt lat="43.18737" lon="2.28869">
        <ele>147.6</ele>
        <time>2021-03-21T13:28:14Z</time>
      </trkpt>
      <trkpt lat="43.18754" lon="2.28889">
        <ele>147</ele>
        <time>2021-03-21T13:28:16Z</time>
      </trkpt>
      <trkpt lat="43.18762" lon="2.28898">
        <ele>146.7</ele>
        <time>2021-03-21T13:28:17Z</time>
      </trkpt>
      <trkpt lat="43.18771" lon="2.28908">
        <ele>146.4</ele>
        <time>2021-03-21T13:28:18Z</time>
      </trkpt>
      <trkpt lat="43.18788" lon="2.28926">
        <ele>145.8</ele>
        <time>2021-03-21T13:28:20Z</time>
      </trkpt>
      <trkpt lat="43.18796" lon="2.28936">
        <ele>145.6</ele>
        <time>2021-03-21T13:28:21Z</time>
      </trkpt>
      <trkpt lat="43.18804" lon="2.28946">
        <ele>145.3</ele>
        <time>2021-03-21T13:28:22Z</time>
      </trkpt>
      <trkpt lat="43.18812" lon="2.28956">
        <ele>145</ele>
        <time>2021-03-21T13:28:23Z</time>
      </trkpt>
      <trkpt lat="43.18819" lon="2.28966">
        <ele>144.7</ele>
        <time>2021-03-21T13:28:24Z</time>
      </trkpt>
      <trkpt lat="43.18834" lon="2.28988">
        <ele>144</ele>
        <time>2021-03-21T13:28:26Z</time>
      </trkpt>
      <trkpt lat="43.18848" lon="2.29011">
        <ele>143.4</ele>
        <time>2021-03-21T13:28:28Z</time>
      </trkpt>
      <trkpt lat="43.18861" lon="2.29036">
        <ele>142.7</ele>
        <time>2021-03-21T13:28:30Z</time>
      </trkpt>
      <trkpt lat="43.18867" lon="2.29049">
        <ele>142.4</ele>
        <time>2021-03-21T13:28:31Z</time>
      </trkpt>
      <trkpt lat="43.18878" lon="2.29075">
        <ele>141.8</ele>
        <time>2021-03-21T13:28:33Z</time>
      </trkpt>
      <trkpt lat="43.18887" lon="2.29102">
        <ele>141.2</ele>
        <time>2021-03-21T13:28:35Z</time>
      </trkpt>
      <trkpt lat="43.18891" lon="2.29117">
        <ele>140.9</ele>
        <time>2021-03-21T13:28:36Z</time>
      </trkpt>
      <trkpt lat="43.18898" lon="2.29146">
        <ele>140.3</ele>
        <time>2021-03-21T13:28:38Z</time>
      </trkpt>
      <trkpt lat="43.18904" lon="2.29175">
        <ele>139.7</ele>
        <time>2021-03-21T13:28:40Z</time>
      </trkpt>
      <trkpt lat="43.18908" lon="2.29189">
        <ele>139.4</ele>
        <time>2021-03-21T13:28:41Z</time>
      </trkpt>
      <trkpt lat="43.18915" lon="2.29218">
        <ele>138.8</ele>
        <time>2021-03-21T13:28:43Z</time>
      </trkpt>
      <trkpt lat="43.18923" lon="2.29248">
        <ele>138.2</ele>
        <time>2021-03-21T13:28:45Z</time>
      </trkpt>
      <trkpt lat="43.18927" lon="2.29262">
        <ele>137.9</ele>
        <time>2021-03-21T13:28:46Z</time>
      </trkpt>
      <trkpt lat="43.18932" lon="2.29277">
        <ele>137.6</ele>
        <time>2021-03-21T13:28:47Z</time>
      </trkpt>
      <trkpt lat="43.18943" lon="2.29306">
        <ele>136.9</ele>
        <time>2021-03-21T13:28:49Z</time>
      </trkpt>
      <trkpt lat="43.18948" lon="2.2932">
        <ele>136.5</ele>
        <time>2021-03-21T13:28:50Z</time>
      </trkpt>
      <trkpt lat="43.18954" lon="2.29334">
        <ele>136.2</ele>
        <time>2021-03-21T13:28:51Z</time>
      </trkpt>
      <trkpt lat="43.18966" lon="2.29362">
        <ele>135.5</ele>
        <time>2021-03-21T13:28:53Z</time>
      </trkpt>
      <trkpt lat="43.18972" lon="2.29375">
        <ele>135.1</ele>
        <time>2021-03-21T13:28:54Z</time>
      </trkpt>
      <trkpt lat="43.18986" lon="2.294">
        <ele>134.4</ele>
        <time>2021-03-21T13:28:56Z</time>
      </trkpt>
      <trkpt lat="43.18999" lon="2.29425">
        <ele>133.8</ele>
        <time>2021-03-21T13:28:58Z</time>
      </trkpt>
      <trkpt lat="43.19013" lon="2.2945">
        <ele>133.1</ele>
        <time>2021-03-21T13:29:00Z</time>
      </trkpt>
      <trkpt lat="43.19027" lon="2.29475">
        <ele>132.5</ele>
        <time>2021-03-21T13:29:02Z</time>
      </trkpt>
      <trkpt lat="43.19034" lon="2.29488">
        <ele>132.2</ele>
        <time>2021-03-21T13:29:03Z</time>
      </trkpt>
      <trkpt lat="43.19041" lon="2.295">
        <ele>131.9</ele>
        <time>2021-03-21T13:29:04Z</time>
      </trkpt>
      <trkpt lat="43.19055" lon="2.29526">
        <ele>131.5</ele>
        <time>2021-03-21T13:29:06Z</time>
      </trkpt>
      <trkpt lat="43.19062" lon="2.29539">
        <ele>131.3</ele>
        <time>2021-03-21T13:29:07Z</time>
      </trkpt>
      <trkpt lat="43.19075" lon="2.29565">
        <ele>130.9</ele>
        <time>2021-03-21T13:29:09Z</time>
      </trkpt>
      <trkpt lat="43.19088" lon="2.2959">
        <ele>130.4</ele>
        <time>2021-03-21T13:29:11Z</time>
      </trkpt>
      <trkpt lat="43.19101" lon="2.29615">
        <ele>130.1</ele>
        <time>2021-03-21T13:29:13Z</time>
      </trkpt>
      <trkpt lat="43.19108" lon="2.29627">
        <ele>130</ele>
        <time>2021-03-21T13:29:14Z</time>
      </trkpt>
      <trkpt lat="43.1912" lon="2.29652">
        <ele>129.7</ele>
        <time>2021-03-21T13:29:16Z</time>
      </trkpt>
      <trkpt lat="43.19132" lon="2.29676">
        <ele>129.4</ele>
        <time>2021-03-21T13:29:18Z</time>
      </trkpt>
      <trkpt lat="43.19137" lon="2.29688">
        <ele>129.3</ele>
        <time>2021-03-21T13:29:19Z</time>
      </trkpt>
      <trkpt lat="43.19149" lon="2.29711">
        <ele>129.2</ele>
        <time>2021-03-21T13:29:21Z</time>
      </trkpt>
      <trkpt lat="43.19155" lon="2.29723">
        <ele>129.1</ele>
        <time>2021-03-21T13:29:22Z</time>
      </trkpt>
      <trkpt lat="43.19161" lon="2.29735">
        <ele>129</ele>
        <time>2021-03-21T13:29:23Z</time>
      </trkpt>
      <trkpt lat="43.19173" lon="2.29758">
        <ele>129</ele>
        <time>2021-03-21T13:29:25Z</time>
      </trkpt>
      <trkpt lat="43.19184" lon="2.29781">
        <ele>129</ele>
        <time>2021-03-21T13:29:27Z</time>
      </trkpt>
      <trkpt lat="43.19197" lon="2.29803">
        <ele>129.1</ele>
        <time>2021-03-21T13:29:29Z</time>
      </trkpt>
      <trkpt lat="43.19203" lon="2.29813">
        <ele>129.3</ele>
        <time>2021-03-21T13:29:30Z</time>
      </trkpt>
      <trkpt lat="43.1921" lon="2.29822">
        <ele>129.4</ele>
        <time>2021-03-21T13:29:31Z</time>
      </trkpt>
      <trkpt lat="43.19218" lon="2.29829">
        <ele>129.6</ele>
        <time>2021-03-21T13:29:32Z</time>
      </trkpt>
      <trkpt lat="43.19235" lon="2.29837">
        <ele>130</ele>
        <time>2021-03-21T13:29:34Z</time>
      </trkpt>
      <trkpt lat="43.19252" lon="2.2984">
        <ele>130</ele>
        <time>2021-03-21T13:29:36Z</time>
      </trkpt>
      <trkpt lat="43.1927" lon="2.29843">
        <ele>129.8</ele>
        <time>2021-03-21T13:29:38Z</time>
      </trkpt>
      <trkpt lat="43.19287" lon="2.29847">
        <ele>129.6</ele>
        <time>2021-03-21T13:29:40Z</time>
      </trkpt>
      <trkpt lat="43.19296" lon="2.2985">
        <ele>129.5</ele>
        <time>2021-03-21T13:29:41Z</time>
      </trkpt>
      <trkpt lat="43.19304" lon="2.29854">
        <ele>129.3</ele>
        <time>2021-03-21T13:29:42Z</time>
      </trkpt>
      <trkpt lat="43.19312" lon="2.2986">
        <ele>129.1</ele>
        <time>2021-03-21T13:29:43Z</time>
      </trkpt>
      <trkpt lat="43.1932" lon="2.29867">
        <ele>129</ele>
        <time>2021-03-21T13:29:44Z</time>
      </trkpt>
      <trkpt lat="43.19334" lon="2.29885">
        <ele>128.8</ele>
        <time>2021-03-21T13:29:46Z</time>
      </trkpt>
      <trkpt lat="43.1934" lon="2.29896">
        <ele>128.7</ele>
        <time>2021-03-21T13:29:47Z</time>
      </trkpt>
      <trkpt lat="43.19348" lon="2.29922">
        <ele>128.4</ele>
        <time>2021-03-21T13:29:49Z</time>
      </trkpt>
      <trkpt lat="43.1935" lon="2.29935">
        <ele>128.3</ele>
        <time>2021-03-21T13:29:50Z</time>
      </trkpt>
      <trkpt lat="43.19351" lon="2.29949">
        <ele>128.2</ele>
        <time>2021-03-21T13:29:51Z</time>
      </trkpt>
      <trkpt lat="43.19351" lon="2.29977">
        <ele>128</ele>
        <time>2021-03-21T13:29:53Z</time>
      </trkpt>
      <trkpt lat="43.1935" lon="2.29991">
        <ele>127.9</ele>
        <time>2021-03-21T13:29:54Z</time>
      </trkpt>
      <trkpt lat="43.1935" lon="2.30019">
        <ele>127.7</ele>
        <time>2021-03-21T13:29:56Z</time>
      </trkpt>
      <trkpt lat="43.19349" lon="2.30046">
        <ele>127.6</ele>
        <time>2021-03-21T13:29:58Z</time>
      </trkpt>
      <trkpt lat="43.19348" lon="2.3006">
        <ele>127.6</ele>
        <time>2021-03-21T13:29:59Z</time>
      </trkpt>
      <trkpt lat="43.19346" lon="2.30088">
        <ele>127.4</ele>
        <time>2021-03-21T13:30:01Z</time>
      </trkpt>
      <trkpt lat="43.19346" lon="2.30102">
        <ele>127.4</ele>
        <time>2021-03-21T13:30:02Z</time>
      </trkpt>
      <trkpt lat="43.19345" lon="2.30117">
        <ele>127.3</ele>
        <time>2021-03-21T13:30:03Z</time>
      </trkpt>
      <trkpt lat="43.19344" lon="2.30131">
        <ele>127.3</ele>
        <time>2021-03-21T13:30:04Z</time>
      </trkpt>
      <trkpt lat="43.19342" lon="2.30159">
        <ele>127.1</ele>
        <time>2021-03-21T13:30:06Z</time>
      </trkpt>
      <trkpt lat="43.19341" lon="2.30174">
        <ele>127</ele>
        <time>2021-03-21T13:30:07Z</time>
      </trkpt>
      <trkpt lat="43.19339" lon="2.30202">
        <ele>126.8</ele>
        <time>2021-03-21T13:30:09Z</time>
      </trkpt>
      <trkpt lat="43.19338" lon="2.30216">
        <ele>126.7</ele>
        <time>2021-03-21T13:30:10Z</time>
      </trkpt>
      <trkpt lat="43.19336" lon="2.30245">
        <ele>126.5</ele>
        <time>2021-03-21T13:30:12Z</time>
      </trkpt>
      <trkpt lat="43.19335" lon="2.30259">
        <ele>126.5</ele>
        <time>2021-03-21T13:30:13Z</time>
      </trkpt>
      <trkpt lat="43.19333" lon="2.30287">
        <ele>126.3</ele>
        <time>2021-03-21T13:30:15Z</time>
      </trkpt>
      <trkpt lat="43.19331" lon="2.30316">
        <ele>126.2</ele>
        <time>2021-03-21T13:30:17Z</time>
      </trkpt>
      <trkpt lat="43.19328" lon="2.30345">
        <ele>126</ele>
        <time>2021-03-21T13:30:19Z</time>
      </trkpt>
      <trkpt lat="43.19326" lon="2.30375">
        <ele>125.9</ele>
        <time>2021-03-21T13:30:21Z</time>
      </trkpt>
      <trkpt lat="43.19324" lon="2.30405">
        <ele>125.7</ele>
        <time>2021-03-21T13:30:23Z</time>
      </trkpt>
      <trkpt lat="43.19324" lon="2.3042">
        <ele>125.6</ele>
        <time>2021-03-21T13:30:24Z</time>
      </trkpt>
      <trkpt lat="43.19322" lon="2.3045">
        <ele>125.5</ele>
        <time>2021-03-21T13:30:26Z</time>
      </trkpt>
      <trkpt lat="43.1932" lon="2.3048">
        <ele>125.3</ele>
        <time>2021-03-21T13:30:28Z</time>
      </trkpt>
      <trkpt lat="43.19319" lon="2.30495">
        <ele>125.2</ele>
        <time>2021-03-21T13:30:29Z</time>
      </trkpt>
      <trkpt lat="43.19317" lon="2.30527">
        <ele>125.1</ele>
        <time>2021-03-21T13:30:31Z</time>
      </trkpt>
      <trkpt lat="43.19315" lon="2.30557">
        <ele>125</ele>
        <time>2021-03-21T13:30:33Z</time>
      </trkpt>
      <trkpt lat="43.19314" lon="2.30572">
        <ele>125</ele>
        <time>2021-03-21T13:30:34Z</time>
      </trkpt>
      <trkpt lat="43.19312" lon="2.30603">
        <ele>125</ele>
        <time>2021-03-21T13:30:36Z</time>
      </trkpt>
      <trkpt lat="43.1931" lon="2.30633">
        <ele>124.9</ele>
        <time>2021-03-21T13:30:38Z</time>
      </trkpt>
      <trkpt lat="43.19308" lon="2.30663">
        <ele>124.9</ele>
        <time>2021-03-21T13:30:40Z</time>
      </trkpt>
      <trkpt lat="43.19306" lon="2.30692">
        <ele>124.8</ele>
        <time>2021-03-21T13:30:42Z</time>
      </trkpt>
      <trkpt lat="43.19305" lon="2.3072">
        <ele>124.9</ele>
        <time>2021-03-21T13:30:44Z</time>
      </trkpt>
      <trkpt lat="43.19303" lon="2.30748">
        <ele>124.9</ele>
        <time>2021-03-21T13:30:46Z</time>
      </trkpt>
      <trkpt lat="43.19303" lon="2.30761">
        <ele>125</ele>
        <time>2021-03-21T13:30:47Z</time>
      </trkpt>
      <trkpt lat="43.19302" lon="2.30775">
        <ele>125</ele>
        <time>2021-03-21T13:30:48Z</time>
      </trkpt>
      <trkpt lat="43.193" lon="2.30801">
        <ele>124.9</ele>
        <time>2021-03-21T13:30:50Z</time>
      </trkpt>
      <trkpt lat="43.19298" lon="2.30825">
        <ele>125</ele>
        <time>2021-03-21T13:30:52Z</time>
      </trkpt>
      <trkpt lat="43.19298" lon="2.30837">
        <ele>125</ele>
        <time>2021-03-21T13:30:53Z</time>
      </trkpt>
      <trkpt lat="43.19296" lon="2.3086">
        <ele>125</ele>
        <time>2021-03-21T13:30:55Z</time>
      </trkpt>
      <trkpt lat="43.19295" lon="2.30872">
        <ele>125</ele>
        <time>2021-03-21T13:30:56Z</time>
      </trkpt>
      <trkpt lat="43.1929" lon="2.30897">
        <ele>124.9</ele>
        <time>2021-03-21T13:30:58Z</time>
      </trkpt>
      <trkpt lat="43.19284" lon="2.30921">
        <ele>124.8</ele>
        <time>2021-03-21T13:31:00Z</time>
      </trkpt>
      <trkpt lat="43.19275" lon="2.30944">
        <ele>124.7</ele>
        <time>2021-03-21T13:31:02Z</time>
      </trkpt>
      <trkpt lat="43.1927" lon="2.30956">
        <ele>124.6</ele>
        <time>2021-03-21T13:31:03Z</time>
      </trkpt>
      <trkpt lat="43.19261" lon="2.3098">
        <ele>124.5</ele>
        <time>2021-03-21T13:31:05Z</time>
      </trkpt>
      <trkpt lat="43.19257" lon="2.30992">
        <ele>124.4</ele>
        <time>2021-03-21T13:31:06Z</time>
      </trkpt>
      <trkpt lat="43.19253" lon="2.31018">
        <ele>124.3</ele>
        <time>2021-03-21T13:31:08Z</time>
      </trkpt>
      <trkpt lat="43.19252" lon="2.31043">
        <ele>124.2</ele>
        <time>2021-03-21T13:31:10Z</time>
      </trkpt>
      <trkpt lat="43.19254" lon="2.31069">
        <ele>124.1</ele>
        <time>2021-03-21T13:31:12Z</time>
      </trkpt>
      <trkpt lat="43.19257" lon="2.31081">
        <ele>124.2</ele>
        <time>2021-03-21T13:31:13Z</time>
      </trkpt>
      <trkpt lat="43.19265" lon="2.31105">
        <ele>124.3</ele>
        <time>2021-03-21T13:31:15Z</time>
      </trkpt>
      <trkpt lat="43.1927" lon="2.31115">
        <ele>124.3</ele>
        <time>2021-03-21T13:31:16Z</time>
      </trkpt>
      <trkpt lat="43.19281" lon="2.31133">
        <ele>124.5</ele>
        <time>2021-03-21T13:31:18Z</time>
      </trkpt>
      <trkpt lat="43.19286" lon="2.31143">
        <ele>124.7</ele>
        <time>2021-03-21T13:31:19Z</time>
      </trkpt>
      <trkpt lat="43.19292" lon="2.31153">
        <ele>125</ele>
        <time>2021-03-21T13:31:20Z</time>
      </trkpt>
      <trkpt lat="43.19297" lon="2.31163">
        <ele>125.3</ele>
        <time>2021-03-21T13:31:21Z</time>
      </trkpt>
      <trkpt lat="43.19307" lon="2.31183">
        <ele>125.9</ele>
        <time>2021-03-21T13:31:23Z</time>
      </trkpt>
      <trkpt lat="43.19315" lon="2.31205">
        <ele>126.5</ele>
        <time>2021-03-21T13:31:25Z</time>
      </trkpt>
      <trkpt lat="43.1932" lon="2.31227">
        <ele>127.2</ele>
        <time>2021-03-21T13:31:27Z</time>
      </trkpt>
      <trkpt lat="43.19325" lon="2.31236">
        <ele>127.6</ele>
        <time>2021-03-21T13:31:28Z</time>
      </trkpt>
      <trkpt lat="43.1933" lon="2.31243">
        <ele>127.9</ele>
        <time>2021-03-21T13:31:29Z</time>
      </trkpt>
      <trkpt lat="43.19339" lon="2.31256">
        <ele>128.4</ele>
        <time>2021-03-21T13:31:31Z</time>
      </trkpt>
      <trkpt lat="43.19342" lon="2.31263">
        <ele>128.6</ele>
        <time>2021-03-21T13:31:32Z</time>
      </trkpt>
      <trkpt lat="43.19345" lon="2.31271">
        <ele>128.8</ele>
        <time>2021-03-21T13:31:33Z</time>
      </trkpt>
      <trkpt lat="43.19348" lon="2.3128">
        <ele>129</ele>
        <time>2021-03-21T13:31:34Z</time>
      </trkpt>
      <trkpt lat="43.19353" lon="2.31298">
        <ele>129.5</ele>
        <time>2021-03-21T13:31:36Z</time>
      </trkpt>
      <trkpt lat="43.19355" lon="2.31308">
        <ele>129.7</ele>
        <time>2021-03-21T13:31:37Z</time>
      </trkpt>
      <trkpt lat="43.19357" lon="2.31318">
        <ele>129.9</ele>
        <time>2021-03-21T13:31:38Z</time>
      </trkpt>
      <trkpt lat="43.19361" lon="2.31338">
        <ele>130.2</ele>
        <time>2021-03-21T13:31:40Z</time>
      </trkpt>
      <trkpt lat="43.19365" lon="2.31358">
        <ele>130.4</ele>
        <time>2021-03-21T13:31:42Z</time>
      </trkpt>
      <trkpt lat="43.19367" lon="2.31368">
        <ele>130.5</ele>
        <time>2021-03-21T13:31:43Z</time>
      </trkpt>
      <trkpt lat="43.19372" lon="2.31388">
        <ele>130.7</ele>
        <time>2021-03-21T13:31:45Z</time>
      </trkpt>
      <trkpt lat="43.19377" lon="2.31408">
        <ele>130.9</ele>
        <time>2021-03-21T13:31:47Z</time>
      </trkpt>
      <trkpt lat="43.1938" lon="2.31418">
        <ele>131</ele>
        <time>2021-03-21T13:31:48Z</time>
      </trkpt>
      <trkpt lat="43.19384" lon="2.31438">
        <ele>131.2</ele>
        <time>2021-03-21T13:31:50Z</time>
      </trkpt>
      <trkpt lat="43.19386" lon="2.31447">
        <ele>131.4</ele>
        <time>2021-03-21T13:31:51Z</time>
      </trkpt>
      <trkpt lat="43.19388" lon="2.31457">
        <ele>131.5</ele>
        <time>2021-03-21T13:31:52Z</time>
      </trkpt>
      <trkpt lat="43.19393" lon="2.31477">
        <ele>131.8</ele>
        <time>2021-03-21T13:31:54Z</time>
      </trkpt>
      <trkpt lat="43.19395" lon="2.31486">
        <ele>132</ele>
        <time>2021-03-21T13:31:55Z</time>
      </trkpt>
      <trkpt lat="43.19399" lon="2.31506">
        <ele>132.2</ele>
        <time>2021-03-21T13:31:57Z</time>
      </trkpt>
      <trkpt lat="43.19401" lon="2.31515">
        <ele>132.2</ele>
        <time>2021-03-21T13:31:58Z</time>
      </trkpt>
      <trkpt lat="43.19406" lon="2.31534">
        <ele>132.3</ele>
        <time>2021-03-21T13:32:00Z</time>
      </trkpt>
      <trkpt lat="43.19409" lon="2.31544">
        <ele>132.3</ele>
        <time>2021-03-21T13:32:01Z</time>
      </trkpt>
      <trkpt lat="43.19412" lon="2.31554">
        <ele>132.4</ele>
        <time>2021-03-21T13:32:02Z</time>
      </trkpt>
      <trkpt lat="43.19415" lon="2.31564">
        <ele>132.4</ele>
        <time>2021-03-21T13:32:03Z</time>
      </trkpt>
      <trkpt lat="43.19421" lon="2.31585">
        <ele>132.5</ele>
        <time>2021-03-21T13:32:05Z</time>
      </trkpt>
      <trkpt lat="43.19424" lon="2.31596">
        <ele>132.5</ele>
        <time>2021-03-21T13:32:06Z</time>
      </trkpt>
      <trkpt lat="43.19427" lon="2.31606">
        <ele>132.5</ele>
        <time>2021-03-21T13:32:07Z</time>
      </trkpt>
      <trkpt lat="43.19429" lon="2.31617">
        <ele>132.5</ele>
        <time>2021-03-21T13:32:08Z</time>
      </trkpt>
      <trkpt lat="43.19431" lon="2.31628">
        <ele>132.6</ele>
        <time>2021-03-21T13:32:09Z</time>
      </trkpt>
      <trkpt lat="43.19438" lon="2.3165">
        <ele>132.6</ele>
        <time>2021-03-21T13:32:11Z</time>
      </trkpt>
      <trkpt lat="43.19444" lon="2.31671">
        <ele>132.7</ele>
        <time>2021-03-21T13:32:13Z</time>
      </trkpt>
      <trkpt lat="43.19448" lon="2.31682">
        <ele>132.7</ele>
        <time>2021-03-21T13:32:14Z</time>
      </trkpt>
      <trkpt lat="43.19451" lon="2.31692">
        <ele>132.7</ele>
        <time>2021-03-21T13:32:15Z</time>
      </trkpt>
      <trkpt lat="43.19456" lon="2.31712">
        <ele>132.7</ele>
        <time>2021-03-21T13:32:17Z</time>
      </trkpt>
      <trkpt lat="43.19459" lon="2.31722">
        <ele>132.8</ele>
        <time>2021-03-21T13:32:18Z</time>
      </trkpt>
      <trkpt lat="43.19462" lon="2.31732">
        <ele>132.8</ele>
        <time>2021-03-21T13:32:19Z</time>
      </trkpt>
      <trkpt lat="43.19467" lon="2.31753">
        <ele>132.9</ele>
        <time>2021-03-21T13:32:21Z</time>
      </trkpt>
      <trkpt lat="43.19469" lon="2.31763">
        <ele>132.9</ele>
        <time>2021-03-21T13:32:22Z</time>
      </trkpt>
      <trkpt lat="43.19472" lon="2.31784">
        <ele>133</ele>
        <time>2021-03-21T13:32:24Z</time>
      </trkpt>
      <trkpt lat="43.19469" lon="2.31804">
        <ele>133.1</ele>
        <time>2021-03-21T13:32:26Z</time>
      </trkpt>
      <trkpt lat="43.19466" lon="2.31814">
        <ele>133.1</ele>
        <time>2021-03-21T13:32:27Z</time>
      </trkpt>
      <trkpt lat="43.19463" lon="2.31825">
        <ele>133.2</ele>
        <time>2021-03-21T13:32:28Z</time>
      </trkpt>
      <trkpt lat="43.1946" lon="2.31845">
        <ele>133.4</ele>
        <time>2021-03-21T13:32:30Z</time>
      </trkpt>
      <trkpt lat="43.19463" lon="2.31866">
        <ele>133.7</ele>
        <time>2021-03-21T13:32:32Z</time>
      </trkpt>
      <trkpt lat="43.19468" lon="2.31874">
        <ele>133.9</ele>
        <time>2021-03-21T13:32:33Z</time>
      </trkpt>
      <trkpt lat="43.19481" lon="2.31887">
        <ele>134.4</ele>
        <time>2021-03-21T13:32:35Z</time>
      </trkpt>
      <trkpt lat="43.19487" lon="2.31894">
        <ele>134.6</ele>
        <time>2021-03-21T13:32:36Z</time>
      </trkpt>
      <trkpt lat="43.19493" lon="2.319">
        <ele>134.8</ele>
        <time>2021-03-21T13:32:37Z</time>
      </trkpt>
      <trkpt lat="43.19504" lon="2.31915">
        <ele>135.3</ele>
        <time>2021-03-21T13:32:39Z</time>
      </trkpt>
      <trkpt lat="43.19508" lon="2.31923">
        <ele>135.5</ele>
        <time>2021-03-21T13:32:40Z</time>
      </trkpt>
      <trkpt lat="43.19516" lon="2.31938">
        <ele>136</ele>
        <time>2021-03-21T13:32:42Z</time>
      </trkpt>
      <trkpt lat="43.1952" lon="2.31947">
        <ele>136.3</ele>
        <time>2021-03-21T13:32:43Z</time>
      </trkpt>
      <trkpt lat="43.19527" lon="2.31963">
        <ele>136.7</ele>
        <time>2021-03-21T13:32:45Z</time>
      </trkpt>
      <trkpt lat="43.19534" lon="2.31981">
        <ele>137.2</ele>
        <time>2021-03-21T13:32:47Z</time>
      </trkpt>
      <trkpt lat="43.19541" lon="2.31999">
        <ele>137.6</ele>
        <time>2021-03-21T13:32:49Z</time>
      </trkpt>
      <trkpt lat="43.19544" lon="2.32008">
        <ele>137.8</ele>
        <time>2021-03-21T13:32:50Z</time>
      </trkpt>
      <trkpt lat="43.1955" lon="2.32025">
        <ele>138.1</ele>
        <time>2021-03-21T13:32:52Z</time>
      </trkpt>
      <trkpt lat="43.19557" lon="2.32043">
        <ele>138.3</ele>
        <time>2021-03-21T13:32:54Z</time>
      </trkpt>
      <trkpt lat="43.19564" lon="2.3206">
        <ele>138.4</ele>
        <time>2021-03-21T13:32:56Z</time>
      </trkpt>
      <trkpt lat="43.19567" lon="2.32068">
        <ele>138.4</ele>
        <time>2021-03-21T13:32:57Z</time>
      </trkpt>
      <trkpt lat="43.1957" lon="2.32077">
        <ele>138.4</ele>
        <time>2021-03-21T13:32:58Z</time>
      </trkpt>
      <trkpt lat="43.19574" lon="2.32085">
        <ele>138.3</ele>
        <time>2021-03-21T13:32:59Z</time>
      </trkpt>
      <trkpt lat="43.19578" lon="2.32093">
        <ele>138.2</ele>
        <time>2021-03-21T13:33:00Z</time>
      </trkpt>
      <trkpt lat="43.19582" lon="2.32102">
        <ele>138.1</ele>
        <time>2021-03-21T13:33:01Z</time>
      </trkpt>
      <trkpt lat="43.19591" lon="2.32118">
        <ele>137.9</ele>
        <time>2021-03-21T13:33:03Z</time>
      </trkpt>
      <trkpt lat="43.19602" lon="2.32134">
        <ele>137.6</ele>
        <time>2021-03-21T13:33:05Z</time>
      </trkpt>
      <trkpt lat="43.19608" lon="2.32142">
        <ele>137.5</ele>
        <time>2021-03-21T13:33:06Z</time>
      </trkpt>
      <trkpt lat="43.1962" lon="2.32159">
        <ele>137.3</ele>
        <time>2021-03-21T13:33:08Z</time>
      </trkpt>
      <trkpt lat="43.19623" lon="2.32167">
        <ele>137.2</ele>
        <time>2021-03-21T13:33:09Z</time>
      </trkpt>
      <trkpt lat="43.19625" lon="2.32174">
        <ele>137.2</ele>
        <time>2021-03-21T13:33:10Z</time>
      </trkpt>
      <trkpt lat="43.19624" lon="2.32178">
        <ele>137.2</ele>
        <time>2021-03-21T13:33:11Z</time>
      </trkpt>
      <trkpt lat="43.19621" lon="2.32189">
        <ele>137.1</ele>
        <time>2021-03-21T13:33:13Z</time>
      </trkpt>
      <trkpt lat="43.19618" lon="2.32197">
        <ele>137.2</ele>
        <time>2021-03-21T13:33:14Z</time>
      </trkpt>
      <trkpt lat="43.19615" lon="2.32205">
        <ele>137.1</ele>
        <time>2021-03-21T13:33:15Z</time>
      </trkpt>
      <trkpt lat="43.19614" lon="2.32215">
        <ele>137.1</ele>
        <time>2021-03-21T13:33:16Z</time>
      </trkpt>
      <trkpt lat="43.19621" lon="2.32234">
        <ele>136.9</ele>
        <time>2021-03-21T13:33:18Z</time>
      </trkpt>
      <trkpt lat="43.19627" lon="2.32241">
        <ele>136.8</ele>
        <time>2021-03-21T13:33:19Z</time>
      </trkpt>
      <trkpt lat="43.19643" lon="2.32248">
        <ele>136.5</ele>
        <time>2021-03-21T13:33:21Z</time>
      </trkpt>
      <trkpt lat="43.19656" lon="2.32256">
        <ele>136.1</ele>
        <time>2021-03-21T13:33:23Z</time>
      </trkpt>
      <trkpt lat="43.19668" lon="2.32269">
        <ele>135.7</ele>
        <time>2021-03-21T13:33:25Z</time>
      </trkpt>
      <trkpt lat="43.19675" lon="2.32276">
        <ele>135.4</ele>
        <time>2021-03-21T13:33:26Z</time>
      </trkpt>
      <trkpt lat="43.19688" lon="2.32292">
        <ele>134.9</ele>
        <time>2021-03-21T13:33:28Z</time>
      </trkpt>
      <trkpt lat="43.19694" lon="2.323">
        <ele>134.6</ele>
        <time>2021-03-21T13:33:29Z</time>
      </trkpt>
      <trkpt lat="43.19708" lon="2.32316">
        <ele>133.9</ele>
        <time>2021-03-21T13:33:31Z</time>
      </trkpt>
      <trkpt lat="43.19714" lon="2.32324">
        <ele>133.6</ele>
        <time>2021-03-21T13:33:32Z</time>
      </trkpt>
      <trkpt lat="43.19728" lon="2.3234">
        <ele>132.8</ele>
        <time>2021-03-21T13:33:34Z</time>
      </trkpt>
      <trkpt lat="43.19735" lon="2.32349">
        <ele>132.4</ele>
        <time>2021-03-21T13:33:35Z</time>
      </trkpt>
      <trkpt lat="43.19748" lon="2.32369">
        <ele>131.7</ele>
        <time>2021-03-21T13:33:37Z</time>
      </trkpt>
      <trkpt lat="43.1976" lon="2.3239">
        <ele>130.9</ele>
        <time>2021-03-21T13:33:39Z</time>
      </trkpt>
      <trkpt lat="43.19772" lon="2.32413">
        <ele>130.2</ele>
        <time>2021-03-21T13:33:41Z</time>
      </trkpt>
      <trkpt lat="43.19777" lon="2.32424">
        <ele>129.8</ele>
        <time>2021-03-21T13:33:42Z</time>
      </trkpt>
      <trkpt lat="43.19783" lon="2.32435">
        <ele>129.4</ele>
        <time>2021-03-21T13:33:43Z</time>
      </trkpt>
      <trkpt lat="43.19788" lon="2.32447">
        <ele>128.9</ele>
        <time>2021-03-21T13:33:44Z</time>
      </trkpt>
      <trkpt lat="43.19799" lon="2.32471">
        <ele>128.1</ele>
        <time>2021-03-21T13:33:46Z</time>
      </trkpt>
      <trkpt lat="43.19804" lon="2.32484">
        <ele>127.7</ele>
        <time>2021-03-21T13:33:47Z</time>
      </trkpt>
      <trkpt lat="43.19815" lon="2.32509">
        <ele>126.9</ele>
        <time>2021-03-21T13:33:49Z</time>
      </trkpt>
      <trkpt lat="43.19826" lon="2.32534">
        <ele>125.9</ele>
        <time>2021-03-21T13:33:51Z</time>
      </trkpt>
      <trkpt lat="43.19832" lon="2.32547">
        <ele>125.5</ele>
        <time>2021-03-21T13:33:52Z</time>
      </trkpt>
      <trkpt lat="43.19837" lon="2.32559">
        <ele>125</ele>
        <time>2021-03-21T13:33:53Z</time>
      </trkpt>
      <trkpt lat="43.19848" lon="2.32584">
        <ele>124</ele>
        <time>2021-03-21T13:33:55Z</time>
      </trkpt>
      <trkpt lat="43.19859" lon="2.32609">
        <ele>123</ele>
        <time>2021-03-21T13:33:57Z</time>
      </trkpt>
      <trkpt lat="43.19865" lon="2.32621">
        <ele>122.5</ele>
        <time>2021-03-21T13:33:58Z</time>
      </trkpt>
      <trkpt lat="43.19876" lon="2.32647">
        <ele>121.6</ele>
        <time>2021-03-21T13:34:00Z</time>
      </trkpt>
      <trkpt lat="43.19887" lon="2.32673">
        <ele>120.9</ele>
        <time>2021-03-21T13:34:02Z</time>
      </trkpt>
      <trkpt lat="43.19894" lon="2.32686">
        <ele>120.5</ele>
        <time>2021-03-21T13:34:03Z</time>
      </trkpt>
      <trkpt lat="43.19901" lon="2.32698">
        <ele>120.3</ele>
        <time>2021-03-21T13:34:04Z</time>
      </trkpt>
      <trkpt lat="43.19916" lon="2.3272">
        <ele>119.7</ele>
        <time>2021-03-21T13:34:06Z</time>
      </trkpt>
      <trkpt lat="43.19924" lon="2.3273">
        <ele>119.3</ele>
        <time>2021-03-21T13:34:07Z</time>
      </trkpt>
      <trkpt lat="43.19932" lon="2.32741">
        <ele>119</ele>
        <time>2021-03-21T13:34:08Z</time>
      </trkpt>
      <trkpt lat="43.19948" lon="2.32761">
        <ele>118.1</ele>
        <time>2021-03-21T13:34:10Z</time>
      </trkpt>
      <trkpt lat="43.19963" lon="2.3278">
        <ele>117.3</ele>
        <time>2021-03-21T13:34:12Z</time>
      </trkpt>
      <trkpt lat="43.19971" lon="2.32789">
        <ele>117.1</ele>
        <time>2021-03-21T13:34:13Z</time>
      </trkpt>
      <trkpt lat="43.19978" lon="2.32799">
        <ele>116.9</ele>
        <time>2021-03-21T13:34:14Z</time>
      </trkpt>
      <trkpt lat="43.19986" lon="2.32808">
        <ele>116.8</ele>
        <time>2021-03-21T13:34:15Z</time>
      </trkpt>
      <trkpt lat="43.20001" lon="2.32828">
        <ele>116.3</ele>
        <time>2021-03-21T13:34:17Z</time>
      </trkpt>
      <trkpt lat="43.2001" lon="2.32839">
        <ele>116.1</ele>
        <time>2021-03-21T13:34:18Z</time>
      </trkpt>
      <trkpt lat="43.20025" lon="2.32859">
        <ele>115.9</ele>
        <time>2021-03-21T13:34:20Z</time>
      </trkpt>
      <trkpt lat="43.20041" lon="2.32879">
        <ele>115.6</ele>
        <time>2021-03-21T13:34:22Z</time>
      </trkpt>
      <trkpt lat="43.20058" lon="2.32895">
        <ele>115.3</ele>
        <time>2021-03-21T13:34:24Z</time>
      </trkpt>
      <trkpt lat="43.20067" lon="2.32902">
        <ele>115.2</ele>
        <time>2021-03-21T13:34:25Z</time>
      </trkpt>
      <trkpt lat="43.20076" lon="2.32909">
        <ele>115.1</ele>
        <time>2021-03-21T13:34:26Z</time>
      </trkpt>
      <trkpt lat="43.20095" lon="2.3292">
        <ele>114.9</ele>
        <time>2021-03-21T13:34:28Z</time>
      </trkpt>
      <trkpt lat="43.20104" lon="2.32926">
        <ele>114.9</ele>
        <time>2021-03-21T13:34:29Z</time>
      </trkpt>
      <trkpt lat="43.20122" lon="2.32937">
        <ele>114.8</ele>
        <time>2021-03-21T13:34:31Z</time>
      </trkpt>
      <trkpt lat="43.2014" lon="2.32948">
        <ele>114.7</ele>
        <time>2021-03-21T13:34:33Z</time>
      </trkpt>
      <trkpt lat="43.20156" lon="2.32961">
        <ele>114.7</ele>
        <time>2021-03-21T13:34:35Z</time>
      </trkpt>
      <trkpt lat="43.20173" lon="2.32974">
        <ele>114.7</ele>
        <time>2021-03-21T13:34:37Z</time>
      </trkpt>
      <trkpt lat="43.20181" lon="2.32982">
        <ele>114.7</ele>
        <time>2021-03-21T13:34:38Z</time>
      </trkpt>
      <trkpt lat="43.20197" lon="2.32998">
        <ele>114.7</ele>
        <time>2021-03-21T13:34:40Z</time>
      </trkpt>
      <trkpt lat="43.20204" lon="2.33005">
        <ele>114.6</ele>
        <time>2021-03-21T13:34:41Z</time>
      </trkpt>
      <trkpt lat="43.20212" lon="2.33013">
        <ele>114.6</ele>
        <time>2021-03-21T13:34:42Z</time>
      </trkpt>
      <trkpt lat="43.20226" lon="2.33029">
        <ele>114.5</ele>
        <time>2021-03-21T13:34:44Z</time>
      </trkpt>
      <trkpt lat="43.20233" lon="2.33037">
        <ele>114.5</ele>
        <time>2021-03-21T13:34:45Z</time>
      </trkpt>
      <trkpt lat="43.2024" lon="2.33046">
        <ele>114.5</ele>
        <time>2021-03-21T13:34:46Z</time>
      </trkpt>
      <trkpt lat="43.20254" lon="2.33062">
        <ele>114.4</ele>
        <time>2021-03-21T13:34:48Z</time>
      </trkpt>
      <trkpt lat="43.20261" lon="2.3307">
        <ele>114.4</ele>
        <time>2021-03-21T13:34:49Z</time>
      </trkpt>
      <trkpt lat="43.20268" lon="2.33078">
        <ele>114.4</ele>
        <time>2021-03-21T13:34:50Z</time>
      </trkpt>
      <trkpt lat="43.20275" lon="2.33086">
        <ele>114.4</ele>
        <time>2021-03-21T13:34:51Z</time>
      </trkpt>
      <trkpt lat="43.20289" lon="2.33101">
        <ele>114.5</ele>
        <time>2021-03-21T13:34:53Z</time>
      </trkpt>
      <trkpt lat="43.20297" lon="2.33109">
        <ele>114.5</ele>
        <time>2021-03-21T13:34:54Z</time>
      </trkpt>
      <trkpt lat="43.20303" lon="2.33116">
        <ele>114.6</ele>
        <time>2021-03-21T13:34:55Z</time>
      </trkpt>
      <trkpt lat="43.20317" lon="2.33131">
        <ele>114.6</ele>
        <time>2021-03-21T13:34:57Z</time>
      </trkpt>
      <trkpt lat="43.20324" lon="2.33139">
        <ele>114.6</ele>
        <time>2021-03-21T13:34:58Z</time>
      </trkpt>
      <trkpt lat="43.20331" lon="2.33146">
        <ele>114.6</ele>
        <time>2021-03-21T13:34:59Z</time>
      </trkpt>
      <trkpt lat="43.20344" lon="2.33161">
        <ele>114.6</ele>
        <time>2021-03-21T13:35:01Z</time>
      </trkpt>
      <trkpt lat="43.20351" lon="2.33168">
        <ele>114.6</ele>
        <time>2021-03-21T13:35:02Z</time>
      </trkpt>
      <trkpt lat="43.20364" lon="2.33185">
        <ele>114.5</ele>
        <time>2021-03-21T13:35:04Z</time>
      </trkpt>
      <trkpt lat="43.20371" lon="2.33193">
        <ele>114.5</ele>
        <time>2021-03-21T13:35:05Z</time>
      </trkpt>
      <trkpt lat="43.20377" lon="2.33201">
        <ele>114.5</ele>
        <time>2021-03-21T13:35:06Z</time>
      </trkpt>
      <trkpt lat="43.20391" lon="2.33216">
        <ele>114.4</ele>
        <time>2021-03-21T13:35:08Z</time>
      </trkpt>
      <trkpt lat="43.20404" lon="2.33232">
        <ele>114.3</ele>
        <time>2021-03-21T13:35:10Z</time>
      </trkpt>
      <trkpt lat="43.2041" lon="2.3324">
        <ele>114.3</ele>
        <time>2021-03-21T13:35:11Z</time>
      </trkpt>
      <trkpt lat="43.20423" lon="2.33256">
        <ele>114.3</ele>
        <time>2021-03-21T13:35:13Z</time>
      </trkpt>
      <trkpt lat="43.20428" lon="2.33265">
        <ele>114.2</ele>
        <time>2021-03-21T13:35:14Z</time>
      </trkpt>
      <trkpt lat="43.20433" lon="2.33274">
        <ele>114.2</ele>
        <time>2021-03-21T13:35:15Z</time>
      </trkpt>
      <trkpt lat="43.20441" lon="2.33296">
        <ele>114.2</ele>
        <time>2021-03-21T13:35:17Z</time>
      </trkpt>
      <trkpt lat="43.20448" lon="2.33316">
        <ele>114.3</ele>
        <time>2021-03-21T13:35:19Z</time>
      </trkpt>
      <trkpt lat="43.20461" lon="2.33329">
        <ele>114.2</ele>
        <time>2021-03-21T13:35:21Z</time>
      </trkpt>
      <trkpt lat="43.20478" lon="2.33332">
        <ele>114.1</ele>
        <time>2021-03-21T13:35:23Z</time>
      </trkpt>
      <trkpt lat="43.20493" lon="2.33337">
        <ele>114</ele>
        <time>2021-03-21T13:35:25Z</time>
      </trkpt>
      <trkpt lat="43.205" lon="2.33341">
        <ele>114</ele>
        <time>2021-03-21T13:35:26Z</time>
      </trkpt>
      <trkpt lat="43.20514" lon="2.33353">
        <ele>114.1</ele>
        <time>2021-03-21T13:35:28Z</time>
      </trkpt>
      <trkpt lat="43.20528" lon="2.33365">
        <ele>114.1</ele>
        <time>2021-03-21T13:35:30Z</time>
      </trkpt>
      <trkpt lat="43.20542" lon="2.33378">
        <ele>114</ele>
        <time>2021-03-21T13:35:32Z</time>
      </trkpt>
      <trkpt lat="43.20549" lon="2.33384">
        <ele>114</ele>
        <time>2021-03-21T13:35:33Z</time>
      </trkpt>
      <trkpt lat="43.20563" lon="2.33398">
        <ele>113.8</ele>
        <time>2021-03-21T13:35:35Z</time>
      </trkpt>
      <trkpt lat="43.2057" lon="2.33405">
        <ele>113.8</ele>
        <time>2021-03-21T13:35:36Z</time>
      </trkpt>
      <trkpt lat="43.20584" lon="2.3342">
        <ele>113.7</ele>
        <time>2021-03-21T13:35:38Z</time>
      </trkpt>
      <trkpt lat="43.20598" lon="2.33434">
        <ele>113.7</ele>
        <time>2021-03-21T13:35:40Z</time>
      </trkpt>
      <trkpt lat="43.20605" lon="2.33441">
        <ele>113.7</ele>
        <time>2021-03-21T13:35:41Z</time>
      </trkpt>
      <trkpt lat="43.20612" lon="2.33448">
        <ele>113.6</ele>
        <time>2021-03-21T13:35:42Z</time>
      </trkpt>
      <trkpt lat="43.20625" lon="2.33462">
        <ele>113.6</ele>
        <time>2021-03-21T13:35:44Z</time>
      </trkpt>
      <trkpt lat="43.20631" lon="2.33469">
        <ele>113.5</ele>
        <time>2021-03-21T13:35:45Z</time>
      </trkpt>
      <trkpt lat="43.20644" lon="2.33483">
        <ele>113.4</ele>
        <time>2021-03-21T13:35:47Z</time>
      </trkpt>
      <trkpt lat="43.20657" lon="2.33498">
        <ele>113.3</ele>
        <time>2021-03-21T13:35:49Z</time>
      </trkpt>
      <trkpt lat="43.2067" lon="2.33514">
        <ele>113.2</ele>
        <time>2021-03-21T13:35:51Z</time>
      </trkpt>
      <trkpt lat="43.20676" lon="2.33523">
        <ele>113.1</ele>
        <time>2021-03-21T13:35:52Z</time>
      </trkpt>
      <trkpt lat="43.20689" lon="2.33541">
        <ele>112.9</ele>
        <time>2021-03-21T13:35:54Z</time>
      </trkpt>
      <trkpt lat="43.20695" lon="2.3355">
        <ele>112.8</ele>
        <time>2021-03-21T13:35:55Z</time>
      </trkpt>
      <trkpt lat="43.20707" lon="2.33568">
        <ele>112.7</ele>
        <time>2021-03-21T13:35:57Z</time>
      </trkpt>
      <trkpt lat="43.20713" lon="2.33577">
        <ele>112.6</ele>
        <time>2021-03-21T13:35:58Z</time>
      </trkpt>
      <trkpt lat="43.20724" lon="2.33597">
        <ele>112.5</ele>
        <time>2021-03-21T13:36:00Z</time>
      </trkpt>
      <trkpt lat="43.20735" lon="2.33616">
        <ele>112.3</ele>
        <time>2021-03-21T13:36:02Z</time>
      </trkpt>
      <trkpt lat="43.20744" lon="2.33632">
        <ele>112.2</ele>
        <time>2021-03-21T13:36:04Z</time>
      </trkpt>
      <trkpt lat="43.20753" lon="2.33644">
        <ele>112.1</ele>
        <time>2021-03-21T13:36:06Z</time>
      </trkpt>
      <trkpt lat="43.20756" lon="2.33649">
        <ele>112.1</ele>
        <time>2021-03-21T13:36:07Z</time>
      </trkpt>
      <trkpt lat="43.20761" lon="2.33656">
        <ele>112.1</ele>
        <time>2021-03-21T13:36:09Z</time>
      </trkpt>
      <trkpt lat="43.20764" lon="2.3366">
        <ele>112</ele>
        <time>2021-03-21T13:36:11Z</time>
      </trkpt>
      <trkpt lat="43.20767" lon="2.33664">
        <ele>112</ele>
        <time>2021-03-21T13:36:13Z</time>
      </trkpt>
      <trkpt lat="43.20769" lon="2.33664">
        <ele>112</ele>
        <time>2021-03-21T13:36:14Z</time>
      </trkpt>
      <trkpt lat="43.2077" lon="2.33665">
        <ele>112</ele>
        <time>2021-03-21T13:36:15Z</time>
      </trkpt>
      <trkpt lat="43.20776" lon="2.33671">
        <ele>112</ele>
        <time>2021-03-21T13:36:17Z</time>
      </trkpt>
      <trkpt lat="43.20785" lon="2.33686">
        <ele>111.9</ele>
        <time>2021-03-21T13:36:19Z</time>
      </trkpt>
      <trkpt lat="43.20789" lon="2.33694">
        <ele>111.8</ele>
        <time>2021-03-21T13:36:20Z</time>
      </trkpt>
      <trkpt lat="43.20794" lon="2.33701">
        <ele>111.8</ele>
        <time>2021-03-21T13:36:21Z</time>
      </trkpt>
      <trkpt lat="43.20806" lon="2.33716">
        <ele>111.8</ele>
        <time>2021-03-21T13:36:23Z</time>
      </trkpt>
      <trkpt lat="43.20818" lon="2.3373">
        <ele>111.9</ele>
        <time>2021-03-21T13:36:25Z</time>
      </trkpt>
      <trkpt lat="43.20829" lon="2.33745">
        <ele>111.8</ele>
        <time>2021-03-21T13:36:27Z</time>
      </trkpt>
      <trkpt lat="43.2084" lon="2.33761">
        <ele>111.7</ele>
        <time>2021-03-21T13:36:29Z</time>
      </trkpt>
      <trkpt lat="43.20846" lon="2.33769">
        <ele>111.7</ele>
        <time>2021-03-21T13:36:30Z</time>
      </trkpt>
      <trkpt lat="43.20858" lon="2.33783">
        <ele>111.7</ele>
        <time>2021-03-21T13:36:32Z</time>
      </trkpt>
      <trkpt lat="43.20864" lon="2.3379">
        <ele>111.7</ele>
        <time>2021-03-21T13:36:33Z</time>
      </trkpt>
      <trkpt lat="43.20878" lon="2.33803">
        <ele>111.8</ele>
        <time>2021-03-21T13:36:35Z</time>
      </trkpt>
      <trkpt lat="43.20885" lon="2.3381">
        <ele>111.8</ele>
        <time>2021-03-21T13:36:36Z</time>
      </trkpt>
      <trkpt lat="43.20898" lon="2.33823">
        <ele>111.9</ele>
        <time>2021-03-21T13:36:38Z</time>
      </trkpt>
      <trkpt lat="43.20904" lon="2.3383">
        <ele>111.9</ele>
        <time>2021-03-21T13:36:39Z</time>
      </trkpt>
      <trkpt lat="43.2091" lon="2.33838">
        <ele>112</ele>
        <time>2021-03-21T13:36:40Z</time>
      </trkpt>
      <trkpt lat="43.20921" lon="2.33855">
        <ele>112.1</ele>
        <time>2021-03-21T13:36:42Z</time>
      </trkpt>
      <trkpt lat="43.20931" lon="2.33872">
        <ele>112.3</ele>
        <time>2021-03-21T13:36:44Z</time>
      </trkpt>
      <trkpt lat="43.20936" lon="2.33881">
        <ele>112.4</ele>
        <time>2021-03-21T13:36:45Z</time>
      </trkpt>
      <trkpt lat="43.20946" lon="2.33898">
        <ele>112.6</ele>
        <time>2021-03-21T13:36:47Z</time>
      </trkpt>
      <trkpt lat="43.20957" lon="2.33915">
        <ele>112.8</ele>
        <time>2021-03-21T13:36:49Z</time>
      </trkpt>
      <trkpt lat="43.20962" lon="2.33923">
        <ele>112.9</ele>
        <time>2021-03-21T13:36:50Z</time>
      </trkpt>
      <trkpt lat="43.20973" lon="2.33939">
        <ele>113.2</ele>
        <time>2021-03-21T13:36:52Z</time>
      </trkpt>
      <trkpt lat="43.20983" lon="2.33955">
        <ele>113.5</ele>
        <time>2021-03-21T13:36:54Z</time>
      </trkpt>
      <trkpt lat="43.20994" lon="2.3397">
        <ele>113.8</ele>
        <time>2021-03-21T13:36:56Z</time>
      </trkpt>
      <trkpt lat="43.21004" lon="2.33986">
        <ele>114.1</ele>
        <time>2021-03-21T13:36:58Z</time>
      </trkpt>
      <trkpt lat="43.21009" lon="2.33994">
        <ele>114.3</ele>
        <time>2021-03-21T13:36:59Z</time>
      </trkpt>
      <trkpt lat="43.21014" lon="2.34002">
        <ele>114.4</ele>
        <time>2021-03-21T13:37:00Z</time>
      </trkpt>
      <trkpt lat="43.21024" lon="2.34017">
        <ele>114.7</ele>
        <time>2021-03-21T13:37:02Z</time>
      </trkpt>
      <trkpt lat="43.21029" lon="2.34025">
        <ele>114.9</ele>
        <time>2021-03-21T13:37:03Z</time>
      </trkpt>
      <trkpt lat="43.21038" lon="2.34039">
        <ele>115.3</ele>
        <time>2021-03-21T13:37:05Z</time>
      </trkpt>
      <trkpt lat="43.21042" lon="2.34046">
        <ele>115.5</ele>
        <time>2021-03-21T13:37:06Z</time>
      </trkpt>
      <trkpt lat="43.21047" lon="2.34053">
        <ele>115.7</ele>
        <time>2021-03-21T13:37:07Z</time>
      </trkpt>
      <trkpt lat="43.21055" lon="2.34067">
        <ele>116.1</ele>
        <time>2021-03-21T13:37:09Z</time>
      </trkpt>
      <trkpt lat="43.2106" lon="2.34073">
        <ele>116.3</ele>
        <time>2021-03-21T13:37:10Z</time>
      </trkpt>
      <trkpt lat="43.21064" lon="2.3408">
        <ele>116.5</ele>
        <time>2021-03-21T13:37:11Z</time>
      </trkpt>
      <trkpt lat="43.21072" lon="2.34094">
        <ele>117</ele>
        <time>2021-03-21T13:37:13Z</time>
      </trkpt>
      <trkpt lat="43.21076" lon="2.34101">
        <ele>117.2</ele>
        <time>2021-03-21T13:37:14Z</time>
      </trkpt>
      <trkpt lat="43.21082" lon="2.34118">
        <ele>117.4</ele>
        <time>2021-03-21T13:37:16Z</time>
      </trkpt>
      <trkpt lat="43.21085" lon="2.34136">
        <ele>117.7</ele>
        <time>2021-03-21T13:37:18Z</time>
      </trkpt>
      <trkpt lat="43.21085" lon="2.34155">
        <ele>118</ele>
        <time>2021-03-21T13:37:20Z</time>
      </trkpt>
      <trkpt lat="43.21085" lon="2.34164">
        <ele>118.2</ele>
        <time>2021-03-21T13:37:21Z</time>
      </trkpt>
      <trkpt lat="43.21084" lon="2.34173">
        <ele>118.3</ele>
        <time>2021-03-21T13:37:22Z</time>
      </trkpt>
      <trkpt lat="43.21084" lon="2.34183">
        <ele>118.5</ele>
        <time>2021-03-21T13:37:23Z</time>
      </trkpt>
      <trkpt lat="43.21083" lon="2.34202">
        <ele>118.8</ele>
        <time>2021-03-21T13:37:25Z</time>
      </trkpt>
      <trkpt lat="43.21083" lon="2.34212">
        <ele>119</ele>
        <time>2021-03-21T13:37:26Z</time>
      </trkpt>
      <trkpt lat="43.21082" lon="2.34232">
        <ele>119.4</ele>
        <time>2021-03-21T13:37:28Z</time>
      </trkpt>
      <trkpt lat="43.21082" lon="2.34242">
        <ele>119.6</ele>
        <time>2021-03-21T13:37:29Z</time>
      </trkpt>
      <trkpt lat="43.21081" lon="2.3426">
        <ele>120.1</ele>
        <time>2021-03-21T13:37:31Z</time>
      </trkpt>
      <trkpt lat="43.2108" lon="2.3427">
        <ele>120.3</ele>
        <time>2021-03-21T13:37:32Z</time>
      </trkpt>
      <trkpt lat="43.2108" lon="2.34279">
        <ele>120.5</ele>
        <time>2021-03-21T13:37:33Z</time>
      </trkpt>
      <trkpt lat="43.2108" lon="2.34289">
        <ele>120.7</ele>
        <time>2021-03-21T13:37:34Z</time>
      </trkpt>
      <trkpt lat="43.2108" lon="2.34308">
        <ele>121</ele>
        <time>2021-03-21T13:37:36Z</time>
      </trkpt>
      <trkpt lat="43.2108" lon="2.34326">
        <ele>121.4</ele>
        <time>2021-03-21T13:37:38Z</time>
      </trkpt>
      <trkpt lat="43.21081" lon="2.34345">
        <ele>121.8</ele>
        <time>2021-03-21T13:37:40Z</time>
      </trkpt>
      <trkpt lat="43.21082" lon="2.34355">
        <ele>122</ele>
        <time>2021-03-21T13:37:41Z</time>
      </trkpt>
      <trkpt lat="43.21082" lon="2.34374">
        <ele>122.3</ele>
        <time>2021-03-21T13:37:43Z</time>
      </trkpt>
      <trkpt lat="43.21081" lon="2.34392">
        <ele>122.7</ele>
        <time>2021-03-21T13:37:45Z</time>
      </trkpt>
      <trkpt lat="43.2108" lon="2.344">
        <ele>122.8</ele>
        <time>2021-03-21T13:37:46Z</time>
      </trkpt>
      <trkpt lat="43.21078" lon="2.34415">
        <ele>123.1</ele>
        <time>2021-03-21T13:37:48Z</time>
      </trkpt>
      <trkpt lat="43.21075" lon="2.34426">
        <ele>123.3</ele>
        <time>2021-03-21T13:37:50Z</time>
      </trkpt>
      <trkpt lat="43.21072" lon="2.34439">
        <ele>123.5</ele>
        <time>2021-03-21T13:37:52Z</time>
      </trkpt>
      <trkpt lat="43.2107" lon="2.34445">
        <ele>123.6</ele>
        <time>2021-03-21T13:37:53Z</time>
      </trkpt>
      <trkpt lat="43.21067" lon="2.34455">
        <ele>123.7</ele>
        <time>2021-03-21T13:37:55Z</time>
      </trkpt>
      <trkpt lat="43.2107" lon="2.34459">
        <ele>123.8</ele>
        <time>2021-03-21T13:37:57Z</time>
      </trkpt>
      <trkpt lat="43.21067" lon="2.34463">
        <ele>123.9</ele>
        <time>2021-03-21T13:37:59Z</time>
      </trkpt>
      <trkpt lat="43.21062" lon="2.34469">
        <ele>124</ele>
        <time>2021-03-21T13:38:01Z</time>
      </trkpt>
      <trkpt lat="43.21062" lon="2.3447">
        <ele>124</ele>
        <time>2021-03-21T13:38:02Z</time>
      </trkpt>
      <trkpt lat="43.21061" lon="2.34471">
        <ele>124</ele>
        <time>2021-03-21T13:38:03Z</time>
      </trkpt>
      <trkpt lat="43.21061" lon="2.34472">
        <ele>124</ele>
        <time>2021-03-21T13:38:05Z</time>
      </trkpt>
      <trkpt lat="43.21061" lon="2.34473">
        <ele>124.1</ele>
        <time>2021-03-21T13:38:06Z</time>
      </trkpt>
      <trkpt lat="43.21061" lon="2.34475">
        <ele>124.1</ele>
        <time>2021-03-21T13:38:07Z</time>
      </trkpt>
      <trkpt lat="43.2106" lon="2.34476">
        <ele>124.1</ele>
        <time>2021-03-21T13:38:08Z</time>
      </trkpt>
      <trkpt lat="43.2106" lon="2.34477">
        <ele>124.1</ele>
        <time>2021-03-21T13:38:10Z</time>
      </trkpt>
      <trkpt lat="43.2106" lon="2.34478">
        <ele>124.1</ele>
        <time>2021-03-21T13:38:11Z</time>
      </trkpt>
      <trkpt lat="43.2106" lon="2.34479">
        <ele>124.1</ele>
        <time>2021-03-21T13:38:12Z</time>
      </trkpt>
      <trkpt lat="43.2106" lon="2.34481">
        <ele>124.1</ele>
        <time>2021-03-21T13:38:29Z</time>
      </trkpt>
      <trkpt lat="43.21059" lon="2.34482">
        <ele>124.2</ele>
        <time>2021-03-21T13:38:30Z</time>
      </trkpt>
      <trkpt lat="43.21059" lon="2.34483">
        <ele>124.2</ele>
        <time>2021-03-21T13:38:31Z</time>
      </trkpt>
      <trkpt lat="43.21057" lon="2.34489">
        <ele>124.2</ele>
        <time>2021-03-21T13:38:32Z</time>
      </trkpt>
      <trkpt lat="43.21056" lon="2.34496">
        <ele>124.3</ele>
        <time>2021-03-21T13:38:33Z</time>
      </trkpt>
      <trkpt lat="43.21054" lon="2.34513">
        <ele>124.4</ele>
        <time>2021-03-21T13:38:35Z</time>
      </trkpt>
      <trkpt lat="43.21051" lon="2.34532">
        <ele>124.5</ele>
        <time>2021-03-21T13:38:37Z</time>
      </trkpt>
      <trkpt lat="43.21048" lon="2.34551">
        <ele>124.5</ele>
        <time>2021-03-21T13:38:39Z</time>
      </trkpt>
      <trkpt lat="43.21047" lon="2.34561">
        <ele>124.5</ele>
        <time>2021-03-21T13:38:40Z</time>
      </trkpt>
      <trkpt lat="43.21043" lon="2.34581">
        <ele>124.5</ele>
        <time>2021-03-21T13:38:42Z</time>
      </trkpt>
      <trkpt lat="43.2104" lon="2.34603">
        <ele>124.5</ele>
        <time>2021-03-21T13:38:44Z</time>
      </trkpt>
      <trkpt lat="43.21038" lon="2.34614">
        <ele>124.5</ele>
        <time>2021-03-21T13:38:45Z</time>
      </trkpt>
      <trkpt lat="43.21036" lon="2.34624">
        <ele>124.5</ele>
        <time>2021-03-21T13:38:46Z</time>
      </trkpt>
      <trkpt lat="43.21034" lon="2.34635">
        <ele>124.5</ele>
        <time>2021-03-21T13:38:47Z</time>
      </trkpt>
      <trkpt lat="43.21031" lon="2.34646">
        <ele>124.4</ele>
        <time>2021-03-21T13:38:48Z</time>
      </trkpt>
      <trkpt lat="43.21028" lon="2.34669">
        <ele>124.2</ele>
        <time>2021-03-21T13:38:50Z</time>
      </trkpt>
      <trkpt lat="43.21027" lon="2.34681">
        <ele>124.1</ele>
        <time>2021-03-21T13:38:51Z</time>
      </trkpt>
      <trkpt lat="43.21027" lon="2.34694">
        <ele>124</ele>
        <time>2021-03-21T13:38:52Z</time>
      </trkpt>
      <trkpt lat="43.21028" lon="2.34706">
        <ele>123.8</ele>
        <time>2021-03-21T13:38:53Z</time>
      </trkpt>
      <trkpt lat="43.21028" lon="2.34719">
        <ele>123.6</ele>
        <time>2021-03-21T13:38:54Z</time>
      </trkpt>
      <trkpt lat="43.21029" lon="2.34745">
        <ele>123.1</ele>
        <time>2021-03-21T13:38:56Z</time>
      </trkpt>
      <trkpt lat="43.21029" lon="2.34772">
        <ele>122.5</ele>
        <time>2021-03-21T13:38:58Z</time>
      </trkpt>
      <trkpt lat="43.21029" lon="2.34786">
        <ele>122.1</ele>
        <time>2021-03-21T13:38:59Z</time>
      </trkpt>
      <trkpt lat="43.21029" lon="2.348">
        <ele>121.7</ele>
        <time>2021-03-21T13:39:00Z</time>
      </trkpt>
      <trkpt lat="43.21029" lon="2.34828">
        <ele>121</ele>
        <time>2021-03-21T13:39:02Z</time>
      </trkpt>
      <trkpt lat="43.21029" lon="2.34858">
        <ele>120.2</ele>
        <time>2021-03-21T13:39:04Z</time>
      </trkpt>
      <trkpt lat="43.21029" lon="2.34873">
        <ele>119.7</ele>
        <time>2021-03-21T13:39:05Z</time>
      </trkpt>
      <trkpt lat="43.21029" lon="2.34904">
        <ele>118.8</ele>
        <time>2021-03-21T13:39:07Z</time>
      </trkpt>
      <trkpt lat="43.21029" lon="2.34919">
        <ele>118.3</ele>
        <time>2021-03-21T13:39:08Z</time>
      </trkpt>
      <trkpt lat="43.21029" lon="2.34951">
        <ele>117.3</ele>
        <time>2021-03-21T13:39:10Z</time>
      </trkpt>
      <trkpt lat="43.21029" lon="2.34966">
        <ele>116.9</ele>
        <time>2021-03-21T13:39:11Z</time>
      </trkpt>
      <trkpt lat="43.21029" lon="2.34997">
        <ele>116.1</ele>
        <time>2021-03-21T13:39:13Z</time>
      </trkpt>
      <trkpt lat="43.21029" lon="2.35013">
        <ele>115.7</ele>
        <time>2021-03-21T13:39:14Z</time>
      </trkpt>
      <trkpt lat="43.21029" lon="2.35029">
        <ele>115.3</ele>
        <time>2021-03-21T13:39:15Z</time>
      </trkpt>
      <trkpt lat="43.21029" lon="2.35061">
        <ele>114.7</ele>
        <time>2021-03-21T13:39:17Z</time>
      </trkpt>
      <trkpt lat="43.2103" lon="2.35077">
        <ele>114.4</ele>
        <time>2021-03-21T13:39:18Z</time>
      </trkpt>
      <trkpt lat="43.2103" lon="2.35093">
        <ele>114.1</ele>
        <time>2021-03-21T13:39:19Z</time>
      </trkpt>
      <trkpt lat="43.21031" lon="2.35108">
        <ele>113.8</ele>
        <time>2021-03-21T13:39:20Z</time>
      </trkpt>
      <trkpt lat="43.21031" lon="2.35137">
        <ele>113.5</ele>
        <time>2021-03-21T13:39:22Z</time>
      </trkpt>
      <trkpt lat="43.21033" lon="2.35163">
        <ele>113.2</ele>
        <time>2021-03-21T13:39:24Z</time>
      </trkpt>
      <trkpt lat="43.21034" lon="2.35189">
        <ele>112.7</ele>
        <time>2021-03-21T13:39:26Z</time>
      </trkpt>
      <trkpt lat="43.21035" lon="2.35201">
        <ele>112.4</ele>
        <time>2021-03-21T13:39:27Z</time>
      </trkpt>
      <trkpt lat="43.21034" lon="2.35222">
        <ele>112.1</ele>
        <time>2021-03-21T13:39:29Z</time>
      </trkpt>
      <trkpt lat="43.2103" lon="2.3524">
        <ele>111.8</ele>
        <time>2021-03-21T13:39:31Z</time>
      </trkpt>
      <trkpt lat="43.21021" lon="2.35251">
        <ele>111.5</ele>
        <time>2021-03-21T13:39:33Z</time>
      </trkpt>
      <trkpt lat="43.21017" lon="2.35266">
        <ele>111.3</ele>
        <time>2021-03-21T13:39:35Z</time>
      </trkpt>
      <trkpt lat="43.21021" lon="2.35282">
        <ele>111.2</ele>
        <time>2021-03-21T13:39:37Z</time>
      </trkpt>
      <trkpt lat="43.21026" lon="2.35289">
        <ele>111.1</ele>
        <time>2021-03-21T13:39:38Z</time>
      </trkpt>
      <trkpt lat="43.21034" lon="2.35302">
        <ele>110.8</ele>
        <time>2021-03-21T13:39:40Z</time>
      </trkpt>
      <trkpt lat="43.21036" lon="2.35319">
        <ele>110.5</ele>
        <time>2021-03-21T13:39:42Z</time>
      </trkpt>
      <trkpt lat="43.21036" lon="2.35329">
        <ele>110.4</ele>
        <time>2021-03-21T13:39:43Z</time>
      </trkpt>
      <trkpt lat="43.21034" lon="2.3535">
        <ele>110.1</ele>
        <time>2021-03-21T13:39:45Z</time>
      </trkpt>
      <trkpt lat="43.21034" lon="2.35361">
        <ele>110</ele>
        <time>2021-03-21T13:39:46Z</time>
      </trkpt>
      <trkpt lat="43.21035" lon="2.35381">
        <ele>109.8</ele>
        <time>2021-03-21T13:39:48Z</time>
      </trkpt>
      <trkpt lat="43.21036" lon="2.35391">
        <ele>109.7</ele>
        <time>2021-03-21T13:39:49Z</time>
      </trkpt>
      <trkpt lat="43.21037" lon="2.35402">
        <ele>109.5</ele>
        <time>2021-03-21T13:39:50Z</time>
      </trkpt>
      <trkpt lat="43.21037" lon="2.35423">
        <ele>109.4</ele>
        <time>2021-03-21T13:39:52Z</time>
      </trkpt>
      <trkpt lat="43.21036" lon="2.35434">
        <ele>109.3</ele>
        <time>2021-03-21T13:39:53Z</time>
      </trkpt>
      <trkpt lat="43.21036" lon="2.35456">
        <ele>109.1</ele>
        <time>2021-03-21T13:39:55Z</time>
      </trkpt>
      <trkpt lat="43.21036" lon="2.35467">
        <ele>109</ele>
        <time>2021-03-21T13:39:56Z</time>
      </trkpt>
      <trkpt lat="43.21036" lon="2.35478">
        <ele>108.9</ele>
        <time>2021-03-21T13:39:57Z</time>
      </trkpt>
      <trkpt lat="43.21037" lon="2.35488">
        <ele>108.8</ele>
        <time>2021-03-21T13:39:58Z</time>
      </trkpt>
      <trkpt lat="43.21038" lon="2.35507">
        <ele>108.6</ele>
        <time>2021-03-21T13:40:00Z</time>
      </trkpt>
      <trkpt lat="43.21042" lon="2.35524">
        <ele>108.4</ele>
        <time>2021-03-21T13:40:02Z</time>
      </trkpt>
      <trkpt lat="43.21048" lon="2.35531">
        <ele>108.4</ele>
        <time>2021-03-21T13:40:03Z</time>
      </trkpt>
      <trkpt lat="43.21055" lon="2.35536">
        <ele>108.4</ele>
        <time>2021-03-21T13:40:04Z</time>
      </trkpt>
      <trkpt lat="43.21063" lon="2.35537">
        <ele>108.3</ele>
        <time>2021-03-21T13:40:05Z</time>
      </trkpt>
      <trkpt lat="43.21078" lon="2.35536">
        <ele>108.1</ele>
        <time>2021-03-21T13:40:07Z</time>
      </trkpt>
      <trkpt lat="43.21091" lon="2.35535">
        <ele>108</ele>
        <time>2021-03-21T13:40:09Z</time>
      </trkpt>
      <trkpt lat="43.21097" lon="2.35536">
        <ele>107.9</ele>
        <time>2021-03-21T13:40:10Z</time>
      </trkpt>
      <trkpt lat="43.21106" lon="2.35535">
        <ele>107.8</ele>
        <time>2021-03-21T13:40:12Z</time>
      </trkpt>
      <trkpt lat="43.21111" lon="2.35528">
        <ele>107.6</ele>
        <time>2021-03-21T13:40:14Z</time>
      </trkpt>
      <trkpt lat="43.21114" lon="2.35523">
        <ele>107.6</ele>
        <time>2021-03-21T13:40:15Z</time>
      </trkpt>
      <trkpt lat="43.21116" lon="2.35511">
        <ele>107.5</ele>
        <time>2021-03-21T13:40:17Z</time>
      </trkpt>
      <trkpt lat="43.21124" lon="2.35525">
        <ele>107.5</ele>
        <time>2021-03-21T13:40:18Z</time>
      </trkpt>
      <trkpt lat="43.21119" lon="2.35506">
        <ele>107.4</ele>
        <time>2021-03-21T13:40:19Z</time>
      </trkpt>
      <trkpt lat="43.21118" lon="2.355">
        <ele>107.3</ele>
        <time>2021-03-21T13:40:20Z</time>
      </trkpt>
      <trkpt lat="43.21119" lon="2.35492">
        <ele>107.1</ele>
        <time>2021-03-21T13:40:21Z</time>
      </trkpt>
      <trkpt lat="43.2112" lon="2.35482">
        <ele>107</ele>
        <time>2021-03-21T13:40:23Z</time>
      </trkpt>
      <trkpt lat="43.21118" lon="2.35468">
        <ele>106.7</ele>
        <time>2021-03-21T13:40:24Z</time>
      </trkpt>
      <trkpt lat="43.21116" lon="2.3546">
        <ele>106.5</ele>
        <time>2021-03-21T13:40:25Z</time>
      </trkpt>
      <trkpt lat="43.21112" lon="2.35445">
        <ele>106.3</ele>
        <time>2021-03-21T13:40:27Z</time>
      </trkpt>
      <trkpt lat="43.21106" lon="2.35427">
        <ele>106.2</ele>
        <time>2021-03-21T13:40:29Z</time>
      </trkpt>
      <trkpt lat="43.21104" lon="2.35418">
        <ele>106.2</ele>
        <time>2021-03-21T13:40:30Z</time>
      </trkpt>
      <trkpt lat="43.21102" lon="2.3541">
        <ele>106.2</ele>
        <time>2021-03-21T13:40:31Z</time>
      </trkpt>
      <trkpt lat="43.21101" lon="2.35402">
        <ele>106.2</ele>
        <time>2021-03-21T13:40:32Z</time>
      </trkpt>
      <trkpt lat="43.21101" lon="2.35391">
        <ele>106.3</ele>
        <time>2021-03-21T13:40:34Z</time>
      </trkpt>
      <trkpt lat="43.21102" lon="2.35392">
        <ele>106.3</ele>
        <time>2021-03-21T13:40:35Z</time>
      </trkpt>
      <trkpt lat="43.21108" lon="2.35387">
        <ele>106.4</ele>
        <time>2021-03-21T13:40:37Z</time>
      </trkpt>
      <trkpt lat="43.21115" lon="2.35382">
        <ele>106.4</ele>
        <time>2021-03-21T13:40:39Z</time>
      </trkpt>
      <trkpt lat="43.21117" lon="2.3538">
        <ele>106.5</ele>
        <time>2021-03-21T13:40:40Z</time>
      </trkpt>
      <trkpt lat="43.21118" lon="2.35377">
        <ele>106.5</ele>
        <time>2021-03-21T13:40:42Z</time>
      </trkpt>
      <trkpt lat="43.21121" lon="2.35374">
        <ele>106.5</ele>
        <time>2021-03-21T13:40:43Z</time>
      </trkpt>
      <trkpt lat="43.21122" lon="2.35371">
        <ele>106.6</ele>
        <time>2021-03-21T13:40:44Z</time>
      </trkpt>
      <trkpt lat="43.21128" lon="2.35358">
        <ele>106.7</ele>
        <time>2021-03-21T13:40:46Z</time>
      </trkpt>
      <trkpt lat="43.21129" lon="2.35348">
        <ele>106.8</ele>
        <time>2021-03-21T13:40:47Z</time>
      </trkpt>
      <trkpt lat="43.21129" lon="2.35338">
        <ele>106.8</ele>
        <time>2021-03-21T13:40:48Z</time>
      </trkpt>
      <trkpt lat="43.21128" lon="2.35328">
        <ele>106.9</ele>
        <time>2021-03-21T13:40:49Z</time>
      </trkpt>
      <trkpt lat="43.21124" lon="2.35311">
        <ele>107</ele>
        <time>2021-03-21T13:40:51Z</time>
      </trkpt>
      <trkpt lat="43.21122" lon="2.35314">
        <ele>107</ele>
        <time>2021-03-21T13:40:52Z</time>
      </trkpt>
      <trkpt lat="43.21121" lon="2.35317">
        <ele>107</ele>
        <time>2021-03-21T13:40:53Z</time>
      </trkpt>
      <trkpt lat="43.21119" lon="2.3532">
        <ele>107.1</ele>
        <time>2021-03-21T13:40:55Z</time>
      </trkpt>
      <trkpt lat="43.21121" lon="2.35322">
        <ele>107.1</ele>
        <time>2021-03-21T13:40:56Z</time>
      </trkpt>
      <trkpt lat="43.21122" lon="2.35322">
        <ele>107.1</ele>
        <time>2021-03-21T13:40:57Z</time>
      </trkpt>
      <trkpt lat="43.21123" lon="2.3532">
        <ele>107.1</ele>
        <time>2021-03-21T13:40:58Z</time>
      </trkpt>
      <trkpt lat="43.21123" lon="2.35317">
        <ele>107.2</ele>
        <time>2021-03-21T13:41:00Z</time>
      </trkpt>
      <trkpt lat="43.21123" lon="2.35317">
        <ele>107.2</ele>
        <time>2021-03-21T13:41:01Z</time>
      </trkpt>
      <trkpt lat="43.21123" lon="2.35314">
        <ele>107.2</ele>
        <time>2021-03-21T13:41:03Z</time>
      </trkpt>
      <trkpt lat="43.21123" lon="2.35312">
        <ele>107.2</ele>
        <time>2021-03-21T13:41:04Z</time>
      </trkpt>
      <trkpt lat="43.21123" lon="2.3531">
        <ele>107.3</ele>
        <time>2021-03-21T13:41:05Z</time>
      </trkpt>
      <trkpt lat="43.21123" lon="2.35307">
        <ele>107.3</ele>
        <time>2021-03-21T13:41:07Z</time>
      </trkpt>
      <trkpt lat="43.21122" lon="2.35305">
        <ele>107.3</ele>
        <time>2021-03-21T13:41:08Z</time>
      </trkpt>
      <trkpt lat="43.21118" lon="2.35287">
        <ele>107.6</ele>
        <time>2021-03-21T13:41:09Z</time>
      </trkpt>
      <trkpt lat="43.21107" lon="2.35241">
        <ele>108.5</ele>
        <time>2021-03-21T13:41:11Z</time>
      </trkpt>
      <trkpt lat="43.21107" lon="2.35241">
        <ele>108.5</ele>
        <time>2021-03-21T13:41:12Z</time>
      </trkpt>
      <trkpt lat="43.21108" lon="2.35241">
        <ele>108.5</ele>
        <time>2021-03-21T13:41:13Z</time>
      </trkpt>
      <trkpt lat="43.21108" lon="2.35241">
        <ele>108.5</ele>
        <time>2021-03-21T13:41:14Z</time>
      </trkpt>
      <trkpt lat="43.21109" lon="2.35241">
        <ele>108.5</ele>
        <time>2021-03-21T13:41:16Z</time>
      </trkpt>
      <trkpt lat="43.21109" lon="2.35241">
        <ele>108.5</ele>
        <time>2021-03-21T13:41:17Z</time>
      </trkpt>
      <trkpt lat="43.21109" lon="2.35241">
        <ele>108.5</ele>
        <time>2021-03-21T13:41:18Z</time>
      </trkpt>
    </trkseg>
  </trk>
</gpx>